<?xml version='1.0' encoding='UTF-8'?><gpx version="1.1" creator="JPX - https://github.com/jenetics/jpx" xmlns="http://www.topografix.com/GPX/1/1"><trk><trkseg><trkpt lat="43.8932858" lon="8.0460528"><ele>63.0</ele><time>2026-04-09T12:56:57.276Z</time></trkpt><trkpt lat="43.8932388" lon="8.0461414"><ele>63.0</ele><time>2026-04-09T12:56:59.276Z</time></trkpt><trkpt lat="43.8931801" lon="8.0462939"><ele>63.0</ele><time>2026-04-09T12:57:01.275Z</time></trkpt><trkpt lat="43.8931639" lon="8.0463981"><ele>63.0</ele><time>2026-04-09T12:57:02.276Z</time></trkpt><trkpt lat="43.8931434" lon="8.0464826"><ele>63.0</ele><time>2026-04-09T12:57:03.276Z</time></trkpt><trkpt lat="43.8931238" lon="8.0465781"><ele>63.0</ele><time>2026-04-09T12:57:05.276Z</time></trkpt><trkpt lat="43.8932131" lon="8.0466969"><ele>61.599999999999994</ele><time>2026-04-09T12:57:08.276Z</time></trkpt><trkpt lat="43.8933069" lon="8.046741"><ele>60.199999999999996</ele><time>2026-04-09T12:57:09.276Z</time></trkpt><trkpt lat="43.8933882" lon="8.0468104"><ele>58.8</ele><time>2026-04-09T12:57:10.276Z</time></trkpt><trkpt lat="43.8934392" lon="8.0469166"><ele>57.4</ele><time>2026-04-09T12:57:11.275Z</time></trkpt><trkpt lat="43.8934704" lon="8.0470352"><ele>56.0</ele><time>2026-04-09T12:57:12.276Z</time></trkpt><trkpt lat="43.8934905" lon="8.0471657"><ele>58.8</ele><time>2026-04-09T12:57:13.276Z</time></trkpt><trkpt lat="43.8935014" lon="8.0473092"><ele>61.599999999999994</ele><time>2026-04-09T12:57:14.275Z</time></trkpt><trkpt lat="43.8935042" lon="8.0474508"><ele>64.4</ele><time>2026-04-09T12:57:15.276Z</time></trkpt><trkpt lat="43.8935102" lon="8.047589"><ele>67.2</ele><time>2026-04-09T12:57:16.276Z</time></trkpt><trkpt lat="43.8935356" lon="8.0477485"><ele>70.0</ele><time>2026-04-09T12:57:17.276Z</time></trkpt><trkpt lat="43.8935899" lon="8.0478957"><ele>70.0</ele><time>2026-04-09T12:57:18.275Z</time></trkpt><trkpt lat="43.8936617" lon="8.0480302"><ele>70.0</ele><time>2026-04-09T12:57:19.275Z</time></trkpt><trkpt lat="43.8937678" lon="8.0481406"><ele>70.0</ele><time>2026-04-09T12:57:20.275Z</time></trkpt><trkpt lat="43.8938808" lon="8.048238"><ele>70.0</ele><time>2026-04-09T12:57:21.275Z</time></trkpt><trkpt lat="43.8939923" lon="8.0483396"><ele>68.0</ele><time>2026-04-09T12:57:22.275Z</time></trkpt><trkpt lat="43.8941005" lon="8.048437"><ele>66.0</ele><time>2026-04-09T12:57:23.276Z</time></trkpt><trkpt lat="43.8942024" lon="8.0485291"><ele>64.0</ele><time>2026-04-09T12:57:24.275Z</time></trkpt><trkpt lat="43.894293" lon="8.0486258"><ele>62.0</ele><time>2026-04-09T12:57:25.276Z</time></trkpt><trkpt lat="43.8943749" lon="8.048725"><ele>62.0</ele><time>2026-04-09T12:57:26.275Z</time></trkpt><trkpt lat="43.8944465" lon="8.0488279"><ele>62.0</ele><time>2026-04-09T12:57:27.276Z</time></trkpt><trkpt lat="43.8945262" lon="8.0489088"><ele>62.0</ele><time>2026-04-09T12:57:28.276Z</time></trkpt><trkpt lat="43.8946155" lon="8.0489807"><ele>62.0</ele><time>2026-04-09T12:57:29.275Z</time></trkpt><trkpt lat="43.8947013" lon="8.0490799"><ele>62.0</ele><time>2026-04-09T12:57:30.276Z</time></trkpt><trkpt lat="43.8947449" lon="8.0492487"><ele>59.0</ele><time>2026-04-09T12:57:31.276Z</time></trkpt><trkpt lat="43.8947423" lon="8.0494303"><ele>56.0</ele><time>2026-04-09T12:57:32.275Z</time></trkpt><trkpt lat="43.8946993" lon="8.0496088"><ele>53.0</ele><time>2026-04-09T12:57:33.276Z</time></trkpt><trkpt lat="43.8946602" lon="8.0497607"><ele>50.0</ele><time>2026-04-09T12:57:34.276Z</time></trkpt><trkpt lat="43.8946035" lon="8.0498838"><ele>50.00000000000001</ele><time>2026-04-09T12:57:35.275Z</time></trkpt><trkpt lat="43.8945386" lon="8.0499591"><ele>50.0</ele><time>2026-04-09T12:57:36.275Z</time></trkpt><trkpt lat="43.8944708" lon="8.049956"><ele>50.0</ele><time>2026-04-09T12:57:37.276Z</time></trkpt><trkpt lat="43.8944056" lon="8.04993"><ele>50.0</ele><time>2026-04-09T12:57:38.276Z</time></trkpt><trkpt lat="43.89433" lon="8.0498654"><ele>50.00000000000001</ele><time>2026-04-09T12:57:39.275Z</time></trkpt><trkpt lat="43.894234" lon="8.0498117"><ele>50.0</ele><time>2026-04-09T12:57:40.276Z</time></trkpt><trkpt lat="43.8941185" lon="8.0497981"><ele>48.0</ele><time>2026-04-09T12:57:41.276Z</time></trkpt><trkpt lat="43.8939974" lon="8.0497779"><ele>46.0</ele><time>2026-04-09T12:57:42.276Z</time></trkpt><trkpt lat="43.8938838" lon="8.0497299"><ele>44.0</ele><time>2026-04-09T12:57:43.275Z</time></trkpt><trkpt lat="43.8937808" lon="8.0496284"><ele>42.0</ele><time>2026-04-09T12:57:44.275Z</time></trkpt><trkpt lat="43.8936748" lon="8.0495168"><ele>42.0</ele><time>2026-04-09T12:57:45.276Z</time></trkpt><trkpt lat="43.8935645" lon="8.0494073"><ele>42.0</ele><time>2026-04-09T12:57:46.275Z</time></trkpt><trkpt lat="43.8934439" lon="8.0492998"><ele>42.0</ele><time>2026-04-09T12:57:47.276Z</time></trkpt><trkpt lat="43.8933249" lon="8.0492014"><ele>42.0</ele><time>2026-04-09T12:57:48.276Z</time></trkpt><trkpt lat="43.8931926" lon="8.0491195"><ele>41.0</ele><time>2026-04-09T12:57:49.276Z</time></trkpt><trkpt lat="43.8930595" lon="8.0490268"><ele>40.0</ele><time>2026-04-09T12:57:50.276Z</time></trkpt><trkpt lat="43.8929214" lon="8.0489399"><ele>39.0</ele><time>2026-04-09T12:57:51.275Z</time></trkpt><trkpt lat="43.8927838" lon="8.0488519"><ele>39.0</ele><time>2026-04-09T12:57:52.275Z</time></trkpt><trkpt lat="43.8926505" lon="8.0487547"><ele>39.0</ele><time>2026-04-09T12:57:53.275Z</time></trkpt><trkpt lat="43.8925246" lon="8.0486593"><ele>39.0</ele><time>2026-04-09T12:57:54.275Z</time></trkpt><trkpt lat="43.8924094" lon="8.0485618"><ele>39.0</ele><time>2026-04-09T12:57:55.276Z</time></trkpt><trkpt lat="43.8923209" lon="8.0484534"><ele>37.5</ele><time>2026-04-09T12:57:56.276Z</time></trkpt><trkpt lat="43.8922618" lon="8.0483154"><ele>36.0</ele><time>2026-04-09T12:57:57.276Z</time></trkpt><trkpt lat="43.8922267" lon="8.0481568"><ele>34.5</ele><time>2026-04-09T12:57:58.275Z</time></trkpt><trkpt lat="43.8922177" lon="8.0479967"><ele>33.0</ele><time>2026-04-09T12:57:59.275Z</time></trkpt><trkpt lat="43.892225" lon="8.0478475"><ele>33.0</ele><time>2026-04-09T12:58:00.276Z</time></trkpt><trkpt lat="43.8922411" lon="8.0477038"><ele>33.0</ele><time>2026-04-09T12:58:01.275Z</time></trkpt><trkpt lat="43.8922398" lon="8.0475598"><ele>33.0</ele><time>2026-04-09T12:58:02.275Z</time></trkpt><trkpt lat="43.8921966" lon="8.0474275"><ele>33.0</ele><time>2026-04-09T12:58:03.275Z</time></trkpt><trkpt lat="43.8920803" lon="8.0473405"><ele>33.0</ele><time>2026-04-09T12:58:04.275Z</time></trkpt><trkpt lat="43.8919325" lon="8.0473031"><ele>32.25</ele><time>2026-04-09T12:58:05.275Z</time></trkpt><trkpt lat="43.891793" lon="8.0473072"><ele>31.5</ele><time>2026-04-09T12:58:06.275Z</time></trkpt><trkpt lat="43.8916564" lon="8.0473092"><ele>30.75</ele><time>2026-04-09T12:58:07.275Z</time></trkpt><trkpt lat="43.8915297" lon="8.0472533"><ele>30.0</ele><time>2026-04-09T12:58:08.275Z</time></trkpt><trkpt lat="43.8914022" lon="8.0471662"><ele>30.0</ele><time>2026-04-09T12:58:09.276Z</time></trkpt><trkpt lat="43.8912816" lon="8.0470472"><ele>30.0</ele><time>2026-04-09T12:58:10.275Z</time></trkpt><trkpt lat="43.8911587" lon="8.0469196"><ele>30.0</ele><time>2026-04-09T12:58:11.275Z</time></trkpt><trkpt lat="43.891036" lon="8.0467873"><ele>31.0</ele><time>2026-04-09T12:58:12.276Z</time></trkpt><trkpt lat="43.8909085" lon="8.0466559"><ele>32.0</ele><time>2026-04-09T12:58:13.275Z</time></trkpt><trkpt lat="43.8907799" lon="8.0465427"><ele>33.0</ele><time>2026-04-09T12:58:14.276Z</time></trkpt><trkpt lat="43.890662" lon="8.0464306"><ele>33.0</ele><time>2026-04-09T12:58:15.275Z</time></trkpt><trkpt lat="43.8905586" lon="8.0463303"><ele>33.0</ele><time>2026-04-09T12:58:16.275Z</time></trkpt><trkpt lat="43.8904483" lon="8.0462291"><ele>33.0</ele><time>2026-04-09T12:58:17.275Z</time></trkpt><trkpt lat="43.8903342" lon="8.0461192"><ele>33.0</ele><time>2026-04-09T12:58:18.275Z</time></trkpt><trkpt lat="43.8902253" lon="8.0460085"><ele>33.0</ele><time>2026-04-09T12:58:19.276Z</time></trkpt><trkpt lat="43.8901227" lon="8.0458906"><ele>33.0</ele><time>2026-04-09T12:58:20.276Z</time></trkpt><trkpt lat="43.8900164" lon="8.0457775"><ele>33.0</ele><time>2026-04-09T12:58:21.275Z</time></trkpt><trkpt lat="43.8899089" lon="8.0456802"><ele>33.0</ele><time>2026-04-09T12:58:22.275Z</time></trkpt><trkpt lat="43.8898095" lon="8.0455917"><ele>33.0</ele><time>2026-04-09T12:58:23.276Z</time></trkpt><trkpt lat="43.8897212" lon="8.0455045"><ele>33.0</ele><time>2026-04-09T12:58:24.276Z</time></trkpt><trkpt lat="43.8896423" lon="8.045425"><ele>33.0</ele><time>2026-04-09T12:58:25.276Z</time></trkpt><trkpt lat="43.8895764" lon="8.0453514"><ele>33.0</ele><time>2026-04-09T12:58:26.275Z</time></trkpt><trkpt lat="43.8895231" lon="8.0452943"><ele>33.0</ele><time>2026-04-09T12:58:27.275Z</time></trkpt><trkpt lat="43.8894683" lon="8.0451958"><ele>33.0</ele><time>2026-04-09T12:58:29.276Z</time></trkpt><trkpt lat="43.8894325" lon="8.0450714"><ele>33.333333333333336</ele><time>2026-04-09T12:58:31.275Z</time></trkpt><trkpt lat="43.8894196" lon="8.04494"><ele>33.666666666666664</ele><time>2026-04-09T12:58:33.275Z</time></trkpt><trkpt lat="43.8894228" lon="8.0448426"><ele>34.0</ele><time>2026-04-09T12:58:36.276Z</time></trkpt><trkpt lat="43.8894184" lon="8.0447538"><ele>34.33333333333333</ele><time>2026-04-09T12:58:40.275Z</time></trkpt><trkpt lat="43.8894044" lon="8.0446252"><ele>34.666666666666664</ele><time>2026-04-09T12:58:42.275Z</time></trkpt><trkpt lat="43.8893895" lon="8.044518"><ele>35.0</ele><time>2026-04-09T12:58:43.275Z</time></trkpt><trkpt lat="43.8893901" lon="8.0443934"><ele>35.0</ele><time>2026-04-09T12:58:44.276Z</time></trkpt><trkpt lat="43.8893983" lon="8.0442607"><ele>35.0</ele><time>2026-04-09T12:58:45.276Z</time></trkpt><trkpt lat="43.8894236" lon="8.0441126"><ele>35.0</ele><time>2026-04-09T12:58:46.276Z</time></trkpt><trkpt lat="43.8894579" lon="8.0439665"><ele>35.0</ele><time>2026-04-09T12:58:47.276Z</time></trkpt><trkpt lat="43.8895008" lon="8.0438241"><ele>35.0</ele><time>2026-04-09T12:58:48.276Z</time></trkpt><trkpt lat="43.8895358" lon="8.0436823"><ele>33.2</ele><time>2026-04-09T12:58:49.275Z</time></trkpt><trkpt lat="43.8895631" lon="8.0435426"><ele>31.4</ele><time>2026-04-09T12:58:50.275Z</time></trkpt><trkpt lat="43.8895891" lon="8.0434015"><ele>29.6</ele><time>2026-04-09T12:58:51.275Z</time></trkpt><trkpt lat="43.8896218" lon="8.0432532"><ele>27.8</ele><time>2026-04-09T12:58:52.276Z</time></trkpt><trkpt lat="43.8896575" lon="8.0430921"><ele>26.0</ele><time>2026-04-09T12:58:53.275Z</time></trkpt><trkpt lat="43.8897015" lon="8.0429355"><ele>25.6</ele><time>2026-04-09T12:58:54.275Z</time></trkpt><trkpt lat="43.8897714" lon="8.0428222"><ele>25.200000000000003</ele><time>2026-04-09T12:58:55.275Z</time></trkpt><trkpt lat="43.8898603" lon="8.0427487"><ele>24.799999999999997</ele><time>2026-04-09T12:58:56.276Z</time></trkpt><trkpt lat="43.889956" lon="8.042682"><ele>24.4</ele><time>2026-04-09T12:58:57.275Z</time></trkpt><trkpt lat="43.890033" lon="8.0426267"><ele>24.0</ele><time>2026-04-09T12:58:58.275Z</time></trkpt><trkpt lat="43.8901138" lon="8.0425368"><ele>24.0</ele><time>2026-04-09T12:59:00.275Z</time></trkpt><trkpt lat="43.890231" lon="8.042533"><ele>24.0</ele><time>2026-04-09T12:59:07.275Z</time></trkpt><trkpt lat="43.8903246" lon="8.0424985"><ele>24.0</ele><time>2026-04-09T12:59:10.276Z</time></trkpt><trkpt lat="43.8903947" lon="8.0424744"><ele>24.0</ele><time>2026-04-09T12:59:12.275Z</time></trkpt><trkpt lat="43.8904849" lon="8.0424482"><ele>24.0</ele><time>2026-04-09T12:59:14.276Z</time></trkpt><trkpt lat="43.8905628" lon="8.0424206"><ele>23.4</ele><time>2026-04-09T12:59:16.275Z</time></trkpt><trkpt lat="43.8906593" lon="8.0423658"><ele>22.799999999999997</ele><time>2026-04-09T12:59:18.275Z</time></trkpt><trkpt lat="43.8907681" lon="8.042338"><ele>22.200000000000003</ele><time>2026-04-09T12:59:20.275Z</time></trkpt><trkpt lat="43.8908584" lon="8.0423104"><ele>21.6</ele><time>2026-04-09T12:59:22.276Z</time></trkpt><trkpt lat="43.8909585" lon="8.0422979"><ele>21.0</ele><time>2026-04-09T12:59:24.276Z</time></trkpt><trkpt lat="43.8910485" lon="8.0422721"><ele>21.0</ele><time>2026-04-09T12:59:26.275Z</time></trkpt><trkpt lat="43.891158" lon="8.0422297"><ele>21.0</ele><time>2026-04-09T12:59:28.276Z</time></trkpt><trkpt lat="43.8912411" lon="8.0421878"><ele>21.0</ele><time>2026-04-09T12:59:30.276Z</time></trkpt><trkpt lat="43.8913058" lon="8.0421443"><ele>21.0</ele><time>2026-04-09T12:59:32.275Z</time></trkpt><trkpt lat="43.89138" lon="8.0420817"><ele>21.0</ele><time>2026-04-09T12:59:34.275Z</time></trkpt><trkpt lat="43.8914609" lon="8.0420036"><ele>21.0</ele><time>2026-04-09T12:59:36.276Z</time></trkpt><trkpt lat="43.8915469" lon="8.0419131"><ele>21.0</ele><time>2026-04-09T12:59:38.275Z</time></trkpt><trkpt lat="43.8916263" lon="8.0418203"><ele>21.0</ele><time>2026-04-09T12:59:40.276Z</time></trkpt><trkpt lat="43.8916763" lon="8.0417445"><ele>21.0</ele><time>2026-04-09T12:59:41.275Z</time></trkpt><trkpt lat="43.8917384" lon="8.0416758"><ele>21.0</ele><time>2026-04-09T12:59:42.275Z</time></trkpt><trkpt lat="43.8918034" lon="8.0415951"><ele>20.8</ele><time>2026-04-09T12:59:43.276Z</time></trkpt><trkpt lat="43.8918663" lon="8.0415284"><ele>20.6</ele><time>2026-04-09T12:59:44.275Z</time></trkpt><trkpt lat="43.8919225" lon="8.0414542"><ele>20.4</ele><time>2026-04-09T12:59:45.276Z</time></trkpt><trkpt lat="43.8919748" lon="8.041397"><ele>20.2</ele><time>2026-04-09T12:59:46.275Z</time></trkpt><trkpt lat="43.8920927" lon="8.0412876"><ele>20.0</ele><time>2026-04-09T12:59:48.275Z</time></trkpt><trkpt lat="43.8921794" lon="8.0412125"><ele>20.0</ele><time>2026-04-09T12:59:49.275Z</time></trkpt><trkpt lat="43.8922875" lon="8.0411392"><ele>20.0</ele><time>2026-04-09T12:59:50.276Z</time></trkpt><trkpt lat="43.8924072" lon="8.0410695"><ele>20.0</ele><time>2026-04-09T12:59:51.275Z</time></trkpt><trkpt lat="43.8925389" lon="8.0410097"><ele>20.0</ele><time>2026-04-09T12:59:52.276Z</time></trkpt><trkpt lat="43.8926712" lon="8.0409336"><ele>20.5</ele><time>2026-04-09T12:59:53.275Z</time></trkpt><trkpt lat="43.8927958" lon="8.0408642"><ele>21.0</ele><time>2026-04-09T12:59:54.275Z</time></trkpt><trkpt lat="43.8929215" lon="8.040801"><ele>21.5</ele><time>2026-04-09T12:59:55.275Z</time></trkpt><trkpt lat="43.8930323" lon="8.0407418"><ele>22.0</ele><time>2026-04-09T12:59:56.276Z</time></trkpt><trkpt lat="43.8931379" lon="8.0406904"><ele>21.333333333333332</ele><time>2026-04-09T12:59:57.275Z</time></trkpt><trkpt lat="43.8932315" lon="8.0406497"><ele>20.666666666666664</ele><time>2026-04-09T12:59:58.276Z</time></trkpt><trkpt lat="43.8933106" lon="8.0406228"><ele>20.0</ele><time>2026-04-09T12:59:59.276Z</time></trkpt><trkpt lat="43.8933722" lon="8.0405962"><ele>19.333333333333332</ele><time>2026-04-09T13:00:00.279Z</time></trkpt><trkpt lat="43.8934429" lon="8.0405668"><ele>18.666666666666668</ele><time>2026-04-09T13:00:02.278Z</time></trkpt><trkpt lat="43.8935149" lon="8.0405212"><ele>18.0</ele><time>2026-04-09T13:00:06.278Z</time></trkpt><trkpt lat="43.8935824" lon="8.0404998"><ele>17.8</ele><time>2026-04-09T13:00:08.279Z</time></trkpt><trkpt lat="43.8936779" lon="8.0404529"><ele>17.6</ele><time>2026-04-09T13:00:10.278Z</time></trkpt><trkpt lat="43.8937526" lon="8.0403918"><ele>17.4</ele><time>2026-04-09T13:00:12.279Z</time></trkpt><trkpt lat="43.8938196" lon="8.0403541"><ele>17.2</ele><time>2026-04-09T13:00:14.278Z</time></trkpt><trkpt lat="43.893906" lon="8.0402975"><ele>17.0</ele><time>2026-04-09T13:00:16.278Z</time></trkpt><trkpt lat="43.8940079" lon="8.0402455"><ele>16.999999999999996</ele><time>2026-04-09T13:00:18.278Z</time></trkpt><trkpt lat="43.894069" lon="8.0402116"><ele>17.0</ele><time>2026-04-09T13:00:19.279Z</time></trkpt><trkpt lat="43.894131" lon="8.0401799"><ele>17.0</ele><time>2026-04-09T13:00:20.278Z</time></trkpt><trkpt lat="43.894191" lon="8.0401498"><ele>17.0</ele><time>2026-04-09T13:00:21.279Z</time></trkpt><trkpt lat="43.8942528" lon="8.0401118"><ele>17.0</ele><time>2026-04-09T13:00:22.279Z</time></trkpt><trkpt lat="43.8943147" lon="8.0400783"><ele>16.999999999999996</ele><time>2026-04-09T13:00:23.279Z</time></trkpt><trkpt lat="43.8943774" lon="8.0400446"><ele>17.0</ele><time>2026-04-09T13:00:24.279Z</time></trkpt><trkpt lat="43.8944416" lon="8.0400072"><ele>17.142857142857142</ele><time>2026-04-09T13:00:25.279Z</time></trkpt><trkpt lat="43.8945086" lon="8.039969"><ele>17.285714285714285</ele><time>2026-04-09T13:00:26.278Z</time></trkpt><trkpt lat="43.8945776" lon="8.0399307"><ele>17.42857142857143</ele><time>2026-04-09T13:00:27.278Z</time></trkpt><trkpt lat="43.8946461" lon="8.0398948"><ele>17.57142857142857</ele><time>2026-04-09T13:00:28.278Z</time></trkpt><trkpt lat="43.8947086" lon="8.0398588"><ele>17.714285714285715</ele><time>2026-04-09T13:00:29.279Z</time></trkpt><trkpt lat="43.8947725" lon="8.0398271"><ele>17.857142857142858</ele><time>2026-04-09T13:00:30.278Z</time></trkpt><trkpt lat="43.8948419" lon="8.0397963"><ele>18.0</ele><time>2026-04-09T13:00:31.279Z</time></trkpt><trkpt lat="43.8949126" lon="8.0397597"><ele>18.0</ele><time>2026-04-09T13:00:32.279Z</time></trkpt><trkpt lat="43.8949832" lon="8.0397194"><ele>18.0</ele><time>2026-04-09T13:00:33.278Z</time></trkpt><trkpt lat="43.8950525" lon="8.0396712"><ele>18.0</ele><time>2026-04-09T13:00:34.278Z</time></trkpt><trkpt lat="43.8951191" lon="8.0396181"><ele>18.0</ele><time>2026-04-09T13:00:35.279Z</time></trkpt><trkpt lat="43.8951818" lon="8.0395583"><ele>18.0</ele><time>2026-04-09T13:00:36.279Z</time></trkpt><trkpt lat="43.8952403" lon="8.0394952"><ele>18.0</ele><time>2026-04-09T13:00:37.278Z</time></trkpt><trkpt lat="43.8952957" lon="8.039432"><ele>18.28571428571429</ele><time>2026-04-09T13:00:38.278Z</time></trkpt><trkpt lat="43.8953445" lon="8.0393687"><ele>18.571428571428573</ele><time>2026-04-09T13:00:39.278Z</time></trkpt><trkpt lat="43.8953951" lon="8.0393075"><ele>18.857142857142858</ele><time>2026-04-09T13:00:40.278Z</time></trkpt><trkpt lat="43.8954481" lon="8.0392416"><ele>19.142857142857146</ele><time>2026-04-09T13:00:41.278Z</time></trkpt><trkpt lat="43.8955058" lon="8.0391704"><ele>19.42857142857143</ele><time>2026-04-09T13:00:42.278Z</time></trkpt><trkpt lat="43.8955649" lon="8.0391039"><ele>19.714285714285715</ele><time>2026-04-09T13:00:43.278Z</time></trkpt><trkpt lat="43.8956229" lon="8.0390394"><ele>20.0</ele><time>2026-04-09T13:00:44.278Z</time></trkpt><trkpt lat="43.8956814" lon="8.0389718"><ele>19.833333333333336</ele><time>2026-04-09T13:00:45.279Z</time></trkpt><trkpt lat="43.895741" lon="8.0389004"><ele>19.666666666666668</ele><time>2026-04-09T13:00:46.279Z</time></trkpt><trkpt lat="43.895805" lon="8.0388243"><ele>19.5</ele><time>2026-04-09T13:00:47.278Z</time></trkpt><trkpt lat="43.8958691" lon="8.0387315"><ele>19.333333333333332</ele><time>2026-04-09T13:00:48.278Z</time></trkpt><trkpt lat="43.8959306" lon="8.0386295"><ele>19.166666666666664</ele><time>2026-04-09T13:00:49.279Z</time></trkpt><trkpt lat="43.8959912" lon="8.0385659"><ele>19.0</ele><time>2026-04-09T13:00:50.278Z</time></trkpt><trkpt lat="43.8960442" lon="8.038493"><ele>19.0</ele><time>2026-04-09T13:00:51.278Z</time></trkpt><trkpt lat="43.8961027" lon="8.038425"><ele>19.0</ele><time>2026-04-09T13:00:52.279Z</time></trkpt><trkpt lat="43.8961612" lon="8.0383561"><ele>19.0</ele><time>2026-04-09T13:00:53.278Z</time></trkpt><trkpt lat="43.8962163" lon="8.0382948"><ele>19.0</ele><time>2026-04-09T13:00:54.279Z</time></trkpt><trkpt lat="43.8962733" lon="8.0382261"><ele>19.0</ele><time>2026-04-09T13:00:55.278Z</time></trkpt><trkpt lat="43.8963314" lon="8.0381498"><ele>19.0</ele><time>2026-04-09T13:00:56.278Z</time></trkpt><trkpt lat="43.8963946" lon="8.0380803"><ele>18.857142857142858</ele><time>2026-04-09T13:00:57.278Z</time></trkpt><trkpt lat="43.8964507" lon="8.0380089"><ele>18.714285714285715</ele><time>2026-04-09T13:00:58.279Z</time></trkpt><trkpt lat="43.8965061" lon="8.0379396"><ele>18.571428571428573</ele><time>2026-04-09T13:00:59.278Z</time></trkpt><trkpt lat="43.8965582" lon="8.0378701"><ele>18.42857142857143</ele><time>2026-04-09T13:01:00.278Z</time></trkpt><trkpt lat="43.8966087" lon="8.0378038"><ele>18.285714285714285</ele><time>2026-04-09T13:01:01.278Z</time></trkpt><trkpt lat="43.8966581" lon="8.0377457"><ele>18.142857142857146</ele><time>2026-04-09T13:01:02.278Z</time></trkpt><trkpt lat="43.8967113" lon="8.0376873"><ele>18.0</ele><time>2026-04-09T13:01:03.279Z</time></trkpt><trkpt lat="43.8967617" lon="8.0376155"><ele>18.0</ele><time>2026-04-09T13:01:04.279Z</time></trkpt><trkpt lat="43.8968117" lon="8.0375491"><ele>18.0</ele><time>2026-04-09T13:01:05.278Z</time></trkpt><trkpt lat="43.8969042" lon="8.0374251"><ele>18.0</ele><time>2026-04-09T13:01:07.279Z</time></trkpt><trkpt lat="43.8969518" lon="8.0373572"><ele>18.0</ele><time>2026-04-09T13:01:08.278Z</time></trkpt><trkpt lat="43.8969958" lon="8.0372898"><ele>18.0</ele><time>2026-04-09T13:01:09.279Z</time></trkpt><trkpt lat="43.8970832" lon="8.0371647"><ele>17.833333333333332</ele><time>2026-04-09T13:01:11.279Z</time></trkpt><trkpt lat="43.8971316" lon="8.0371004"><ele>17.666666666666668</ele><time>2026-04-09T13:01:12.279Z</time></trkpt><trkpt lat="43.8972292" lon="8.0369872"><ele>17.5</ele><time>2026-04-09T13:01:14.278Z</time></trkpt><trkpt lat="43.8973211" lon="8.0368962"><ele>17.333333333333336</ele><time>2026-04-09T13:01:16.279Z</time></trkpt><trkpt lat="43.8973561" lon="8.0368097"><ele>17.166666666666668</ele><time>2026-04-09T13:01:18.278Z</time></trkpt><trkpt lat="43.8974056" lon="8.0367524"><ele>17.0</ele><time>2026-04-09T13:01:20.278Z</time></trkpt><trkpt lat="43.8975012" lon="8.0367006"><ele>17.0</ele><time>2026-04-09T13:01:22.279Z</time></trkpt><trkpt lat="43.8975872" lon="8.0366541"><ele>17.0</ele><time>2026-04-09T13:01:24.279Z</time></trkpt><trkpt lat="43.8976878" lon="8.0366274"><ele>17.0</ele><time>2026-04-09T13:01:26.278Z</time></trkpt><trkpt lat="43.8977821" lon="8.0365977"><ele>17.0</ele><time>2026-04-09T13:01:28.279Z</time></trkpt><trkpt lat="43.8978836" lon="8.036561"><ele>17.0</ele><time>2026-04-09T13:01:30.278Z</time></trkpt><trkpt lat="43.8979473" lon="8.03655"><ele>17.0</ele><time>2026-04-09T13:01:31.278Z</time></trkpt><trkpt lat="43.8980161" lon="8.0365526"><ele>17.0</ele><time>2026-04-09T13:01:32.279Z</time></trkpt><trkpt lat="43.8981088" lon="8.0366126"><ele>17.0</ele><time>2026-04-09T13:01:34.278Z</time></trkpt><trkpt lat="43.8981648" lon="8.0367274"><ele>17.0</ele><time>2026-04-09T13:01:36.278Z</time></trkpt><trkpt lat="43.8982039" lon="8.0368655"><ele>17.0</ele><time>2026-04-09T13:01:38.279Z</time></trkpt><trkpt lat="43.8982679" lon="8.0369853"><ele>17.0</ele><time>2026-04-09T13:01:40.278Z</time></trkpt><trkpt lat="43.898372" lon="8.0370436"><ele>17.0</ele><time>2026-04-09T13:01:42.279Z</time></trkpt><trkpt lat="43.8984914" lon="8.0370458"><ele>17.0</ele><time>2026-04-09T13:01:44.278Z</time></trkpt><trkpt lat="43.8985949" lon="8.0369851"><ele>17.0</ele><time>2026-04-09T13:01:46.279Z</time></trkpt><trkpt lat="43.8986665" lon="8.0368646"><ele>17.6</ele><time>2026-04-09T13:01:48.278Z</time></trkpt><trkpt lat="43.8986904" lon="8.0367061"><ele>18.2</ele><time>2026-04-09T13:01:50.278Z</time></trkpt><trkpt lat="43.898661" lon="8.0365506"><ele>18.8</ele><time>2026-04-09T13:01:52.278Z</time></trkpt><trkpt lat="43.8986388" lon="8.036458"><ele>19.4</ele><time>2026-04-09T13:01:53.278Z</time></trkpt><trkpt lat="43.8986217" lon="8.0363528"><ele>20.0</ele><time>2026-04-09T13:01:54.279Z</time></trkpt><trkpt lat="43.8986294" lon="8.0362321"><ele>20.2</ele><time>2026-04-09T13:01:55.279Z</time></trkpt><trkpt lat="43.8986753" lon="8.0361323"><ele>20.4</ele><time>2026-04-09T13:01:56.278Z</time></trkpt><trkpt lat="43.8987437" lon="8.0360517"><ele>20.6</ele><time>2026-04-09T13:01:57.279Z</time></trkpt><trkpt lat="43.8988272" lon="8.0359734"><ele>20.8</ele><time>2026-04-09T13:01:58.278Z</time></trkpt><trkpt lat="43.8989146" lon="8.0358933"><ele>21.0</ele><time>2026-04-09T13:01:59.279Z</time></trkpt><trkpt lat="43.8990004" lon="8.0358189"><ele>21.4</ele><time>2026-04-09T13:02:00.278Z</time></trkpt><trkpt lat="43.8990891" lon="8.0357423"><ele>21.8</ele><time>2026-04-09T13:02:01.279Z</time></trkpt><trkpt lat="43.8991791" lon="8.0356602"><ele>22.2</ele><time>2026-04-09T13:02:02.279Z</time></trkpt><trkpt lat="43.8992667" lon="8.0355779"><ele>22.599999999999998</ele><time>2026-04-09T13:02:03.279Z</time></trkpt><trkpt lat="43.8993569" lon="8.0355002"><ele>23.0</ele><time>2026-04-09T13:02:04.279Z</time></trkpt><trkpt lat="43.8994479" lon="8.0354207"><ele>23.0</ele><time>2026-04-09T13:02:05.279Z</time></trkpt><trkpt lat="43.8995417" lon="8.035335"><ele>23.0</ele><time>2026-04-09T13:02:06.278Z</time></trkpt><trkpt lat="43.8996246" lon="8.0352488"><ele>23.0</ele><time>2026-04-09T13:02:07.278Z</time></trkpt><trkpt lat="43.8997055" lon="8.0351596"><ele>23.0</ele><time>2026-04-09T13:02:08.278Z</time></trkpt><trkpt lat="43.899787" lon="8.0350569"><ele>23.0</ele><time>2026-04-09T13:02:09.278Z</time></trkpt><trkpt lat="43.8998697" lon="8.0349682"><ele>21.599999999999998</ele><time>2026-04-09T13:02:10.279Z</time></trkpt><trkpt lat="43.899953" lon="8.0348775"><ele>20.2</ele><time>2026-04-09T13:02:11.278Z</time></trkpt><trkpt lat="43.9000359" lon="8.0347794"><ele>18.8</ele><time>2026-04-09T13:02:12.278Z</time></trkpt><trkpt lat="43.9001115" lon="8.034679"><ele>17.4</ele><time>2026-04-09T13:02:13.278Z</time></trkpt><trkpt lat="43.9001904" lon="8.0345803"><ele>16.0</ele><time>2026-04-09T13:02:14.278Z</time></trkpt><trkpt lat="43.9002776" lon="8.0344933"><ele>17.200000000000003</ele><time>2026-04-09T13:02:15.278Z</time></trkpt><trkpt lat="43.9003606" lon="8.03441"><ele>18.400000000000002</ele><time>2026-04-09T13:02:16.278Z</time></trkpt><trkpt lat="43.9004363" lon="8.0343236"><ele>19.6</ele><time>2026-04-09T13:02:17.279Z</time></trkpt><trkpt lat="43.9004996" lon="8.0342254"><ele>20.8</ele><time>2026-04-09T13:02:18.279Z</time></trkpt><trkpt lat="43.9005669" lon="8.0341401"><ele>22.0</ele><time>2026-04-09T13:02:19.278Z</time></trkpt><trkpt lat="43.9006421" lon="8.0340699"><ele>22.0</ele><time>2026-04-09T13:02:20.278Z</time></trkpt><trkpt lat="43.9007101" lon="8.0340057"><ele>22.0</ele><time>2026-04-09T13:02:21.279Z</time></trkpt><trkpt lat="43.9007769" lon="8.0339283"><ele>22.0</ele><time>2026-04-09T13:02:22.278Z</time></trkpt><trkpt lat="43.9008464" lon="8.0338544"><ele>22.0</ele><time>2026-04-09T13:02:23.279Z</time></trkpt><trkpt lat="43.900911" lon="8.0337783"><ele>22.0</ele><time>2026-04-09T13:02:24.279Z</time></trkpt><trkpt lat="43.9009829" lon="8.0337099"><ele>22.0</ele><time>2026-04-09T13:02:25.278Z</time></trkpt><trkpt lat="43.9010506" lon="8.0336341"><ele>22.5</ele><time>2026-04-09T13:02:26.278Z</time></trkpt><trkpt lat="43.901113" lon="8.0335732"><ele>23.0</ele><time>2026-04-09T13:02:27.278Z</time></trkpt><trkpt lat="43.9011692" lon="8.0335171"><ele>23.5</ele><time>2026-04-09T13:02:28.279Z</time></trkpt><trkpt lat="43.9012207" lon="8.0334566"><ele>24.0</ele><time>2026-04-09T13:02:29.279Z</time></trkpt><trkpt lat="43.9012825" lon="8.0333836"><ele>24.500000000000004</ele><time>2026-04-09T13:02:30.279Z</time></trkpt><trkpt lat="43.9013413" lon="8.0333092"><ele>25.0</ele><time>2026-04-09T13:02:31.278Z</time></trkpt><trkpt lat="43.9013896" lon="8.0332143"><ele>25.0</ele><time>2026-04-09T13:02:32.279Z</time></trkpt><trkpt lat="43.9014427" lon="8.0331118"><ele>25.0</ele><time>2026-04-09T13:02:33.279Z</time></trkpt><trkpt lat="43.9014884" lon="8.0329913"><ele>25.0</ele><time>2026-04-09T13:02:34.278Z</time></trkpt><trkpt lat="43.9015385" lon="8.0328775"><ele>25.0</ele><time>2026-04-09T13:02:35.278Z</time></trkpt><trkpt lat="43.9015815" lon="8.0327692"><ele>25.0</ele><time>2026-04-09T13:02:36.279Z</time></trkpt><trkpt lat="43.9016293" lon="8.0326628"><ele>25.000000000000004</ele><time>2026-04-09T13:02:37.279Z</time></trkpt><trkpt lat="43.9016701" lon="8.0325661"><ele>25.0</ele><time>2026-04-09T13:02:38.278Z</time></trkpt><trkpt lat="43.9017123" lon="8.0324771"><ele>25.0</ele><time>2026-04-09T13:02:39.278Z</time></trkpt><trkpt lat="43.9017612" lon="8.0323928"><ele>25.0</ele><time>2026-04-09T13:02:40.279Z</time></trkpt><trkpt lat="43.9018179" lon="8.0323185"><ele>25.000000000000004</ele><time>2026-04-09T13:02:41.279Z</time></trkpt><trkpt lat="43.9018845" lon="8.0322471"><ele>25.0</ele><time>2026-04-09T13:02:42.278Z</time></trkpt><trkpt lat="43.9019542" lon="8.0321771"><ele>25.333333333333336</ele><time>2026-04-09T13:02:43.278Z</time></trkpt><trkpt lat="43.9020218" lon="8.0321198"><ele>25.666666666666668</ele><time>2026-04-09T13:02:44.279Z</time></trkpt><trkpt lat="43.9020868" lon="8.0320656"><ele>26.0</ele><time>2026-04-09T13:02:45.278Z</time></trkpt><trkpt lat="43.9021456" lon="8.032002"><ele>26.333333333333336</ele><time>2026-04-09T13:02:46.279Z</time></trkpt><trkpt lat="43.9022115" lon="8.0319451"><ele>26.666666666666668</ele><time>2026-04-09T13:02:47.278Z</time></trkpt><trkpt lat="43.9022765" lon="8.0318879"><ele>27.0</ele><time>2026-04-09T13:02:48.279Z</time></trkpt><trkpt lat="43.9023354" lon="8.0318262"><ele>27.0</ele><time>2026-04-09T13:02:49.278Z</time></trkpt><trkpt lat="43.9023912" lon="8.0317619"><ele>27.0</ele><time>2026-04-09T13:02:50.278Z</time></trkpt><trkpt lat="43.9024452" lon="8.0317018"><ele>27.0</ele><time>2026-04-09T13:02:51.278Z</time></trkpt><trkpt lat="43.902487" lon="8.0316204"><ele>27.0</ele><time>2026-04-09T13:02:52.279Z</time></trkpt><trkpt lat="43.9025163" lon="8.0315298"><ele>27.0</ele><time>2026-04-09T13:02:53.279Z</time></trkpt><trkpt lat="43.9025365" lon="8.0314196"><ele>27.0</ele><time>2026-04-09T13:02:54.278Z</time></trkpt><trkpt lat="43.9025533" lon="8.0312908"><ele>26.6</ele><time>2026-04-09T13:02:55.278Z</time></trkpt><trkpt lat="43.9025616" lon="8.0311459"><ele>26.200000000000003</ele><time>2026-04-09T13:02:56.278Z</time></trkpt><trkpt lat="43.9025686" lon="8.0310049"><ele>25.8</ele><time>2026-04-09T13:02:57.278Z</time></trkpt><trkpt lat="43.9025783" lon="8.0308785"><ele>25.4</ele><time>2026-04-09T13:02:58.278Z</time></trkpt><trkpt lat="43.9025891" lon="8.0307664"><ele>25.0</ele><time>2026-04-09T13:02:59.279Z</time></trkpt><trkpt lat="43.9025946" lon="8.0306447"><ele>32.5</ele><time>2026-04-09T13:03:00.279Z</time></trkpt><trkpt lat="43.902607" lon="8.0304906"><ele>40.0</ele><time>2026-04-09T13:03:01.278Z</time></trkpt><trkpt lat="43.9026207" lon="8.0303124"><ele>47.5</ele><time>2026-04-09T13:03:02.278Z</time></trkpt><trkpt lat="43.9026487" lon="8.0301259"><ele>55.0</ele><time>2026-04-09T13:03:03.278Z</time></trkpt><trkpt lat="43.9026785" lon="8.0299235"><ele>56.666666666666664</ele><time>2026-04-09T13:03:04.278Z</time></trkpt><trkpt lat="43.9027075" lon="8.0297034"><ele>58.33333333333333</ele><time>2026-04-09T13:03:05.278Z</time></trkpt><trkpt lat="43.9027349" lon="8.0294938"><ele>60.0</ele><time>2026-04-09T13:03:06.278Z</time></trkpt><trkpt lat="43.9027676" lon="8.029281"><ele>58.25</ele><time>2026-04-09T13:03:07.279Z</time></trkpt><trkpt lat="43.9027922" lon="8.0290753"><ele>56.5</ele><time>2026-04-09T13:03:08.278Z</time></trkpt><trkpt lat="43.9028231" lon="8.028878"><ele>54.75</ele><time>2026-04-09T13:03:09.278Z</time></trkpt><trkpt lat="43.9028595" lon="8.0286904"><ele>53.0</ele><time>2026-04-09T13:03:10.279Z</time></trkpt><trkpt lat="43.9029128" lon="8.0285005"><ele>53.0</ele><time>2026-04-09T13:03:11.278Z</time></trkpt><trkpt lat="43.9029685" lon="8.0283162"><ele>53.0</ele><time>2026-04-09T13:03:12.278Z</time></trkpt><trkpt lat="43.9030233" lon="8.0281431"><ele>53.0</ele><time>2026-04-09T13:03:13.278Z</time></trkpt><trkpt lat="43.903062" lon="8.0279886"><ele>53.0</ele><time>2026-04-09T13:03:14.279Z</time></trkpt><trkpt lat="43.9030988" lon="8.0278516"><ele>50.333333333333336</ele><time>2026-04-09T13:03:15.278Z</time></trkpt><trkpt lat="43.9031393" lon="8.0277303"><ele>47.66666666666667</ele><time>2026-04-09T13:03:16.278Z</time></trkpt><trkpt lat="43.9031721" lon="8.0276143"><ele>45.0</ele><time>2026-04-09T13:03:17.278Z</time></trkpt><trkpt lat="43.903219" lon="8.0275171"><ele>42.333333333333336</ele><time>2026-04-09T13:03:18.279Z</time></trkpt><trkpt lat="43.9032792" lon="8.0274368"><ele>39.66666666666667</ele><time>2026-04-09T13:03:19.278Z</time></trkpt><trkpt lat="43.9033574" lon="8.0273892"><ele>37.0</ele><time>2026-04-09T13:03:20.278Z</time></trkpt><trkpt lat="43.903443" lon="8.0273574"><ele>33.2</ele><time>2026-04-09T13:03:21.278Z</time></trkpt><trkpt lat="43.9035327" lon="8.0273254"><ele>29.400000000000002</ele><time>2026-04-09T13:03:22.279Z</time></trkpt><trkpt lat="43.9036315" lon="8.0272958"><ele>25.6</ele><time>2026-04-09T13:03:23.279Z</time></trkpt><trkpt lat="43.9037422" lon="8.0272796"><ele>21.8</ele><time>2026-04-09T13:03:24.279Z</time></trkpt><trkpt lat="43.9038698" lon="8.0272501"><ele>18.0</ele><time>2026-04-09T13:03:25.279Z</time></trkpt><trkpt lat="43.9040085" lon="8.0272403"><ele>18.0</ele><time>2026-04-09T13:03:26.278Z</time></trkpt><trkpt lat="43.9041693" lon="8.0272527"><ele>18.0</ele><time>2026-04-09T13:03:27.279Z</time></trkpt><trkpt lat="43.9043466" lon="8.0272922"><ele>18.0</ele><time>2026-04-09T13:03:28.278Z</time></trkpt><trkpt lat="43.90452" lon="8.0273086"><ele>18.8</ele><time>2026-04-09T13:03:29.278Z</time></trkpt><trkpt lat="43.9046562" lon="8.0273092"><ele>19.6</ele><time>2026-04-09T13:03:30.279Z</time></trkpt><trkpt lat="43.9047433" lon="8.0273006"><ele>20.400000000000002</ele><time>2026-04-09T13:03:31.278Z</time></trkpt><trkpt lat="43.9048583" lon="8.0272922"><ele>21.200000000000003</ele><time>2026-04-09T13:03:33.278Z</time></trkpt><trkpt lat="43.904935" lon="8.0272802"><ele>22.0</ele><time>2026-04-09T13:03:34.278Z</time></trkpt><trkpt lat="43.905038" lon="8.0272623"><ele>22.75</ele><time>2026-04-09T13:03:35.278Z</time></trkpt><trkpt lat="43.9051591" lon="8.0272369"><ele>23.5</ele><time>2026-04-09T13:03:36.279Z</time></trkpt><trkpt lat="43.9053045" lon="8.0272051"><ele>24.25</ele><time>2026-04-09T13:03:37.278Z</time></trkpt><trkpt lat="43.90548" lon="8.027164"><ele>25.0</ele><time>2026-04-09T13:03:38.279Z</time></trkpt><trkpt lat="43.9056583" lon="8.0271177"><ele>25.0</ele><time>2026-04-09T13:03:39.278Z</time></trkpt><trkpt lat="43.9058391" lon="8.0271034"><ele>25.0</ele><time>2026-04-09T13:03:40.279Z</time></trkpt><trkpt lat="43.9060209" lon="8.0271235"><ele>25.0</ele><time>2026-04-09T13:03:41.279Z</time></trkpt><trkpt lat="43.9061931" lon="8.0271524"><ele>25.666666666666668</ele><time>2026-04-09T13:03:42.278Z</time></trkpt><trkpt lat="43.9063544" lon="8.0271464"><ele>26.333333333333336</ele><time>2026-04-09T13:03:43.279Z</time></trkpt><trkpt lat="43.9065042" lon="8.0271003"><ele>27.0</ele><time>2026-04-09T13:03:44.279Z</time></trkpt><trkpt lat="43.9066388" lon="8.0270337"><ele>29.0</ele><time>2026-04-09T13:03:45.278Z</time></trkpt><trkpt lat="43.9067596" lon="8.0269674"><ele>31.0</ele><time>2026-04-09T13:03:46.278Z</time></trkpt><trkpt lat="43.9068762" lon="8.026908"><ele>33.0</ele><time>2026-04-09T13:03:47.278Z</time></trkpt><trkpt lat="43.9069833" lon="8.0268475"><ele>35.0</ele><time>2026-04-09T13:03:48.279Z</time></trkpt><trkpt lat="43.9070938" lon="8.0267951"><ele>35.0</ele><time>2026-04-09T13:03:49.279Z</time></trkpt><trkpt lat="43.9072074" lon="8.026745"><ele>35.0</ele><time>2026-04-09T13:03:50.278Z</time></trkpt><trkpt lat="43.9073199" lon="8.0267069"><ele>35.0</ele><time>2026-04-09T13:03:51.279Z</time></trkpt><trkpt lat="43.9074346" lon="8.0266773"><ele>35.0</ele><time>2026-04-09T13:03:52.278Z</time></trkpt><trkpt lat="43.9075474" lon="8.0266484"><ele>35.75</ele><time>2026-04-09T13:03:53.279Z</time></trkpt><trkpt lat="43.9076615" lon="8.0266214"><ele>36.5</ele><time>2026-04-09T13:03:54.278Z</time></trkpt><trkpt lat="43.9077759" lon="8.0266116"><ele>37.25</ele><time>2026-04-09T13:03:55.278Z</time></trkpt><trkpt lat="43.9078962" lon="8.0266221"><ele>38.0</ele><time>2026-04-09T13:03:56.279Z</time></trkpt><trkpt lat="43.9080251" lon="8.0266491"><ele>38.0</ele><time>2026-04-09T13:03:57.278Z</time></trkpt><trkpt lat="43.9081728" lon="8.0266779"><ele>38.0</ele><time>2026-04-09T13:03:58.278Z</time></trkpt><trkpt lat="43.9083429" lon="8.0267396"><ele>38.0</ele><time>2026-04-09T13:03:59.279Z</time></trkpt><trkpt lat="43.908528" lon="8.0268109"><ele>37.0</ele><time>2026-04-09T13:04:00.279Z</time></trkpt><trkpt lat="43.9087218" lon="8.0268455"><ele>36.0</ele><time>2026-04-09T13:04:01.278Z</time></trkpt><trkpt lat="43.9089081" lon="8.0268659"><ele>35.0</ele><time>2026-04-09T13:04:02.279Z</time></trkpt><trkpt lat="43.9090772" lon="8.02688"><ele>35.0</ele><time>2026-04-09T13:04:03.279Z</time></trkpt><trkpt lat="43.9092336" lon="8.0268959"><ele>35.0</ele><time>2026-04-09T13:04:04.278Z</time></trkpt><trkpt lat="43.9093654" lon="8.0269181"><ele>35.0</ele><time>2026-04-09T13:04:05.279Z</time></trkpt><trkpt lat="43.9094845" lon="8.0269791"><ele>35.0</ele><time>2026-04-09T13:04:06.278Z</time></trkpt><trkpt lat="43.9095869" lon="8.0270886"><ele>36.0</ele><time>2026-04-09T13:04:07.279Z</time></trkpt><trkpt lat="43.9096886" lon="8.027238"><ele>37.0</ele><time>2026-04-09T13:04:08.278Z</time></trkpt><trkpt lat="43.9097933" lon="8.0273741"><ele>38.0</ele><time>2026-04-09T13:04:09.278Z</time></trkpt><trkpt lat="43.9099112" lon="8.027458"><ele>39.0</ele><time>2026-04-09T13:04:10.278Z</time></trkpt><trkpt lat="43.9100376" lon="8.0275202"><ele>38.0</ele><time>2026-04-09T13:04:11.279Z</time></trkpt><trkpt lat="43.9101664" lon="8.0275663"><ele>37.0</ele><time>2026-04-09T13:04:12.278Z</time></trkpt><trkpt lat="43.9102896" lon="8.0276127"><ele>36.0</ele><time>2026-04-09T13:04:13.279Z</time></trkpt><trkpt lat="43.9103994" lon="8.0276616"><ele>35.0</ele><time>2026-04-09T13:04:14.279Z</time></trkpt><trkpt lat="43.9105142" lon="8.0276975"><ele>35.0</ele><time>2026-04-09T13:04:15.279Z</time></trkpt><trkpt lat="43.9106273" lon="8.0277183"><ele>35.0</ele><time>2026-04-09T13:04:16.278Z</time></trkpt><trkpt lat="43.9107448" lon="8.0277245"><ele>35.0</ele><time>2026-04-09T13:04:17.278Z</time></trkpt><trkpt lat="43.9108652" lon="8.0277235"><ele>35.0</ele><time>2026-04-09T13:04:18.278Z</time></trkpt><trkpt lat="43.9109838" lon="8.0277102"><ele>36.25</ele><time>2026-04-09T13:04:19.279Z</time></trkpt><trkpt lat="43.9111146" lon="8.0276943"><ele>37.5</ele><time>2026-04-09T13:04:20.279Z</time></trkpt><trkpt lat="43.9112658" lon="8.0276743"><ele>38.75</ele><time>2026-04-09T13:04:21.279Z</time></trkpt><trkpt lat="43.911413" lon="8.0276628"><ele>40.0</ele><time>2026-04-09T13:04:22.279Z</time></trkpt><trkpt lat="43.9115393" lon="8.0276606"><ele>40.0</ele><time>2026-04-09T13:04:23.278Z</time></trkpt><trkpt lat="43.9116382" lon="8.0276524"><ele>40.0</ele><time>2026-04-09T13:04:24.278Z</time></trkpt><trkpt lat="43.9117256" lon="8.0276277"><ele>40.0</ele><time>2026-04-09T13:04:25.278Z</time></trkpt><trkpt lat="43.9118175" lon="8.0275807"><ele>40.0</ele><time>2026-04-09T13:04:26.279Z</time></trkpt><trkpt lat="43.9119079" lon="8.0275027"><ele>40.0</ele><time>2026-04-09T13:04:27.279Z</time></trkpt><trkpt lat="43.9119967" lon="8.02741"><ele>38.2</ele><time>2026-04-09T13:04:28.278Z</time></trkpt><trkpt lat="43.9120864" lon="8.0273234"><ele>36.4</ele><time>2026-04-09T13:04:29.278Z</time></trkpt><trkpt lat="43.9121844" lon="8.0272518"><ele>34.6</ele><time>2026-04-09T13:04:30.278Z</time></trkpt><trkpt lat="43.9122861" lon="8.027199"><ele>32.8</ele><time>2026-04-09T13:04:31.278Z</time></trkpt><trkpt lat="43.9123963" lon="8.0271631"><ele>31.0</ele><time>2026-04-09T13:04:32.278Z</time></trkpt><trkpt lat="43.9125085" lon="8.0271283"><ele>32.0</ele><time>2026-04-09T13:04:33.278Z</time></trkpt><trkpt lat="43.9126196" lon="8.0270876"><ele>33.0</ele><time>2026-04-09T13:04:34.279Z</time></trkpt><trkpt lat="43.9127406" lon="8.0270266"><ele>34.0</ele><time>2026-04-09T13:04:35.279Z</time></trkpt><trkpt lat="43.9128883" lon="8.0269486"><ele>35.0</ele><time>2026-04-09T13:04:36.278Z</time></trkpt><trkpt lat="43.9130418" lon="8.0268779"><ele>35.0</ele><time>2026-04-09T13:04:37.278Z</time></trkpt><trkpt lat="43.9132034" lon="8.0268334"><ele>35.0</ele><time>2026-04-09T13:04:38.278Z</time></trkpt><trkpt lat="43.9133792" lon="8.026835"><ele>35.0</ele><time>2026-04-09T13:04:39.279Z</time></trkpt><trkpt lat="43.9135349" lon="8.026846"><ele>35.5</ele><time>2026-04-09T13:04:40.278Z</time></trkpt><trkpt lat="43.9136771" lon="8.0268876"><ele>36.0</ele><time>2026-04-09T13:04:41.279Z</time></trkpt><trkpt lat="43.913797" lon="8.0269711"><ele>36.5</ele><time>2026-04-09T13:04:42.279Z</time></trkpt><trkpt lat="43.9138992" lon="8.027092"><ele>37.0</ele><time>2026-04-09T13:04:43.279Z</time></trkpt><trkpt lat="43.9139821" lon="8.0272005"><ele>37.0</ele><time>2026-04-09T13:04:44.278Z</time></trkpt><trkpt lat="43.9140972" lon="8.0272229"><ele>37.0</ele><time>2026-04-09T13:04:45.278Z</time></trkpt><trkpt lat="43.9142227" lon="8.0271871"><ele>37.0</ele><time>2026-04-09T13:04:46.278Z</time></trkpt><trkpt lat="43.9143603" lon="8.0270896"><ele>37.0</ele><time>2026-04-09T13:04:47.279Z</time></trkpt><trkpt lat="43.9145169" lon="8.026946"><ele>35.66666666666667</ele><time>2026-04-09T13:04:48.279Z</time></trkpt><trkpt lat="43.9146812" lon="8.0268242"><ele>34.333333333333336</ele><time>2026-04-09T13:04:49.278Z</time></trkpt><trkpt lat="43.9148417" lon="8.0266947"><ele>33.0</ele><time>2026-04-09T13:04:50.278Z</time></trkpt><trkpt lat="43.915019" lon="8.0265555"><ele>33.666666666666664</ele><time>2026-04-09T13:04:51.279Z</time></trkpt><trkpt lat="43.9152021" lon="8.0264431"><ele>34.33333333333333</ele><time>2026-04-09T13:04:52.278Z</time></trkpt><trkpt lat="43.9153793" lon="8.0263483"><ele>35.0</ele><time>2026-04-09T13:04:53.279Z</time></trkpt><trkpt lat="43.9155555" lon="8.0262816"><ele>35.0</ele><time>2026-04-09T13:04:54.278Z</time></trkpt><trkpt lat="43.9157141" lon="8.0261979"><ele>35.0</ele><time>2026-04-09T13:04:55.279Z</time></trkpt><trkpt lat="43.9158406" lon="8.0260646"><ele>35.0</ele><time>2026-04-09T13:04:56.278Z</time></trkpt><trkpt lat="43.9159759" lon="8.0259328"><ele>36.33333333333333</ele><time>2026-04-09T13:04:57.279Z</time></trkpt><trkpt lat="43.9161174" lon="8.0258482"><ele>37.666666666666664</ele><time>2026-04-09T13:04:58.278Z</time></trkpt><trkpt lat="43.9162834" lon="8.0258364"><ele>39.0</ele><time>2026-04-09T13:04:59.279Z</time></trkpt><trkpt lat="43.9164661" lon="8.0258615"><ele>39.0</ele><time>2026-04-09T13:05:00.279Z</time></trkpt><trkpt lat="43.9166629" lon="8.0259218"><ele>39.0</ele><time>2026-04-09T13:05:01.278Z</time></trkpt><trkpt lat="43.9168501" lon="8.0260034"><ele>39.0</ele><time>2026-04-09T13:05:02.279Z</time></trkpt><trkpt lat="43.9170377" lon="8.0260747"><ele>39.0</ele><time>2026-04-09T13:05:03.279Z</time></trkpt><trkpt lat="43.9172335" lon="8.0261086"><ele>39.0</ele><time>2026-04-09T13:05:04.279Z</time></trkpt><trkpt lat="43.9174295" lon="8.0261047"><ele>39.0</ele><time>2026-04-09T13:05:05.278Z</time></trkpt><trkpt lat="43.917623" lon="8.0260626"><ele>39.333333333333336</ele><time>2026-04-09T13:05:06.279Z</time></trkpt><trkpt lat="43.9178132" lon="8.0259879"><ele>39.66666666666667</ele><time>2026-04-09T13:05:07.278Z</time></trkpt><trkpt lat="43.9179927" lon="8.0258985"><ele>40.0</ele><time>2026-04-09T13:05:08.278Z</time></trkpt><trkpt lat="43.9181619" lon="8.0258087"><ele>39.0</ele><time>2026-04-09T13:05:09.279Z</time></trkpt><trkpt lat="43.9183206" lon="8.0257245"><ele>38.0</ele><time>2026-04-09T13:05:10.279Z</time></trkpt><trkpt lat="43.9184728" lon="8.0256631"><ele>37.0</ele><time>2026-04-09T13:05:11.278Z</time></trkpt><trkpt lat="43.9186306" lon="8.0256106"><ele>37.0</ele><time>2026-04-09T13:05:12.278Z</time></trkpt><trkpt lat="43.9187872" lon="8.0255601"><ele>37.0</ele><time>2026-04-09T13:05:13.278Z</time></trkpt><trkpt lat="43.9189497" lon="8.0255131"><ele>37.0</ele><time>2026-04-09T13:05:14.279Z</time></trkpt><trkpt lat="43.9191138" lon="8.0254726"><ele>39.333333333333336</ele><time>2026-04-09T13:05:15.279Z</time></trkpt><trkpt lat="43.9192846" lon="8.0254327"><ele>41.666666666666664</ele><time>2026-04-09T13:05:16.279Z</time></trkpt><trkpt lat="43.9194554" lon="8.0253936"><ele>44.0</ele><time>2026-04-09T13:05:17.279Z</time></trkpt><trkpt lat="43.9196189" lon="8.025363"><ele>44.0</ele><time>2026-04-09T13:05:18.278Z</time></trkpt><trkpt lat="43.9197767" lon="8.0253348"><ele>44.0</ele><time>2026-04-09T13:05:19.279Z</time></trkpt><trkpt lat="43.9199218" lon="8.0253153"><ele>44.0</ele><time>2026-04-09T13:05:20.278Z</time></trkpt><trkpt lat="43.9200616" lon="8.0252955"><ele>44.0</ele><time>2026-04-09T13:05:21.279Z</time></trkpt><trkpt lat="43.9201952" lon="8.0252802"><ele>44.25</ele><time>2026-04-09T13:05:22.278Z</time></trkpt><trkpt lat="43.9203307" lon="8.0252644"><ele>44.5</ele><time>2026-04-09T13:05:23.278Z</time></trkpt><trkpt lat="43.920468" lon="8.0252444"><ele>44.75</ele><time>2026-04-09T13:05:24.279Z</time></trkpt><trkpt lat="43.9206062" lon="8.0252271"><ele>45.0</ele><time>2026-04-09T13:05:25.279Z</time></trkpt><trkpt lat="43.920739" lon="8.0252145"><ele>45.0</ele><time>2026-04-09T13:05:26.278Z</time></trkpt><trkpt lat="43.9208684" lon="8.0251984"><ele>45.0</ele><time>2026-04-09T13:05:27.278Z</time></trkpt><trkpt lat="43.9210017" lon="8.02518"><ele>45.0</ele><time>2026-04-09T13:05:28.279Z</time></trkpt><trkpt lat="43.921138" lon="8.025166"><ele>45.0</ele><time>2026-04-09T13:05:29.279Z</time></trkpt><trkpt lat="43.9212753" lon="8.0251498"><ele>45.0</ele><time>2026-04-09T13:05:30.278Z</time></trkpt><trkpt lat="43.9214117" lon="8.0251406"><ele>45.0</ele><time>2026-04-09T13:05:31.278Z</time></trkpt><trkpt lat="43.9215433" lon="8.0251321"><ele>45.0</ele><time>2026-04-09T13:05:32.279Z</time></trkpt><trkpt lat="43.9216718" lon="8.0251188"><ele>45.0</ele><time>2026-04-09T13:05:33.279Z</time></trkpt><trkpt lat="43.921801" lon="8.0251063"><ele>45.5</ele><time>2026-04-09T13:05:34.278Z</time></trkpt><trkpt lat="43.9219398" lon="8.0250874"><ele>46.0</ele><time>2026-04-09T13:05:35.279Z</time></trkpt><trkpt lat="43.9220798" lon="8.0250728"><ele>46.5</ele><time>2026-04-09T13:05:36.279Z</time></trkpt><trkpt lat="43.9222183" lon="8.0250628"><ele>47.0</ele><time>2026-04-09T13:05:37.279Z</time></trkpt><trkpt lat="43.9223493" lon="8.0250514"><ele>47.0</ele><time>2026-04-09T13:05:38.278Z</time></trkpt><trkpt lat="43.9224872" lon="8.0250426"><ele>47.0</ele><time>2026-04-09T13:05:39.279Z</time></trkpt><trkpt lat="43.9226184" lon="8.0250212"><ele>47.0</ele><time>2026-04-09T13:05:40.278Z</time></trkpt><trkpt lat="43.9227492" lon="8.0249978"><ele>47.0</ele><time>2026-04-09T13:05:41.278Z</time></trkpt><trkpt lat="43.9228762" lon="8.0249442"><ele>46.25</ele><time>2026-04-09T13:05:42.279Z</time></trkpt><trkpt lat="43.9229973" lon="8.0248683"><ele>45.5</ele><time>2026-04-09T13:05:43.279Z</time></trkpt><trkpt lat="43.923102" lon="8.0247707"><ele>44.75</ele><time>2026-04-09T13:05:44.278Z</time></trkpt><trkpt lat="43.9232035" lon="8.0246536"><ele>44.0</ele><time>2026-04-09T13:05:45.278Z</time></trkpt><trkpt lat="43.9233027" lon="8.024524"><ele>43.75</ele><time>2026-04-09T13:05:46.279Z</time></trkpt><trkpt lat="43.9234056" lon="8.0243961"><ele>43.5</ele><time>2026-04-09T13:05:47.279Z</time></trkpt><trkpt lat="43.9235115" lon="8.0242715"><ele>43.25</ele><time>2026-04-09T13:05:48.278Z</time></trkpt><trkpt lat="43.9236129" lon="8.0241388"><ele>43.0</ele><time>2026-04-09T13:05:49.279Z</time></trkpt><trkpt lat="43.9237083" lon="8.0240108"><ele>43.0</ele><time>2026-04-09T13:05:50.278Z</time></trkpt><trkpt lat="43.9238021" lon="8.0238851"><ele>43.0</ele><time>2026-04-09T13:05:51.278Z</time></trkpt><trkpt lat="43.9238977" lon="8.023754"><ele>43.0</ele><time>2026-04-09T13:05:52.279Z</time></trkpt><trkpt lat="43.9239994" lon="8.0236222"><ele>43.0</ele><time>2026-04-09T13:05:53.278Z</time></trkpt><trkpt lat="43.9241226" lon="8.0234803"><ele>44.333333333333336</ele><time>2026-04-09T13:05:54.278Z</time></trkpt><trkpt lat="43.9242703" lon="8.0233352"><ele>45.666666666666664</ele><time>2026-04-09T13:05:55.279Z</time></trkpt><trkpt lat="43.9244207" lon="8.0231899"><ele>47.0</ele><time>2026-04-09T13:05:56.278Z</time></trkpt><trkpt lat="43.9245649" lon="8.0230378"><ele>47.0</ele><time>2026-04-09T13:05:57.278Z</time></trkpt><trkpt lat="43.9247004" lon="8.0228774"><ele>47.0</ele><time>2026-04-09T13:05:58.278Z</time></trkpt><trkpt lat="43.9248387" lon="8.022696"><ele>47.0</ele><time>2026-04-09T13:05:59.279Z</time></trkpt><trkpt lat="43.9249914" lon="8.0224971"><ele>48.0</ele><time>2026-04-09T13:06:00.279Z</time></trkpt><trkpt lat="43.9251456" lon="8.0223054"><ele>49.0</ele><time>2026-04-09T13:06:01.278Z</time></trkpt><trkpt lat="43.9252836" lon="8.0221379"><ele>50.0</ele><time>2026-04-09T13:06:02.279Z</time></trkpt><trkpt lat="43.925409" lon="8.0219792"><ele>50.0</ele><time>2026-04-09T13:06:03.278Z</time></trkpt><trkpt lat="43.925527" lon="8.0218307"><ele>50.0</ele><time>2026-04-09T13:06:04.278Z</time></trkpt><trkpt lat="43.9256296" lon="8.0217067"><ele>50.0</ele><time>2026-04-09T13:06:05.278Z</time></trkpt><trkpt lat="43.9257186" lon="8.0215972"><ele>50.0</ele><time>2026-04-09T13:06:06.278Z</time></trkpt><trkpt lat="43.9258029" lon="8.0214993"><ele>49.0</ele><time>2026-04-09T13:06:07.279Z</time></trkpt><trkpt lat="43.9258928" lon="8.0213822"><ele>48.0</ele><time>2026-04-09T13:06:08.279Z</time></trkpt><trkpt lat="43.925996" lon="8.0212471"><ele>47.0</ele><time>2026-04-09T13:06:09.278Z</time></trkpt><trkpt lat="43.9261073" lon="8.0210705"><ele>46.0</ele><time>2026-04-09T13:06:10.278Z</time></trkpt><trkpt lat="43.9262276" lon="8.0208753"><ele>47.0</ele><time>2026-04-09T13:06:11.279Z</time></trkpt><trkpt lat="43.926357" lon="8.0206613"><ele>48.0</ele><time>2026-04-09T13:06:12.279Z</time></trkpt><trkpt lat="43.9264823" lon="8.0204382"><ele>49.0</ele><time>2026-04-09T13:06:13.279Z</time></trkpt><trkpt lat="43.9265888" lon="8.0202208"><ele>49.0</ele><time>2026-04-09T13:06:14.278Z</time></trkpt><trkpt lat="43.9267153" lon="8.0200324"><ele>49.0</ele><time>2026-04-09T13:06:15.279Z</time></trkpt><trkpt lat="43.926865" lon="8.0198647"><ele>49.0</ele><time>2026-04-09T13:06:16.279Z</time></trkpt><trkpt lat="43.927038" lon="8.0197321"><ele>48.33333333333333</ele><time>2026-04-09T13:06:17.279Z</time></trkpt><trkpt lat="43.9272233" lon="8.019644"><ele>47.666666666666664</ele><time>2026-04-09T13:06:18.278Z</time></trkpt><trkpt lat="43.9274234" lon="8.019595"><ele>47.0</ele><time>2026-04-09T13:06:19.278Z</time></trkpt><trkpt lat="43.927622" lon="8.0196016"><ele>46.33333333333333</ele><time>2026-04-09T13:06:20.278Z</time></trkpt><trkpt lat="43.9278185" lon="8.0196598"><ele>45.666666666666664</ele><time>2026-04-09T13:06:21.278Z</time></trkpt><trkpt lat="43.9280001" lon="8.0197765"><ele>45.0</ele><time>2026-04-09T13:06:22.278Z</time></trkpt><trkpt lat="43.9281621" lon="8.0199289"><ele>46.0</ele><time>2026-04-09T13:06:23.278Z</time></trkpt><trkpt lat="43.9283108" lon="8.0201085"><ele>47.0</ele><time>2026-04-09T13:06:24.278Z</time></trkpt><trkpt lat="43.9284723" lon="8.0202952"><ele>48.0</ele><time>2026-04-09T13:06:25.278Z</time></trkpt><trkpt lat="43.928644" lon="8.0204453"><ele>48.0</ele><time>2026-04-09T13:06:26.279Z</time></trkpt><trkpt lat="43.9288209" lon="8.020564"><ele>48.0</ele><time>2026-04-09T13:06:27.278Z</time></trkpt><trkpt lat="43.9290171" lon="8.0206701"><ele>48.0</ele><time>2026-04-09T13:06:28.279Z</time></trkpt><trkpt lat="43.9292228" lon="8.0207585"><ele>50.0</ele><time>2026-04-09T13:06:29.278Z</time></trkpt><trkpt lat="43.9294389" lon="8.0208396"><ele>52.0</ele><time>2026-04-09T13:06:30.279Z</time></trkpt><trkpt lat="43.9296567" lon="8.0209239"><ele>52.0</ele><time>2026-04-09T13:06:31.278Z</time></trkpt><trkpt lat="43.9298697" lon="8.0210099"><ele>52.0</ele><time>2026-04-09T13:06:32.279Z</time></trkpt><trkpt lat="43.9300772" lon="8.0211012"><ele>52.0</ele><time>2026-04-09T13:06:33.278Z</time></trkpt><trkpt lat="43.930283" lon="8.0212013"><ele>52.666666666666664</ele><time>2026-04-09T13:06:34.279Z</time></trkpt><trkpt lat="43.9304846" lon="8.0213016"><ele>53.33333333333333</ele><time>2026-04-09T13:06:35.278Z</time></trkpt><trkpt lat="43.930694" lon="8.0213789"><ele>54.0</ele><time>2026-04-09T13:06:36.279Z</time></trkpt><trkpt lat="43.9309076" lon="8.0214228"><ele>54.33333333333333</ele><time>2026-04-09T13:06:37.279Z</time></trkpt><trkpt lat="43.9311166" lon="8.0214412"><ele>54.666666666666664</ele><time>2026-04-09T13:06:38.279Z</time></trkpt><trkpt lat="43.9313229" lon="8.0214408"><ele>55.0</ele><time>2026-04-09T13:06:39.278Z</time></trkpt><trkpt lat="43.931526" lon="8.0213892"><ele>55.0</ele><time>2026-04-09T13:06:40.279Z</time></trkpt><trkpt lat="43.9317162" lon="8.0212796"><ele>55.0</ele><time>2026-04-09T13:06:41.282Z</time></trkpt><trkpt lat="43.9318984" lon="8.0211228"><ele>55.0</ele><time>2026-04-09T13:06:42.282Z</time></trkpt><trkpt lat="43.9320617" lon="8.0209331"><ele>56.0</ele><time>2026-04-09T13:06:43.281Z</time></trkpt><trkpt lat="43.9322046" lon="8.0207169"><ele>57.0</ele><time>2026-04-09T13:06:44.281Z</time></trkpt><trkpt lat="43.9323387" lon="8.0204898"><ele>58.0</ele><time>2026-04-09T13:06:45.282Z</time></trkpt><trkpt lat="43.9324691" lon="8.0202618"><ele>66.0</ele><time>2026-04-09T13:06:46.281Z</time></trkpt><trkpt lat="43.9325624" lon="8.020003"><ele>74.0</ele><time>2026-04-09T13:06:47.282Z</time></trkpt><trkpt lat="43.93261" lon="8.0197158"><ele>82.0</ele><time>2026-04-09T13:06:48.281Z</time></trkpt><trkpt lat="43.932628" lon="8.0194084"><ele>76.0</ele><time>2026-04-09T13:06:49.282Z</time></trkpt><trkpt lat="43.9326365" lon="8.0190948"><ele>70.0</ele><time>2026-04-09T13:06:50.282Z</time></trkpt><trkpt lat="43.9326486" lon="8.0187831"><ele>70.0</ele><time>2026-04-09T13:06:51.282Z</time></trkpt><trkpt lat="43.9326751" lon="8.0184889"><ele>70.0</ele><time>2026-04-09T13:06:52.281Z</time></trkpt><trkpt lat="43.9327236" lon="8.0181978"><ele>70.0</ele><time>2026-04-09T13:06:53.281Z</time></trkpt><trkpt lat="43.9327964" lon="8.0179136"><ele>67.33333333333333</ele><time>2026-04-09T13:06:54.282Z</time></trkpt><trkpt lat="43.9328799" lon="8.0176369"><ele>64.66666666666667</ele><time>2026-04-09T13:06:55.281Z</time></trkpt><trkpt lat="43.9329715" lon="8.017352"><ele>62.0</ele><time>2026-04-09T13:06:56.282Z</time></trkpt><trkpt lat="43.933077" lon="8.0170745"><ele>57.5</ele><time>2026-04-09T13:06:57.282Z</time></trkpt><trkpt lat="43.9332083" lon="8.016808"><ele>53.0</ele><time>2026-04-09T13:06:58.281Z</time></trkpt><trkpt lat="43.9333508" lon="8.0165452"><ele>54.0</ele><time>2026-04-09T13:06:59.281Z</time></trkpt><trkpt lat="43.9335023" lon="8.0162944"><ele>55.0</ele><time>2026-04-09T13:07:00.282Z</time></trkpt><trkpt lat="43.9336568" lon="8.0160247"><ele>54.5</ele><time>2026-04-09T13:07:01.282Z</time></trkpt><trkpt lat="43.933812" lon="8.0157497"><ele>54.0</ele><time>2026-04-09T13:07:02.281Z</time></trkpt><trkpt lat="43.9339692" lon="8.0154674"><ele>54.0</ele><time>2026-04-09T13:07:03.281Z</time></trkpt><trkpt lat="43.9341274" lon="8.0151889"><ele>54.0</ele><time>2026-04-09T13:07:04.281Z</time></trkpt><trkpt lat="43.9342819" lon="8.0149073"><ele>54.0</ele><time>2026-04-09T13:07:05.282Z</time></trkpt><trkpt lat="43.9344341" lon="8.0146246"><ele>54.0</ele><time>2026-04-09T13:07:06.281Z</time></trkpt><trkpt lat="43.93459" lon="8.0143343"><ele>68.0</ele><time>2026-04-09T13:07:07.282Z</time></trkpt><trkpt lat="43.9347444" lon="8.0140407"><ele>82.0</ele><time>2026-04-09T13:07:08.282Z</time></trkpt><trkpt lat="43.9349" lon="8.013752"><ele>79.0</ele><time>2026-04-09T13:07:09.282Z</time></trkpt><trkpt lat="43.9350576" lon="8.0134573"><ele>76.0</ele><time>2026-04-09T13:07:10.281Z</time></trkpt><trkpt lat="43.9352152" lon="8.0131593"><ele>94.5</ele><time>2026-04-09T13:07:11.282Z</time></trkpt><trkpt lat="43.9353714" lon="8.0128583"><ele>113.0</ele><time>2026-04-09T13:07:12.281Z</time></trkpt><trkpt lat="43.9409711" lon="8.0021646"><ele>108.0</ele><time>2026-04-09T13:07:56.281Z</time></trkpt><trkpt lat="43.9472348" lon="8.0006861"><ele>108.0</ele><time>2026-04-09T13:08:27.281Z</time></trkpt><trkpt lat="43.9474323" lon="8.0007842"><ele>108.0</ele><time>2026-04-09T13:08:28.282Z</time></trkpt><trkpt lat="43.9476432" lon="8.0008611"><ele>108.0</ele><time>2026-04-09T13:08:29.281Z</time></trkpt><trkpt lat="43.9478412" lon="8.0009327"><ele>106.66666666666666</ele><time>2026-04-09T13:08:30.281Z</time></trkpt><trkpt lat="43.9480271" lon="8.0009898"><ele>105.33333333333333</ele><time>2026-04-09T13:08:31.281Z</time></trkpt><trkpt lat="43.9482011" lon="8.0010392"><ele>104.0</ele><time>2026-04-09T13:08:32.281Z</time></trkpt><trkpt lat="43.9483784" lon="8.0010862"><ele>104.0</ele><time>2026-04-09T13:08:33.281Z</time></trkpt><trkpt lat="43.9485572" lon="8.0011286"><ele>104.0</ele><time>2026-04-09T13:08:34.281Z</time></trkpt><trkpt lat="43.9487356" lon="8.0011697"><ele>104.0</ele><time>2026-04-09T13:08:35.281Z</time></trkpt><trkpt lat="43.9489183" lon="8.0012097"><ele>104.0</ele><time>2026-04-09T13:08:36.281Z</time></trkpt><trkpt lat="43.9491041" lon="8.0012474"><ele>104.0</ele><time>2026-04-09T13:08:37.282Z</time></trkpt><trkpt lat="43.9492915" lon="8.0012908"><ele>104.0</ele><time>2026-04-09T13:08:38.281Z</time></trkpt><trkpt lat="43.9494879" lon="8.0013435"><ele>100.0</ele><time>2026-04-09T13:08:39.282Z</time></trkpt><trkpt lat="43.9496869" lon="8.0013967"><ele>96.0</ele><time>2026-04-09T13:08:40.282Z</time></trkpt><trkpt lat="43.949888" lon="8.0014484"><ele>92.0</ele><time>2026-04-09T13:08:41.281Z</time></trkpt><trkpt lat="43.9500965" lon="8.0014998"><ele>90.66666666666667</ele><time>2026-04-09T13:08:42.282Z</time></trkpt><trkpt lat="43.950305" lon="8.0015497"><ele>89.33333333333333</ele><time>2026-04-09T13:08:43.282Z</time></trkpt><trkpt lat="43.9505097" lon="8.0016013"><ele>88.0</ele><time>2026-04-09T13:08:44.281Z</time></trkpt><trkpt lat="43.9507192" lon="8.0016478"><ele>91.0</ele><time>2026-04-09T13:08:45.281Z</time></trkpt><trkpt lat="43.95093" lon="8.0016953"><ele>94.0</ele><time>2026-04-09T13:08:46.281Z</time></trkpt><trkpt lat="43.951138" lon="8.0017487"><ele>97.0</ele><time>2026-04-09T13:08:47.281Z</time></trkpt><trkpt lat="43.9513504" lon="8.0018016"><ele>97.0</ele><time>2026-04-09T13:08:48.281Z</time></trkpt><trkpt lat="43.9515573" lon="8.0018512"><ele>97.0</ele><time>2026-04-09T13:08:49.282Z</time></trkpt><trkpt lat="43.9517618" lon="8.0018968"><ele>97.0</ele><time>2026-04-09T13:08:50.281Z</time></trkpt><trkpt lat="43.9519715" lon="8.0019555"><ele>110.5</ele><time>2026-04-09T13:08:51.281Z</time></trkpt><trkpt lat="43.9521861" lon="8.0020063"><ele>124.0</ele><time>2026-04-09T13:08:52.282Z</time></trkpt><trkpt lat="43.9572216" lon="7.9974367"><ele>124.0</ele><time>2026-04-09T13:09:22.281Z</time></trkpt><trkpt lat="43.9573404" lon="7.9971617"><ele>124.0</ele><time>2026-04-09T13:09:23.282Z</time></trkpt><trkpt lat="43.9574346" lon="7.9969249"><ele>124.0</ele><time>2026-04-09T13:09:24.282Z</time></trkpt><trkpt lat="43.9575045" lon="7.9966614"><ele>128.33333333333334</ele><time>2026-04-09T13:09:25.281Z</time></trkpt><trkpt lat="43.9575769" lon="7.9963931"><ele>132.66666666666666</ele><time>2026-04-09T13:09:26.282Z</time></trkpt><trkpt lat="43.9576381" lon="7.9961164"><ele>137.0</ele><time>2026-04-09T13:09:27.281Z</time></trkpt><trkpt lat="43.957698" lon="7.9958503"><ele>134.33333333333331</ele><time>2026-04-09T13:09:28.281Z</time></trkpt><trkpt lat="43.957759" lon="7.9955866"><ele>131.66666666666666</ele><time>2026-04-09T13:09:29.282Z</time></trkpt><trkpt lat="43.9578195" lon="7.9953259"><ele>129.0</ele><time>2026-04-09T13:09:30.281Z</time></trkpt><trkpt lat="43.9578789" lon="7.9950865"><ele>126.33333333333334</ele><time>2026-04-09T13:09:31.281Z</time></trkpt><trkpt lat="43.9579322" lon="7.9948601"><ele>123.66666666666667</ele><time>2026-04-09T13:09:32.282Z</time></trkpt><trkpt lat="43.9579903" lon="7.9946481"><ele>121.0</ele><time>2026-04-09T13:09:33.282Z</time></trkpt><trkpt lat="43.9580475" lon="7.9944416"><ele>121.0</ele><time>2026-04-09T13:09:34.282Z</time></trkpt><trkpt lat="43.9581232" lon="7.9942426"><ele>121.0</ele><time>2026-04-09T13:09:35.281Z</time></trkpt><trkpt lat="43.9582177" lon="7.9940578"><ele>121.0</ele><time>2026-04-09T13:09:36.282Z</time></trkpt><trkpt lat="43.958323" lon="7.9938786"><ele>127.66666666666667</ele><time>2026-04-09T13:09:37.281Z</time></trkpt><trkpt lat="43.9584363" lon="7.9937213"><ele>134.33333333333334</ele><time>2026-04-09T13:09:38.282Z</time></trkpt><trkpt lat="43.9585576" lon="7.9935826"><ele>141.0</ele><time>2026-04-09T13:09:39.282Z</time></trkpt><trkpt lat="43.9586943" lon="7.9934366"><ele>135.66666666666666</ele><time>2026-04-09T13:09:40.281Z</time></trkpt><trkpt lat="43.9588352" lon="7.9932844"><ele>130.33333333333331</ele><time>2026-04-09T13:09:41.281Z</time></trkpt><trkpt lat="43.9589823" lon="7.9931326"><ele>125.0</ele><time>2026-04-09T13:09:42.282Z</time></trkpt><trkpt lat="43.9591269" lon="7.9929767"><ele>132.0</ele><time>2026-04-09T13:09:43.281Z</time></trkpt><trkpt lat="43.9592695" lon="7.9928235"><ele>139.0</ele><time>2026-04-09T13:09:44.281Z</time></trkpt><trkpt lat="43.9594152" lon="7.9926702"><ele>146.0</ele><time>2026-04-09T13:09:45.281Z</time></trkpt><trkpt lat="43.959559" lon="7.9925111"><ele>137.33333333333331</ele><time>2026-04-09T13:09:46.282Z</time></trkpt><trkpt lat="43.9597029" lon="7.9923491"><ele>128.66666666666666</ele><time>2026-04-09T13:09:47.281Z</time></trkpt><trkpt lat="43.959846" lon="7.992193"><ele>120.0</ele><time>2026-04-09T13:09:48.281Z</time></trkpt><trkpt lat="43.9599939" lon="7.9920397"><ele>121.33333333333334</ele><time>2026-04-09T13:09:49.282Z</time></trkpt><trkpt lat="43.960138" lon="7.9918844"><ele>122.66666666666667</ele><time>2026-04-09T13:09:50.281Z</time></trkpt><trkpt lat="43.9602785" lon="7.9917327"><ele>124.0</ele><time>2026-04-09T13:09:51.281Z</time></trkpt><trkpt lat="43.9604168" lon="7.9915933"><ele>124.0</ele><time>2026-04-09T13:09:52.281Z</time></trkpt><trkpt lat="43.9605572" lon="7.9914704"><ele>124.0</ele><time>2026-04-09T13:09:53.282Z</time></trkpt><trkpt lat="43.9607001" lon="7.9913574"><ele>124.0</ele><time>2026-04-09T13:09:54.281Z</time></trkpt><trkpt lat="43.9608534" lon="7.9912557"><ele>130.66666666666669</ele><time>2026-04-09T13:09:55.281Z</time></trkpt><trkpt lat="43.9610166" lon="7.9911762"><ele>137.33333333333334</ele><time>2026-04-09T13:09:56.281Z</time></trkpt><trkpt lat="43.9611879" lon="7.9911062"><ele>144.0</ele><time>2026-04-09T13:09:57.282Z</time></trkpt><trkpt lat="43.9613602" lon="7.9910516"><ele>144.0</ele><time>2026-04-09T13:09:58.282Z</time></trkpt><trkpt lat="43.9615353" lon="7.991019"><ele>144.0</ele><time>2026-04-09T13:09:59.281Z</time></trkpt><trkpt lat="43.9617132" lon="7.9909973"><ele>144.0</ele><time>2026-04-09T13:10:00.281Z</time></trkpt><trkpt lat="43.9618952" lon="7.9909772"><ele>147.0</ele><time>2026-04-09T13:10:01.281Z</time></trkpt><trkpt lat="43.9620789" lon="7.990953"><ele>150.0</ele><time>2026-04-09T13:10:02.282Z</time></trkpt><trkpt lat="43.9622686" lon="7.9909279"><ele>153.0</ele><time>2026-04-09T13:10:03.281Z</time></trkpt><trkpt lat="43.962464" lon="7.9909119"><ele>148.33333333333334</ele><time>2026-04-09T13:10:04.281Z</time></trkpt><trkpt lat="43.9626713" lon="7.9908831"><ele>143.66666666666669</ele><time>2026-04-09T13:10:05.281Z</time></trkpt><trkpt lat="43.9628903" lon="7.99086"><ele>139.0</ele><time>2026-04-09T13:10:06.282Z</time></trkpt><trkpt lat="43.963108" lon="7.9908598"><ele>139.0</ele><time>2026-04-09T13:10:07.281Z</time></trkpt><trkpt lat="43.9633231" lon="7.9908565"><ele>139.0</ele><time>2026-04-09T13:10:08.282Z</time></trkpt><trkpt lat="43.9635294" lon="7.9908422"><ele>139.0</ele><time>2026-04-09T13:10:09.281Z</time></trkpt><trkpt lat="43.9744689" lon="7.9808408"><ele>174.0</ele><time>2026-04-09T13:11:09.283Z</time></trkpt><trkpt lat="43.9746262" lon="7.9805323"><ele>209.0</ele><time>2026-04-09T13:11:10.282Z</time></trkpt><trkpt lat="43.9747826" lon="7.9802122"><ele>215.0</ele><time>2026-04-09T13:11:11.283Z</time></trkpt><trkpt lat="43.9754137" lon="7.9743654"><ele>204.0</ele><time>2026-04-09T13:11:28.283Z</time></trkpt><trkpt lat="43.975499" lon="7.9740776"><ele>193.0</ele><time>2026-04-09T13:11:29.283Z</time></trkpt><trkpt lat="43.9755825" lon="7.9737832"><ele>193.0</ele><time>2026-04-09T13:11:30.283Z</time></trkpt><trkpt lat="43.9756988" lon="7.973497"><ele>193.0</ele><time>2026-04-09T13:11:31.282Z</time></trkpt><trkpt lat="43.9758393" lon="7.9732302"><ele>210.5</ele><time>2026-04-09T13:11:32.283Z</time></trkpt><trkpt lat="43.9759862" lon="7.972966"><ele>228.0</ele><time>2026-04-09T13:11:33.283Z</time></trkpt><trkpt lat="43.9761524" lon="7.9727216"><ele>216.0</ele><time>2026-04-09T13:11:34.283Z</time></trkpt><trkpt lat="43.9763364" lon="7.9724977"><ele>204.0</ele><time>2026-04-09T13:11:35.283Z</time></trkpt><trkpt lat="43.9765446" lon="7.9723079"><ele>222.5</ele><time>2026-04-09T13:11:36.283Z</time></trkpt><trkpt lat="43.9767683" lon="7.9721339"><ele>241.0</ele><time>2026-04-09T13:11:37.283Z</time></trkpt><trkpt lat="43.9769955" lon="7.9719659"><ele>241.0</ele><time>2026-04-09T13:11:38.283Z</time></trkpt><trkpt lat="43.9772167" lon="7.9717971"><ele>241.0</ele><time>2026-04-09T13:11:39.282Z</time></trkpt><trkpt lat="43.9774354" lon="7.9716322"><ele>236.0</ele><time>2026-04-09T13:11:40.283Z</time></trkpt><trkpt lat="43.977655" lon="7.9714732"><ele>231.0</ele><time>2026-04-09T13:11:41.283Z</time></trkpt><trkpt lat="43.9778728" lon="7.9713343"><ele>231.0</ele><time>2026-04-09T13:11:42.282Z</time></trkpt><trkpt lat="43.978093" lon="7.9712269"><ele>231.0</ele><time>2026-04-09T13:11:43.282Z</time></trkpt><trkpt lat="43.9783285" lon="7.9711188"><ele>229.5</ele><time>2026-04-09T13:11:44.283Z</time></trkpt><trkpt lat="43.9785639" lon="7.9710685"><ele>228.0</ele><time>2026-04-09T13:11:45.283Z</time></trkpt><trkpt lat="43.9787968" lon="7.9710714"><ele>228.0</ele><time>2026-04-09T13:11:46.283Z</time></trkpt><trkpt lat="43.9790212" lon="7.9711096"><ele>228.0</ele><time>2026-04-09T13:11:47.283Z</time></trkpt><trkpt lat="43.9792229" lon="7.9711911"><ele>228.0</ele><time>2026-04-09T13:11:48.282Z</time></trkpt><trkpt lat="43.9794016" lon="7.9713045"><ele>220.66666666666669</ele><time>2026-04-09T13:11:49.282Z</time></trkpt><trkpt lat="43.9795893" lon="7.9714218"><ele>213.33333333333334</ele><time>2026-04-09T13:11:50.283Z</time></trkpt><trkpt lat="43.9797871" lon="7.9715144"><ele>206.0</ele><time>2026-04-09T13:11:51.282Z</time></trkpt><trkpt lat="43.979991" lon="7.9716151"><ele>216.5</ele><time>2026-04-09T13:11:52.283Z</time></trkpt><trkpt lat="43.9802131" lon="7.9717401"><ele>227.0</ele><time>2026-04-09T13:11:53.282Z</time></trkpt><trkpt lat="43.9804272" lon="7.971908"><ele>227.0</ele><time>2026-04-09T13:11:54.282Z</time></trkpt><trkpt lat="43.9806399" lon="7.9720524"><ele>227.0</ele><time>2026-04-09T13:11:55.282Z</time></trkpt><trkpt lat="43.9808444" lon="7.9721941"><ele>225.33333333333334</ele><time>2026-04-09T13:11:56.282Z</time></trkpt><trkpt lat="43.9810442" lon="7.9723273"><ele>223.66666666666669</ele><time>2026-04-09T13:11:57.283Z</time></trkpt><trkpt lat="43.9812334" lon="7.9724571"><ele>222.0</ele><time>2026-04-09T13:11:58.283Z</time></trkpt><trkpt lat="43.9814284" lon="7.9725793"><ele>227.33333333333331</ele><time>2026-04-09T13:11:59.283Z</time></trkpt><trkpt lat="43.9816254" lon="7.972692"><ele>232.66666666666666</ele><time>2026-04-09T13:12:00.283Z</time></trkpt><trkpt lat="43.9818248" lon="7.9727847"><ele>238.0</ele><time>2026-04-09T13:12:01.282Z</time></trkpt><trkpt lat="43.9820311" lon="7.9728551"><ele>238.0</ele><time>2026-04-09T13:12:02.282Z</time></trkpt><trkpt lat="43.9822414" lon="7.9729016"><ele>238.0</ele><time>2026-04-09T13:12:03.282Z</time></trkpt><trkpt lat="43.9824515" lon="7.9729169"><ele>238.0</ele><time>2026-04-09T13:12:04.282Z</time></trkpt><trkpt lat="43.982673" lon="7.972881"><ele>240.5</ele><time>2026-04-09T13:12:05.283Z</time></trkpt><trkpt lat="43.9828928" lon="7.972797"><ele>243.0</ele><time>2026-04-09T13:12:06.283Z</time></trkpt><trkpt lat="43.9831064" lon="7.9726826"><ele>247.5</ele><time>2026-04-09T13:12:07.283Z</time></trkpt><trkpt lat="43.9833141" lon="7.9725218"><ele>252.0</ele><time>2026-04-09T13:12:08.283Z</time></trkpt><trkpt lat="43.9835036" lon="7.9723274"><ele>252.0</ele><time>2026-04-09T13:12:09.283Z</time></trkpt><trkpt lat="43.9836883" lon="7.9720954"><ele>252.0</ele><time>2026-04-09T13:12:10.283Z</time></trkpt><trkpt lat="43.9838546" lon="7.971834"><ele>249.5</ele><time>2026-04-09T13:12:11.282Z</time></trkpt><trkpt lat="43.9840148" lon="7.9715511"><ele>247.0</ele><time>2026-04-09T13:12:12.283Z</time></trkpt><trkpt lat="43.9841795" lon="7.9712729"><ele>252.5</ele><time>2026-04-09T13:12:13.283Z</time></trkpt><trkpt lat="43.9843516" lon="7.971027"><ele>258.0</ele><time>2026-04-09T13:12:14.283Z</time></trkpt><trkpt lat="43.9845379" lon="7.9708072"><ele>258.0</ele><time>2026-04-09T13:12:15.283Z</time></trkpt><trkpt lat="43.9847425" lon="7.9706277"><ele>258.0</ele><time>2026-04-09T13:12:16.282Z</time></trkpt><trkpt lat="43.9849659" lon="7.9704781"><ele>269.0</ele><time>2026-04-09T13:12:17.283Z</time></trkpt><trkpt lat="43.9852019" lon="7.9703846"><ele>280.0</ele><time>2026-04-09T13:12:18.282Z</time></trkpt><trkpt lat="43.9854538" lon="7.9703252"><ele>280.0</ele><time>2026-04-09T13:12:19.282Z</time></trkpt><trkpt lat="43.9857155" lon="7.9702794"><ele>280.0</ele><time>2026-04-09T13:12:20.283Z</time></trkpt><trkpt lat="43.9859885" lon="7.9702358"><ele>284.0</ele><time>2026-04-09T13:12:21.282Z</time></trkpt><trkpt lat="43.9862588" lon="7.9701912"><ele>288.0</ele><time>2026-04-09T13:12:22.283Z</time></trkpt><trkpt lat="43.9865192" lon="7.9701433"><ele>286.5</ele><time>2026-04-09T13:12:23.283Z</time></trkpt><trkpt lat="43.9867692" lon="7.9701011"><ele>285.0</ele><time>2026-04-09T13:12:24.282Z</time></trkpt><trkpt lat="43.9870128" lon="7.9700911"><ele>285.0</ele><time>2026-04-09T13:12:25.282Z</time></trkpt><trkpt lat="43.9872555" lon="7.9701248"><ele>285.0</ele><time>2026-04-09T13:12:26.283Z</time></trkpt><trkpt lat="43.9875001" lon="7.9702006"><ele>282.0</ele><time>2026-04-09T13:12:27.282Z</time></trkpt><trkpt lat="43.9877309" lon="7.970326"><ele>279.0</ele><time>2026-04-09T13:12:28.283Z</time></trkpt><trkpt lat="43.9879654" lon="7.9704754"><ele>279.0</ele><time>2026-04-09T13:12:29.283Z</time></trkpt><trkpt lat="43.9882004" lon="7.9706304"><ele>279.0</ele><time>2026-04-09T13:12:30.283Z</time></trkpt><trkpt lat="43.988435" lon="7.970776"><ele>287.5</ele><time>2026-04-09T13:12:31.283Z</time></trkpt><trkpt lat="43.9886659" lon="7.9709038"><ele>296.0</ele><time>2026-04-09T13:12:32.283Z</time></trkpt><trkpt lat="43.9889018" lon="7.9709995"><ele>296.0</ele><time>2026-04-09T13:12:33.283Z</time></trkpt><trkpt lat="43.9891421" lon="7.9710541"><ele>296.0</ele><time>2026-04-09T13:12:34.282Z</time></trkpt><trkpt lat="43.9893918" lon="7.9710642"><ele>296.5</ele><time>2026-04-09T13:12:35.282Z</time></trkpt><trkpt lat="43.9896507" lon="7.9710416"><ele>297.0</ele><time>2026-04-09T13:12:36.283Z</time></trkpt><trkpt lat="43.9899133" lon="7.970984"><ele>299.5</ele><time>2026-04-09T13:12:37.282Z</time></trkpt><trkpt lat="43.9901727" lon="7.9709093"><ele>302.0</ele><time>2026-04-09T13:12:38.283Z</time></trkpt><trkpt lat="43.9904332" lon="7.9708407"><ele>296.0</ele><time>2026-04-09T13:12:39.283Z</time></trkpt><trkpt lat="43.9906907" lon="7.9707915"><ele>290.0</ele><time>2026-04-09T13:12:40.283Z</time></trkpt><trkpt lat="43.9909407" lon="7.9707891"><ele>287.5</ele><time>2026-04-09T13:12:41.282Z</time></trkpt><trkpt lat="43.9911822" lon="7.9708318"><ele>285.0</ele><time>2026-04-09T13:12:42.282Z</time></trkpt><trkpt lat="43.9914198" lon="7.970915"><ele>289.5</ele><time>2026-04-09T13:12:43.283Z</time></trkpt><trkpt lat="43.9916561" lon="7.9710401"><ele>294.0</ele><time>2026-04-09T13:12:44.283Z</time></trkpt><trkpt lat="43.9918796" lon="7.9712047"><ele>294.0</ele><time>2026-04-09T13:12:45.282Z</time></trkpt><trkpt lat="43.9920771" lon="7.9714189"><ele>294.0</ele><time>2026-04-09T13:12:46.283Z</time></trkpt><trkpt lat="43.9922335" lon="7.9716701"><ele>296.0</ele><time>2026-04-09T13:12:47.282Z</time></trkpt><trkpt lat="43.9923889" lon="7.9719279"><ele>298.0</ele><time>2026-04-09T13:12:48.283Z</time></trkpt><trkpt lat="43.9925514" lon="7.9721849"><ele>298.0</ele><time>2026-04-09T13:12:49.282Z</time></trkpt><trkpt lat="43.9927361" lon="7.9724124"><ele>298.0</ele><time>2026-04-09T13:12:50.282Z</time></trkpt><trkpt lat="43.9929476" lon="7.972614"><ele>303.0</ele><time>2026-04-09T13:12:51.283Z</time></trkpt><trkpt lat="43.9931707" lon="7.9728121"><ele>308.0</ele><time>2026-04-09T13:12:52.282Z</time></trkpt><trkpt lat="43.9933918" lon="7.9730231"><ele>308.0</ele><time>2026-04-09T13:12:53.282Z</time></trkpt><trkpt lat="43.9936169" lon="7.9732309"><ele>308.0</ele><time>2026-04-09T13:12:54.283Z</time></trkpt><trkpt lat="43.9938388" lon="7.973429"><ele>310.5</ele><time>2026-04-09T13:12:55.282Z</time></trkpt><trkpt lat="43.9940487" lon="7.9736246"><ele>313.0</ele><time>2026-04-09T13:12:56.282Z</time></trkpt><trkpt lat="43.9942455" lon="7.9738118"><ele>313.0</ele><time>2026-04-09T13:12:57.282Z</time></trkpt><trkpt lat="43.9944279" lon="7.9739865"><ele>313.0</ele><time>2026-04-09T13:12:58.283Z</time></trkpt><trkpt lat="43.994598" lon="7.9741443"><ele>313.0</ele><time>2026-04-09T13:12:59.282Z</time></trkpt><trkpt lat="43.994748" lon="7.9742913"><ele>312.3333333333333</ele><time>2026-04-09T13:13:00.283Z</time></trkpt><trkpt lat="43.994883" lon="7.9744307"><ele>311.6666666666667</ele><time>2026-04-09T13:13:01.283Z</time></trkpt><trkpt lat="43.9950013" lon="7.9745656"><ele>311.0</ele><time>2026-04-09T13:13:02.283Z</time></trkpt><trkpt lat="43.9951089" lon="7.9746999"><ele>311.0</ele><time>2026-04-09T13:13:03.283Z</time></trkpt><trkpt lat="43.9952011" lon="7.9748374"><ele>311.0</ele><time>2026-04-09T13:13:04.282Z</time></trkpt><trkpt lat="43.995276" lon="7.9750199"><ele>311.0</ele><time>2026-04-09T13:13:05.282Z</time></trkpt><trkpt lat="43.9953371" lon="7.9752316"><ele>316.33333333333337</ele><time>2026-04-09T13:13:06.283Z</time></trkpt><trkpt lat="43.9954047" lon="7.975449"><ele>321.6666666666667</ele><time>2026-04-09T13:13:07.282Z</time></trkpt><trkpt lat="43.9954764" lon="7.975662"><ele>327.0</ele><time>2026-04-09T13:13:08.282Z</time></trkpt><trkpt lat="43.9955471" lon="7.9758533"><ele>331.40000000000003</ele><time>2026-04-09T13:13:09.282Z</time></trkpt><trkpt lat="43.9956245" lon="7.9760191"><ele>335.8</ele><time>2026-04-09T13:13:10.282Z</time></trkpt><trkpt lat="43.9956983" lon="7.9761265"><ele>340.2</ele><time>2026-04-09T13:13:11.282Z</time></trkpt><trkpt lat="43.9957649" lon="7.9762261"><ele>344.6</ele><time>2026-04-09T13:13:12.283Z</time></trkpt><trkpt lat="43.9958364" lon="7.9762989"><ele>349.0</ele><time>2026-04-09T13:13:13.283Z</time></trkpt><trkpt lat="43.9959275" lon="7.9763157"><ele>350.5</ele><time>2026-04-09T13:13:14.283Z</time></trkpt><trkpt lat="43.9960375" lon="7.9762795"><ele>352.0</ele><time>2026-04-09T13:13:15.283Z</time></trkpt><trkpt lat="43.9961243" lon="7.9761846"><ele>353.5</ele><time>2026-04-09T13:13:16.282Z</time></trkpt><trkpt lat="43.9962139" lon="7.9760519"><ele>355.0</ele><time>2026-04-09T13:13:17.283Z</time></trkpt><trkpt lat="43.996321" lon="7.9759153"><ele>350.3333333333333</ele><time>2026-04-09T13:13:18.283Z</time></trkpt><trkpt lat="43.9964429" lon="7.9757826"><ele>345.6666666666667</ele><time>2026-04-09T13:13:19.283Z</time></trkpt><trkpt lat="43.996567" lon="7.9756489"><ele>341.0</ele><time>2026-04-09T13:13:20.282Z</time></trkpt><trkpt lat="43.9966817" lon="7.9755108"><ele>344.5</ele><time>2026-04-09T13:13:21.286Z</time></trkpt><trkpt lat="43.9967712" lon="7.9753489"><ele>348.0</ele><time>2026-04-09T13:13:22.285Z</time></trkpt><trkpt lat="43.9968295" lon="7.9751596"><ele>351.5</ele><time>2026-04-09T13:13:23.285Z</time></trkpt><trkpt lat="43.9968629" lon="7.9749558"><ele>355.0</ele><time>2026-04-09T13:13:24.286Z</time></trkpt><trkpt lat="43.9968948" lon="7.974771"><ele>355.0</ele><time>2026-04-09T13:13:25.286Z</time></trkpt><trkpt lat="43.9969339" lon="7.974612"><ele>355.0</ele><time>2026-04-09T13:13:26.286Z</time></trkpt><trkpt lat="43.9970075" lon="7.9745076"><ele>355.0</ele><time>2026-04-09T13:13:27.285Z</time></trkpt><trkpt lat="43.9971081" lon="7.9744537"><ele>355.0</ele><time>2026-04-09T13:13:28.285Z</time></trkpt><trkpt lat="43.9972313" lon="7.9744182"><ele>355.0</ele><time>2026-04-09T13:13:29.286Z</time></trkpt><trkpt lat="43.9973678" lon="7.9744081"><ele>355.0</ele><time>2026-04-09T13:13:30.286Z</time></trkpt><trkpt lat="43.9974956" lon="7.9744427"><ele>355.0</ele><time>2026-04-09T13:13:31.285Z</time></trkpt><trkpt lat="43.9976077" lon="7.9745113"><ele>355.0</ele><time>2026-04-09T13:13:32.286Z</time></trkpt><trkpt lat="43.9977193" lon="7.9745477"><ele>358.25</ele><time>2026-04-09T13:13:33.286Z</time></trkpt><trkpt lat="43.9978417" lon="7.974577"><ele>361.5</ele><time>2026-04-09T13:13:34.285Z</time></trkpt><trkpt lat="43.9979772" lon="7.9745609"><ele>364.75</ele><time>2026-04-09T13:13:35.286Z</time></trkpt><trkpt lat="43.9981119" lon="7.9745157"><ele>368.0</ele><time>2026-04-09T13:13:36.286Z</time></trkpt><trkpt lat="43.998244" lon="7.9744584"><ele>368.59999999999997</ele><time>2026-04-09T13:13:37.285Z</time></trkpt><trkpt lat="43.9983533" lon="7.9743833"><ele>369.2</ele><time>2026-04-09T13:13:38.285Z</time></trkpt><trkpt lat="43.9984439" lon="7.9743039"><ele>369.8</ele><time>2026-04-09T13:13:39.286Z</time></trkpt><trkpt lat="43.9985141" lon="7.9742176"><ele>370.4</ele><time>2026-04-09T13:13:40.286Z</time></trkpt><trkpt lat="43.9985805" lon="7.9741334"><ele>371.0</ele><time>2026-04-09T13:13:41.285Z</time></trkpt><trkpt lat="43.9986313" lon="7.9740573"><ele>369.2857142857143</ele><time>2026-04-09T13:13:42.285Z</time></trkpt><trkpt lat="43.9986823" lon="7.9739797"><ele>367.57142857142856</ele><time>2026-04-09T13:13:43.286Z</time></trkpt><trkpt lat="43.9987343" lon="7.9738976"><ele>365.8571428571429</ele><time>2026-04-09T13:13:44.286Z</time></trkpt><trkpt lat="43.9987842" lon="7.9738171"><ele>364.1428571428571</ele><time>2026-04-09T13:13:45.286Z</time></trkpt><trkpt lat="43.9988339" lon="7.9737372"><ele>362.42857142857144</ele><time>2026-04-09T13:13:46.285Z</time></trkpt><trkpt lat="43.9988838" lon="7.9736691"><ele>360.7142857142857</ele><time>2026-04-09T13:13:47.285Z</time></trkpt><trkpt lat="43.9989417" lon="7.9736078"><ele>359.0</ele><time>2026-04-09T13:13:48.286Z</time></trkpt><trkpt lat="43.9990134" lon="7.9735637"><ele>359.0</ele><time>2026-04-09T13:13:49.286Z</time></trkpt><trkpt lat="43.9990922" lon="7.9735464"><ele>359.0</ele><time>2026-04-09T13:13:50.286Z</time></trkpt><trkpt lat="43.999171" lon="7.9735571"><ele>359.0</ele><time>2026-04-09T13:13:51.285Z</time></trkpt><trkpt lat="43.9992402" lon="7.9736022"><ele>359.0</ele><time>2026-04-09T13:13:52.286Z</time></trkpt><trkpt lat="43.9992928" lon="7.973662"><ele>359.0</ele><time>2026-04-09T13:13:53.286Z</time></trkpt><trkpt lat="43.9993439" lon="7.973723"><ele>359.0</ele><time>2026-04-09T13:13:54.285Z</time></trkpt><trkpt lat="43.9993966" lon="7.9738097"><ele>357.0</ele><time>2026-04-09T13:13:55.285Z</time></trkpt><trkpt lat="43.9994398" lon="7.9739231"><ele>355.0</ele><time>2026-04-09T13:13:56.285Z</time></trkpt><trkpt lat="43.9994425" lon="7.9740792"><ele>353.0</ele><time>2026-04-09T13:13:57.286Z</time></trkpt><trkpt lat="43.9994032" lon="7.9742897"><ele>351.0</ele><time>2026-04-09T13:13:58.285Z</time></trkpt><trkpt lat="43.9993697" lon="7.9744874"><ele>351.0</ele><time>2026-04-09T13:13:59.285Z</time></trkpt><trkpt lat="43.9993469" lon="7.974627"><ele>351.0</ele><time>2026-04-09T13:14:00.285Z</time></trkpt><trkpt lat="43.9993668" lon="7.9747179"><ele>351.0</ele><time>2026-04-09T13:14:01.286Z</time></trkpt><trkpt lat="43.9994029" lon="7.9748062"><ele>351.0</ele><time>2026-04-09T13:14:02.286Z</time></trkpt><trkpt lat="43.9994404" lon="7.9748909"><ele>351.0</ele><time>2026-04-09T13:14:03.286Z</time></trkpt><trkpt lat="43.9994929" lon="7.9749634"><ele>351.0</ele><time>2026-04-09T13:14:04.285Z</time></trkpt><trkpt lat="43.9995505" lon="7.9750308"><ele>352.20000000000005</ele><time>2026-04-09T13:14:05.285Z</time></trkpt><trkpt lat="43.9996187" lon="7.9751179"><ele>353.40000000000003</ele><time>2026-04-09T13:14:06.285Z</time></trkpt><trkpt lat="43.9996812" lon="7.9752286"><ele>354.6</ele><time>2026-04-09T13:14:07.286Z</time></trkpt><trkpt lat="43.9997361" lon="7.9753635"><ele>355.8</ele><time>2026-04-09T13:14:08.285Z</time></trkpt><trkpt lat="43.9997858" lon="7.9754974"><ele>357.0</ele><time>2026-04-09T13:14:09.285Z</time></trkpt><trkpt lat="43.9998225" lon="7.9756136"><ele>357.0</ele><time>2026-04-09T13:14:10.285Z</time></trkpt><trkpt lat="43.9998478" lon="7.9757203"><ele>357.0</ele><time>2026-04-09T13:14:11.286Z</time></trkpt><trkpt lat="43.9998481" lon="7.9758197"><ele>357.0</ele><time>2026-04-09T13:14:12.285Z</time></trkpt><trkpt lat="43.9998257" lon="7.975927"><ele>357.0</ele><time>2026-04-09T13:14:13.286Z</time></trkpt><trkpt lat="43.9997764" lon="7.9760288"><ele>357.0</ele><time>2026-04-09T13:14:14.286Z</time></trkpt><trkpt lat="43.9997009" lon="7.9761377"><ele>357.0</ele><time>2026-04-09T13:14:15.286Z</time></trkpt><trkpt lat="43.9996184" lon="7.9762397"><ele>357.0</ele><time>2026-04-09T13:14:16.286Z</time></trkpt><trkpt lat="43.9995415" lon="7.9763379"><ele>357.0</ele><time>2026-04-09T13:14:17.286Z</time></trkpt><trkpt lat="43.9994708" lon="7.976423"><ele>357.0</ele><time>2026-04-09T13:14:18.286Z</time></trkpt><trkpt lat="43.9994096" lon="7.9765006"><ele>357.0</ele><time>2026-04-09T13:14:19.285Z</time></trkpt><trkpt lat="43.9993586" lon="7.9765713"><ele>357.0</ele><time>2026-04-09T13:14:20.285Z</time></trkpt><trkpt lat="43.9993047" lon="7.9766353"><ele>357.0</ele><time>2026-04-09T13:14:21.286Z</time></trkpt><trkpt lat="43.9992455" lon="7.9767072"><ele>357.42857142857144</ele><time>2026-04-09T13:14:22.285Z</time></trkpt><trkpt lat="43.9991927" lon="7.9767739"><ele>357.8571428571429</ele><time>2026-04-09T13:14:23.286Z</time></trkpt><trkpt lat="43.9991451" lon="7.9768492"><ele>358.2857142857143</ele><time>2026-04-09T13:14:24.286Z</time></trkpt><trkpt lat="43.9991052" lon="7.9769353"><ele>358.7142857142857</ele><time>2026-04-09T13:14:25.286Z</time></trkpt><trkpt lat="43.9990779" lon="7.9770319"><ele>359.14285714285717</ele><time>2026-04-09T13:14:26.285Z</time></trkpt><trkpt lat="43.9990776" lon="7.9771316"><ele>359.57142857142856</ele><time>2026-04-09T13:14:27.286Z</time></trkpt><trkpt lat="43.9990859" lon="7.9772277"><ele>360.0</ele><time>2026-04-09T13:14:28.285Z</time></trkpt><trkpt lat="43.9990958" lon="7.9773308"><ele>361.1666666666667</ele><time>2026-04-09T13:14:29.286Z</time></trkpt><trkpt lat="43.9991115" lon="7.9774366"><ele>362.3333333333333</ele><time>2026-04-09T13:14:30.286Z</time></trkpt><trkpt lat="43.9991383" lon="7.9775313"><ele>363.5</ele><time>2026-04-09T13:14:31.285Z</time></trkpt><trkpt lat="43.9991643" lon="7.9776395"><ele>364.66666666666663</ele><time>2026-04-09T13:14:32.285Z</time></trkpt><trkpt lat="43.9991979" lon="7.9777525"><ele>365.8333333333333</ele><time>2026-04-09T13:14:33.286Z</time></trkpt><trkpt lat="43.9992571" lon="7.9778791"><ele>367.0</ele><time>2026-04-09T13:14:34.285Z</time></trkpt><trkpt lat="43.9993498" lon="7.9780452"><ele>367.0</ele><time>2026-04-09T13:14:35.285Z</time></trkpt><trkpt lat="43.9994533" lon="7.9782123"><ele>367.0</ele><time>2026-04-09T13:14:36.285Z</time></trkpt><trkpt lat="43.9995528" lon="7.9783677"><ele>367.0</ele><time>2026-04-09T13:14:37.285Z</time></trkpt><trkpt lat="43.9996322" lon="7.9785191"><ele>367.0</ele><time>2026-04-09T13:14:38.286Z</time></trkpt><trkpt lat="43.9996889" lon="7.9786612"><ele>368.0</ele><time>2026-04-09T13:14:39.286Z</time></trkpt><trkpt lat="43.9997247" lon="7.9788072"><ele>369.0</ele><time>2026-04-09T13:14:40.286Z</time></trkpt><trkpt lat="43.9997217" lon="7.9789669"><ele>370.0</ele><time>2026-04-09T13:14:41.286Z</time></trkpt><trkpt lat="43.9996777" lon="7.9791339"><ele>371.0</ele><time>2026-04-09T13:14:42.285Z</time></trkpt><trkpt lat="43.9996344" lon="7.9793087"><ele>371.25</ele><time>2026-04-09T13:14:43.285Z</time></trkpt><trkpt lat="43.9996243" lon="7.9795025"><ele>371.5</ele><time>2026-04-09T13:14:44.285Z</time></trkpt><trkpt lat="43.9996323" lon="7.979704"><ele>371.75</ele><time>2026-04-09T13:14:45.285Z</time></trkpt><trkpt lat="43.9996191" lon="7.9799055"><ele>372.0</ele><time>2026-04-09T13:14:46.285Z</time></trkpt><trkpt lat="43.9995673" lon="7.9801053"><ele>372.3333333333333</ele><time>2026-04-09T13:14:47.285Z</time></trkpt><trkpt lat="43.999478" lon="7.9803016"><ele>372.66666666666663</ele><time>2026-04-09T13:14:48.286Z</time></trkpt><trkpt lat="43.9993775" lon="7.9804985"><ele>373.0</ele><time>2026-04-09T13:14:49.285Z</time></trkpt><trkpt lat="43.9992862" lon="7.9806942"><ele>374.66666666666663</ele><time>2026-04-09T13:14:50.285Z</time></trkpt><trkpt lat="43.9992442" lon="7.9808946"><ele>376.3333333333333</ele><time>2026-04-09T13:14:51.285Z</time></trkpt><trkpt lat="43.9992433" lon="7.9811106"><ele>378.0</ele><time>2026-04-09T13:14:52.285Z</time></trkpt><trkpt lat="43.9992797" lon="7.981335"><ele>378.0</ele><time>2026-04-09T13:14:53.285Z</time></trkpt><trkpt lat="43.9993405" lon="7.9815676"><ele>378.0</ele><time>2026-04-09T13:14:54.285Z</time></trkpt><trkpt lat="43.9994036" lon="7.9818228"><ele>378.0</ele><time>2026-04-09T13:14:55.285Z</time></trkpt><trkpt lat="43.9994809" lon="7.9820824"><ele>382.0</ele><time>2026-04-09T13:14:56.286Z</time></trkpt><trkpt lat="43.9995547" lon="7.9823532"><ele>386.0</ele><time>2026-04-09T13:14:57.285Z</time></trkpt><trkpt lat="43.999633" lon="7.9826113"><ele>390.0</ele><time>2026-04-09T13:14:58.285Z</time></trkpt><trkpt lat="43.9997104" lon="7.9828477"><ele>396.33333333333337</ele><time>2026-04-09T13:14:59.285Z</time></trkpt><trkpt lat="43.999791" lon="7.9830499"><ele>402.6666666666667</ele><time>2026-04-09T13:15:00.286Z</time></trkpt><trkpt lat="43.9998789" lon="7.9832278"><ele>409.0</ele><time>2026-04-09T13:15:01.286Z</time></trkpt><trkpt lat="43.9999872" lon="7.9833645"><ele>416.6666666666667</ele><time>2026-04-09T13:15:02.286Z</time></trkpt><trkpt lat="44.0001285" lon="7.9834723"><ele>424.33333333333337</ele><time>2026-04-09T13:15:03.286Z</time></trkpt><trkpt lat="44.0002925" lon="7.9835401"><ele>432.0</ele><time>2026-04-09T13:15:04.286Z</time></trkpt><trkpt lat="44.0004576" lon="7.98358"><ele>432.0</ele><time>2026-04-09T13:15:05.286Z</time></trkpt><trkpt lat="44.0006037" lon="7.983633"><ele>432.0</ele><time>2026-04-09T13:15:06.286Z</time></trkpt><trkpt lat="44.0007144" lon="7.9837059"><ele>432.0</ele><time>2026-04-09T13:15:07.285Z</time></trkpt><trkpt lat="44.000798" lon="7.9838194"><ele>432.0</ele><time>2026-04-09T13:15:08.286Z</time></trkpt><trkpt lat="44.0008468" lon="7.9840099"><ele>431.25</ele><time>2026-04-09T13:15:09.286Z</time></trkpt><trkpt lat="44.0008814" lon="7.9842177"><ele>430.5</ele><time>2026-04-09T13:15:10.286Z</time></trkpt><trkpt lat="44.0009106" lon="7.9844256"><ele>429.75</ele><time>2026-04-09T13:15:11.286Z</time></trkpt><trkpt lat="44.0009422" lon="7.9846021"><ele>429.0</ele><time>2026-04-09T13:15:12.285Z</time></trkpt><trkpt lat="44.0009764" lon="7.984751"><ele>429.0</ele><time>2026-04-09T13:15:13.286Z</time></trkpt><trkpt lat="44.0010323" lon="7.984874"><ele>429.0</ele><time>2026-04-09T13:15:14.285Z</time></trkpt><trkpt lat="44.0011234" lon="7.9849496"><ele>429.0</ele><time>2026-04-09T13:15:15.285Z</time></trkpt><trkpt lat="44.0012382" lon="7.984981"><ele>429.0</ele><time>2026-04-09T13:15:16.286Z</time></trkpt><trkpt lat="44.0013459" lon="7.9849564"><ele>429.0</ele><time>2026-04-09T13:15:17.286Z</time></trkpt><trkpt lat="44.0014458" lon="7.9848515"><ele>429.0</ele><time>2026-04-09T13:15:18.285Z</time></trkpt><trkpt lat="44.0015545" lon="7.9846948"><ele>429.0</ele><time>2026-04-09T13:15:19.285Z</time></trkpt><trkpt lat="44.0016761" lon="7.9845205"><ele>429.0</ele><time>2026-04-09T13:15:20.285Z</time></trkpt><trkpt lat="44.0018129" lon="7.9843608"><ele>428.66666666666663</ele><time>2026-04-09T13:15:21.285Z</time></trkpt><trkpt lat="44.0019475" lon="7.9842149"><ele>428.3333333333333</ele><time>2026-04-09T13:15:22.286Z</time></trkpt><trkpt lat="44.0020624" lon="7.9840667"><ele>428.0</ele><time>2026-04-09T13:15:23.285Z</time></trkpt><trkpt lat="44.002146" lon="7.9839208"><ele>424.4</ele><time>2026-04-09T13:15:24.285Z</time></trkpt><trkpt lat="44.0021996" lon="7.9837709"><ele>420.79999999999995</ele><time>2026-04-09T13:15:25.286Z</time></trkpt><trkpt lat="44.0022411" lon="7.9836169"><ele>417.2</ele><time>2026-04-09T13:15:26.286Z</time></trkpt><trkpt lat="44.0023017" lon="7.9835033"><ele>413.6</ele><time>2026-04-09T13:15:27.285Z</time></trkpt><trkpt lat="44.00239" lon="7.983443"><ele>410.0</ele><time>2026-04-09T13:15:28.286Z</time></trkpt><trkpt lat="44.0024839" lon="7.9834397"><ele>415.75</ele><time>2026-04-09T13:15:29.285Z</time></trkpt><trkpt lat="44.0025867" lon="7.9835119"><ele>421.5</ele><time>2026-04-09T13:15:30.285Z</time></trkpt><trkpt lat="44.0026761" lon="7.9836194"><ele>427.25</ele><time>2026-04-09T13:15:31.286Z</time></trkpt><trkpt lat="44.0027811" lon="7.9837482"><ele>433.0</ele><time>2026-04-09T13:15:32.285Z</time></trkpt><trkpt lat="44.0028767" lon="7.983853"><ele>433.0</ele><time>2026-04-09T13:15:33.285Z</time></trkpt><trkpt lat="44.0029723" lon="7.9839032"><ele>433.0</ele><time>2026-04-09T13:15:34.285Z</time></trkpt><trkpt lat="44.0030784" lon="7.9838994"><ele>433.0</ele><time>2026-04-09T13:15:35.286Z</time></trkpt><trkpt lat="44.0031939" lon="7.9838239"><ele>433.0</ele><time>2026-04-09T13:15:36.286Z</time></trkpt><trkpt lat="44.0033172" lon="7.9837067"><ele>435.0</ele><time>2026-04-09T13:15:37.286Z</time></trkpt><trkpt lat="44.0034463" lon="7.9835867"><ele>437.0</ele><time>2026-04-09T13:15:38.285Z</time></trkpt><trkpt lat="44.0035869" lon="7.9834676"><ele>439.0</ele><time>2026-04-09T13:15:39.285Z</time></trkpt><trkpt lat="44.0037116" lon="7.983354"><ele>435.5</ele><time>2026-04-09T13:15:40.285Z</time></trkpt><trkpt lat="44.0038189" lon="7.9832682"><ele>432.0</ele><time>2026-04-09T13:15:41.286Z</time></trkpt><trkpt lat="44.0039238" lon="7.9832099"><ele>428.5</ele><time>2026-04-09T13:15:42.286Z</time></trkpt><trkpt lat="44.0040502" lon="7.9832231"><ele>425.0</ele><time>2026-04-09T13:15:43.285Z</time></trkpt><trkpt lat="44.0041608" lon="7.9832928"><ele>431.25</ele><time>2026-04-09T13:15:44.286Z</time></trkpt><trkpt lat="44.0042597" lon="7.9834078"><ele>437.5</ele><time>2026-04-09T13:15:45.285Z</time></trkpt><trkpt lat="44.0043592" lon="7.9835677"><ele>443.75</ele><time>2026-04-09T13:15:46.286Z</time></trkpt><trkpt lat="44.0044667" lon="7.9837217"><ele>450.0</ele><time>2026-04-09T13:15:47.285Z</time></trkpt><trkpt lat="44.0045986" lon="7.9838635"><ele>450.0</ele><time>2026-04-09T13:15:48.286Z</time></trkpt><trkpt lat="44.0047386" lon="7.9839754"><ele>450.0</ele><time>2026-04-09T13:15:49.285Z</time></trkpt><trkpt lat="44.0048695" lon="7.9840733"><ele>450.0</ele><time>2026-04-09T13:15:50.285Z</time></trkpt><trkpt lat="44.0049911" lon="7.9841696"><ele>455.6</ele><time>2026-04-09T13:15:51.285Z</time></trkpt><trkpt lat="44.0050924" lon="7.9842692"><ele>461.2</ele><time>2026-04-09T13:15:52.285Z</time></trkpt><trkpt lat="44.0051824" lon="7.9843691"><ele>466.79999999999995</ele><time>2026-04-09T13:15:53.286Z</time></trkpt><trkpt lat="44.0052524" lon="7.9844589"><ele>472.4</ele><time>2026-04-09T13:15:54.286Z</time></trkpt><trkpt lat="44.005311" lon="7.9845347"><ele>478.0</ele><time>2026-04-09T13:15:55.285Z</time></trkpt><trkpt lat="44.0053741" lon="7.9845882"><ele>478.0</ele><time>2026-04-09T13:15:56.285Z</time></trkpt><trkpt lat="44.0054448" lon="7.9846115"><ele>477.99999999999994</ele><time>2026-04-09T13:15:57.285Z</time></trkpt><trkpt lat="44.0055367" lon="7.9846026"><ele>477.99999999999994</ele><time>2026-04-09T13:15:58.285Z</time></trkpt><trkpt lat="44.0056301" lon="7.9845538"><ele>478.0</ele><time>2026-04-09T13:15:59.285Z</time></trkpt><trkpt lat="44.0057212" lon="7.9844677"><ele>478.0</ele><time>2026-04-09T13:16:00.285Z</time></trkpt><trkpt lat="44.005814" lon="7.9843643"><ele>477.5</ele><time>2026-04-09T13:16:01.286Z</time></trkpt><trkpt lat="44.0059226" lon="7.9842653"><ele>477.0</ele><time>2026-04-09T13:16:02.285Z</time></trkpt><trkpt lat="44.0060391" lon="7.9841749"><ele>476.5</ele><time>2026-04-09T13:16:03.285Z</time></trkpt><trkpt lat="44.0061442" lon="7.9840622"><ele>476.0</ele><time>2026-04-09T13:16:04.285Z</time></trkpt><trkpt lat="44.0062207" lon="7.9839179"><ele>468.0</ele><time>2026-04-09T13:16:05.285Z</time></trkpt><trkpt lat="44.0062637" lon="7.9837363"><ele>460.0</ele><time>2026-04-09T13:16:06.286Z</time></trkpt><trkpt lat="44.0062783" lon="7.9835105"><ele>452.0</ele><time>2026-04-09T13:16:07.285Z</time></trkpt><trkpt lat="44.0062758" lon="7.9832562"><ele>448.3333333333333</ele><time>2026-04-09T13:16:08.285Z</time></trkpt><trkpt lat="44.0062803" lon="7.9829878"><ele>444.66666666666663</ele><time>2026-04-09T13:16:09.286Z</time></trkpt><trkpt lat="44.0062902" lon="7.9827053"><ele>441.0</ele><time>2026-04-09T13:16:10.285Z</time></trkpt><trkpt lat="44.0063021" lon="7.9824334"><ele>441.0</ele><time>2026-04-09T13:16:11.286Z</time></trkpt><trkpt lat="44.0063124" lon="7.98217"><ele>441.0</ele><time>2026-04-09T13:16:12.285Z</time></trkpt><trkpt lat="44.0063163" lon="7.9819347"><ele>441.0</ele><time>2026-04-09T13:16:13.286Z</time></trkpt><trkpt lat="44.0063116" lon="7.9817152"><ele>443.25</ele><time>2026-04-09T13:16:14.286Z</time></trkpt><trkpt lat="44.0062631" lon="7.9815176"><ele>445.5</ele><time>2026-04-09T13:16:15.285Z</time></trkpt><trkpt lat="44.0061716" lon="7.9813514"><ele>447.75</ele><time>2026-04-09T13:16:16.286Z</time></trkpt><trkpt lat="44.0060841" lon="7.9811951"><ele>450.0</ele><time>2026-04-09T13:16:17.285Z</time></trkpt><trkpt lat="44.0060256" lon="7.9810502"><ele>450.0</ele><time>2026-04-09T13:16:18.285Z</time></trkpt><trkpt lat="44.0060051" lon="7.9808921"><ele>450.0</ele><time>2026-04-09T13:16:19.285Z</time></trkpt><trkpt lat="44.0060314" lon="7.9807202"><ele>450.0</ele><time>2026-04-09T13:16:20.286Z</time></trkpt><trkpt lat="44.0061091" lon="7.9805842"><ele>450.0</ele><time>2026-04-09T13:16:21.286Z</time></trkpt><trkpt lat="44.0062318" lon="7.9804642"><ele>452.66666666666663</ele><time>2026-04-09T13:16:22.286Z</time></trkpt><trkpt lat="44.006361" lon="7.9803403"><ele>455.3333333333333</ele><time>2026-04-09T13:16:23.286Z</time></trkpt><trkpt lat="44.006499" lon="7.9802067"><ele>458.0</ele><time>2026-04-09T13:16:24.285Z</time></trkpt><trkpt lat="44.0066288" lon="7.980066"><ele>466.0</ele><time>2026-04-09T13:16:25.285Z</time></trkpt><trkpt lat="44.0067549" lon="7.9798931"><ele>474.0</ele><time>2026-04-09T13:16:26.286Z</time></trkpt><trkpt lat="44.0068627" lon="7.9796969"><ele>482.0</ele><time>2026-04-09T13:16:27.285Z</time></trkpt><trkpt lat="44.0069588" lon="7.9794948"><ele>482.0</ele><time>2026-04-09T13:16:28.286Z</time></trkpt><trkpt lat="44.007032" lon="7.9792834"><ele>482.0</ele><time>2026-04-09T13:16:29.285Z</time></trkpt><trkpt lat="44.0070722" lon="7.9790593"><ele>482.0</ele><time>2026-04-09T13:16:30.286Z</time></trkpt><trkpt lat="44.0070994" lon="7.9788539"><ele>477.25</ele><time>2026-04-09T13:16:31.286Z</time></trkpt><trkpt lat="44.0071542" lon="7.9786559"><ele>472.5</ele><time>2026-04-09T13:16:32.286Z</time></trkpt><trkpt lat="44.007236" lon="7.9784761"><ele>467.75</ele><time>2026-04-09T13:16:33.285Z</time></trkpt><trkpt lat="44.0073342" lon="7.9783619"><ele>463.0</ele><time>2026-04-09T13:16:34.286Z</time></trkpt><trkpt lat="44.0074404" lon="7.9783243"><ele>468.5</ele><time>2026-04-09T13:16:35.285Z</time></trkpt><trkpt lat="44.0075633" lon="7.9783166"><ele>474.0</ele><time>2026-04-09T13:16:36.285Z</time></trkpt><trkpt lat="44.0076938" lon="7.9783204"><ele>479.5</ele><time>2026-04-09T13:16:37.286Z</time></trkpt><trkpt lat="44.0078091" lon="7.9782944"><ele>485.0</ele><time>2026-04-09T13:16:38.285Z</time></trkpt><trkpt lat="44.0079282" lon="7.9782077"><ele>485.0</ele><time>2026-04-09T13:16:39.285Z</time></trkpt><trkpt lat="44.0080169" lon="7.9780519"><ele>485.0</ele><time>2026-04-09T13:16:40.285Z</time></trkpt><trkpt lat="44.0080887" lon="7.9778717"><ele>485.0</ele><time>2026-04-09T13:16:41.286Z</time></trkpt><trkpt lat="44.0081779" lon="7.9777197"><ele>485.0</ele><time>2026-04-09T13:16:42.286Z</time></trkpt><trkpt lat="44.0082797" lon="7.9776194"><ele>487.75</ele><time>2026-04-09T13:16:43.286Z</time></trkpt><trkpt lat="44.008386" lon="7.9775388"><ele>490.5</ele><time>2026-04-09T13:16:44.286Z</time></trkpt><trkpt lat="44.008468" lon="7.9774397"><ele>493.25</ele><time>2026-04-09T13:16:45.286Z</time></trkpt><trkpt lat="44.0084778" lon="7.9772769"><ele>496.0</ele><time>2026-04-09T13:16:46.286Z</time></trkpt><trkpt lat="44.0084553" lon="7.9771141"><ele>496.0</ele><time>2026-04-09T13:16:47.286Z</time></trkpt><trkpt lat="44.0083614" lon="7.976955"><ele>496.0</ele><time>2026-04-09T13:16:48.286Z</time></trkpt><trkpt lat="44.0082526" lon="7.9768048"><ele>496.0</ele><time>2026-04-09T13:16:49.286Z</time></trkpt><trkpt lat="44.0081316" lon="7.9766872"><ele>496.0</ele><time>2026-04-09T13:16:50.286Z</time></trkpt><trkpt lat="44.0080384" lon="7.9765719"><ele>490.25</ele><time>2026-04-09T13:16:51.285Z</time></trkpt><trkpt lat="44.0079767" lon="7.9764344"><ele>484.5</ele><time>2026-04-09T13:16:52.285Z</time></trkpt><trkpt lat="44.0079638" lon="7.9762832"><ele>478.75</ele><time>2026-04-09T13:16:53.286Z</time></trkpt><trkpt lat="44.0079908" lon="7.9761202"><ele>473.0</ele><time>2026-04-09T13:16:54.285Z</time></trkpt><trkpt lat="44.0080381" lon="7.9759466"><ele>475.0</ele><time>2026-04-09T13:16:55.285Z</time></trkpt><trkpt lat="44.0080895" lon="7.9757656"><ele>477.0</ele><time>2026-04-09T13:16:56.286Z</time></trkpt><trkpt lat="44.0081252" lon="7.9756011"><ele>479.0</ele><time>2026-04-09T13:16:57.285Z</time></trkpt><trkpt lat="44.0081487" lon="7.9754518"><ele>481.0</ele><time>2026-04-09T13:16:58.286Z</time></trkpt><trkpt lat="44.0081457" lon="7.9752915"><ele>481.0</ele><time>2026-04-09T13:16:59.285Z</time></trkpt><trkpt lat="44.0081148" lon="7.9751229"><ele>481.0</ele><time>2026-04-09T13:17:00.285Z</time></trkpt><trkpt lat="44.0080607" lon="7.97496"><ele>481.0</ele><time>2026-04-09T13:17:01.285Z</time></trkpt><trkpt lat="44.0079777" lon="7.9748155"><ele>481.0</ele><time>2026-04-09T13:17:02.286Z</time></trkpt><trkpt lat="44.0078987" lon="7.974673"><ele>484.0</ele><time>2026-04-09T13:17:03.286Z</time></trkpt><trkpt lat="44.0078392" lon="7.9745013"><ele>487.0</ele><time>2026-04-09T13:17:04.286Z</time></trkpt><trkpt lat="44.0077994" lon="7.9742975"><ele>490.0</ele><time>2026-04-09T13:17:05.285Z</time></trkpt><trkpt lat="44.0077761" lon="7.9741031"><ele>493.0</ele><time>2026-04-09T13:17:06.285Z</time></trkpt><trkpt lat="44.0077553" lon="7.9739448"><ele>495.79999999999995</ele><time>2026-04-09T13:17:07.285Z</time></trkpt><trkpt lat="44.0077667" lon="7.9738186"><ele>498.59999999999997</ele><time>2026-04-09T13:17:08.285Z</time></trkpt><trkpt lat="44.0078137" lon="7.9737405"><ele>501.40000000000003</ele><time>2026-04-09T13:17:09.286Z</time></trkpt><trkpt lat="44.0078919" lon="7.9736885"><ele>504.20000000000005</ele><time>2026-04-09T13:17:10.285Z</time></trkpt><trkpt lat="44.0079973" lon="7.9736527"><ele>507.0</ele><time>2026-04-09T13:17:11.286Z</time></trkpt><trkpt lat="44.0081193" lon="7.9736307"><ele>507.0</ele><time>2026-04-09T13:17:12.286Z</time></trkpt><trkpt lat="44.0082487" lon="7.9736363"><ele>507.0</ele><time>2026-04-09T13:17:13.286Z</time></trkpt><trkpt lat="44.0083874" lon="7.9736722"><ele>507.0</ele><time>2026-04-09T13:17:14.285Z</time></trkpt><trkpt lat="44.0085412" lon="7.9737061"><ele>507.0</ele><time>2026-04-09T13:17:15.285Z</time></trkpt><trkpt lat="44.008696" lon="7.9736854"><ele>513.0</ele><time>2026-04-09T13:17:16.285Z</time></trkpt><trkpt lat="44.0088394" lon="7.9736215"><ele>519.0</ele><time>2026-04-09T13:17:17.285Z</time></trkpt><trkpt lat="44.0089646" lon="7.9735534"><ele>525.0</ele><time>2026-04-09T13:17:18.286Z</time></trkpt><trkpt lat="44.0090958" lon="7.9735146"><ele>531.0</ele><time>2026-04-09T13:17:19.285Z</time></trkpt><trkpt lat="44.0092174" lon="7.9735307"><ele>535.6666666666666</ele><time>2026-04-09T13:17:20.286Z</time></trkpt><trkpt lat="44.0093441" lon="7.9736206"><ele>540.3333333333333</ele><time>2026-04-09T13:17:21.285Z</time></trkpt><trkpt lat="44.0094792" lon="7.9737347"><ele>545.0</ele><time>2026-04-09T13:17:22.286Z</time></trkpt><trkpt lat="44.009632" lon="7.973859"><ele>545.0</ele><time>2026-04-09T13:17:23.286Z</time></trkpt><trkpt lat="44.0097835" lon="7.9739906"><ele>545.0</ele><time>2026-04-09T13:17:24.285Z</time></trkpt><trkpt lat="44.00992" lon="7.9741291"><ele>545.0</ele><time>2026-04-09T13:17:25.286Z</time></trkpt><trkpt lat="44.0100342" lon="7.9742904"><ele>549.5</ele><time>2026-04-09T13:17:26.285Z</time></trkpt><trkpt lat="44.0101299" lon="7.9744366"><ele>554.0</ele><time>2026-04-09T13:17:27.285Z</time></trkpt><trkpt lat="44.0102095" lon="7.9745599"><ele>558.5</ele><time>2026-04-09T13:17:28.286Z</time></trkpt><trkpt lat="44.0102885" lon="7.9746357"><ele>563.0</ele><time>2026-04-09T13:17:29.286Z</time></trkpt><trkpt lat="44.0103797" lon="7.9746714"><ele>563.0</ele><time>2026-04-09T13:17:30.285Z</time></trkpt><trkpt lat="44.0104941" lon="7.9746438"><ele>563.0</ele><time>2026-04-09T13:17:31.286Z</time></trkpt><trkpt lat="44.0106127" lon="7.9745485"><ele>563.0</ele><time>2026-04-09T13:17:32.285Z</time></trkpt><trkpt lat="44.0107355" lon="7.9744429"><ele>563.0</ele><time>2026-04-09T13:17:33.285Z</time></trkpt><trkpt lat="44.0108643" lon="7.9743585"><ele>562.6666666666666</ele><time>2026-04-09T13:17:34.285Z</time></trkpt><trkpt lat="44.0110211" lon="7.9743077"><ele>562.3333333333334</ele><time>2026-04-09T13:17:35.286Z</time></trkpt><trkpt lat="44.011195" lon="7.9742948"><ele>562.0</ele><time>2026-04-09T13:17:36.285Z</time></trkpt><trkpt lat="44.0113429" lon="7.9742579"><ele>562.0</ele><time>2026-04-09T13:17:37.285Z</time></trkpt><trkpt lat="44.0114765" lon="7.9743055"><ele>562.0</ele><time>2026-04-09T13:17:38.285Z</time></trkpt><trkpt lat="44.0116134" lon="7.9744081"><ele>562.0</ele><time>2026-04-09T13:17:39.286Z</time></trkpt><trkpt lat="44.0117524" lon="7.9744536"><ele>562.0</ele><time>2026-04-09T13:17:40.285Z</time></trkpt><trkpt lat="44.0118987" lon="7.9744096"><ele>565.3333333333334</ele><time>2026-04-09T13:17:41.285Z</time></trkpt><trkpt lat="44.0120336" lon="7.9743021"><ele>568.6666666666666</ele><time>2026-04-09T13:17:42.285Z</time></trkpt><trkpt lat="44.0121706" lon="7.9741652"><ele>572.0</ele><time>2026-04-09T13:17:43.286Z</time></trkpt><trkpt lat="44.0123205" lon="7.9740268"><ele>564.0</ele><time>2026-04-09T13:17:44.285Z</time></trkpt><trkpt lat="44.0124702" lon="7.9738937"><ele>556.0</ele><time>2026-04-09T13:17:45.285Z</time></trkpt><trkpt lat="44.0126024" lon="7.9737778"><ele>548.0</ele><time>2026-04-09T13:17:46.285Z</time></trkpt><trkpt lat="44.0127044" lon="7.9736788"><ele>548.0</ele><time>2026-04-09T13:17:47.285Z</time></trkpt><trkpt lat="44.0127962" lon="7.9736249"><ele>548.0</ele><time>2026-04-09T13:17:48.285Z</time></trkpt><trkpt lat="44.0128885" lon="7.9736249"><ele>548.0</ele><time>2026-04-09T13:17:49.285Z</time></trkpt><trkpt lat="44.0129667" lon="7.9737187"><ele>548.0</ele><time>2026-04-09T13:17:50.285Z</time></trkpt><trkpt lat="44.0130397" lon="7.9738494"><ele>548.0</ele><time>2026-04-09T13:17:51.285Z</time></trkpt><trkpt lat="44.0131089" lon="7.9740214"><ele>559.6666666666666</ele><time>2026-04-09T13:17:52.285Z</time></trkpt><trkpt lat="44.0131729" lon="7.9742239"><ele>571.3333333333334</ele><time>2026-04-09T13:17:53.286Z</time></trkpt><trkpt lat="44.0132257" lon="7.9744264"><ele>583.0</ele><time>2026-04-09T13:17:54.286Z</time></trkpt><trkpt lat="44.0132886" lon="7.9745947"><ele>579.0</ele><time>2026-04-09T13:17:55.286Z</time></trkpt><trkpt lat="44.0133685" lon="7.9747096"><ele>575.0</ele><time>2026-04-09T13:17:56.286Z</time></trkpt><trkpt lat="44.0134811" lon="7.9747884"><ele>571.0</ele><time>2026-04-09T13:17:57.285Z</time></trkpt><trkpt lat="44.0136195" lon="7.9748783"><ele>567.0</ele><time>2026-04-09T13:17:58.286Z</time></trkpt><trkpt lat="44.0137701" lon="7.9750351"><ele>579.3333333333334</ele><time>2026-04-09T13:17:59.285Z</time></trkpt><trkpt lat="44.0139065" lon="7.9751984"><ele>591.6666666666667</ele><time>2026-04-09T13:18:00.285Z</time></trkpt><trkpt lat="44.0140191" lon="7.9753362"><ele>604.0</ele><time>2026-04-09T13:18:01.285Z</time></trkpt><trkpt lat="44.0141296" lon="7.9754298"><ele>600.0</ele><time>2026-04-09T13:18:02.285Z</time></trkpt><trkpt lat="44.0142348" lon="7.9754686"><ele>596.0</ele><time>2026-04-09T13:18:03.285Z</time></trkpt><trkpt lat="44.0143406" lon="7.9754319"><ele>592.0</ele><time>2026-04-09T13:18:04.286Z</time></trkpt><trkpt lat="44.014416" lon="7.9753115"><ele>588.0</ele><time>2026-04-09T13:18:05.286Z</time></trkpt><trkpt lat="44.0144755" lon="7.9751541"><ele>575.6666666666666</ele><time>2026-04-09T13:18:06.286Z</time></trkpt><trkpt lat="44.0145461" lon="7.9749642"><ele>563.3333333333333</ele><time>2026-04-09T13:18:07.285Z</time></trkpt><trkpt lat="44.0146324" lon="7.974764"><ele>551.0</ele><time>2026-04-09T13:18:08.286Z</time></trkpt><trkpt lat="44.0147147" lon="7.9745525"><ele>551.0</ele><time>2026-04-09T13:18:09.286Z</time></trkpt><trkpt lat="44.0147915" lon="7.9743454"><ele>551.0</ele><time>2026-04-09T13:18:10.285Z</time></trkpt><trkpt lat="44.0148681" lon="7.9741669"><ele>551.0</ele><time>2026-04-09T13:18:11.286Z</time></trkpt><trkpt lat="44.0149475" lon="7.9740315"><ele>551.0</ele><time>2026-04-09T13:18:12.286Z</time></trkpt><trkpt lat="44.0150504" lon="7.9739751"><ele>550.0</ele><time>2026-04-09T13:18:13.286Z</time></trkpt><trkpt lat="44.015181" lon="7.9739587"><ele>549.0</ele><time>2026-04-09T13:18:14.285Z</time></trkpt><trkpt lat="44.0153391" lon="7.9739696"><ele>548.0</ele><time>2026-04-09T13:18:15.285Z</time></trkpt><trkpt lat="44.0155165" lon="7.9739766"><ele>548.0</ele><time>2026-04-09T13:18:16.285Z</time></trkpt><trkpt lat="44.0156981" lon="7.9739591"><ele>548.0</ele><time>2026-04-09T13:18:17.285Z</time></trkpt><trkpt lat="44.0158901" lon="7.9739475"><ele>548.0</ele><time>2026-04-09T13:18:18.285Z</time></trkpt><trkpt lat="44.0160818" lon="7.9739527"><ele>554.0</ele><time>2026-04-09T13:18:19.285Z</time></trkpt><trkpt lat="44.0162643" lon="7.9739799"><ele>560.0</ele><time>2026-04-09T13:18:20.285Z</time></trkpt><trkpt lat="44.0164326" lon="7.9739983"><ele>566.0</ele><time>2026-04-09T13:18:21.286Z</time></trkpt><trkpt lat="44.0165711" lon="7.9740155"><ele>565.4</ele><time>2026-04-09T13:18:22.285Z</time></trkpt><trkpt lat="44.0166792" lon="7.9740651"><ele>564.8</ele><time>2026-04-09T13:18:23.285Z</time></trkpt><trkpt lat="44.0167699" lon="7.9741547"><ele>564.1999999999999</ele><time>2026-04-09T13:18:24.285Z</time></trkpt><trkpt lat="44.0168456" lon="7.9742615"><ele>563.6</ele><time>2026-04-09T13:18:25.285Z</time></trkpt><trkpt lat="44.016929" lon="7.9743128"><ele>563.0</ele><time>2026-04-09T13:18:26.285Z</time></trkpt><trkpt lat="44.0170109" lon="7.974286"><ele>563.0</ele><time>2026-04-09T13:18:27.286Z</time></trkpt><trkpt lat="44.0170934" lon="7.9741869"><ele>563.0</ele><time>2026-04-09T13:18:28.286Z</time></trkpt><trkpt lat="44.0171516" lon="7.9740572"><ele>563.0</ele><time>2026-04-09T13:18:29.285Z</time></trkpt><trkpt lat="44.0172135" lon="7.9739251"><ele>563.0</ele><time>2026-04-09T13:18:30.286Z</time></trkpt><trkpt lat="44.0172847" lon="7.9738129"><ele>563.0</ele><time>2026-04-09T13:18:31.286Z</time></trkpt><trkpt lat="44.0173517" lon="7.9737057"><ele>563.0</ele><time>2026-04-09T13:18:32.285Z</time></trkpt><trkpt lat="44.017399" lon="7.9735931"><ele>563.0</ele><time>2026-04-09T13:18:33.285Z</time></trkpt><trkpt lat="44.0173847" lon="7.973468"><ele>563.0</ele><time>2026-04-09T13:18:34.286Z</time></trkpt><trkpt lat="44.0173169" lon="7.9733397"><ele>563.0</ele><time>2026-04-09T13:18:35.286Z</time></trkpt><trkpt lat="44.0172335" lon="7.9732157"><ele>563.0</ele><time>2026-04-09T13:18:36.285Z</time></trkpt><trkpt lat="44.0171417" lon="7.9730685"><ele>559.0</ele><time>2026-04-09T13:18:37.285Z</time></trkpt><trkpt lat="44.017053" lon="7.9728815"><ele>555.0</ele><time>2026-04-09T13:18:38.285Z</time></trkpt><trkpt lat="44.0169788" lon="7.9726563"><ele>551.0</ele><time>2026-04-09T13:18:39.285Z</time></trkpt><trkpt lat="44.0169136" lon="7.9724253"><ele>551.0</ele><time>2026-04-09T13:18:40.286Z</time></trkpt><trkpt lat="44.0168433" lon="7.97219"><ele>551.0</ele><time>2026-04-09T13:18:41.285Z</time></trkpt><trkpt lat="44.0167523" lon="7.9719745"><ele>551.0</ele><time>2026-04-09T13:18:42.286Z</time></trkpt><trkpt lat="44.0166341" lon="7.9717879"><ele>545.3333333333333</ele><time>2026-04-09T13:18:43.285Z</time></trkpt><trkpt lat="44.0165055" lon="7.9716343"><ele>539.6666666666666</ele><time>2026-04-09T13:18:44.285Z</time></trkpt><trkpt lat="44.0163912" lon="7.9714788"><ele>534.0</ele><time>2026-04-09T13:18:45.286Z</time></trkpt><trkpt lat="44.0163046" lon="7.9712833"><ele>534.0</ele><time>2026-04-09T13:18:46.285Z</time></trkpt><trkpt lat="44.016238" lon="7.971066"><ele>534.0</ele><time>2026-04-09T13:18:47.286Z</time></trkpt><trkpt lat="44.0161662" lon="7.9708599"><ele>534.0</ele><time>2026-04-09T13:18:48.285Z</time></trkpt><trkpt lat="44.0161004" lon="7.9706862"><ele>537.8</ele><time>2026-04-09T13:18:49.285Z</time></trkpt><trkpt lat="44.0160696" lon="7.9705404"><ele>541.5999999999999</ele><time>2026-04-09T13:18:50.286Z</time></trkpt><trkpt lat="44.0160901" lon="7.97042"><ele>545.4</ele><time>2026-04-09T13:18:51.286Z</time></trkpt><trkpt lat="44.0161602" lon="7.9703312"><ele>549.1999999999999</ele><time>2026-04-09T13:18:52.286Z</time></trkpt><trkpt lat="44.0162561" lon="7.9702744"><ele>553.0</ele><time>2026-04-09T13:18:53.285Z</time></trkpt><trkpt lat="44.0163662" lon="7.9702393"><ele>553.0</ele><time>2026-04-09T13:18:54.285Z</time></trkpt><trkpt lat="44.016482" lon="7.9702128"><ele>553.0</ele><time>2026-04-09T13:18:55.286Z</time></trkpt><trkpt lat="44.0165886" lon="7.9701618"><ele>553.0</ele><time>2026-04-09T13:18:56.285Z</time></trkpt><trkpt lat="44.0166726" lon="7.9700472"><ele>553.0</ele><time>2026-04-09T13:18:57.286Z</time></trkpt><trkpt lat="44.0167437" lon="7.9699082"><ele>557.0</ele><time>2026-04-09T13:18:58.285Z</time></trkpt><trkpt lat="44.0168239" lon="7.9697712"><ele>561.0</ele><time>2026-04-09T13:18:59.285Z</time></trkpt><trkpt lat="44.0169309" lon="7.9696638"><ele>565.0</ele><time>2026-04-09T13:19:00.285Z</time></trkpt><trkpt lat="44.0170319" lon="7.969551"><ele>569.0</ele><time>2026-04-09T13:19:01.285Z</time></trkpt><trkpt lat="44.0171064" lon="7.9694182"><ele>569.0</ele><time>2026-04-09T13:19:02.285Z</time></trkpt><trkpt lat="44.0171454" lon="7.9692468"><ele>569.0</ele><time>2026-04-09T13:19:03.286Z</time></trkpt><trkpt lat="44.0171622" lon="7.9690818"><ele>569.0</ele><time>2026-04-09T13:19:04.286Z</time></trkpt><trkpt lat="44.0171451" lon="7.9689307"><ele>569.0</ele><time>2026-04-09T13:19:05.286Z</time></trkpt><trkpt lat="44.0170813" lon="7.9688075"><ele>566.0</ele><time>2026-04-09T13:19:06.285Z</time></trkpt><trkpt lat="44.0169749" lon="7.9687288"><ele>563.0</ele><time>2026-04-09T13:19:07.285Z</time></trkpt><trkpt lat="44.0168486" lon="7.9686692"><ele>560.0</ele><time>2026-04-09T13:19:08.285Z</time></trkpt><trkpt lat="44.0167228" lon="7.9685606"><ele>557.0</ele><time>2026-04-09T13:19:09.286Z</time></trkpt><trkpt lat="44.0166109" lon="7.9684417"><ele>552.75</ele><time>2026-04-09T13:19:10.286Z</time></trkpt><trkpt lat="44.0165268" lon="7.9683015"><ele>548.5</ele><time>2026-04-09T13:19:11.286Z</time></trkpt><trkpt lat="44.0164578" lon="7.9681447"><ele>544.25</ele><time>2026-04-09T13:19:12.286Z</time></trkpt><trkpt lat="44.0164282" lon="7.9679564"><ele>540.0</ele><time>2026-04-09T13:19:13.286Z</time></trkpt><trkpt lat="44.0164446" lon="7.967776"><ele>540.0</ele><time>2026-04-09T13:19:14.285Z</time></trkpt><trkpt lat="44.0164903" lon="7.9676206"><ele>540.0</ele><time>2026-04-09T13:19:15.286Z</time></trkpt><trkpt lat="44.0165757" lon="7.9674696"><ele>540.0</ele><time>2026-04-09T13:19:16.285Z</time></trkpt><trkpt lat="44.0166634" lon="7.9672933"><ele>540.0</ele><time>2026-04-09T13:19:17.285Z</time></trkpt><trkpt lat="44.0167127" lon="7.9671151"><ele>545.2</ele><time>2026-04-09T13:19:18.286Z</time></trkpt><trkpt lat="44.0167419" lon="7.9669483"><ele>550.4</ele><time>2026-04-09T13:19:19.285Z</time></trkpt><trkpt lat="44.016736" lon="7.9668067"><ele>555.6</ele><time>2026-04-09T13:19:20.285Z</time></trkpt><trkpt lat="44.016686" lon="7.9666821"><ele>560.8</ele><time>2026-04-09T13:19:21.286Z</time></trkpt><trkpt lat="44.0165926" lon="7.9666016"><ele>566.0</ele><time>2026-04-09T13:19:22.285Z</time></trkpt><trkpt lat="44.0164664" lon="7.9665867"><ele>566.0</ele><time>2026-04-09T13:19:23.285Z</time></trkpt><trkpt lat="44.0163237" lon="7.9665665"><ele>566.0</ele><time>2026-04-09T13:19:24.285Z</time></trkpt><trkpt lat="44.0161807" lon="7.9665152"><ele>566.0</ele><time>2026-04-09T13:19:25.285Z</time></trkpt><trkpt lat="44.0160547" lon="7.9664184"><ele>566.0</ele><time>2026-04-09T13:19:26.286Z</time></trkpt><trkpt lat="44.0159432" lon="7.9662972"><ele>566.0</ele><time>2026-04-09T13:19:27.286Z</time></trkpt><trkpt lat="44.015851" lon="7.9661588"><ele>566.0</ele><time>2026-04-09T13:19:28.286Z</time></trkpt><trkpt lat="44.0157783" lon="7.9660077"><ele>566.0</ele><time>2026-04-09T13:19:29.285Z</time></trkpt><trkpt lat="44.015706" lon="7.965875"><ele>566.0</ele><time>2026-04-09T13:19:30.285Z</time></trkpt><trkpt lat="44.0156215" lon="7.9657653"><ele>574.25</ele><time>2026-04-09T13:19:31.285Z</time></trkpt><trkpt lat="44.0155257" lon="7.9656895"><ele>582.5</ele><time>2026-04-09T13:19:32.285Z</time></trkpt><trkpt lat="44.0154172" lon="7.9656616"><ele>590.75</ele><time>2026-04-09T13:19:33.286Z</time></trkpt><trkpt lat="44.0152946" lon="7.965697"><ele>599.0</ele><time>2026-04-09T13:19:34.285Z</time></trkpt><trkpt lat="44.0151801" lon="7.9657982"><ele>591.25</ele><time>2026-04-09T13:19:35.285Z</time></trkpt><trkpt lat="44.0150583" lon="7.9659227"><ele>583.5</ele><time>2026-04-09T13:19:36.285Z</time></trkpt><trkpt lat="44.0149411" lon="7.9660543"><ele>575.75</ele><time>2026-04-09T13:19:37.285Z</time></trkpt><trkpt lat="44.0148323" lon="7.9661919"><ele>568.0</ele><time>2026-04-09T13:19:38.285Z</time></trkpt><trkpt lat="44.0147296" lon="7.9662916"><ele>567.25</ele><time>2026-04-09T13:19:39.285Z</time></trkpt><trkpt lat="44.0146236" lon="7.9663231"><ele>566.5</ele><time>2026-04-09T13:19:40.286Z</time></trkpt><trkpt lat="44.0145029" lon="7.9663142"><ele>565.75</ele><time>2026-04-09T13:19:41.285Z</time></trkpt><trkpt lat="44.0143808" lon="7.9662578"><ele>565.0</ele><time>2026-04-09T13:19:42.285Z</time></trkpt><trkpt lat="44.014266" lon="7.9661712"><ele>565.0</ele><time>2026-04-09T13:19:43.285Z</time></trkpt><trkpt lat="44.0141661" lon="7.9660498"><ele>565.0</ele><time>2026-04-09T13:19:44.286Z</time></trkpt><trkpt lat="44.0141023" lon="7.9658929"><ele>565.0</ele><time>2026-04-09T13:19:45.285Z</time></trkpt><trkpt lat="44.014065" lon="7.9656921"><ele>565.0</ele><time>2026-04-09T13:19:46.286Z</time></trkpt><trkpt lat="44.0140466" lon="7.9654566"><ele>562.6666666666667</ele><time>2026-04-09T13:19:47.285Z</time></trkpt><trkpt lat="44.0140098" lon="7.9652231"><ele>560.3333333333334</ele><time>2026-04-09T13:19:48.285Z</time></trkpt><trkpt lat="44.0139631" lon="7.9650223"><ele>558.0</ele><time>2026-04-09T13:19:49.285Z</time></trkpt><trkpt lat="44.0139372" lon="7.9648144"><ele>558.0</ele><time>2026-04-09T13:19:50.285Z</time></trkpt><trkpt lat="44.0139373" lon="7.9645875"><ele>558.0</ele><time>2026-04-09T13:19:51.285Z</time></trkpt><trkpt lat="44.0139603" lon="7.9643499"><ele>558.0</ele><time>2026-04-09T13:19:52.285Z</time></trkpt><trkpt lat="44.0139649" lon="7.9641074"><ele>559.6666666666666</ele><time>2026-04-09T13:19:53.285Z</time></trkpt><trkpt lat="44.0139462" lon="7.9638561"><ele>561.3333333333333</ele><time>2026-04-09T13:19:54.285Z</time></trkpt><trkpt lat="44.0139181" lon="7.9636007"><ele>563.0</ele><time>2026-04-09T13:19:55.286Z</time></trkpt><trkpt lat="44.0138768" lon="7.9633508"><ele>567.3333333333333</ele><time>2026-04-09T13:19:56.286Z</time></trkpt><trkpt lat="44.0138178" lon="7.9631259"><ele>571.6666666666666</ele><time>2026-04-09T13:19:57.286Z</time></trkpt><trkpt lat="44.0137112" lon="7.9629099"><ele>576.0</ele><time>2026-04-09T13:19:58.286Z</time></trkpt><trkpt lat="44.0135818" lon="7.962691"><ele>572.3333333333334</ele><time>2026-04-09T13:19:59.285Z</time></trkpt><trkpt lat="44.0134505" lon="7.9624998"><ele>568.6666666666667</ele><time>2026-04-09T13:20:00.285Z</time></trkpt><trkpt lat="44.0133276" lon="7.9623504"><ele>565.0</ele><time>2026-04-09T13:20:01.287Z</time></trkpt><trkpt lat="44.0132309" lon="7.9622293"><ele>565.0</ele><time>2026-04-09T13:20:02.288Z</time></trkpt><trkpt lat="44.013172" lon="7.9620916"><ele>565.0</ele><time>2026-04-09T13:20:03.288Z</time></trkpt><trkpt lat="44.0131445" lon="7.961922"><ele>565.0</ele><time>2026-04-09T13:20:04.288Z</time></trkpt><trkpt lat="44.013141" lon="7.9617233"><ele>565.0</ele><time>2026-04-09T13:20:05.288Z</time></trkpt><trkpt lat="44.013138" lon="7.961504"><ele>567.3333333333334</ele><time>2026-04-09T13:20:06.287Z</time></trkpt><trkpt lat="44.0131256" lon="7.961271"><ele>569.6666666666666</ele><time>2026-04-09T13:20:07.287Z</time></trkpt><trkpt lat="44.0131124" lon="7.9610273"><ele>572.0</ele><time>2026-04-09T13:20:08.287Z</time></trkpt><trkpt lat="44.0130986" lon="7.9607865"><ele>575.3333333333333</ele><time>2026-04-09T13:20:09.288Z</time></trkpt><trkpt lat="44.0130597" lon="7.9605657"><ele>578.6666666666666</ele><time>2026-04-09T13:20:10.288Z</time></trkpt><trkpt lat="44.0129774" lon="7.9603558"><ele>582.0</ele><time>2026-04-09T13:20:11.288Z</time></trkpt><trkpt lat="44.0128473" lon="7.9601572"><ele>582.3333333333334</ele><time>2026-04-09T13:20:12.287Z</time></trkpt><trkpt lat="44.012694" lon="7.9599811"><ele>582.6666666666667</ele><time>2026-04-09T13:20:13.288Z</time></trkpt><trkpt lat="44.0125434" lon="7.9597993"><ele>583.0</ele><time>2026-04-09T13:20:14.288Z</time></trkpt><trkpt lat="44.0124191" lon="7.9596179"><ele>583.0</ele><time>2026-04-09T13:20:15.288Z</time></trkpt><trkpt lat="44.012308" lon="7.9594549"><ele>583.0</ele><time>2026-04-09T13:20:16.287Z</time></trkpt><trkpt lat="44.0121845" lon="7.9593458"><ele>583.0</ele><time>2026-04-09T13:20:17.288Z</time></trkpt><trkpt lat="44.0120401" lon="7.9592781"><ele>583.0</ele><time>2026-04-09T13:20:18.287Z</time></trkpt><trkpt lat="44.0118789" lon="7.9592539"><ele>583.0</ele><time>2026-04-09T13:20:19.287Z</time></trkpt><trkpt lat="44.0117099" lon="7.9592377"><ele>583.0</ele><time>2026-04-09T13:20:20.287Z</time></trkpt><trkpt lat="44.0115416" lon="7.9592204"><ele>593.3333333333334</ele><time>2026-04-09T13:20:21.288Z</time></trkpt><trkpt lat="44.0113759" lon="7.9591904"><ele>603.6666666666666</ele><time>2026-04-09T13:20:22.288Z</time></trkpt><trkpt lat="44.0112168" lon="7.9591593"><ele>614.0</ele><time>2026-04-09T13:20:23.287Z</time></trkpt><trkpt lat="44.0110666" lon="7.9591328"><ele>614.0</ele><time>2026-04-09T13:20:24.288Z</time></trkpt><trkpt lat="44.0109189" lon="7.9591368"><ele>614.0</ele><time>2026-04-09T13:20:25.288Z</time></trkpt><trkpt lat="44.0107809" lon="7.9591957"><ele>614.0</ele><time>2026-04-09T13:20:26.287Z</time></trkpt><trkpt lat="44.0106586" lon="7.9592448"><ele>614.0</ele><time>2026-04-09T13:20:27.287Z</time></trkpt><trkpt lat="44.0105466" lon="7.9592635"><ele>608.4</ele><time>2026-04-09T13:20:28.288Z</time></trkpt><trkpt lat="44.0104524" lon="7.9592361"><ele>602.8</ele><time>2026-04-09T13:20:29.288Z</time></trkpt><trkpt lat="44.0103844" lon="7.9591407"><ele>597.2</ele><time>2026-04-09T13:20:30.288Z</time></trkpt><trkpt lat="44.0103342" lon="7.9590011"><ele>591.6</ele><time>2026-04-09T13:20:31.288Z</time></trkpt><trkpt lat="44.0103191" lon="7.9588258"><ele>586.0</ele><time>2026-04-09T13:20:32.288Z</time></trkpt><trkpt lat="44.0103381" lon="7.9586317"><ele>586.0</ele><time>2026-04-09T13:20:33.287Z</time></trkpt><trkpt lat="44.0103766" lon="7.9584222"><ele>586.0</ele><time>2026-04-09T13:20:34.288Z</time></trkpt><trkpt lat="44.0104034" lon="7.9581918"><ele>586.0</ele><time>2026-04-09T13:20:35.287Z</time></trkpt><trkpt lat="44.0104237" lon="7.9579562"><ele>587.0</ele><time>2026-04-09T13:20:36.287Z</time></trkpt><trkpt lat="44.0104509" lon="7.9577375"><ele>588.0</ele><time>2026-04-09T13:20:37.288Z</time></trkpt><trkpt lat="44.0104788" lon="7.9575376"><ele>589.0</ele><time>2026-04-09T13:20:38.288Z</time></trkpt><trkpt lat="44.0104601" lon="7.9573337"><ele>591.0</ele><time>2026-04-09T13:20:39.287Z</time></trkpt><trkpt lat="44.0104064" lon="7.9571198"><ele>593.0</ele><time>2026-04-09T13:20:40.288Z</time></trkpt><trkpt lat="44.0103268" lon="7.9569092"><ele>595.0</ele><time>2026-04-09T13:20:41.288Z</time></trkpt><trkpt lat="44.0102223" lon="7.9567306"><ele>598.0</ele><time>2026-04-09T13:20:42.287Z</time></trkpt><trkpt lat="44.0101348" lon="7.9565821"><ele>601.0</ele><time>2026-04-09T13:20:43.287Z</time></trkpt><trkpt lat="44.0100614" lon="7.9564555"><ele>604.0</ele><time>2026-04-09T13:20:44.288Z</time></trkpt><trkpt lat="44.0100391" lon="7.956313"><ele>607.0</ele><time>2026-04-09T13:20:45.287Z</time></trkpt><trkpt lat="44.0100747" lon="7.9561171"><ele>607.0</ele><time>2026-04-09T13:20:46.287Z</time></trkpt><trkpt lat="44.0101286" lon="7.9559571"><ele>607.0</ele><time>2026-04-09T13:20:47.288Z</time></trkpt><trkpt lat="44.0101962" lon="7.9558312"><ele>607.0</ele><time>2026-04-09T13:20:48.288Z</time></trkpt><trkpt lat="44.0103062" lon="7.9557359"><ele>607.0</ele><time>2026-04-09T13:20:49.287Z</time></trkpt><trkpt lat="44.0104377" lon="7.9556506"><ele>605.0</ele><time>2026-04-09T13:20:50.288Z</time></trkpt><trkpt lat="44.0105693" lon="7.95555"><ele>603.0</ele><time>2026-04-09T13:20:51.288Z</time></trkpt><trkpt lat="44.0106726" lon="7.9554066"><ele>601.0</ele><time>2026-04-09T13:20:52.288Z</time></trkpt><trkpt lat="44.0107421" lon="7.9552165"><ele>598.6666666666667</ele><time>2026-04-09T13:20:53.288Z</time></trkpt><trkpt lat="44.0107859" lon="7.9550009"><ele>596.3333333333334</ele><time>2026-04-09T13:20:54.288Z</time></trkpt><trkpt lat="44.0107913" lon="7.9547813"><ele>594.0</ele><time>2026-04-09T13:20:55.288Z</time></trkpt><trkpt lat="44.010741" lon="7.9545596"><ele>594.0</ele><time>2026-04-09T13:20:56.288Z</time></trkpt><trkpt lat="44.0106522" lon="7.9543288"><ele>594.0</ele><time>2026-04-09T13:20:57.288Z</time></trkpt><trkpt lat="44.0105661" lon="7.9540827"><ele>594.0</ele><time>2026-04-09T13:20:58.287Z</time></trkpt><trkpt lat="44.0104801" lon="7.9538324"><ele>594.0</ele><time>2026-04-09T13:20:59.287Z</time></trkpt><trkpt lat="44.0104014" lon="7.9535765"><ele>594.0</ele><time>2026-04-09T13:21:00.288Z</time></trkpt><trkpt lat="44.0103241" lon="7.9533362"><ele>594.0</ele><time>2026-04-09T13:21:01.288Z</time></trkpt><trkpt lat="44.0102726" lon="7.953104"><ele>597.75</ele><time>2026-04-09T13:21:02.287Z</time></trkpt><trkpt lat="44.0102537" lon="7.9528859"><ele>601.5</ele><time>2026-04-09T13:21:03.287Z</time></trkpt><trkpt lat="44.0102408" lon="7.9526696"><ele>605.25</ele><time>2026-04-09T13:21:04.287Z</time></trkpt><trkpt lat="44.0102261" lon="7.9524981"><ele>609.0</ele><time>2026-04-09T13:21:05.287Z</time></trkpt><trkpt lat="44.0102189" lon="7.9523571"><ele>607.6666666666666</ele><time>2026-04-09T13:21:06.287Z</time></trkpt><trkpt lat="44.0102165" lon="7.9522472"><ele>606.3333333333334</ele><time>2026-04-09T13:21:07.288Z</time></trkpt><trkpt lat="44.0101777" lon="7.9521158"><ele>605.0</ele><time>2026-04-09T13:21:09.288Z</time></trkpt><trkpt lat="44.0101113" lon="7.9520754"><ele>603.6666666666667</ele><time>2026-04-09T13:21:10.288Z</time></trkpt><trkpt lat="44.0100333" lon="7.9520591"><ele>602.3333333333334</ele><time>2026-04-09T13:21:11.287Z</time></trkpt><trkpt lat="44.0099481" lon="7.9520483"><ele>601.0</ele><time>2026-04-09T13:21:12.287Z</time></trkpt><trkpt lat="44.0098618" lon="7.9520354"><ele>601.0</ele><time>2026-04-09T13:21:13.288Z</time></trkpt><trkpt lat="44.0097725" lon="7.9519957"><ele>601.0</ele><time>2026-04-09T13:21:14.288Z</time></trkpt><trkpt lat="44.0096796" lon="7.9519397"><ele>601.0</ele><time>2026-04-09T13:21:15.287Z</time></trkpt><trkpt lat="44.0095975" lon="7.9518473"><ele>601.0</ele><time>2026-04-09T13:21:16.288Z</time></trkpt><trkpt lat="44.0095211" lon="7.9517209"><ele>601.0</ele><time>2026-04-09T13:21:17.287Z</time></trkpt><trkpt lat="44.0094484" lon="7.9515542"><ele>602.25</ele><time>2026-04-09T13:21:18.288Z</time></trkpt><trkpt lat="44.0093755" lon="7.9513825"><ele>603.5</ele><time>2026-04-09T13:21:19.287Z</time></trkpt><trkpt lat="44.0092904" lon="7.9512412"><ele>604.75</ele><time>2026-04-09T13:21:20.287Z</time></trkpt><trkpt lat="44.0091724" lon="7.9511481"><ele>606.0</ele><time>2026-04-09T13:21:21.288Z</time></trkpt><trkpt lat="44.0090268" lon="7.951097"><ele>606.0</ele><time>2026-04-09T13:21:22.288Z</time></trkpt><trkpt lat="44.008874" lon="7.9510633"><ele>606.0</ele><time>2026-04-09T13:21:23.287Z</time></trkpt><trkpt lat="44.0087267" lon="7.9510313"><ele>606.0</ele><time>2026-04-09T13:21:24.288Z</time></trkpt><trkpt lat="44.0086032" lon="7.9510038"><ele>606.0</ele><time>2026-04-09T13:21:25.288Z</time></trkpt><trkpt lat="44.0085103" lon="7.9509752"><ele>606.0</ele><time>2026-04-09T13:21:26.288Z</time></trkpt><trkpt lat="44.0084395" lon="7.9509127"><ele>606.0</ele><time>2026-04-09T13:21:27.288Z</time></trkpt><trkpt lat="44.0084031" lon="7.950809"><ele>606.0</ele><time>2026-04-09T13:21:28.287Z</time></trkpt><trkpt lat="44.0083967" lon="7.9506791"><ele>606.0</ele><time>2026-04-09T13:21:29.287Z</time></trkpt><trkpt lat="44.0084093" lon="7.9505393"><ele>606.0</ele><time>2026-04-09T13:21:30.287Z</time></trkpt><trkpt lat="44.0084062" lon="7.9503843"><ele>605.75</ele><time>2026-04-09T13:21:31.287Z</time></trkpt><trkpt lat="44.0083607" lon="7.9502321"><ele>605.5</ele><time>2026-04-09T13:21:32.287Z</time></trkpt><trkpt lat="44.0082782" lon="7.9500982"><ele>605.25</ele><time>2026-04-09T13:21:33.287Z</time></trkpt><trkpt lat="44.0081482" lon="7.9500048"><ele>605.0</ele><time>2026-04-09T13:21:34.288Z</time></trkpt><trkpt lat="44.0079973" lon="7.949934"><ele>614.0</ele><time>2026-04-09T13:21:35.287Z</time></trkpt><trkpt lat="44.0078345" lon="7.9498603"><ele>623.0</ele><time>2026-04-09T13:21:36.287Z</time></trkpt><trkpt lat="44.0076597" lon="7.9498015"><ele>632.0</ele><time>2026-04-09T13:21:37.287Z</time></trkpt><trkpt lat="44.0074765" lon="7.9497486"><ele>634.3333333333333</ele><time>2026-04-09T13:21:38.287Z</time></trkpt><trkpt lat="44.0072887" lon="7.949699"><ele>636.6666666666666</ele><time>2026-04-09T13:21:39.288Z</time></trkpt><trkpt lat="44.0070922" lon="7.9496495"><ele>639.0</ele><time>2026-04-09T13:21:40.287Z</time></trkpt><trkpt lat="44.0069039" lon="7.9496081"><ele>639.0</ele><time>2026-04-09T13:21:41.288Z</time></trkpt><trkpt lat="44.0067379" lon="7.9495865"><ele>639.0</ele><time>2026-04-09T13:21:42.288Z</time></trkpt><trkpt lat="44.0065959" lon="7.9495913"><ele>639.0</ele><time>2026-04-09T13:21:43.287Z</time></trkpt><trkpt lat="44.0064615" lon="7.9495882"><ele>639.0</ele><time>2026-04-09T13:21:44.288Z</time></trkpt><trkpt lat="44.0063442" lon="7.9495319"><ele>641.6666666666666</ele><time>2026-04-09T13:21:45.287Z</time></trkpt><trkpt lat="44.0062252" lon="7.9494223"><ele>644.3333333333333</ele><time>2026-04-09T13:21:46.288Z</time></trkpt><trkpt lat="44.0060935" lon="7.9492957"><ele>647.0</ele><time>2026-04-09T13:21:47.288Z</time></trkpt><trkpt lat="44.0059516" lon="7.949153"><ele>647.0</ele><time>2026-04-09T13:21:48.288Z</time></trkpt><trkpt lat="44.00583" lon="7.948982"><ele>647.0</ele><time>2026-04-09T13:21:49.287Z</time></trkpt><trkpt lat="44.005733" lon="7.94879"><ele>647.0</ele><time>2026-04-09T13:21:50.288Z</time></trkpt><trkpt lat="44.0056381" lon="7.9486098"><ele>646.0</ele><time>2026-04-09T13:21:51.287Z</time></trkpt><trkpt lat="44.0055184" lon="7.9484686"><ele>645.0</ele><time>2026-04-09T13:21:52.287Z</time></trkpt><trkpt lat="44.0053934" lon="7.9483452"><ele>644.0</ele><time>2026-04-09T13:21:53.287Z</time></trkpt><trkpt lat="44.005318" lon="7.9481809"><ele>644.0</ele><time>2026-04-09T13:21:54.287Z</time></trkpt><trkpt lat="44.0052754" lon="7.9479824"><ele>644.0</ele><time>2026-04-09T13:21:55.287Z</time></trkpt><trkpt lat="44.0052175" lon="7.9477862"><ele>644.0</ele><time>2026-04-09T13:21:56.287Z</time></trkpt><trkpt lat="44.0051099" lon="7.9476374"><ele>640.6666666666666</ele><time>2026-04-09T13:21:57.287Z</time></trkpt><trkpt lat="44.0049643" lon="7.9475493"><ele>637.3333333333334</ele><time>2026-04-09T13:21:58.288Z</time></trkpt><trkpt lat="44.0047916" lon="7.947487"><ele>634.0</ele><time>2026-04-09T13:21:59.288Z</time></trkpt><trkpt lat="44.0046202" lon="7.9474112"><ele>642.0</ele><time>2026-04-09T13:22:00.288Z</time></trkpt><trkpt lat="44.0044483" lon="7.9472983"><ele>650.0</ele><time>2026-04-09T13:22:01.287Z</time></trkpt><trkpt lat="44.0042892" lon="7.9471806"><ele>658.0</ele><time>2026-04-09T13:22:02.288Z</time></trkpt><trkpt lat="44.0041236" lon="7.9470898"><ele>658.0</ele><time>2026-04-09T13:22:03.287Z</time></trkpt><trkpt lat="44.0039432" lon="7.9470293"><ele>658.0</ele><time>2026-04-09T13:22:04.287Z</time></trkpt><trkpt lat="44.0037588" lon="7.9469801"><ele>658.0</ele><time>2026-04-09T13:22:05.288Z</time></trkpt><trkpt lat="44.0035681" lon="7.9469448"><ele>658.0</ele><time>2026-04-09T13:22:06.287Z</time></trkpt><trkpt lat="44.0033718" lon="7.9469068"><ele>658.0</ele><time>2026-04-09T13:22:07.288Z</time></trkpt><trkpt lat="44.0031684" lon="7.9468769"><ele>658.0</ele><time>2026-04-09T13:22:08.287Z</time></trkpt><trkpt lat="44.0029691" lon="7.9468364"><ele>658.0</ele><time>2026-04-09T13:22:09.287Z</time></trkpt><trkpt lat="44.002769" lon="7.9467912"><ele>658.0</ele><time>2026-04-09T13:22:10.287Z</time></trkpt><trkpt lat="44.0025733" lon="7.9467545"><ele>658.0</ele><time>2026-04-09T13:22:11.287Z</time></trkpt><trkpt lat="44.0023785" lon="7.9467185"><ele>667.6666666666667</ele><time>2026-04-09T13:22:12.288Z</time></trkpt><trkpt lat="44.0021817" lon="7.9466882"><ele>677.3333333333334</ele><time>2026-04-09T13:22:13.287Z</time></trkpt><trkpt lat="44.0019846" lon="7.9466509"><ele>687.0</ele><time>2026-04-09T13:22:14.287Z</time></trkpt><trkpt lat="44.0017942" lon="7.9466038"><ele>687.6666666666666</ele><time>2026-04-09T13:22:15.287Z</time></trkpt><trkpt lat="44.0016114" lon="7.9465667"><ele>688.3333333333333</ele><time>2026-04-09T13:22:16.287Z</time></trkpt><trkpt lat="44.001444" lon="7.9465152"><ele>689.0</ele><time>2026-04-09T13:22:17.288Z</time></trkpt><trkpt lat="44.0012838" lon="7.9464603"><ele>689.0</ele><time>2026-04-09T13:22:18.288Z</time></trkpt><trkpt lat="44.0011295" lon="7.9464102"><ele>689.0</ele><time>2026-04-09T13:22:19.288Z</time></trkpt><trkpt lat="44.0009807" lon="7.9463924"><ele>689.0</ele><time>2026-04-09T13:22:20.288Z</time></trkpt><trkpt lat="44.0008248" lon="7.9464123"><ele>690.6666666666666</ele><time>2026-04-09T13:22:21.288Z</time></trkpt><trkpt lat="44.0006618" lon="7.9464415"><ele>692.3333333333334</ele><time>2026-04-09T13:22:22.288Z</time></trkpt><trkpt lat="44.0004965" lon="7.9464889"><ele>694.0</ele><time>2026-04-09T13:22:23.289Z</time></trkpt><trkpt lat="44.0003376" lon="7.9465366"><ele>694.0</ele><time>2026-04-09T13:22:24.289Z</time></trkpt><trkpt lat="44.0001821" lon="7.9465869"><ele>694.0</ele><time>2026-04-09T13:22:25.288Z</time></trkpt><trkpt lat="44.0000409" lon="7.9466415"><ele>694.0</ele><time>2026-04-09T13:22:26.289Z</time></trkpt><trkpt lat="43.9999206" lon="7.9466685"><ele>694.0</ele><time>2026-04-09T13:22:27.288Z</time></trkpt><trkpt lat="43.9998222" lon="7.9466431"><ele>694.0</ele><time>2026-04-09T13:22:28.288Z</time></trkpt><trkpt lat="43.9997214" lon="7.9465607"><ele>694.0</ele><time>2026-04-09T13:22:29.289Z</time></trkpt><trkpt lat="43.9996114" lon="7.9464406"><ele>694.0</ele><time>2026-04-09T13:22:30.288Z</time></trkpt><trkpt lat="43.9994905" lon="7.9462993"><ele>694.0</ele><time>2026-04-09T13:22:31.289Z</time></trkpt><trkpt lat="43.9993638" lon="7.9461561"><ele>694.0</ele><time>2026-04-09T13:22:32.288Z</time></trkpt><trkpt lat="43.9992348" lon="7.9460341"><ele>694.0</ele><time>2026-04-09T13:22:33.288Z</time></trkpt><trkpt lat="43.9990906" lon="7.9459609"><ele>694.0</ele><time>2026-04-09T13:22:34.288Z</time></trkpt><trkpt lat="43.998928" lon="7.9459294"><ele>690.6666666666667</ele><time>2026-04-09T13:22:35.289Z</time></trkpt><trkpt lat="43.9987558" lon="7.9459556"><ele>687.3333333333334</ele><time>2026-04-09T13:22:36.288Z</time></trkpt><trkpt lat="43.9985836" lon="7.9459829"><ele>684.0</ele><time>2026-04-09T13:22:37.288Z</time></trkpt><trkpt lat="43.9984183" lon="7.9459826"><ele>682.3333333333334</ele><time>2026-04-09T13:22:38.288Z</time></trkpt><trkpt lat="43.9982487" lon="7.945954"><ele>680.6666666666667</ele><time>2026-04-09T13:22:39.288Z</time></trkpt><trkpt lat="43.9980692" lon="7.9459136"><ele>679.0</ele><time>2026-04-09T13:22:40.288Z</time></trkpt><trkpt lat="43.9978787" lon="7.9458648"><ele>688.0</ele><time>2026-04-09T13:22:41.288Z</time></trkpt><trkpt lat="43.9976932" lon="7.945817"><ele>697.0</ele><time>2026-04-09T13:22:42.288Z</time></trkpt><trkpt lat="43.9975067" lon="7.9457586"><ele>706.0</ele><time>2026-04-09T13:22:43.289Z</time></trkpt><trkpt lat="43.9973233" lon="7.9456703"><ele>706.0</ele><time>2026-04-09T13:22:44.288Z</time></trkpt><trkpt lat="43.9971381" lon="7.9455666"><ele>706.0</ele><time>2026-04-09T13:22:45.289Z</time></trkpt><trkpt lat="43.9969697" lon="7.945471"><ele>706.0</ele><time>2026-04-09T13:22:46.288Z</time></trkpt><trkpt lat="43.9968175" lon="7.9453952"><ele>706.0</ele><time>2026-04-09T13:22:47.289Z</time></trkpt><trkpt lat="43.9967007" lon="7.9453322"><ele>706.0</ele><time>2026-04-09T13:22:48.289Z</time></trkpt><trkpt lat="43.996609" lon="7.9452264"><ele>706.0</ele><time>2026-04-09T13:22:49.288Z</time></trkpt><trkpt lat="43.9965238" lon="7.9450769"><ele>706.0</ele><time>2026-04-09T13:22:50.288Z</time></trkpt><trkpt lat="43.9964273" lon="7.9449029"><ele>710.6666666666667</ele><time>2026-04-09T13:22:51.289Z</time></trkpt><trkpt lat="43.9963245" lon="7.9447298"><ele>715.3333333333334</ele><time>2026-04-09T13:22:52.288Z</time></trkpt><trkpt lat="43.9962132" lon="7.9445246"><ele>720.0</ele><time>2026-04-09T13:22:53.289Z</time></trkpt><trkpt lat="43.9961038" lon="7.9443016"><ele>715.6666666666666</ele><time>2026-04-09T13:22:54.288Z</time></trkpt><trkpt lat="43.9959965" lon="7.944061"><ele>711.3333333333333</ele><time>2026-04-09T13:22:55.288Z</time></trkpt><trkpt lat="43.9958837" lon="7.9438092"><ele>707.0</ele><time>2026-04-09T13:22:56.289Z</time></trkpt><trkpt lat="43.9957706" lon="7.9435528"><ele>715.3333333333333</ele><time>2026-04-09T13:22:57.288Z</time></trkpt><trkpt lat="43.995661" lon="7.9432962"><ele>723.6666666666666</ele><time>2026-04-09T13:22:58.289Z</time></trkpt><trkpt lat="43.995552" lon="7.9430394"><ele>732.0</ele><time>2026-04-09T13:22:59.288Z</time></trkpt><trkpt lat="43.9954564" lon="7.9428048"><ele>732.0</ele><time>2026-04-09T13:23:00.288Z</time></trkpt><trkpt lat="43.9953577" lon="7.942599"><ele>732.0</ele><time>2026-04-09T13:23:01.288Z</time></trkpt><trkpt lat="43.9952647" lon="7.9424215"><ele>732.0</ele><time>2026-04-09T13:23:02.289Z</time></trkpt><trkpt lat="43.9951585" lon="7.9422812"><ele>727.6666666666666</ele><time>2026-04-09T13:23:03.288Z</time></trkpt><trkpt lat="43.9950234" lon="7.942176"><ele>723.3333333333333</ele><time>2026-04-09T13:23:04.288Z</time></trkpt><trkpt lat="43.9948672" lon="7.9420837"><ele>719.0</ele><time>2026-04-09T13:23:05.288Z</time></trkpt><trkpt lat="43.9947046" lon="7.9419712"><ele>719.0</ele><time>2026-04-09T13:23:06.289Z</time></trkpt><trkpt lat="43.994551" lon="7.9418496"><ele>719.0</ele><time>2026-04-09T13:23:07.288Z</time></trkpt><trkpt lat="43.9943793" lon="7.9417622"><ele>719.0</ele><time>2026-04-09T13:23:08.288Z</time></trkpt><trkpt lat="43.9941919" lon="7.9417134"><ele>725.0</ele><time>2026-04-09T13:23:09.288Z</time></trkpt><trkpt lat="43.9940066" lon="7.9416839"><ele>731.0</ele><time>2026-04-09T13:23:10.288Z</time></trkpt><trkpt lat="43.9938346" lon="7.9416675"><ele>737.0</ele><time>2026-04-09T13:23:11.289Z</time></trkpt><trkpt lat="43.9936676" lon="7.9416984"><ele>728.75</ele><time>2026-04-09T13:23:12.289Z</time></trkpt><trkpt lat="43.9935138" lon="7.941761"><ele>720.5</ele><time>2026-04-09T13:23:13.289Z</time></trkpt><trkpt lat="43.9933864" lon="7.9418358"><ele>712.25</ele><time>2026-04-09T13:23:14.289Z</time></trkpt><trkpt lat="43.9932756" lon="7.9418946"><ele>704.0</ele><time>2026-04-09T13:23:15.289Z</time></trkpt><trkpt lat="43.9931709" lon="7.9419072"><ele>703.75</ele><time>2026-04-09T13:23:16.289Z</time></trkpt><trkpt lat="43.9930577" lon="7.9418842"><ele>703.5</ele><time>2026-04-09T13:23:17.289Z</time></trkpt><trkpt lat="43.9929298" lon="7.9418382"><ele>703.25</ele><time>2026-04-09T13:23:18.289Z</time></trkpt><trkpt lat="43.9927946" lon="7.9417883"><ele>703.0</ele><time>2026-04-09T13:23:19.289Z</time></trkpt><trkpt lat="43.9926692" lon="7.941748"><ele>708.0</ele><time>2026-04-09T13:23:20.288Z</time></trkpt><trkpt lat="43.9925707" lon="7.9417115"><ele>713.0</ele><time>2026-04-09T13:23:21.288Z</time></trkpt><trkpt lat="43.9924952" lon="7.941671"><ele>718.0</ele><time>2026-04-09T13:23:22.288Z</time></trkpt><trkpt lat="43.9924423" lon="7.9415817"><ele>723.0</ele><time>2026-04-09T13:23:23.288Z</time></trkpt><trkpt lat="43.9924275" lon="7.9414601"><ele>728.0</ele><time>2026-04-09T13:23:24.288Z</time></trkpt><trkpt lat="43.9924509" lon="7.9413068"><ele>728.0</ele><time>2026-04-09T13:23:25.288Z</time></trkpt><trkpt lat="43.9924877" lon="7.9411423"><ele>728.0</ele><time>2026-04-09T13:23:26.288Z</time></trkpt><trkpt lat="43.9925325" lon="7.9409486"><ele>728.0</ele><time>2026-04-09T13:23:27.289Z</time></trkpt><trkpt lat="43.9925734" lon="7.9407338"><ele>728.0</ele><time>2026-04-09T13:23:28.288Z</time></trkpt><trkpt lat="43.992613" lon="7.9404912"><ele>740.6666666666666</ele><time>2026-04-09T13:23:29.288Z</time></trkpt><trkpt lat="43.9926508" lon="7.9402397"><ele>753.3333333333334</ele><time>2026-04-09T13:23:30.289Z</time></trkpt><trkpt lat="43.9926752" lon="7.9399883"><ele>766.0</ele><time>2026-04-09T13:23:31.289Z</time></trkpt><trkpt lat="43.9927003" lon="7.9397481"><ele>767.3333333333334</ele><time>2026-04-09T13:23:32.289Z</time></trkpt><trkpt lat="43.9927459" lon="7.9395336"><ele>768.6666666666667</ele><time>2026-04-09T13:23:33.289Z</time></trkpt><trkpt lat="43.9928235" lon="7.9393438"><ele>770.0</ele><time>2026-04-09T13:23:34.289Z</time></trkpt><trkpt lat="43.9928974" lon="7.9391362"><ele>770.0</ele><time>2026-04-09T13:23:35.289Z</time></trkpt><trkpt lat="43.9929449" lon="7.938919"><ele>770.0</ele><time>2026-04-09T13:23:36.288Z</time></trkpt><trkpt lat="43.9929765" lon="7.9387193"><ele>770.0</ele><time>2026-04-09T13:23:37.288Z</time></trkpt><trkpt lat="43.9930318" lon="7.9385389"><ele>767.5</ele><time>2026-04-09T13:23:38.288Z</time></trkpt><trkpt lat="43.9931163" lon="7.9383765"><ele>765.0</ele><time>2026-04-09T13:23:39.288Z</time></trkpt><trkpt lat="43.993196" lon="7.9382181"><ele>762.5</ele><time>2026-04-09T13:23:40.288Z</time></trkpt><trkpt lat="43.9932535" lon="7.938023"><ele>760.0</ele><time>2026-04-09T13:23:41.289Z</time></trkpt><trkpt lat="43.9932854" lon="7.9377995"><ele>760.0</ele><time>2026-04-09T13:23:42.289Z</time></trkpt><trkpt lat="43.9933006" lon="7.9375731"><ele>760.0</ele><time>2026-04-09T13:23:43.289Z</time></trkpt><trkpt lat="43.9933188" lon="7.9373474"><ele>760.0</ele><time>2026-04-09T13:23:44.288Z</time></trkpt><trkpt lat="43.9933569" lon="7.9371438"><ele>770.0</ele><time>2026-04-09T13:23:45.289Z</time></trkpt><trkpt lat="43.9934196" lon="7.9369419"><ele>780.0</ele><time>2026-04-09T13:23:46.289Z</time></trkpt><trkpt lat="43.9934797" lon="7.9367214"><ele>790.0</ele><time>2026-04-09T13:23:47.288Z</time></trkpt><trkpt lat="43.9935035" lon="7.9364792"><ele>790.0</ele><time>2026-04-09T13:23:48.289Z</time></trkpt><trkpt lat="43.9935006" lon="7.9362256"><ele>790.0</ele><time>2026-04-09T13:23:49.289Z</time></trkpt><trkpt lat="43.9934868" lon="7.9359666"><ele>790.0</ele><time>2026-04-09T13:23:50.288Z</time></trkpt><trkpt lat="43.9934797" lon="7.9357274"><ele>789.25</ele><time>2026-04-09T13:23:51.289Z</time></trkpt><trkpt lat="43.9934939" lon="7.9355273"><ele>788.5</ele><time>2026-04-09T13:23:52.289Z</time></trkpt><trkpt lat="43.9935335" lon="7.9353756"><ele>787.75</ele><time>2026-04-09T13:23:53.288Z</time></trkpt><trkpt lat="43.9936057" lon="7.9352505"><ele>787.0</ele><time>2026-04-09T13:23:54.288Z</time></trkpt><trkpt lat="43.9936773" lon="7.9351264"><ele>786.75</ele><time>2026-04-09T13:23:55.289Z</time></trkpt><trkpt lat="43.9936977" lon="7.9349777"><ele>786.5</ele><time>2026-04-09T13:23:56.288Z</time></trkpt><trkpt lat="43.9936664" lon="7.9347937"><ele>786.25</ele><time>2026-04-09T13:23:57.288Z</time></trkpt><trkpt lat="43.9935803" lon="7.9346356"><ele>786.0</ele><time>2026-04-09T13:23:58.288Z</time></trkpt><trkpt lat="43.9934935" lon="7.9344938"><ele>786.0</ele><time>2026-04-09T13:23:59.289Z</time></trkpt><trkpt lat="43.9934179" lon="7.9343679"><ele>786.0</ele><time>2026-04-09T13:24:00.289Z</time></trkpt><trkpt lat="43.9933817" lon="7.934244"><ele>786.0</ele><time>2026-04-09T13:24:01.289Z</time></trkpt><trkpt lat="43.9933858" lon="7.9340874"><ele>786.0</ele><time>2026-04-09T13:24:02.288Z</time></trkpt><trkpt lat="43.9934186" lon="7.933925"><ele>786.0</ele><time>2026-04-09T13:24:03.288Z</time></trkpt><trkpt lat="43.9934709" lon="7.9337896"><ele>786.5</ele><time>2026-04-09T13:24:04.288Z</time></trkpt><trkpt lat="43.9935609" lon="7.933667"><ele>787.0</ele><time>2026-04-09T13:24:05.289Z</time></trkpt><trkpt lat="43.9936572" lon="7.9335432"><ele>787.5</ele><time>2026-04-09T13:24:06.288Z</time></trkpt><trkpt lat="43.9937167" lon="7.9333961"><ele>788.0</ele><time>2026-04-09T13:24:07.289Z</time></trkpt><trkpt lat="43.9937223" lon="7.9332267"><ele>786.5</ele><time>2026-04-09T13:24:08.288Z</time></trkpt><trkpt lat="43.9936696" lon="7.9330658"><ele>785.0</ele><time>2026-04-09T13:24:09.288Z</time></trkpt><trkpt lat="43.9935803" lon="7.9329212"><ele>783.5</ele><time>2026-04-09T13:24:10.288Z</time></trkpt><trkpt lat="43.9934866" lon="7.9327922"><ele>782.0</ele><time>2026-04-09T13:24:11.288Z</time></trkpt><trkpt lat="43.9934162" lon="7.9326869"><ele>783.25</ele><time>2026-04-09T13:24:12.288Z</time></trkpt><trkpt lat="43.9933903" lon="7.9325507"><ele>784.5</ele><time>2026-04-09T13:24:13.289Z</time></trkpt><trkpt lat="43.9934062" lon="7.932379"><ele>785.75</ele><time>2026-04-09T13:24:14.288Z</time></trkpt><trkpt lat="43.993431" lon="7.9321863"><ele>787.0</ele><time>2026-04-09T13:24:15.289Z</time></trkpt><trkpt lat="43.9934518" lon="7.9319836"><ele>787.0</ele><time>2026-04-09T13:24:16.288Z</time></trkpt><trkpt lat="43.9934668" lon="7.9317973"><ele>787.0</ele><time>2026-04-09T13:24:17.288Z</time></trkpt><trkpt lat="43.9935003" lon="7.9316227"><ele>787.0</ele><time>2026-04-09T13:24:18.289Z</time></trkpt><trkpt lat="43.9935581" lon="7.9314668"><ele>787.0</ele><time>2026-04-09T13:24:19.289Z</time></trkpt><trkpt lat="43.9935989" lon="7.9313245"><ele>787.25</ele><time>2026-04-09T13:24:20.289Z</time></trkpt><trkpt lat="43.9935977" lon="7.9311796"><ele>787.5</ele><time>2026-04-09T13:24:21.288Z</time></trkpt><trkpt lat="43.9935471" lon="7.9310281"><ele>787.75</ele><time>2026-04-09T13:24:22.289Z</time></trkpt><trkpt lat="43.9934705" lon="7.9308984"><ele>788.0</ele><time>2026-04-09T13:24:23.288Z</time></trkpt><trkpt lat="43.9933736" lon="7.930761"><ele>781.3333333333334</ele><time>2026-04-09T13:24:24.288Z</time></trkpt><trkpt lat="43.9932648" lon="7.9306083"><ele>774.6666666666667</ele><time>2026-04-09T13:24:25.288Z</time></trkpt><trkpt lat="43.9931536" lon="7.9304453"><ele>768.0</ele><time>2026-04-09T13:24:26.289Z</time></trkpt><trkpt lat="43.9930438" lon="7.9302835"><ele>768.0</ele><time>2026-04-09T13:24:27.289Z</time></trkpt><trkpt lat="43.9929506" lon="7.9301207"><ele>768.0</ele><time>2026-04-09T13:24:28.289Z</time></trkpt><trkpt lat="43.9928767" lon="7.9299278"><ele>768.0</ele><time>2026-04-09T13:24:29.288Z</time></trkpt><trkpt lat="43.9928184" lon="7.929721"><ele>772.25</ele><time>2026-04-09T13:24:30.288Z</time></trkpt><trkpt lat="43.9927775" lon="7.9294973"><ele>776.5</ele><time>2026-04-09T13:24:31.288Z</time></trkpt><trkpt lat="43.9927555" lon="7.9292949"><ele>780.75</ele><time>2026-04-09T13:24:32.288Z</time></trkpt><trkpt lat="43.9927509" lon="7.9291294"><ele>785.0</ele><time>2026-04-09T13:24:33.288Z</time></trkpt><trkpt lat="43.992756" lon="7.9289862"><ele>786.0</ele><time>2026-04-09T13:24:34.288Z</time></trkpt><trkpt lat="43.9927997" lon="7.9288713"><ele>787.0</ele><time>2026-04-09T13:24:35.289Z</time></trkpt><trkpt lat="43.9928785" lon="7.9287818"><ele>788.0</ele><time>2026-04-09T13:24:36.289Z</time></trkpt><trkpt lat="43.9929806" lon="7.9287227"><ele>789.0</ele><time>2026-04-09T13:24:37.288Z</time></trkpt><trkpt lat="43.9931062" lon="7.9286736"><ele>790.0</ele><time>2026-04-09T13:24:38.289Z</time></trkpt><trkpt lat="43.9932444" lon="7.9286361"><ele>791.4</ele><time>2026-04-09T13:24:39.289Z</time></trkpt><trkpt lat="43.9933762" lon="7.928614"><ele>792.8</ele><time>2026-04-09T13:24:40.289Z</time></trkpt><trkpt lat="43.9934841" lon="7.9285785"><ele>794.2</ele><time>2026-04-09T13:24:41.288Z</time></trkpt><trkpt lat="43.9935661" lon="7.9285065"><ele>795.6</ele><time>2026-04-09T13:24:42.289Z</time></trkpt><trkpt lat="43.9936143" lon="7.9284009"><ele>797.0</ele><time>2026-04-09T13:24:43.288Z</time></trkpt><trkpt lat="43.9936143" lon="7.9282794"><ele>797.0</ele><time>2026-04-09T13:24:44.288Z</time></trkpt><trkpt lat="43.9935749" lon="7.9281359"><ele>797.0</ele><time>2026-04-09T13:24:45.289Z</time></trkpt><trkpt lat="43.9935174" lon="7.9279767"><ele>797.0</ele><time>2026-04-09T13:24:46.289Z</time></trkpt><trkpt lat="43.9934722" lon="7.9278001"><ele>797.0</ele><time>2026-04-09T13:24:47.289Z</time></trkpt><trkpt lat="43.99346" lon="7.9276113"><ele>799.6666666666667</ele><time>2026-04-09T13:24:48.289Z</time></trkpt><trkpt lat="43.993453" lon="7.9274044"><ele>802.3333333333333</ele><time>2026-04-09T13:24:49.289Z</time></trkpt><trkpt lat="43.9934319" lon="7.9271784"><ele>805.0</ele><time>2026-04-09T13:24:50.289Z</time></trkpt><trkpt lat="43.9933887" lon="7.9269593"><ele>800.0</ele><time>2026-04-09T13:24:51.288Z</time></trkpt><trkpt lat="43.9933231" lon="7.9267616"><ele>795.0</ele><time>2026-04-09T13:24:52.289Z</time></trkpt><trkpt lat="43.9932313" lon="7.9265862"><ele>790.0</ele><time>2026-04-09T13:24:53.288Z</time></trkpt><trkpt lat="43.9931183" lon="7.9264271"><ele>790.0</ele><time>2026-04-09T13:24:54.288Z</time></trkpt><trkpt lat="43.9930094" lon="7.926296"><ele>790.0</ele><time>2026-04-09T13:24:55.288Z</time></trkpt><trkpt lat="43.992915" lon="7.9261721"><ele>790.0</ele><time>2026-04-09T13:24:56.288Z</time></trkpt><trkpt lat="43.9928249" lon="7.926041"><ele>790.0</ele><time>2026-04-09T13:24:57.288Z</time></trkpt><trkpt lat="43.992758" lon="7.9258848"><ele>793.25</ele><time>2026-04-09T13:24:58.288Z</time></trkpt><trkpt lat="43.9927292" lon="7.9257092"><ele>796.5</ele><time>2026-04-09T13:24:59.288Z</time></trkpt><trkpt lat="43.992723" lon="7.9255018"><ele>799.75</ele><time>2026-04-09T13:25:00.288Z</time></trkpt><trkpt lat="43.9927337" lon="7.9252817"><ele>803.0</ele><time>2026-04-09T13:25:01.288Z</time></trkpt><trkpt lat="43.9927395" lon="7.9250651"><ele>804.6666666666667</ele><time>2026-04-09T13:25:02.288Z</time></trkpt><trkpt lat="43.9927431" lon="7.924848"><ele>806.3333333333333</ele><time>2026-04-09T13:25:03.288Z</time></trkpt><trkpt lat="43.9927417" lon="7.9246315"><ele>808.0</ele><time>2026-04-09T13:25:04.288Z</time></trkpt><trkpt lat="43.9927387" lon="7.9244202"><ele>808.0</ele><time>2026-04-09T13:25:05.288Z</time></trkpt><trkpt lat="43.9927332" lon="7.9242159"><ele>808.0</ele><time>2026-04-09T13:25:06.289Z</time></trkpt><trkpt lat="43.9927209" lon="7.9240225"><ele>808.0</ele><time>2026-04-09T13:25:07.289Z</time></trkpt><trkpt lat="43.9927078" lon="7.9238464"><ele>808.0</ele><time>2026-04-09T13:25:08.289Z</time></trkpt><trkpt lat="43.9927238" lon="7.9236825"><ele>808.0</ele><time>2026-04-09T13:25:09.288Z</time></trkpt><trkpt lat="43.9927753" lon="7.9235207"><ele>808.0</ele><time>2026-04-09T13:25:10.289Z</time></trkpt><trkpt lat="43.9928412" lon="7.9233678"><ele>808.0</ele><time>2026-04-09T13:25:11.288Z</time></trkpt><trkpt lat="43.9929258" lon="7.9232386"><ele>808.0</ele><time>2026-04-09T13:25:12.289Z</time></trkpt><trkpt lat="43.9930418" lon="7.9231446"><ele>807.3333333333333</ele><time>2026-04-09T13:25:13.288Z</time></trkpt><trkpt lat="43.9931726" lon="7.9230666"><ele>806.6666666666667</ele><time>2026-04-09T13:25:14.289Z</time></trkpt><trkpt lat="43.9933084" lon="7.9229652"><ele>806.0</ele><time>2026-04-09T13:25:15.288Z</time></trkpt><trkpt lat="43.9934398" lon="7.9228237"><ele>808.0</ele><time>2026-04-09T13:25:16.288Z</time></trkpt><trkpt lat="43.993576" lon="7.92267"><ele>810.0</ele><time>2026-04-09T13:25:17.289Z</time></trkpt><trkpt lat="43.993723" lon="7.9225287"><ele>812.0</ele><time>2026-04-09T13:25:18.288Z</time></trkpt><trkpt lat="43.9939005" lon="7.922403"><ele>812.0</ele><time>2026-04-09T13:25:19.289Z</time></trkpt><trkpt lat="43.9940861" lon="7.922278"><ele>812.0</ele><time>2026-04-09T13:25:20.289Z</time></trkpt><trkpt lat="43.9942556" lon="7.9221421"><ele>812.0</ele><time>2026-04-09T13:25:21.288Z</time></trkpt><trkpt lat="43.9944189" lon="7.9220152"><ele>810.3333333333334</ele><time>2026-04-09T13:25:22.289Z</time></trkpt><trkpt lat="43.9945768" lon="7.9218948"><ele>808.6666666666667</ele><time>2026-04-09T13:25:23.289Z</time></trkpt><trkpt lat="43.994738" lon="7.9217748"><ele>807.0</ele><time>2026-04-09T13:25:24.288Z</time></trkpt><trkpt lat="43.9948913" lon="7.9216645"><ele>810.75</ele><time>2026-04-09T13:25:25.288Z</time></trkpt><trkpt lat="43.99503" lon="7.9215599"><ele>814.5</ele><time>2026-04-09T13:25:26.288Z</time></trkpt><trkpt lat="43.9951492" lon="7.92145"><ele>818.25</ele><time>2026-04-09T13:25:27.288Z</time></trkpt><trkpt lat="43.9952432" lon="7.9213197"><ele>822.0</ele><time>2026-04-09T13:25:28.288Z</time></trkpt><trkpt lat="43.9953006" lon="7.9211277"><ele>822.0</ele><time>2026-04-09T13:25:29.289Z</time></trkpt><trkpt lat="43.9953391" lon="7.9209152"><ele>822.0</ele><time>2026-04-09T13:25:30.289Z</time></trkpt><trkpt lat="43.9953545" lon="7.9206694"><ele>822.0</ele><time>2026-04-09T13:25:31.288Z</time></trkpt><trkpt lat="43.9953626" lon="7.9204253"><ele>821.25</ele><time>2026-04-09T13:25:32.289Z</time></trkpt><trkpt lat="43.9953691" lon="7.9202006"><ele>820.5</ele><time>2026-04-09T13:25:33.289Z</time></trkpt><trkpt lat="43.9953787" lon="7.9200025"><ele>819.75</ele><time>2026-04-09T13:25:34.288Z</time></trkpt><trkpt lat="43.995403" lon="7.9198214"><ele>819.0</ele><time>2026-04-09T13:25:35.289Z</time></trkpt><trkpt lat="43.9954604" lon="7.9196628"><ele>819.0</ele><time>2026-04-09T13:25:36.288Z</time></trkpt><trkpt lat="43.9955534" lon="7.9195172"><ele>819.0</ele><time>2026-04-09T13:25:37.288Z</time></trkpt><trkpt lat="43.9956274" lon="7.9193601"><ele>819.0</ele><time>2026-04-09T13:25:38.288Z</time></trkpt><trkpt lat="43.9956489" lon="7.9191984"><ele>819.0</ele><time>2026-04-09T13:25:39.288Z</time></trkpt><trkpt lat="43.9956663" lon="7.9190403"><ele>818.5</ele><time>2026-04-09T13:25:40.288Z</time></trkpt><trkpt lat="43.9957134" lon="7.9189052"><ele>818.0</ele><time>2026-04-09T13:25:41.289Z</time></trkpt><trkpt lat="43.9958133" lon="7.9187967"><ele>817.5</ele><time>2026-04-09T13:25:42.289Z</time></trkpt><trkpt lat="43.9959148" lon="7.9186954"><ele>817.0</ele><time>2026-04-09T13:25:43.289Z</time></trkpt><trkpt lat="43.9960113" lon="7.9185713"><ele>824.75</ele><time>2026-04-09T13:25:44.288Z</time></trkpt><trkpt lat="43.9960773" lon="7.9184154"><ele>832.5</ele><time>2026-04-09T13:25:45.288Z</time></trkpt><trkpt lat="43.9961124" lon="7.9182393"><ele>840.25</ele><time>2026-04-09T13:25:46.288Z</time></trkpt><trkpt lat="43.996105" lon="7.9180598"><ele>848.0</ele><time>2026-04-09T13:25:47.288Z</time></trkpt><trkpt lat="43.9960956" lon="7.917877"><ele>848.3333333333334</ele><time>2026-04-09T13:25:48.289Z</time></trkpt><trkpt lat="43.9961223" lon="7.9176936"><ele>848.6666666666667</ele><time>2026-04-09T13:25:49.289Z</time></trkpt><trkpt lat="43.9962178" lon="7.9175362"><ele>849.0</ele><time>2026-04-09T13:25:50.289Z</time></trkpt><trkpt lat="43.9963462" lon="7.9173825"><ele>845.0</ele><time>2026-04-09T13:25:51.289Z</time></trkpt><trkpt lat="43.9964999" lon="7.9172271"><ele>841.0</ele><time>2026-04-09T13:25:52.288Z</time></trkpt><trkpt lat="43.9966437" lon="7.9170724"><ele>837.0</ele><time>2026-04-09T13:25:53.289Z</time></trkpt><trkpt lat="43.9967648" lon="7.9169365"><ele>840.75</ele><time>2026-04-09T13:25:54.289Z</time></trkpt><trkpt lat="43.9968505" lon="7.9167851"><ele>844.5</ele><time>2026-04-09T13:25:55.288Z</time></trkpt><trkpt lat="43.9969068" lon="7.9166026"><ele>848.25</ele><time>2026-04-09T13:25:56.289Z</time></trkpt><trkpt lat="43.9969283" lon="7.916372"><ele>852.0</ele><time>2026-04-09T13:25:57.289Z</time></trkpt><trkpt lat="43.9969456" lon="7.9161062"><ele>851.3333333333333</ele><time>2026-04-09T13:25:58.288Z</time></trkpt><trkpt lat="43.9969812" lon="7.9158455"><ele>850.6666666666666</ele><time>2026-04-09T13:25:59.289Z</time></trkpt><trkpt lat="43.9970358" lon="7.9156206"><ele>850.0</ele><time>2026-04-09T13:26:00.288Z</time></trkpt><trkpt lat="43.9970702" lon="7.9154188"><ele>850.0</ele><time>2026-04-09T13:26:01.289Z</time></trkpt><trkpt lat="43.9970858" lon="7.9152459"><ele>850.0</ele><time>2026-04-09T13:26:02.288Z</time></trkpt><trkpt lat="43.997063" lon="7.9150783"><ele>850.0</ele><time>2026-04-09T13:26:03.288Z</time></trkpt><trkpt lat="43.9970063" lon="7.9149005"><ele>850.0</ele><time>2026-04-09T13:26:04.288Z</time></trkpt><trkpt lat="43.9969245" lon="7.9147306"><ele>849.3333333333333</ele><time>2026-04-09T13:26:05.289Z</time></trkpt><trkpt lat="43.9968366" lon="7.9145571"><ele>848.6666666666667</ele><time>2026-04-09T13:26:06.288Z</time></trkpt><trkpt lat="43.996744" lon="7.9143538"><ele>848.0</ele><time>2026-04-09T13:26:07.289Z</time></trkpt><trkpt lat="43.9966587" lon="7.9141195"><ele>843.3333333333334</ele><time>2026-04-09T13:26:08.288Z</time></trkpt><trkpt lat="43.9965917" lon="7.9138964"><ele>838.6666666666667</ele><time>2026-04-09T13:26:09.289Z</time></trkpt><trkpt lat="43.9965236" lon="7.9136624"><ele>834.0</ele><time>2026-04-09T13:26:10.288Z</time></trkpt><trkpt lat="43.996474" lon="7.9134047"><ele>834.0</ele><time>2026-04-09T13:26:11.289Z</time></trkpt><trkpt lat="43.9964379" lon="7.9131387"><ele>834.0</ele><time>2026-04-09T13:26:12.289Z</time></trkpt><trkpt lat="43.9964094" lon="7.9128801"><ele>834.0</ele><time>2026-04-09T13:26:13.288Z</time></trkpt><trkpt lat="43.9963793" lon="7.9126343"><ele>836.0</ele><time>2026-04-09T13:26:14.288Z</time></trkpt><trkpt lat="43.9963354" lon="7.9123946"><ele>838.0</ele><time>2026-04-09T13:26:15.289Z</time></trkpt><trkpt lat="43.996244" lon="7.9121599"><ele>840.0</ele><time>2026-04-09T13:26:16.288Z</time></trkpt><trkpt lat="43.996142" lon="7.9119218"><ele>845.0</ele><time>2026-04-09T13:26:17.289Z</time></trkpt><trkpt lat="43.9960441" lon="7.9116954"><ele>850.0</ele><time>2026-04-09T13:26:18.288Z</time></trkpt><trkpt lat="43.9959542" lon="7.9114802"><ele>855.0</ele><time>2026-04-09T13:26:19.289Z</time></trkpt><trkpt lat="43.9958728" lon="7.9112796"><ele>851.25</ele><time>2026-04-09T13:26:20.288Z</time></trkpt><trkpt lat="43.9958044" lon="7.9110914"><ele>847.5</ele><time>2026-04-09T13:26:21.288Z</time></trkpt><trkpt lat="43.9957577" lon="7.9109105"><ele>843.75</ele><time>2026-04-09T13:26:22.288Z</time></trkpt><trkpt lat="43.995716" lon="7.9107597"><ele>840.0</ele><time>2026-04-09T13:26:23.289Z</time></trkpt><trkpt lat="43.9956592" lon="7.9106235"><ele>840.0</ele><time>2026-04-09T13:26:24.289Z</time></trkpt><trkpt lat="43.9955761" lon="7.9105164"><ele>840.0</ele><time>2026-04-09T13:26:25.288Z</time></trkpt><trkpt lat="43.9954848" lon="7.9104343"><ele>840.0</ele><time>2026-04-09T13:26:26.289Z</time></trkpt><trkpt lat="43.9953864" lon="7.9103714"><ele>840.0</ele><time>2026-04-09T13:26:27.288Z</time></trkpt><trkpt lat="43.9952945" lon="7.9103272"><ele>840.0</ele><time>2026-04-09T13:26:28.288Z</time></trkpt><trkpt lat="43.9952413" lon="7.9102591"><ele>840.0</ele><time>2026-04-09T13:26:29.288Z</time></trkpt><trkpt lat="43.9952487" lon="7.9101024"><ele>840.0</ele><time>2026-04-09T13:26:31.288Z</time></trkpt><trkpt lat="43.9953135" lon="7.9100246"><ele>840.0</ele><time>2026-04-09T13:26:32.288Z</time></trkpt><trkpt lat="43.995397" lon="7.9099505"><ele>840.0</ele><time>2026-04-09T13:26:33.289Z</time></trkpt><trkpt lat="43.9954926" lon="7.9098598"><ele>840.0</ele><time>2026-04-09T13:26:34.289Z</time></trkpt><trkpt lat="43.9955831" lon="7.9097398"><ele>837.5</ele><time>2026-04-09T13:26:35.288Z</time></trkpt><trkpt lat="43.995654" lon="7.9095903"><ele>835.0</ele><time>2026-04-09T13:26:36.289Z</time></trkpt><trkpt lat="43.9957088" lon="7.9094245"><ele>832.5</ele><time>2026-04-09T13:26:37.288Z</time></trkpt><trkpt lat="43.9957517" lon="7.9092577"><ele>830.0</ele><time>2026-04-09T13:26:38.289Z</time></trkpt><trkpt lat="43.9957856" lon="7.909118"><ele>836.2</ele><time>2026-04-09T13:26:39.288Z</time></trkpt><trkpt lat="43.9958436" lon="7.9090231"><ele>842.4</ele><time>2026-04-09T13:26:40.288Z</time></trkpt><trkpt lat="43.9959143" lon="7.9089778"><ele>848.5999999999999</ele><time>2026-04-09T13:26:41.289Z</time></trkpt><trkpt lat="43.9960178" lon="7.9089724"><ele>854.8</ele><time>2026-04-09T13:26:42.292Z</time></trkpt><trkpt lat="43.9961293" lon="7.9089835"><ele>861.0</ele><time>2026-04-09T13:26:43.292Z</time></trkpt><trkpt lat="43.9962535" lon="7.9089809"><ele>861.0</ele><time>2026-04-09T13:26:44.292Z</time></trkpt><trkpt lat="43.9963699" lon="7.9089294"><ele>861.0</ele><time>2026-04-09T13:26:45.293Z</time></trkpt><trkpt lat="43.9964751" lon="7.9088571"><ele>861.0</ele><time>2026-04-09T13:26:46.293Z</time></trkpt><trkpt lat="43.9965859" lon="7.9087967"><ele>861.0</ele><time>2026-04-09T13:26:47.292Z</time></trkpt><trkpt lat="43.9966969" lon="7.9087632"><ele>864.5</ele><time>2026-04-09T13:26:48.292Z</time></trkpt><trkpt lat="43.9968167" lon="7.9087799"><ele>868.0</ele><time>2026-04-09T13:26:49.293Z</time></trkpt><trkpt lat="43.9969248" lon="7.9088238"><ele>871.5</ele><time>2026-04-09T13:26:50.292Z</time></trkpt><trkpt lat="43.9970445" lon="7.9088371"><ele>875.0</ele><time>2026-04-09T13:26:51.292Z</time></trkpt><trkpt lat="43.9971779" lon="7.9088091"><ele>875.0</ele><time>2026-04-09T13:26:52.293Z</time></trkpt><trkpt lat="43.9973101" lon="7.9087607"><ele>875.0</ele><time>2026-04-09T13:26:53.292Z</time></trkpt><trkpt lat="43.997424" lon="7.9087069"><ele>875.0</ele><time>2026-04-09T13:26:54.292Z</time></trkpt><trkpt lat="43.9975108" lon="7.9086078"><ele>875.0</ele><time>2026-04-09T13:26:55.293Z</time></trkpt><trkpt lat="43.9975592" lon="7.908472"><ele>879.5</ele><time>2026-04-09T13:26:56.292Z</time></trkpt><trkpt lat="43.9975756" lon="7.9083017"><ele>884.0</ele><time>2026-04-09T13:26:57.293Z</time></trkpt><trkpt lat="43.9975875" lon="7.9081171"><ele>888.5</ele><time>2026-04-09T13:26:58.292Z</time></trkpt><trkpt lat="43.9976101" lon="7.9079065"><ele>893.0</ele><time>2026-04-09T13:26:59.293Z</time></trkpt><trkpt lat="43.9976525" lon="7.9076839"><ele>894.0</ele><time>2026-04-09T13:27:00.293Z</time></trkpt><trkpt lat="43.9976755" lon="7.9074522"><ele>895.0</ele><time>2026-04-09T13:27:01.293Z</time></trkpt><trkpt lat="43.9976903" lon="7.9072221"><ele>896.0</ele><time>2026-04-09T13:27:02.292Z</time></trkpt><trkpt lat="43.9976989" lon="7.9070069"><ele>896.0</ele><time>2026-04-09T13:27:03.292Z</time></trkpt><trkpt lat="43.99771" lon="7.9068203"><ele>896.0</ele><time>2026-04-09T13:27:04.292Z</time></trkpt><trkpt lat="43.9977356" lon="7.9066585"><ele>896.0</ele><time>2026-04-09T13:27:05.292Z</time></trkpt><trkpt lat="43.9977879" lon="7.9065046"><ele>896.0</ele><time>2026-04-09T13:27:06.293Z</time></trkpt><trkpt lat="43.997877" lon="7.9063525"><ele>893.75</ele><time>2026-04-09T13:27:07.292Z</time></trkpt><trkpt lat="43.9979762" lon="7.9061945"><ele>891.5</ele><time>2026-04-09T13:27:08.293Z</time></trkpt><trkpt lat="43.998063" lon="7.906025"><ele>889.25</ele><time>2026-04-09T13:27:09.293Z</time></trkpt><trkpt lat="43.9981302" lon="7.9058588"><ele>887.0</ele><time>2026-04-09T13:27:10.293Z</time></trkpt><trkpt lat="43.9981813" lon="7.9057"><ele>883.0</ele><time>2026-04-09T13:27:11.293Z</time></trkpt><trkpt lat="43.9982026" lon="7.9055278"><ele>879.0</ele><time>2026-04-09T13:27:12.292Z</time></trkpt><trkpt lat="43.9981856" lon="7.9053412"><ele>875.0</ele><time>2026-04-09T13:27:13.293Z</time></trkpt><trkpt lat="43.9981337" lon="7.9051549"><ele>871.0</ele><time>2026-04-09T13:27:14.293Z</time></trkpt><trkpt lat="43.9980591" lon="7.9049671"><ele>871.0</ele><time>2026-04-09T13:27:15.292Z</time></trkpt><trkpt lat="43.9979804" lon="7.9047758"><ele>871.0</ele><time>2026-04-09T13:27:16.292Z</time></trkpt><trkpt lat="43.997906" lon="7.9045571"><ele>871.0</ele><time>2026-04-09T13:27:17.292Z</time></trkpt><trkpt lat="43.997845" lon="7.9043388"><ele>872.75</ele><time>2026-04-09T13:27:18.293Z</time></trkpt><trkpt lat="43.9978007" lon="7.90412"><ele>874.5</ele><time>2026-04-09T13:27:19.292Z</time></trkpt><trkpt lat="43.9977721" lon="7.9039245"><ele>876.25</ele><time>2026-04-09T13:27:20.292Z</time></trkpt><trkpt lat="43.9977582" lon="7.903768"><ele>878.0</ele><time>2026-04-09T13:27:21.293Z</time></trkpt><trkpt lat="43.9977664" lon="7.9036273"><ele>878.0</ele><time>2026-04-09T13:27:22.292Z</time></trkpt><trkpt lat="43.9978043" lon="7.9034935"><ele>878.0</ele><time>2026-04-09T13:27:23.293Z</time></trkpt><trkpt lat="43.9978754" lon="7.903407"><ele>878.0</ele><time>2026-04-09T13:27:24.293Z</time></trkpt><trkpt lat="43.9979505" lon="7.9033694"><ele>878.0</ele><time>2026-04-09T13:27:25.292Z</time></trkpt><trkpt lat="43.9980392" lon="7.9033771"><ele>878.0</ele><time>2026-04-09T13:27:26.293Z</time></trkpt><trkpt lat="43.9981422" lon="7.9033937"><ele>873.75</ele><time>2026-04-09T13:27:27.292Z</time></trkpt><trkpt lat="43.9982734" lon="7.9033693"><ele>869.5</ele><time>2026-04-09T13:27:28.292Z</time></trkpt><trkpt lat="43.9984068" lon="7.9033328"><ele>865.25</ele><time>2026-04-09T13:27:29.293Z</time></trkpt><trkpt lat="43.9985413" lon="7.9032818"><ele>861.0</ele><time>2026-04-09T13:27:30.292Z</time></trkpt><trkpt lat="43.998674" lon="7.9032185"><ele>871.0</ele><time>2026-04-09T13:27:31.292Z</time></trkpt><trkpt lat="43.9987965" lon="7.9031165"><ele>881.0</ele><time>2026-04-09T13:27:32.293Z</time></trkpt><trkpt lat="43.9989076" lon="7.9029751"><ele>891.0</ele><time>2026-04-09T13:27:33.292Z</time></trkpt><trkpt lat="43.9989969" lon="7.9028342"><ele>901.0</ele><time>2026-04-09T13:27:34.293Z</time></trkpt><trkpt lat="43.9990827" lon="7.9027122"><ele>908.75</ele><time>2026-04-09T13:27:35.292Z</time></trkpt><trkpt lat="43.9991829" lon="7.9026307"><ele>916.5</ele><time>2026-04-09T13:27:36.293Z</time></trkpt><trkpt lat="43.9993046" lon="7.9026068"><ele>924.25</ele><time>2026-04-09T13:27:37.293Z</time></trkpt><trkpt lat="43.9994327" lon="7.9026376"><ele>932.0</ele><time>2026-04-09T13:27:38.292Z</time></trkpt><trkpt lat="43.9995635" lon="7.9026776"><ele>932.0</ele><time>2026-04-09T13:27:39.292Z</time></trkpt><trkpt lat="43.9997074" lon="7.9026924"><ele>932.0</ele><time>2026-04-09T13:27:40.293Z</time></trkpt><trkpt lat="43.9998498" lon="7.9026716"><ele>932.0</ele><time>2026-04-09T13:27:41.292Z</time></trkpt><trkpt lat="43.9999809" lon="7.9026249"><ele>932.0</ele><time>2026-04-09T13:27:42.292Z</time></trkpt><trkpt lat="44.0000875" lon="7.902544"><ele>922.6</ele><time>2026-04-09T13:27:43.293Z</time></trkpt><trkpt lat="44.000177" lon="7.9024173"><ele>913.2</ele><time>2026-04-09T13:27:44.293Z</time></trkpt><trkpt lat="44.0002339" lon="7.9022682"><ele>903.8</ele><time>2026-04-09T13:27:45.293Z</time></trkpt><trkpt lat="44.000279" lon="7.9021337"><ele>894.4</ele><time>2026-04-09T13:27:46.293Z</time></trkpt><trkpt lat="44.0003342" lon="7.9020529"><ele>885.0</ele><time>2026-04-09T13:27:47.292Z</time></trkpt><trkpt lat="44.0004224" lon="7.9020038"><ele>885.0</ele><time>2026-04-09T13:27:48.292Z</time></trkpt><trkpt lat="44.0005318" lon="7.9019769"><ele>885.0</ele><time>2026-04-09T13:27:49.293Z</time></trkpt><trkpt lat="44.0006538" lon="7.9019448"><ele>885.0</ele><time>2026-04-09T13:27:50.292Z</time></trkpt><trkpt lat="44.0007637" lon="7.9018826"><ele>885.0</ele><time>2026-04-09T13:27:51.292Z</time></trkpt><trkpt lat="44.0008481" lon="7.9017647"><ele>886.25</ele><time>2026-04-09T13:27:52.292Z</time></trkpt><trkpt lat="44.0009001" lon="7.901593"><ele>887.5</ele><time>2026-04-09T13:27:53.292Z</time></trkpt><trkpt lat="44.0009408" lon="7.9013856"><ele>888.75</ele><time>2026-04-09T13:27:54.293Z</time></trkpt><trkpt lat="44.0009767" lon="7.901203"><ele>890.0</ele><time>2026-04-09T13:27:55.292Z</time></trkpt><trkpt lat="44.0010358" lon="7.9010609"><ele>890.0</ele><time>2026-04-09T13:27:56.292Z</time></trkpt><trkpt lat="44.0011181" lon="7.9009454"><ele>890.0</ele><time>2026-04-09T13:27:57.292Z</time></trkpt><trkpt lat="44.0011793" lon="7.9008275"><ele>890.0</ele><time>2026-04-09T13:27:58.292Z</time></trkpt><trkpt lat="44.0012041" lon="7.9006632"><ele>890.0</ele><time>2026-04-09T13:27:59.292Z</time></trkpt><trkpt lat="44.0012001" lon="7.9004793"><ele>885.75</ele><time>2026-04-09T13:28:00.292Z</time></trkpt><trkpt lat="44.001158" lon="7.9002962"><ele>881.5</ele><time>2026-04-09T13:28:01.292Z</time></trkpt><trkpt lat="44.0010934" lon="7.9001157"><ele>877.25</ele><time>2026-04-09T13:28:02.293Z</time></trkpt><trkpt lat="44.0010343" lon="7.8999172"><ele>873.0</ele><time>2026-04-09T13:28:03.292Z</time></trkpt><trkpt lat="44.0010015" lon="7.8997168"><ele>873.0</ele><time>2026-04-09T13:28:04.292Z</time></trkpt><trkpt lat="44.0009852" lon="7.8995005"><ele>873.0</ele><time>2026-04-09T13:28:05.293Z</time></trkpt><trkpt lat="44.0009942" lon="7.8992735"><ele>873.0</ele><time>2026-04-09T13:28:06.292Z</time></trkpt><trkpt lat="44.0010083" lon="7.8990272"><ele>874.6666666666667</ele><time>2026-04-09T13:28:07.293Z</time></trkpt><trkpt lat="44.0010193" lon="7.8987928"><ele>876.3333333333334</ele><time>2026-04-09T13:28:08.292Z</time></trkpt><trkpt lat="44.0010232" lon="7.8985832"><ele>878.0</ele><time>2026-04-09T13:28:09.293Z</time></trkpt><trkpt lat="44.0010312" lon="7.8984011"><ele>878.0</ele><time>2026-04-09T13:28:10.293Z</time></trkpt><trkpt lat="44.0010542" lon="7.898249"><ele>878.0</ele><time>2026-04-09T13:28:11.292Z</time></trkpt><trkpt lat="44.001111" lon="7.8981233"><ele>878.0</ele><time>2026-04-09T13:28:12.293Z</time></trkpt><trkpt lat="44.0011931" lon="7.8980488"><ele>878.0</ele><time>2026-04-09T13:28:13.293Z</time></trkpt><trkpt lat="44.0012978" lon="7.89801"><ele>878.0</ele><time>2026-04-09T13:28:14.293Z</time></trkpt><trkpt lat="44.0014204" lon="7.8979933"><ele>878.0</ele><time>2026-04-09T13:28:15.292Z</time></trkpt><trkpt lat="44.0015425" lon="7.8979812"><ele>878.0</ele><time>2026-04-09T13:28:16.292Z</time></trkpt><trkpt lat="44.00165" lon="7.8979177"><ele>878.0</ele><time>2026-04-09T13:28:17.293Z</time></trkpt><trkpt lat="44.001735" lon="7.8978027"><ele>878.0</ele><time>2026-04-09T13:28:18.292Z</time></trkpt><trkpt lat="44.0017865" lon="7.8976395"><ele>882.75</ele><time>2026-04-09T13:28:19.292Z</time></trkpt><trkpt lat="44.0018181" lon="7.8974607"><ele>887.5</ele><time>2026-04-09T13:28:20.292Z</time></trkpt><trkpt lat="44.0018663" lon="7.897307"><ele>892.25</ele><time>2026-04-09T13:28:21.293Z</time></trkpt><trkpt lat="44.0019009" lon="7.8971537"><ele>897.0</ele><time>2026-04-09T13:28:22.293Z</time></trkpt><trkpt lat="44.0019382" lon="7.8970046"><ele>897.0</ele><time>2026-04-09T13:28:23.293Z</time></trkpt><trkpt lat="44.0019315" lon="7.8968339"><ele>897.0</ele><time>2026-04-09T13:28:24.292Z</time></trkpt><trkpt lat="44.0018823" lon="7.8966737"><ele>897.0</ele><time>2026-04-09T13:28:25.292Z</time></trkpt><trkpt lat="44.0018441" lon="7.8965149"><ele>897.0</ele><time>2026-04-09T13:28:26.292Z</time></trkpt><trkpt lat="44.0018554" lon="7.896378"><ele>894.25</ele><time>2026-04-09T13:28:27.292Z</time></trkpt><trkpt lat="44.0019041" lon="7.8962161"><ele>891.5</ele><time>2026-04-09T13:28:28.293Z</time></trkpt><trkpt lat="44.0019952" lon="7.8960675"><ele>888.75</ele><time>2026-04-09T13:28:29.292Z</time></trkpt><trkpt lat="44.0020778" lon="7.8958897"><ele>886.0</ele><time>2026-04-09T13:28:30.292Z</time></trkpt><trkpt lat="44.0021496" lon="7.8956966"><ele>883.5</ele><time>2026-04-09T13:28:31.293Z</time></trkpt><trkpt lat="44.0022134" lon="7.8955178"><ele>881.0</ele><time>2026-04-09T13:28:32.293Z</time></trkpt><trkpt lat="44.0022926" lon="7.8953664"><ele>878.5</ele><time>2026-04-09T13:28:33.293Z</time></trkpt><trkpt lat="44.0024102" lon="7.8952258"><ele>876.0</ele><time>2026-04-09T13:28:34.292Z</time></trkpt><trkpt lat="44.0025174" lon="7.8951011"><ele>884.5</ele><time>2026-04-09T13:28:35.293Z</time></trkpt><trkpt lat="44.0026018" lon="7.8949927"><ele>893.0</ele><time>2026-04-09T13:28:36.293Z</time></trkpt><trkpt lat="44.0026378" lon="7.8948497"><ele>901.5</ele><time>2026-04-09T13:28:37.292Z</time></trkpt><trkpt lat="44.0026291" lon="7.8946655"><ele>910.0</ele><time>2026-04-09T13:28:38.292Z</time></trkpt><trkpt lat="44.0025981" lon="7.8944795"><ele>910.0</ele><time>2026-04-09T13:28:39.293Z</time></trkpt><trkpt lat="44.0025929" lon="7.8943136"><ele>910.0</ele><time>2026-04-09T13:28:40.293Z</time></trkpt><trkpt lat="44.0026325" lon="7.8941618"><ele>910.0</ele><time>2026-04-09T13:28:41.293Z</time></trkpt><trkpt lat="44.0026455" lon="7.8940163"><ele>910.0</ele><time>2026-04-09T13:28:42.292Z</time></trkpt><trkpt lat="44.0026041" lon="7.8938463"><ele>909.5</ele><time>2026-04-09T13:28:43.293Z</time></trkpt><trkpt lat="44.0025342" lon="7.8936793"><ele>909.0</ele><time>2026-04-09T13:28:44.293Z</time></trkpt><trkpt lat="44.0024365" lon="7.8935214"><ele>908.5</ele><time>2026-04-09T13:28:45.293Z</time></trkpt><trkpt lat="44.0023469" lon="7.8933645"><ele>908.0</ele><time>2026-04-09T13:28:46.293Z</time></trkpt><trkpt lat="44.0022799" lon="7.8932055"><ele>902.75</ele><time>2026-04-09T13:28:47.292Z</time></trkpt><trkpt lat="44.0022312" lon="7.8930376"><ele>897.5</ele><time>2026-04-09T13:28:48.293Z</time></trkpt><trkpt lat="44.0022141" lon="7.8928785"><ele>892.25</ele><time>2026-04-09T13:28:49.293Z</time></trkpt><trkpt lat="44.002246" lon="7.8927117"><ele>887.0</ele><time>2026-04-09T13:28:50.292Z</time></trkpt><trkpt lat="44.0022809" lon="7.8925553"><ele>887.0</ele><time>2026-04-09T13:28:51.293Z</time></trkpt><trkpt lat="44.002259" lon="7.8923899"><ele>887.0</ele><time>2026-04-09T13:28:52.293Z</time></trkpt><trkpt lat="44.0021868" lon="7.8922427"><ele>887.0</ele><time>2026-04-09T13:28:53.293Z</time></trkpt><trkpt lat="44.0021101" lon="7.8921072"><ele>887.0</ele><time>2026-04-09T13:28:54.292Z</time></trkpt><trkpt lat="44.0020582" lon="7.891929"><ele>891.6666666666667</ele><time>2026-04-09T13:28:55.293Z</time></trkpt><trkpt lat="44.0020114" lon="7.8917208"><ele>896.3333333333333</ele><time>2026-04-09T13:28:56.292Z</time></trkpt><trkpt lat="44.0019737" lon="7.8915146"><ele>901.0</ele><time>2026-04-09T13:28:57.292Z</time></trkpt><trkpt lat="44.0019544" lon="7.8913049"><ele>901.0</ele><time>2026-04-09T13:28:58.292Z</time></trkpt><trkpt lat="44.0019327" lon="7.8910847"><ele>901.0</ele><time>2026-04-09T13:28:59.292Z</time></trkpt><trkpt lat="44.0018844" lon="7.8908613"><ele>901.0</ele><time>2026-04-09T13:29:00.293Z</time></trkpt><trkpt lat="44.0018235" lon="7.8906153"><ele>904.6666666666666</ele><time>2026-04-09T13:29:01.292Z</time></trkpt><trkpt lat="44.0017678" lon="7.8903625"><ele>908.3333333333333</ele><time>2026-04-09T13:29:02.293Z</time></trkpt><trkpt lat="44.0017136" lon="7.8901187"><ele>912.0</ele><time>2026-04-09T13:29:03.292Z</time></trkpt><trkpt lat="44.0016583" lon="7.889902"><ele>906.5</ele><time>2026-04-09T13:29:04.293Z</time></trkpt><trkpt lat="44.0015824" lon="7.8897159"><ele>901.0</ele><time>2026-04-09T13:29:05.293Z</time></trkpt><trkpt lat="44.0014839" lon="7.8895556"><ele>895.5</ele><time>2026-04-09T13:29:06.293Z</time></trkpt><trkpt lat="44.0013779" lon="7.8894275"><ele>890.0</ele><time>2026-04-09T13:29:07.293Z</time></trkpt><trkpt lat="44.0013021" lon="7.8892877"><ele>897.0</ele><time>2026-04-09T13:29:08.293Z</time></trkpt><trkpt lat="44.0012547" lon="7.8890966"><ele>904.0</ele><time>2026-04-09T13:29:09.293Z</time></trkpt><trkpt lat="44.0012009" lon="7.888891"><ele>911.0</ele><time>2026-04-09T13:29:10.293Z</time></trkpt><trkpt lat="44.0011013" lon="7.8886904"><ele>911.0</ele><time>2026-04-09T13:29:11.292Z</time></trkpt><trkpt lat="44.001003" lon="7.8885001"><ele>911.0</ele><time>2026-04-09T13:29:12.293Z</time></trkpt><trkpt lat="44.0009228" lon="7.888303"><ele>911.0</ele><time>2026-04-09T13:29:13.292Z</time></trkpt><trkpt lat="44.0008631" lon="7.8880916"><ele>910.0</ele><time>2026-04-09T13:29:14.292Z</time></trkpt><trkpt lat="44.0008084" lon="7.8878692"><ele>909.0</ele><time>2026-04-09T13:29:15.292Z</time></trkpt><trkpt lat="44.0007307" lon="7.8876754"><ele>908.0</ele><time>2026-04-09T13:29:16.292Z</time></trkpt><trkpt lat="44.0006341" lon="7.8875171"><ele>910.0</ele><time>2026-04-09T13:29:17.293Z</time></trkpt><trkpt lat="44.0005412" lon="7.8873824"><ele>912.0</ele><time>2026-04-09T13:29:18.293Z</time></trkpt><trkpt lat="44.0004725" lon="7.8872519"><ele>914.0</ele><time>2026-04-09T13:29:19.293Z</time></trkpt><trkpt lat="44.0004422" lon="7.8870949"><ele>916.0</ele><time>2026-04-09T13:29:20.293Z</time></trkpt><trkpt lat="44.0004613" lon="7.886941"><ele>913.75</ele><time>2026-04-09T13:29:21.292Z</time></trkpt><trkpt lat="44.0005125" lon="7.8867596"><ele>911.5</ele><time>2026-04-09T13:29:22.293Z</time></trkpt><trkpt lat="44.000564" lon="7.886557"><ele>909.25</ele><time>2026-04-09T13:29:23.293Z</time></trkpt><trkpt lat="44.0005861" lon="7.8863518"><ele>907.0</ele><time>2026-04-09T13:29:24.292Z</time></trkpt><trkpt lat="44.0005897" lon="7.8861636"><ele>907.0</ele><time>2026-04-09T13:29:25.292Z</time></trkpt><trkpt lat="44.0005905" lon="7.8859898"><ele>907.0</ele><time>2026-04-09T13:29:26.293Z</time></trkpt><trkpt lat="44.0006048" lon="7.8858137"><ele>907.0</ele><time>2026-04-09T13:29:27.292Z</time></trkpt><trkpt lat="44.0006516" lon="7.8856474"><ele>907.0</ele><time>2026-04-09T13:29:28.292Z</time></trkpt><trkpt lat="44.000749" lon="7.8855034"><ele>918.6666666666666</ele><time>2026-04-09T13:29:29.292Z</time></trkpt><trkpt lat="44.0008414" lon="7.8853493"><ele>930.3333333333333</ele><time>2026-04-09T13:29:30.292Z</time></trkpt><trkpt lat="44.0009132" lon="7.8851586"><ele>942.0</ele><time>2026-04-09T13:29:31.292Z</time></trkpt><trkpt lat="44.0009633" lon="7.8849243"><ele>942.0</ele><time>2026-04-09T13:29:32.293Z</time></trkpt><trkpt lat="44.0010044" lon="7.8846828"><ele>942.0</ele><time>2026-04-09T13:29:33.293Z</time></trkpt><trkpt lat="44.0010387" lon="7.8844563"><ele>942.0</ele><time>2026-04-09T13:29:34.292Z</time></trkpt><trkpt lat="44.0010564" lon="7.8842415"><ele>942.0</ele><time>2026-04-09T13:29:35.292Z</time></trkpt><trkpt lat="44.0010419" lon="7.8840476"><ele>942.0</ele><time>2026-04-09T13:29:36.292Z</time></trkpt><trkpt lat="44.0009745" lon="7.8838513"><ele>942.0</ele><time>2026-04-09T13:29:37.292Z</time></trkpt><trkpt lat="44.0008804" lon="7.88366"><ele>935.3333333333333</ele><time>2026-04-09T13:29:38.292Z</time></trkpt><trkpt lat="44.0007551" lon="7.8834575"><ele>928.6666666666666</ele><time>2026-04-09T13:29:39.292Z</time></trkpt><trkpt lat="44.0006287" lon="7.8832481"><ele>922.0</ele><time>2026-04-09T13:29:40.293Z</time></trkpt><trkpt lat="44.000494" lon="7.8830311"><ele>922.0</ele><time>2026-04-09T13:29:41.293Z</time></trkpt><trkpt lat="44.0003605" lon="7.8828067"><ele>922.0</ele><time>2026-04-09T13:29:42.293Z</time></trkpt><trkpt lat="44.0002334" lon="7.8825928"><ele>922.0</ele><time>2026-04-09T13:29:43.293Z</time></trkpt><trkpt lat="44.000118" lon="7.8824101"><ele>927.25</ele><time>2026-04-09T13:29:44.293Z</time></trkpt><trkpt lat="44.0000262" lon="7.8822478"><ele>932.5</ele><time>2026-04-09T13:29:45.293Z</time></trkpt><trkpt lat="43.9999537" lon="7.8820982"><ele>937.75</ele><time>2026-04-09T13:29:46.293Z</time></trkpt><trkpt lat="43.9999114" lon="7.8819578"><ele>943.0</ele><time>2026-04-09T13:29:47.292Z</time></trkpt><trkpt lat="43.9999172" lon="7.8818086"><ele>945.0</ele><time>2026-04-09T13:29:48.292Z</time></trkpt><trkpt lat="43.9999732" lon="7.8816658"><ele>947.0</ele><time>2026-04-09T13:29:49.293Z</time></trkpt><trkpt lat="44.00007" lon="7.881535"><ele>949.0</ele><time>2026-04-09T13:29:50.292Z</time></trkpt><trkpt lat="44.0001985" lon="7.8814129"><ele>951.0</ele><time>2026-04-09T13:29:51.292Z</time></trkpt><trkpt lat="44.0003239" lon="7.8812929"><ele>951.0</ele><time>2026-04-09T13:29:52.292Z</time></trkpt><trkpt lat="44.000424" lon="7.8811662"><ele>951.0</ele><time>2026-04-09T13:29:53.293Z</time></trkpt><trkpt lat="44.0004935" lon="7.8810258"><ele>951.0</ele><time>2026-04-09T13:29:54.293Z</time></trkpt><trkpt lat="44.0005367" lon="7.8808644"><ele>951.0</ele><time>2026-04-09T13:29:55.292Z</time></trkpt><trkpt lat="44.0005873" lon="7.8807134"><ele>947.25</ele><time>2026-04-09T13:29:56.293Z</time></trkpt><trkpt lat="44.0006676" lon="7.8805835"><ele>943.5</ele><time>2026-04-09T13:29:57.293Z</time></trkpt><trkpt lat="44.0007662" lon="7.8804704"><ele>939.75</ele><time>2026-04-09T13:29:58.293Z</time></trkpt><trkpt lat="44.0008446" lon="7.8803174"><ele>936.0</ele><time>2026-04-09T13:29:59.293Z</time></trkpt><trkpt lat="44.0008815" lon="7.8801348"><ele>933.0</ele><time>2026-04-09T13:30:00.292Z</time></trkpt><trkpt lat="44.0008813" lon="7.8799377"><ele>930.0</ele><time>2026-04-09T13:30:01.293Z</time></trkpt><trkpt lat="44.0008365" lon="7.8797446"><ele>927.0</ele><time>2026-04-09T13:30:02.292Z</time></trkpt><trkpt lat="44.0007639" lon="7.8795515"><ele>924.0</ele><time>2026-04-09T13:30:03.292Z</time></trkpt><trkpt lat="44.0007254" lon="7.8793604"><ele>923.25</ele><time>2026-04-09T13:30:04.293Z</time></trkpt><trkpt lat="44.0007294" lon="7.879173"><ele>922.5</ele><time>2026-04-09T13:30:05.292Z</time></trkpt><trkpt lat="44.0007566" lon="7.8790019"><ele>921.75</ele><time>2026-04-09T13:30:06.292Z</time></trkpt><trkpt lat="44.0008271" lon="7.878853"><ele>921.0</ele><time>2026-04-09T13:30:07.292Z</time></trkpt><trkpt lat="44.0008916" lon="7.8787066"><ele>931.25</ele><time>2026-04-09T13:30:08.293Z</time></trkpt><trkpt lat="44.000901" lon="7.8785233"><ele>941.5</ele><time>2026-04-09T13:30:09.292Z</time></trkpt><trkpt lat="44.0008771" lon="7.878314"><ele>951.75</ele><time>2026-04-09T13:30:10.292Z</time></trkpt><trkpt lat="44.0008677" lon="7.8781261"><ele>962.0</ele><time>2026-04-09T13:30:11.292Z</time></trkpt><trkpt lat="44.0008901" lon="7.8779423"><ele>962.0</ele><time>2026-04-09T13:30:12.292Z</time></trkpt><trkpt lat="44.0009342" lon="7.8777912"><ele>962.0</ele><time>2026-04-09T13:30:13.292Z</time></trkpt><trkpt lat="44.0009558" lon="7.877641"><ele>962.0</ele><time>2026-04-09T13:30:14.292Z</time></trkpt><trkpt lat="44.0009183" lon="7.8774648"><ele>962.0</ele><time>2026-04-09T13:30:15.292Z</time></trkpt><trkpt lat="44.0008467" lon="7.8772763"><ele>957.0</ele><time>2026-04-09T13:30:16.292Z</time></trkpt><trkpt lat="44.0007894" lon="7.8771038"><ele>952.0</ele><time>2026-04-09T13:30:17.292Z</time></trkpt><trkpt lat="44.0007556" lon="7.8769386"><ele>947.0</ele><time>2026-04-09T13:30:18.293Z</time></trkpt><trkpt lat="44.0007551" lon="7.8767742"><ele>942.0</ele><time>2026-04-09T13:30:19.293Z</time></trkpt><trkpt lat="44.0008117" lon="7.8766092"><ele>951.25</ele><time>2026-04-09T13:30:20.293Z</time></trkpt><trkpt lat="44.0008812" lon="7.8764486"><ele>960.5</ele><time>2026-04-09T13:30:21.292Z</time></trkpt><trkpt lat="44.0009349" lon="7.8762985"><ele>969.75</ele><time>2026-04-09T13:30:22.292Z</time></trkpt><trkpt lat="44.0009297" lon="7.8761368"><ele>979.0</ele><time>2026-04-09T13:30:23.292Z</time></trkpt><trkpt lat="44.0008729" lon="7.8759686"><ele>970.0</ele><time>2026-04-09T13:30:24.292Z</time></trkpt><trkpt lat="44.0007826" lon="7.8758058"><ele>961.0</ele><time>2026-04-09T13:30:25.292Z</time></trkpt><trkpt lat="44.0006908" lon="7.8756326"><ele>952.0</ele><time>2026-04-09T13:30:26.293Z</time></trkpt><trkpt lat="44.0006219" lon="7.87545"><ele>952.0</ele><time>2026-04-09T13:30:27.292Z</time></trkpt><trkpt lat="44.0005584" lon="7.8752725"><ele>952.0</ele><time>2026-04-09T13:30:28.293Z</time></trkpt><trkpt lat="44.0004904" lon="7.8751234"><ele>952.0</ele><time>2026-04-09T13:30:29.293Z</time></trkpt><trkpt lat="44.0004246" lon="7.8749772"><ele>952.0</ele><time>2026-04-09T13:30:30.292Z</time></trkpt><trkpt lat="44.0003837" lon="7.8748219"><ele>954.25</ele><time>2026-04-09T13:30:31.293Z</time></trkpt><trkpt lat="44.0003807" lon="7.8746391"><ele>956.5</ele><time>2026-04-09T13:30:32.293Z</time></trkpt><trkpt lat="44.0004058" lon="7.8744278"><ele>958.75</ele><time>2026-04-09T13:30:33.292Z</time></trkpt><trkpt lat="44.00043" lon="7.8742294"><ele>961.0</ele><time>2026-04-09T13:30:34.292Z</time></trkpt><trkpt lat="44.0004344" lon="7.8740442"><ele>963.0</ele><time>2026-04-09T13:30:35.293Z</time></trkpt><trkpt lat="44.0003974" lon="7.8738564"><ele>965.0</ele><time>2026-04-09T13:30:36.292Z</time></trkpt><trkpt lat="44.0003331" lon="7.8736815"><ele>967.0</ele><time>2026-04-09T13:30:37.292Z</time></trkpt><trkpt lat="44.0002471" lon="7.8735117"><ele>969.0</ele><time>2026-04-09T13:30:38.292Z</time></trkpt><trkpt lat="44.000157" lon="7.8733346"><ele>972.5</ele><time>2026-04-09T13:30:39.292Z</time></trkpt><trkpt lat="44.0000559" lon="7.8731693"><ele>976.0</ele><time>2026-04-09T13:30:40.292Z</time></trkpt><trkpt lat="43.999959" lon="7.8730191"><ele>979.5</ele><time>2026-04-09T13:30:41.293Z</time></trkpt><trkpt lat="43.9998709" lon="7.8728885"><ele>983.0</ele><time>2026-04-09T13:30:42.293Z</time></trkpt><trkpt lat="43.9997875" lon="7.872774"><ele>983.0000000000001</ele><time>2026-04-09T13:30:43.292Z</time></trkpt><trkpt lat="43.9997116" lon="7.8726809"><ele>983.0</ele><time>2026-04-09T13:30:44.292Z</time></trkpt><trkpt lat="43.9996368" lon="7.8725999"><ele>983.0</ele><time>2026-04-09T13:30:45.292Z</time></trkpt><trkpt lat="43.999565" lon="7.8725382"><ele>983.0</ele><time>2026-04-09T13:30:46.293Z</time></trkpt><trkpt lat="43.9994976" lon="7.8724864"><ele>983.0000000000001</ele><time>2026-04-09T13:30:47.292Z</time></trkpt><trkpt lat="43.999431" lon="7.8724384"><ele>983.0</ele><time>2026-04-09T13:30:48.292Z</time></trkpt><trkpt lat="43.9993382" lon="7.872376"><ele>982.8333333333334</ele><time>2026-04-09T13:30:50.292Z</time></trkpt><trkpt lat="43.9992695" lon="7.8723803"><ele>982.6666666666667</ele><time>2026-04-09T13:30:53.292Z</time></trkpt><trkpt lat="43.9992141" lon="7.8724529"><ele>982.5</ele><time>2026-04-09T13:30:56.292Z</time></trkpt><trkpt lat="43.9991541" lon="7.8723899"><ele>982.3333333333333</ele><time>2026-04-09T13:31:41.293Z</time></trkpt><trkpt lat="43.9991166" lon="7.8722788"><ele>982.1666666666666</ele><time>2026-04-09T13:31:44.292Z</time></trkpt><trkpt lat="43.9990532" lon="7.872189"><ele>982.0</ele><time>2026-04-09T13:31:46.293Z</time></trkpt><trkpt lat="43.9989633" lon="7.8720979"><ele>982.4000000000001</ele><time>2026-04-09T13:31:48.292Z</time></trkpt><trkpt lat="43.9988513" lon="7.8720046"><ele>982.8000000000001</ele><time>2026-04-09T13:31:50.292Z</time></trkpt><trkpt lat="43.9987768" lon="7.8719451"><ele>983.2</ele><time>2026-04-09T13:31:51.293Z</time></trkpt><trkpt lat="43.9987033" lon="7.8718809"><ele>983.6</ele><time>2026-04-09T13:31:52.292Z</time></trkpt><trkpt lat="43.9986392" lon="7.8718092"><ele>984.0</ele><time>2026-04-09T13:31:53.292Z</time></trkpt><trkpt lat="43.9985853" lon="7.8717223"><ele>984.0</ele><time>2026-04-09T13:31:54.293Z</time></trkpt><trkpt lat="43.9985281" lon="7.8716536"><ele>984.0</ele><time>2026-04-09T13:31:55.292Z</time></trkpt><trkpt lat="43.9984697" lon="7.8715923"><ele>984.0</ele><time>2026-04-09T13:31:56.293Z</time></trkpt><trkpt lat="43.9984095" lon="7.8715351"><ele>984.0</ele><time>2026-04-09T13:31:57.292Z</time></trkpt><trkpt lat="43.9983418" lon="7.8714733"><ele>984.0</ele><time>2026-04-09T13:31:58.293Z</time></trkpt><trkpt lat="43.9982684" lon="7.8713991"><ele>984.0</ele><time>2026-04-09T13:31:59.292Z</time></trkpt><trkpt lat="43.9981899" lon="7.8713006"><ele>984.0</ele><time>2026-04-09T13:32:00.293Z</time></trkpt><trkpt lat="43.998118" lon="7.8711839"><ele>984.0000000000001</ele><time>2026-04-09T13:32:01.293Z</time></trkpt><trkpt lat="43.9980501" lon="7.8710512"><ele>984.0000000000001</ele><time>2026-04-09T13:32:02.293Z</time></trkpt><trkpt lat="43.9979999" lon="7.8709465"><ele>984.0</ele><time>2026-04-09T13:32:03.293Z</time></trkpt><trkpt lat="43.9979669" lon="7.8708428"><ele>984.0</ele><time>2026-04-09T13:32:05.293Z</time></trkpt><trkpt lat="43.9979344" lon="7.870754"><ele>982.4000000000001</ele><time>2026-04-09T13:32:29.292Z</time></trkpt><trkpt lat="43.9978654" lon="7.8706175"><ele>980.8000000000001</ele><time>2026-04-09T13:32:31.293Z</time></trkpt><trkpt lat="43.9978302" lon="7.8705161"><ele>979.1999999999999</ele><time>2026-04-09T13:32:32.293Z</time></trkpt><trkpt lat="43.997788" lon="7.8703962"><ele>977.5999999999999</ele><time>2026-04-09T13:32:33.293Z</time></trkpt><trkpt lat="43.9977417" lon="7.8702347"><ele>976.0</ele><time>2026-04-09T13:32:34.292Z</time></trkpt><trkpt lat="43.9976853" lon="7.8700644"><ele>973.0</ele><time>2026-04-09T13:32:35.293Z</time></trkpt><trkpt lat="43.9976367" lon="7.8698789"><ele>970.0</ele><time>2026-04-09T13:32:36.293Z</time></trkpt><trkpt lat="43.9975835" lon="7.8696934"><ele>967.0</ele><time>2026-04-09T13:32:37.292Z</time></trkpt><trkpt lat="43.9975059" lon="7.8695194"><ele>964.0</ele><time>2026-04-09T13:32:38.293Z</time></trkpt><trkpt lat="43.9974101" lon="7.8693741"><ele>971.3333333333333</ele><time>2026-04-09T13:32:39.293Z</time></trkpt><trkpt lat="43.9972849" lon="7.8692343"><ele>978.6666666666667</ele><time>2026-04-09T13:32:40.292Z</time></trkpt><trkpt lat="43.9971501" lon="7.8691145"><ele>986.0</ele><time>2026-04-09T13:32:41.292Z</time></trkpt><trkpt lat="43.9970108" lon="7.8690109"><ele>986.0</ele><time>2026-04-09T13:32:42.292Z</time></trkpt><trkpt lat="43.9968733" lon="7.8689168"><ele>986.0</ele><time>2026-04-09T13:32:43.292Z</time></trkpt><trkpt lat="43.9967635" lon="7.8688161"><ele>986.0</ele><time>2026-04-09T13:32:44.293Z</time></trkpt><trkpt lat="43.9966778" lon="7.868694"><ele>986.0</ele><time>2026-04-09T13:32:45.293Z</time></trkpt><trkpt lat="43.9966138" lon="7.8685348"><ele>988.0</ele><time>2026-04-09T13:32:46.292Z</time></trkpt><trkpt lat="43.9965805" lon="7.8683568"><ele>990.0</ele><time>2026-04-09T13:32:47.292Z</time></trkpt><trkpt lat="43.9965622" lon="7.8681627"><ele>992.0</ele><time>2026-04-09T13:32:48.293Z</time></trkpt><trkpt lat="43.996535" lon="7.8679442"><ele>994.0</ele><time>2026-04-09T13:32:49.292Z</time></trkpt><trkpt lat="43.9964774" lon="7.8677341"><ele>991.3333333333333</ele><time>2026-04-09T13:32:50.292Z</time></trkpt><trkpt lat="43.9963862" lon="7.8675281"><ele>988.6666666666667</ele><time>2026-04-09T13:32:51.292Z</time></trkpt><trkpt lat="43.9962898" lon="7.8673188"><ele>986.0</ele><time>2026-04-09T13:32:52.293Z</time></trkpt><trkpt lat="43.996202" lon="7.8671017"><ele>986.0</ele><time>2026-04-09T13:32:53.293Z</time></trkpt><trkpt lat="43.996138" lon="7.8668552"><ele>986.0</ele><time>2026-04-09T13:32:54.293Z</time></trkpt><trkpt lat="43.9960789" lon="7.8666032"><ele>986.0</ele><time>2026-04-09T13:32:55.293Z</time></trkpt><trkpt lat="43.9960123" lon="7.8663533"><ele>984.3333333333334</ele><time>2026-04-09T13:32:56.292Z</time></trkpt><trkpt lat="43.9959467" lon="7.8661159"><ele>982.6666666666667</ele><time>2026-04-09T13:32:57.292Z</time></trkpt><trkpt lat="43.9958818" lon="7.8659021"><ele>981.0</ele><time>2026-04-09T13:32:58.293Z</time></trkpt><trkpt lat="43.9958099" lon="7.8657135"><ele>985.0</ele><time>2026-04-09T13:32:59.292Z</time></trkpt><trkpt lat="43.9957558" lon="7.8655344"><ele>989.0</ele><time>2026-04-09T13:33:00.293Z</time></trkpt><trkpt lat="43.9957325" lon="7.8653624"><ele>993.0</ele><time>2026-04-09T13:33:01.294Z</time></trkpt><trkpt lat="43.9957437" lon="7.8651884"><ele>997.0</ele><time>2026-04-09T13:33:02.293Z</time></trkpt><trkpt lat="43.9957835" lon="7.8650102"><ele>997.0</ele><time>2026-04-09T13:33:03.294Z</time></trkpt><trkpt lat="43.9958163" lon="7.8648142"><ele>997.0</ele><time>2026-04-09T13:33:04.293Z</time></trkpt><trkpt lat="43.9958016" lon="7.8646041"><ele>997.0</ele><time>2026-04-09T13:33:05.293Z</time></trkpt><trkpt lat="43.9957501" lon="7.8644195"><ele>997.0</ele><time>2026-04-09T13:33:06.293Z</time></trkpt><trkpt lat="43.9957011" lon="7.8642362"><ele>997.0</ele><time>2026-04-09T13:33:07.294Z</time></trkpt><trkpt lat="43.9956797" lon="7.8640335"><ele>997.0</ele><time>2026-04-09T13:33:08.294Z</time></trkpt><trkpt lat="43.995672" lon="7.8638218"><ele>997.0</ele><time>2026-04-09T13:33:09.293Z</time></trkpt><trkpt lat="43.995665" lon="7.8636033"><ele>996.0</ele><time>2026-04-09T13:33:10.294Z</time></trkpt><trkpt lat="43.9956591" lon="7.8633958"><ele>995.0</ele><time>2026-04-09T13:33:11.293Z</time></trkpt><trkpt lat="43.9956639" lon="7.8632018"><ele>994.0</ele><time>2026-04-09T13:33:12.293Z</time></trkpt><trkpt lat="43.9956441" lon="7.8630461"><ele>993.0</ele><time>2026-04-09T13:33:13.293Z</time></trkpt><trkpt lat="43.9955949" lon="7.8629185"><ele>993.0</ele><time>2026-04-09T13:33:14.294Z</time></trkpt><trkpt lat="43.9955078" lon="7.8628341"><ele>993.0</ele><time>2026-04-09T13:33:15.294Z</time></trkpt><trkpt lat="43.995404" lon="7.8627977"><ele>993.0</ele><time>2026-04-09T13:33:16.293Z</time></trkpt><trkpt lat="43.9952749" lon="7.8627817"><ele>993.0</ele><time>2026-04-09T13:33:17.294Z</time></trkpt><trkpt lat="43.9951424" lon="7.8627494"><ele>993.0</ele><time>2026-04-09T13:33:18.294Z</time></trkpt><trkpt lat="43.9950091" lon="7.8627034"><ele>993.0</ele><time>2026-04-09T13:33:19.293Z</time></trkpt><trkpt lat="43.9948719" lon="7.8626462"><ele>993.0</ele><time>2026-04-09T13:33:20.293Z</time></trkpt><trkpt lat="43.9947164" lon="7.8625736"><ele>993.0</ele><time>2026-04-09T13:33:21.293Z</time></trkpt><trkpt lat="43.9945498" lon="7.862493"><ele>995.3333333333333</ele><time>2026-04-09T13:33:22.297Z</time></trkpt><trkpt lat="43.9943809" lon="7.8624064"><ele>997.6666666666666</ele><time>2026-04-09T13:33:23.296Z</time></trkpt><trkpt lat="43.994208" lon="7.8623235"><ele>1000.0</ele><time>2026-04-09T13:33:24.297Z</time></trkpt><trkpt lat="43.9940422" lon="7.862249"><ele>1005.0</ele><time>2026-04-09T13:33:25.297Z</time></trkpt><trkpt lat="43.9938933" lon="7.8621855"><ele>1010.0</ele><time>2026-04-09T13:33:26.296Z</time></trkpt><trkpt lat="43.993766" lon="7.8621211"><ele>1015.0</ele><time>2026-04-09T13:33:27.296Z</time></trkpt><trkpt lat="43.9936796" lon="7.8620473"><ele>1020.0</ele><time>2026-04-09T13:33:28.297Z</time></trkpt><trkpt lat="43.9936348" lon="7.8619559"><ele>1020.0</ele><time>2026-04-09T13:33:29.296Z</time></trkpt><trkpt lat="43.9936252" lon="7.8618372"><ele>1020.0</ele><time>2026-04-09T13:33:30.297Z</time></trkpt><trkpt lat="43.9936438" lon="7.8617183"><ele>1020.0</ele><time>2026-04-09T13:33:31.296Z</time></trkpt><trkpt lat="43.9936926" lon="7.8615904"><ele>1020.0</ele><time>2026-04-09T13:33:32.297Z</time></trkpt><trkpt lat="43.9937567" lon="7.8614479"><ele>1020.0</ele><time>2026-04-09T13:33:33.297Z</time></trkpt><trkpt lat="43.9938016" lon="7.8612756"><ele>1013.75</ele><time>2026-04-09T13:33:34.297Z</time></trkpt><trkpt lat="43.9938277" lon="7.8610949"><ele>1007.5</ele><time>2026-04-09T13:33:35.296Z</time></trkpt><trkpt lat="43.9938161" lon="7.8609083"><ele>1001.25</ele><time>2026-04-09T13:33:36.297Z</time></trkpt><trkpt lat="43.9937781" lon="7.8607199"><ele>995.0</ele><time>2026-04-09T13:33:37.296Z</time></trkpt><trkpt lat="43.9937325" lon="7.8605383"><ele>995.0</ele><time>2026-04-09T13:33:38.297Z</time></trkpt><trkpt lat="43.9937086" lon="7.8603745"><ele>995.0</ele><time>2026-04-09T13:33:39.296Z</time></trkpt><trkpt lat="43.9937162" lon="7.8602284"><ele>995.0</ele><time>2026-04-09T13:33:40.297Z</time></trkpt><trkpt lat="43.9937577" lon="7.8601105"><ele>995.0</ele><time>2026-04-09T13:33:41.296Z</time></trkpt><trkpt lat="43.9938267" lon="7.8600361"><ele>995.0</ele><time>2026-04-09T13:33:42.296Z</time></trkpt><trkpt lat="43.9939214" lon="7.8599815"><ele>997.0</ele><time>2026-04-09T13:33:43.297Z</time></trkpt><trkpt lat="43.9940331" lon="7.8599214"><ele>999.0</ele><time>2026-04-09T13:33:44.296Z</time></trkpt><trkpt lat="43.9941551" lon="7.859829"><ele>1001.0</ele><time>2026-04-09T13:33:45.296Z</time></trkpt><trkpt lat="43.994276" lon="7.859726"><ele>1003.0</ele><time>2026-04-09T13:33:46.297Z</time></trkpt><trkpt lat="43.9943912" lon="7.8596187"><ele>1001.5</ele><time>2026-04-09T13:33:47.297Z</time></trkpt><trkpt lat="43.9944946" lon="7.8594995"><ele>1000.0</ele><time>2026-04-09T13:33:48.296Z</time></trkpt><trkpt lat="43.9945858" lon="7.8593611"><ele>998.5</ele><time>2026-04-09T13:33:49.296Z</time></trkpt><trkpt lat="43.9946586" lon="7.859206"><ele>997.0</ele><time>2026-04-09T13:33:50.297Z</time></trkpt><trkpt lat="43.9947213" lon="7.8590436"><ele>997.0</ele><time>2026-04-09T13:33:51.297Z</time></trkpt><trkpt lat="43.9947622" lon="7.8588655"><ele>997.0</ele><time>2026-04-09T13:33:52.296Z</time></trkpt><trkpt lat="43.9947778" lon="7.8586806"><ele>997.0</ele><time>2026-04-09T13:33:53.296Z</time></trkpt><trkpt lat="43.9947782" lon="7.8584797"><ele>997.0</ele><time>2026-04-09T13:33:54.297Z</time></trkpt><trkpt lat="43.9947847" lon="7.8582568"><ele>998.0</ele><time>2026-04-09T13:33:55.296Z</time></trkpt><trkpt lat="43.9947987" lon="7.8580294"><ele>999.0</ele><time>2026-04-09T13:33:56.297Z</time></trkpt><trkpt lat="43.9948047" lon="7.8578072"><ele>1000.0</ele><time>2026-04-09T13:33:57.297Z</time></trkpt><trkpt lat="43.9947933" lon="7.8575881"><ele>1001.0</ele><time>2026-04-09T13:33:58.297Z</time></trkpt><trkpt lat="43.994766" lon="7.8573785"><ele>1002.0</ele><time>2026-04-09T13:33:59.296Z</time></trkpt><trkpt lat="43.9947502" lon="7.8571931"><ele>1003.0</ele><time>2026-04-09T13:34:00.296Z</time></trkpt><trkpt lat="43.9947461" lon="7.8570335"><ele>1004.0</ele><time>2026-04-09T13:34:01.296Z</time></trkpt><trkpt lat="43.9947702" lon="7.8568774"><ele>1003.0</ele><time>2026-04-09T13:34:02.296Z</time></trkpt><trkpt lat="43.9948194" lon="7.8567402"><ele>1002.0000000000001</ele><time>2026-04-09T13:34:03.296Z</time></trkpt><trkpt lat="43.9948582" lon="7.8566127"><ele>1001.0000000000001</ele><time>2026-04-09T13:34:04.296Z</time></trkpt><trkpt lat="43.9948511" lon="7.8564938"><ele>1000.0</ele><time>2026-04-09T13:34:05.296Z</time></trkpt><trkpt lat="43.9947931" lon="7.8563911"><ele>999.0</ele><time>2026-04-09T13:34:06.297Z</time></trkpt><trkpt lat="43.9947019" lon="7.8562992"><ele>999.0</ele><time>2026-04-09T13:34:07.297Z</time></trkpt><trkpt lat="43.994604" lon="7.8561959"><ele>999.0</ele><time>2026-04-09T13:34:08.297Z</time></trkpt><trkpt lat="43.9945001" lon="7.8560932"><ele>999.0</ele><time>2026-04-09T13:34:09.296Z</time></trkpt><trkpt lat="43.9944029" lon="7.8560024"><ele>999.0</ele><time>2026-04-09T13:34:10.296Z</time></trkpt><trkpt lat="43.9943002" lon="7.8559394"><ele>996.5</ele><time>2026-04-09T13:34:11.297Z</time></trkpt><trkpt lat="43.9942112" lon="7.8558788"><ele>994.0</ele><time>2026-04-09T13:34:12.296Z</time></trkpt><trkpt lat="43.9941562" lon="7.8557994"><ele>991.5</ele><time>2026-04-09T13:34:13.297Z</time></trkpt><trkpt lat="43.9941354" lon="7.8556973"><ele>989.0</ele><time>2026-04-09T13:34:14.296Z</time></trkpt><trkpt lat="43.9941591" lon="7.8555771"><ele>986.5</ele><time>2026-04-09T13:34:15.296Z</time></trkpt><trkpt lat="43.9941953" lon="7.8554598"><ele>984.0</ele><time>2026-04-09T13:34:16.297Z</time></trkpt><trkpt lat="43.994255" lon="7.85533"><ele>984.0</ele><time>2026-04-09T13:34:17.296Z</time></trkpt><trkpt lat="43.9943234" lon="7.8552016"><ele>984.0000000000001</ele><time>2026-04-09T13:34:18.296Z</time></trkpt><trkpt lat="43.9943747" lon="7.855062"><ele>984.0000000000001</ele><time>2026-04-09T13:34:19.297Z</time></trkpt><trkpt lat="43.9944116" lon="7.8549186"><ele>984.0</ele><time>2026-04-09T13:34:20.296Z</time></trkpt><trkpt lat="43.9944195" lon="7.8547963"><ele>984.0</ele><time>2026-04-09T13:34:21.296Z</time></trkpt><trkpt lat="43.9944188" lon="7.8546613"><ele>983.2</ele><time>2026-04-09T13:34:22.296Z</time></trkpt><trkpt lat="43.9944185" lon="7.8545236"><ele>982.4000000000001</ele><time>2026-04-09T13:34:23.297Z</time></trkpt><trkpt lat="43.9944274" lon="7.8543862"><ele>981.6</ele><time>2026-04-09T13:34:24.296Z</time></trkpt><trkpt lat="43.9944376" lon="7.8542376"><ele>980.8</ele><time>2026-04-09T13:34:25.297Z</time></trkpt><trkpt lat="43.9944502" lon="7.8540841"><ele>980.0</ele><time>2026-04-09T13:34:26.297Z</time></trkpt><trkpt lat="43.9944588" lon="7.853922"><ele>979.75</ele><time>2026-04-09T13:34:27.296Z</time></trkpt><trkpt lat="43.9944593" lon="7.8537543"><ele>979.5</ele><time>2026-04-09T13:34:28.297Z</time></trkpt><trkpt lat="43.9944519" lon="7.8535851"><ele>979.25</ele><time>2026-04-09T13:34:29.297Z</time></trkpt><trkpt lat="43.9944382" lon="7.853434"><ele>979.0</ele><time>2026-04-09T13:34:30.297Z</time></trkpt><trkpt lat="43.9944121" lon="7.8532984"><ele>980.4000000000001</ele><time>2026-04-09T13:34:31.296Z</time></trkpt><trkpt lat="43.9943587" lon="7.853184"><ele>981.8000000000001</ele><time>2026-04-09T13:34:32.297Z</time></trkpt><trkpt lat="43.9942749" lon="7.853097"><ele>983.1999999999999</ele><time>2026-04-09T13:34:33.296Z</time></trkpt><trkpt lat="43.9941704" lon="7.8530451"><ele>984.5999999999999</ele><time>2026-04-09T13:34:34.297Z</time></trkpt><trkpt lat="43.9940668" lon="7.8530157"><ele>986.0</ele><time>2026-04-09T13:34:35.296Z</time></trkpt><trkpt lat="43.9939739" lon="7.8529751"><ele>991.8333333333334</ele><time>2026-04-09T13:34:36.297Z</time></trkpt><trkpt lat="43.993907" lon="7.8529173"><ele>997.6666666666667</ele><time>2026-04-09T13:34:37.296Z</time></trkpt><trkpt lat="43.9938805" lon="7.8528326"><ele>1003.5</ele><time>2026-04-09T13:34:38.296Z</time></trkpt><trkpt lat="43.9938963" lon="7.8527354"><ele>1009.3333333333333</ele><time>2026-04-09T13:34:39.297Z</time></trkpt><trkpt lat="43.9939491" lon="7.8526562"><ele>1015.1666666666666</ele><time>2026-04-09T13:34:40.297Z</time></trkpt><trkpt lat="43.9940287" lon="7.8525906"><ele>1021.0</ele><time>2026-04-09T13:34:41.296Z</time></trkpt><trkpt lat="43.994114" lon="7.8525223"><ele>1019.0</ele><time>2026-04-09T13:34:42.296Z</time></trkpt><trkpt lat="43.9941807" lon="7.8524366"><ele>1016.9999999999999</ele><time>2026-04-09T13:34:43.296Z</time></trkpt><trkpt lat="43.9942203" lon="7.8523194"><ele>1014.9999999999999</ele><time>2026-04-09T13:34:44.296Z</time></trkpt><trkpt lat="43.9942287" lon="7.8521833"><ele>1013.0</ele><time>2026-04-09T13:34:45.296Z</time></trkpt><trkpt lat="43.9942285" lon="7.8520445"><ele>1011.0</ele><time>2026-04-09T13:34:46.296Z</time></trkpt><trkpt lat="43.9942467" lon="7.8519416"><ele>1011.0</ele><time>2026-04-09T13:34:47.296Z</time></trkpt><trkpt lat="43.9942986" lon="7.8518815"><ele>1011.0</ele><time>2026-04-09T13:34:48.297Z</time></trkpt><trkpt lat="43.9943674" lon="7.8518734"><ele>1011.0</ele><time>2026-04-09T13:34:49.296Z</time></trkpt><trkpt lat="43.99445" lon="7.851914"><ele>1011.0</ele><time>2026-04-09T13:34:50.297Z</time></trkpt><trkpt lat="43.9945315" lon="7.8520015"><ele>1011.0</ele><time>2026-04-09T13:34:51.296Z</time></trkpt><trkpt lat="43.9946154" lon="7.8521245"><ele>1011.0</ele><time>2026-04-09T13:34:52.296Z</time></trkpt><trkpt lat="43.9946983" lon="7.8522468"><ele>1011.0</ele><time>2026-04-09T13:34:53.296Z</time></trkpt><trkpt lat="43.9947979" lon="7.8523336"><ele>1011.0</ele><time>2026-04-09T13:34:54.297Z</time></trkpt><trkpt lat="43.9949194" lon="7.8523894"><ele>1011.0</ele><time>2026-04-09T13:34:55.296Z</time></trkpt><trkpt lat="43.9950552" lon="7.8524142"><ele>1011.0</ele><time>2026-04-09T13:34:56.297Z</time></trkpt><trkpt lat="43.9951929" lon="7.8524251"><ele>1012.0</ele><time>2026-04-09T13:34:57.297Z</time></trkpt><trkpt lat="43.9953268" lon="7.8524577"><ele>1013.0</ele><time>2026-04-09T13:34:58.296Z</time></trkpt><trkpt lat="43.9954556" lon="7.8525017"><ele>1014.0</ele><time>2026-04-09T13:34:59.296Z</time></trkpt><trkpt lat="43.9955861" lon="7.8525422"><ele>1015.0</ele><time>2026-04-09T13:35:00.297Z</time></trkpt><trkpt lat="43.9957113" lon="7.8525618"><ele>1015.0</ele><time>2026-04-09T13:35:01.296Z</time></trkpt><trkpt lat="43.995822" lon="7.8525615"><ele>1015.0</ele><time>2026-04-09T13:35:02.296Z</time></trkpt><trkpt lat="43.9959151" lon="7.8525232"><ele>1015.0</ele><time>2026-04-09T13:35:03.296Z</time></trkpt><trkpt lat="43.9960105" lon="7.8524498"><ele>1015.0</ele><time>2026-04-09T13:35:04.297Z</time></trkpt><trkpt lat="43.9961005" lon="7.852347"><ele>1015.0</ele><time>2026-04-09T13:35:05.297Z</time></trkpt><trkpt lat="43.9961901" lon="7.8522207"><ele>1015.5</ele><time>2026-04-09T13:35:06.297Z</time></trkpt><trkpt lat="43.9962826" lon="7.852085"><ele>1016.0</ele><time>2026-04-09T13:35:07.297Z</time></trkpt><trkpt lat="43.9963665" lon="7.8519383"><ele>1016.5</ele><time>2026-04-09T13:35:08.297Z</time></trkpt><trkpt lat="43.9964216" lon="7.8517908"><ele>1017.0</ele><time>2026-04-09T13:35:09.297Z</time></trkpt><trkpt lat="43.9964636" lon="7.8516601"><ele>1017.0</ele><time>2026-04-09T13:35:10.296Z</time></trkpt><trkpt lat="43.9965215" lon="7.8515487"><ele>1017.0</ele><time>2026-04-09T13:35:11.296Z</time></trkpt><trkpt lat="43.9966107" lon="7.8514727"><ele>1017.0</ele><time>2026-04-09T13:35:12.297Z</time></trkpt><trkpt lat="43.9967131" lon="7.8514248"><ele>1017.0</ele><time>2026-04-09T13:35:13.296Z</time></trkpt><trkpt lat="43.9968139" lon="7.8513806"><ele>1017.0</ele><time>2026-04-09T13:35:14.296Z</time></trkpt><trkpt lat="43.9969004" lon="7.8513051"><ele>1015.0</ele><time>2026-04-09T13:35:15.297Z</time></trkpt><trkpt lat="43.9969609" lon="7.8511973"><ele>1013.0</ele><time>2026-04-09T13:35:16.296Z</time></trkpt><trkpt lat="43.9969898" lon="7.8510693"><ele>1011.0</ele><time>2026-04-09T13:35:17.297Z</time></trkpt><trkpt lat="43.9969767" lon="7.850932"><ele>1009.0</ele><time>2026-04-09T13:35:18.297Z</time></trkpt><trkpt lat="43.9969426" lon="7.8507904"><ele>1007.0</ele><time>2026-04-09T13:35:19.297Z</time></trkpt><trkpt lat="43.9969141" lon="7.8506485"><ele>1007.0000000000001</ele><time>2026-04-09T13:35:20.296Z</time></trkpt><trkpt lat="43.9968963" lon="7.850516"><ele>1007.0</ele><time>2026-04-09T13:35:21.296Z</time></trkpt><trkpt lat="43.9969067" lon="7.8504083"><ele>1007.0</ele><time>2026-04-09T13:35:22.296Z</time></trkpt><trkpt lat="43.9969459" lon="7.8503398"><ele>1007.0</ele><time>2026-04-09T13:35:23.296Z</time></trkpt><trkpt lat="43.9970114" lon="7.8502992"><ele>1007.0000000000001</ele><time>2026-04-09T13:35:24.296Z</time></trkpt><trkpt lat="43.9970964" lon="7.8502992"><ele>1007.0</ele><time>2026-04-09T13:35:25.296Z</time></trkpt><trkpt lat="43.9971959" lon="7.8503581"><ele>1007.0000000000001</ele><time>2026-04-09T13:35:26.296Z</time></trkpt><trkpt lat="43.997283" lon="7.8504318"><ele>1007.0</ele><time>2026-04-09T13:35:27.297Z</time></trkpt><trkpt lat="43.9973686" lon="7.8504595"><ele>1007.0</ele><time>2026-04-09T13:35:28.296Z</time></trkpt><trkpt lat="43.9974502" lon="7.850435"><ele>1007.0</ele><time>2026-04-09T13:35:29.297Z</time></trkpt><trkpt lat="43.9975141" lon="7.8503722"><ele>1007.0000000000001</ele><time>2026-04-09T13:35:30.296Z</time></trkpt><trkpt lat="43.9975624" lon="7.8502764"><ele>1007.0</ele><time>2026-04-09T13:35:31.296Z</time></trkpt><trkpt lat="43.9976004" lon="7.8501689"><ele>1010.5000000000001</ele><time>2026-04-09T13:35:32.296Z</time></trkpt><trkpt lat="43.9976367" lon="7.8500586"><ele>1014.0</ele><time>2026-04-09T13:35:33.297Z</time></trkpt><trkpt lat="43.9976864" lon="7.8499651"><ele>1017.5</ele><time>2026-04-09T13:35:34.296Z</time></trkpt><trkpt lat="43.997744" lon="7.8499141"><ele>1021.0</ele><time>2026-04-09T13:35:35.297Z</time></trkpt><trkpt lat="43.9978125" lon="7.8498991"><ele>1024.5</ele><time>2026-04-09T13:35:36.297Z</time></trkpt><trkpt lat="43.997883" lon="7.8499266"><ele>1028.0</ele><time>2026-04-09T13:35:37.297Z</time></trkpt><trkpt lat="43.9979678" lon="7.8499914"><ele>1028.0</ele><time>2026-04-09T13:35:38.296Z</time></trkpt><trkpt lat="43.9980561" lon="7.8500702"><ele>1028.0</ele><time>2026-04-09T13:35:39.296Z</time></trkpt><trkpt lat="43.9981438" lon="7.8501442"><ele>1028.0</ele><time>2026-04-09T13:35:40.296Z</time></trkpt><trkpt lat="43.998231" lon="7.8501862"><ele>1028.0</ele><time>2026-04-09T13:35:41.297Z</time></trkpt><trkpt lat="43.9983286" lon="7.8501764"><ele>1028.0</ele><time>2026-04-09T13:35:42.296Z</time></trkpt><trkpt lat="43.9984369" lon="7.8501374"><ele>1024.25</ele><time>2026-04-09T13:35:43.296Z</time></trkpt><trkpt lat="43.9985536" lon="7.8500855"><ele>1020.5</ele><time>2026-04-09T13:35:44.296Z</time></trkpt><trkpt lat="43.998674" lon="7.8500277"><ele>1016.75</ele><time>2026-04-09T13:35:45.296Z</time></trkpt><trkpt lat="43.9987792" lon="7.8499676"><ele>1013.0</ele><time>2026-04-09T13:35:46.296Z</time></trkpt><trkpt lat="43.9988612" lon="7.8499059"><ele>1013.0000000000001</ele><time>2026-04-09T13:35:47.297Z</time></trkpt><trkpt lat="43.9989162" lon="7.8498572"><ele>1013.0</ele><time>2026-04-09T13:35:48.296Z</time></trkpt><trkpt lat="43.9989733" lon="7.8497973"><ele>1013.0</ele><time>2026-04-09T13:35:51.296Z</time></trkpt><trkpt lat="43.99894" lon="7.8497083"><ele>1013.0</ele><time>2026-04-09T13:35:53.297Z</time></trkpt><trkpt lat="43.9988816" lon="7.8495589"><ele>1013.0000000000001</ele><time>2026-04-09T13:35:55.296Z</time></trkpt><trkpt lat="43.9988577" lon="7.8494752"><ele>1013.0</ele><time>2026-04-09T13:35:56.296Z</time></trkpt><trkpt lat="43.9988346" lon="7.849374"><ele>1013.8</ele><time>2026-04-09T13:35:57.296Z</time></trkpt><trkpt lat="43.9988079" lon="7.8492538"><ele>1014.5999999999999</ele><time>2026-04-09T13:35:58.296Z</time></trkpt><trkpt lat="43.9987779" lon="7.8491175"><ele>1015.4000000000001</ele><time>2026-04-09T13:35:59.296Z</time></trkpt><trkpt lat="43.9987462" lon="7.8489706"><ele>1016.2</ele><time>2026-04-09T13:36:00.296Z</time></trkpt><trkpt lat="43.9987107" lon="7.8488123"><ele>1017.0</ele><time>2026-04-09T13:36:01.297Z</time></trkpt><trkpt lat="43.9986765" lon="7.8486507"><ele>1017.0</ele><time>2026-04-09T13:36:02.296Z</time></trkpt><trkpt lat="43.9986472" lon="7.8484854"><ele>1017.0</ele><time>2026-04-09T13:36:03.296Z</time></trkpt><trkpt lat="43.9986152" lon="7.8483448"><ele>1017.0</ele><time>2026-04-09T13:36:04.296Z</time></trkpt><trkpt lat="43.9985815" lon="7.8482348"><ele>1017.0</ele><time>2026-04-09T13:36:05.297Z</time></trkpt><trkpt lat="43.9984984" lon="7.8481236"><ele>1017.0</ele><time>2026-04-09T13:36:07.296Z</time></trkpt><trkpt lat="43.9984177" lon="7.8482175"><ele>1017.0</ele><time>2026-04-09T13:36:09.296Z</time></trkpt><trkpt lat="43.9984189" lon="7.8483164"><ele>1017.0</ele><time>2026-04-09T13:36:10.297Z</time></trkpt><trkpt lat="43.9984235" lon="7.8484344"><ele>1017.0</ele><time>2026-04-09T13:36:11.297Z</time></trkpt><trkpt lat="43.9984135" lon="7.8485499"><ele>1017.0</ele><time>2026-04-09T13:36:12.296Z</time></trkpt><trkpt lat="43.9983762" lon="7.8486572"><ele>1017.0</ele><time>2026-04-09T13:36:13.296Z</time></trkpt><trkpt lat="43.9983357" lon="7.848769"><ele>1017.0</ele><time>2026-04-09T13:36:14.297Z</time></trkpt><trkpt lat="43.9983237" lon="7.8488896"><ele>1021.1428571428571</ele><time>2026-04-09T13:36:15.296Z</time></trkpt><trkpt lat="43.9983304" lon="7.8490074"><ele>1025.2857142857142</ele><time>2026-04-09T13:36:16.297Z</time></trkpt><trkpt lat="43.998328" lon="7.8491189"><ele>1029.4285714285713</ele><time>2026-04-09T13:36:17.297Z</time></trkpt><trkpt lat="43.9983062" lon="7.8492052"><ele>1033.5714285714284</ele><time>2026-04-09T13:36:18.296Z</time></trkpt><trkpt lat="43.9982529" lon="7.8492658"><ele>1037.7142857142858</ele><time>2026-04-09T13:36:19.297Z</time></trkpt><trkpt lat="43.9981824" lon="7.8492743"><ele>1041.8571428571427</ele><time>2026-04-09T13:36:20.297Z</time></trkpt><trkpt lat="43.9981119" lon="7.8492405"><ele>1046.0</ele><time>2026-04-09T13:36:21.296Z</time></trkpt><trkpt lat="43.9980459" lon="7.8491792"><ele>1046.0</ele><time>2026-04-09T13:36:22.297Z</time></trkpt><trkpt lat="43.9979937" lon="7.8490928"><ele>1046.0</ele><time>2026-04-09T13:36:23.296Z</time></trkpt><trkpt lat="43.9979538" lon="7.8490042"><ele>1046.0</ele><time>2026-04-09T13:36:24.297Z</time></trkpt><trkpt lat="43.9979318" lon="7.8489127"><ele>1046.0</ele><time>2026-04-09T13:36:25.297Z</time></trkpt><trkpt lat="43.9979352" lon="7.8488062"><ele>1046.0</ele><time>2026-04-09T13:36:26.296Z</time></trkpt><trkpt lat="43.9979471" lon="7.8486907"><ele>1046.0</ele><time>2026-04-09T13:36:27.296Z</time></trkpt><trkpt lat="43.9979488" lon="7.8485688"><ele>1046.0</ele><time>2026-04-09T13:36:28.297Z</time></trkpt><trkpt lat="43.9979282" lon="7.8484592"><ele>1046.0</ele><time>2026-04-09T13:36:29.296Z</time></trkpt><trkpt lat="43.9978918" lon="7.8483869"><ele>1046.0</ele><time>2026-04-09T13:36:30.296Z</time></trkpt><trkpt lat="43.9977872" lon="7.8483767"><ele>1046.0</ele><time>2026-04-09T13:36:32.296Z</time></trkpt><trkpt lat="43.9977081" lon="7.8484851"><ele>1046.0</ele><time>2026-04-09T13:36:34.297Z</time></trkpt><trkpt lat="43.9976656" lon="7.8485642"><ele>1046.0</ele><time>2026-04-09T13:36:35.296Z</time></trkpt><trkpt lat="43.9976146" lon="7.8486512"><ele>1046.0</ele><time>2026-04-09T13:36:36.297Z</time></trkpt><trkpt lat="43.9975506" lon="7.8487374"><ele>1046.0</ele><time>2026-04-09T13:36:37.297Z</time></trkpt><trkpt lat="43.9974927" lon="7.848817"><ele>1046.0</ele><time>2026-04-09T13:36:38.296Z</time></trkpt><trkpt lat="43.9974261" lon="7.8488881"><ele>1046.0</ele><time>2026-04-09T13:36:39.297Z</time></trkpt><trkpt lat="43.9973546" lon="7.8489601"><ele>1046.0</ele><time>2026-04-09T13:36:40.297Z</time></trkpt><trkpt lat="43.9972828" lon="7.8490256"><ele>1046.0</ele><time>2026-04-09T13:36:41.297Z</time></trkpt><trkpt lat="43.9972036" lon="7.8490902"><ele>1049.0</ele><time>2026-04-09T13:36:42.296Z</time></trkpt><trkpt lat="43.997117" lon="7.8491512"><ele>1052.0</ele><time>2026-04-09T13:36:43.297Z</time></trkpt><trkpt lat="43.9970329" lon="7.8492009"><ele>1055.0</ele><time>2026-04-09T13:36:44.297Z</time></trkpt><trkpt lat="43.9969607" lon="7.8492228"><ele>1058.0</ele><time>2026-04-09T13:36:45.296Z</time></trkpt><trkpt lat="43.9968853" lon="7.8492161"><ele>1061.0</ele><time>2026-04-09T13:36:46.296Z</time></trkpt><trkpt lat="43.9968056" lon="7.8491949"><ele>1064.0</ele><time>2026-04-09T13:36:47.297Z</time></trkpt><trkpt lat="43.9967243" lon="7.8491617"><ele>1067.1666666666667</ele><time>2026-04-09T13:36:48.296Z</time></trkpt><trkpt lat="43.9966403" lon="7.8491289"><ele>1070.3333333333335</ele><time>2026-04-09T13:36:49.296Z</time></trkpt><trkpt lat="43.9965525" lon="7.8491228"><ele>1073.5</ele><time>2026-04-09T13:36:50.297Z</time></trkpt><trkpt lat="43.9964701" lon="7.8491407"><ele>1076.6666666666667</ele><time>2026-04-09T13:36:51.297Z</time></trkpt><trkpt lat="43.9963777" lon="7.8491842"><ele>1079.8333333333333</ele><time>2026-04-09T13:36:52.296Z</time></trkpt><trkpt lat="43.9962961" lon="7.8492103"><ele>1083.0</ele><time>2026-04-09T13:36:53.296Z</time></trkpt><trkpt lat="43.9961984" lon="7.8492352"><ele>1083.0</ele><time>2026-04-09T13:36:54.297Z</time></trkpt><trkpt lat="43.9961035" lon="7.8492605"><ele>1083.0</ele><time>2026-04-09T13:36:55.297Z</time></trkpt><trkpt lat="43.9960209" lon="7.849281"><ele>1083.0</ele><time>2026-04-09T13:36:56.297Z</time></trkpt><trkpt lat="43.9959653" lon="7.8493235"><ele>1083.0</ele><time>2026-04-09T13:36:57.297Z</time></trkpt><trkpt lat="43.9959196" lon="7.8494071"><ele>1083.0</ele><time>2026-04-09T13:36:58.297Z</time></trkpt><trkpt lat="43.995898" lon="7.8495208"><ele>1083.0</ele><time>2026-04-09T13:36:59.296Z</time></trkpt><trkpt lat="43.995868" lon="7.8496462"><ele>1084.4</ele><time>2026-04-09T13:37:00.297Z</time></trkpt><trkpt lat="43.995826" lon="7.8497521"><ele>1085.8</ele><time>2026-04-09T13:37:01.297Z</time></trkpt><trkpt lat="43.9957748" lon="7.8498622"><ele>1087.2</ele><time>2026-04-09T13:37:02.296Z</time></trkpt><trkpt lat="43.9957256" lon="7.8499774"><ele>1088.6</ele><time>2026-04-09T13:37:03.297Z</time></trkpt><trkpt lat="43.9956688" lon="7.8501049"><ele>1090.0</ele><time>2026-04-09T13:37:04.297Z</time></trkpt><trkpt lat="43.9956088" lon="7.8502207"><ele>1086.4</ele><time>2026-04-09T13:37:05.296Z</time></trkpt><trkpt lat="43.9955369" lon="7.8503261"><ele>1082.8</ele><time>2026-04-09T13:37:06.297Z</time></trkpt><trkpt lat="43.9954537" lon="7.8504241"><ele>1079.2</ele><time>2026-04-09T13:37:07.296Z</time></trkpt><trkpt lat="43.9953732" lon="7.8505291"><ele>1075.6</ele><time>2026-04-09T13:37:08.297Z</time></trkpt><trkpt lat="43.9952984" lon="7.8506362"><ele>1072.0</ele><time>2026-04-09T13:37:09.296Z</time></trkpt><trkpt lat="43.9952322" lon="7.8507401"><ele>1072.0</ele><time>2026-04-09T13:37:10.296Z</time></trkpt><trkpt lat="43.9951728" lon="7.8508174"><ele>1072.0</ele><time>2026-04-09T13:37:11.297Z</time></trkpt><trkpt lat="43.9951053" lon="7.8508716"><ele>1072.0</ele><time>2026-04-09T13:37:12.296Z</time></trkpt><trkpt lat="43.9950268" lon="7.8508729"><ele>1072.0</ele><time>2026-04-09T13:37:13.296Z</time></trkpt><trkpt lat="43.9949511" lon="7.8508429"><ele>1072.0</ele><time>2026-04-09T13:37:14.296Z</time></trkpt><trkpt lat="43.9948896" lon="7.8507923"><ele>1072.0</ele><time>2026-04-09T13:37:15.296Z</time></trkpt><trkpt lat="43.9948257" lon="7.8507141"><ele>1077.25</ele><time>2026-04-09T13:37:16.296Z</time></trkpt><trkpt lat="43.9947469" lon="7.8506171"><ele>1082.5</ele><time>2026-04-09T13:37:17.297Z</time></trkpt><trkpt lat="43.9946641" lon="7.8504897"><ele>1087.75</ele><time>2026-04-09T13:37:18.296Z</time></trkpt><trkpt lat="43.9945843" lon="7.8503554"><ele>1093.0</ele><time>2026-04-09T13:37:19.296Z</time></trkpt><trkpt lat="43.99451" lon="7.8502236"><ele>1097.2</ele><time>2026-04-09T13:37:20.297Z</time></trkpt><trkpt lat="43.9944431" lon="7.8501147"><ele>1101.4</ele><time>2026-04-09T13:37:21.296Z</time></trkpt><trkpt lat="43.9943766" lon="7.8500235"><ele>1105.6000000000001</ele><time>2026-04-09T13:37:22.297Z</time></trkpt><trkpt lat="43.9942894" lon="7.8499682"><ele>1109.8</ele><time>2026-04-09T13:37:23.296Z</time></trkpt><trkpt lat="43.9941935" lon="7.8499384"><ele>1114.0</ele><time>2026-04-09T13:37:24.296Z</time></trkpt><trkpt lat="43.9941077" lon="7.8499093"><ele>1114.0</ele><time>2026-04-09T13:37:25.296Z</time></trkpt><trkpt lat="43.9940368" lon="7.8498607"><ele>1114.0</ele><time>2026-04-09T13:37:26.296Z</time></trkpt><trkpt lat="43.993968" lon="7.849787"><ele>1114.0</ele><time>2026-04-09T13:37:27.297Z</time></trkpt><trkpt lat="43.9938953" lon="7.8496969"><ele>1114.0</ele><time>2026-04-09T13:37:28.296Z</time></trkpt><trkpt lat="43.993817" lon="7.8495858"><ele>1114.0</ele><time>2026-04-09T13:37:29.296Z</time></trkpt><trkpt lat="43.9937257" lon="7.8494716"><ele>1114.0</ele><time>2026-04-09T13:37:30.296Z</time></trkpt><trkpt lat="43.9936298" lon="7.8493648"><ele>1114.0</ele><time>2026-04-09T13:37:31.296Z</time></trkpt><trkpt lat="43.9935322" lon="7.8492669"><ele>1114.0</ele><time>2026-04-09T13:37:32.296Z</time></trkpt><trkpt lat="43.9934299" lon="7.8491725"><ele>1114.0</ele><time>2026-04-09T13:37:33.297Z</time></trkpt><trkpt lat="43.9933199" lon="7.8490941"><ele>1117.0</ele><time>2026-04-09T13:37:34.297Z</time></trkpt><trkpt lat="43.9932061" lon="7.8490237"><ele>1120.0</ele><time>2026-04-09T13:37:35.296Z</time></trkpt><trkpt lat="43.9930922" lon="7.8489546"><ele>1123.0</ele><time>2026-04-09T13:37:36.297Z</time></trkpt><trkpt lat="43.9929774" lon="7.8488821"><ele>1126.0</ele><time>2026-04-09T13:37:37.296Z</time></trkpt><trkpt lat="43.9928534" lon="7.8488094"><ele>1126.0</ele><time>2026-04-09T13:37:38.296Z</time></trkpt><trkpt lat="43.9927386" lon="7.848742"><ele>1126.0</ele><time>2026-04-09T13:37:39.297Z</time></trkpt><trkpt lat="43.9926287" lon="7.8486814"><ele>1126.0</ele><time>2026-04-09T13:37:40.296Z</time></trkpt><trkpt lat="43.9925441" lon="7.8486369"><ele>1126.0</ele><time>2026-04-09T13:37:41.296Z</time></trkpt><trkpt lat="43.9924736" lon="7.8485944"><ele>1126.0</ele><time>2026-04-09T13:37:42.297Z</time></trkpt><trkpt lat="43.9924056" lon="7.8485762"><ele>1128.0</ele><time>2026-04-09T13:37:43.297Z</time></trkpt><trkpt lat="43.992309" lon="7.8486872"><ele>1130.0</ele><time>2026-04-09T13:37:45.296Z</time></trkpt><trkpt lat="43.9922977" lon="7.8487884"><ele>1132.0</ele><time>2026-04-09T13:37:46.296Z</time></trkpt><trkpt lat="43.9923122" lon="7.8488831"><ele>1134.0</ele><time>2026-04-09T13:37:47.297Z</time></trkpt><trkpt lat="43.9923378" lon="7.8489716"><ele>1136.0</ele><time>2026-04-09T13:37:48.297Z</time></trkpt><trkpt lat="43.9923483" lon="7.8490786"><ele>1138.0</ele><time>2026-04-09T13:37:49.296Z</time></trkpt><trkpt lat="43.9923491" lon="7.8492104"><ele>1137.4</ele><time>2026-04-09T13:37:50.297Z</time></trkpt><trkpt lat="43.9923403" lon="7.849345"><ele>1136.8</ele><time>2026-04-09T13:37:51.296Z</time></trkpt><trkpt lat="43.9923231" lon="7.8494931"><ele>1136.2</ele><time>2026-04-09T13:37:52.297Z</time></trkpt><trkpt lat="43.9923097" lon="7.8496386"><ele>1135.6</ele><time>2026-04-09T13:37:53.297Z</time></trkpt><trkpt lat="43.9923123" lon="7.8497879"><ele>1135.0</ele><time>2026-04-09T13:37:54.297Z</time></trkpt><trkpt lat="43.9923289" lon="7.8499324"><ele>1135.0</ele><time>2026-04-09T13:37:55.296Z</time></trkpt><trkpt lat="43.9923539" lon="7.8500659"><ele>1135.0</ele><time>2026-04-09T13:37:56.297Z</time></trkpt><trkpt lat="43.9923691" lon="7.8501958"><ele>1135.0</ele><time>2026-04-09T13:37:57.296Z</time></trkpt><trkpt lat="43.9923665" lon="7.8503194"><ele>1135.0</ele><time>2026-04-09T13:37:58.296Z</time></trkpt><trkpt lat="43.9923452" lon="7.8504291"><ele>1135.0</ele><time>2026-04-09T13:37:59.296Z</time></trkpt><trkpt lat="43.9923064" lon="7.8505148"><ele>1135.0</ele><time>2026-04-09T13:38:00.296Z</time></trkpt><trkpt lat="43.9921898" lon="7.8505348"><ele>1133.2</ele><time>2026-04-09T13:38:02.297Z</time></trkpt><trkpt lat="43.9921271" lon="7.8505064"><ele>1131.4</ele><time>2026-04-09T13:38:03.297Z</time></trkpt><trkpt lat="43.9920546" lon="7.8504563"><ele>1129.6</ele><time>2026-04-09T13:38:04.297Z</time></trkpt><trkpt lat="43.9919643" lon="7.8504033"><ele>1127.8</ele><time>2026-04-09T13:38:05.296Z</time></trkpt><trkpt lat="43.9918694" lon="7.8503426"><ele>1126.0</ele><time>2026-04-09T13:38:06.296Z</time></trkpt><trkpt lat="43.9917702" lon="7.8502864"><ele>1126.0</ele><time>2026-04-09T13:38:07.297Z</time></trkpt><trkpt lat="43.9916809" lon="7.8502421"><ele>1126.0</ele><time>2026-04-09T13:38:08.297Z</time></trkpt><trkpt lat="43.9916112" lon="7.8502045"><ele>1126.0</ele><time>2026-04-09T13:38:09.297Z</time></trkpt><trkpt lat="43.9915486" lon="7.8501463"><ele>1126.0</ele><time>2026-04-09T13:38:10.296Z</time></trkpt><trkpt lat="43.9915013" lon="7.8500434"><ele>1126.0</ele><time>2026-04-09T13:38:11.296Z</time></trkpt><trkpt lat="43.9914553" lon="7.8499147"><ele>1126.0</ele><time>2026-04-09T13:38:12.297Z</time></trkpt><trkpt lat="43.9914022" lon="7.8497946"><ele>1131.1666666666665</ele><time>2026-04-09T13:38:13.296Z</time></trkpt><trkpt lat="43.9913521" lon="7.8496656"><ele>1136.3333333333333</ele><time>2026-04-09T13:38:14.297Z</time></trkpt><trkpt lat="43.9912917" lon="7.8495719"><ele>1141.5</ele><time>2026-04-09T13:38:16.296Z</time></trkpt><trkpt lat="43.9912006" lon="7.8496408"><ele>1146.6666666666667</ele><time>2026-04-09T13:38:18.297Z</time></trkpt><trkpt lat="43.9911724" lon="7.8497251"><ele>1151.8333333333335</ele><time>2026-04-09T13:38:19.297Z</time></trkpt><trkpt lat="43.9911473" lon="7.849827"><ele>1157.0</ele><time>2026-04-09T13:38:20.297Z</time></trkpt><trkpt lat="43.9911255" lon="7.8499495"><ele>1157.0</ele><time>2026-04-09T13:38:21.296Z</time></trkpt><trkpt lat="43.9910883" lon="7.85006"><ele>1157.0</ele><time>2026-04-09T13:38:22.297Z</time></trkpt><trkpt lat="43.9910408" lon="7.8501782"><ele>1157.0</ele><time>2026-04-09T13:38:23.296Z</time></trkpt><trkpt lat="43.9909783" lon="7.850288"><ele>1157.0</ele><time>2026-04-09T13:38:24.296Z</time></trkpt><trkpt lat="43.9909005" lon="7.850388"><ele>1157.0</ele><time>2026-04-09T13:38:25.297Z</time></trkpt><trkpt lat="43.9908107" lon="7.8504782"><ele>1160.2</ele><time>2026-04-09T13:38:26.297Z</time></trkpt><trkpt lat="43.9907143" lon="7.8505649"><ele>1163.4</ele><time>2026-04-09T13:38:27.297Z</time></trkpt><trkpt lat="43.9906216" lon="7.8506509"><ele>1166.6</ele><time>2026-04-09T13:38:28.297Z</time></trkpt><trkpt lat="43.9905393" lon="7.8507313"><ele>1169.8</ele><time>2026-04-09T13:38:29.296Z</time></trkpt><trkpt lat="43.9904714" lon="7.8508036"><ele>1173.0</ele><time>2026-04-09T13:38:30.297Z</time></trkpt><trkpt lat="43.9904281" lon="7.8508792"><ele>1175.0</ele><time>2026-04-09T13:38:31.297Z</time></trkpt><trkpt lat="43.9904233" lon="7.8509709"><ele>1177.0</ele><time>2026-04-09T13:38:32.297Z</time></trkpt><trkpt lat="43.990453" lon="7.8510618"><ele>1179.0</ele><time>2026-04-09T13:38:33.296Z</time></trkpt><trkpt lat="43.9905205" lon="7.8511391"><ele>1181.0</ele><time>2026-04-09T13:38:34.296Z</time></trkpt><trkpt lat="43.9906162" lon="7.8512242"><ele>1183.0</ele><time>2026-04-09T13:38:35.297Z</time></trkpt><trkpt lat="43.9907165" lon="7.8513087"><ele>1183.0</ele><time>2026-04-09T13:38:36.296Z</time></trkpt><trkpt lat="43.9908228" lon="7.8513897"><ele>1183.0</ele><time>2026-04-09T13:38:37.296Z</time></trkpt><trkpt lat="43.9909194" lon="7.8514401"><ele>1183.0</ele><time>2026-04-09T13:38:38.296Z</time></trkpt><trkpt lat="43.9910086" lon="7.8514615"><ele>1183.0</ele><time>2026-04-09T13:38:39.296Z</time></trkpt><trkpt lat="43.9910778" lon="7.8514942"><ele>1183.0</ele><time>2026-04-09T13:38:40.297Z</time></trkpt><trkpt lat="43.9911275" lon="7.8516328"><ele>1177.5</ele><time>2026-04-09T13:38:42.297Z</time></trkpt><trkpt lat="43.9911069" lon="7.8517343"><ele>1172.0</ele><time>2026-04-09T13:38:43.296Z</time></trkpt><trkpt lat="43.9910694" lon="7.8518343"><ele>1166.5</ele><time>2026-04-09T13:38:44.297Z</time></trkpt><trkpt lat="43.991029" lon="7.8519459"><ele>1161.0</ele><time>2026-04-09T13:38:45.297Z</time></trkpt><trkpt lat="43.9909962" lon="7.8520676"><ele>1155.5</ele><time>2026-04-09T13:38:46.296Z</time></trkpt><trkpt lat="43.9909737" lon="7.8521797"><ele>1150.0</ele><time>2026-04-09T13:38:47.296Z</time></trkpt><trkpt lat="43.9909723" lon="7.8522769"><ele>1150.0</ele><time>2026-04-09T13:38:48.296Z</time></trkpt><trkpt lat="43.9910092" lon="7.8524318"><ele>1150.0</ele><time>2026-04-09T13:38:50.298Z</time></trkpt><trkpt lat="43.9910576" lon="7.8525059"><ele>1150.0</ele><time>2026-04-09T13:38:51.298Z</time></trkpt><trkpt lat="43.9911212" lon="7.8525872"><ele>1150.0</ele><time>2026-04-09T13:38:52.298Z</time></trkpt><trkpt lat="43.9911765" lon="7.8526765"><ele>1150.0</ele><time>2026-04-09T13:38:53.297Z</time></trkpt><trkpt lat="43.9912106" lon="7.8527755"><ele>1150.0</ele><time>2026-04-09T13:38:54.298Z</time></trkpt><trkpt lat="43.99122" lon="7.8528739"><ele>1151.8333333333333</ele><time>2026-04-09T13:38:55.298Z</time></trkpt><trkpt lat="43.9912131" lon="7.8529707"><ele>1153.6666666666665</ele><time>2026-04-09T13:38:56.297Z</time></trkpt><trkpt lat="43.9912055" lon="7.8530735"><ele>1155.5</ele><time>2026-04-09T13:38:57.297Z</time></trkpt><trkpt lat="43.9912136" lon="7.8531915"><ele>1157.3333333333333</ele><time>2026-04-09T13:38:58.297Z</time></trkpt><trkpt lat="43.991244" lon="7.8533065"><ele>1159.1666666666667</ele><time>2026-04-09T13:38:59.297Z</time></trkpt><trkpt lat="43.9912948" lon="7.8534173"><ele>1161.0</ele><time>2026-04-09T13:39:00.298Z</time></trkpt><trkpt lat="43.9913518" lon="7.8535324"><ele>1163.6</ele><time>2026-04-09T13:39:01.297Z</time></trkpt><trkpt lat="43.991403" lon="7.8536608"><ele>1166.1999999999998</ele><time>2026-04-09T13:39:02.298Z</time></trkpt><trkpt lat="43.9914341" lon="7.8537975"><ele>1168.8000000000002</ele><time>2026-04-09T13:39:03.297Z</time></trkpt><trkpt lat="43.9914548" lon="7.8539419"><ele>1171.4</ele><time>2026-04-09T13:39:04.297Z</time></trkpt><trkpt lat="43.9914815" lon="7.8540798"><ele>1174.0</ele><time>2026-04-09T13:39:05.297Z</time></trkpt><trkpt lat="43.9915273" lon="7.8541853"><ele>1174.0</ele><time>2026-04-09T13:39:06.297Z</time></trkpt><trkpt lat="43.9915918" lon="7.8542559"><ele>1174.0</ele><time>2026-04-09T13:39:07.298Z</time></trkpt><trkpt lat="43.991672" lon="7.8543104"><ele>1174.0</ele><time>2026-04-09T13:39:08.298Z</time></trkpt><trkpt lat="43.9917599" lon="7.8543408"><ele>1174.0</ele><time>2026-04-09T13:39:09.297Z</time></trkpt><trkpt lat="43.9918379" lon="7.8543531"><ele>1174.0</ele><time>2026-04-09T13:39:10.297Z</time></trkpt><trkpt lat="43.9919023" lon="7.8544463"><ele>1174.0</ele><time>2026-04-09T13:39:12.298Z</time></trkpt><trkpt lat="43.9918298" lon="7.8545377"><ele>1174.0</ele><time>2026-04-09T13:39:14.297Z</time></trkpt><trkpt lat="43.9917585" lon="7.8545318"><ele>1174.0</ele><time>2026-04-09T13:39:15.297Z</time></trkpt><trkpt lat="43.9917031" lon="7.8544822"><ele>1174.0</ele><time>2026-04-09T13:39:16.297Z</time></trkpt><trkpt lat="43.9916332" lon="7.8544488"><ele>1174.0</ele><time>2026-04-09T13:39:17.297Z</time></trkpt><trkpt lat="43.9915646" lon="7.8544053"><ele>1174.0</ele><time>2026-04-09T13:39:18.298Z</time></trkpt><trkpt lat="43.9914888" lon="7.8543374"><ele>1174.0</ele><time>2026-04-09T13:39:19.297Z</time></trkpt><trkpt lat="43.9914315" lon="7.8542463"><ele>1174.0</ele><time>2026-04-09T13:39:20.298Z</time></trkpt><trkpt lat="43.9913837" lon="7.8541522"><ele>1174.0</ele><time>2026-04-09T13:39:21.298Z</time></trkpt><trkpt lat="43.9913395" lon="7.8540457"><ele>1174.0</ele><time>2026-04-09T13:39:22.298Z</time></trkpt><trkpt lat="43.9913014" lon="7.8539191"><ele>1174.0</ele><time>2026-04-09T13:39:23.297Z</time></trkpt><trkpt lat="43.9912665" lon="7.8538009"><ele>1174.0</ele><time>2026-04-09T13:39:24.297Z</time></trkpt><trkpt lat="43.9912186" lon="7.8536915"><ele>1174.0</ele><time>2026-04-09T13:39:25.297Z</time></trkpt><trkpt lat="43.9911641" lon="7.8535845"><ele>1174.0</ele><time>2026-04-09T13:39:26.298Z</time></trkpt><trkpt lat="43.9911006" lon="7.8534757"><ele>1174.0</ele><time>2026-04-09T13:39:27.297Z</time></trkpt><trkpt lat="43.9910246" lon="7.8533692"><ele>1174.0</ele><time>2026-04-09T13:39:28.297Z</time></trkpt><trkpt lat="43.9909536" lon="7.8532613"><ele>1174.0</ele><time>2026-04-09T13:39:29.298Z</time></trkpt><trkpt lat="43.9908956" lon="7.8531407"><ele>1171.4</ele><time>2026-04-09T13:39:30.297Z</time></trkpt><trkpt lat="43.9908567" lon="7.8530257"><ele>1168.8000000000002</ele><time>2026-04-09T13:39:31.297Z</time></trkpt><trkpt lat="43.9908081" lon="7.8529167"><ele>1166.1999999999998</ele><time>2026-04-09T13:39:32.298Z</time></trkpt><trkpt lat="43.9907404" lon="7.8528096"><ele>1163.6</ele><time>2026-04-09T13:39:33.298Z</time></trkpt><trkpt lat="43.9906737" lon="7.852735"><ele>1161.0</ele><time>2026-04-09T13:39:34.298Z</time></trkpt><trkpt lat="43.9906017" lon="7.8526661"><ele>1166.8333333333333</ele><time>2026-04-09T13:39:35.298Z</time></trkpt><trkpt lat="43.9905503" lon="7.8525791"><ele>1172.6666666666667</ele><time>2026-04-09T13:39:36.297Z</time></trkpt><trkpt lat="43.9905142" lon="7.8524864"><ele>1178.5</ele><time>2026-04-09T13:39:37.297Z</time></trkpt><trkpt lat="43.9905055" lon="7.8523801"><ele>1184.3333333333335</ele><time>2026-04-09T13:39:38.297Z</time></trkpt><trkpt lat="43.9905089" lon="7.8522754"><ele>1190.1666666666667</ele><time>2026-04-09T13:39:39.298Z</time></trkpt><trkpt lat="43.9905348" lon="7.8521569"><ele>1196.0</ele><time>2026-04-09T13:39:40.297Z</time></trkpt><trkpt lat="43.9905504" lon="7.8520431"><ele>1196.0</ele><time>2026-04-09T13:39:41.298Z</time></trkpt><trkpt lat="43.990537" lon="7.851939"><ele>1196.0</ele><time>2026-04-09T13:39:42.298Z</time></trkpt><trkpt lat="43.9905041" lon="7.8518383"><ele>1196.0</ele><time>2026-04-09T13:39:43.297Z</time></trkpt><trkpt lat="43.990447" lon="7.8517693"><ele>1196.0</ele><time>2026-04-09T13:39:44.298Z</time></trkpt><trkpt lat="43.9903597" lon="7.8517357"><ele>1196.0</ele><time>2026-04-09T13:39:45.297Z</time></trkpt><trkpt lat="43.9902597" lon="7.851724"><ele>1196.0</ele><time>2026-04-09T13:39:46.298Z</time></trkpt><trkpt lat="43.9901597" lon="7.8517324"><ele>1193.3999999999999</ele><time>2026-04-09T13:39:47.297Z</time></trkpt><trkpt lat="43.9900673" lon="7.8517641"><ele>1190.8</ele><time>2026-04-09T13:39:48.298Z</time></trkpt><trkpt lat="43.9899736" lon="7.8518099"><ele>1188.1999999999998</ele><time>2026-04-09T13:39:49.297Z</time></trkpt><trkpt lat="43.9898865" lon="7.8518489"><ele>1185.6</ele><time>2026-04-09T13:39:50.297Z</time></trkpt><trkpt lat="43.9898163" lon="7.8518758"><ele>1183.0</ele><time>2026-04-09T13:39:51.297Z</time></trkpt><trkpt lat="43.9897181" lon="7.8518532"><ele>1189.6</ele><time>2026-04-09T13:39:53.297Z</time></trkpt><trkpt lat="43.9896697" lon="7.8516987"><ele>1196.1999999999998</ele><time>2026-04-09T13:39:55.298Z</time></trkpt><trkpt lat="43.9896643" lon="7.8516004"><ele>1202.8</ele><time>2026-04-09T13:39:56.298Z</time></trkpt><trkpt lat="43.9896645" lon="7.8514823"><ele>1209.3999999999999</ele><time>2026-04-09T13:39:57.298Z</time></trkpt><trkpt lat="43.9896617" lon="7.8513535"><ele>1216.0</ele><time>2026-04-09T13:39:58.297Z</time></trkpt><trkpt lat="43.9896524" lon="7.8512296"><ele>1216.0</ele><time>2026-04-09T13:39:59.298Z</time></trkpt><trkpt lat="43.98962" lon="7.8511031"><ele>1216.0</ele><time>2026-04-09T13:40:00.297Z</time></trkpt><trkpt lat="43.9895676" lon="7.8509818"><ele>1216.0</ele><time>2026-04-09T13:40:01.298Z</time></trkpt><trkpt lat="43.989508" lon="7.8508804"><ele>1216.0</ele><time>2026-04-09T13:40:02.297Z</time></trkpt><trkpt lat="43.9894637" lon="7.8507932"><ele>1216.0</ele><time>2026-04-09T13:40:03.3Z</time></trkpt><trkpt lat="43.9894479" lon="7.8506357"><ele>1215.6</ele><time>2026-04-09T13:40:05.301Z</time></trkpt><trkpt lat="43.9895355" lon="7.850531"><ele>1215.1999999999998</ele><time>2026-04-09T13:40:07.3Z</time></trkpt><trkpt lat="43.9896097" lon="7.8504866"><ele>1214.8000000000002</ele><time>2026-04-09T13:40:08.301Z</time></trkpt><trkpt lat="43.9896955" lon="7.8504237"><ele>1214.4</ele><time>2026-04-09T13:40:09.3Z</time></trkpt><trkpt lat="43.9897873" lon="7.8503504"><ele>1214.0</ele><time>2026-04-09T13:40:10.3Z</time></trkpt><trkpt lat="43.9898757" lon="7.8502815"><ele>1214.0</ele><time>2026-04-09T13:40:11.3Z</time></trkpt><trkpt lat="43.9899491" lon="7.8502196"><ele>1214.0</ele><time>2026-04-09T13:40:12.3Z</time></trkpt><trkpt lat="43.990002" lon="7.8501527"><ele>1214.0</ele><time>2026-04-09T13:40:13.301Z</time></trkpt><trkpt lat="43.990022" lon="7.8500666"><ele>1214.0</ele><time>2026-04-09T13:40:14.3Z</time></trkpt><trkpt lat="43.9900043" lon="7.8499673"><ele>1214.0</ele><time>2026-04-09T13:40:15.3Z</time></trkpt><trkpt lat="43.9899536" lon="7.8498581"><ele>1214.0</ele><time>2026-04-09T13:40:16.3Z</time></trkpt><trkpt lat="43.9898899" lon="7.8497508"><ele>1216.8</ele><time>2026-04-09T13:40:17.301Z</time></trkpt><trkpt lat="43.9898305" lon="7.8496396"><ele>1219.6000000000001</ele><time>2026-04-09T13:40:18.3Z</time></trkpt><trkpt lat="43.9897716" lon="7.8495267"><ele>1222.4</ele><time>2026-04-09T13:40:19.301Z</time></trkpt><trkpt lat="43.9897279" lon="7.8494135"><ele>1225.2</ele><time>2026-04-09T13:40:20.3Z</time></trkpt><trkpt lat="43.9897165" lon="7.8492907"><ele>1228.0</ele><time>2026-04-09T13:40:21.3Z</time></trkpt><trkpt lat="43.9897322" lon="7.8491774"><ele>1229.8</ele><time>2026-04-09T13:40:22.301Z</time></trkpt><trkpt lat="43.9897717" lon="7.8490677"><ele>1231.6</ele><time>2026-04-09T13:40:23.3Z</time></trkpt><trkpt lat="43.9898197" lon="7.8489556"><ele>1233.4</ele><time>2026-04-09T13:40:24.301Z</time></trkpt><trkpt lat="43.9898494" lon="7.8488398"><ele>1235.2</ele><time>2026-04-09T13:40:25.301Z</time></trkpt><trkpt lat="43.9898582" lon="7.8487146"><ele>1237.0</ele><time>2026-04-09T13:40:26.301Z</time></trkpt><trkpt lat="43.9898351" lon="7.8485836"><ele>1238.6666666666665</ele><time>2026-04-09T13:40:27.3Z</time></trkpt><trkpt lat="43.9897949" lon="7.8484469"><ele>1240.3333333333333</ele><time>2026-04-09T13:40:28.3Z</time></trkpt><trkpt lat="43.989746" lon="7.8483329"><ele>1242.0</ele><time>2026-04-09T13:40:29.3Z</time></trkpt><trkpt lat="43.9896989" lon="7.8482469"><ele>1243.6666666666667</ele><time>2026-04-09T13:40:30.301Z</time></trkpt><trkpt lat="43.9896645" lon="7.8481709"><ele>1245.3333333333335</ele><time>2026-04-09T13:40:31.3Z</time></trkpt><trkpt lat="43.9896512" lon="7.8480833"><ele>1247.0</ele><time>2026-04-09T13:40:32.3Z</time></trkpt><trkpt lat="43.9897192" lon="7.8479492"><ele>1247.0</ele><time>2026-04-09T13:40:34.3Z</time></trkpt><trkpt lat="43.9897823" lon="7.8478853"><ele>1247.0</ele><time>2026-04-09T13:40:35.3Z</time></trkpt><trkpt lat="43.989844" lon="7.8477857"><ele>1247.0</ele><time>2026-04-09T13:40:36.3Z</time></trkpt><trkpt lat="43.9898741" lon="7.8476784"><ele>1247.0</ele><time>2026-04-09T13:40:37.3Z</time></trkpt><trkpt lat="43.9899018" lon="7.8475911"><ele>1247.0</ele><time>2026-04-09T13:40:38.3Z</time></trkpt><trkpt lat="43.9900114" lon="7.8475171"><ele>1247.0</ele><time>2026-04-09T13:40:40.3Z</time></trkpt><trkpt lat="43.9900769" lon="7.8475273"><ele>1245.8</ele><time>2026-04-09T13:40:41.3Z</time></trkpt><trkpt lat="43.9901473" lon="7.8475173"><ele>1244.6</ele><time>2026-04-09T13:40:42.301Z</time></trkpt><trkpt lat="43.990213" lon="7.847462"><ele>1243.3999999999999</ele><time>2026-04-09T13:40:43.301Z</time></trkpt><trkpt lat="43.9902628" lon="7.8473539"><ele>1242.2</ele><time>2026-04-09T13:40:44.3Z</time></trkpt><trkpt lat="43.9902999" lon="7.8472196"><ele>1241.0</ele><time>2026-04-09T13:40:45.3Z</time></trkpt><trkpt lat="43.9903455" lon="7.8470796"><ele>1241.0</ele><time>2026-04-09T13:40:46.3Z</time></trkpt><trkpt lat="43.9904072" lon="7.8469274"><ele>1241.0</ele><time>2026-04-09T13:40:47.3Z</time></trkpt><trkpt lat="43.9904729" lon="7.8467649"><ele>1241.0</ele><time>2026-04-09T13:40:48.3Z</time></trkpt><trkpt lat="43.9905391" lon="7.846598"><ele>1241.0</ele><time>2026-04-09T13:40:49.301Z</time></trkpt><trkpt lat="43.9906009" lon="7.8464335"><ele>1244.2</ele><time>2026-04-09T13:40:50.301Z</time></trkpt><trkpt lat="43.9906664" lon="7.8462656"><ele>1247.3999999999999</ele><time>2026-04-09T13:40:51.3Z</time></trkpt><trkpt lat="43.9907231" lon="7.846118"><ele>1250.6</ele><time>2026-04-09T13:40:52.3Z</time></trkpt><trkpt lat="43.9907684" lon="7.8459966"><ele>1253.8</ele><time>2026-04-09T13:40:53.301Z</time></trkpt><trkpt lat="43.9908" lon="7.8458757"><ele>1257.0</ele><time>2026-04-09T13:40:54.301Z</time></trkpt><trkpt lat="43.9908137" lon="7.8457619"><ele>1257.0</ele><time>2026-04-09T13:40:55.3Z</time></trkpt><trkpt lat="43.9908148" lon="7.8456622"><ele>1257.0</ele><time>2026-04-09T13:40:56.3Z</time></trkpt><trkpt lat="43.9908244" lon="7.8455708"><ele>1257.0</ele><time>2026-04-09T13:40:57.301Z</time></trkpt><trkpt lat="43.9908889" lon="7.8454582"><ele>1257.0</ele><time>2026-04-09T13:40:59.301Z</time></trkpt><trkpt lat="43.9910207" lon="7.845421"><ele>1257.0</ele><time>2026-04-09T13:41:01.301Z</time></trkpt><trkpt lat="43.991104" lon="7.8454211"><ele>1257.0</ele><time>2026-04-09T13:41:02.3Z</time></trkpt><trkpt lat="43.9911901" lon="7.8454138"><ele>1257.0</ele><time>2026-04-09T13:41:03.3Z</time></trkpt><trkpt lat="43.9912701" lon="7.8453898"><ele>1257.0</ele><time>2026-04-09T13:41:04.301Z</time></trkpt><trkpt lat="43.991342" lon="7.845321"><ele>1257.0</ele><time>2026-04-09T13:41:05.301Z</time></trkpt><trkpt lat="43.9913949" lon="7.8452108"><ele>1257.0</ele><time>2026-04-09T13:41:06.301Z</time></trkpt><trkpt lat="43.9914367" lon="7.8450866"><ele>1257.0</ele><time>2026-04-09T13:41:07.3Z</time></trkpt><trkpt lat="43.9914753" lon="7.8449575"><ele>1260.1666666666667</ele><time>2026-04-09T13:41:08.3Z</time></trkpt><trkpt lat="43.9915214" lon="7.8448312"><ele>1263.3333333333333</ele><time>2026-04-09T13:41:09.3Z</time></trkpt><trkpt lat="43.9915661" lon="7.844728"><ele>1266.5</ele><time>2026-04-09T13:41:10.3Z</time></trkpt><trkpt lat="43.9916134" lon="7.8446486"><ele>1269.6666666666665</ele><time>2026-04-09T13:41:11.301Z</time></trkpt><trkpt lat="43.9916778" lon="7.8446036"><ele>1272.8333333333333</ele><time>2026-04-09T13:41:12.301Z</time></trkpt><trkpt lat="43.9917428" lon="7.8446099"><ele>1276.0</ele><time>2026-04-09T13:41:13.3Z</time></trkpt><trkpt lat="43.9918092" lon="7.8446513"><ele>1277.6</ele><time>2026-04-09T13:41:14.301Z</time></trkpt><trkpt lat="43.9918836" lon="7.8447316"><ele>1279.1999999999998</ele><time>2026-04-09T13:41:15.301Z</time></trkpt><trkpt lat="43.9919657" lon="7.8448376"><ele>1280.8000000000002</ele><time>2026-04-09T13:41:16.301Z</time></trkpt><trkpt lat="43.9920541" lon="7.844941"><ele>1282.4</ele><time>2026-04-09T13:41:17.3Z</time></trkpt><trkpt lat="43.992147" lon="7.8450502"><ele>1284.0</ele><time>2026-04-09T13:41:18.301Z</time></trkpt><trkpt lat="43.992232" lon="7.8451372"><ele>1282.2</ele><time>2026-04-09T13:41:19.301Z</time></trkpt><trkpt lat="43.9923182" lon="7.8451968"><ele>1280.4</ele><time>2026-04-09T13:41:20.3Z</time></trkpt><trkpt lat="43.9924105" lon="7.8452321"><ele>1278.6</ele><time>2026-04-09T13:41:21.301Z</time></trkpt><trkpt lat="43.9925017" lon="7.8452541"><ele>1276.8</ele><time>2026-04-09T13:41:22.3Z</time></trkpt><trkpt lat="43.9925932" lon="7.8452781"><ele>1275.0</ele><time>2026-04-09T13:41:23.301Z</time></trkpt><trkpt lat="43.9926761" lon="7.8452999"><ele>1275.0</ele><time>2026-04-09T13:41:24.301Z</time></trkpt><trkpt lat="43.9927503" lon="7.8453146"><ele>1275.0</ele><time>2026-04-09T13:41:25.3Z</time></trkpt><trkpt lat="43.9928281" lon="7.8453045"><ele>1275.0</ele><time>2026-04-09T13:41:26.301Z</time></trkpt><trkpt lat="43.9928956" lon="7.8452399"><ele>1275.0</ele><time>2026-04-09T13:41:27.3Z</time></trkpt><trkpt lat="43.9929491" lon="7.8451222"><ele>1275.0</ele><time>2026-04-09T13:41:28.3Z</time></trkpt><trkpt lat="43.9930016" lon="7.8449798"><ele>1279.0</ele><time>2026-04-09T13:41:29.301Z</time></trkpt><trkpt lat="43.9930652" lon="7.8447977"><ele>1283.0</ele><time>2026-04-09T13:41:30.301Z</time></trkpt><trkpt lat="43.9931381" lon="7.8445865"><ele>1287.0</ele><time>2026-04-09T13:41:31.301Z</time></trkpt><trkpt lat="43.9932069" lon="7.8443716"><ele>1287.25</ele><time>2026-04-09T13:41:32.301Z</time></trkpt><trkpt lat="43.9932781" lon="7.8441804"><ele>1287.5</ele><time>2026-04-09T13:41:33.301Z</time></trkpt><trkpt lat="43.9933538" lon="7.8440035"><ele>1287.75</ele><time>2026-04-09T13:41:34.3Z</time></trkpt><trkpt lat="43.993433" lon="7.8438328"><ele>1288.0</ele><time>2026-04-09T13:41:35.3Z</time></trkpt><trkpt lat="43.9935131" lon="7.8436731"><ele>1288.0</ele><time>2026-04-09T13:41:36.3Z</time></trkpt><trkpt lat="43.9935712" lon="7.8435024"><ele>1288.0</ele><time>2026-04-09T13:41:37.3Z</time></trkpt><trkpt lat="43.9936127" lon="7.8433219"><ele>1288.0</ele><time>2026-04-09T13:41:38.301Z</time></trkpt><trkpt lat="43.9936377" lon="7.8431317"><ele>1288.0</ele><time>2026-04-09T13:41:39.3Z</time></trkpt><trkpt lat="43.9936429" lon="7.8429416"><ele>1289.75</ele><time>2026-04-09T13:41:40.3Z</time></trkpt><trkpt lat="43.9936279" lon="7.8427489"><ele>1291.5</ele><time>2026-04-09T13:41:41.3Z</time></trkpt><trkpt lat="43.9936033" lon="7.8425697"><ele>1293.25</ele><time>2026-04-09T13:41:42.3Z</time></trkpt><trkpt lat="43.99356" lon="7.842392"><ele>1295.0</ele><time>2026-04-09T13:41:43.3Z</time></trkpt><trkpt lat="43.9935092" lon="7.8422079"><ele>1295.0</ele><time>2026-04-09T13:41:44.3Z</time></trkpt><trkpt lat="43.9934623" lon="7.8420178"><ele>1295.0</ele><time>2026-04-09T13:41:45.301Z</time></trkpt><trkpt lat="43.9934327" lon="7.8418219"><ele>1295.0</ele><time>2026-04-09T13:41:46.3Z</time></trkpt><trkpt lat="43.9934063" lon="7.8416349"><ele>1295.0</ele><time>2026-04-09T13:41:47.301Z</time></trkpt><trkpt lat="43.9933877" lon="7.8414418"><ele>1295.25</ele><time>2026-04-09T13:41:48.3Z</time></trkpt><trkpt lat="43.9933671" lon="7.8412563"><ele>1295.5</ele><time>2026-04-09T13:41:49.301Z</time></trkpt><trkpt lat="43.9933278" lon="7.8410819"><ele>1295.75</ele><time>2026-04-09T13:41:50.301Z</time></trkpt><trkpt lat="43.9932784" lon="7.8409138"><ele>1296.0</ele><time>2026-04-09T13:41:51.301Z</time></trkpt><trkpt lat="43.9932182" lon="7.8407472"><ele>1302.8</ele><time>2026-04-09T13:41:52.3Z</time></trkpt><trkpt lat="43.9931657" lon="7.8405826"><ele>1309.6</ele><time>2026-04-09T13:41:53.3Z</time></trkpt><trkpt lat="43.9931209" lon="7.840444"><ele>1316.4</ele><time>2026-04-09T13:41:54.3Z</time></trkpt><trkpt lat="43.9930893" lon="7.840299"><ele>1323.2</ele><time>2026-04-09T13:41:55.3Z</time></trkpt><trkpt lat="43.9930724" lon="7.8401614"><ele>1330.0</ele><time>2026-04-09T13:41:56.301Z</time></trkpt><trkpt lat="43.9930777" lon="7.8400234"><ele>1330.0</ele><time>2026-04-09T13:41:57.3Z</time></trkpt><trkpt lat="43.9930964" lon="7.8398634"><ele>1330.0</ele><time>2026-04-09T13:41:58.3Z</time></trkpt><trkpt lat="43.9931063" lon="7.8396967"><ele>1330.0</ele><time>2026-04-09T13:41:59.3Z</time></trkpt><trkpt lat="43.9931163" lon="7.8395248"><ele>1330.0</ele><time>2026-04-09T13:42:00.301Z</time></trkpt><trkpt lat="43.9931188" lon="7.83935"><ele>1331.0</ele><time>2026-04-09T13:42:01.3Z</time></trkpt><trkpt lat="43.9931248" lon="7.8391867"><ele>1332.0</ele><time>2026-04-09T13:42:02.3Z</time></trkpt><trkpt lat="43.9931204" lon="7.8390251"><ele>1333.0</ele><time>2026-04-09T13:42:03.301Z</time></trkpt><trkpt lat="43.993106" lon="7.838875"><ele>1334.0</ele><time>2026-04-09T13:42:04.301Z</time></trkpt><trkpt lat="43.9930836" lon="7.8387341"><ele>1335.0</ele><time>2026-04-09T13:42:05.3Z</time></trkpt><trkpt lat="43.9930574" lon="7.8385979"><ele>1335.6</ele><time>2026-04-09T13:42:06.301Z</time></trkpt><trkpt lat="43.9930362" lon="7.8384616"><ele>1336.2</ele><time>2026-04-09T13:42:07.3Z</time></trkpt><trkpt lat="43.9930163" lon="7.8383169"><ele>1336.8000000000002</ele><time>2026-04-09T13:42:08.301Z</time></trkpt><trkpt lat="43.9929978" lon="7.8381725"><ele>1337.4</ele><time>2026-04-09T13:42:09.3Z</time></trkpt><trkpt lat="43.992973" lon="7.8380281"><ele>1338.0</ele><time>2026-04-09T13:42:10.3Z</time></trkpt><trkpt lat="43.9929383" lon="7.8378812"><ele>1338.0</ele><time>2026-04-09T13:42:11.301Z</time></trkpt><trkpt lat="43.9928953" lon="7.837742"><ele>1338.0</ele><time>2026-04-09T13:42:12.3Z</time></trkpt><trkpt lat="43.9928588" lon="7.8376076"><ele>1338.0</ele><time>2026-04-09T13:42:13.301Z</time></trkpt><trkpt lat="43.9928305" lon="7.8374909"><ele>1338.0</ele><time>2026-04-09T13:42:14.3Z</time></trkpt><trkpt lat="43.9928101" lon="7.8373963"><ele>1338.0</ele><time>2026-04-09T13:42:15.301Z</time></trkpt><trkpt lat="43.992826" lon="7.8372678"><ele>1339.4</ele><time>2026-04-09T13:42:17.301Z</time></trkpt><trkpt lat="43.9929023" lon="7.8371593"><ele>1340.8000000000002</ele><time>2026-04-09T13:42:19.3Z</time></trkpt><trkpt lat="43.9929606" lon="7.8370988"><ele>1342.2</ele><time>2026-04-09T13:42:20.301Z</time></trkpt><trkpt lat="43.993027" lon="7.8370236"><ele>1343.6</ele><time>2026-04-09T13:42:21.3Z</time></trkpt><trkpt lat="43.9931073" lon="7.8369229"><ele>1345.0</ele><time>2026-04-09T13:42:22.3Z</time></trkpt><trkpt lat="43.9931855" lon="7.8368329"><ele>1344.4</ele><time>2026-04-09T13:42:23.3Z</time></trkpt><trkpt lat="43.9932717" lon="7.8367299"><ele>1343.8</ele><time>2026-04-09T13:42:24.3Z</time></trkpt><trkpt lat="43.9933598" lon="7.8366339"><ele>1343.1999999999998</ele><time>2026-04-09T13:42:25.3Z</time></trkpt><trkpt lat="43.9934403" lon="7.8365519"><ele>1342.6</ele><time>2026-04-09T13:42:26.3Z</time></trkpt><trkpt lat="43.9935108" lon="7.8364613"><ele>1342.0</ele><time>2026-04-09T13:42:27.301Z</time></trkpt><trkpt lat="43.9935691" lon="7.836355"><ele>1342.0</ele><time>2026-04-09T13:42:28.301Z</time></trkpt><trkpt lat="43.9936198" lon="7.8362275"><ele>1342.0</ele><time>2026-04-09T13:42:29.301Z</time></trkpt><trkpt lat="43.9936651" lon="7.8360859"><ele>1342.0</ele><time>2026-04-09T13:42:30.301Z</time></trkpt><trkpt lat="43.9937125" lon="7.8359501"><ele>1342.0</ele><time>2026-04-09T13:42:31.302Z</time></trkpt><trkpt lat="43.9937615" lon="7.8358218"><ele>1342.0</ele><time>2026-04-09T13:42:32.301Z</time></trkpt><trkpt lat="43.9938259" lon="7.8357114"><ele>1342.75</ele><time>2026-04-09T13:42:33.302Z</time></trkpt><trkpt lat="43.993906" lon="7.8356089"><ele>1343.5</ele><time>2026-04-09T13:42:34.302Z</time></trkpt><trkpt lat="43.9939953" lon="7.8355103"><ele>1344.25</ele><time>2026-04-09T13:42:35.302Z</time></trkpt><trkpt lat="43.9940993" lon="7.8354061"><ele>1345.0</ele><time>2026-04-09T13:42:36.301Z</time></trkpt><trkpt lat="43.9942076" lon="7.8353043"><ele>1345.0</ele><time>2026-04-09T13:42:37.302Z</time></trkpt><trkpt lat="43.994304" lon="7.8351955"><ele>1345.0</ele><time>2026-04-09T13:42:38.301Z</time></trkpt><trkpt lat="43.9944015" lon="7.8350674"><ele>1345.0</ele><time>2026-04-09T13:42:39.301Z</time></trkpt><trkpt lat="43.994501" lon="7.8349231"><ele>1345.0</ele><time>2026-04-09T13:42:40.301Z</time></trkpt><trkpt lat="43.9946011" lon="7.8347716"><ele>1350.75</ele><time>2026-04-09T13:42:41.301Z</time></trkpt><trkpt lat="43.9946978" lon="7.8346281"><ele>1356.5</ele><time>2026-04-09T13:42:42.301Z</time></trkpt><trkpt lat="43.994793" lon="7.8344818"><ele>1362.25</ele><time>2026-04-09T13:42:43.302Z</time></trkpt><trkpt lat="43.9948857" lon="7.8343403"><ele>1368.0</ele><time>2026-04-09T13:42:44.301Z</time></trkpt><trkpt lat="43.994974" lon="7.8342049"><ele>1368.8000000000002</ele><time>2026-04-09T13:42:45.301Z</time></trkpt><trkpt lat="43.9950635" lon="7.8340809"><ele>1369.6</ele><time>2026-04-09T13:42:46.301Z</time></trkpt><trkpt lat="43.9951482" lon="7.8339714"><ele>1370.4</ele><time>2026-04-09T13:42:47.302Z</time></trkpt><trkpt lat="43.9952225" lon="7.8338891"><ele>1371.1999999999998</ele><time>2026-04-09T13:42:48.302Z</time></trkpt><trkpt lat="43.9952789" lon="7.8338259"><ele>1372.0</ele><time>2026-04-09T13:42:49.301Z</time></trkpt><trkpt lat="43.9953236" lon="7.8337283"><ele>1372.0</ele><time>2026-04-09T13:42:51.302Z</time></trkpt><trkpt lat="43.9952973" lon="7.8336424"><ele>1372.0</ele><time>2026-04-09T13:43:03.301Z</time></trkpt><trkpt lat="43.9952084" lon="7.833614"><ele>1372.0</ele><time>2026-04-09T13:43:05.302Z</time></trkpt><trkpt lat="43.9951426" lon="7.8336317"><ele>1372.0</ele><time>2026-04-09T13:43:06.301Z</time></trkpt><trkpt lat="43.9950638" lon="7.8336715"><ele>1372.0</ele><time>2026-04-09T13:43:07.301Z</time></trkpt><trkpt lat="43.9949922" lon="7.83371"><ele>1372.0</ele><time>2026-04-09T13:43:08.301Z</time></trkpt><trkpt lat="43.9949329" lon="7.8337402"><ele>1372.0</ele><time>2026-04-09T13:43:09.302Z</time></trkpt><trkpt lat="43.9948687" lon="7.8337642"><ele>1373.5</ele><time>2026-04-09T13:43:12.301Z</time></trkpt><trkpt lat="43.9947889" lon="7.8337797"><ele>1375.0</ele><time>2026-04-09T13:43:23.301Z</time></trkpt><trkpt lat="43.9946652" lon="7.8337948"><ele>1376.5</ele><time>2026-04-09T13:43:25.301Z</time></trkpt><trkpt lat="43.9946015" lon="7.8338042"><ele>1378.0</ele><time>2026-04-09T13:43:26.301Z</time></trkpt><trkpt lat="43.9944929" lon="7.833797"><ele>1379.5</ele><time>2026-04-09T13:43:28.301Z</time></trkpt><trkpt lat="43.9944294" lon="7.8338116"><ele>1381.0</ele><time>2026-04-09T13:43:30.301Z</time></trkpt><trkpt lat="43.9943654" lon="7.8338558"><ele>1381.0</ele><time>2026-04-09T13:45:38.301Z</time></trkpt><trkpt lat="43.9943018" lon="7.8338991"><ele>1381.0</ele><time>2026-04-09T13:45:44.343Z</time></trkpt><trkpt lat="43.99424" lon="7.8339418"><ele>1381.0</ele><time>2026-04-09T13:45:50.41Z</time></trkpt><trkpt lat="43.9944061" lon="7.8338575"><ele>1381.0</ele><time>2026-04-09T13:53:44.34Z</time></trkpt><trkpt lat="43.9945364" lon="7.8338375"><ele>1381.0</ele><time>2026-04-09T13:55:23.307Z</time></trkpt><trkpt lat="43.9946097" lon="7.8338206"><ele>1381.0</ele><time>2026-04-09T13:55:24.307Z</time></trkpt><trkpt lat="43.9946763" lon="7.8338099"><ele>1381.0</ele><time>2026-04-09T13:55:25.308Z</time></trkpt><trkpt lat="43.9947393" lon="7.8337995"><ele>1381.0</ele><time>2026-04-09T13:55:26.307Z</time></trkpt><trkpt lat="43.9948359" lon="7.8337854"><ele>1381.0</ele><time>2026-04-09T13:55:28.307Z</time></trkpt><trkpt lat="43.9949417" lon="7.8337429"><ele>1381.0</ele><time>2026-04-09T13:55:30.307Z</time></trkpt><trkpt lat="43.9950013" lon="7.8337105"><ele>1381.0</ele><time>2026-04-09T13:55:31.307Z</time></trkpt><trkpt lat="43.9950596" lon="7.8336704"><ele>1379.5</ele><time>2026-04-09T13:55:32.307Z</time></trkpt><trkpt lat="43.9951583" lon="7.8335956"><ele>1378.0</ele><time>2026-04-09T13:55:34.308Z</time></trkpt><trkpt lat="43.9952438" lon="7.8335714"><ele>1376.5</ele><time>2026-04-09T13:55:36.307Z</time></trkpt><trkpt lat="43.9952927" lon="7.8336417"><ele>1375.0</ele><time>2026-04-09T13:55:38.307Z</time></trkpt><trkpt lat="43.9953513" lon="7.8336898"><ele>1373.5</ele><time>2026-04-09T13:55:43.307Z</time></trkpt><trkpt lat="43.995297" lon="7.833609"><ele>1372.0</ele><time>2026-04-09T13:56:14.308Z</time></trkpt><trkpt lat="43.9952256" lon="7.8335979"><ele>1372.0</ele><time>2026-04-09T13:56:16.308Z</time></trkpt><trkpt lat="43.9951623" lon="7.833612"><ele>1372.0</ele><time>2026-04-09T13:56:17.307Z</time></trkpt><trkpt lat="43.9950914" lon="7.8336427"><ele>1372.0</ele><time>2026-04-09T13:56:18.307Z</time></trkpt><trkpt lat="43.9950131" lon="7.8336885"><ele>1372.0</ele><time>2026-04-09T13:56:19.307Z</time></trkpt><trkpt lat="43.994924" lon="7.8337316"><ele>1372.0</ele><time>2026-04-09T13:56:20.308Z</time></trkpt><trkpt lat="43.9948382" lon="7.8337583"><ele>1372.0</ele><time>2026-04-09T13:56:21.308Z</time></trkpt><trkpt lat="43.9947467" lon="7.8337796"><ele>1373.8</ele><time>2026-04-09T13:56:22.307Z</time></trkpt><trkpt lat="43.994659" lon="7.8337899"><ele>1375.6</ele><time>2026-04-09T13:56:23.308Z</time></trkpt><trkpt lat="43.9945688" lon="7.8338002"><ele>1377.3999999999999</ele><time>2026-04-09T13:56:24.308Z</time></trkpt><trkpt lat="43.9944797" lon="7.8338186"><ele>1379.1999999999998</ele><time>2026-04-09T13:56:25.307Z</time></trkpt><trkpt lat="43.9943901" lon="7.8338546"><ele>1381.0</ele><time>2026-04-09T13:56:26.307Z</time></trkpt><trkpt lat="43.9942976" lon="7.833909"><ele>1381.0</ele><time>2026-04-09T13:56:27.308Z</time></trkpt><trkpt lat="43.9942024" lon="7.8339756"><ele>1381.0</ele><time>2026-04-09T13:56:28.307Z</time></trkpt><trkpt lat="43.9941067" lon="7.834039"><ele>1381.0</ele><time>2026-04-09T13:56:29.308Z</time></trkpt><trkpt lat="43.9940102" lon="7.8341024"><ele>1381.0</ele><time>2026-04-09T13:56:30.307Z</time></trkpt><trkpt lat="43.9939119" lon="7.8341599"><ele>1381.0</ele><time>2026-04-09T13:56:31.307Z</time></trkpt><trkpt lat="43.9938122" lon="7.8342097"><ele>1381.0</ele><time>2026-04-09T13:56:32.307Z</time></trkpt><trkpt lat="43.9937084" lon="7.834249"><ele>1381.0</ele><time>2026-04-09T13:56:33.307Z</time></trkpt><trkpt lat="43.9936028" lon="7.8342826"><ele>1381.0</ele><time>2026-04-09T13:56:34.307Z</time></trkpt><trkpt lat="43.9934996" lon="7.834325"><ele>1381.0</ele><time>2026-04-09T13:56:35.308Z</time></trkpt><trkpt lat="43.9933994" lon="7.8343803"><ele>1381.0</ele><time>2026-04-09T13:56:36.308Z</time></trkpt><trkpt lat="43.993299" lon="7.8344372"><ele>1382.1999999999998</ele><time>2026-04-09T13:56:37.307Z</time></trkpt><trkpt lat="43.9931952" lon="7.8344748"><ele>1383.3999999999999</ele><time>2026-04-09T13:56:38.308Z</time></trkpt><trkpt lat="43.9930917" lon="7.8345137"><ele>1384.6</ele><time>2026-04-09T13:56:39.307Z</time></trkpt><trkpt lat="43.9929957" lon="7.8345614"><ele>1385.8</ele><time>2026-04-09T13:56:40.307Z</time></trkpt><trkpt lat="43.9929023" lon="7.8346164"><ele>1387.0</ele><time>2026-04-09T13:56:41.307Z</time></trkpt><trkpt lat="43.9928051" lon="7.8346641"><ele>1387.0</ele><time>2026-04-09T13:56:42.307Z</time></trkpt><trkpt lat="43.9927028" lon="7.8346877"><ele>1387.0</ele><time>2026-04-09T13:56:43.307Z</time></trkpt><trkpt lat="43.992606" lon="7.8346768"><ele>1387.0</ele><time>2026-04-09T13:56:44.307Z</time></trkpt><trkpt lat="43.9925121" lon="7.8346404"><ele>1387.0</ele><time>2026-04-09T13:56:45.307Z</time></trkpt><trkpt lat="43.992421" lon="7.8345933"><ele>1387.0</ele><time>2026-04-09T13:56:46.308Z</time></trkpt><trkpt lat="43.9923341" lon="7.8345628"><ele>1385.1999999999998</ele><time>2026-04-09T13:56:47.308Z</time></trkpt><trkpt lat="43.9922492" lon="7.8345643"><ele>1383.4</ele><time>2026-04-09T13:56:48.308Z</time></trkpt><trkpt lat="43.9921578" lon="7.8346028"><ele>1381.6</ele><time>2026-04-09T13:56:49.307Z</time></trkpt><trkpt lat="43.9920611" lon="7.8346575"><ele>1379.8000000000002</ele><time>2026-04-09T13:56:50.308Z</time></trkpt><trkpt lat="43.9919585" lon="7.8347166"><ele>1378.0</ele><time>2026-04-09T13:56:51.307Z</time></trkpt><trkpt lat="43.9918522" lon="7.8347745"><ele>1378.0</ele><time>2026-04-09T13:56:52.308Z</time></trkpt><trkpt lat="43.9917419" lon="7.8348327"><ele>1378.0</ele><time>2026-04-09T13:56:53.308Z</time></trkpt><trkpt lat="43.9916285" lon="7.8348703"><ele>1378.0</ele><time>2026-04-09T13:56:54.307Z</time></trkpt><trkpt lat="43.9915177" lon="7.8349015"><ele>1378.0</ele><time>2026-04-09T13:56:55.307Z</time></trkpt><trkpt lat="43.9914159" lon="7.8349405"><ele>1374.6000000000001</ele><time>2026-04-09T13:56:56.307Z</time></trkpt><trkpt lat="43.9913202" lon="7.8349934"><ele>1371.2</ele><time>2026-04-09T13:56:57.308Z</time></trkpt><trkpt lat="43.9912259" lon="7.8350524"><ele>1367.8</ele><time>2026-04-09T13:56:58.307Z</time></trkpt><trkpt lat="43.9911335" lon="7.8351081"><ele>1364.4</ele><time>2026-04-09T13:56:59.307Z</time></trkpt><trkpt lat="43.991043" lon="7.8351522"><ele>1361.0</ele><time>2026-04-09T13:57:00.307Z</time></trkpt><trkpt lat="43.9909552" lon="7.8351704"><ele>1357.6666666666667</ele><time>2026-04-09T13:57:01.307Z</time></trkpt><trkpt lat="43.9908676" lon="7.8351742"><ele>1354.3333333333335</ele><time>2026-04-09T13:57:02.307Z</time></trkpt><trkpt lat="43.9907802" lon="7.8351704"><ele>1351.0</ele><time>2026-04-09T13:57:03.308Z</time></trkpt><trkpt lat="43.9906996" lon="7.8351694"><ele>1347.6666666666667</ele><time>2026-04-09T13:57:04.307Z</time></trkpt><trkpt lat="43.9906332" lon="7.8351634"><ele>1344.3333333333333</ele><time>2026-04-09T13:57:05.308Z</time></trkpt><trkpt lat="43.990546" lon="7.8350628"><ele>1341.0</ele><time>2026-04-09T13:57:07.307Z</time></trkpt><trkpt lat="43.9906146" lon="7.8349691"><ele>1341.0</ele><time>2026-04-09T13:57:09.308Z</time></trkpt><trkpt lat="43.9907225" lon="7.8350218"><ele>1341.0</ele><time>2026-04-09T13:57:11.307Z</time></trkpt><trkpt lat="43.9907862" lon="7.8350658"><ele>1341.0</ele><time>2026-04-09T13:57:12.308Z</time></trkpt><trkpt lat="43.990865" lon="7.8350806"><ele>1341.0</ele><time>2026-04-09T13:57:13.308Z</time></trkpt><trkpt lat="43.99095" lon="7.8350765"><ele>1341.0</ele><time>2026-04-09T13:57:14.307Z</time></trkpt><trkpt lat="43.9910314" lon="7.8350429"><ele>1341.0</ele><time>2026-04-09T13:57:15.307Z</time></trkpt><trkpt lat="43.9911077" lon="7.8349838"><ele>1345.0</ele><time>2026-04-09T13:57:16.308Z</time></trkpt><trkpt lat="43.9911771" lon="7.8349042"><ele>1349.0</ele><time>2026-04-09T13:57:17.308Z</time></trkpt><trkpt lat="43.9912455" lon="7.8348271"><ele>1353.0</ele><time>2026-04-09T13:57:18.308Z</time></trkpt><trkpt lat="43.9913084" lon="7.8347538"><ele>1357.0</ele><time>2026-04-09T13:57:19.308Z</time></trkpt><trkpt lat="43.9913675" lon="7.8346934"><ele>1361.0</ele><time>2026-04-09T13:57:20.307Z</time></trkpt><trkpt lat="43.9914729" lon="7.8346082"><ele>1361.0</ele><time>2026-04-09T13:57:22.307Z</time></trkpt><trkpt lat="43.9915438" lon="7.8345744"><ele>1361.0</ele><time>2026-04-09T13:57:23.307Z</time></trkpt><trkpt lat="43.9916278" lon="7.8345361"><ele>1361.0</ele><time>2026-04-09T13:57:24.308Z</time></trkpt><trkpt lat="43.9917077" lon="7.8344885"><ele>1361.0</ele><time>2026-04-09T13:57:25.308Z</time></trkpt><trkpt lat="43.9917814" lon="7.8344191"><ele>1361.0</ele><time>2026-04-09T13:57:26.307Z</time></trkpt><trkpt lat="43.9918488" lon="7.8343397"><ele>1361.0</ele><time>2026-04-09T13:57:27.307Z</time></trkpt><trkpt lat="43.9919169" lon="7.8342743"><ele>1356.5</ele><time>2026-04-09T13:57:28.308Z</time></trkpt><trkpt lat="43.991986" lon="7.8342277"><ele>1352.0</ele><time>2026-04-09T13:57:29.308Z</time></trkpt><trkpt lat="43.992067" lon="7.8341969"><ele>1347.5</ele><time>2026-04-09T13:57:30.307Z</time></trkpt><trkpt lat="43.9921602" lon="7.8341857"><ele>1343.0</ele><time>2026-04-09T13:57:31.308Z</time></trkpt><trkpt lat="43.9922556" lon="7.8341812"><ele>1338.5</ele><time>2026-04-09T13:57:32.307Z</time></trkpt><trkpt lat="43.9923499" lon="7.8341772"><ele>1334.0</ele><time>2026-04-09T13:57:33.308Z</time></trkpt><trkpt lat="43.9924385" lon="7.83418"><ele>1338.4</ele><time>2026-04-09T13:57:34.307Z</time></trkpt><trkpt lat="43.9925302" lon="7.8341852"><ele>1342.8000000000002</ele><time>2026-04-09T13:57:35.307Z</time></trkpt><trkpt lat="43.992624" lon="7.8341678"><ele>1347.1999999999998</ele><time>2026-04-09T13:57:36.307Z</time></trkpt><trkpt lat="43.992724" lon="7.8341113"><ele>1351.6</ele><time>2026-04-09T13:57:37.308Z</time></trkpt><trkpt lat="43.9928223" lon="7.834044"><ele>1356.0</ele><time>2026-04-09T13:57:38.307Z</time></trkpt><trkpt lat="43.992926" lon="7.8339776"><ele>1356.0</ele><time>2026-04-09T13:57:39.307Z</time></trkpt><trkpt lat="43.9930362" lon="7.8339092"><ele>1356.0</ele><time>2026-04-09T13:57:40.307Z</time></trkpt><trkpt lat="43.993146" lon="7.8338313"><ele>1356.0</ele><time>2026-04-09T13:57:41.307Z</time></trkpt><trkpt lat="43.9932474" lon="7.8337208"><ele>1356.0</ele><time>2026-04-09T13:57:42.308Z</time></trkpt><trkpt lat="43.9933434" lon="7.8336053"><ele>1353.0</ele><time>2026-04-09T13:57:43.307Z</time></trkpt><trkpt lat="43.9934426" lon="7.8334879"><ele>1350.0</ele><time>2026-04-09T13:57:44.307Z</time></trkpt><trkpt lat="43.9935473" lon="7.8333734"><ele>1347.0</ele><time>2026-04-09T13:57:45.308Z</time></trkpt><trkpt lat="43.9936473" lon="7.8332702"><ele>1344.0</ele><time>2026-04-09T13:57:46.307Z</time></trkpt><trkpt lat="43.993742" lon="7.8331665"><ele>1344.0</ele><time>2026-04-09T13:57:47.308Z</time></trkpt><trkpt lat="43.9938415" lon="7.8330683"><ele>1344.0</ele><time>2026-04-09T13:57:48.307Z</time></trkpt><trkpt lat="43.9939435" lon="7.8329676"><ele>1344.0</ele><time>2026-04-09T13:57:49.308Z</time></trkpt><trkpt lat="43.9940467" lon="7.8328683"><ele>1344.0</ele><time>2026-04-09T13:57:50.308Z</time></trkpt><trkpt lat="43.9941492" lon="7.8327676"><ele>1343.75</ele><time>2026-04-09T13:57:51.308Z</time></trkpt><trkpt lat="43.9942518" lon="7.8326696"><ele>1343.5</ele><time>2026-04-09T13:57:52.308Z</time></trkpt><trkpt lat="43.9943506" lon="7.8325697"><ele>1343.25</ele><time>2026-04-09T13:57:53.308Z</time></trkpt><trkpt lat="43.9944403" lon="7.8324713"><ele>1343.0</ele><time>2026-04-09T13:57:54.307Z</time></trkpt><trkpt lat="43.9945191" lon="7.8323708"><ele>1343.0</ele><time>2026-04-09T13:57:55.307Z</time></trkpt><trkpt lat="43.9945855" lon="7.8322601"><ele>1343.0</ele><time>2026-04-09T13:57:56.308Z</time></trkpt><trkpt lat="43.9946441" lon="7.8321388"><ele>1343.0</ele><time>2026-04-09T13:57:57.308Z</time></trkpt><trkpt lat="43.9947" lon="7.8320012"><ele>1343.0</ele><time>2026-04-09T13:57:58.308Z</time></trkpt><trkpt lat="43.9947581" lon="7.831857"><ele>1343.0</ele><time>2026-04-09T13:57:59.307Z</time></trkpt><trkpt lat="43.9948223" lon="7.8317178"><ele>1348.0</ele><time>2026-04-09T13:58:00.307Z</time></trkpt><trkpt lat="43.994895" lon="7.8315855"><ele>1353.0</ele><time>2026-04-09T13:58:01.308Z</time></trkpt><trkpt lat="43.9949752" lon="7.8314531"><ele>1358.0</ele><time>2026-04-09T13:58:02.307Z</time></trkpt><trkpt lat="43.9950514" lon="7.8313194"><ele>1363.0</ele><time>2026-04-09T13:58:03.307Z</time></trkpt><trkpt lat="43.9951174" lon="7.8311691"><ele>1363.0</ele><time>2026-04-09T13:58:04.308Z</time></trkpt><trkpt lat="43.9951725" lon="7.8310024"><ele>1363.0</ele><time>2026-04-09T13:58:05.307Z</time></trkpt><trkpt lat="43.9952277" lon="7.8308327"><ele>1363.0</ele><time>2026-04-09T13:58:06.308Z</time></trkpt><trkpt lat="43.9952799" lon="7.8306652"><ele>1363.0</ele><time>2026-04-09T13:58:07.307Z</time></trkpt><trkpt lat="43.9953362" lon="7.8305054"><ele>1356.0</ele><time>2026-04-09T13:58:08.308Z</time></trkpt><trkpt lat="43.9953864" lon="7.8303504"><ele>1349.0</ele><time>2026-04-09T13:58:09.308Z</time></trkpt><trkpt lat="43.9954282" lon="7.8301875"><ele>1342.0</ele><time>2026-04-09T13:58:10.307Z</time></trkpt><trkpt lat="43.9954592" lon="7.8300245"><ele>1335.0</ele><time>2026-04-09T13:58:11.308Z</time></trkpt><trkpt lat="43.9954741" lon="7.8298577"><ele>1329.0</ele><time>2026-04-09T13:58:12.308Z</time></trkpt><trkpt lat="43.9954942" lon="7.8296912"><ele>1323.0</ele><time>2026-04-09T13:58:13.308Z</time></trkpt><trkpt lat="43.9955254" lon="7.8295358"><ele>1317.0</ele><time>2026-04-09T13:58:14.308Z</time></trkpt><trkpt lat="43.995572" lon="7.8293845"><ele>1311.0</ele><time>2026-04-09T13:58:15.307Z</time></trkpt><trkpt lat="43.9956273" lon="7.8292387"><ele>1305.0</ele><time>2026-04-09T13:58:16.307Z</time></trkpt><trkpt lat="43.9956773" lon="7.8290777"><ele>1299.0</ele><time>2026-04-09T13:58:17.308Z</time></trkpt><trkpt lat="43.995719" lon="7.8289161"><ele>1293.0</ele><time>2026-04-09T13:58:18.308Z</time></trkpt><trkpt lat="43.9957503" lon="7.8287559"><ele>1287.0</ele><time>2026-04-09T13:58:19.308Z</time></trkpt><trkpt lat="43.9957752" lon="7.8285942"><ele>1286.0</ele><time>2026-04-09T13:58:20.307Z</time></trkpt><trkpt lat="43.9958061" lon="7.8284523"><ele>1285.0</ele><time>2026-04-09T13:58:21.308Z</time></trkpt><trkpt lat="43.9958532" lon="7.8283278"><ele>1284.0</ele><time>2026-04-09T13:58:22.308Z</time></trkpt><trkpt lat="43.9959125" lon="7.8282154"><ele>1283.0</ele><time>2026-04-09T13:58:23.307Z</time></trkpt><trkpt lat="43.9959882" lon="7.8281123"><ele>1282.0</ele><time>2026-04-09T13:58:24.307Z</time></trkpt><trkpt lat="43.9960732" lon="7.8280103"><ele>1282.0</ele><time>2026-04-09T13:58:25.308Z</time></trkpt><trkpt lat="43.9961626" lon="7.8279134"><ele>1282.0</ele><time>2026-04-09T13:58:26.307Z</time></trkpt><trkpt lat="43.99624" lon="7.8278329"><ele>1282.0</ele><time>2026-04-09T13:58:27.308Z</time></trkpt><trkpt lat="43.9963029" lon="7.8277725"><ele>1282.0</ele><time>2026-04-09T13:58:28.308Z</time></trkpt><trkpt lat="43.9963681" lon="7.8277372"><ele>1282.0</ele><time>2026-04-09T13:58:29.307Z</time></trkpt><trkpt lat="43.9964404" lon="7.8277331"><ele>1282.0</ele><time>2026-04-09T13:58:30.307Z</time></trkpt><trkpt lat="43.9965059" lon="7.8277858"><ele>1282.0</ele><time>2026-04-09T13:58:31.307Z</time></trkpt><trkpt lat="43.9965772" lon="7.8278686"><ele>1282.0</ele><time>2026-04-09T13:58:32.308Z</time></trkpt><trkpt lat="43.9966599" lon="7.8279571"><ele>1282.0</ele><time>2026-04-09T13:58:33.307Z</time></trkpt><trkpt lat="43.9967509" lon="7.8280326"><ele>1282.0</ele><time>2026-04-09T13:58:34.307Z</time></trkpt><trkpt lat="43.9968408" lon="7.8281064"><ele>1282.0</ele><time>2026-04-09T13:58:35.308Z</time></trkpt><trkpt lat="43.9969224" lon="7.8281847"><ele>1286.6</ele><time>2026-04-09T13:58:36.307Z</time></trkpt><trkpt lat="43.9970026" lon="7.8282702"><ele>1291.1999999999998</ele><time>2026-04-09T13:58:37.308Z</time></trkpt><trkpt lat="43.9970805" lon="7.8283614"><ele>1295.8</ele><time>2026-04-09T13:58:38.307Z</time></trkpt><trkpt lat="43.9971555" lon="7.8284508"><ele>1300.4</ele><time>2026-04-09T13:58:39.308Z</time></trkpt><trkpt lat="43.9972335" lon="7.8285206"><ele>1305.0</ele><time>2026-04-09T13:58:40.307Z</time></trkpt><trkpt lat="43.9973143" lon="7.8285522"><ele>1305.0</ele><time>2026-04-09T13:58:41.308Z</time></trkpt><trkpt lat="43.9973933" lon="7.8285392"><ele>1305.0</ele><time>2026-04-09T13:58:42.308Z</time></trkpt><trkpt lat="43.997467" lon="7.828502"><ele>1305.0</ele><time>2026-04-09T13:58:43.308Z</time></trkpt><trkpt lat="43.9975464" lon="7.8284527"><ele>1305.0</ele><time>2026-04-09T13:58:44.308Z</time></trkpt><trkpt lat="43.997637" lon="7.8284215"><ele>1305.0</ele><time>2026-04-09T13:58:45.307Z</time></trkpt><trkpt lat="43.9977335" lon="7.8283959"><ele>1305.0</ele><time>2026-04-09T13:58:46.307Z</time></trkpt><trkpt lat="43.9978279" lon="7.8283736"><ele>1300.3333333333333</ele><time>2026-04-09T13:58:47.308Z</time></trkpt><trkpt lat="43.9979127" lon="7.8283512"><ele>1295.6666666666667</ele><time>2026-04-09T13:58:48.308Z</time></trkpt><trkpt lat="43.9979721" lon="7.8283219"><ele>1291.0</ele><time>2026-04-09T13:58:49.308Z</time></trkpt><trkpt lat="43.9980477" lon="7.8282195"><ele>1286.3333333333335</ele><time>2026-04-09T13:58:51.307Z</time></trkpt><trkpt lat="43.9980733" lon="7.8281307"><ele>1281.6666666666667</ele><time>2026-04-09T13:58:52.307Z</time></trkpt><trkpt lat="43.9980773" lon="7.8280254"><ele>1277.0</ele><time>2026-04-09T13:58:53.308Z</time></trkpt><trkpt lat="43.9980771" lon="7.8279199"><ele>1277.0</ele><time>2026-04-09T13:58:54.307Z</time></trkpt><trkpt lat="43.9980668" lon="7.8278095"><ele>1277.0</ele><time>2026-04-09T13:58:55.307Z</time></trkpt><trkpt lat="43.9980988" lon="7.8276682"><ele>1277.0</ele><time>2026-04-09T13:58:56.307Z</time></trkpt><trkpt lat="43.9981402" lon="7.8275268"><ele>1277.0</ele><time>2026-04-09T13:58:57.308Z</time></trkpt><trkpt lat="43.9981941" lon="7.8273992"><ele>1277.0</ele><time>2026-04-09T13:58:58.307Z</time></trkpt><trkpt lat="43.9982655" lon="7.8272984"><ele>1277.5</ele><time>2026-04-09T13:58:59.307Z</time></trkpt><trkpt lat="43.9983599" lon="7.8272206"><ele>1278.0</ele><time>2026-04-09T13:59:00.307Z</time></trkpt><trkpt lat="43.9984754" lon="7.8271604"><ele>1278.5</ele><time>2026-04-09T13:59:01.307Z</time></trkpt><trkpt lat="43.9985919" lon="7.8270983"><ele>1279.0</ele><time>2026-04-09T13:59:02.307Z</time></trkpt><trkpt lat="43.9987039" lon="7.8270263"><ele>1279.0</ele><time>2026-04-09T13:59:03.308Z</time></trkpt><trkpt lat="43.9988045" lon="7.8269577"><ele>1279.0</ele><time>2026-04-09T13:59:04.307Z</time></trkpt><trkpt lat="43.9988974" lon="7.8269052"><ele>1279.0</ele><time>2026-04-09T13:59:05.307Z</time></trkpt><trkpt lat="43.9989804" lon="7.8268368"><ele>1279.0</ele><time>2026-04-09T13:59:06.307Z</time></trkpt><trkpt lat="43.9990525" lon="7.8267629"><ele>1279.0</ele><time>2026-04-09T13:59:07.307Z</time></trkpt><trkpt lat="43.9991067" lon="7.8266858"><ele>1273.3333333333333</ele><time>2026-04-09T13:59:08.308Z</time></trkpt><trkpt lat="43.9991421" lon="7.8266052"><ele>1267.6666666666665</ele><time>2026-04-09T13:59:09.308Z</time></trkpt><trkpt lat="43.9991582" lon="7.8265194"><ele>1262.0</ele><time>2026-04-09T13:59:10.307Z</time></trkpt><trkpt lat="43.9991457" lon="7.8264181"><ele>1256.3333333333333</ele><time>2026-04-09T13:59:11.308Z</time></trkpt><trkpt lat="43.9991072" lon="7.8262935"><ele>1250.6666666666667</ele><time>2026-04-09T13:59:12.308Z</time></trkpt><trkpt lat="43.9990461" lon="7.8261633"><ele>1245.0</ele><time>2026-04-09T13:59:13.307Z</time></trkpt><trkpt lat="43.9989896" lon="7.826027"><ele>1246.25</ele><time>2026-04-09T13:59:14.308Z</time></trkpt><trkpt lat="43.9989243" lon="7.8258916"><ele>1247.5</ele><time>2026-04-09T13:59:15.308Z</time></trkpt><trkpt lat="43.9988615" lon="7.8257459"><ele>1248.75</ele><time>2026-04-09T13:59:16.307Z</time></trkpt><trkpt lat="43.9988043" lon="7.8256122"><ele>1250.0</ele><time>2026-04-09T13:59:17.308Z</time></trkpt><trkpt lat="43.9987511" lon="7.8254812"><ele>1250.0</ele><time>2026-04-09T13:59:18.307Z</time></trkpt><trkpt lat="43.9987129" lon="7.8253647"><ele>1250.0</ele><time>2026-04-09T13:59:19.308Z</time></trkpt><trkpt lat="43.9986904" lon="7.8252419"><ele>1250.0</ele><time>2026-04-09T13:59:20.307Z</time></trkpt><trkpt lat="43.9986865" lon="7.8250982"><ele>1250.0</ele><time>2026-04-09T13:59:21.307Z</time></trkpt><trkpt lat="43.998692" lon="7.8249424"><ele>1250.0</ele><time>2026-04-09T13:59:22.307Z</time></trkpt><trkpt lat="43.9986939" lon="7.8247737"><ele>1251.0</ele><time>2026-04-09T13:59:23.307Z</time></trkpt><trkpt lat="43.9986826" lon="7.8245954"><ele>1252.0</ele><time>2026-04-09T13:59:24.307Z</time></trkpt><trkpt lat="43.99866" lon="7.8244228"><ele>1253.0</ele><time>2026-04-09T13:59:25.308Z</time></trkpt><trkpt lat="43.9986416" lon="7.8242552"><ele>1254.0</ele><time>2026-04-09T13:59:26.307Z</time></trkpt><trkpt lat="43.9986232" lon="7.8240992"><ele>1250.5</ele><time>2026-04-09T13:59:27.308Z</time></trkpt><trkpt lat="43.998607" lon="7.8239526"><ele>1247.0</ele><time>2026-04-09T13:59:28.308Z</time></trkpt><trkpt lat="43.9986094" lon="7.8238168"><ele>1243.5</ele><time>2026-04-09T13:59:29.307Z</time></trkpt><trkpt lat="43.9986295" lon="7.8237139"><ele>1240.0</ele><time>2026-04-09T13:59:30.308Z</time></trkpt><trkpt lat="43.9986706" lon="7.8236459"><ele>1236.5</ele><time>2026-04-09T13:59:31.307Z</time></trkpt><trkpt lat="43.9987323" lon="7.8236078"><ele>1233.0</ele><time>2026-04-09T13:59:32.307Z</time></trkpt><trkpt lat="43.9988067" lon="7.8235794"><ele>1233.0</ele><time>2026-04-09T13:59:33.308Z</time></trkpt><trkpt lat="43.9989004" lon="7.8235632"><ele>1233.0</ele><time>2026-04-09T13:59:34.308Z</time></trkpt><trkpt lat="43.9990062" lon="7.823546"><ele>1233.0</ele><time>2026-04-09T13:59:35.307Z</time></trkpt><trkpt lat="43.999117" lon="7.8235256"><ele>1233.0</ele><time>2026-04-09T13:59:36.307Z</time></trkpt><trkpt lat="43.9992327" lon="7.8235071"><ele>1233.0</ele><time>2026-04-09T13:59:37.307Z</time></trkpt><trkpt lat="43.9993485" lon="7.8234865"><ele>1232.8</ele><time>2026-04-09T13:59:38.307Z</time></trkpt><trkpt lat="43.9994599" lon="7.823474"><ele>1232.6</ele><time>2026-04-09T13:59:39.308Z</time></trkpt><trkpt lat="43.9995577" lon="7.8234538"><ele>1232.4</ele><time>2026-04-09T13:59:40.308Z</time></trkpt><trkpt lat="43.9996375" lon="7.8234352"><ele>1232.2</ele><time>2026-04-09T13:59:41.307Z</time></trkpt><trkpt lat="43.9997077" lon="7.8233933"><ele>1232.0</ele><time>2026-04-09T13:59:42.307Z</time></trkpt><trkpt lat="43.9997402" lon="7.8232316"><ele>1232.0</ele><time>2026-04-09T13:59:44.307Z</time></trkpt><trkpt lat="43.9997256" lon="7.823101"><ele>1232.0</ele><time>2026-04-09T13:59:45.308Z</time></trkpt><trkpt lat="43.9996896" lon="7.8229569"><ele>1232.0</ele><time>2026-04-09T13:59:46.308Z</time></trkpt><trkpt lat="43.9996473" lon="7.8228213"><ele>1232.0</ele><time>2026-04-09T13:59:47.308Z</time></trkpt><trkpt lat="43.9995977" lon="7.8226879"><ele>1232.0</ele><time>2026-04-09T13:59:48.308Z</time></trkpt><trkpt lat="43.999557" lon="7.8225435"><ele>1230.8</ele><time>2026-04-09T13:59:49.307Z</time></trkpt><trkpt lat="43.9995196" lon="7.8223968"><ele>1229.6</ele><time>2026-04-09T13:59:50.308Z</time></trkpt><trkpt lat="43.9994795" lon="7.8222468"><ele>1228.3999999999999</ele><time>2026-04-09T13:59:51.307Z</time></trkpt><trkpt lat="43.9994366" lon="7.8221028"><ele>1227.2</ele><time>2026-04-09T13:59:52.307Z</time></trkpt><trkpt lat="43.9993944" lon="7.8219647"><ele>1226.0</ele><time>2026-04-09T13:59:53.307Z</time></trkpt><trkpt lat="43.9993588" lon="7.8218319"><ele>1226.8333333333335</ele><time>2026-04-09T13:59:54.308Z</time></trkpt><trkpt lat="43.9993325" lon="7.8217247"><ele>1227.6666666666667</ele><time>2026-04-09T13:59:55.307Z</time></trkpt><trkpt lat="43.9993345" lon="7.8216307"><ele>1228.5</ele><time>2026-04-09T13:59:56.307Z</time></trkpt><trkpt lat="43.9993654" lon="7.821461"><ele>1229.3333333333333</ele><time>2026-04-09T13:59:58.308Z</time></trkpt><trkpt lat="43.9994015" lon="7.8213807"><ele>1230.1666666666665</ele><time>2026-04-09T13:59:59.308Z</time></trkpt><trkpt lat="43.9994432" lon="7.8212948"><ele>1231.0</ele><time>2026-04-09T14:00:00.307Z</time></trkpt><trkpt lat="43.9994797" lon="7.8211829"><ele>1231.0</ele><time>2026-04-09T14:00:01.308Z</time></trkpt><trkpt lat="43.99951" lon="7.8210625"><ele>1231.0</ele><time>2026-04-09T14:00:02.307Z</time></trkpt><trkpt lat="43.99953" lon="7.8209328"><ele>1231.0</ele><time>2026-04-09T14:00:03.307Z</time></trkpt><trkpt lat="43.999544" lon="7.8207942"><ele>1231.0</ele><time>2026-04-09T14:00:04.311Z</time></trkpt><trkpt lat="43.9995553" lon="7.8206535"><ele>1231.0</ele><time>2026-04-09T14:00:05.311Z</time></trkpt><trkpt lat="43.9995748" lon="7.8205143"><ele>1227.3333333333333</ele><time>2026-04-09T14:00:06.311Z</time></trkpt><trkpt lat="43.9995998" lon="7.8203965"><ele>1223.6666666666665</ele><time>2026-04-09T14:00:07.311Z</time></trkpt><trkpt lat="43.99965" lon="7.8202938"><ele>1220.0</ele><time>2026-04-09T14:00:08.311Z</time></trkpt><trkpt lat="43.9997115" lon="7.820221"><ele>1216.3333333333333</ele><time>2026-04-09T14:00:09.312Z</time></trkpt><trkpt lat="43.9997835" lon="7.8201748"><ele>1212.6666666666667</ele><time>2026-04-09T14:00:10.311Z</time></trkpt><trkpt lat="43.9998455" lon="7.8201528"><ele>1209.0</ele><time>2026-04-09T14:00:11.312Z</time></trkpt><trkpt lat="43.9999061" lon="7.8200578"><ele>1204.2</ele><time>2026-04-09T14:00:13.311Z</time></trkpt><trkpt lat="43.9999046" lon="7.8198847"><ele>1199.4</ele><time>2026-04-09T14:00:15.312Z</time></trkpt><trkpt lat="43.9998794" lon="7.8197774"><ele>1194.6</ele><time>2026-04-09T14:00:16.311Z</time></trkpt><trkpt lat="43.9998514" lon="7.8196578"><ele>1189.8</ele><time>2026-04-09T14:00:17.311Z</time></trkpt><trkpt lat="43.9998247" lon="7.8195348"><ele>1185.0</ele><time>2026-04-09T14:00:18.311Z</time></trkpt><trkpt lat="43.9998165" lon="7.8194057"><ele>1181.0</ele><time>2026-04-09T14:00:19.311Z</time></trkpt><trkpt lat="43.9998295" lon="7.8192716"><ele>1177.0</ele><time>2026-04-09T14:00:20.311Z</time></trkpt><trkpt lat="43.99985" lon="7.81914"><ele>1173.0</ele><time>2026-04-09T14:00:21.311Z</time></trkpt><trkpt lat="43.9998825" lon="7.8190145"><ele>1169.0</ele><time>2026-04-09T14:00:22.311Z</time></trkpt><trkpt lat="43.9999239" lon="7.8189052"><ele>1165.0</ele><time>2026-04-09T14:00:23.311Z</time></trkpt><trkpt lat="43.9999812" lon="7.8188197"><ele>1165.0</ele><time>2026-04-09T14:00:24.312Z</time></trkpt><trkpt lat="44.0000416" lon="7.818759"><ele>1165.0</ele><time>2026-04-09T14:00:25.311Z</time></trkpt><trkpt lat="44.0001389" lon="7.8186749"><ele>1165.0</ele><time>2026-04-09T14:00:27.311Z</time></trkpt><trkpt lat="44.0001692" lon="7.8184998"><ele>1165.0</ele><time>2026-04-09T14:00:29.312Z</time></trkpt><trkpt lat="44.0001689" lon="7.8183784"><ele>1165.0</ele><time>2026-04-09T14:00:30.312Z</time></trkpt><trkpt lat="44.0001807" lon="7.8182461"><ele>1165.3333333333333</ele><time>2026-04-09T14:00:31.311Z</time></trkpt><trkpt lat="44.0001979" lon="7.8181026"><ele>1165.6666666666665</ele><time>2026-04-09T14:00:32.311Z</time></trkpt><trkpt lat="44.0002252" lon="7.8179774"><ele>1166.0</ele><time>2026-04-09T14:00:33.312Z</time></trkpt><trkpt lat="44.0002623" lon="7.8178733"><ele>1166.3333333333333</ele><time>2026-04-09T14:00:34.311Z</time></trkpt><trkpt lat="44.0002959" lon="7.8177895"><ele>1166.6666666666667</ele><time>2026-04-09T14:00:35.312Z</time></trkpt><trkpt lat="44.0002781" lon="7.8176688"><ele>1167.0</ele><time>2026-04-09T14:00:37.312Z</time></trkpt><trkpt lat="44.0001784" lon="7.8176068"><ele>1167.0</ele><time>2026-04-09T14:00:39.311Z</time></trkpt><trkpt lat="44.0001071" lon="7.8176073"><ele>1167.0</ele><time>2026-04-09T14:00:40.312Z</time></trkpt><trkpt lat="44.000013" lon="7.8176438"><ele>1167.0</ele><time>2026-04-09T14:00:41.311Z</time></trkpt><trkpt lat="43.9999175" lon="7.8176828"><ele>1167.0</ele><time>2026-04-09T14:00:42.312Z</time></trkpt><trkpt lat="43.9998162" lon="7.817727"><ele>1167.0</ele><time>2026-04-09T14:00:43.312Z</time></trkpt><trkpt lat="43.9997121" lon="7.8177679"><ele>1164.0</ele><time>2026-04-09T14:00:44.311Z</time></trkpt><trkpt lat="43.9996058" lon="7.8178083"><ele>1161.0</ele><time>2026-04-09T14:00:45.312Z</time></trkpt><trkpt lat="43.9994937" lon="7.817855"><ele>1158.0</ele><time>2026-04-09T14:00:46.312Z</time></trkpt><trkpt lat="43.9993874" lon="7.8179049"><ele>1155.0</ele><time>2026-04-09T14:00:47.312Z</time></trkpt><trkpt lat="43.9992845" lon="7.817954"><ele>1152.0</ele><time>2026-04-09T14:00:48.312Z</time></trkpt><trkpt lat="43.9991846" lon="7.8179922"><ele>1148.8333333333333</ele><time>2026-04-09T14:00:49.311Z</time></trkpt><trkpt lat="43.9990914" lon="7.8180285"><ele>1145.6666666666667</ele><time>2026-04-09T14:00:50.311Z</time></trkpt><trkpt lat="43.9989962" lon="7.8180432"><ele>1142.5</ele><time>2026-04-09T14:00:51.312Z</time></trkpt><trkpt lat="43.9989154" lon="7.8180301"><ele>1139.3333333333335</ele><time>2026-04-09T14:00:52.311Z</time></trkpt><trkpt lat="43.9988566" lon="7.8179762"><ele>1136.1666666666667</ele><time>2026-04-09T14:00:53.311Z</time></trkpt><trkpt lat="43.9988236" lon="7.8178904"><ele>1133.0</ele><time>2026-04-09T14:00:54.311Z</time></trkpt><trkpt lat="43.9988033" lon="7.8177707"><ele>1138.0</ele><time>2026-04-09T14:00:55.312Z</time></trkpt><trkpt lat="43.9988021" lon="7.8176282"><ele>1143.0</ele><time>2026-04-09T14:00:56.311Z</time></trkpt><trkpt lat="43.9987961" lon="7.8174512"><ele>1148.0</ele><time>2026-04-09T14:00:57.312Z</time></trkpt><trkpt lat="43.9987853" lon="7.8172783"><ele>1153.0</ele><time>2026-04-09T14:00:58.312Z</time></trkpt><trkpt lat="43.9987672" lon="7.8170929"><ele>1153.0</ele><time>2026-04-09T14:00:59.311Z</time></trkpt><trkpt lat="43.9987398" lon="7.8169072"><ele>1153.0</ele><time>2026-04-09T14:01:00.312Z</time></trkpt><trkpt lat="43.9987108" lon="7.816723"><ele>1153.0</ele><time>2026-04-09T14:01:01.311Z</time></trkpt><trkpt lat="43.9986826" lon="7.8165391"><ele>1153.0</ele><time>2026-04-09T14:01:02.312Z</time></trkpt><trkpt lat="43.9986636" lon="7.8163679"><ele>1155.5</ele><time>2026-04-09T14:01:03.312Z</time></trkpt><trkpt lat="43.9986458" lon="7.8161921"><ele>1158.0</ele><time>2026-04-09T14:01:04.311Z</time></trkpt><trkpt lat="43.9986293" lon="7.8160163"><ele>1160.5</ele><time>2026-04-09T14:01:05.312Z</time></trkpt><trkpt lat="43.9986162" lon="7.8158334"><ele>1163.0</ele><time>2026-04-09T14:01:06.311Z</time></trkpt><trkpt lat="43.9986128" lon="7.8156605"><ele>1164.75</ele><time>2026-04-09T14:01:07.312Z</time></trkpt><trkpt lat="43.9986048" lon="7.8154908"><ele>1166.5</ele><time>2026-04-09T14:01:08.311Z</time></trkpt><trkpt lat="43.9985813" lon="7.815312"><ele>1168.25</ele><time>2026-04-09T14:01:09.312Z</time></trkpt><trkpt lat="43.998544" lon="7.8151396"><ele>1170.0</ele><time>2026-04-09T14:01:10.311Z</time></trkpt><trkpt lat="43.9985002" lon="7.8149551"><ele>1171.25</ele><time>2026-04-09T14:01:11.312Z</time></trkpt><trkpt lat="43.9984539" lon="7.8147721"><ele>1172.5</ele><time>2026-04-09T14:01:12.311Z</time></trkpt><trkpt lat="43.9984085" lon="7.8145926"><ele>1173.75</ele><time>2026-04-09T14:01:13.311Z</time></trkpt><trkpt lat="43.9983641" lon="7.8144186"><ele>1175.0</ele><time>2026-04-09T14:01:14.311Z</time></trkpt><trkpt lat="43.9983234" lon="7.8142532"><ele>1162.0</ele><time>2026-04-09T14:01:15.311Z</time></trkpt><trkpt lat="43.9982873" lon="7.8140923"><ele>1149.0</ele><time>2026-04-09T14:01:16.311Z</time></trkpt><trkpt lat="43.9982564" lon="7.8139343"><ele>1136.0</ele><time>2026-04-09T14:01:17.311Z</time></trkpt><trkpt lat="43.998239" lon="7.813777"><ele>1123.0</ele><time>2026-04-09T14:01:18.311Z</time></trkpt><trkpt lat="43.9982428" lon="7.8136259"><ele>1124.0</ele><time>2026-04-09T14:01:19.312Z</time></trkpt><trkpt lat="43.9982553" lon="7.8134595"><ele>1125.0</ele><time>2026-04-09T14:01:20.311Z</time></trkpt><trkpt lat="43.9982646" lon="7.8132964"><ele>1126.0</ele><time>2026-04-09T14:01:21.311Z</time></trkpt><trkpt lat="43.9982601" lon="7.8131299"><ele>1127.0</ele><time>2026-04-09T14:01:22.312Z</time></trkpt><trkpt lat="43.998243" lon="7.812955"><ele>1127.0</ele><time>2026-04-09T14:01:23.312Z</time></trkpt><trkpt lat="43.998233" lon="7.8127827"><ele>1127.0</ele><time>2026-04-09T14:01:24.311Z</time></trkpt><trkpt lat="43.9982292" lon="7.8126155"><ele>1127.0</ele><time>2026-04-09T14:01:25.312Z</time></trkpt><trkpt lat="43.998213" lon="7.8124598"><ele>1127.0</ele><time>2026-04-09T14:01:26.311Z</time></trkpt><trkpt lat="43.9981711" lon="7.8123139"><ele>1127.5</ele><time>2026-04-09T14:01:27.311Z</time></trkpt><trkpt lat="43.9980908" lon="7.8121729"><ele>1128.0</ele><time>2026-04-09T14:01:28.312Z</time></trkpt><trkpt lat="43.9979915" lon="7.8120438"><ele>1128.5</ele><time>2026-04-09T14:01:29.311Z</time></trkpt><trkpt lat="43.9978816" lon="7.8119027"><ele>1129.0</ele><time>2026-04-09T14:01:30.311Z</time></trkpt><trkpt lat="43.9977675" lon="7.8117546"><ele>1132.3333333333333</ele><time>2026-04-09T14:01:31.312Z</time></trkpt><trkpt lat="43.9976595" lon="7.8116147"><ele>1135.6666666666667</ele><time>2026-04-09T14:01:32.311Z</time></trkpt><trkpt lat="43.997551" lon="7.8114727"><ele>1139.0</ele><time>2026-04-09T14:01:33.311Z</time></trkpt><trkpt lat="43.9974356" lon="7.8113282"><ele>1130.3333333333335</ele><time>2026-04-09T14:01:34.311Z</time></trkpt><trkpt lat="43.9973254" lon="7.8111753"><ele>1121.6666666666667</ele><time>2026-04-09T14:01:35.311Z</time></trkpt><trkpt lat="43.9972089" lon="7.8110345"><ele>1113.0</ele><time>2026-04-09T14:01:36.311Z</time></trkpt><trkpt lat="43.9970754" lon="7.810921"><ele>1113.0</ele><time>2026-04-09T14:01:37.311Z</time></trkpt><trkpt lat="43.9969363" lon="7.8108252"><ele>1113.0</ele><time>2026-04-09T14:01:38.312Z</time></trkpt><trkpt lat="43.9967943" lon="7.8107381"><ele>1113.0</ele><time>2026-04-09T14:01:39.312Z</time></trkpt><trkpt lat="43.9966615" lon="7.8106547"><ele>1107.0</ele><time>2026-04-09T14:01:40.312Z</time></trkpt><trkpt lat="43.9965447" lon="7.8105802"><ele>1101.0</ele><time>2026-04-09T14:01:41.311Z</time></trkpt><trkpt lat="43.9964472" lon="7.8105137"><ele>1095.0</ele><time>2026-04-09T14:01:42.312Z</time></trkpt><trkpt lat="43.9963689" lon="7.8104322"><ele>1089.0</ele><time>2026-04-09T14:01:43.311Z</time></trkpt><trkpt lat="43.996308" lon="7.8103175"><ele>1083.0</ele><time>2026-04-09T14:01:44.311Z</time></trkpt><trkpt lat="43.996248" lon="7.8101724"><ele>1079.75</ele><time>2026-04-09T14:01:45.312Z</time></trkpt><trkpt lat="43.9961634" lon="7.8100223"><ele>1076.5</ele><time>2026-04-09T14:01:46.311Z</time></trkpt><trkpt lat="43.9960599" lon="7.8098969"><ele>1073.25</ele><time>2026-04-09T14:01:47.311Z</time></trkpt><trkpt lat="43.9959357" lon="7.8097908"><ele>1070.0</ele><time>2026-04-09T14:01:48.312Z</time></trkpt><trkpt lat="43.9958238" lon="7.809703"><ele>1070.0</ele><time>2026-04-09T14:01:49.312Z</time></trkpt><trkpt lat="43.9957263" lon="7.8096163"><ele>1070.0</ele><time>2026-04-09T14:01:50.312Z</time></trkpt><trkpt lat="43.9956503" lon="7.8095105"><ele>1070.0</ele><time>2026-04-09T14:01:51.311Z</time></trkpt><trkpt lat="43.9956047" lon="7.8093874"><ele>1070.0</ele><time>2026-04-09T14:01:52.312Z</time></trkpt><trkpt lat="43.9955748" lon="7.8092459"><ele>1070.0</ele><time>2026-04-09T14:01:53.311Z</time></trkpt><trkpt lat="43.9955561" lon="7.8091055"><ele>1073.6</ele><time>2026-04-09T14:01:54.311Z</time></trkpt><trkpt lat="43.9955355" lon="7.808977"><ele>1077.2</ele><time>2026-04-09T14:01:55.312Z</time></trkpt><trkpt lat="43.995518" lon="7.8088664"><ele>1080.8</ele><time>2026-04-09T14:01:56.311Z</time></trkpt><trkpt lat="43.9955119" lon="7.8087697"><ele>1084.4</ele><time>2026-04-09T14:01:57.311Z</time></trkpt><trkpt lat="43.9955439" lon="7.8086228"><ele>1088.0</ele><time>2026-04-09T14:01:59.312Z</time></trkpt><trkpt lat="43.9956473" lon="7.8085391"><ele>1088.0</ele><time>2026-04-09T14:02:01.311Z</time></trkpt><trkpt lat="43.9957125" lon="7.8085009"><ele>1088.0</ele><time>2026-04-09T14:02:02.311Z</time></trkpt><trkpt lat="43.9957652" lon="7.8084103"><ele>1088.0</ele><time>2026-04-09T14:02:03.311Z</time></trkpt><trkpt lat="43.9958042" lon="7.8083132"><ele>1088.0</ele><time>2026-04-09T14:02:04.312Z</time></trkpt><trkpt lat="43.9958516" lon="7.8082347"><ele>1088.0</ele><time>2026-04-09T14:02:05.312Z</time></trkpt><trkpt lat="43.9959065" lon="7.8081635"><ele>1088.0</ele><time>2026-04-09T14:02:06.311Z</time></trkpt><trkpt lat="43.9959768" lon="7.8081153"><ele>1090.4</ele><time>2026-04-09T14:02:07.311Z</time></trkpt><trkpt lat="43.9960531" lon="7.8080552"><ele>1092.8</ele><time>2026-04-09T14:02:08.311Z</time></trkpt><trkpt lat="43.9961192" lon="7.8079608"><ele>1095.2</ele><time>2026-04-09T14:02:09.311Z</time></trkpt><trkpt lat="43.9961787" lon="7.8078389"><ele>1097.6</ele><time>2026-04-09T14:02:10.311Z</time></trkpt><trkpt lat="43.9962372" lon="7.8077116"><ele>1100.0</ele><time>2026-04-09T14:02:11.312Z</time></trkpt><trkpt lat="43.9962914" lon="7.8075953"><ele>1100.0</ele><time>2026-04-09T14:02:12.312Z</time></trkpt><trkpt lat="43.9963391" lon="7.8074791"><ele>1100.0</ele><time>2026-04-09T14:02:13.312Z</time></trkpt><trkpt lat="43.9964007" lon="7.8073685"><ele>1100.0</ele><time>2026-04-09T14:02:14.312Z</time></trkpt><trkpt lat="43.9964717" lon="7.8072707"><ele>1100.0</ele><time>2026-04-09T14:02:15.312Z</time></trkpt><trkpt lat="43.9965549" lon="7.807191"><ele>1100.0</ele><time>2026-04-09T14:02:16.311Z</time></trkpt><trkpt lat="43.9966369" lon="7.8071192"><ele>1103.4</ele><time>2026-04-09T14:02:17.312Z</time></trkpt><trkpt lat="43.996711" lon="7.8070334"><ele>1106.8</ele><time>2026-04-09T14:02:18.311Z</time></trkpt><trkpt lat="43.9967617" lon="7.8069194"><ele>1110.2</ele><time>2026-04-09T14:02:19.311Z</time></trkpt><trkpt lat="43.9967998" lon="7.8067902"><ele>1113.6</ele><time>2026-04-09T14:02:20.312Z</time></trkpt><trkpt lat="43.9968473" lon="7.8066722"><ele>1117.0</ele><time>2026-04-09T14:02:21.312Z</time></trkpt><trkpt lat="43.996905" lon="7.8065597"><ele>1117.0</ele><time>2026-04-09T14:02:22.311Z</time></trkpt><trkpt lat="43.9969603" lon="7.8064514"><ele>1117.0</ele><time>2026-04-09T14:02:23.311Z</time></trkpt><trkpt lat="43.9970242" lon="7.8063639"><ele>1117.0</ele><time>2026-04-09T14:02:24.312Z</time></trkpt><trkpt lat="43.9970825" lon="7.8062984"><ele>1117.0</ele><time>2026-04-09T14:02:25.312Z</time></trkpt><trkpt lat="43.9971625" lon="7.8062554"><ele>1117.0</ele><time>2026-04-09T14:02:26.312Z</time></trkpt><trkpt lat="43.9972484" lon="7.8062317"><ele>1117.0</ele><time>2026-04-09T14:02:27.312Z</time></trkpt><trkpt lat="43.9973502" lon="7.8062223"><ele>1117.0</ele><time>2026-04-09T14:02:28.311Z</time></trkpt><trkpt lat="43.9974504" lon="7.8062064"><ele>1117.0</ele><time>2026-04-09T14:02:29.311Z</time></trkpt><trkpt lat="43.9975445" lon="7.8061777"><ele>1117.0</ele><time>2026-04-09T14:02:30.311Z</time></trkpt><trkpt lat="43.9976351" lon="7.8061267"><ele>1117.0</ele><time>2026-04-09T14:02:31.311Z</time></trkpt><trkpt lat="43.9977187" lon="7.8060404"><ele>1117.0</ele><time>2026-04-09T14:02:32.311Z</time></trkpt><trkpt lat="43.997797" lon="7.8059424"><ele>1115.2</ele><time>2026-04-09T14:02:33.311Z</time></trkpt><trkpt lat="43.9978659" lon="7.8058317"><ele>1113.4</ele><time>2026-04-09T14:02:34.311Z</time></trkpt><trkpt lat="43.9979305" lon="7.8057123"><ele>1111.6</ele><time>2026-04-09T14:02:35.311Z</time></trkpt><trkpt lat="43.9979783" lon="7.805575"><ele>1109.8</ele><time>2026-04-09T14:02:36.311Z</time></trkpt><trkpt lat="43.998016" lon="7.805454"><ele>1108.0</ele><time>2026-04-09T14:02:37.312Z</time></trkpt><trkpt lat="43.9980661" lon="7.8053695"><ele>1108.0</ele><time>2026-04-09T14:02:38.312Z</time></trkpt><trkpt lat="43.9981412" lon="7.8053135"><ele>1108.0</ele><time>2026-04-09T14:02:39.311Z</time></trkpt><trkpt lat="43.9982258" lon="7.8052841"><ele>1108.0</ele><time>2026-04-09T14:02:40.311Z</time></trkpt><trkpt lat="43.9983117" lon="7.8052401"><ele>1108.0</ele><time>2026-04-09T14:02:41.311Z</time></trkpt><trkpt lat="43.9983842" lon="7.8051624"><ele>1108.0</ele><time>2026-04-09T14:02:42.312Z</time></trkpt><trkpt lat="43.998441" lon="7.8050583"><ele>1108.0</ele><time>2026-04-09T14:02:43.311Z</time></trkpt><trkpt lat="43.9984963" lon="7.804964"><ele>1111.4</ele><time>2026-04-09T14:02:44.311Z</time></trkpt><trkpt lat="43.9985678" lon="7.804879"><ele>1114.8</ele><time>2026-04-09T14:02:45.311Z</time></trkpt><trkpt lat="43.998651" lon="7.8048132"><ele>1118.2</ele><time>2026-04-09T14:02:46.312Z</time></trkpt><trkpt lat="43.9987399" lon="7.8047556"><ele>1121.6</ele><time>2026-04-09T14:02:47.311Z</time></trkpt><trkpt lat="43.9988171" lon="7.8046885"><ele>1125.0</ele><time>2026-04-09T14:02:48.311Z</time></trkpt><trkpt lat="43.9988681" lon="7.8045896"><ele>1125.0</ele><time>2026-04-09T14:02:49.312Z</time></trkpt><trkpt lat="43.9988892" lon="7.8044379"><ele>1125.0</ele><time>2026-04-09T14:02:50.312Z</time></trkpt><trkpt lat="43.998904" lon="7.8042835"><ele>1125.0</ele><time>2026-04-09T14:02:51.312Z</time></trkpt><trkpt lat="43.9989228" lon="7.8041476"><ele>1125.0</ele><time>2026-04-09T14:02:52.311Z</time></trkpt><trkpt lat="43.9989682" lon="7.8040192"><ele>1125.0</ele><time>2026-04-09T14:02:53.311Z</time></trkpt><trkpt lat="43.9990324" lon="7.8039139"><ele>1114.4</ele><time>2026-04-09T14:02:54.312Z</time></trkpt><trkpt lat="43.9991156" lon="7.8038172"><ele>1103.8</ele><time>2026-04-09T14:02:55.312Z</time></trkpt><trkpt lat="43.9991984" lon="7.8037223"><ele>1093.2</ele><time>2026-04-09T14:02:56.312Z</time></trkpt><trkpt lat="43.9992719" lon="7.8036168"><ele>1082.6</ele><time>2026-04-09T14:02:57.311Z</time></trkpt><trkpt lat="43.9993354" lon="7.8035098"><ele>1072.0</ele><time>2026-04-09T14:02:58.312Z</time></trkpt><trkpt lat="43.9994063" lon="7.8034183"><ele>1072.0</ele><time>2026-04-09T14:02:59.312Z</time></trkpt><trkpt lat="43.9994793" lon="7.8033703"><ele>1072.0</ele><time>2026-04-09T14:03:00.311Z</time></trkpt><trkpt lat="43.9995551" lon="7.8033516"><ele>1072.0</ele><time>2026-04-09T14:03:01.311Z</time></trkpt><trkpt lat="43.9996272" lon="7.8033698"><ele>1072.0</ele><time>2026-04-09T14:03:02.312Z</time></trkpt><trkpt lat="43.9996932" lon="7.80344"><ele>1072.0</ele><time>2026-04-09T14:03:03.312Z</time></trkpt><trkpt lat="43.9997574" lon="7.8035285"><ele>1072.0</ele><time>2026-04-09T14:03:04.311Z</time></trkpt><trkpt lat="43.9998349" lon="7.8036255"><ele>1072.0</ele><time>2026-04-09T14:03:05.311Z</time></trkpt><trkpt lat="43.9999148" lon="7.8037335"><ele>1072.0</ele><time>2026-04-09T14:03:06.312Z</time></trkpt><trkpt lat="43.999985" lon="7.8038431"><ele>1072.0</ele><time>2026-04-09T14:03:07.311Z</time></trkpt><trkpt lat="44.0000374" lon="7.8039446"><ele>1072.0</ele><time>2026-04-09T14:03:08.312Z</time></trkpt><trkpt lat="44.0000881" lon="7.8040442"><ele>1072.0</ele><time>2026-04-09T14:03:09.311Z</time></trkpt><trkpt lat="44.0001714" lon="7.8041196"><ele>1072.0</ele><time>2026-04-09T14:03:11.311Z</time></trkpt><trkpt lat="44.0002368" lon="7.8040146"><ele>1072.0</ele><time>2026-04-09T14:03:13.311Z</time></trkpt><trkpt lat="44.0001388" lon="7.8038933"><ele>1072.0</ele><time>2026-04-09T14:03:15.311Z</time></trkpt><trkpt lat="44.0000644" lon="7.8038497"><ele>1072.0</ele><time>2026-04-09T14:03:16.312Z</time></trkpt><trkpt lat="43.9999907" lon="7.8037415"><ele>1072.0</ele><time>2026-04-09T14:03:17.311Z</time></trkpt><trkpt lat="43.9999312" lon="7.8036133"><ele>1064.6</ele><time>2026-04-09T14:03:18.311Z</time></trkpt><trkpt lat="43.9998679" lon="7.8034887"><ele>1057.2</ele><time>2026-04-09T14:03:19.312Z</time></trkpt><trkpt lat="43.9998179" lon="7.8033728"><ele>1049.8</ele><time>2026-04-09T14:03:20.311Z</time></trkpt><trkpt lat="43.999764" lon="7.8032575"><ele>1042.4</ele><time>2026-04-09T14:03:21.312Z</time></trkpt><trkpt lat="43.9997022" lon="7.8031606"><ele>1035.0</ele><time>2026-04-09T14:03:22.312Z</time></trkpt><trkpt lat="43.9996298" lon="7.8031039"><ele>1035.0</ele><time>2026-04-09T14:03:23.311Z</time></trkpt><trkpt lat="43.9995454" lon="7.8030898"><ele>1035.0</ele><time>2026-04-09T14:03:24.311Z</time></trkpt><trkpt lat="43.9994643" lon="7.803123"><ele>1035.0</ele><time>2026-04-09T14:03:25.311Z</time></trkpt><trkpt lat="43.9993941" lon="7.8031763"><ele>1035.0</ele><time>2026-04-09T14:03:26.311Z</time></trkpt><trkpt lat="43.9993205" lon="7.8031944"><ele>1035.0</ele><time>2026-04-09T14:03:28.312Z</time></trkpt><trkpt lat="43.9992928" lon="7.8031058"><ele>1035.0</ele><time>2026-04-09T14:03:30.312Z</time></trkpt><trkpt lat="43.9993817" lon="7.8030248"><ele>1035.0</ele><time>2026-04-09T14:03:32.312Z</time></trkpt><trkpt lat="43.9994614" lon="7.8029931"><ele>1035.0</ele><time>2026-04-09T14:03:33.311Z</time></trkpt><trkpt lat="43.9995402" lon="7.8029603"><ele>1035.0</ele><time>2026-04-09T14:03:34.311Z</time></trkpt><trkpt lat="43.9996203" lon="7.8029423"><ele>1035.0</ele><time>2026-04-09T14:03:35.312Z</time></trkpt><trkpt lat="43.9996968" lon="7.8029816"><ele>1035.0</ele><time>2026-04-09T14:03:36.311Z</time></trkpt><trkpt lat="43.9997655" lon="7.8030595"><ele>1035.0</ele><time>2026-04-09T14:03:37.312Z</time></trkpt><trkpt lat="43.9998435" lon="7.80316"><ele>1035.0</ele><time>2026-04-09T14:03:38.312Z</time></trkpt><trkpt lat="43.9999256" lon="7.803262"><ele>1035.0</ele><time>2026-04-09T14:03:39.312Z</time></trkpt><trkpt lat="44.0000038" lon="7.8033665"><ele>1035.0</ele><time>2026-04-09T14:03:40.312Z</time></trkpt><trkpt lat="44.0000799" lon="7.8034724"><ele>1035.0</ele><time>2026-04-09T14:03:41.311Z</time></trkpt><trkpt lat="44.0001577" lon="7.8035823"><ele>1035.0</ele><time>2026-04-09T14:03:42.311Z</time></trkpt><trkpt lat="44.000238" lon="7.803669"><ele>1035.0</ele><time>2026-04-09T14:03:43.311Z</time></trkpt><trkpt lat="44.0003146" lon="7.8037145"><ele>1035.0</ele><time>2026-04-09T14:03:44.311Z</time></trkpt><trkpt lat="44.0003911" lon="7.8037243"><ele>1035.0</ele><time>2026-04-09T14:03:45.311Z</time></trkpt><trkpt lat="44.0004747" lon="7.8036866"><ele>1035.0</ele><time>2026-04-09T14:03:46.311Z</time></trkpt><trkpt lat="44.0005661" lon="7.803598"><ele>1035.0</ele><time>2026-04-09T14:03:47.311Z</time></trkpt><trkpt lat="44.0006563" lon="7.8034959"><ele>1035.0</ele><time>2026-04-09T14:03:48.312Z</time></trkpt><trkpt lat="44.0007551" lon="7.803384"><ele>1035.0</ele><time>2026-04-09T14:03:49.312Z</time></trkpt><trkpt lat="44.0008624" lon="7.8032811"><ele>1035.0</ele><time>2026-04-09T14:03:50.312Z</time></trkpt><trkpt lat="44.000969" lon="7.803185"><ele>1035.0</ele><time>2026-04-09T14:03:51.311Z</time></trkpt><trkpt lat="44.0010746" lon="7.8030845"><ele>1033.6</ele><time>2026-04-09T14:03:52.312Z</time></trkpt><trkpt lat="44.0011743" lon="7.8029895"><ele>1032.2</ele><time>2026-04-09T14:03:53.312Z</time></trkpt><trkpt lat="44.0012642" lon="7.8029"><ele>1030.8</ele><time>2026-04-09T14:03:54.311Z</time></trkpt><trkpt lat="44.0013327" lon="7.8028443"><ele>1029.4</ele><time>2026-04-09T14:03:55.312Z</time></trkpt><trkpt lat="44.0014478" lon="7.802814"><ele>1028.0</ele><time>2026-04-09T14:03:57.311Z</time></trkpt><trkpt lat="44.0015179" lon="7.8028559"><ele>1028.0</ele><time>2026-04-09T14:03:58.311Z</time></trkpt><trkpt lat="44.0015855" lon="7.8029486"><ele>1028.0</ele><time>2026-04-09T14:03:59.311Z</time></trkpt><trkpt lat="44.0016571" lon="7.8030548"><ele>1028.0</ele><time>2026-04-09T14:04:00.311Z</time></trkpt><trkpt lat="44.0017343" lon="7.8031203"><ele>1028.0</ele><time>2026-04-09T14:04:01.311Z</time></trkpt><trkpt lat="44.0018105" lon="7.8031372"><ele>1028.0</ele><time>2026-04-09T14:04:02.311Z</time></trkpt><trkpt lat="44.001893" lon="7.8031163"><ele>1027.6</ele><time>2026-04-09T14:04:03.311Z</time></trkpt><trkpt lat="44.0019745" lon="7.8030525"><ele>1027.1999999999998</ele><time>2026-04-09T14:04:04.311Z</time></trkpt><trkpt lat="44.0020686" lon="7.8029878"><ele>1026.8</ele><time>2026-04-09T14:04:05.311Z</time></trkpt><trkpt lat="44.0021652" lon="7.8029604"><ele>1026.3999999999999</ele><time>2026-04-09T14:04:06.312Z</time></trkpt><trkpt lat="44.0022597" lon="7.8029356"><ele>1026.0</ele><time>2026-04-09T14:04:07.312Z</time></trkpt><trkpt lat="44.0023358" lon="7.8029165"><ele>1026.0</ele><time>2026-04-09T14:04:08.312Z</time></trkpt><trkpt lat="44.0024114" lon="7.8029407"><ele>1026.0</ele><time>2026-04-09T14:04:09.311Z</time></trkpt><trkpt lat="44.0024594" lon="7.803008"><ele>1026.0</ele><time>2026-04-09T14:04:10.311Z</time></trkpt><trkpt lat="44.0024949" lon="7.803083"><ele>1026.0</ele><time>2026-04-09T14:04:11.312Z</time></trkpt><trkpt lat="44.0025381" lon="7.8031827"><ele>1026.0</ele><time>2026-04-09T14:04:13.311Z</time></trkpt><trkpt lat="44.0026176" lon="7.8031248"><ele>1026.0</ele><time>2026-04-09T14:04:14.311Z</time></trkpt><trkpt lat="44.0026735" lon="7.8030373"><ele>1023.0</ele><time>2026-04-09T14:04:15.311Z</time></trkpt><trkpt lat="44.0027128" lon="7.8029229"><ele>1019.9999999999999</ele><time>2026-04-09T14:04:16.312Z</time></trkpt><trkpt lat="44.0027259" lon="7.8028164"><ele>1016.9999999999999</ele><time>2026-04-09T14:04:17.311Z</time></trkpt><trkpt lat="44.0027422" lon="7.8027266"><ele>1014.0</ele><time>2026-04-09T14:04:18.312Z</time></trkpt><trkpt lat="44.0028374" lon="7.802606"><ele>1011.0</ele><time>2026-04-09T14:04:20.311Z</time></trkpt><trkpt lat="44.0029174" lon="7.8025614"><ele>1009.1999999999999</ele><time>2026-04-09T14:04:21.312Z</time></trkpt><trkpt lat="44.0030152" lon="7.8025185"><ele>1007.3999999999999</ele><time>2026-04-09T14:04:22.312Z</time></trkpt><trkpt lat="44.0031223" lon="7.8024705"><ele>1005.6</ele><time>2026-04-09T14:04:23.312Z</time></trkpt><trkpt lat="44.0032274" lon="7.8024119"><ele>1003.8</ele><time>2026-04-09T14:04:24.311Z</time></trkpt><trkpt lat="44.0033202" lon="7.802344"><ele>1002.0</ele><time>2026-04-09T14:04:25.311Z</time></trkpt><trkpt lat="44.0034149" lon="7.80227"><ele>1002.0</ele><time>2026-04-09T14:04:26.311Z</time></trkpt><trkpt lat="44.0034941" lon="7.8022014"><ele>1002.0</ele><time>2026-04-09T14:04:27.312Z</time></trkpt><trkpt lat="44.0035415" lon="7.8021243"><ele>1002.0</ele><time>2026-04-09T14:04:28.311Z</time></trkpt><trkpt lat="44.0035522" lon="7.8019973"><ele>1002.0</ele><time>2026-04-09T14:04:29.311Z</time></trkpt><trkpt lat="44.0035371" lon="7.801852"><ele>1002.0</ele><time>2026-04-09T14:04:30.312Z</time></trkpt><trkpt lat="44.0034926" lon="7.8016958"><ele>998.8</ele><time>2026-04-09T14:04:31.311Z</time></trkpt><trkpt lat="44.0034086" lon="7.801564"><ele>995.6</ele><time>2026-04-09T14:04:32.311Z</time></trkpt><trkpt lat="44.0033148" lon="7.8014588"><ele>992.3999999999999</ele><time>2026-04-09T14:04:33.311Z</time></trkpt><trkpt lat="44.0032383" lon="7.8013727"><ele>989.1999999999999</ele><time>2026-04-09T14:04:34.312Z</time></trkpt><trkpt lat="44.0032033" lon="7.8012696"><ele>986.0</ele><time>2026-04-09T14:04:35.312Z</time></trkpt><trkpt lat="44.0032084" lon="7.8011452"><ele>979.4</ele><time>2026-04-09T14:04:36.312Z</time></trkpt><trkpt lat="44.0031994" lon="7.8010212"><ele>972.8</ele><time>2026-04-09T14:04:37.312Z</time></trkpt><trkpt lat="44.0031339" lon="7.800914"><ele>966.1999999999999</ele><time>2026-04-09T14:04:38.311Z</time></trkpt><trkpt lat="44.0030397" lon="7.8008171"><ele>959.5999999999999</ele><time>2026-04-09T14:04:39.311Z</time></trkpt><trkpt lat="44.0029466" lon="7.80072"><ele>953.0</ele><time>2026-04-09T14:04:40.311Z</time></trkpt><trkpt lat="44.0028683" lon="7.8006055"><ele>950.5999999999999</ele><time>2026-04-09T14:04:41.312Z</time></trkpt><trkpt lat="44.0028067" lon="7.8004666"><ele>948.1999999999999</ele><time>2026-04-09T14:04:42.312Z</time></trkpt><trkpt lat="44.0027696" lon="7.8003233"><ele>945.8</ele><time>2026-04-09T14:04:43.312Z</time></trkpt><trkpt lat="44.0027574" lon="7.8001934"><ele>943.4</ele><time>2026-04-09T14:04:44.312Z</time></trkpt><trkpt lat="44.002764" lon="7.8000872"><ele>941.0</ele><time>2026-04-09T14:04:45.312Z</time></trkpt><trkpt lat="44.0027952" lon="7.7999988"><ele>940.4</ele><time>2026-04-09T14:04:46.312Z</time></trkpt><trkpt lat="44.0028572" lon="7.7999061"><ele>939.8</ele><time>2026-04-09T14:04:47.311Z</time></trkpt><trkpt lat="44.0029537" lon="7.7998256"><ele>939.1999999999999</ele><time>2026-04-09T14:04:48.312Z</time></trkpt><trkpt lat="44.003066" lon="7.7997684"><ele>938.5999999999999</ele><time>2026-04-09T14:04:49.311Z</time></trkpt><trkpt lat="44.003166" lon="7.7996874"><ele>938.0</ele><time>2026-04-09T14:04:50.311Z</time></trkpt><trkpt lat="44.0032655" lon="7.799586"><ele>934.4</ele><time>2026-04-09T14:04:51.311Z</time></trkpt><trkpt lat="44.0033423" lon="7.7994533"><ele>930.8</ele><time>2026-04-09T14:04:52.311Z</time></trkpt><trkpt lat="44.0033856" lon="7.7993221"><ele>927.2</ele><time>2026-04-09T14:04:53.311Z</time></trkpt><trkpt lat="44.0033985" lon="7.7992007"><ele>923.6</ele><time>2026-04-09T14:04:54.312Z</time></trkpt><trkpt lat="44.0033839" lon="7.7990805"><ele>920.0</ele><time>2026-04-09T14:04:55.312Z</time></trkpt><trkpt lat="44.0033135" lon="7.7989695"><ele>920.0</ele><time>2026-04-09T14:04:56.311Z</time></trkpt><trkpt lat="44.0031979" lon="7.7988445"><ele>920.0</ele><time>2026-04-09T14:04:57.311Z</time></trkpt><trkpt lat="44.0030885" lon="7.798736"><ele>920.0</ele><time>2026-04-09T14:04:58.312Z</time></trkpt><trkpt lat="44.002966" lon="7.7985955"><ele>920.0</ele><time>2026-04-09T14:04:59.312Z</time></trkpt><trkpt lat="44.0028712" lon="7.798447"><ele>920.2</ele><time>2026-04-09T14:05:00.311Z</time></trkpt><trkpt lat="44.0027938" lon="7.7983059"><ele>920.4</ele><time>2026-04-09T14:05:01.311Z</time></trkpt><trkpt lat="44.0027324" lon="7.798173"><ele>920.5999999999999</ele><time>2026-04-09T14:05:02.312Z</time></trkpt><trkpt lat="44.0027039" lon="7.7980399"><ele>920.8</ele><time>2026-04-09T14:05:03.311Z</time></trkpt><trkpt lat="44.0026862" lon="7.7979057"><ele>921.0</ele><time>2026-04-09T14:05:04.312Z</time></trkpt><trkpt lat="44.0026267" lon="7.7977894"><ele>921.0</ele><time>2026-04-09T14:05:05.311Z</time></trkpt><trkpt lat="44.0025317" lon="7.7976866"><ele>920.9999999999999</ele><time>2026-04-09T14:05:06.312Z</time></trkpt><trkpt lat="44.0024236" lon="7.7976241"><ele>920.9999999999999</ele><time>2026-04-09T14:05:07.312Z</time></trkpt><trkpt lat="44.0023288" lon="7.7975783"><ele>921.0</ele><time>2026-04-09T14:05:08.311Z</time></trkpt><trkpt lat="44.0022439" lon="7.7975135"><ele>921.0</ele><time>2026-04-09T14:05:09.312Z</time></trkpt><trkpt lat="44.0021945" lon="7.7974186"><ele>915.5</ele><time>2026-04-09T14:05:10.311Z</time></trkpt><trkpt lat="44.0021684" lon="7.7972875"><ele>910.0</ele><time>2026-04-09T14:05:11.311Z</time></trkpt><trkpt lat="44.0021393" lon="7.7971304"><ele>904.5</ele><time>2026-04-09T14:05:12.311Z</time></trkpt><trkpt lat="44.0021085" lon="7.7969627"><ele>899.0</ele><time>2026-04-09T14:05:13.311Z</time></trkpt><trkpt lat="44.0020794" lon="7.7968002"><ele>899.0</ele><time>2026-04-09T14:05:14.312Z</time></trkpt><trkpt lat="44.0020568" lon="7.7966521"><ele>899.0000000000001</ele><time>2026-04-09T14:05:15.312Z</time></trkpt><trkpt lat="44.0020434" lon="7.7965182"><ele>899.0000000000001</ele><time>2026-04-09T14:05:16.312Z</time></trkpt><trkpt lat="44.0020387" lon="7.7964049"><ele>899.0</ele><time>2026-04-09T14:05:17.311Z</time></trkpt><trkpt lat="44.0019737" lon="7.7962987"><ele>899.0</ele><time>2026-04-09T14:05:19.311Z</time></trkpt><trkpt lat="44.0019149" lon="7.7963957"><ele>899.0</ele><time>2026-04-09T14:05:21.311Z</time></trkpt><trkpt lat="44.0019319" lon="7.7964995"><ele>899.0000000000001</ele><time>2026-04-09T14:05:22.311Z</time></trkpt><trkpt lat="44.0019757" lon="7.7966166"><ele>899.0000000000001</ele><time>2026-04-09T14:05:23.311Z</time></trkpt><trkpt lat="44.0020169" lon="7.7967406"><ele>899.0</ele><time>2026-04-09T14:05:24.312Z</time></trkpt><trkpt lat="44.0020458" lon="7.7968846"><ele>899.0</ele><time>2026-04-09T14:05:25.311Z</time></trkpt><trkpt lat="44.0020619" lon="7.7970378"><ele>897.0</ele><time>2026-04-09T14:05:26.312Z</time></trkpt><trkpt lat="44.002076" lon="7.7971906"><ele>895.0000000000001</ele><time>2026-04-09T14:05:27.312Z</time></trkpt><trkpt lat="44.0020903" lon="7.7973342"><ele>893.0000000000001</ele><time>2026-04-09T14:05:28.312Z</time></trkpt><trkpt lat="44.0020934" lon="7.797475"><ele>891.0</ele><time>2026-04-09T14:05:29.312Z</time></trkpt><trkpt lat="44.002106" lon="7.7975938"><ele>889.0</ele><time>2026-04-09T14:05:30.312Z</time></trkpt><trkpt lat="44.0021407" lon="7.7977015"><ele>886.8000000000001</ele><time>2026-04-09T14:05:31.312Z</time></trkpt><trkpt lat="44.0022168" lon="7.7977958"><ele>884.6000000000001</ele><time>2026-04-09T14:05:32.311Z</time></trkpt><trkpt lat="44.0023056" lon="7.7978746"><ele>882.4</ele><time>2026-04-09T14:05:33.312Z</time></trkpt><trkpt lat="44.0023849" lon="7.7979582"><ele>880.2</ele><time>2026-04-09T14:05:34.311Z</time></trkpt><trkpt lat="44.0024422" lon="7.7980396"><ele>878.0</ele><time>2026-04-09T14:05:35.312Z</time></trkpt><trkpt lat="44.0024728" lon="7.7981562"><ele>878.0</ele><time>2026-04-09T14:05:36.311Z</time></trkpt><trkpt lat="44.0024964" lon="7.7982942"><ele>878.0</ele><time>2026-04-09T14:05:37.312Z</time></trkpt><trkpt lat="44.0025359" lon="7.7984352"><ele>878.0</ele><time>2026-04-09T14:05:38.311Z</time></trkpt><trkpt lat="44.0025948" lon="7.7985775"><ele>878.0</ele><time>2026-04-09T14:05:39.311Z</time></trkpt><trkpt lat="44.0026593" lon="7.7987017"><ele>878.0</ele><time>2026-04-09T14:05:40.312Z</time></trkpt><trkpt lat="44.0027214" lon="7.798808"><ele>885.0000000000001</ele><time>2026-04-09T14:05:41.312Z</time></trkpt><trkpt lat="44.002772" lon="7.7989043"><ele>892.0</ele><time>2026-04-09T14:05:42.311Z</time></trkpt><trkpt lat="44.0028069" lon="7.7989952"><ele>899.0</ele><time>2026-04-09T14:05:43.311Z</time></trkpt><trkpt lat="44.0028151" lon="7.7990827"><ele>906.0</ele><time>2026-04-09T14:05:44.312Z</time></trkpt><trkpt lat="44.0027365" lon="7.7991812"><ele>913.0000000000001</ele><time>2026-04-09T14:05:46.312Z</time></trkpt><trkpt lat="44.0026792" lon="7.7990718"><ele>920.0</ele><time>2026-04-09T14:05:48.311Z</time></trkpt><trkpt lat="44.0026769" lon="7.7989745"><ele>920.0</ele><time>2026-04-09T14:05:49.311Z</time></trkpt><trkpt lat="44.0026544" lon="7.7988572"><ele>920.0</ele><time>2026-04-09T14:05:50.312Z</time></trkpt><trkpt lat="44.0025935" lon="7.7987243"><ele>920.0</ele><time>2026-04-09T14:05:51.312Z</time></trkpt><trkpt lat="44.0025224" lon="7.7985868"><ele>920.0</ele><time>2026-04-09T14:05:52.311Z</time></trkpt><trkpt lat="44.0024655" lon="7.7984413"><ele>920.0</ele><time>2026-04-09T14:05:53.311Z</time></trkpt><trkpt lat="44.0024171" lon="7.7982937"><ele>909.5</ele><time>2026-04-09T14:05:54.312Z</time></trkpt><trkpt lat="44.0023562" lon="7.7981613"><ele>899.0</ele><time>2026-04-09T14:05:55.311Z</time></trkpt><trkpt lat="44.002278" lon="7.7980467"><ele>888.5</ele><time>2026-04-09T14:05:56.312Z</time></trkpt><trkpt lat="44.0021715" lon="7.7979519"><ele>878.0</ele><time>2026-04-09T14:05:57.311Z</time></trkpt><trkpt lat="44.002071" lon="7.7978863"><ele>878.0</ele><time>2026-04-09T14:05:58.312Z</time></trkpt><trkpt lat="44.0019964" lon="7.7978106"><ele>878.0</ele><time>2026-04-09T14:05:59.312Z</time></trkpt><trkpt lat="44.0019534" lon="7.797723"><ele>878.0</ele><time>2026-04-09T14:06:00.311Z</time></trkpt><trkpt lat="44.0019337" lon="7.7976047"><ele>878.0</ele><time>2026-04-09T14:06:01.311Z</time></trkpt><trkpt lat="44.001922" lon="7.7974447"><ele>878.0</ele><time>2026-04-09T14:06:02.311Z</time></trkpt><trkpt lat="44.0019025" lon="7.7972664"><ele>880.75</ele><time>2026-04-09T14:06:03.311Z</time></trkpt><trkpt lat="44.0018791" lon="7.7970942"><ele>883.5</ele><time>2026-04-09T14:06:04.311Z</time></trkpt><trkpt lat="44.0018531" lon="7.7969332"><ele>886.25</ele><time>2026-04-09T14:06:05.312Z</time></trkpt><trkpt lat="44.0018039" lon="7.796786"><ele>889.0</ele><time>2026-04-09T14:06:06.311Z</time></trkpt><trkpt lat="44.0017323" lon="7.7966372"><ele>879.75</ele><time>2026-04-09T14:06:07.312Z</time></trkpt><trkpt lat="44.0016507" lon="7.7964941"><ele>870.5</ele><time>2026-04-09T14:06:08.312Z</time></trkpt><trkpt lat="44.001575" lon="7.796352"><ele>861.25</ele><time>2026-04-09T14:06:09.312Z</time></trkpt><trkpt lat="44.0014908" lon="7.7962091"><ele>852.0</ele><time>2026-04-09T14:06:10.311Z</time></trkpt><trkpt lat="44.0013934" lon="7.7960872"><ele>858.0</ele><time>2026-04-09T14:06:11.312Z</time></trkpt><trkpt lat="44.0012896" lon="7.7959795"><ele>864.0</ele><time>2026-04-09T14:06:12.311Z</time></trkpt><trkpt lat="44.0011796" lon="7.7958867"><ele>870.0</ele><time>2026-04-09T14:06:13.312Z</time></trkpt><trkpt lat="44.001072" lon="7.7958117"><ele>876.0</ele><time>2026-04-09T14:06:14.311Z</time></trkpt><trkpt lat="44.0009858" lon="7.7957217"><ele>876.0</ele><time>2026-04-09T14:06:15.311Z</time></trkpt><trkpt lat="44.0009248" lon="7.7956108"><ele>876.0</ele><time>2026-04-09T14:06:16.311Z</time></trkpt><trkpt lat="44.0008666" lon="7.7954783"><ele>876.0</ele><time>2026-04-09T14:06:17.311Z</time></trkpt><trkpt lat="44.0007961" lon="7.795338"><ele>876.0</ele><time>2026-04-09T14:06:18.312Z</time></trkpt><trkpt lat="44.0006951" lon="7.7952112"><ele>876.75</ele><time>2026-04-09T14:06:19.311Z</time></trkpt><trkpt lat="44.0005783" lon="7.7950968"><ele>877.5</ele><time>2026-04-09T14:06:20.311Z</time></trkpt><trkpt lat="44.0004644" lon="7.7949835"><ele>878.25</ele><time>2026-04-09T14:06:21.311Z</time></trkpt><trkpt lat="44.0003566" lon="7.7948846"><ele>879.0</ele><time>2026-04-09T14:06:22.311Z</time></trkpt><trkpt lat="44.0002546" lon="7.7948112"><ele>879.0</ele><time>2026-04-09T14:06:23.311Z</time></trkpt><trkpt lat="44.0001465" lon="7.7947839"><ele>879.0</ele><time>2026-04-09T14:06:24.312Z</time></trkpt><trkpt lat="44.000027" lon="7.7947923"><ele>879.0</ele><time>2026-04-09T14:06:25.312Z</time></trkpt><trkpt lat="43.9998981" lon="7.7948036"><ele>879.0</ele><time>2026-04-09T14:06:26.311Z</time></trkpt><trkpt lat="43.9997784" lon="7.7947883"><ele>879.0</ele><time>2026-04-09T14:06:27.311Z</time></trkpt><trkpt lat="43.9996635" lon="7.7947517"><ele>879.0000000000001</ele><time>2026-04-09T14:06:28.311Z</time></trkpt><trkpt lat="43.9995692" lon="7.7946981"><ele>879.0000000000001</ele><time>2026-04-09T14:06:29.312Z</time></trkpt><trkpt lat="43.9994909" lon="7.7946144"><ele>879.0</ele><time>2026-04-09T14:06:30.312Z</time></trkpt><trkpt lat="43.9994115" lon="7.7945233"><ele>879.0</ele><time>2026-04-09T14:06:31.311Z</time></trkpt><trkpt lat="43.9993145" lon="7.7944617"><ele>879.0</ele><time>2026-04-09T14:06:32.312Z</time></trkpt><trkpt lat="43.9992035" lon="7.7944427"><ele>879.0</ele><time>2026-04-09T14:06:33.312Z</time></trkpt><trkpt lat="43.9990831" lon="7.7943919"><ele>879.0</ele><time>2026-04-09T14:06:34.312Z</time></trkpt><trkpt lat="43.998967" lon="7.7943316"><ele>879.0</ele><time>2026-04-09T14:06:35.312Z</time></trkpt><trkpt lat="43.9988755" lon="7.7942272"><ele>883.5</ele><time>2026-04-09T14:06:36.311Z</time></trkpt><trkpt lat="43.998759" lon="7.7942531"><ele>888.0</ele><time>2026-04-09T14:06:37.311Z</time></trkpt><trkpt lat="43.9986422" lon="7.7943334"><ele>892.5</ele><time>2026-04-09T14:06:38.311Z</time></trkpt><trkpt lat="43.998528" lon="7.7944095"><ele>897.0</ele><time>2026-04-09T14:06:39.312Z</time></trkpt><trkpt lat="43.9984072" lon="7.7944415"><ele>885.0</ele><time>2026-04-09T14:06:40.311Z</time></trkpt><trkpt lat="43.998283" lon="7.7944109"><ele>873.0</ele><time>2026-04-09T14:06:41.312Z</time></trkpt><trkpt lat="43.9981526" lon="7.7943806"><ele>861.0</ele><time>2026-04-09T14:06:42.313Z</time></trkpt><trkpt lat="43.9980306" lon="7.7944064"><ele>849.0</ele><time>2026-04-09T14:06:43.313Z</time></trkpt><trkpt lat="43.9979255" lon="7.7944598"><ele>849.0</ele><time>2026-04-09T14:06:44.312Z</time></trkpt><trkpt lat="43.9978327" lon="7.7945415"><ele>849.0</ele><time>2026-04-09T14:06:45.314Z</time></trkpt><trkpt lat="43.9977537" lon="7.7945913"><ele>849.0</ele><time>2026-04-09T14:06:46.314Z</time></trkpt><trkpt lat="43.99766" lon="7.7945809"><ele>849.0</ele><time>2026-04-09T14:06:47.315Z</time></trkpt><trkpt lat="43.9975538" lon="7.7945464"><ele>849.0</ele><time>2026-04-09T14:06:48.314Z</time></trkpt><trkpt lat="43.9974487" lon="7.7945287"><ele>848.0</ele><time>2026-04-09T14:06:49.315Z</time></trkpt><trkpt lat="43.9973365" lon="7.7945681"><ele>847.0</ele><time>2026-04-09T14:06:50.314Z</time></trkpt><trkpt lat="43.9972129" lon="7.7946172"><ele>846.0</ele><time>2026-04-09T14:06:51.314Z</time></trkpt><trkpt lat="43.9970775" lon="7.7946654"><ele>845.0</ele><time>2026-04-09T14:06:52.315Z</time></trkpt><trkpt lat="43.9969267" lon="7.7946929"><ele>845.0</ele><time>2026-04-09T14:06:53.314Z</time></trkpt><trkpt lat="43.996785" lon="7.7947223"><ele>845.0</ele><time>2026-04-09T14:06:54.314Z</time></trkpt><trkpt lat="43.9966459" lon="7.7947569"><ele>845.0</ele><time>2026-04-09T14:06:55.315Z</time></trkpt><trkpt lat="43.9965046" lon="7.794807"><ele>845.0</ele><time>2026-04-09T14:06:56.315Z</time></trkpt><trkpt lat="43.9963781" lon="7.7948908"><ele>845.5</ele><time>2026-04-09T14:06:57.314Z</time></trkpt><trkpt lat="43.99625" lon="7.7949817"><ele>846.0</ele><time>2026-04-09T14:06:58.314Z</time></trkpt><trkpt lat="43.9961235" lon="7.7950682"><ele>846.5</ele><time>2026-04-09T14:06:59.314Z</time></trkpt><trkpt lat="43.995998" lon="7.795157"><ele>847.0</ele><time>2026-04-09T14:07:00.314Z</time></trkpt><trkpt lat="43.9958732" lon="7.795235"><ele>840.0</ele><time>2026-04-09T14:07:01.315Z</time></trkpt><trkpt lat="43.9957502" lon="7.7953024"><ele>833.0</ele><time>2026-04-09T14:07:02.314Z</time></trkpt><trkpt lat="43.9956348" lon="7.7953579"><ele>826.0</ele><time>2026-04-09T14:07:03.314Z</time></trkpt><trkpt lat="43.9955355" lon="7.7954506"><ele>819.0</ele><time>2026-04-09T14:07:04.315Z</time></trkpt><trkpt lat="43.9954426" lon="7.7955469"><ele>819.0</ele><time>2026-04-09T14:07:05.314Z</time></trkpt><trkpt lat="43.995358" lon="7.7956297"><ele>819.0</ele><time>2026-04-09T14:07:06.315Z</time></trkpt><trkpt lat="43.9952869" lon="7.7956709"><ele>819.0</ele><time>2026-04-09T14:07:07.314Z</time></trkpt><trkpt lat="43.9952221" lon="7.7956397"><ele>819.0</ele><time>2026-04-09T14:07:08.315Z</time></trkpt><trkpt lat="43.9951564" lon="7.7955793"><ele>819.0</ele><time>2026-04-09T14:07:09.314Z</time></trkpt><trkpt lat="43.9950739" lon="7.7954826"><ele>819.0</ele><time>2026-04-09T14:07:10.314Z</time></trkpt><trkpt lat="43.9949773" lon="7.7953939"><ele>817.0</ele><time>2026-04-09T14:07:11.314Z</time></trkpt><trkpt lat="43.9948589" lon="7.7953165"><ele>815.0</ele><time>2026-04-09T14:07:12.315Z</time></trkpt><trkpt lat="43.9947263" lon="7.795258"><ele>813.0</ele><time>2026-04-09T14:07:13.315Z</time></trkpt><trkpt lat="43.9945979" lon="7.7952264"><ele>811.0</ele><time>2026-04-09T14:07:14.315Z</time></trkpt><trkpt lat="43.9944656" lon="7.795201"><ele>811.0</ele><time>2026-04-09T14:07:15.315Z</time></trkpt><trkpt lat="43.994324" lon="7.7951893"><ele>811.0</ele><time>2026-04-09T14:07:16.314Z</time></trkpt><trkpt lat="43.9941942" lon="7.7951893"><ele>811.0</ele><time>2026-04-09T14:07:17.314Z</time></trkpt><trkpt lat="43.9940756" lon="7.7951922"><ele>811.0</ele><time>2026-04-09T14:07:18.315Z</time></trkpt><trkpt lat="43.9939735" lon="7.7951907"><ele>813.4</ele><time>2026-04-09T14:07:19.314Z</time></trkpt><trkpt lat="43.9938873" lon="7.7951713"><ele>815.8</ele><time>2026-04-09T14:07:20.315Z</time></trkpt><trkpt lat="43.993818" lon="7.7951135"><ele>818.1999999999999</ele><time>2026-04-09T14:07:21.315Z</time></trkpt><trkpt lat="43.9937635" lon="7.7950078"><ele>820.5999999999999</ele><time>2026-04-09T14:07:22.315Z</time></trkpt><trkpt lat="43.9937197" lon="7.7948543"><ele>823.0</ele><time>2026-04-09T14:07:23.314Z</time></trkpt><trkpt lat="43.9936921" lon="7.794708"><ele>823.0</ele><time>2026-04-09T14:07:24.314Z</time></trkpt><trkpt lat="43.9936599" lon="7.7945661"><ele>823.0</ele><time>2026-04-09T14:07:25.315Z</time></trkpt><trkpt lat="43.9936226" lon="7.7944387"><ele>823.0</ele><time>2026-04-09T14:07:26.315Z</time></trkpt><trkpt lat="43.9935615" lon="7.794344"><ele>823.0</ele><time>2026-04-09T14:07:27.315Z</time></trkpt><trkpt lat="43.9934734" lon="7.7942827"><ele>823.0</ele><time>2026-04-09T14:07:28.314Z</time></trkpt><trkpt lat="43.9933616" lon="7.7942573"><ele>821.0</ele><time>2026-04-09T14:07:29.314Z</time></trkpt><trkpt lat="43.9932493" lon="7.7942486"><ele>819.0</ele><time>2026-04-09T14:07:30.315Z</time></trkpt><trkpt lat="43.993132" lon="7.7942108"><ele>817.0</ele><time>2026-04-09T14:07:31.315Z</time></trkpt><trkpt lat="43.9930199" lon="7.7941719"><ele>815.0</ele><time>2026-04-09T14:07:32.315Z</time></trkpt><trkpt lat="43.9929203" lon="7.7941337"><ele>815.0</ele><time>2026-04-09T14:07:33.314Z</time></trkpt><trkpt lat="43.9928282" lon="7.7940922"><ele>815.0</ele><time>2026-04-09T14:07:34.314Z</time></trkpt><trkpt lat="43.9927385" lon="7.7940215"><ele>815.0</ele><time>2026-04-09T14:07:35.315Z</time></trkpt><trkpt lat="43.9926586" lon="7.7939231"><ele>815.0</ele><time>2026-04-09T14:07:36.315Z</time></trkpt><trkpt lat="43.9925809" lon="7.793797"><ele>815.0</ele><time>2026-04-09T14:07:37.314Z</time></trkpt><trkpt lat="43.9925038" lon="7.7936616"><ele>812.5</ele><time>2026-04-09T14:07:38.314Z</time></trkpt><trkpt lat="43.992425" lon="7.7935311"><ele>810.0</ele><time>2026-04-09T14:07:39.315Z</time></trkpt><trkpt lat="43.9923406" lon="7.7934054"><ele>807.5</ele><time>2026-04-09T14:07:40.315Z</time></trkpt><trkpt lat="43.992259" lon="7.7932925"><ele>805.0</ele><time>2026-04-09T14:07:41.315Z</time></trkpt><trkpt lat="43.9921849" lon="7.7931882"><ele>805.0</ele><time>2026-04-09T14:07:42.314Z</time></trkpt><trkpt lat="43.9921409" lon="7.7930839"><ele>805.0</ele><time>2026-04-09T14:07:43.315Z</time></trkpt><trkpt lat="43.9921347" lon="7.7929702"><ele>805.0</ele><time>2026-04-09T14:07:44.315Z</time></trkpt><trkpt lat="43.9921566" lon="7.7928492"><ele>805.0</ele><time>2026-04-09T14:07:45.315Z</time></trkpt><trkpt lat="43.9921999" lon="7.7927212"><ele>805.0</ele><time>2026-04-09T14:07:46.315Z</time></trkpt><trkpt lat="43.9922323" lon="7.7925806"><ele>806.25</ele><time>2026-04-09T14:07:47.315Z</time></trkpt><trkpt lat="43.9922492" lon="7.7924266"><ele>807.5</ele><time>2026-04-09T14:07:48.314Z</time></trkpt><trkpt lat="43.9922422" lon="7.7922702"><ele>808.75</ele><time>2026-04-09T14:07:49.315Z</time></trkpt><trkpt lat="43.9921957" lon="7.7921169"><ele>810.0</ele><time>2026-04-09T14:07:50.315Z</time></trkpt><trkpt lat="43.9921374" lon="7.7919769"><ele>812.2</ele><time>2026-04-09T14:07:51.315Z</time></trkpt><trkpt lat="43.9920849" lon="7.7918303"><ele>814.4</ele><time>2026-04-09T14:07:52.315Z</time></trkpt><trkpt lat="43.9920447" lon="7.7916828"><ele>816.5999999999999</ele><time>2026-04-09T14:07:53.315Z</time></trkpt><trkpt lat="43.9919829" lon="7.7915589"><ele>818.8</ele><time>2026-04-09T14:07:54.315Z</time></trkpt><trkpt lat="43.991909" lon="7.7914718"><ele>821.0</ele><time>2026-04-09T14:07:55.315Z</time></trkpt><trkpt lat="43.991814" lon="7.7914228"><ele>821.0</ele><time>2026-04-09T14:07:56.315Z</time></trkpt><trkpt lat="43.9917015" lon="7.791402"><ele>821.0</ele><time>2026-04-09T14:07:57.314Z</time></trkpt><trkpt lat="43.991566" lon="7.7913895"><ele>821.0</ele><time>2026-04-09T14:07:58.315Z</time></trkpt><trkpt lat="43.991415" lon="7.7913743"><ele>821.0</ele><time>2026-04-09T14:07:59.315Z</time></trkpt><trkpt lat="43.9912673" lon="7.7913597"><ele>808.25</ele><time>2026-04-09T14:08:00.314Z</time></trkpt><trkpt lat="43.9911239" lon="7.7913484"><ele>795.5</ele><time>2026-04-09T14:08:01.314Z</time></trkpt><trkpt lat="43.9909746" lon="7.7913396"><ele>782.75</ele><time>2026-04-09T14:08:02.314Z</time></trkpt><trkpt lat="43.9908295" lon="7.7913448"><ele>770.0</ele><time>2026-04-09T14:08:03.314Z</time></trkpt><trkpt lat="43.9906904" lon="7.7913599"><ele>765.5</ele><time>2026-04-09T14:08:04.315Z</time></trkpt><trkpt lat="43.9905646" lon="7.7913872"><ele>761.0</ele><time>2026-04-09T14:08:05.315Z</time></trkpt><trkpt lat="43.9904521" lon="7.7914486"><ele>756.5</ele><time>2026-04-09T14:08:06.315Z</time></trkpt><trkpt lat="43.9903568" lon="7.7915395"><ele>752.0</ele><time>2026-04-09T14:08:07.314Z</time></trkpt><trkpt lat="43.9902768" lon="7.7916482"><ele>752.0</ele><time>2026-04-09T14:08:08.314Z</time></trkpt><trkpt lat="43.9901932" lon="7.7917348"><ele>752.0</ele><time>2026-04-09T14:08:09.314Z</time></trkpt><trkpt lat="43.9901065" lon="7.791774"><ele>752.0</ele><time>2026-04-09T14:08:10.314Z</time></trkpt><trkpt lat="43.9900119" lon="7.7917721"><ele>752.0</ele><time>2026-04-09T14:08:11.314Z</time></trkpt><trkpt lat="43.9899206" lon="7.7917525"><ele>752.0</ele><time>2026-04-09T14:08:12.315Z</time></trkpt><trkpt lat="43.9898526" lon="7.7917045"><ele>752.0</ele><time>2026-04-09T14:08:13.314Z</time></trkpt><trkpt lat="43.9898209" lon="7.7916205"><ele>752.0</ele><time>2026-04-09T14:08:14.314Z</time></trkpt><trkpt lat="43.9898766" lon="7.7914478"><ele>752.0</ele><time>2026-04-09T14:08:16.315Z</time></trkpt><trkpt lat="43.9899427" lon="7.7913242"><ele>752.0</ele><time>2026-04-09T14:08:17.315Z</time></trkpt><trkpt lat="43.9900137" lon="7.791182"><ele>752.0</ele><time>2026-04-09T14:08:18.314Z</time></trkpt><trkpt lat="43.9900898" lon="7.7910234"><ele>758.75</ele><time>2026-04-09T14:08:19.315Z</time></trkpt><trkpt lat="43.990165" lon="7.7908527"><ele>765.5</ele><time>2026-04-09T14:08:20.315Z</time></trkpt><trkpt lat="43.9902232" lon="7.7906845"><ele>772.25</ele><time>2026-04-09T14:08:21.314Z</time></trkpt><trkpt lat="43.9902747" lon="7.7905216"><ele>779.0</ele><time>2026-04-09T14:08:22.314Z</time></trkpt><trkpt lat="43.9903329" lon="7.7903642"><ele>779.0</ele><time>2026-04-09T14:08:23.315Z</time></trkpt><trkpt lat="43.9903879" lon="7.7902108"><ele>779.0</ele><time>2026-04-09T14:08:24.314Z</time></trkpt><trkpt lat="43.9904369" lon="7.7900557"><ele>779.0</ele><time>2026-04-09T14:08:25.314Z</time></trkpt><trkpt lat="43.9904836" lon="7.7898922"><ele>779.0</ele><time>2026-04-09T14:08:26.315Z</time></trkpt><trkpt lat="43.9905173" lon="7.7897357"><ele>777.75</ele><time>2026-04-09T14:08:27.314Z</time></trkpt><trkpt lat="43.9905257" lon="7.7895713"><ele>776.5</ele><time>2026-04-09T14:08:28.315Z</time></trkpt><trkpt lat="43.9905159" lon="7.789395"><ele>775.25</ele><time>2026-04-09T14:08:29.314Z</time></trkpt><trkpt lat="43.9905039" lon="7.7892265"><ele>774.0</ele><time>2026-04-09T14:08:30.315Z</time></trkpt><trkpt lat="43.9905084" lon="7.7890779"><ele>769.0</ele><time>2026-04-09T14:08:31.315Z</time></trkpt><trkpt lat="43.9905394" lon="7.7889409"><ele>764.0</ele><time>2026-04-09T14:08:32.314Z</time></trkpt><trkpt lat="43.990595" lon="7.7888142"><ele>759.0</ele><time>2026-04-09T14:08:33.315Z</time></trkpt><trkpt lat="43.9906601" lon="7.7887051"><ele>754.0</ele><time>2026-04-09T14:08:34.314Z</time></trkpt><trkpt lat="43.99071" lon="7.7885749"><ele>749.0</ele><time>2026-04-09T14:08:35.315Z</time></trkpt><trkpt lat="43.99074" lon="7.7884322"><ele>744.25</ele><time>2026-04-09T14:08:36.314Z</time></trkpt><trkpt lat="43.9907464" lon="7.7882788"><ele>739.5</ele><time>2026-04-09T14:08:37.314Z</time></trkpt><trkpt lat="43.9907334" lon="7.7881038"><ele>734.75</ele><time>2026-04-09T14:08:38.315Z</time></trkpt><trkpt lat="43.9907167" lon="7.7879247"><ele>730.0</ele><time>2026-04-09T14:08:39.315Z</time></trkpt><trkpt lat="43.9907097" lon="7.7877449"><ele>728.0</ele><time>2026-04-09T14:08:40.315Z</time></trkpt><trkpt lat="43.9907199" lon="7.7875661"><ele>726.0</ele><time>2026-04-09T14:08:41.315Z</time></trkpt><trkpt lat="43.9907477" lon="7.7873992"><ele>724.0</ele><time>2026-04-09T14:08:42.315Z</time></trkpt><trkpt lat="43.9907762" lon="7.7872215"><ele>722.0</ele><time>2026-04-09T14:08:43.314Z</time></trkpt><trkpt lat="43.9908055" lon="7.7870589"><ele>722.0</ele><time>2026-04-09T14:08:44.315Z</time></trkpt><trkpt lat="43.9908334" lon="7.7869012"><ele>722.0</ele><time>2026-04-09T14:08:45.315Z</time></trkpt><trkpt lat="43.9908569" lon="7.7867557"><ele>722.0</ele><time>2026-04-09T14:08:46.315Z</time></trkpt><trkpt lat="43.9908826" lon="7.7866278"><ele>722.0</ele><time>2026-04-09T14:08:47.315Z</time></trkpt><trkpt lat="43.9909102" lon="7.7865314"><ele>722.0</ele><time>2026-04-09T14:08:48.314Z</time></trkpt><trkpt lat="43.9908599" lon="7.7864051"><ele>722.0</ele><time>2026-04-09T14:08:50.315Z</time></trkpt><trkpt lat="43.990772" lon="7.7864683"><ele>722.0</ele><time>2026-04-09T14:08:52.314Z</time></trkpt><trkpt lat="43.9907638" lon="7.786578"><ele>722.0</ele><time>2026-04-09T14:08:53.315Z</time></trkpt><trkpt lat="43.9907336" lon="7.7866934"><ele>722.0</ele><time>2026-04-09T14:08:54.314Z</time></trkpt><trkpt lat="43.9906951" lon="7.7868212"><ele>722.0</ele><time>2026-04-09T14:08:55.315Z</time></trkpt><trkpt lat="43.9906514" lon="7.7869643"><ele>722.0</ele><time>2026-04-09T14:08:56.315Z</time></trkpt><trkpt lat="43.9905988" lon="7.7871044"><ele>722.0</ele><time>2026-04-09T14:08:57.314Z</time></trkpt><trkpt lat="43.9905402" lon="7.7872356"><ele>722.0</ele><time>2026-04-09T14:08:58.315Z</time></trkpt><trkpt lat="43.9904734" lon="7.7873684"><ele>722.0</ele><time>2026-04-09T14:08:59.314Z</time></trkpt><trkpt lat="43.9904115" lon="7.7875004"><ele>722.0</ele><time>2026-04-09T14:09:00.315Z</time></trkpt><trkpt lat="43.9903422" lon="7.7876366"><ele>722.0</ele><time>2026-04-09T14:09:01.315Z</time></trkpt><trkpt lat="43.990266" lon="7.7877694"><ele>722.0</ele><time>2026-04-09T14:09:02.315Z</time></trkpt><trkpt lat="43.9901863" lon="7.7878997"><ele>722.0</ele><time>2026-04-09T14:09:03.314Z</time></trkpt><trkpt lat="43.990101" lon="7.7880142"><ele>724.0</ele><time>2026-04-09T14:09:04.315Z</time></trkpt><trkpt lat="43.9900184" lon="7.7881315"><ele>726.0</ele><time>2026-04-09T14:09:05.314Z</time></trkpt><trkpt lat="43.989947" lon="7.7882752"><ele>728.0</ele><time>2026-04-09T14:09:06.315Z</time></trkpt><trkpt lat="43.9898878" lon="7.7884386"><ele>730.0</ele><time>2026-04-09T14:09:07.314Z</time></trkpt><trkpt lat="43.9898269" lon="7.7886154"><ele>725.0</ele><time>2026-04-09T14:09:08.314Z</time></trkpt><trkpt lat="43.9897655" lon="7.7887917"><ele>720.0</ele><time>2026-04-09T14:09:09.314Z</time></trkpt><trkpt lat="43.9897013" lon="7.7889704"><ele>715.0</ele><time>2026-04-09T14:09:10.315Z</time></trkpt><trkpt lat="43.9896345" lon="7.7891491"><ele>710.0</ele><time>2026-04-09T14:09:11.315Z</time></trkpt><trkpt lat="43.98957" lon="7.7893243"><ele>712.0</ele><time>2026-04-09T14:09:12.315Z</time></trkpt><trkpt lat="43.9895026" lon="7.7894898"><ele>714.0</ele><time>2026-04-09T14:09:13.314Z</time></trkpt><trkpt lat="43.9894361" lon="7.7896607"><ele>716.0</ele><time>2026-04-09T14:09:14.314Z</time></trkpt><trkpt lat="43.9893753" lon="7.7898329"><ele>718.0</ele><time>2026-04-09T14:09:15.315Z</time></trkpt><trkpt lat="43.9893116" lon="7.7899952"><ele>718.0</ele><time>2026-04-09T14:09:16.315Z</time></trkpt><trkpt lat="43.9892412" lon="7.790146"><ele>718.0</ele><time>2026-04-09T14:09:17.314Z</time></trkpt><trkpt lat="43.9891554" lon="7.7903011"><ele>718.0</ele><time>2026-04-09T14:09:18.314Z</time></trkpt><trkpt lat="43.989045" lon="7.7904421"><ele>718.0</ele><time>2026-04-09T14:09:19.314Z</time></trkpt><trkpt lat="43.9889352" lon="7.790574"><ele>718.75</ele><time>2026-04-09T14:09:20.314Z</time></trkpt><trkpt lat="43.9888286" lon="7.7907033"><ele>719.5</ele><time>2026-04-09T14:09:21.314Z</time></trkpt><trkpt lat="43.9887306" lon="7.7908373"><ele>720.25</ele><time>2026-04-09T14:09:22.315Z</time></trkpt><trkpt lat="43.9886403" lon="7.7909732"><ele>721.0</ele><time>2026-04-09T14:09:23.314Z</time></trkpt><trkpt lat="43.9885518" lon="7.791113"><ele>721.0</ele><time>2026-04-09T14:09:24.314Z</time></trkpt><trkpt lat="43.9884635" lon="7.7912604"><ele>721.0</ele><time>2026-04-09T14:09:25.315Z</time></trkpt><trkpt lat="43.9883777" lon="7.7914149"><ele>721.0</ele><time>2026-04-09T14:09:26.315Z</time></trkpt><trkpt lat="43.9882939" lon="7.7915684"><ele>721.0</ele><time>2026-04-09T14:09:27.315Z</time></trkpt><trkpt lat="43.9882172" lon="7.7917309"><ele>712.75</ele><time>2026-04-09T14:09:28.314Z</time></trkpt><trkpt lat="43.988132" lon="7.7918681"><ele>704.5</ele><time>2026-04-09T14:09:29.315Z</time></trkpt><trkpt lat="43.9880424" lon="7.7919755"><ele>696.25</ele><time>2026-04-09T14:09:30.314Z</time></trkpt><trkpt lat="43.9879372" lon="7.7920465"><ele>688.0</ele><time>2026-04-09T14:09:31.315Z</time></trkpt><trkpt lat="43.9878393" lon="7.7920978"><ele>688.0</ele><time>2026-04-09T14:09:32.315Z</time></trkpt><trkpt lat="43.9877429" lon="7.792161"><ele>688.0</ele><time>2026-04-09T14:09:33.314Z</time></trkpt><trkpt lat="43.9876574" lon="7.792267"><ele>688.0</ele><time>2026-04-09T14:09:34.314Z</time></trkpt><trkpt lat="43.9875836" lon="7.7924039"><ele>688.0</ele><time>2026-04-09T14:09:35.315Z</time></trkpt><trkpt lat="43.9875249" lon="7.7925493"><ele>679.0</ele><time>2026-04-09T14:09:36.315Z</time></trkpt><trkpt lat="43.9874919" lon="7.7927014"><ele>670.0</ele><time>2026-04-09T14:09:37.314Z</time></trkpt><trkpt lat="43.9874804" lon="7.7928399"><ele>661.0</ele><time>2026-04-09T14:09:38.314Z</time></trkpt><trkpt lat="43.9874565" lon="7.7929482"><ele>652.0</ele><time>2026-04-09T14:09:39.314Z</time></trkpt><trkpt lat="43.9873443" lon="7.7929907"><ele>643.0</ele><time>2026-04-09T14:09:41.315Z</time></trkpt><trkpt lat="43.9872882" lon="7.7929368"><ele>643.0</ele><time>2026-04-09T14:09:42.315Z</time></trkpt><trkpt lat="43.9872853" lon="7.7928314"><ele>643.0</ele><time>2026-04-09T14:09:43.314Z</time></trkpt><trkpt lat="43.9873212" lon="7.7927303"><ele>643.0</ele><time>2026-04-09T14:09:44.315Z</time></trkpt><trkpt lat="43.9873804" lon="7.7925911"><ele>643.0</ele><time>2026-04-09T14:09:45.314Z</time></trkpt><trkpt lat="43.9874329" lon="7.7924415"><ele>643.0</ele><time>2026-04-09T14:09:46.314Z</time></trkpt><trkpt lat="43.9874849" lon="7.792268"><ele>650.5</ele><time>2026-04-09T14:09:47.314Z</time></trkpt><trkpt lat="43.9875442" lon="7.7920868"><ele>658.0</ele><time>2026-04-09T14:09:48.314Z</time></trkpt><trkpt lat="43.9876083" lon="7.7919148"><ele>665.5</ele><time>2026-04-09T14:09:49.315Z</time></trkpt><trkpt lat="43.9876755" lon="7.7917562"><ele>673.0</ele><time>2026-04-09T14:09:50.315Z</time></trkpt><trkpt lat="43.9877359" lon="7.7916097"><ele>673.0</ele><time>2026-04-09T14:09:51.314Z</time></trkpt><trkpt lat="43.9877884" lon="7.7914628"><ele>673.0</ele><time>2026-04-09T14:09:52.315Z</time></trkpt><trkpt lat="43.9878293" lon="7.7912934"><ele>673.0</ele><time>2026-04-09T14:09:53.314Z</time></trkpt><trkpt lat="43.9878489" lon="7.7910901"><ele>673.0</ele><time>2026-04-09T14:09:54.315Z</time></trkpt><trkpt lat="43.9878621" lon="7.7908886"><ele>669.0</ele><time>2026-04-09T14:09:55.315Z</time></trkpt><trkpt lat="43.9878743" lon="7.790702"><ele>665.0</ele><time>2026-04-09T14:09:56.315Z</time></trkpt><trkpt lat="43.9878908" lon="7.790527"><ele>661.0</ele><time>2026-04-09T14:09:57.315Z</time></trkpt><trkpt lat="43.9879103" lon="7.7903737"><ele>657.0</ele><time>2026-04-09T14:09:58.315Z</time></trkpt><trkpt lat="43.9879368" lon="7.7902472"><ele>657.0</ele><time>2026-04-09T14:09:59.315Z</time></trkpt><trkpt lat="43.9879568" lon="7.7901598"><ele>657.0</ele><time>2026-04-09T14:10:00.314Z</time></trkpt><trkpt lat="43.9878913" lon="7.7900724"><ele>657.0</ele><time>2026-04-09T14:10:02.314Z</time></trkpt><trkpt lat="43.9878157" lon="7.7901882"><ele>657.0</ele><time>2026-04-09T14:10:04.315Z</time></trkpt><trkpt lat="43.9878063" lon="7.7903046"><ele>657.0</ele><time>2026-04-09T14:10:05.314Z</time></trkpt><trkpt lat="43.9878036" lon="7.7904433"><ele>657.0</ele><time>2026-04-09T14:10:06.314Z</time></trkpt><trkpt lat="43.9877868" lon="7.7906117"><ele>657.0</ele><time>2026-04-09T14:10:07.314Z</time></trkpt><trkpt lat="43.9877524" lon="7.7907919"><ele>657.0</ele><time>2026-04-09T14:10:08.315Z</time></trkpt><trkpt lat="43.9876934" lon="7.7909619"><ele>657.0</ele><time>2026-04-09T14:10:09.315Z</time></trkpt><trkpt lat="43.9876223" lon="7.7911336"><ele>661.0</ele><time>2026-04-09T14:10:10.314Z</time></trkpt><trkpt lat="43.9875383" lon="7.7912962"><ele>665.0</ele><time>2026-04-09T14:10:11.314Z</time></trkpt><trkpt lat="43.9874388" lon="7.7914435"><ele>669.0</ele><time>2026-04-09T14:10:12.315Z</time></trkpt><trkpt lat="43.9873418" lon="7.7915769"><ele>673.0</ele><time>2026-04-09T14:10:13.314Z</time></trkpt><trkpt lat="43.9872425" lon="7.7917082"><ele>666.5</ele><time>2026-04-09T14:10:14.315Z</time></trkpt><trkpt lat="43.9871537" lon="7.7918412"><ele>660.0</ele><time>2026-04-09T14:10:15.315Z</time></trkpt><trkpt lat="43.9870863" lon="7.7919837"><ele>653.5</ele><time>2026-04-09T14:10:16.314Z</time></trkpt><trkpt lat="43.9870331" lon="7.792135"><ele>647.0</ele><time>2026-04-09T14:10:17.314Z</time></trkpt><trkpt lat="43.9869977" lon="7.7922728"><ele>647.0</ele><time>2026-04-09T14:10:18.315Z</time></trkpt><trkpt lat="43.9869661" lon="7.7923882"><ele>647.0</ele><time>2026-04-09T14:10:19.314Z</time></trkpt><trkpt lat="43.9869185" lon="7.7924623"><ele>647.0</ele><time>2026-04-09T14:10:20.315Z</time></trkpt><trkpt lat="43.9868227" lon="7.7924021"><ele>647.0</ele><time>2026-04-09T14:10:22.315Z</time></trkpt><trkpt lat="43.9868217" lon="7.7923079"><ele>647.0</ele><time>2026-04-09T14:10:23.315Z</time></trkpt><trkpt lat="43.9868597" lon="7.792202"><ele>647.0</ele><time>2026-04-09T14:10:24.314Z</time></trkpt><trkpt lat="43.986917" lon="7.792068"><ele>647.0</ele><time>2026-04-09T14:10:25.315Z</time></trkpt><trkpt lat="43.9869816" lon="7.7919072"><ele>647.0</ele><time>2026-04-09T14:10:26.314Z</time></trkpt><trkpt lat="43.9870425" lon="7.7917184"><ele>647.0</ele><time>2026-04-09T14:10:27.315Z</time></trkpt><trkpt lat="43.9870959" lon="7.7915295"><ele>647.0</ele><time>2026-04-09T14:10:28.315Z</time></trkpt><trkpt lat="43.9871408" lon="7.7913423"><ele>643.5</ele><time>2026-04-09T14:10:29.314Z</time></trkpt><trkpt lat="43.9871799" lon="7.7911481"><ele>640.0</ele><time>2026-04-09T14:10:30.315Z</time></trkpt><trkpt lat="43.9872065" lon="7.7909585"><ele>636.5</ele><time>2026-04-09T14:10:31.314Z</time></trkpt><trkpt lat="43.9872274" lon="7.7907684"><ele>633.0</ele><time>2026-04-09T14:10:32.315Z</time></trkpt><trkpt lat="43.9872319" lon="7.790575"><ele>628.6666666666666</ele><time>2026-04-09T14:10:33.314Z</time></trkpt><trkpt lat="43.9872194" lon="7.7903639"><ele>624.3333333333333</ele><time>2026-04-09T14:10:34.314Z</time></trkpt><trkpt lat="43.9871909" lon="7.7901404"><ele>620.0</ele><time>2026-04-09T14:10:35.315Z</time></trkpt><trkpt lat="43.9871566" lon="7.7899256"><ele>618.0</ele><time>2026-04-09T14:10:36.314Z</time></trkpt><trkpt lat="43.9871239" lon="7.7897311"><ele>616.0</ele><time>2026-04-09T14:10:37.315Z</time></trkpt><trkpt lat="43.9870994" lon="7.7895381"><ele>614.0</ele><time>2026-04-09T14:10:38.314Z</time></trkpt><trkpt lat="43.9870708" lon="7.7893687"><ele>612.0</ele><time>2026-04-09T14:10:39.314Z</time></trkpt><trkpt lat="43.9870492" lon="7.7892141"><ele>611.0</ele><time>2026-04-09T14:10:40.315Z</time></trkpt><trkpt lat="43.9870197" lon="7.7890901"><ele>610.0</ele><time>2026-04-09T14:10:41.315Z</time></trkpt><trkpt lat="43.9869823" lon="7.7890186"><ele>609.0</ele><time>2026-04-09T14:10:42.315Z</time></trkpt><trkpt lat="43.9868734" lon="7.7890005"><ele>608.0</ele><time>2026-04-09T14:10:44.315Z</time></trkpt><trkpt lat="43.986825" lon="7.7890728"><ele>607.0</ele><time>2026-04-09T14:10:45.315Z</time></trkpt><trkpt lat="43.9867936" lon="7.7891864"><ele>606.0</ele><time>2026-04-09T14:10:46.315Z</time></trkpt><trkpt lat="43.9867846" lon="7.7893335"><ele>607.5</ele><time>2026-04-09T14:10:47.315Z</time></trkpt><trkpt lat="43.9867671" lon="7.789503"><ele>609.0</ele><time>2026-04-09T14:10:48.314Z</time></trkpt><trkpt lat="43.986747" lon="7.7896722"><ele>610.5</ele><time>2026-04-09T14:10:49.314Z</time></trkpt><trkpt lat="43.9866959" lon="7.7898435"><ele>612.0</ele><time>2026-04-09T14:10:50.314Z</time></trkpt><trkpt lat="43.9866277" lon="7.7900133"><ele>607.0</ele><time>2026-04-09T14:10:51.315Z</time></trkpt><trkpt lat="43.9865517" lon="7.7901882"><ele>602.0</ele><time>2026-04-09T14:10:52.315Z</time></trkpt><trkpt lat="43.9864899" lon="7.7903759"><ele>597.0</ele><time>2026-04-09T14:10:53.314Z</time></trkpt><trkpt lat="43.9864215" lon="7.790562"><ele>592.0</ele><time>2026-04-09T14:10:54.314Z</time></trkpt><trkpt lat="43.9863321" lon="7.7907431"><ele>592.0</ele><time>2026-04-09T14:10:55.315Z</time></trkpt><trkpt lat="43.9862308" lon="7.7909189"><ele>592.0</ele><time>2026-04-09T14:10:56.315Z</time></trkpt><trkpt lat="43.9861313" lon="7.7910916"><ele>592.0</ele><time>2026-04-09T14:10:57.314Z</time></trkpt><trkpt lat="43.9860335" lon="7.7912537"><ele>594.25</ele><time>2026-04-09T14:10:58.315Z</time></trkpt><trkpt lat="43.9859402" lon="7.7914086"><ele>596.5</ele><time>2026-04-09T14:10:59.315Z</time></trkpt><trkpt lat="43.985854" lon="7.7915496"><ele>598.75</ele><time>2026-04-09T14:11:00.315Z</time></trkpt><trkpt lat="43.9857877" lon="7.7916824"><ele>601.0</ele><time>2026-04-09T14:11:01.315Z</time></trkpt><trkpt lat="43.9857544" lon="7.7918122"><ele>596.2</ele><time>2026-04-09T14:11:02.315Z</time></trkpt><trkpt lat="43.9857209" lon="7.7919092"><ele>591.4000000000001</ele><time>2026-04-09T14:11:03.316Z</time></trkpt><trkpt lat="43.9856269" lon="7.7919303"><ele>586.6</ele><time>2026-04-09T14:11:05.315Z</time></trkpt><trkpt lat="43.9855897" lon="7.7917531"><ele>581.8000000000001</ele><time>2026-04-09T14:11:07.316Z</time></trkpt><trkpt lat="43.9856075" lon="7.7916404"><ele>577.0</ele><time>2026-04-09T14:11:08.316Z</time></trkpt><trkpt lat="43.9856537" lon="7.7915356"><ele>574.75</ele><time>2026-04-09T14:11:09.315Z</time></trkpt><trkpt lat="43.9857141" lon="7.7914201"><ele>572.5</ele><time>2026-04-09T14:11:10.316Z</time></trkpt><trkpt lat="43.9857706" lon="7.7912712"><ele>570.25</ele><time>2026-04-09T14:11:11.316Z</time></trkpt><trkpt lat="43.9858237" lon="7.7910901"><ele>568.0</ele><time>2026-04-09T14:11:12.315Z</time></trkpt><trkpt lat="43.9858494" lon="7.7908793"><ele>565.25</ele><time>2026-04-09T14:11:13.315Z</time></trkpt><trkpt lat="43.98584" lon="7.7906684"><ele>562.5</ele><time>2026-04-09T14:11:14.315Z</time></trkpt><trkpt lat="43.9858418" lon="7.790463"><ele>559.75</ele><time>2026-04-09T14:11:15.316Z</time></trkpt><trkpt lat="43.9858683" lon="7.7902597"><ele>557.0</ele><time>2026-04-09T14:11:16.316Z</time></trkpt><trkpt lat="43.9859075" lon="7.7900593"><ele>564.25</ele><time>2026-04-09T14:11:17.316Z</time></trkpt><trkpt lat="43.985926" lon="7.7898632"><ele>571.5</ele><time>2026-04-09T14:11:18.315Z</time></trkpt><trkpt lat="43.9859271" lon="7.7896901"><ele>578.75</ele><time>2026-04-09T14:11:19.316Z</time></trkpt><trkpt lat="43.9859381" lon="7.789539"><ele>586.0</ele><time>2026-04-09T14:11:20.316Z</time></trkpt><trkpt lat="43.9859814" lon="7.7893831"><ele>583.75</ele><time>2026-04-09T14:11:21.315Z</time></trkpt><trkpt lat="43.9860413" lon="7.7892211"><ele>581.5</ele><time>2026-04-09T14:11:22.315Z</time></trkpt><trkpt lat="43.9861008" lon="7.7890431"><ele>579.25</ele><time>2026-04-09T14:11:23.316Z</time></trkpt><trkpt lat="43.9861452" lon="7.788858"><ele>577.0</ele><time>2026-04-09T14:11:24.316Z</time></trkpt><trkpt lat="43.9861468" lon="7.7886395"><ele>573.3333333333334</ele><time>2026-04-09T14:11:25.315Z</time></trkpt><trkpt lat="43.9861408" lon="7.7884027"><ele>569.6666666666666</ele><time>2026-04-09T14:11:26.315Z</time></trkpt><trkpt lat="43.9861596" lon="7.7881858"><ele>566.0</ele><time>2026-04-09T14:11:27.315Z</time></trkpt><trkpt lat="43.9861913" lon="7.7879865"><ele>566.0</ele><time>2026-04-09T14:11:28.315Z</time></trkpt><trkpt lat="43.9862157" lon="7.7877964"><ele>566.0</ele><time>2026-04-09T14:11:29.315Z</time></trkpt><trkpt lat="43.9862377" lon="7.7876358"><ele>566.0</ele><time>2026-04-09T14:11:30.315Z</time></trkpt><trkpt lat="43.9862743" lon="7.7874904"><ele>566.0</ele><time>2026-04-09T14:11:31.315Z</time></trkpt><trkpt lat="43.9863301" lon="7.7873838"><ele>562.8</ele><time>2026-04-09T14:11:32.315Z</time></trkpt><trkpt lat="43.9863972" lon="7.7873038"><ele>559.6</ele><time>2026-04-09T14:11:33.315Z</time></trkpt><trkpt lat="43.9864642" lon="7.7872455"><ele>556.4</ele><time>2026-04-09T14:11:34.316Z</time></trkpt><trkpt lat="43.9864676" lon="7.787092"><ele>553.2</ele><time>2026-04-09T14:11:36.315Z</time></trkpt><trkpt lat="43.9864056" lon="7.7870018"><ele>550.0</ele><time>2026-04-09T14:11:37.316Z</time></trkpt><trkpt lat="43.9863377" lon="7.7869028"><ele>548.4</ele><time>2026-04-09T14:11:38.316Z</time></trkpt><trkpt lat="43.986287" lon="7.786787"><ele>546.8</ele><time>2026-04-09T14:11:39.315Z</time></trkpt><trkpt lat="43.986272" lon="7.7866482"><ele>545.2</ele><time>2026-04-09T14:11:40.316Z</time></trkpt><trkpt lat="43.9862879" lon="7.7865045"><ele>543.6</ele><time>2026-04-09T14:11:41.316Z</time></trkpt><trkpt lat="43.9863247" lon="7.7863725"><ele>542.0</ele><time>2026-04-09T14:11:42.316Z</time></trkpt><trkpt lat="43.986353" lon="7.7862491"><ele>542.0</ele><time>2026-04-09T14:11:43.315Z</time></trkpt><trkpt lat="43.9863359" lon="7.7861208"><ele>542.0</ele><time>2026-04-09T14:11:44.316Z</time></trkpt><trkpt lat="43.9862897" lon="7.7859934"><ele>542.0</ele><time>2026-04-09T14:11:45.315Z</time></trkpt><trkpt lat="43.9862564" lon="7.7858618"><ele>542.0</ele><time>2026-04-09T14:11:46.315Z</time></trkpt><trkpt lat="43.9862332" lon="7.7857189"><ele>542.0</ele><time>2026-04-09T14:11:47.316Z</time></trkpt><trkpt lat="43.9862169" lon="7.7855778"><ele>541.6</ele><time>2026-04-09T14:11:48.316Z</time></trkpt><trkpt lat="43.9861878" lon="7.7854538"><ele>541.2</ele><time>2026-04-09T14:11:49.316Z</time></trkpt><trkpt lat="43.986143" lon="7.7853604"><ele>540.8</ele><time>2026-04-09T14:11:50.315Z</time></trkpt><trkpt lat="43.9860774" lon="7.7852665"><ele>540.4</ele><time>2026-04-09T14:11:51.316Z</time></trkpt><trkpt lat="43.9859941" lon="7.7851562"><ele>540.0</ele><time>2026-04-09T14:11:52.315Z</time></trkpt><trkpt lat="43.9859037" lon="7.7850439"><ele>533.5</ele><time>2026-04-09T14:11:53.315Z</time></trkpt><trkpt lat="43.9858135" lon="7.7849248"><ele>527.0</ele><time>2026-04-09T14:11:54.316Z</time></trkpt><trkpt lat="43.9857254" lon="7.7848057"><ele>520.5</ele><time>2026-04-09T14:11:55.315Z</time></trkpt><trkpt lat="43.9856353" lon="7.784687"><ele>514.0</ele><time>2026-04-09T14:11:56.316Z</time></trkpt><trkpt lat="43.9855566" lon="7.7845623"><ele>514.0</ele><time>2026-04-09T14:11:57.315Z</time></trkpt><trkpt lat="43.9854895" lon="7.7844228"><ele>514.0</ele><time>2026-04-09T14:11:58.315Z</time></trkpt><trkpt lat="43.985439" lon="7.7842586"><ele>514.0</ele><time>2026-04-09T14:11:59.316Z</time></trkpt><trkpt lat="43.9854" lon="7.7840775"><ele>514.0</ele><time>2026-04-09T14:12:00.315Z</time></trkpt><trkpt lat="43.9853608" lon="7.7839081"><ele>517.2</ele><time>2026-04-09T14:12:01.315Z</time></trkpt><trkpt lat="43.9853251" lon="7.7837493"><ele>520.4</ele><time>2026-04-09T14:12:02.315Z</time></trkpt><trkpt lat="43.9853064" lon="7.7836055"><ele>523.6</ele><time>2026-04-09T14:12:03.316Z</time></trkpt><trkpt lat="43.9853104" lon="7.7834575"><ele>526.8</ele><time>2026-04-09T14:12:04.316Z</time></trkpt><trkpt lat="43.9853303" lon="7.7833078"><ele>530.0</ele><time>2026-04-09T14:12:05.316Z</time></trkpt><trkpt lat="43.9853673" lon="7.783133"><ele>531.25</ele><time>2026-04-09T14:12:06.315Z</time></trkpt><trkpt lat="43.9854169" lon="7.7829564"><ele>532.5</ele><time>2026-04-09T14:12:07.315Z</time></trkpt><trkpt lat="43.9854666" lon="7.782773"><ele>533.75</ele><time>2026-04-09T14:12:08.316Z</time></trkpt><trkpt lat="43.9855273" lon="7.7825964"><ele>535.0</ele><time>2026-04-09T14:12:09.315Z</time></trkpt><trkpt lat="43.9855929" lon="7.7824276"><ele>536.25</ele><time>2026-04-09T14:12:10.315Z</time></trkpt><trkpt lat="43.9856752" lon="7.7822654"><ele>537.5</ele><time>2026-04-09T14:12:11.315Z</time></trkpt><trkpt lat="43.9857642" lon="7.7821089"><ele>538.75</ele><time>2026-04-09T14:12:12.315Z</time></trkpt><trkpt lat="43.9858637" lon="7.7819411"><ele>540.0</ele><time>2026-04-09T14:12:13.315Z</time></trkpt><trkpt lat="43.9859439" lon="7.7817558"><ele>540.0</ele><time>2026-04-09T14:12:14.315Z</time></trkpt><trkpt lat="43.9860228" lon="7.7815498"><ele>540.0</ele><time>2026-04-09T14:12:15.315Z</time></trkpt><trkpt lat="43.986083" lon="7.7813605"><ele>540.0</ele><time>2026-04-09T14:12:16.316Z</time></trkpt><trkpt lat="43.9861133" lon="7.7812018"><ele>540.0</ele><time>2026-04-09T14:12:17.316Z</time></trkpt><trkpt lat="43.9861213" lon="7.7810143"><ele>534.75</ele><time>2026-04-09T14:12:18.316Z</time></trkpt><trkpt lat="43.9861012" lon="7.7808214"><ele>529.5</ele><time>2026-04-09T14:12:19.315Z</time></trkpt><trkpt lat="43.9860874" lon="7.780632"><ele>524.25</ele><time>2026-04-09T14:12:20.315Z</time></trkpt><trkpt lat="43.9861043" lon="7.7804385"><ele>519.0</ele><time>2026-04-09T14:12:21.316Z</time></trkpt><trkpt lat="43.9861309" lon="7.780262"><ele>516.75</ele><time>2026-04-09T14:12:22.316Z</time></trkpt><trkpt lat="43.986126" lon="7.7800713"><ele>514.5</ele><time>2026-04-09T14:12:23.316Z</time></trkpt><trkpt lat="43.9860972" lon="7.7798843"><ele>512.25</ele><time>2026-04-09T14:12:24.315Z</time></trkpt><trkpt lat="43.9860789" lon="7.7797051"><ele>510.0</ele><time>2026-04-09T14:12:25.315Z</time></trkpt><trkpt lat="43.9860844" lon="7.7795317"><ele>510.0</ele><time>2026-04-09T14:12:26.316Z</time></trkpt><trkpt lat="43.9861096" lon="7.7793607"><ele>510.0</ele><time>2026-04-09T14:12:27.315Z</time></trkpt><trkpt lat="43.9861519" lon="7.7791807"><ele>510.0</ele><time>2026-04-09T14:12:28.316Z</time></trkpt><trkpt lat="43.9862025" lon="7.7789967"><ele>510.0</ele><time>2026-04-09T14:12:29.316Z</time></trkpt><trkpt lat="43.9862477" lon="7.7788196"><ele>508.0</ele><time>2026-04-09T14:12:30.315Z</time></trkpt><trkpt lat="43.986297" lon="7.7786491"><ele>506.0</ele><time>2026-04-09T14:12:31.316Z</time></trkpt><trkpt lat="43.9863458" lon="7.7784993"><ele>504.0</ele><time>2026-04-09T14:12:32.315Z</time></trkpt><trkpt lat="43.9864096" lon="7.7783689"><ele>502.0</ele><time>2026-04-09T14:12:33.315Z</time></trkpt><trkpt lat="43.9864919" lon="7.7782538"><ele>506.75</ele><time>2026-04-09T14:12:34.315Z</time></trkpt><trkpt lat="43.9865996" lon="7.7781393"><ele>511.5</ele><time>2026-04-09T14:12:35.316Z</time></trkpt><trkpt lat="43.9867274" lon="7.7780169"><ele>516.25</ele><time>2026-04-09T14:12:36.315Z</time></trkpt><trkpt lat="43.9868576" lon="7.7779067"><ele>521.0</ele><time>2026-04-09T14:12:37.315Z</time></trkpt><trkpt lat="43.9869812" lon="7.7777964"><ele>509.5</ele><time>2026-04-09T14:12:38.316Z</time></trkpt><trkpt lat="43.9870913" lon="7.7776779"><ele>498.0</ele><time>2026-04-09T14:12:39.315Z</time></trkpt><trkpt lat="43.9871969" lon="7.7775626"><ele>486.5</ele><time>2026-04-09T14:12:40.315Z</time></trkpt><trkpt lat="43.9872901" lon="7.7774472"><ele>475.0</ele><time>2026-04-09T14:12:41.316Z</time></trkpt><trkpt lat="43.9873747" lon="7.7773384"><ele>475.0</ele><time>2026-04-09T14:12:42.316Z</time></trkpt><trkpt lat="43.9874443" lon="7.7772517"><ele>475.0</ele><time>2026-04-09T14:12:43.315Z</time></trkpt><trkpt lat="43.9875083" lon="7.7771785"><ele>475.0</ele><time>2026-04-09T14:12:44.315Z</time></trkpt><trkpt lat="43.9875829" lon="7.777118"><ele>475.0</ele><time>2026-04-09T14:12:46.316Z</time></trkpt><trkpt lat="43.9876309" lon="7.7770216"><ele>475.0</ele><time>2026-04-09T14:13:46.318Z</time></trkpt><trkpt lat="43.9877642" lon="7.7769128"><ele>472.8</ele><time>2026-04-09T14:13:48.319Z</time></trkpt><trkpt lat="43.9878557" lon="7.7768449"><ele>470.6</ele><time>2026-04-09T14:13:49.318Z</time></trkpt><trkpt lat="43.9879567" lon="7.7767876"><ele>468.4</ele><time>2026-04-09T14:13:50.319Z</time></trkpt><trkpt lat="43.988061" lon="7.7767372"><ele>466.2</ele><time>2026-04-09T14:13:51.318Z</time></trkpt><trkpt lat="43.9881742" lon="7.7767011"><ele>464.0</ele><time>2026-04-09T14:13:52.318Z</time></trkpt><trkpt lat="43.9882934" lon="7.7766652"><ele>473.25</ele><time>2026-04-09T14:13:53.319Z</time></trkpt><trkpt lat="43.9884151" lon="7.7766138"><ele>482.5</ele><time>2026-04-09T14:13:54.319Z</time></trkpt><trkpt lat="43.9885346" lon="7.7765436"><ele>491.75</ele><time>2026-04-09T14:13:55.318Z</time></trkpt><trkpt lat="43.9886521" lon="7.7764725"><ele>501.0</ele><time>2026-04-09T14:13:56.319Z</time></trkpt><trkpt lat="43.9887634" lon="7.7764033"><ele>501.0</ele><time>2026-04-09T14:13:57.319Z</time></trkpt><trkpt lat="43.9888619" lon="7.7763287"><ele>501.0</ele><time>2026-04-09T14:13:58.318Z</time></trkpt><trkpt lat="43.9889458" lon="7.776234"><ele>501.0</ele><time>2026-04-09T14:13:59.318Z</time></trkpt><trkpt lat="43.9890221" lon="7.7761236"><ele>501.0</ele><time>2026-04-09T14:14:00.319Z</time></trkpt><trkpt lat="43.9890935" lon="7.7760108"><ele>501.0</ele><time>2026-04-09T14:14:01.319Z</time></trkpt><trkpt lat="43.9891635" lon="7.7758941"><ele>500.8</ele><time>2026-04-09T14:14:02.318Z</time></trkpt><trkpt lat="43.9892346" lon="7.7757868"><ele>500.6</ele><time>2026-04-09T14:14:03.319Z</time></trkpt><trkpt lat="43.989297" lon="7.7756762"><ele>500.4</ele><time>2026-04-09T14:14:04.318Z</time></trkpt><trkpt lat="43.989346" lon="7.7755633"><ele>500.2</ele><time>2026-04-09T14:14:05.319Z</time></trkpt><trkpt lat="43.9894021" lon="7.7754426"><ele>500.0</ele><time>2026-04-09T14:14:06.318Z</time></trkpt><trkpt lat="43.9894581" lon="7.7753188"><ele>495.0</ele><time>2026-04-09T14:14:07.318Z</time></trkpt><trkpt lat="43.9894964" lon="7.7751805"><ele>490.0</ele><time>2026-04-09T14:14:08.319Z</time></trkpt><trkpt lat="43.9895058" lon="7.7750328"><ele>485.0</ele><time>2026-04-09T14:14:09.318Z</time></trkpt><trkpt lat="43.9895104" lon="7.7748942"><ele>480.0</ele><time>2026-04-09T14:14:10.318Z</time></trkpt><trkpt lat="43.9895284" lon="7.7747964"><ele>475.0</ele><time>2026-04-09T14:14:11.318Z</time></trkpt><trkpt lat="43.9895641" lon="7.7747194"><ele>475.0</ele><time>2026-04-09T14:14:12.319Z</time></trkpt><trkpt lat="43.9896522" lon="7.7746505"><ele>475.0</ele><time>2026-04-09T14:14:14.319Z</time></trkpt><trkpt lat="43.9897199" lon="7.7746727"><ele>475.0</ele><time>2026-04-09T14:14:15.319Z</time></trkpt><trkpt lat="43.9897912" lon="7.7747693"><ele>475.0</ele><time>2026-04-09T14:14:16.318Z</time></trkpt><trkpt lat="43.989871" lon="7.774803"><ele>475.0</ele><time>2026-04-09T14:14:17.319Z</time></trkpt><trkpt lat="43.9899698" lon="7.7747018"><ele>476.6</ele><time>2026-04-09T14:14:18.318Z</time></trkpt><trkpt lat="43.9900473" lon="7.7745937"><ele>478.2</ele><time>2026-04-09T14:14:19.319Z</time></trkpt><trkpt lat="43.9901059" lon="7.7745422"><ele>479.79999999999995</ele><time>2026-04-09T14:14:20.319Z</time></trkpt><trkpt lat="43.9901739" lon="7.7745155"><ele>481.4</ele><time>2026-04-09T14:14:21.318Z</time></trkpt><trkpt lat="43.9902676" lon="7.7745936"><ele>483.0</ele><time>2026-04-09T14:14:23.318Z</time></trkpt><trkpt lat="43.990341" lon="7.7747334"><ele>483.0</ele><time>2026-04-09T14:14:25.319Z</time></trkpt><trkpt lat="43.9903822" lon="7.7748174"><ele>482.99999999999994</ele><time>2026-04-09T14:14:26.318Z</time></trkpt><trkpt lat="43.990419" lon="7.7749185"><ele>482.99999999999994</ele><time>2026-04-09T14:14:27.318Z</time></trkpt><trkpt lat="43.9904559" lon="7.7750407"><ele>483.0</ele><time>2026-04-09T14:14:28.318Z</time></trkpt><trkpt lat="43.9904932" lon="7.7751847"><ele>483.0</ele><time>2026-04-09T14:14:29.319Z</time></trkpt><trkpt lat="43.9905449" lon="7.7753152"><ele>483.4</ele><time>2026-04-09T14:14:30.319Z</time></trkpt><trkpt lat="43.9906076" lon="7.7754466"><ele>483.79999999999995</ele><time>2026-04-09T14:14:31.318Z</time></trkpt><trkpt lat="43.9906743" lon="7.7755823"><ele>484.2</ele><time>2026-04-09T14:14:32.318Z</time></trkpt><trkpt lat="43.9907317" lon="7.7757104"><ele>484.6</ele><time>2026-04-09T14:14:33.318Z</time></trkpt><trkpt lat="43.9907982" lon="7.7757922"><ele>485.0</ele><time>2026-04-09T14:14:34.318Z</time></trkpt><trkpt lat="43.9908803" lon="7.7758512"><ele>483.5</ele><time>2026-04-09T14:14:35.319Z</time></trkpt><trkpt lat="43.990994" lon="7.775869"><ele>482.0</ele><time>2026-04-09T14:14:36.319Z</time></trkpt><trkpt lat="43.991124" lon="7.7758734"><ele>480.5</ele><time>2026-04-09T14:14:37.318Z</time></trkpt><trkpt lat="43.9912476" lon="7.7758787"><ele>479.0</ele><time>2026-04-09T14:14:38.318Z</time></trkpt><trkpt lat="43.9913697" lon="7.7758886"><ele>479.0</ele><time>2026-04-09T14:14:39.318Z</time></trkpt><trkpt lat="43.9914889" lon="7.77589"><ele>479.0</ele><time>2026-04-09T14:14:40.318Z</time></trkpt><trkpt lat="43.9916058" lon="7.7758515"><ele>479.0</ele><time>2026-04-09T14:14:41.318Z</time></trkpt><trkpt lat="43.9917315" lon="7.7758002"><ele>479.0</ele><time>2026-04-09T14:14:42.318Z</time></trkpt><trkpt lat="43.9918437" lon="7.7757336"><ele>478.5</ele><time>2026-04-09T14:14:43.319Z</time></trkpt><trkpt lat="43.9919282" lon="7.7756353"><ele>478.0</ele><time>2026-04-09T14:14:44.319Z</time></trkpt><trkpt lat="43.9920098" lon="7.7754804"><ele>477.5</ele><time>2026-04-09T14:14:45.318Z</time></trkpt><trkpt lat="43.9921017" lon="7.7753093"><ele>477.0</ele><time>2026-04-09T14:14:46.319Z</time></trkpt><trkpt lat="43.9922004" lon="7.7751352"><ele>480.75</ele><time>2026-04-09T14:14:47.319Z</time></trkpt><trkpt lat="43.9922875" lon="7.7749714"><ele>484.5</ele><time>2026-04-09T14:14:48.318Z</time></trkpt><trkpt lat="43.9923501" lon="7.7748182"><ele>488.25</ele><time>2026-04-09T14:14:49.318Z</time></trkpt><trkpt lat="43.9923883" lon="7.774678"><ele>492.0</ele><time>2026-04-09T14:14:50.318Z</time></trkpt><trkpt lat="43.9924363" lon="7.7745719"><ele>492.0</ele><time>2026-04-09T14:14:51.318Z</time></trkpt><trkpt lat="43.9925051" lon="7.7745126"><ele>492.00000000000006</ele><time>2026-04-09T14:14:52.318Z</time></trkpt><trkpt lat="43.9925864" lon="7.7745198"><ele>492.00000000000006</ele><time>2026-04-09T14:14:53.318Z</time></trkpt><trkpt lat="43.9926695" lon="7.7745543"><ele>492.0</ele><time>2026-04-09T14:14:54.319Z</time></trkpt><trkpt lat="43.992748" lon="7.7746244"><ele>492.0</ele><time>2026-04-09T14:14:55.318Z</time></trkpt><trkpt lat="43.9928719" lon="7.7746309"><ele>497.0</ele><time>2026-04-09T14:14:56.318Z</time></trkpt><trkpt lat="43.993006" lon="7.7745925"><ele>502.0</ele><time>2026-04-09T14:14:57.318Z</time></trkpt><trkpt lat="43.9931409" lon="7.7745032"><ele>507.0</ele><time>2026-04-09T14:14:58.319Z</time></trkpt><trkpt lat="43.9932919" lon="7.7743983"><ele>515.6666666666666</ele><time>2026-04-09T14:14:59.319Z</time></trkpt><trkpt lat="43.9934494" lon="7.7742922"><ele>524.3333333333333</ele><time>2026-04-09T14:15:00.319Z</time></trkpt><trkpt lat="43.9936029" lon="7.7741727"><ele>533.0</ele><time>2026-04-09T14:15:01.319Z</time></trkpt><trkpt lat="43.9937483" lon="7.7740305"><ele>533.0</ele><time>2026-04-09T14:15:02.319Z</time></trkpt><trkpt lat="43.9938706" lon="7.7738442"><ele>533.0</ele><time>2026-04-09T14:15:03.319Z</time></trkpt><trkpt lat="43.9939691" lon="7.7736353"><ele>533.0</ele><time>2026-04-09T14:15:04.318Z</time></trkpt><trkpt lat="43.9940675" lon="7.7734115"><ele>539.3333333333333</ele><time>2026-04-09T14:15:05.318Z</time></trkpt><trkpt lat="43.9941708" lon="7.7732101"><ele>545.6666666666666</ele><time>2026-04-09T14:15:06.318Z</time></trkpt><trkpt lat="43.99428" lon="7.773024"><ele>552.0</ele><time>2026-04-09T14:15:07.319Z</time></trkpt><trkpt lat="43.9943781" lon="7.7728636"><ele>552.0</ele><time>2026-04-09T14:15:08.318Z</time></trkpt><trkpt lat="43.9945011" lon="7.7727686"><ele>552.0</ele><time>2026-04-09T14:15:09.319Z</time></trkpt><trkpt lat="43.9946474" lon="7.7727172"><ele>552.0</ele><time>2026-04-09T14:15:10.318Z</time></trkpt><trkpt lat="43.9948196" lon="7.7726814"><ele>545.6666666666666</ele><time>2026-04-09T14:15:11.318Z</time></trkpt><trkpt lat="43.9949919" lon="7.7726336"><ele>539.3333333333333</ele><time>2026-04-09T14:15:12.318Z</time></trkpt><trkpt lat="43.9951662" lon="7.7725719"><ele>533.0</ele><time>2026-04-09T14:15:13.318Z</time></trkpt><trkpt lat="43.9953313" lon="7.7725105"><ele>533.0</ele><time>2026-04-09T14:15:14.318Z</time></trkpt><trkpt lat="43.9954793" lon="7.7724681"><ele>533.0</ele><time>2026-04-09T14:15:15.318Z</time></trkpt><trkpt lat="43.9956151" lon="7.7724173"><ele>533.0</ele><time>2026-04-09T14:15:16.319Z</time></trkpt><trkpt lat="43.9957381" lon="7.7723432"><ele>533.0</ele><time>2026-04-09T14:15:17.318Z</time></trkpt><trkpt lat="43.9958318" lon="7.7721897"><ele>536.3333333333333</ele><time>2026-04-09T14:15:18.318Z</time></trkpt><trkpt lat="43.9959354" lon="7.772021"><ele>539.6666666666666</ele><time>2026-04-09T14:15:19.319Z</time></trkpt><trkpt lat="43.9960564" lon="7.7718813"><ele>543.0</ele><time>2026-04-09T14:15:20.319Z</time></trkpt><trkpt lat="43.996194" lon="7.7717632"><ele>543.0</ele><time>2026-04-09T14:15:21.318Z</time></trkpt><trkpt lat="43.9963235" lon="7.7716465"><ele>543.0</ele><time>2026-04-09T14:15:22.318Z</time></trkpt><trkpt lat="43.996441" lon="7.7715148"><ele>543.0</ele><time>2026-04-09T14:15:23.319Z</time></trkpt><trkpt lat="43.9965392" lon="7.7713644"><ele>543.0</ele><time>2026-04-09T14:15:24.318Z</time></trkpt><trkpt lat="43.9966139" lon="7.7712213"><ele>543.0</ele><time>2026-04-09T14:15:25.318Z</time></trkpt><trkpt lat="43.9966891" lon="7.771121"><ele>543.0</ele><time>2026-04-09T14:15:26.319Z</time></trkpt><trkpt lat="43.9967926" lon="7.7710357"><ele>543.0</ele><time>2026-04-09T14:15:27.318Z</time></trkpt><trkpt lat="43.9969008" lon="7.7709302"><ele>544.75</ele><time>2026-04-09T14:15:28.319Z</time></trkpt><trkpt lat="43.9970124" lon="7.770814"><ele>546.5</ele><time>2026-04-09T14:15:29.318Z</time></trkpt><trkpt lat="43.997135" lon="7.7707033"><ele>548.25</ele><time>2026-04-09T14:15:30.318Z</time></trkpt><trkpt lat="43.9972646" lon="7.7706401"><ele>550.0</ele><time>2026-04-09T14:15:31.319Z</time></trkpt><trkpt lat="43.9974179" lon="7.7706037"><ele>554.6666666666667</ele><time>2026-04-09T14:15:32.318Z</time></trkpt><trkpt lat="43.9975766" lon="7.7705687"><ele>559.3333333333334</ele><time>2026-04-09T14:15:33.319Z</time></trkpt><trkpt lat="43.9977244" lon="7.7704907"><ele>564.0</ele><time>2026-04-09T14:15:34.319Z</time></trkpt><trkpt lat="43.9978492" lon="7.770377"><ele>564.0</ele><time>2026-04-09T14:15:35.318Z</time></trkpt><trkpt lat="43.9979681" lon="7.77028"><ele>564.0</ele><time>2026-04-09T14:15:36.318Z</time></trkpt><trkpt lat="43.9980933" lon="7.7702165"><ele>564.0</ele><time>2026-04-09T14:15:37.318Z</time></trkpt><trkpt lat="43.9982464" lon="7.7701813"><ele>564.0</ele><time>2026-04-09T14:15:38.319Z</time></trkpt><trkpt lat="43.9984103" lon="7.770159"><ele>558.3333333333334</ele><time>2026-04-09T14:15:39.318Z</time></trkpt><trkpt lat="43.9985914" lon="7.7701484"><ele>552.6666666666667</ele><time>2026-04-09T14:15:40.319Z</time></trkpt><trkpt lat="43.9987792" lon="7.7701497"><ele>547.0</ele><time>2026-04-09T14:15:41.318Z</time></trkpt><trkpt lat="43.998972" lon="7.7701468"><ele>547.0</ele><time>2026-04-09T14:15:42.319Z</time></trkpt><trkpt lat="43.9991661" lon="7.7701433"><ele>547.0</ele><time>2026-04-09T14:15:43.318Z</time></trkpt><trkpt lat="43.9993404" lon="7.7701429"><ele>547.0</ele><time>2026-04-09T14:15:44.318Z</time></trkpt><trkpt lat="43.999509" lon="7.7701511"><ele>547.3333333333334</ele><time>2026-04-09T14:15:45.319Z</time></trkpt><trkpt lat="43.9996729" lon="7.7701656"><ele>547.6666666666666</ele><time>2026-04-09T14:15:46.318Z</time></trkpt><trkpt lat="43.9998381" lon="7.7701925"><ele>548.0</ele><time>2026-04-09T14:15:47.318Z</time></trkpt><trkpt lat="43.9999947" lon="7.7702169"><ele>548.0</ele><time>2026-04-09T14:15:48.319Z</time></trkpt><trkpt lat="44.0001338" lon="7.7702033"><ele>548.0</ele><time>2026-04-09T14:15:49.319Z</time></trkpt><trkpt lat="44.0002674" lon="7.7701369"><ele>548.0</ele><time>2026-04-09T14:15:50.319Z</time></trkpt><trkpt lat="44.0004042" lon="7.7700306"><ele>548.0</ele><time>2026-04-09T14:15:51.318Z</time></trkpt><trkpt lat="44.0005417" lon="7.7699197"><ele>548.0</ele><time>2026-04-09T14:15:52.318Z</time></trkpt><trkpt lat="44.0006663" lon="7.7698289"><ele>548.0</ele><time>2026-04-09T14:15:53.319Z</time></trkpt><trkpt lat="44.0007872" lon="7.7697641"><ele>548.0</ele><time>2026-04-09T14:15:54.319Z</time></trkpt><trkpt lat="44.0009004" lon="7.7697589"><ele>548.0</ele><time>2026-04-09T14:15:55.319Z</time></trkpt><trkpt lat="44.0010144" lon="7.7697669"><ele>546.5</ele><time>2026-04-09T14:15:56.318Z</time></trkpt><trkpt lat="44.0011335" lon="7.7697092"><ele>545.0</ele><time>2026-04-09T14:15:57.318Z</time></trkpt><trkpt lat="44.0012324" lon="7.7695729"><ele>543.5</ele><time>2026-04-09T14:15:58.319Z</time></trkpt><trkpt lat="44.0013296" lon="7.7693883"><ele>542.0</ele><time>2026-04-09T14:15:59.318Z</time></trkpt><trkpt lat="44.0014145" lon="7.7691982"><ele>542.0</ele><time>2026-04-09T14:16:00.318Z</time></trkpt><trkpt lat="44.0014803" lon="7.7690249"><ele>542.0</ele><time>2026-04-09T14:16:01.318Z</time></trkpt><trkpt lat="44.0015388" lon="7.7688771"><ele>542.0</ele><time>2026-04-09T14:16:02.319Z</time></trkpt><trkpt lat="44.0016021" lon="7.7687634"><ele>542.0</ele><time>2026-04-09T14:16:03.318Z</time></trkpt><trkpt lat="44.0017031" lon="7.7686914"><ele>549.0</ele><time>2026-04-09T14:16:04.319Z</time></trkpt><trkpt lat="44.0018321" lon="7.768639"><ele>556.0</ele><time>2026-04-09T14:16:05.319Z</time></trkpt><trkpt lat="44.0019882" lon="7.7685902"><ele>563.0</ele><time>2026-04-09T14:16:06.318Z</time></trkpt><trkpt lat="44.0021635" lon="7.7685283"><ele>563.0</ele><time>2026-04-09T14:16:07.318Z</time></trkpt><trkpt lat="44.0023474" lon="7.7684604"><ele>563.0</ele><time>2026-04-09T14:16:08.318Z</time></trkpt><trkpt lat="44.0025424" lon="7.7683888"><ele>563.0</ele><time>2026-04-09T14:16:09.318Z</time></trkpt><trkpt lat="44.0027372" lon="7.7683118"><ele>563.0</ele><time>2026-04-09T14:16:10.318Z</time></trkpt><trkpt lat="44.0029345" lon="7.7682396"><ele>563.0</ele><time>2026-04-09T14:16:11.319Z</time></trkpt><trkpt lat="44.0031231" lon="7.7681725"><ele>563.0</ele><time>2026-04-09T14:16:12.319Z</time></trkpt><trkpt lat="44.0033022" lon="7.7680864"><ele>569.6666666666666</ele><time>2026-04-09T14:16:13.318Z</time></trkpt><trkpt lat="44.0034743" lon="7.7679698"><ele>576.3333333333334</ele><time>2026-04-09T14:16:14.318Z</time></trkpt><trkpt lat="44.0036391" lon="7.7678471"><ele>583.0</ele><time>2026-04-09T14:16:15.319Z</time></trkpt><trkpt lat="44.0038112" lon="7.7677388"><ele>581.3333333333334</ele><time>2026-04-09T14:16:16.319Z</time></trkpt><trkpt lat="44.0040067" lon="7.7676487"><ele>579.6666666666666</ele><time>2026-04-09T14:16:17.318Z</time></trkpt><trkpt lat="44.0041918" lon="7.7675637"><ele>578.0</ele><time>2026-04-09T14:16:18.318Z</time></trkpt><trkpt lat="44.0043585" lon="7.7674759"><ele>578.0</ele><time>2026-04-09T14:16:19.318Z</time></trkpt><trkpt lat="44.0044997" lon="7.7673892"><ele>578.0</ele><time>2026-04-09T14:16:20.319Z</time></trkpt><trkpt lat="44.0046216" lon="7.767313"><ele>578.0</ele><time>2026-04-09T14:16:21.318Z</time></trkpt><trkpt lat="44.0047111" lon="7.7672499"><ele>578.0</ele><time>2026-04-09T14:16:22.319Z</time></trkpt><trkpt lat="44.0047753" lon="7.767163"><ele>578.0</ele><time>2026-04-09T14:16:23.318Z</time></trkpt><trkpt lat="44.0047963" lon="7.7670309"><ele>578.0</ele><time>2026-04-09T14:16:24.319Z</time></trkpt><trkpt lat="44.0047816" lon="7.7668575"><ele>578.0</ele><time>2026-04-09T14:16:25.319Z</time></trkpt><trkpt lat="44.0047446" lon="7.7666915"><ele>578.0</ele><time>2026-04-09T14:16:26.319Z</time></trkpt><trkpt lat="44.0046854" lon="7.7665533"><ele>578.25</ele><time>2026-04-09T14:16:27.319Z</time></trkpt><trkpt lat="44.0045983" lon="7.7664541"><ele>578.5</ele><time>2026-04-09T14:16:28.318Z</time></trkpt><trkpt lat="44.0045032" lon="7.7664071"><ele>578.75</ele><time>2026-04-09T14:16:29.319Z</time></trkpt><trkpt lat="44.0043979" lon="7.7664335"><ele>579.0</ele><time>2026-04-09T14:16:30.319Z</time></trkpt><trkpt lat="44.0042793" lon="7.7665204"><ele>579.25</ele><time>2026-04-09T14:16:31.318Z</time></trkpt><trkpt lat="44.0041597" lon="7.7666279"><ele>579.5</ele><time>2026-04-09T14:16:32.318Z</time></trkpt><trkpt lat="44.0040362" lon="7.7666993"><ele>579.75</ele><time>2026-04-09T14:16:33.319Z</time></trkpt><trkpt lat="44.0039063" lon="7.7667131"><ele>580.0</ele><time>2026-04-09T14:16:34.319Z</time></trkpt><trkpt lat="44.0037488" lon="7.7666753"><ele>580.0</ele><time>2026-04-09T14:16:35.318Z</time></trkpt><trkpt lat="44.0035899" lon="7.7665745"><ele>580.0</ele><time>2026-04-09T14:16:36.318Z</time></trkpt><trkpt lat="44.0034329" lon="7.766464"><ele>580.0</ele><time>2026-04-09T14:16:37.319Z</time></trkpt><trkpt lat="44.0032606" lon="7.7663987"><ele>584.0</ele><time>2026-04-09T14:16:38.319Z</time></trkpt><trkpt lat="44.0030801" lon="7.7663795"><ele>588.0</ele><time>2026-04-09T14:16:39.319Z</time></trkpt><trkpt lat="44.0029066" lon="7.7663795"><ele>592.0</ele><time>2026-04-09T14:16:40.319Z</time></trkpt><trkpt lat="44.0027517" lon="7.7664012"><ele>592.0</ele><time>2026-04-09T14:16:41.318Z</time></trkpt><trkpt lat="44.0025992" lon="7.7664867"><ele>592.0</ele><time>2026-04-09T14:16:42.318Z</time></trkpt><trkpt lat="44.0024345" lon="7.7665868"><ele>592.0</ele><time>2026-04-09T14:16:43.318Z</time></trkpt><trkpt lat="44.0022718" lon="7.7666435"><ele>587.0</ele><time>2026-04-09T14:16:44.318Z</time></trkpt><trkpt lat="44.0021123" lon="7.7666919"><ele>582.0</ele><time>2026-04-09T14:16:45.318Z</time></trkpt><trkpt lat="44.0019601" lon="7.7667851"><ele>577.0</ele><time>2026-04-09T14:16:46.318Z</time></trkpt><trkpt lat="44.0018082" lon="7.7668926"><ele>582.6666666666667</ele><time>2026-04-09T14:16:47.319Z</time></trkpt><trkpt lat="44.0016448" lon="7.7669894"><ele>588.3333333333334</ele><time>2026-04-09T14:16:48.319Z</time></trkpt><trkpt lat="44.0014743" lon="7.7670663"><ele>594.0</ele><time>2026-04-09T14:16:49.318Z</time></trkpt><trkpt lat="44.0012921" lon="7.7671269"><ele>594.0</ele><time>2026-04-09T14:16:50.319Z</time></trkpt><trkpt lat="44.0010973" lon="7.7671763"><ele>594.0</ele><time>2026-04-09T14:16:51.318Z</time></trkpt><trkpt lat="44.0009091" lon="7.7672122"><ele>594.0</ele><time>2026-04-09T14:16:52.319Z</time></trkpt><trkpt lat="44.000717" lon="7.7672536"><ele>599.6666666666666</ele><time>2026-04-09T14:16:53.318Z</time></trkpt><trkpt lat="44.0005307" lon="7.7673112"><ele>605.3333333333333</ele><time>2026-04-09T14:16:54.318Z</time></trkpt><trkpt lat="44.0003475" lon="7.7673797"><ele>611.0</ele><time>2026-04-09T14:16:55.318Z</time></trkpt><trkpt lat="44.0001712" lon="7.7674655"><ele>611.0</ele><time>2026-04-09T14:16:56.319Z</time></trkpt><trkpt lat="43.9999972" lon="7.7675342"><ele>611.0</ele><time>2026-04-09T14:16:57.319Z</time></trkpt><trkpt lat="43.9998353" lon="7.7675864"><ele>611.0</ele><time>2026-04-09T14:16:58.319Z</time></trkpt><trkpt lat="43.9996925" lon="7.7676222"><ele>611.0</ele><time>2026-04-09T14:16:59.318Z</time></trkpt><trkpt lat="43.9995696" lon="7.7676344"><ele>611.0</ele><time>2026-04-09T14:17:00.318Z</time></trkpt><trkpt lat="43.9994591" lon="7.7676196"><ele>611.0</ele><time>2026-04-09T14:17:01.318Z</time></trkpt><trkpt lat="43.9993819" lon="7.7675729"><ele>611.0</ele><time>2026-04-09T14:17:02.318Z</time></trkpt><trkpt lat="43.9993595" lon="7.7674516"><ele>611.0</ele><time>2026-04-09T14:17:04.319Z</time></trkpt><trkpt lat="43.9994774" lon="7.7674298"><ele>611.0</ele><time>2026-04-09T14:17:06.318Z</time></trkpt><trkpt lat="43.9995436" lon="7.7674968"><ele>611.0</ele><time>2026-04-09T14:17:07.318Z</time></trkpt><trkpt lat="43.9996311" lon="7.7675563"><ele>611.0</ele><time>2026-04-09T14:17:08.318Z</time></trkpt><trkpt lat="43.9997309" lon="7.7675736"><ele>611.0</ele><time>2026-04-09T14:17:09.318Z</time></trkpt><trkpt lat="43.9998391" lon="7.7675248"><ele>611.0</ele><time>2026-04-09T14:17:10.318Z</time></trkpt><trkpt lat="43.99996" lon="7.7674157"><ele>611.0</ele><time>2026-04-09T14:17:11.318Z</time></trkpt><trkpt lat="44.0000965" lon="7.7672931"><ele>611.0</ele><time>2026-04-09T14:17:12.319Z</time></trkpt><trkpt lat="44.0002472" lon="7.7671743"><ele>611.0</ele><time>2026-04-09T14:17:13.318Z</time></trkpt><trkpt lat="44.0003884" lon="7.767064"><ele>611.0</ele><time>2026-04-09T14:17:14.319Z</time></trkpt><trkpt lat="44.00054" lon="7.7669876"><ele>611.0</ele><time>2026-04-09T14:17:15.318Z</time></trkpt><trkpt lat="44.0006923" lon="7.7669413"><ele>611.0</ele><time>2026-04-09T14:17:16.318Z</time></trkpt><trkpt lat="44.0008553" lon="7.7669217"><ele>607.6</ele><time>2026-04-09T14:17:17.318Z</time></trkpt><trkpt lat="44.0010069" lon="7.7668966"><ele>604.2</ele><time>2026-04-09T14:17:18.318Z</time></trkpt><trkpt lat="44.0011276" lon="7.7668481"><ele>600.8</ele><time>2026-04-09T14:17:19.318Z</time></trkpt><trkpt lat="44.001221" lon="7.7668011"><ele>597.4</ele><time>2026-04-09T14:17:20.319Z</time></trkpt><trkpt lat="44.0012712" lon="7.7667297"><ele>594.0</ele><time>2026-04-09T14:17:21.319Z</time></trkpt><trkpt lat="44.0012611" lon="7.7665915"><ele>601.3333333333334</ele><time>2026-04-09T14:17:23.318Z</time></trkpt><trkpt lat="44.0011983" lon="7.766573"><ele>608.6666666666666</ele><time>2026-04-09T14:17:24.318Z</time></trkpt><trkpt lat="44.001123" lon="7.7666205"><ele>616.0</ele><time>2026-04-09T14:17:25.318Z</time></trkpt><trkpt lat="44.0010509" lon="7.7667151"><ele>623.3333333333333</ele><time>2026-04-09T14:17:26.318Z</time></trkpt><trkpt lat="44.0009737" lon="7.7667753"><ele>630.6666666666666</ele><time>2026-04-09T14:17:27.319Z</time></trkpt><trkpt lat="44.0008704" lon="7.7667941"><ele>638.0</ele><time>2026-04-09T14:17:28.319Z</time></trkpt><trkpt lat="44.0007501" lon="7.7668015"><ele>641.3333333333333</ele><time>2026-04-09T14:17:29.319Z</time></trkpt><trkpt lat="44.0006106" lon="7.766812"><ele>644.6666666666666</ele><time>2026-04-09T14:17:30.319Z</time></trkpt><trkpt lat="44.0004552" lon="7.766818"><ele>648.0</ele><time>2026-04-09T14:17:31.319Z</time></trkpt><trkpt lat="44.0003011" lon="7.7668347"><ele>638.75</ele><time>2026-04-09T14:17:32.318Z</time></trkpt><trkpt lat="44.0001645" lon="7.7668879"><ele>629.5</ele><time>2026-04-09T14:17:33.319Z</time></trkpt><trkpt lat="44.0000479" lon="7.7669604"><ele>620.25</ele><time>2026-04-09T14:17:34.319Z</time></trkpt><trkpt lat="43.999936" lon="7.7670005"><ele>611.0</ele><time>2026-04-09T14:17:35.318Z</time></trkpt><trkpt lat="43.9998121" lon="7.766998"><ele>611.0</ele><time>2026-04-09T14:17:36.318Z</time></trkpt><trkpt lat="43.9996761" lon="7.7669421"><ele>611.0</ele><time>2026-04-09T14:17:37.319Z</time></trkpt><trkpt lat="43.9995331" lon="7.7668876"><ele>611.0</ele><time>2026-04-09T14:17:38.318Z</time></trkpt><trkpt lat="43.9993849" lon="7.7668603"><ele>611.0</ele><time>2026-04-09T14:17:39.319Z</time></trkpt><trkpt lat="43.9992392" lon="7.7668275"><ele>622.0</ele><time>2026-04-09T14:17:40.319Z</time></trkpt><trkpt lat="43.9990928" lon="7.7667643"><ele>633.0</ele><time>2026-04-09T14:17:41.319Z</time></trkpt><trkpt lat="43.9989523" lon="7.7666457"><ele>644.0</ele><time>2026-04-09T14:17:42.318Z</time></trkpt><trkpt lat="43.9988222" lon="7.7665163"><ele>644.0</ele><time>2026-04-09T14:17:43.319Z</time></trkpt><trkpt lat="43.9987041" lon="7.7664001"><ele>644.0</ele><time>2026-04-09T14:17:44.319Z</time></trkpt><trkpt lat="43.9985996" lon="7.7663008"><ele>644.0</ele><time>2026-04-09T14:17:45.319Z</time></trkpt><trkpt lat="43.9985196" lon="7.7662339"><ele>644.0</ele><time>2026-04-09T14:17:46.318Z</time></trkpt><trkpt lat="43.9984382" lon="7.7662339"><ele>644.0</ele><time>2026-04-09T14:17:47.319Z</time></trkpt><trkpt lat="43.998377" lon="7.7662995"><ele>645.5</ele><time>2026-04-09T14:17:48.318Z</time></trkpt><trkpt lat="43.9983139" lon="7.7664095"><ele>647.0</ele><time>2026-04-09T14:17:49.318Z</time></trkpt><trkpt lat="43.9982508" lon="7.7665539"><ele>648.5</ele><time>2026-04-09T14:17:50.318Z</time></trkpt><trkpt lat="43.9981635" lon="7.766699"><ele>650.0</ele><time>2026-04-09T14:17:51.319Z</time></trkpt><trkpt lat="43.9980523" lon="7.7668426"><ele>643.5</ele><time>2026-04-09T14:17:52.319Z</time></trkpt><trkpt lat="43.9979312" lon="7.7669678"><ele>637.0</ele><time>2026-04-09T14:17:53.319Z</time></trkpt><trkpt lat="43.9977982" lon="7.7670766"><ele>630.5</ele><time>2026-04-09T14:17:54.318Z</time></trkpt><trkpt lat="43.9976798" lon="7.767171"><ele>624.0</ele><time>2026-04-09T14:17:55.319Z</time></trkpt><trkpt lat="43.9975823" lon="7.76726"><ele>629.75</ele><time>2026-04-09T14:17:56.318Z</time></trkpt><trkpt lat="43.997488" lon="7.7673293"><ele>635.5</ele><time>2026-04-09T14:17:57.319Z</time></trkpt><trkpt lat="43.9973728" lon="7.7673425"><ele>641.25</ele><time>2026-04-09T14:17:58.319Z</time></trkpt><trkpt lat="43.9972339" lon="7.7673276"><ele>647.0</ele><time>2026-04-09T14:17:59.318Z</time></trkpt><trkpt lat="43.9970926" lon="7.7673173"><ele>647.0</ele><time>2026-04-09T14:18:00.318Z</time></trkpt><trkpt lat="43.996946" lon="7.7673484"><ele>647.0</ele><time>2026-04-09T14:18:01.318Z</time></trkpt><trkpt lat="43.9968058" lon="7.7674371"><ele>647.0</ele><time>2026-04-09T14:18:02.319Z</time></trkpt><trkpt lat="43.9966611" lon="7.7675433"><ele>645.3333333333333</ele><time>2026-04-09T14:18:03.319Z</time></trkpt><trkpt lat="43.9965075" lon="7.7676258"><ele>643.6666666666666</ele><time>2026-04-09T14:18:04.319Z</time></trkpt><trkpt lat="43.9963524" lon="7.7676978"><ele>642.0</ele><time>2026-04-09T14:18:05.318Z</time></trkpt><trkpt lat="43.9962173" lon="7.7677857"><ele>642.0</ele><time>2026-04-09T14:18:06.319Z</time></trkpt><trkpt lat="43.996097" lon="7.7679051"><ele>642.0</ele><time>2026-04-09T14:18:07.318Z</time></trkpt><trkpt lat="43.9959871" lon="7.7680238"><ele>642.0</ele><time>2026-04-09T14:18:08.319Z</time></trkpt><trkpt lat="43.9958815" lon="7.7681259"><ele>642.0</ele><time>2026-04-09T14:18:09.318Z</time></trkpt><trkpt lat="43.995764" lon="7.7682021"><ele>648.75</ele><time>2026-04-09T14:18:10.318Z</time></trkpt><trkpt lat="43.9956276" lon="7.7682553"><ele>655.5</ele><time>2026-04-09T14:18:11.318Z</time></trkpt><trkpt lat="43.9954899" lon="7.7682933"><ele>662.25</ele><time>2026-04-09T14:18:12.318Z</time></trkpt><trkpt lat="43.995361" lon="7.7683211"><ele>669.0</ele><time>2026-04-09T14:18:13.319Z</time></trkpt><trkpt lat="43.9952402" lon="7.7683187"><ele>669.0</ele><time>2026-04-09T14:18:14.319Z</time></trkpt><trkpt lat="43.9951103" lon="7.7682806"><ele>669.0</ele><time>2026-04-09T14:18:15.318Z</time></trkpt><trkpt lat="43.9949756" lon="7.7682022"><ele>669.0</ele><time>2026-04-09T14:18:16.318Z</time></trkpt><trkpt lat="43.9948457" lon="7.7680981"><ele>669.0</ele><time>2026-04-09T14:18:17.319Z</time></trkpt><trkpt lat="43.9947086" lon="7.7680303"><ele>669.75</ele><time>2026-04-09T14:18:18.319Z</time></trkpt><trkpt lat="43.994567" lon="7.7679932"><ele>670.5</ele><time>2026-04-09T14:18:19.318Z</time></trkpt><trkpt lat="43.9944266" lon="7.7679535"><ele>671.25</ele><time>2026-04-09T14:18:20.318Z</time></trkpt><trkpt lat="43.9942979" lon="7.7678854"><ele>672.0</ele><time>2026-04-09T14:18:21.318Z</time></trkpt><trkpt lat="43.9941924" lon="7.7677812"><ele>670.4000000000001</ele><time>2026-04-09T14:18:22.318Z</time></trkpt><trkpt lat="43.994105" lon="7.7676834"><ele>668.8000000000001</ele><time>2026-04-09T14:18:23.318Z</time></trkpt><trkpt lat="43.9940079" lon="7.7676388"><ele>667.2</ele><time>2026-04-09T14:18:24.318Z</time></trkpt><trkpt lat="43.9939073" lon="7.767656"><ele>665.6</ele><time>2026-04-09T14:18:25.319Z</time></trkpt><trkpt lat="43.9937919" lon="7.7676964"><ele>664.0</ele><time>2026-04-09T14:18:26.319Z</time></trkpt><trkpt lat="43.9936734" lon="7.7677211"><ele>664.0</ele><time>2026-04-09T14:18:27.319Z</time></trkpt><trkpt lat="43.9935537" lon="7.7677493"><ele>664.0</ele><time>2026-04-09T14:18:28.319Z</time></trkpt><trkpt lat="43.9934229" lon="7.7677915"><ele>664.0</ele><time>2026-04-09T14:18:29.319Z</time></trkpt><trkpt lat="43.9933156" lon="7.7678844"><ele>664.0</ele><time>2026-04-09T14:18:30.319Z</time></trkpt><trkpt lat="43.9932355" lon="7.7680212"><ele>665.0</ele><time>2026-04-09T14:18:31.319Z</time></trkpt><trkpt lat="43.993157" lon="7.7681908"><ele>666.0</ele><time>2026-04-09T14:18:32.318Z</time></trkpt><trkpt lat="43.9930661" lon="7.7683882"><ele>667.0</ele><time>2026-04-09T14:18:33.318Z</time></trkpt><trkpt lat="43.9929748" lon="7.7685986"><ele>667.0</ele><time>2026-04-09T14:18:34.318Z</time></trkpt><trkpt lat="43.9928842" lon="7.7687934"><ele>667.0</ele><time>2026-04-09T14:18:35.318Z</time></trkpt><trkpt lat="43.9928058" lon="7.7689931"><ele>667.0</ele><time>2026-04-09T14:18:36.319Z</time></trkpt><trkpt lat="43.9927474" lon="7.7691738"><ele>667.0</ele><time>2026-04-09T14:18:37.318Z</time></trkpt><trkpt lat="43.9926961" lon="7.7693359"><ele>667.0</ele><time>2026-04-09T14:18:38.319Z</time></trkpt><trkpt lat="43.9926287" lon="7.7694835"><ele>667.0</ele><time>2026-04-09T14:18:39.318Z</time></trkpt><trkpt lat="43.992547" lon="7.7696184"><ele>667.0</ele><time>2026-04-09T14:18:40.319Z</time></trkpt><trkpt lat="43.9924601" lon="7.7697409"><ele>671.4000000000001</ele><time>2026-04-09T14:18:41.319Z</time></trkpt><trkpt lat="43.9923842" lon="7.7698361"><ele>675.8000000000001</ele><time>2026-04-09T14:18:42.318Z</time></trkpt><trkpt lat="43.9923143" lon="7.769884"><ele>680.2</ele><time>2026-04-09T14:18:43.319Z</time></trkpt><trkpt lat="43.992223" lon="7.769854"><ele>684.6</ele><time>2026-04-09T14:18:44.318Z</time></trkpt><trkpt lat="43.992146" lon="7.7697778"><ele>689.0</ele><time>2026-04-09T14:18:45.319Z</time></trkpt><trkpt lat="43.9920685" lon="7.7696538"><ele>689.0</ele><time>2026-04-09T14:18:46.318Z</time></trkpt><trkpt lat="43.9919868" lon="7.7695029"><ele>689.0</ele><time>2026-04-09T14:18:47.319Z</time></trkpt><trkpt lat="43.9918918" lon="7.7693653"><ele>689.0</ele><time>2026-04-09T14:18:48.318Z</time></trkpt><trkpt lat="43.9917793" lon="7.769256"><ele>689.0</ele><time>2026-04-09T14:18:49.318Z</time></trkpt><trkpt lat="43.9916484" lon="7.7691871"><ele>695.25</ele><time>2026-04-09T14:18:50.319Z</time></trkpt><trkpt lat="43.9915172" lon="7.7691239"><ele>701.5</ele><time>2026-04-09T14:18:51.318Z</time></trkpt><trkpt lat="43.9913862" lon="7.7690428"><ele>707.75</ele><time>2026-04-09T14:18:52.318Z</time></trkpt><trkpt lat="43.9912712" lon="7.7689377"><ele>714.0</ele><time>2026-04-09T14:18:53.318Z</time></trkpt><trkpt lat="43.9911629" lon="7.7688763"><ele>714.0</ele><time>2026-04-09T14:18:54.319Z</time></trkpt><trkpt lat="43.9910361" lon="7.7688625"><ele>714.0</ele><time>2026-04-09T14:18:55.319Z</time></trkpt><trkpt lat="43.9908956" lon="7.7688621"><ele>714.0</ele><time>2026-04-09T14:18:56.318Z</time></trkpt><trkpt lat="43.9907627" lon="7.7688664"><ele>714.0</ele><time>2026-04-09T14:18:57.319Z</time></trkpt><trkpt lat="43.9906434" lon="7.7688619"><ele>712.1666666666666</ele><time>2026-04-09T14:18:58.318Z</time></trkpt><trkpt lat="43.9905374" lon="7.7688638"><ele>710.3333333333334</ele><time>2026-04-09T14:18:59.319Z</time></trkpt><trkpt lat="43.9904495" lon="7.768857"><ele>708.5</ele><time>2026-04-09T14:19:00.318Z</time></trkpt><trkpt lat="43.9903693" lon="7.7688344"><ele>706.6666666666667</ele><time>2026-04-09T14:19:01.318Z</time></trkpt><trkpt lat="43.9903151" lon="7.7687529"><ele>704.8333333333334</ele><time>2026-04-09T14:19:02.319Z</time></trkpt><trkpt lat="43.9902977" lon="7.768642"><ele>703.0</ele><time>2026-04-09T14:19:03.319Z</time></trkpt><trkpt lat="43.9903063" lon="7.7685379"><ele>710.75</ele><time>2026-04-09T14:19:04.319Z</time></trkpt><trkpt lat="43.9903497" lon="7.7684228"><ele>718.5</ele><time>2026-04-09T14:19:05.319Z</time></trkpt><trkpt lat="43.9904107" lon="7.768276"><ele>726.25</ele><time>2026-04-09T14:19:06.318Z</time></trkpt><trkpt lat="43.9904838" lon="7.7681232"><ele>734.0</ele><time>2026-04-09T14:19:07.318Z</time></trkpt><trkpt lat="43.9905573" lon="7.7679722"><ele>734.0</ele><time>2026-04-09T14:19:08.319Z</time></trkpt><trkpt lat="43.9906366" lon="7.7678239"><ele>734.0</ele><time>2026-04-09T14:19:09.319Z</time></trkpt><trkpt lat="43.9907282" lon="7.7676845"><ele>734.0</ele><time>2026-04-09T14:19:10.319Z</time></trkpt><trkpt lat="43.9908321" lon="7.7675545"><ele>734.0</ele><time>2026-04-09T14:19:11.318Z</time></trkpt><trkpt lat="43.990943" lon="7.7674251"><ele>739.5</ele><time>2026-04-09T14:19:12.319Z</time></trkpt><trkpt lat="43.9910419" lon="7.7672812"><ele>745.0</ele><time>2026-04-09T14:19:13.318Z</time></trkpt><trkpt lat="43.9911341" lon="7.7671238"><ele>750.5</ele><time>2026-04-09T14:19:14.318Z</time></trkpt><trkpt lat="43.9912025" lon="7.7669361"><ele>756.0</ele><time>2026-04-09T14:19:15.318Z</time></trkpt><trkpt lat="43.9912643" lon="7.7667432"><ele>756.0</ele><time>2026-04-09T14:19:16.319Z</time></trkpt><trkpt lat="43.9913253" lon="7.766553"><ele>756.0</ele><time>2026-04-09T14:19:17.319Z</time></trkpt><trkpt lat="43.9913919" lon="7.7663741"><ele>756.0</ele><time>2026-04-09T14:19:18.318Z</time></trkpt><trkpt lat="43.9914583" lon="7.7662059"><ele>756.0</ele><time>2026-04-09T14:19:19.318Z</time></trkpt><trkpt lat="43.9915197" lon="7.7660479"><ele>752.4</ele><time>2026-04-09T14:19:20.318Z</time></trkpt><trkpt lat="43.9915779" lon="7.7659081"><ele>748.8</ele><time>2026-04-09T14:19:21.318Z</time></trkpt><trkpt lat="43.9916418" lon="7.7657865"><ele>745.1999999999999</ele><time>2026-04-09T14:19:22.319Z</time></trkpt><trkpt lat="43.9917161" lon="7.7656914"><ele>741.5999999999999</ele><time>2026-04-09T14:19:23.319Z</time></trkpt><trkpt lat="43.9918011" lon="7.7656009"><ele>738.0</ele><time>2026-04-09T14:19:24.318Z</time></trkpt><trkpt lat="43.9919069" lon="7.7655264"><ele>747.5</ele><time>2026-04-09T14:19:25.319Z</time></trkpt><trkpt lat="43.9920274" lon="7.7654589"><ele>757.0</ele><time>2026-04-09T14:19:26.318Z</time></trkpt><trkpt lat="43.9921595" lon="7.7653905"><ele>766.5</ele><time>2026-04-09T14:19:27.319Z</time></trkpt><trkpt lat="43.9922888" lon="7.7653087"><ele>776.0</ele><time>2026-04-09T14:19:28.319Z</time></trkpt><trkpt lat="43.992419" lon="7.765215"><ele>781.5</ele><time>2026-04-09T14:19:29.318Z</time></trkpt><trkpt lat="43.9925358" lon="7.7651045"><ele>787.0</ele><time>2026-04-09T14:19:30.318Z</time></trkpt><trkpt lat="43.9926518" lon="7.7649874"><ele>792.5</ele><time>2026-04-09T14:19:31.318Z</time></trkpt><trkpt lat="43.9927576" lon="7.7648599"><ele>798.0</ele><time>2026-04-09T14:19:32.319Z</time></trkpt><trkpt lat="43.992852" lon="7.7647032"><ele>798.0</ele><time>2026-04-09T14:19:33.318Z</time></trkpt><trkpt lat="43.9929324" lon="7.7645253"><ele>798.0</ele><time>2026-04-09T14:19:34.319Z</time></trkpt><trkpt lat="43.9930134" lon="7.7643432"><ele>798.0</ele><time>2026-04-09T14:19:35.319Z</time></trkpt><trkpt lat="43.9930811" lon="7.7641598"><ele>792.0</ele><time>2026-04-09T14:19:36.319Z</time></trkpt><trkpt lat="43.9931403" lon="7.7639768"><ele>786.0</ele><time>2026-04-09T14:19:37.318Z</time></trkpt><trkpt lat="43.9931822" lon="7.7637847"><ele>780.0</ele><time>2026-04-09T14:19:38.319Z</time></trkpt><trkpt lat="43.993202" lon="7.7635827"><ele>774.0</ele><time>2026-04-09T14:19:39.318Z</time></trkpt><trkpt lat="43.9932149" lon="7.7633729"><ele>771.0</ele><time>2026-04-09T14:19:40.318Z</time></trkpt><trkpt lat="43.9932362" lon="7.7631592"><ele>768.0</ele><time>2026-04-09T14:19:41.319Z</time></trkpt><trkpt lat="43.993262" lon="7.76295"><ele>765.0</ele><time>2026-04-09T14:19:42.319Z</time></trkpt><trkpt lat="43.9932784" lon="7.762742"><ele>766.25</ele><time>2026-04-09T14:19:43.318Z</time></trkpt><trkpt lat="43.9932685" lon="7.7625283"><ele>767.5</ele><time>2026-04-09T14:19:44.318Z</time></trkpt><trkpt lat="43.9932408" lon="7.762329"><ele>768.75</ele><time>2026-04-09T14:19:45.319Z</time></trkpt><trkpt lat="43.9932131" lon="7.7621545"><ele>770.0</ele><time>2026-04-09T14:19:46.318Z</time></trkpt><trkpt lat="43.9931958" lon="7.7619758"><ele>770.75</ele><time>2026-04-09T14:19:47.319Z</time></trkpt><trkpt lat="43.9931983" lon="7.7617896"><ele>771.5</ele><time>2026-04-09T14:19:48.319Z</time></trkpt><trkpt lat="43.9932194" lon="7.7615931"><ele>772.25</ele><time>2026-04-09T14:19:49.318Z</time></trkpt><trkpt lat="43.9932393" lon="7.7613877"><ele>773.0</ele><time>2026-04-09T14:19:50.318Z</time></trkpt><trkpt lat="43.9932565" lon="7.7611875"><ele>772.5999999999999</ele><time>2026-04-09T14:19:51.318Z</time></trkpt><trkpt lat="43.9932761" lon="7.7610092"><ele>772.1999999999999</ele><time>2026-04-09T14:19:52.318Z</time></trkpt><trkpt lat="43.9932877" lon="7.7608677"><ele>771.8</ele><time>2026-04-09T14:19:53.318Z</time></trkpt><trkpt lat="43.9932906" lon="7.7607503"><ele>771.4</ele><time>2026-04-09T14:19:54.319Z</time></trkpt><trkpt lat="43.9933007" lon="7.7606583"><ele>771.0</ele><time>2026-04-09T14:19:55.318Z</time></trkpt><trkpt lat="43.9933859" lon="7.7605748"><ele>775.75</ele><time>2026-04-09T14:19:57.319Z</time></trkpt><trkpt lat="43.9934776" lon="7.7606834"><ele>780.5</ele><time>2026-04-09T14:19:59.319Z</time></trkpt><trkpt lat="43.9935166" lon="7.7608074"><ele>785.25</ele><time>2026-04-09T14:20:00.318Z</time></trkpt><trkpt lat="43.9935658" lon="7.7609504"><ele>790.0</ele><time>2026-04-09T14:20:01.319Z</time></trkpt><trkpt lat="43.9936236" lon="7.7611004"><ele>790.0</ele><time>2026-04-09T14:20:02.318Z</time></trkpt><trkpt lat="43.9936754" lon="7.7612635"><ele>790.0</ele><time>2026-04-09T14:20:03.318Z</time></trkpt><trkpt lat="43.9937303" lon="7.761418"><ele>790.0</ele><time>2026-04-09T14:20:04.319Z</time></trkpt><trkpt lat="43.9937741" lon="7.7615422"><ele>790.0</ele><time>2026-04-09T14:20:05.322Z</time></trkpt><trkpt lat="43.9938228" lon="7.7616589"><ele>790.0</ele><time>2026-04-09T14:20:06.321Z</time></trkpt><trkpt lat="43.993866" lon="7.761764"><ele>789.4999999999999</ele><time>2026-04-09T14:20:07.321Z</time></trkpt><trkpt lat="43.9939096" lon="7.7618743"><ele>789.0</ele><time>2026-04-09T14:20:08.322Z</time></trkpt><trkpt lat="43.9939423" lon="7.7619853"><ele>788.5</ele><time>2026-04-09T14:20:09.322Z</time></trkpt><trkpt lat="43.9939695" lon="7.7620846"><ele>788.0</ele><time>2026-04-09T14:20:10.322Z</time></trkpt><trkpt lat="43.9939855" lon="7.7621711"><ele>787.4999999999999</ele><time>2026-04-09T14:20:11.321Z</time></trkpt><trkpt lat="43.9940056" lon="7.7622793"><ele>787.0</ele><time>2026-04-09T14:20:13.321Z</time></trkpt><trkpt lat="43.9940534" lon="7.7623628"><ele>786.9999999999999</ele><time>2026-04-09T14:20:22.322Z</time></trkpt><trkpt lat="43.9940881" lon="7.7624379"><ele>787.0</ele><time>2026-04-09T14:20:25.322Z</time></trkpt><trkpt lat="43.9941725" lon="7.7624071"><ele>787.0</ele><time>2026-04-09T14:20:29.321Z</time></trkpt><trkpt lat="43.9942095" lon="7.76229"><ele>787.0</ele><time>2026-04-09T14:20:31.321Z</time></trkpt><trkpt lat="43.9942062" lon="7.7621962"><ele>786.9999999999999</ele><time>2026-04-09T14:20:32.321Z</time></trkpt><trkpt lat="43.9941939" lon="7.7620892"><ele>787.0</ele><time>2026-04-09T14:20:33.321Z</time></trkpt><trkpt lat="43.9941927" lon="7.7619751"><ele>787.4999999999999</ele><time>2026-04-09T14:20:34.321Z</time></trkpt><trkpt lat="43.9941839" lon="7.761867"><ele>788.0</ele><time>2026-04-09T14:20:35.321Z</time></trkpt><trkpt lat="43.9941663" lon="7.7617428"><ele>788.5</ele><time>2026-04-09T14:20:36.321Z</time></trkpt><trkpt lat="43.9941412" lon="7.7616268"><ele>789.0</ele><time>2026-04-09T14:20:37.321Z</time></trkpt><trkpt lat="43.9941177" lon="7.7615124"><ele>789.4999999999999</ele><time>2026-04-09T14:20:38.322Z</time></trkpt><trkpt lat="43.9940906" lon="7.7614012"><ele>790.0</ele><time>2026-04-09T14:20:39.322Z</time></trkpt><trkpt lat="43.9940675" lon="7.7612694"><ele>790.0</ele><time>2026-04-09T14:20:40.322Z</time></trkpt><trkpt lat="43.9940316" lon="7.7611309"><ele>790.0</ele><time>2026-04-09T14:20:41.321Z</time></trkpt><trkpt lat="43.9940049" lon="7.7609869"><ele>790.0</ele><time>2026-04-09T14:20:42.321Z</time></trkpt><trkpt lat="43.993977" lon="7.7608499"><ele>790.0</ele><time>2026-04-09T14:20:43.322Z</time></trkpt><trkpt lat="43.9939435" lon="7.7607173"><ele>790.0</ele><time>2026-04-09T14:20:44.322Z</time></trkpt><trkpt lat="43.9939142" lon="7.7605807"><ele>790.6</ele><time>2026-04-09T14:20:45.321Z</time></trkpt><trkpt lat="43.9938953" lon="7.7604499"><ele>791.2</ele><time>2026-04-09T14:20:46.322Z</time></trkpt><trkpt lat="43.9938946" lon="7.7603274"><ele>791.8</ele><time>2026-04-09T14:20:47.322Z</time></trkpt><trkpt lat="43.9939178" lon="7.7602027"><ele>792.4</ele><time>2026-04-09T14:20:48.322Z</time></trkpt><trkpt lat="43.9939593" lon="7.7600621"><ele>793.0</ele><time>2026-04-09T14:20:49.321Z</time></trkpt><trkpt lat="43.9940129" lon="7.7599202"><ele>793.0</ele><time>2026-04-09T14:20:50.321Z</time></trkpt><trkpt lat="43.9940713" lon="7.7597957"><ele>793.0</ele><time>2026-04-09T14:20:51.322Z</time></trkpt><trkpt lat="43.9941375" lon="7.7596767"><ele>793.0</ele><time>2026-04-09T14:20:52.321Z</time></trkpt><trkpt lat="43.9941921" lon="7.7595707"><ele>793.0</ele><time>2026-04-09T14:20:53.322Z</time></trkpt><trkpt lat="43.9942389" lon="7.7594913"><ele>793.0</ele><time>2026-04-09T14:20:54.321Z</time></trkpt><trkpt lat="43.9943033" lon="7.7594602"><ele>796.0000000000001</ele><time>2026-04-09T14:20:55.321Z</time></trkpt><trkpt lat="43.9943937" lon="7.7595248"><ele>799.0</ele><time>2026-04-09T14:20:57.321Z</time></trkpt><trkpt lat="43.9944111" lon="7.7596115"><ele>802.0</ele><time>2026-04-09T14:20:58.321Z</time></trkpt><trkpt lat="43.994417" lon="7.7597055"><ele>805.0</ele><time>2026-04-09T14:20:59.321Z</time></trkpt><trkpt lat="43.9944717" lon="7.7597873"><ele>808.0</ele><time>2026-04-09T14:21:01.322Z</time></trkpt><trkpt lat="43.9945403" lon="7.7597771"><ele>811.0000000000001</ele><time>2026-04-09T14:21:02.321Z</time></trkpt><trkpt lat="43.9945936" lon="7.7597279"><ele>814.0</ele><time>2026-04-09T14:21:03.322Z</time></trkpt><trkpt lat="43.9946123" lon="7.7596186"><ele>814.0</ele><time>2026-04-09T14:21:04.321Z</time></trkpt><trkpt lat="43.9945854" lon="7.7594957"><ele>814.0</ele><time>2026-04-09T14:21:05.321Z</time></trkpt><trkpt lat="43.9945546" lon="7.759376"><ele>814.0</ele><time>2026-04-09T14:21:06.321Z</time></trkpt><trkpt lat="43.9945148" lon="7.7592401"><ele>814.0</ele><time>2026-04-09T14:21:07.321Z</time></trkpt><trkpt lat="43.9945111" lon="7.7590958"><ele>814.0</ele><time>2026-04-09T14:21:08.322Z</time></trkpt><trkpt lat="43.9945186" lon="7.7589652"><ele>814.3333333333333</ele><time>2026-04-09T14:21:09.322Z</time></trkpt><trkpt lat="43.9945234" lon="7.7588578"><ele>814.6666666666666</ele><time>2026-04-09T14:21:10.322Z</time></trkpt><trkpt lat="43.9945528" lon="7.7587689"><ele>815.0</ele><time>2026-04-09T14:21:11.322Z</time></trkpt><trkpt lat="43.9946504" lon="7.7587839"><ele>815.3333333333333</ele><time>2026-04-09T14:21:13.322Z</time></trkpt><trkpt lat="43.994675" lon="7.7588733"><ele>815.6666666666666</ele><time>2026-04-09T14:21:14.322Z</time></trkpt><trkpt lat="43.9946736" lon="7.7589894"><ele>816.0</ele><time>2026-04-09T14:21:15.322Z</time></trkpt><trkpt lat="43.9946778" lon="7.7591089"><ele>816.0</ele><time>2026-04-09T14:21:16.321Z</time></trkpt><trkpt lat="43.9946978" lon="7.7592393"><ele>816.0</ele><time>2026-04-09T14:21:17.322Z</time></trkpt><trkpt lat="43.9947555" lon="7.7593502"><ele>816.0</ele><time>2026-04-09T14:21:18.322Z</time></trkpt><trkpt lat="43.9948368" lon="7.7594228"><ele>816.0</ele><time>2026-04-09T14:21:19.322Z</time></trkpt><trkpt lat="43.9949306" lon="7.7594723"><ele>816.0</ele><time>2026-04-09T14:21:20.321Z</time></trkpt><trkpt lat="43.9950248" lon="7.7595448"><ele>821.4</ele><time>2026-04-09T14:21:21.321Z</time></trkpt><trkpt lat="43.9950992" lon="7.7596314"><ele>826.8</ele><time>2026-04-09T14:21:22.322Z</time></trkpt><trkpt lat="43.9951464" lon="7.7597359"><ele>832.1999999999999</ele><time>2026-04-09T14:21:23.321Z</time></trkpt><trkpt lat="43.995187" lon="7.7598608"><ele>837.5999999999999</ele><time>2026-04-09T14:21:24.322Z</time></trkpt><trkpt lat="43.9952132" lon="7.7600072"><ele>843.0</ele><time>2026-04-09T14:21:25.321Z</time></trkpt><trkpt lat="43.9952363" lon="7.7601563"><ele>843.25</ele><time>2026-04-09T14:21:26.321Z</time></trkpt><trkpt lat="43.995255" lon="7.7603147"><ele>843.5</ele><time>2026-04-09T14:21:27.322Z</time></trkpt><trkpt lat="43.9952727" lon="7.7604836"><ele>843.75</ele><time>2026-04-09T14:21:28.321Z</time></trkpt><trkpt lat="43.9952891" lon="7.7606597"><ele>844.0</ele><time>2026-04-09T14:21:29.322Z</time></trkpt><trkpt lat="43.9952961" lon="7.7608329"><ele>844.0</ele><time>2026-04-09T14:21:30.322Z</time></trkpt><trkpt lat="43.9952964" lon="7.7610032"><ele>844.0</ele><time>2026-04-09T14:21:31.322Z</time></trkpt><trkpt lat="43.9952998" lon="7.7611775"><ele>844.0</ele><time>2026-04-09T14:21:32.322Z</time></trkpt><trkpt lat="43.9953026" lon="7.7613506"><ele>844.0</ele><time>2026-04-09T14:21:33.321Z</time></trkpt><trkpt lat="43.9953088" lon="7.7615216"><ele>844.4000000000001</ele><time>2026-04-09T14:21:34.321Z</time></trkpt><trkpt lat="43.9953176" lon="7.7616805"><ele>844.8</ele><time>2026-04-09T14:21:35.322Z</time></trkpt><trkpt lat="43.9953237" lon="7.7618137"><ele>845.2</ele><time>2026-04-09T14:21:36.321Z</time></trkpt><trkpt lat="43.995323" lon="7.7619348"><ele>845.5999999999999</ele><time>2026-04-09T14:21:37.321Z</time></trkpt><trkpt lat="43.9953193" lon="7.7620277"><ele>846.0</ele><time>2026-04-09T14:21:38.321Z</time></trkpt><trkpt lat="43.9953095" lon="7.7621532"><ele>846.0</ele><time>2026-04-09T14:21:40.322Z</time></trkpt><trkpt lat="43.9954011" lon="7.7621698"><ele>846.0</ele><time>2026-04-09T14:21:43.322Z</time></trkpt><trkpt lat="43.9954445" lon="7.7620263"><ele>846.0</ele><time>2026-04-09T14:21:45.322Z</time></trkpt><trkpt lat="43.9954802" lon="7.7618798"><ele>846.0</ele><time>2026-04-09T14:21:47.321Z</time></trkpt><trkpt lat="43.995513" lon="7.761722"><ele>846.0</ele><time>2026-04-09T14:21:49.322Z</time></trkpt><trkpt lat="43.9955255" lon="7.7615995"><ele>846.0</ele><time>2026-04-09T14:21:50.321Z</time></trkpt><trkpt lat="43.9955367" lon="7.7614722"><ele>846.0</ele><time>2026-04-09T14:21:51.322Z</time></trkpt><trkpt lat="43.9955447" lon="7.7613252"><ele>846.0</ele><time>2026-04-09T14:21:52.321Z</time></trkpt><trkpt lat="43.9955577" lon="7.7611649"><ele>846.0</ele><time>2026-04-09T14:21:53.322Z</time></trkpt><trkpt lat="43.9955804" lon="7.7609968"><ele>846.0</ele><time>2026-04-09T14:21:54.322Z</time></trkpt><trkpt lat="43.9956099" lon="7.7608281"><ele>845.5</ele><time>2026-04-09T14:21:55.321Z</time></trkpt><trkpt lat="43.995636" lon="7.7606478"><ele>845.0</ele><time>2026-04-09T14:21:56.322Z</time></trkpt><trkpt lat="43.9956572" lon="7.7604677"><ele>844.5</ele><time>2026-04-09T14:21:57.321Z</time></trkpt><trkpt lat="43.9956632" lon="7.7602827"><ele>844.0</ele><time>2026-04-09T14:21:58.322Z</time></trkpt><trkpt lat="43.9956537" lon="7.7601002"><ele>843.75</ele><time>2026-04-09T14:21:59.322Z</time></trkpt><trkpt lat="43.9956392" lon="7.7599304"><ele>843.5</ele><time>2026-04-09T14:22:00.321Z</time></trkpt><trkpt lat="43.995637" lon="7.7597609"><ele>843.25</ele><time>2026-04-09T14:22:01.322Z</time></trkpt><trkpt lat="43.9956471" lon="7.7595936"><ele>843.0</ele><time>2026-04-09T14:22:02.321Z</time></trkpt><trkpt lat="43.9956775" lon="7.7594245"><ele>843.2</ele><time>2026-04-09T14:22:03.322Z</time></trkpt><trkpt lat="43.9957162" lon="7.7592756"><ele>843.4</ele><time>2026-04-09T14:22:04.322Z</time></trkpt><trkpt lat="43.9957628" lon="7.7591382"><ele>843.6</ele><time>2026-04-09T14:22:05.321Z</time></trkpt><trkpt lat="43.9958113" lon="7.7589934"><ele>843.8000000000001</ele><time>2026-04-09T14:22:06.321Z</time></trkpt><trkpt lat="43.995842" lon="7.7588449"><ele>844.0</ele><time>2026-04-09T14:22:07.321Z</time></trkpt><trkpt lat="43.9958466" lon="7.7586713"><ele>844.75</ele><time>2026-04-09T14:22:08.322Z</time></trkpt><trkpt lat="43.9958446" lon="7.758496"><ele>845.5</ele><time>2026-04-09T14:22:09.322Z</time></trkpt><trkpt lat="43.9958441" lon="7.7582996"><ele>846.25</ele><time>2026-04-09T14:22:10.321Z</time></trkpt><trkpt lat="43.9958391" lon="7.7580946"><ele>847.0</ele><time>2026-04-09T14:22:11.321Z</time></trkpt><trkpt lat="43.9958304" lon="7.7578808"><ele>849.3333333333333</ele><time>2026-04-09T14:22:12.321Z</time></trkpt><trkpt lat="43.9958245" lon="7.7576693"><ele>851.6666666666667</ele><time>2026-04-09T14:22:13.321Z</time></trkpt><trkpt lat="43.9958152" lon="7.7574438"><ele>854.0</ele><time>2026-04-09T14:22:14.322Z</time></trkpt><trkpt lat="43.9957892" lon="7.7572008"><ele>854.0</ele><time>2026-04-09T14:22:15.321Z</time></trkpt><trkpt lat="43.9957456" lon="7.7569424"><ele>854.0</ele><time>2026-04-09T14:22:16.322Z</time></trkpt><trkpt lat="43.9957022" lon="7.7566792"><ele>854.0</ele><time>2026-04-09T14:22:17.321Z</time></trkpt><trkpt lat="43.9956637" lon="7.7564151"><ele>858.0</ele><time>2026-04-09T14:22:18.321Z</time></trkpt><trkpt lat="43.9956271" lon="7.7561508"><ele>862.0</ele><time>2026-04-09T14:22:19.322Z</time></trkpt><trkpt lat="43.9955906" lon="7.755898"><ele>866.0</ele><time>2026-04-09T14:22:20.321Z</time></trkpt><trkpt lat="43.9955624" lon="7.7556736"><ele>869.0</ele><time>2026-04-09T14:22:21.321Z</time></trkpt><trkpt lat="43.9955345" lon="7.755479"><ele>872.0</ele><time>2026-04-09T14:22:22.322Z</time></trkpt><trkpt lat="43.9955085" lon="7.7553086"><ele>875.0</ele><time>2026-04-09T14:22:23.322Z</time></trkpt><trkpt lat="43.9954978" lon="7.7551576"><ele>878.0</ele><time>2026-04-09T14:22:24.322Z</time></trkpt><trkpt lat="43.9955075" lon="7.7550139"><ele>879.25</ele><time>2026-04-09T14:22:25.321Z</time></trkpt><trkpt lat="43.9955556" lon="7.7548561"><ele>880.5</ele><time>2026-04-09T14:22:26.321Z</time></trkpt><trkpt lat="43.9956134" lon="7.7546984"><ele>881.75</ele><time>2026-04-09T14:22:27.322Z</time></trkpt><trkpt lat="43.9956653" lon="7.7545213"><ele>883.0</ele><time>2026-04-09T14:22:28.321Z</time></trkpt><trkpt lat="43.9956969" lon="7.7543386"><ele>883.0</ele><time>2026-04-09T14:22:29.322Z</time></trkpt><trkpt lat="43.9957106" lon="7.7541503"><ele>883.0</ele><time>2026-04-09T14:22:30.322Z</time></trkpt><trkpt lat="43.9957161" lon="7.753941"><ele>883.0</ele><time>2026-04-09T14:22:31.322Z</time></trkpt><trkpt lat="43.9957188" lon="7.7537229"><ele>883.0</ele><time>2026-04-09T14:22:32.321Z</time></trkpt><trkpt lat="43.9957101" lon="7.7535126"><ele>883.25</ele><time>2026-04-09T14:22:33.321Z</time></trkpt><trkpt lat="43.9957024" lon="7.7533187"><ele>883.5</ele><time>2026-04-09T14:22:34.321Z</time></trkpt><trkpt lat="43.9956995" lon="7.753136"><ele>883.75</ele><time>2026-04-09T14:22:35.321Z</time></trkpt><trkpt lat="43.9957165" lon="7.7529488"><ele>884.0</ele><time>2026-04-09T14:22:36.321Z</time></trkpt><trkpt lat="43.9957619" lon="7.7527687"><ele>883.0</ele><time>2026-04-09T14:22:37.321Z</time></trkpt><trkpt lat="43.9958325" lon="7.7525911"><ele>882.0</ele><time>2026-04-09T14:22:38.321Z</time></trkpt><trkpt lat="43.9959061" lon="7.7524327"><ele>881.0</ele><time>2026-04-09T14:22:39.322Z</time></trkpt><trkpt lat="43.9959692" lon="7.7523055"><ele>880.0</ele><time>2026-04-09T14:22:40.321Z</time></trkpt><trkpt lat="43.9960213" lon="7.7522268"><ele>884.8</ele><time>2026-04-09T14:22:41.322Z</time></trkpt><trkpt lat="43.9961202" lon="7.7522585"><ele>889.6</ele><time>2026-04-09T14:22:43.322Z</time></trkpt><trkpt lat="43.9961647" lon="7.7523438"><ele>894.4000000000001</ele><time>2026-04-09T14:22:44.322Z</time></trkpt><trkpt lat="43.9961924" lon="7.7524584"><ele>899.2</ele><time>2026-04-09T14:22:45.321Z</time></trkpt><trkpt lat="43.9962191" lon="7.7526086"><ele>904.0</ele><time>2026-04-09T14:22:46.322Z</time></trkpt><trkpt lat="43.9962526" lon="7.7527724"><ele>904.0</ele><time>2026-04-09T14:22:47.321Z</time></trkpt><trkpt lat="43.9962889" lon="7.7529652"><ele>904.0</ele><time>2026-04-09T14:22:48.322Z</time></trkpt><trkpt lat="43.9963243" lon="7.7531604"><ele>904.0</ele><time>2026-04-09T14:22:49.322Z</time></trkpt><trkpt lat="43.9963538" lon="7.7533551"><ele>904.0</ele><time>2026-04-09T14:22:50.321Z</time></trkpt><trkpt lat="43.9963814" lon="7.7535537"><ele>905.3333333333333</ele><time>2026-04-09T14:22:51.322Z</time></trkpt><trkpt lat="43.9964102" lon="7.7537613"><ele>906.6666666666667</ele><time>2026-04-09T14:22:52.321Z</time></trkpt><trkpt lat="43.9964309" lon="7.7539666"><ele>908.0</ele><time>2026-04-09T14:22:53.321Z</time></trkpt><trkpt lat="43.9964392" lon="7.7541842"><ele>910.25</ele><time>2026-04-09T14:22:54.321Z</time></trkpt><trkpt lat="43.9964364" lon="7.7543937"><ele>912.5</ele><time>2026-04-09T14:22:55.322Z</time></trkpt><trkpt lat="43.9964233" lon="7.754602"><ele>914.75</ele><time>2026-04-09T14:22:56.322Z</time></trkpt><trkpt lat="43.9964131" lon="7.7548061"><ele>917.0</ele><time>2026-04-09T14:22:57.322Z</time></trkpt><trkpt lat="43.9964266" lon="7.7550164"><ele>917.0</ele><time>2026-04-09T14:22:58.322Z</time></trkpt><trkpt lat="43.9964557" lon="7.755226"><ele>917.0</ele><time>2026-04-09T14:22:59.321Z</time></trkpt><trkpt lat="43.996504" lon="7.7554334"><ele>917.0</ele><time>2026-04-09T14:23:00.321Z</time></trkpt><trkpt lat="43.9965708" lon="7.7556273"><ele>917.0</ele><time>2026-04-09T14:23:01.322Z</time></trkpt><trkpt lat="43.996646" lon="7.7558158"><ele>917.0</ele><time>2026-04-09T14:23:02.322Z</time></trkpt><trkpt lat="43.9967235" lon="7.7559943"><ele>917.0</ele><time>2026-04-09T14:23:03.322Z</time></trkpt><trkpt lat="43.9967978" lon="7.7561411"><ele>917.0</ele><time>2026-04-09T14:23:04.321Z</time></trkpt><trkpt lat="43.9968796" lon="7.7562705"><ele>919.5</ele><time>2026-04-09T14:23:05.322Z</time></trkpt><trkpt lat="43.9969862" lon="7.7563391"><ele>922.0</ele><time>2026-04-09T14:23:06.321Z</time></trkpt><trkpt lat="43.9971141" lon="7.7563809"><ele>924.5</ele><time>2026-04-09T14:23:07.322Z</time></trkpt><trkpt lat="43.9972405" lon="7.7564292"><ele>927.0</ele><time>2026-04-09T14:23:08.321Z</time></trkpt><trkpt lat="43.9973332" lon="7.7565291"><ele>927.0</ele><time>2026-04-09T14:23:09.321Z</time></trkpt><trkpt lat="43.9973881" lon="7.7566702"><ele>927.0</ele><time>2026-04-09T14:23:10.322Z</time></trkpt><trkpt lat="43.99742" lon="7.7568313"><ele>927.0</ele><time>2026-04-09T14:23:11.321Z</time></trkpt><trkpt lat="43.9974567" lon="7.7570018"><ele>927.0</ele><time>2026-04-09T14:23:12.322Z</time></trkpt><trkpt lat="43.9974943" lon="7.7572012"><ele>942.6666666666667</ele><time>2026-04-09T14:23:13.322Z</time></trkpt><trkpt lat="43.9975311" lon="7.7574198"><ele>958.3333333333334</ele><time>2026-04-09T14:23:14.321Z</time></trkpt><trkpt lat="43.9975531" lon="7.757642"><ele>974.0</ele><time>2026-04-09T14:23:15.322Z</time></trkpt><trkpt lat="43.9975554" lon="7.7578564"><ele>977.6666666666667</ele><time>2026-04-09T14:23:16.321Z</time></trkpt><trkpt lat="43.997549" lon="7.7580754"><ele>981.3333333333333</ele><time>2026-04-09T14:23:17.322Z</time></trkpt><trkpt lat="43.9975524" lon="7.758307"><ele>985.0</ele><time>2026-04-09T14:23:18.322Z</time></trkpt><trkpt lat="43.9975568" lon="7.7585398"><ele>985.5</ele><time>2026-04-09T14:23:19.321Z</time></trkpt><trkpt lat="43.9975627" lon="7.7587657"><ele>986.0</ele><time>2026-04-09T14:23:20.321Z</time></trkpt><trkpt lat="43.9975603" lon="7.7589684"><ele>986.5</ele><time>2026-04-09T14:23:21.322Z</time></trkpt><trkpt lat="43.9975586" lon="7.7591643"><ele>987.0</ele><time>2026-04-09T14:23:22.322Z</time></trkpt><trkpt lat="43.9975559" lon="7.7593656"><ele>982.6666666666667</ele><time>2026-04-09T14:23:23.322Z</time></trkpt><trkpt lat="43.9975498" lon="7.7595712"><ele>978.3333333333334</ele><time>2026-04-09T14:23:24.322Z</time></trkpt><trkpt lat="43.9975478" lon="7.7597795"><ele>974.0</ele><time>2026-04-09T14:23:25.321Z</time></trkpt><trkpt lat="43.9975465" lon="7.7599906"><ele>965.75</ele><time>2026-04-09T14:23:26.321Z</time></trkpt><trkpt lat="43.9975376" lon="7.7602027"><ele>957.5</ele><time>2026-04-09T14:23:27.322Z</time></trkpt><trkpt lat="43.9975269" lon="7.7603947"><ele>949.25</ele><time>2026-04-09T14:23:28.321Z</time></trkpt><trkpt lat="43.9975199" lon="7.7605668"><ele>941.0</ele><time>2026-04-09T14:23:29.321Z</time></trkpt><trkpt lat="43.997518" lon="7.7607212"><ele>941.0</ele><time>2026-04-09T14:23:30.322Z</time></trkpt><trkpt lat="43.9975239" lon="7.7608539"><ele>940.9999999999999</ele><time>2026-04-09T14:23:31.322Z</time></trkpt><trkpt lat="43.9975373" lon="7.7609521"><ele>940.9999999999999</ele><time>2026-04-09T14:23:32.321Z</time></trkpt><trkpt lat="43.9976123" lon="7.7610792"><ele>941.0</ele><time>2026-04-09T14:23:34.321Z</time></trkpt><trkpt lat="43.9977357" lon="7.7610643"><ele>941.0</ele><time>2026-04-09T14:23:36.321Z</time></trkpt><trkpt lat="43.9978061" lon="7.761027"><ele>941.0</ele><time>2026-04-09T14:23:37.321Z</time></trkpt><trkpt lat="43.9978813" lon="7.7609891"><ele>940.9999999999999</ele><time>2026-04-09T14:23:38.322Z</time></trkpt><trkpt lat="43.9979589" lon="7.7609312"><ele>940.9999999999999</ele><time>2026-04-09T14:23:39.322Z</time></trkpt><trkpt lat="43.9980328" lon="7.7608663"><ele>941.0</ele><time>2026-04-09T14:23:40.322Z</time></trkpt><trkpt lat="43.998116" lon="7.7607868"><ele>941.0</ele><time>2026-04-09T14:23:41.321Z</time></trkpt><trkpt lat="43.9982171" lon="7.7607138"><ele>941.0</ele><time>2026-04-09T14:23:42.322Z</time></trkpt><trkpt lat="43.9983272" lon="7.7606707"><ele>941.0</ele><time>2026-04-09T14:23:43.322Z</time></trkpt><trkpt lat="43.9984396" lon="7.7606555"><ele>941.0</ele><time>2026-04-09T14:23:44.321Z</time></trkpt><trkpt lat="43.9985492" lon="7.7606369"><ele>941.0</ele><time>2026-04-09T14:23:45.321Z</time></trkpt><trkpt lat="43.9986718" lon="7.7605949"><ele>936.75</ele><time>2026-04-09T14:23:46.322Z</time></trkpt><trkpt lat="43.9987885" lon="7.7605166"><ele>932.5</ele><time>2026-04-09T14:23:47.321Z</time></trkpt><trkpt lat="43.9988985" lon="7.760416"><ele>928.25</ele><time>2026-04-09T14:23:48.321Z</time></trkpt><trkpt lat="43.9990146" lon="7.7603233"><ele>924.0</ele><time>2026-04-09T14:23:49.322Z</time></trkpt><trkpt lat="43.9991416" lon="7.7602458"><ele>932.0</ele><time>2026-04-09T14:23:50.322Z</time></trkpt><trkpt lat="43.9992733" lon="7.7601846"><ele>940.0</ele><time>2026-04-09T14:23:51.321Z</time></trkpt><trkpt lat="43.9993988" lon="7.7601338"><ele>948.0</ele><time>2026-04-09T14:23:52.322Z</time></trkpt><trkpt lat="43.9995117" lon="7.7600862"><ele>956.0</ele><time>2026-04-09T14:23:53.321Z</time></trkpt><trkpt lat="43.999624" lon="7.7600476"><ele>956.0</ele><time>2026-04-09T14:23:54.321Z</time></trkpt><trkpt lat="43.9997421" lon="7.7600187"><ele>956.0</ele><time>2026-04-09T14:23:55.321Z</time></trkpt><trkpt lat="43.9998545" lon="7.7599784"><ele>956.0</ele><time>2026-04-09T14:23:56.321Z</time></trkpt><trkpt lat="43.9999537" lon="7.7598912"><ele>956.0</ele><time>2026-04-09T14:23:57.321Z</time></trkpt><trkpt lat="44.0000497" lon="7.7597811"><ele>956.0</ele><time>2026-04-09T14:23:58.321Z</time></trkpt><trkpt lat="44.0001486" lon="7.7596709"><ele>956.0</ele><time>2026-04-09T14:23:59.321Z</time></trkpt><trkpt lat="44.0002529" lon="7.7595635"><ele>956.0</ele><time>2026-04-09T14:24:00.321Z</time></trkpt><trkpt lat="44.0003586" lon="7.7594627"><ele>956.0</ele><time>2026-04-09T14:24:01.321Z</time></trkpt><trkpt lat="44.0004642" lon="7.7593646"><ele>960.0</ele><time>2026-04-09T14:24:02.322Z</time></trkpt><trkpt lat="44.000574" lon="7.7592748"><ele>964.0</ele><time>2026-04-09T14:24:03.321Z</time></trkpt><trkpt lat="44.0006858" lon="7.7591886"><ele>968.0</ele><time>2026-04-09T14:24:04.321Z</time></trkpt><trkpt lat="44.0007924" lon="7.7590897"><ele>972.0</ele><time>2026-04-09T14:24:05.321Z</time></trkpt><trkpt lat="44.0008882" lon="7.7589638"><ele>972.0</ele><time>2026-04-09T14:24:06.321Z</time></trkpt><trkpt lat="44.0009775" lon="7.7588063"><ele>972.0</ele><time>2026-04-09T14:24:07.322Z</time></trkpt><trkpt lat="44.0010706" lon="7.758635"><ele>972.0</ele><time>2026-04-09T14:24:08.321Z</time></trkpt><trkpt lat="44.0011674" lon="7.7584698"><ele>987.6666666666667</ele><time>2026-04-09T14:24:09.321Z</time></trkpt><trkpt lat="44.0012688" lon="7.7583086"><ele>1003.3333333333334</ele><time>2026-04-09T14:24:10.321Z</time></trkpt><trkpt lat="44.0013686" lon="7.7581465"><ele>1019.0</ele><time>2026-04-09T14:24:11.322Z</time></trkpt><trkpt lat="44.0014676" lon="7.7579923"><ele>1019.0</ele><time>2026-04-09T14:24:12.321Z</time></trkpt><trkpt lat="44.0015658" lon="7.7578418"><ele>1019.0</ele><time>2026-04-09T14:24:13.322Z</time></trkpt><trkpt lat="44.0016686" lon="7.7576901"><ele>1019.0</ele><time>2026-04-09T14:24:14.322Z</time></trkpt><trkpt lat="44.0017624" lon="7.7575502"><ele>1019.0</ele><time>2026-04-09T14:24:15.322Z</time></trkpt><trkpt lat="44.0018348" lon="7.7574262"><ele>1017.0</ele><time>2026-04-09T14:24:16.322Z</time></trkpt><trkpt lat="44.001909" lon="7.7573251"><ele>1015.0000000000001</ele><time>2026-04-09T14:24:17.322Z</time></trkpt><trkpt lat="44.0019928" lon="7.7572573"><ele>1013.0000000000001</ele><time>2026-04-09T14:24:18.322Z</time></trkpt><trkpt lat="44.0020854" lon="7.7571993"><ele>1011.0</ele><time>2026-04-09T14:24:19.321Z</time></trkpt><trkpt lat="44.0021755" lon="7.7571214"><ele>1009.0</ele><time>2026-04-09T14:24:20.321Z</time></trkpt><trkpt lat="44.0022692" lon="7.7570162"><ele>1009.0</ele><time>2026-04-09T14:24:21.322Z</time></trkpt><trkpt lat="44.0023744" lon="7.7569051"><ele>1009.0</ele><time>2026-04-09T14:24:22.321Z</time></trkpt><trkpt lat="44.0024879" lon="7.7567932"><ele>1009.0</ele><time>2026-04-09T14:24:23.321Z</time></trkpt><trkpt lat="44.0026035" lon="7.7566761"><ele>1009.0</ele><time>2026-04-09T14:24:24.322Z</time></trkpt><trkpt lat="44.002708" lon="7.7565669"><ele>1012.0</ele><time>2026-04-09T14:24:25.321Z</time></trkpt><trkpt lat="44.0028031" lon="7.756473"><ele>1015.0000000000001</ele><time>2026-04-09T14:24:26.321Z</time></trkpt><trkpt lat="44.0028857" lon="7.7563965"><ele>1018.0000000000001</ele><time>2026-04-09T14:24:27.322Z</time></trkpt><trkpt lat="44.0029538" lon="7.7562888"><ele>1021.0</ele><time>2026-04-09T14:24:28.321Z</time></trkpt><trkpt lat="44.0030074" lon="7.7561708"><ele>1024.0</ele><time>2026-04-09T14:24:29.321Z</time></trkpt><trkpt lat="44.0030634" lon="7.7560302"><ele>1023.25</ele><time>2026-04-09T14:24:30.321Z</time></trkpt><trkpt lat="44.0031293" lon="7.7558958"><ele>1022.5</ele><time>2026-04-09T14:24:31.321Z</time></trkpt><trkpt lat="44.0032048" lon="7.755778"><ele>1021.75</ele><time>2026-04-09T14:24:32.321Z</time></trkpt><trkpt lat="44.0032939" lon="7.7556758"><ele>1021.0</ele><time>2026-04-09T14:24:33.321Z</time></trkpt><trkpt lat="44.0033866" lon="7.7555929"><ele>1021.0</ele><time>2026-04-09T14:24:34.322Z</time></trkpt><trkpt lat="44.0034544" lon="7.7554769"><ele>1021.0</ele><time>2026-04-09T14:24:35.321Z</time></trkpt><trkpt lat="44.0035169" lon="7.7553276"><ele>1021.0</ele><time>2026-04-09T14:24:36.322Z</time></trkpt><trkpt lat="44.0035777" lon="7.7551779"><ele>1021.0</ele><time>2026-04-09T14:24:37.322Z</time></trkpt><trkpt lat="44.0036346" lon="7.7550508"><ele>1028.3999999999999</ele><time>2026-04-09T14:24:38.321Z</time></trkpt><trkpt lat="44.0036846" lon="7.7549613"><ele>1035.8</ele><time>2026-04-09T14:24:39.322Z</time></trkpt><trkpt lat="44.0037456" lon="7.754913"><ele>1043.1999999999998</ele><time>2026-04-09T14:24:40.322Z</time></trkpt><trkpt lat="44.00383" lon="7.7548821"><ele>1050.6</ele><time>2026-04-09T14:24:41.322Z</time></trkpt><trkpt lat="44.0039305" lon="7.7548418"><ele>1058.0</ele><time>2026-04-09T14:24:42.321Z</time></trkpt><trkpt lat="44.004042" lon="7.7547901"><ele>1058.0</ele><time>2026-04-09T14:24:43.322Z</time></trkpt><trkpt lat="44.0041551" lon="7.7547333"><ele>1058.0</ele><time>2026-04-09T14:24:44.321Z</time></trkpt><trkpt lat="44.0042688" lon="7.7546756"><ele>1058.0</ele><time>2026-04-09T14:24:45.321Z</time></trkpt><trkpt lat="44.0043827" lon="7.7545859"><ele>1058.0</ele><time>2026-04-09T14:24:46.321Z</time></trkpt><trkpt lat="44.0045016" lon="7.7544983"><ele>1057.0</ele><time>2026-04-09T14:24:47.321Z</time></trkpt><trkpt lat="44.0046125" lon="7.7544247"><ele>1056.0</ele><time>2026-04-09T14:24:48.322Z</time></trkpt><trkpt lat="44.0047188" lon="7.754365"><ele>1055.0</ele><time>2026-04-09T14:24:49.321Z</time></trkpt><trkpt lat="44.004814" lon="7.7543178"><ele>1054.0</ele><time>2026-04-09T14:24:50.322Z</time></trkpt><trkpt lat="44.0049096" lon="7.7543132"><ele>1053.0</ele><time>2026-04-09T14:24:51.321Z</time></trkpt><trkpt lat="44.0050025" lon="7.7543459"><ele>1044.0</ele><time>2026-04-09T14:24:52.321Z</time></trkpt><trkpt lat="44.0050887" lon="7.7544054"><ele>1035.0</ele><time>2026-04-09T14:24:53.322Z</time></trkpt><trkpt lat="44.0051806" lon="7.7544588"><ele>1026.0</ele><time>2026-04-09T14:24:54.321Z</time></trkpt><trkpt lat="44.0052652" lon="7.7544831"><ele>1017.0</ele><time>2026-04-09T14:24:55.321Z</time></trkpt><trkpt lat="44.0053721" lon="7.7544731"><ele>1008.0</ele><time>2026-04-09T14:24:56.322Z</time></trkpt><trkpt lat="44.005475" lon="7.7544157"><ele>1016.25</ele><time>2026-04-09T14:24:57.321Z</time></trkpt><trkpt lat="44.0055788" lon="7.7543368"><ele>1024.5</ele><time>2026-04-09T14:24:58.321Z</time></trkpt><trkpt lat="44.0056779" lon="7.7542394"><ele>1032.75</ele><time>2026-04-09T14:24:59.322Z</time></trkpt><trkpt lat="44.0057756" lon="7.7541358"><ele>1041.0</ele><time>2026-04-09T14:25:00.321Z</time></trkpt><trkpt lat="44.0058849" lon="7.754034"><ele>1041.0</ele><time>2026-04-09T14:25:01.322Z</time></trkpt><trkpt lat="44.0060005" lon="7.7539355"><ele>1041.0</ele><time>2026-04-09T14:25:02.322Z</time></trkpt><trkpt lat="44.0061085" lon="7.7538409"><ele>1041.0</ele><time>2026-04-09T14:25:03.321Z</time></trkpt><trkpt lat="44.0062061" lon="7.7537567"><ele>1041.0</ele><time>2026-04-09T14:25:04.322Z</time></trkpt><trkpt lat="44.0062898" lon="7.7536873"><ele>1041.0</ele><time>2026-04-09T14:25:05.321Z</time></trkpt><trkpt lat="44.0063646" lon="7.7536202"><ele>1041.0</ele><time>2026-04-09T14:25:06.322Z</time></trkpt><trkpt lat="44.0064263" lon="7.7535601"><ele>1041.0</ele><time>2026-04-09T14:25:07.322Z</time></trkpt><trkpt lat="44.0065234" lon="7.7534453"><ele>1041.0</ele><time>2026-04-09T14:25:09.322Z</time></trkpt><trkpt lat="44.0065658" lon="7.7533734"><ele>1041.0</ele><time>2026-04-09T14:25:10.321Z</time></trkpt><trkpt lat="44.0066084" lon="7.7532995"><ele>1041.0</ele><time>2026-04-09T14:25:11.322Z</time></trkpt><trkpt lat="44.0066476" lon="7.7532202"><ele>1042.6666666666667</ele><time>2026-04-09T14:25:12.322Z</time></trkpt><trkpt lat="44.006691" lon="7.7531349"><ele>1044.3333333333333</ele><time>2026-04-09T14:25:13.321Z</time></trkpt><trkpt lat="44.006735" lon="7.7530497"><ele>1046.0</ele><time>2026-04-09T14:25:14.321Z</time></trkpt><trkpt lat="44.0067816" lon="7.7529587"><ele>1047.6666666666665</ele><time>2026-04-09T14:25:15.322Z</time></trkpt><trkpt lat="44.0068331" lon="7.752852"><ele>1049.3333333333333</ele><time>2026-04-09T14:25:16.321Z</time></trkpt><trkpt lat="44.0068953" lon="7.7527339"><ele>1051.0</ele><time>2026-04-09T14:25:17.321Z</time></trkpt><trkpt lat="44.0069691" lon="7.7526097"><ele>1055.5</ele><time>2026-04-09T14:25:18.321Z</time></trkpt><trkpt lat="44.0070535" lon="7.7524951"><ele>1060.0</ele><time>2026-04-09T14:25:19.322Z</time></trkpt><trkpt lat="44.007144" lon="7.7523741"><ele>1064.5</ele><time>2026-04-09T14:25:20.321Z</time></trkpt><trkpt lat="44.0072331" lon="7.7522414"><ele>1069.0</ele><time>2026-04-09T14:25:21.322Z</time></trkpt><trkpt lat="44.0073227" lon="7.7520979"><ele>1069.0</ele><time>2026-04-09T14:25:22.321Z</time></trkpt><trkpt lat="44.0074061" lon="7.7519633"><ele>1069.0</ele><time>2026-04-09T14:25:23.321Z</time></trkpt><trkpt lat="44.0074857" lon="7.7518407"><ele>1069.0</ele><time>2026-04-09T14:25:24.322Z</time></trkpt><trkpt lat="44.0075621" lon="7.75174"><ele>1069.0</ele><time>2026-04-09T14:25:25.322Z</time></trkpt><trkpt lat="44.0076311" lon="7.7516594"><ele>1069.0</ele><time>2026-04-09T14:25:26.321Z</time></trkpt><trkpt lat="44.007677" lon="7.7515958"><ele>1069.2</ele><time>2026-04-09T14:25:27.322Z</time></trkpt><trkpt lat="44.0076748" lon="7.7514794"><ele>1069.4</ele><time>2026-04-09T14:25:29.321Z</time></trkpt><trkpt lat="44.007586" lon="7.7514799"><ele>1069.6</ele><time>2026-04-09T14:25:31.322Z</time></trkpt><trkpt lat="44.0075049" lon="7.7515285"><ele>1069.8</ele><time>2026-04-09T14:25:32.321Z</time></trkpt><trkpt lat="44.0074085" lon="7.7515967"><ele>1070.0</ele><time>2026-04-09T14:25:33.321Z</time></trkpt><trkpt lat="44.0073018" lon="7.7516519"><ele>1069.75</ele><time>2026-04-09T14:25:34.322Z</time></trkpt><trkpt lat="44.0071826" lon="7.7516989"><ele>1069.5</ele><time>2026-04-09T14:25:35.321Z</time></trkpt><trkpt lat="44.0070621" lon="7.7517569"><ele>1069.25</ele><time>2026-04-09T14:25:36.321Z</time></trkpt><trkpt lat="44.0069545" lon="7.7518277"><ele>1069.0</ele><time>2026-04-09T14:25:37.322Z</time></trkpt><trkpt lat="44.006864" lon="7.7519285"><ele>1069.0</ele><time>2026-04-09T14:25:38.321Z</time></trkpt><trkpt lat="44.0067768" lon="7.7520397"><ele>1069.0</ele><time>2026-04-09T14:25:39.322Z</time></trkpt><trkpt lat="44.0066735" lon="7.7521566"><ele>1069.0</ele><time>2026-04-09T14:25:40.322Z</time></trkpt><trkpt lat="44.0065662" lon="7.7522551"><ele>1069.0</ele><time>2026-04-09T14:25:41.321Z</time></trkpt><trkpt lat="44.0064575" lon="7.7523455"><ele>1075.5</ele><time>2026-04-09T14:25:42.321Z</time></trkpt><trkpt lat="44.00634" lon="7.7524176"><ele>1082.0</ele><time>2026-04-09T14:25:43.322Z</time></trkpt><trkpt lat="44.0062224" lon="7.7524865"><ele>1088.5</ele><time>2026-04-09T14:25:44.322Z</time></trkpt><trkpt lat="44.0060924" lon="7.75256"><ele>1095.0</ele><time>2026-04-09T14:25:45.321Z</time></trkpt><trkpt lat="44.0059682" lon="7.752638"><ele>1091.0</ele><time>2026-04-09T14:25:46.321Z</time></trkpt><trkpt lat="44.0058514" lon="7.7527185"><ele>1087.0</ele><time>2026-04-09T14:25:47.322Z</time></trkpt><trkpt lat="44.0057411" lon="7.7528109"><ele>1083.0</ele><time>2026-04-09T14:25:48.321Z</time></trkpt><trkpt lat="44.0056412" lon="7.7529074"><ele>1079.0</ele><time>2026-04-09T14:25:49.322Z</time></trkpt><trkpt lat="44.0055498" lon="7.7529901"><ele>1079.0</ele><time>2026-04-09T14:25:50.322Z</time></trkpt><trkpt lat="44.0054444" lon="7.7530561"><ele>1079.0</ele><time>2026-04-09T14:25:51.321Z</time></trkpt><trkpt lat="44.0053334" lon="7.7531123"><ele>1079.0</ele><time>2026-04-09T14:25:52.322Z</time></trkpt><trkpt lat="44.0052242" lon="7.7531611"><ele>1079.0</ele><time>2026-04-09T14:25:53.321Z</time></trkpt><trkpt lat="44.0051273" lon="7.7532008"><ele>1079.0</ele><time>2026-04-09T14:25:54.321Z</time></trkpt><trkpt lat="44.0050473" lon="7.7532163"><ele>1079.0</ele><time>2026-04-09T14:25:55.321Z</time></trkpt><trkpt lat="44.0049628" lon="7.7531677"><ele>1079.0</ele><time>2026-04-09T14:25:57.322Z</time></trkpt><trkpt lat="44.0049686" lon="7.7530782"><ele>1079.0</ele><time>2026-04-09T14:25:58.322Z</time></trkpt><trkpt lat="44.0050778" lon="7.7529759"><ele>1079.0</ele><time>2026-04-09T14:26:00.322Z</time></trkpt><trkpt lat="44.0051546" lon="7.752924"><ele>1079.0</ele><time>2026-04-09T14:26:01.322Z</time></trkpt><trkpt lat="44.0052312" lon="7.7528659"><ele>1079.0</ele><time>2026-04-09T14:26:02.321Z</time></trkpt><trkpt lat="44.0053017" lon="7.7527936"><ele>1079.0</ele><time>2026-04-09T14:26:03.321Z</time></trkpt><trkpt lat="44.0053677" lon="7.7526844"><ele>1079.0</ele><time>2026-04-09T14:26:04.321Z</time></trkpt><trkpt lat="44.0054444" lon="7.7525688"><ele>1079.0</ele><time>2026-04-09T14:26:05.322Z</time></trkpt><trkpt lat="44.0055338" lon="7.7524531"><ele>1079.0</ele><time>2026-04-09T14:26:06.322Z</time></trkpt><trkpt lat="44.0056316" lon="7.7523465"><ele>1083.0</ele><time>2026-04-09T14:26:07.321Z</time></trkpt><trkpt lat="44.0057224" lon="7.7522263"><ele>1087.0</ele><time>2026-04-09T14:26:08.322Z</time></trkpt><trkpt lat="44.0058028" lon="7.7520841"><ele>1091.0</ele><time>2026-04-09T14:26:09.321Z</time></trkpt><trkpt lat="44.005873" lon="7.7519358"><ele>1095.0</ele><time>2026-04-09T14:26:10.321Z</time></trkpt><trkpt lat="44.0059412" lon="7.7517902"><ele>1099.0</ele><time>2026-04-09T14:26:11.322Z</time></trkpt><trkpt lat="44.0060012" lon="7.7516401"><ele>1103.0</ele><time>2026-04-09T14:26:12.321Z</time></trkpt><trkpt lat="44.0060532" lon="7.7514815"><ele>1107.0</ele><time>2026-04-09T14:26:13.322Z</time></trkpt><trkpt lat="44.0061097" lon="7.7513199"><ele>1111.0</ele><time>2026-04-09T14:26:14.322Z</time></trkpt><trkpt lat="44.0061733" lon="7.7511702"><ele>1116.25</ele><time>2026-04-09T14:26:15.321Z</time></trkpt><trkpt lat="44.0062423" lon="7.7510272"><ele>1121.5</ele><time>2026-04-09T14:26:16.322Z</time></trkpt><trkpt lat="44.0063147" lon="7.7508828"><ele>1126.75</ele><time>2026-04-09T14:26:17.321Z</time></trkpt><trkpt lat="44.0063935" lon="7.7507421"><ele>1132.0</ele><time>2026-04-09T14:26:18.322Z</time></trkpt><trkpt lat="44.0064779" lon="7.750609"><ele>1132.0</ele><time>2026-04-09T14:26:19.322Z</time></trkpt><trkpt lat="44.0065578" lon="7.7504817"><ele>1132.0</ele><time>2026-04-09T14:26:20.321Z</time></trkpt><trkpt lat="44.0066367" lon="7.7503615"><ele>1132.0</ele><time>2026-04-09T14:26:21.322Z</time></trkpt><trkpt lat="44.0067257" lon="7.7502614"><ele>1132.0</ele><time>2026-04-09T14:26:22.322Z</time></trkpt><trkpt lat="44.0068278" lon="7.7501734"><ele>1132.0</ele><time>2026-04-09T14:26:23.321Z</time></trkpt><trkpt lat="44.0069321" lon="7.7500922"><ele>1132.0</ele><time>2026-04-09T14:26:24.322Z</time></trkpt><trkpt lat="44.007029" lon="7.7499934"><ele>1132.0</ele><time>2026-04-09T14:26:25.321Z</time></trkpt><trkpt lat="44.0071165" lon="7.7498562"><ele>1132.0</ele><time>2026-04-09T14:26:26.322Z</time></trkpt><trkpt lat="44.0071929" lon="7.7496962"><ele>1132.0</ele><time>2026-04-09T14:26:27.321Z</time></trkpt><trkpt lat="44.0072703" lon="7.7495276"><ele>1132.0</ele><time>2026-04-09T14:26:28.322Z</time></trkpt><trkpt lat="44.0073489" lon="7.7493498"><ele>1132.0</ele><time>2026-04-09T14:26:29.322Z</time></trkpt><trkpt lat="44.0074228" lon="7.749179"><ele>1132.0</ele><time>2026-04-09T14:26:30.321Z</time></trkpt><trkpt lat="44.0074994" lon="7.7490065"><ele>1134.25</ele><time>2026-04-09T14:26:31.321Z</time></trkpt><trkpt lat="44.0075921" lon="7.7488539"><ele>1136.5</ele><time>2026-04-09T14:26:32.322Z</time></trkpt><trkpt lat="44.0076954" lon="7.7487256"><ele>1138.75</ele><time>2026-04-09T14:26:33.322Z</time></trkpt><trkpt lat="44.007805" lon="7.7486205"><ele>1141.0</ele><time>2026-04-09T14:26:34.321Z</time></trkpt><trkpt lat="44.0079266" lon="7.7485395"><ele>1142.0</ele><time>2026-04-09T14:26:35.321Z</time></trkpt><trkpt lat="44.0080576" lon="7.7484808"><ele>1143.0</ele><time>2026-04-09T14:26:36.321Z</time></trkpt><trkpt lat="44.0082044" lon="7.7484385"><ele>1144.0</ele><time>2026-04-09T14:26:37.321Z</time></trkpt><trkpt lat="44.0083572" lon="7.7483674"><ele>1145.0</ele><time>2026-04-09T14:26:38.321Z</time></trkpt><trkpt lat="44.0085136" lon="7.7482818"><ele>1145.0</ele><time>2026-04-09T14:26:39.322Z</time></trkpt><trkpt lat="44.0086698" lon="7.7481958"><ele>1145.0</ele><time>2026-04-09T14:26:40.321Z</time></trkpt><trkpt lat="44.0088352" lon="7.7481312"><ele>1145.0</ele><time>2026-04-09T14:26:41.322Z</time></trkpt><trkpt lat="44.0089995" lon="7.7480699"><ele>1145.0</ele><time>2026-04-09T14:26:42.322Z</time></trkpt><trkpt lat="44.0091659" lon="7.7480315"><ele>1145.0</ele><time>2026-04-09T14:26:43.321Z</time></trkpt><trkpt lat="44.0093349" lon="7.7480146"><ele>1145.0</ele><time>2026-04-09T14:26:44.321Z</time></trkpt><trkpt lat="44.0095096" lon="7.7480128"><ele>1145.0</ele><time>2026-04-09T14:26:45.325Z</time></trkpt><trkpt lat="44.0096859" lon="7.7480089"><ele>1145.0</ele><time>2026-04-09T14:26:46.324Z</time></trkpt><trkpt lat="44.009862" lon="7.7479989"><ele>1145.0</ele><time>2026-04-09T14:26:47.324Z</time></trkpt><trkpt lat="44.0100368" lon="7.7479858"><ele>1147.0</ele><time>2026-04-09T14:26:48.325Z</time></trkpt><trkpt lat="44.0102165" lon="7.7479882"><ele>1149.0</ele><time>2026-04-09T14:26:49.325Z</time></trkpt><trkpt lat="44.0103981" lon="7.7479921"><ele>1151.0</ele><time>2026-04-09T14:26:50.324Z</time></trkpt><trkpt lat="44.0105727" lon="7.7479886"><ele>1151.0</ele><time>2026-04-09T14:26:51.325Z</time></trkpt><trkpt lat="44.010739" lon="7.7479703"><ele>1151.0</ele><time>2026-04-09T14:26:52.324Z</time></trkpt><trkpt lat="44.0108986" lon="7.7479513"><ele>1151.0</ele><time>2026-04-09T14:26:53.324Z</time></trkpt><trkpt lat="44.0110594" lon="7.7479473"><ele>1156.0</ele><time>2026-04-09T14:26:54.325Z</time></trkpt><trkpt lat="44.0112228" lon="7.7479654"><ele>1161.0</ele><time>2026-04-09T14:26:55.325Z</time></trkpt><trkpt lat="44.0113932" lon="7.7479854"><ele>1166.0</ele><time>2026-04-09T14:26:56.324Z</time></trkpt><trkpt lat="44.0115584" lon="7.7480024"><ele>1172.25</ele><time>2026-04-09T14:26:57.324Z</time></trkpt><trkpt lat="44.0117053" lon="7.7480228"><ele>1178.5</ele><time>2026-04-09T14:26:58.324Z</time></trkpt><trkpt lat="44.0118355" lon="7.7480587"><ele>1184.75</ele><time>2026-04-09T14:26:59.324Z</time></trkpt><trkpt lat="44.0119765" lon="7.7480715"><ele>1191.0</ele><time>2026-04-09T14:27:00.324Z</time></trkpt><trkpt lat="44.0121111" lon="7.7480702"><ele>1191.0</ele><time>2026-04-09T14:27:01.325Z</time></trkpt><trkpt lat="44.0122062" lon="7.7480544"><ele>1191.0</ele><time>2026-04-09T14:27:02.324Z</time></trkpt><trkpt lat="44.0122966" lon="7.7480165"><ele>1191.0</ele><time>2026-04-09T14:27:03.324Z</time></trkpt><trkpt lat="44.0123936" lon="7.7479576"><ele>1191.0</ele><time>2026-04-09T14:27:04.324Z</time></trkpt><trkpt lat="44.012472" lon="7.7478666"><ele>1191.0</ele><time>2026-04-09T14:27:05.324Z</time></trkpt><trkpt lat="44.0125429" lon="7.7477785"><ele>1190.8333333333333</ele><time>2026-04-09T14:27:06.324Z</time></trkpt><trkpt lat="44.0126007" lon="7.7477082"><ele>1190.6666666666667</ele><time>2026-04-09T14:27:07.324Z</time></trkpt><trkpt lat="44.0126623" lon="7.7476804"><ele>1190.5</ele><time>2026-04-09T14:27:08.324Z</time></trkpt><trkpt lat="44.0127347" lon="7.7476734"><ele>1190.3333333333335</ele><time>2026-04-09T14:27:09.324Z</time></trkpt><trkpt lat="44.0128177" lon="7.7476774"><ele>1190.1666666666667</ele><time>2026-04-09T14:27:10.324Z</time></trkpt><trkpt lat="44.0129032" lon="7.7476839"><ele>1190.0</ele><time>2026-04-09T14:27:11.324Z</time></trkpt><trkpt lat="44.0129932" lon="7.7476613"><ele>1190.0</ele><time>2026-04-09T14:27:12.325Z</time></trkpt><trkpt lat="44.0130871" lon="7.747625"><ele>1190.0</ele><time>2026-04-09T14:27:13.324Z</time></trkpt><trkpt lat="44.0131765" lon="7.7475811"><ele>1190.0</ele><time>2026-04-09T14:27:14.324Z</time></trkpt><trkpt lat="44.0132716" lon="7.7475097"><ele>1190.0</ele><time>2026-04-09T14:27:15.325Z</time></trkpt><trkpt lat="44.0133648" lon="7.7474289"><ele>1190.0</ele><time>2026-04-09T14:27:16.325Z</time></trkpt><trkpt lat="44.0134586" lon="7.7473488"><ele>1189.1666666666667</ele><time>2026-04-09T14:27:17.324Z</time></trkpt><trkpt lat="44.0135399" lon="7.7472577"><ele>1188.3333333333335</ele><time>2026-04-09T14:27:18.325Z</time></trkpt><trkpt lat="44.013602" lon="7.7471645"><ele>1187.5</ele><time>2026-04-09T14:27:19.324Z</time></trkpt><trkpt lat="44.0136467" lon="7.7470778"><ele>1186.6666666666667</ele><time>2026-04-09T14:27:20.324Z</time></trkpt><trkpt lat="44.0136755" lon="7.7469977"><ele>1185.8333333333333</ele><time>2026-04-09T14:27:21.324Z</time></trkpt><trkpt lat="44.0137162" lon="7.7468899"><ele>1185.0</ele><time>2026-04-09T14:27:23.325Z</time></trkpt><trkpt lat="44.01376" lon="7.7467981"><ele>1185.0</ele><time>2026-04-09T14:27:27.324Z</time></trkpt><trkpt lat="44.0138164" lon="7.7467325"><ele>1185.0</ele><time>2026-04-09T14:27:29.324Z</time></trkpt><trkpt lat="44.0138919" lon="7.7466733"><ele>1185.0</ele><time>2026-04-09T14:27:31.324Z</time></trkpt><trkpt lat="44.0139884" lon="7.7466219"><ele>1185.0</ele><time>2026-04-09T14:27:33.325Z</time></trkpt><trkpt lat="44.0140865" lon="7.7465995"><ele>1185.0</ele><time>2026-04-09T14:27:35.324Z</time></trkpt><trkpt lat="44.0141864" lon="7.7465708"><ele>1194.4</ele><time>2026-04-09T14:27:37.324Z</time></trkpt><trkpt lat="44.014297" lon="7.7465373"><ele>1203.8</ele><time>2026-04-09T14:27:39.325Z</time></trkpt><trkpt lat="44.0143845" lon="7.7465022"><ele>1213.2</ele><time>2026-04-09T14:27:41.324Z</time></trkpt><trkpt lat="44.0145031" lon="7.7464627"><ele>1222.6</ele><time>2026-04-09T14:27:43.324Z</time></trkpt><trkpt lat="44.0145674" lon="7.746428"><ele>1232.0</ele><time>2026-04-09T14:27:44.325Z</time></trkpt><trkpt lat="44.0146292" lon="7.7463829"><ele>1232.0</ele><time>2026-04-09T14:27:45.325Z</time></trkpt><trkpt lat="44.0146912" lon="7.7463392"><ele>1232.0</ele><time>2026-04-09T14:27:46.325Z</time></trkpt><trkpt lat="44.0147451" lon="7.7462863"><ele>1232.0</ele><time>2026-04-09T14:27:47.324Z</time></trkpt><trkpt lat="44.014791" lon="7.7462237"><ele>1232.0</ele><time>2026-04-09T14:27:48.324Z</time></trkpt><trkpt lat="44.014837" lon="7.7461533"><ele>1232.0</ele><time>2026-04-09T14:27:49.325Z</time></trkpt><trkpt lat="44.0148817" lon="7.7460802"><ele>1232.0</ele><time>2026-04-09T14:27:50.325Z</time></trkpt><trkpt lat="44.0149215" lon="7.7460077"><ele>1232.0</ele><time>2026-04-09T14:27:51.325Z</time></trkpt><trkpt lat="44.0149773" lon="7.7458727"><ele>1232.0</ele><time>2026-04-09T14:27:53.325Z</time></trkpt><trkpt lat="44.0150453" lon="7.745772"><ele>1232.0</ele><time>2026-04-09T14:27:55.325Z</time></trkpt><trkpt lat="44.0151691" lon="7.7457496"><ele>1232.0</ele><time>2026-04-09T14:27:57.324Z</time></trkpt><trkpt lat="44.0152859" lon="7.745768"><ele>1232.0</ele><time>2026-04-09T14:27:59.324Z</time></trkpt><trkpt lat="44.0153945" lon="7.7458145"><ele>1232.0</ele><time>2026-04-09T14:28:01.324Z</time></trkpt><trkpt lat="44.0154674" lon="7.7459234"><ele>1232.0</ele><time>2026-04-09T14:28:03.325Z</time></trkpt><trkpt lat="44.0155214" lon="7.7460771"><ele>1232.0</ele><time>2026-04-09T14:28:05.325Z</time></trkpt><trkpt lat="44.0155632" lon="7.7461477"><ele>1232.0</ele><time>2026-04-09T14:28:06.324Z</time></trkpt><trkpt lat="44.0156132" lon="7.7462206"><ele>1232.0</ele><time>2026-04-09T14:28:07.325Z</time></trkpt><trkpt lat="44.0156634" lon="7.7462785"><ele>1232.0</ele><time>2026-04-09T14:28:08.325Z</time></trkpt><trkpt lat="44.0157186" lon="7.7463347"><ele>1234.4285714285713</ele><time>2026-04-09T14:28:09.325Z</time></trkpt><trkpt lat="44.0157808" lon="7.7463781"><ele>1236.857142857143</ele><time>2026-04-09T14:28:10.324Z</time></trkpt><trkpt lat="44.0158448" lon="7.7464114"><ele>1239.2857142857142</ele><time>2026-04-09T14:28:11.325Z</time></trkpt><trkpt lat="44.0159114" lon="7.7464437"><ele>1241.7142857142858</ele><time>2026-04-09T14:28:12.324Z</time></trkpt><trkpt lat="44.0159831" lon="7.7464765"><ele>1244.142857142857</ele><time>2026-04-09T14:28:13.325Z</time></trkpt><trkpt lat="44.0160636" lon="7.7465038"><ele>1246.5714285714284</ele><time>2026-04-09T14:28:14.325Z</time></trkpt><trkpt lat="44.0161397" lon="7.7465268"><ele>1249.0</ele><time>2026-04-09T14:28:15.324Z</time></trkpt><trkpt lat="44.0162072" lon="7.7465438"><ele>1249.0</ele><time>2026-04-09T14:28:16.325Z</time></trkpt><trkpt lat="44.0162773" lon="7.7465485"><ele>1249.0</ele><time>2026-04-09T14:28:17.324Z</time></trkpt><trkpt lat="44.0163427" lon="7.7465428"><ele>1249.0</ele><time>2026-04-09T14:28:18.324Z</time></trkpt><trkpt lat="44.0164073" lon="7.7465481"><ele>1249.0</ele><time>2026-04-09T14:28:19.324Z</time></trkpt><trkpt lat="44.0164731" lon="7.7465387"><ele>1249.0</ele><time>2026-04-09T14:28:20.325Z</time></trkpt><trkpt lat="44.0165927" lon="7.7465495"><ele>1249.0</ele><time>2026-04-09T14:28:22.324Z</time></trkpt><trkpt lat="44.0167142" lon="7.7465393"><ele>1248.3333333333333</ele><time>2026-04-09T14:28:24.325Z</time></trkpt><trkpt lat="44.0167896" lon="7.7465042"><ele>1247.6666666666665</ele><time>2026-04-09T14:28:26.325Z</time></trkpt><trkpt lat="44.0168534" lon="7.746485"><ele>1247.0</ele><time>2026-04-09T14:31:52.325Z</time></trkpt><trkpt lat="44.0169401" lon="7.7465055"><ele>1246.3333333333333</ele><time>2026-04-09T14:31:55.325Z</time></trkpt><trkpt lat="44.0170426" lon="7.7465069"><ele>1245.6666666666667</ele><time>2026-04-09T14:31:57.324Z</time></trkpt><trkpt lat="44.0171455" lon="7.7465002"><ele>1245.0</ele><time>2026-04-09T14:31:59.324Z</time></trkpt><trkpt lat="44.0172732" lon="7.7465097"><ele>1245.0</ele><time>2026-04-09T14:32:01.325Z</time></trkpt><trkpt lat="44.0173476" lon="7.7465121"><ele>1245.0</ele><time>2026-04-09T14:32:02.325Z</time></trkpt><trkpt lat="44.0174195" lon="7.7465173"><ele>1245.0</ele><time>2026-04-09T14:32:03.325Z</time></trkpt><trkpt lat="44.0174848" lon="7.7465084"><ele>1245.0</ele><time>2026-04-09T14:32:04.325Z</time></trkpt><trkpt lat="44.0176107" lon="7.7464661"><ele>1245.0</ele><time>2026-04-09T14:32:06.324Z</time></trkpt><trkpt lat="44.0176752" lon="7.7464716"><ele>1245.0</ele><time>2026-04-09T14:32:07.325Z</time></trkpt><trkpt lat="44.0177436" lon="7.7464751"><ele>1245.0</ele><time>2026-04-09T14:32:08.324Z</time></trkpt><trkpt lat="44.0178106" lon="7.7464834"><ele>1245.0</ele><time>2026-04-09T14:32:09.324Z</time></trkpt><trkpt lat="44.017878" lon="7.746499"><ele>1245.0</ele><time>2026-04-09T14:32:10.324Z</time></trkpt><trkpt lat="44.0179469" lon="7.7465083"><ele>1245.0</ele><time>2026-04-09T14:32:11.324Z</time></trkpt><trkpt lat="44.0180578" lon="7.746554"><ele>1245.0</ele><time>2026-04-09T14:32:13.325Z</time></trkpt><trkpt lat="44.0181658" lon="7.7466084"><ele>1245.0</ele><time>2026-04-09T14:32:15.325Z</time></trkpt><trkpt lat="44.0182671" lon="7.7466448"><ele>1249.3333333333333</ele><time>2026-04-09T14:32:17.324Z</time></trkpt><trkpt lat="44.0183844" lon="7.746628"><ele>1253.6666666666667</ele><time>2026-04-09T14:32:19.325Z</time></trkpt><trkpt lat="44.0184484" lon="7.7466312"><ele>1258.0</ele><time>2026-04-09T14:32:20.324Z</time></trkpt><trkpt lat="44.01857" lon="7.746662"><ele>1262.3333333333335</ele><time>2026-04-09T14:32:22.324Z</time></trkpt><trkpt lat="44.0186352" lon="7.7466653"><ele>1266.6666666666667</ele><time>2026-04-09T14:32:23.324Z</time></trkpt><trkpt lat="44.0187023" lon="7.7466593"><ele>1271.0</ele><time>2026-04-09T14:32:24.324Z</time></trkpt><trkpt lat="44.0187674" lon="7.7466606"><ele>1271.0000000000002</ele><time>2026-04-09T14:32:25.325Z</time></trkpt><trkpt lat="44.0188372" lon="7.7466669"><ele>1271.0</ele><time>2026-04-09T14:32:26.324Z</time></trkpt><trkpt lat="44.0189093" lon="7.7466942"><ele>1271.0</ele><time>2026-04-09T14:32:27.324Z</time></trkpt><trkpt lat="44.0189817" lon="7.7467106"><ele>1271.0</ele><time>2026-04-09T14:32:28.324Z</time></trkpt><trkpt lat="44.019059" lon="7.7467175"><ele>1271.0</ele><time>2026-04-09T14:32:29.324Z</time></trkpt><trkpt lat="44.019135" lon="7.7467154"><ele>1271.0000000000002</ele><time>2026-04-09T14:32:30.325Z</time></trkpt><trkpt lat="44.0192077" lon="7.7467052"><ele>1271.0</ele><time>2026-04-09T14:32:31.324Z</time></trkpt><trkpt lat="44.0192821" lon="7.746695"><ele>1272.5714285714287</ele><time>2026-04-09T14:32:32.325Z</time></trkpt><trkpt lat="44.0193636" lon="7.7466645"><ele>1274.142857142857</ele><time>2026-04-09T14:32:33.324Z</time></trkpt><trkpt lat="44.0194334" lon="7.7466436"><ele>1275.7142857142858</ele><time>2026-04-09T14:32:34.324Z</time></trkpt><trkpt lat="44.0195026" lon="7.7466195"><ele>1277.2857142857142</ele><time>2026-04-09T14:32:35.324Z</time></trkpt><trkpt lat="44.019568" lon="7.7465962"><ele>1278.857142857143</ele><time>2026-04-09T14:32:36.325Z</time></trkpt><trkpt lat="44.0196309" lon="7.7465683"><ele>1280.4285714285716</ele><time>2026-04-09T14:32:37.324Z</time></trkpt><trkpt lat="44.0196945" lon="7.7465485"><ele>1282.0</ele><time>2026-04-09T14:32:38.325Z</time></trkpt><trkpt lat="44.0197599" lon="7.746536"><ele>1282.0</ele><time>2026-04-09T14:32:39.324Z</time></trkpt><trkpt lat="44.0198242" lon="7.746516"><ele>1282.0</ele><time>2026-04-09T14:32:40.325Z</time></trkpt><trkpt lat="44.0198914" lon="7.7464836"><ele>1282.0</ele><time>2026-04-09T14:32:41.325Z</time></trkpt><trkpt lat="44.0199615" lon="7.7464599"><ele>1282.0</ele><time>2026-04-09T14:32:42.324Z</time></trkpt><trkpt lat="44.0200341" lon="7.7464182"><ele>1282.0</ele><time>2026-04-09T14:32:43.324Z</time></trkpt><trkpt lat="44.0201034" lon="7.7463913"><ele>1282.0</ele><time>2026-04-09T14:32:44.325Z</time></trkpt><trkpt lat="44.0201668" lon="7.7463644"><ele>1282.0</ele><time>2026-04-09T14:32:45.324Z</time></trkpt><trkpt lat="44.0202333" lon="7.746338"><ele>1282.0</ele><time>2026-04-09T14:32:46.325Z</time></trkpt><trkpt lat="44.0203588" lon="7.7462848"><ele>1282.0</ele><time>2026-04-09T14:32:48.325Z</time></trkpt><trkpt lat="44.0204193" lon="7.7462501"><ele>1282.0</ele><time>2026-04-09T14:32:49.324Z</time></trkpt><trkpt lat="44.0204777" lon="7.7462171"><ele>1282.0</ele><time>2026-04-09T14:32:50.325Z</time></trkpt><trkpt lat="44.0205364" lon="7.7461807"><ele>1282.0</ele><time>2026-04-09T14:32:51.324Z</time></trkpt><trkpt lat="44.0205941" lon="7.7461337"><ele>1282.0</ele><time>2026-04-09T14:32:52.324Z</time></trkpt><trkpt lat="44.020707" lon="7.7460325"><ele>1285.4285714285716</ele><time>2026-04-09T14:32:54.325Z</time></trkpt><trkpt lat="44.0207673" lon="7.7459812"><ele>1288.857142857143</ele><time>2026-04-09T14:32:55.325Z</time></trkpt><trkpt lat="44.0208284" lon="7.7459296"><ele>1292.2857142857142</ele><time>2026-04-09T14:32:56.324Z</time></trkpt><trkpt lat="44.0208901" lon="7.7458769"><ele>1295.7142857142858</ele><time>2026-04-09T14:32:57.324Z</time></trkpt><trkpt lat="44.0209525" lon="7.7458308"><ele>1299.142857142857</ele><time>2026-04-09T14:32:58.325Z</time></trkpt><trkpt lat="44.0210146" lon="7.7457768"><ele>1302.5714285714287</ele><time>2026-04-09T14:32:59.325Z</time></trkpt><trkpt lat="44.0210733" lon="7.7457243"><ele>1306.0</ele><time>2026-04-09T14:33:00.324Z</time></trkpt><trkpt lat="44.0211305" lon="7.7456759"><ele>1306.0000000000002</ele><time>2026-04-09T14:33:01.324Z</time></trkpt><trkpt lat="44.0211905" lon="7.7456244"><ele>1306.0</ele><time>2026-04-09T14:33:02.325Z</time></trkpt><trkpt lat="44.021252" lon="7.7455741"><ele>1306.0</ele><time>2026-04-09T14:33:03.325Z</time></trkpt><trkpt lat="44.0213125" lon="7.7455332"><ele>1306.0</ele><time>2026-04-09T14:33:04.325Z</time></trkpt><trkpt lat="44.021373" lon="7.7454918"><ele>1306.0</ele><time>2026-04-09T14:33:05.325Z</time></trkpt><trkpt lat="44.0214348" lon="7.7454637"><ele>1306.0000000000002</ele><time>2026-04-09T14:33:06.325Z</time></trkpt><trkpt lat="44.0215109" lon="7.745441"><ele>1306.0</ele><time>2026-04-09T14:33:08.325Z</time></trkpt><trkpt lat="44.0216158" lon="7.7454346"><ele>1303.1999999999998</ele><time>2026-04-09T14:33:26.327Z</time></trkpt><trkpt lat="44.0216962" lon="7.7454155"><ele>1300.3999999999999</ele><time>2026-04-09T14:33:28.327Z</time></trkpt><trkpt lat="44.0218037" lon="7.7453793"><ele>1297.6</ele><time>2026-04-09T14:33:30.327Z</time></trkpt><trkpt lat="44.0219047" lon="7.7453567"><ele>1294.8</ele><time>2026-04-09T14:33:32.327Z</time></trkpt><trkpt lat="44.022003" lon="7.7453554"><ele>1292.0</ele><time>2026-04-09T14:33:34.328Z</time></trkpt><trkpt lat="44.0221097" lon="7.7453608"><ele>1292.0</ele><time>2026-04-09T14:33:36.328Z</time></trkpt><trkpt lat="44.0222211" lon="7.7453807"><ele>1292.0</ele><time>2026-04-09T14:33:38.328Z</time></trkpt><trkpt lat="44.0223291" lon="7.7453775"><ele>1292.0</ele><time>2026-04-09T14:33:40.327Z</time></trkpt><trkpt lat="44.0224331" lon="7.7453167"><ele>1292.0</ele><time>2026-04-09T14:33:42.328Z</time></trkpt><trkpt lat="44.0224874" lon="7.7452701"><ele>1292.0</ele><time>2026-04-09T14:33:43.327Z</time></trkpt><trkpt lat="44.0225473" lon="7.745221"><ele>1300.1999999999998</ele><time>2026-04-09T14:33:44.327Z</time></trkpt><trkpt lat="44.0226065" lon="7.7451729"><ele>1308.4</ele><time>2026-04-09T14:33:45.327Z</time></trkpt><trkpt lat="44.0227016" lon="7.7450937"><ele>1316.6</ele><time>2026-04-09T14:33:47.327Z</time></trkpt><trkpt lat="44.0227955" lon="7.7450324"><ele>1324.8000000000002</ele><time>2026-04-09T14:33:49.328Z</time></trkpt><trkpt lat="44.0229155" lon="7.7450151"><ele>1333.0</ele><time>2026-04-09T14:33:51.327Z</time></trkpt><trkpt lat="44.0230401" lon="7.7450297"><ele>1333.0</ele><time>2026-04-09T14:33:53.328Z</time></trkpt><trkpt lat="44.0231065" lon="7.7450219"><ele>1333.0</ele><time>2026-04-09T14:33:54.328Z</time></trkpt><trkpt lat="44.0231703" lon="7.7449914"><ele>1333.0</ele><time>2026-04-09T14:33:55.328Z</time></trkpt><trkpt lat="44.0232302" lon="7.7449424"><ele>1333.0</ele><time>2026-04-09T14:33:56.328Z</time></trkpt><trkpt lat="44.0233429" lon="7.7448667"><ele>1333.0</ele><time>2026-04-09T14:33:58.328Z</time></trkpt><trkpt lat="44.0234027" lon="7.7448186"><ele>1333.0</ele><time>2026-04-09T14:33:59.328Z</time></trkpt><trkpt lat="44.0234597" lon="7.744765"><ele>1331.6666666666665</ele><time>2026-04-09T14:34:00.327Z</time></trkpt><trkpt lat="44.0235185" lon="7.7447026"><ele>1330.3333333333333</ele><time>2026-04-09T14:34:01.327Z</time></trkpt><trkpt lat="44.023574" lon="7.744645"><ele>1329.0</ele><time>2026-04-09T14:34:02.328Z</time></trkpt><trkpt lat="44.0236315" lon="7.7445881"><ele>1327.6666666666667</ele><time>2026-04-09T14:34:03.328Z</time></trkpt><trkpt lat="44.0236807" lon="7.7445266"><ele>1326.3333333333335</ele><time>2026-04-09T14:34:04.327Z</time></trkpt><trkpt lat="44.0237731" lon="7.7444224"><ele>1325.0</ele><time>2026-04-09T14:34:06.328Z</time></trkpt><trkpt lat="44.0238201" lon="7.7443612"><ele>1331.4</ele><time>2026-04-09T14:34:07.327Z</time></trkpt><trkpt lat="44.0238622" lon="7.7442876"><ele>1337.8</ele><time>2026-04-09T14:34:08.328Z</time></trkpt><trkpt lat="44.0238938" lon="7.7442065"><ele>1344.1999999999998</ele><time>2026-04-09T14:34:09.327Z</time></trkpt><trkpt lat="44.0239342" lon="7.7440475"><ele>1350.6</ele><time>2026-04-09T14:34:11.327Z</time></trkpt><trkpt lat="44.0240197" lon="7.7439509"><ele>1357.0</ele><time>2026-04-09T14:34:13.327Z</time></trkpt><trkpt lat="44.0241064" lon="7.7439166"><ele>1353.1999999999998</ele><time>2026-04-09T14:34:15.327Z</time></trkpt><trkpt lat="44.0241635" lon="7.7438136"><ele>1349.4</ele><time>2026-04-09T14:34:17.327Z</time></trkpt><trkpt lat="44.024226" lon="7.7436767"><ele>1345.6</ele><time>2026-04-09T14:34:19.327Z</time></trkpt><trkpt lat="44.0243108" lon="7.7436094"><ele>1341.8000000000002</ele><time>2026-04-09T14:34:21.328Z</time></trkpt><trkpt lat="44.0244126" lon="7.7435983"><ele>1338.0</ele><time>2026-04-09T14:34:23.327Z</time></trkpt><trkpt lat="44.0245332" lon="7.7435904"><ele>1338.0</ele><time>2026-04-09T14:34:25.328Z</time></trkpt><trkpt lat="44.0246049" lon="7.743571"><ele>1338.0</ele><time>2026-04-09T14:34:26.328Z</time></trkpt><trkpt lat="44.0246749" lon="7.7435406"><ele>1338.0</ele><time>2026-04-09T14:34:27.327Z</time></trkpt><trkpt lat="44.0247432" lon="7.7435194"><ele>1338.0</ele><time>2026-04-09T14:34:28.328Z</time></trkpt><trkpt lat="44.0248096" lon="7.7434942"><ele>1338.0</ele><time>2026-04-09T14:34:29.327Z</time></trkpt><trkpt lat="44.0248695" lon="7.7434622"><ele>1338.0</ele><time>2026-04-09T14:34:30.328Z</time></trkpt><trkpt lat="44.0249882" lon="7.7434007"><ele>1341.3333333333333</ele><time>2026-04-09T14:34:32.327Z</time></trkpt><trkpt lat="44.0250542" lon="7.7433691"><ele>1344.6666666666667</ele><time>2026-04-09T14:34:33.327Z</time></trkpt><trkpt lat="44.0251749" lon="7.7433204"><ele>1348.0</ele><time>2026-04-09T14:34:35.327Z</time></trkpt><trkpt lat="44.0252474" lon="7.7432993"><ele>1351.3333333333335</ele><time>2026-04-09T14:34:36.328Z</time></trkpt><trkpt lat="44.0253174" lon="7.7432763"><ele>1354.6666666666667</ele><time>2026-04-09T14:34:37.327Z</time></trkpt><trkpt lat="44.0253884" lon="7.7432516"><ele>1358.0</ele><time>2026-04-09T14:34:38.327Z</time></trkpt><trkpt lat="44.0254611" lon="7.7432188"><ele>1358.0</ele><time>2026-04-09T14:34:39.327Z</time></trkpt><trkpt lat="44.0255323" lon="7.7431924"><ele>1358.0</ele><time>2026-04-09T14:34:40.327Z</time></trkpt><trkpt lat="44.0255953" lon="7.7431514"><ele>1358.0</ele><time>2026-04-09T14:34:41.328Z</time></trkpt><trkpt lat="44.0256583" lon="7.7431202"><ele>1358.0</ele><time>2026-04-09T14:34:42.328Z</time></trkpt><trkpt lat="44.0257189" lon="7.7430891"><ele>1358.0</ele><time>2026-04-09T14:34:43.328Z</time></trkpt><trkpt lat="44.0257772" lon="7.7430482"><ele>1358.0</ele><time>2026-04-09T14:34:44.327Z</time></trkpt><trkpt lat="44.0258407" lon="7.7430024"><ele>1358.0</ele><time>2026-04-09T14:34:45.327Z</time></trkpt><trkpt lat="44.0259047" lon="7.7429497"><ele>1358.142857142857</ele><time>2026-04-09T14:34:46.327Z</time></trkpt><trkpt lat="44.0259659" lon="7.7428996"><ele>1358.2857142857142</ele><time>2026-04-09T14:34:47.327Z</time></trkpt><trkpt lat="44.026026" lon="7.7428553"><ele>1358.4285714285716</ele><time>2026-04-09T14:34:48.327Z</time></trkpt><trkpt lat="44.0260958" lon="7.7428229"><ele>1358.5714285714284</ele><time>2026-04-09T14:34:49.327Z</time></trkpt><trkpt lat="44.0261714" lon="7.742811"><ele>1358.7142857142858</ele><time>2026-04-09T14:34:50.327Z</time></trkpt><trkpt lat="44.0262452" lon="7.7427998"><ele>1358.857142857143</ele><time>2026-04-09T14:34:51.328Z</time></trkpt><trkpt lat="44.0263243" lon="7.74278"><ele>1359.0</ele><time>2026-04-09T14:34:52.328Z</time></trkpt><trkpt lat="44.0264033" lon="7.7427606"><ele>1359.0</ele><time>2026-04-09T14:34:53.328Z</time></trkpt><trkpt lat="44.0264782" lon="7.742763"><ele>1359.0</ele><time>2026-04-09T14:34:54.328Z</time></trkpt><trkpt lat="44.0265508" lon="7.7427647"><ele>1359.0</ele><time>2026-04-09T14:34:55.328Z</time></trkpt><trkpt lat="44.0266269" lon="7.7427703"><ele>1359.0</ele><time>2026-04-09T14:34:56.327Z</time></trkpt><trkpt lat="44.0267069" lon="7.7427572"><ele>1359.0</ele><time>2026-04-09T14:34:57.328Z</time></trkpt><trkpt lat="44.0267851" lon="7.7427391"><ele>1359.0</ele><time>2026-04-09T14:34:58.327Z</time></trkpt><trkpt lat="44.0268652" lon="7.7427249"><ele>1357.8333333333333</ele><time>2026-04-09T14:34:59.327Z</time></trkpt><trkpt lat="44.0269464" lon="7.7427161"><ele>1356.6666666666667</ele><time>2026-04-09T14:35:00.327Z</time></trkpt><trkpt lat="44.0270302" lon="7.7426979"><ele>1355.5</ele><time>2026-04-09T14:35:01.328Z</time></trkpt><trkpt lat="44.0271105" lon="7.7426878"><ele>1354.3333333333335</ele><time>2026-04-09T14:35:02.327Z</time></trkpt><trkpt lat="44.0271819" lon="7.7426815"><ele>1353.1666666666667</ele><time>2026-04-09T14:35:03.328Z</time></trkpt><trkpt lat="44.0272578" lon="7.7426787"><ele>1352.0</ele><time>2026-04-09T14:35:04.328Z</time></trkpt><trkpt lat="44.0273336" lon="7.7426745"><ele>1356.0</ele><time>2026-04-09T14:35:05.328Z</time></trkpt><trkpt lat="44.0274151" lon="7.7426525"><ele>1360.0</ele><time>2026-04-09T14:35:06.327Z</time></trkpt><trkpt lat="44.027501" lon="7.7426172"><ele>1364.0</ele><time>2026-04-09T14:35:07.327Z</time></trkpt><trkpt lat="44.027573" lon="7.7425741"><ele>1368.0</ele><time>2026-04-09T14:35:08.328Z</time></trkpt><trkpt lat="44.0276782" lon="7.7424958"><ele>1372.0</ele><time>2026-04-09T14:35:10.327Z</time></trkpt><trkpt lat="44.0277372" lon="7.7424562"><ele>1376.0</ele><time>2026-04-09T14:35:11.327Z</time></trkpt><trkpt lat="44.0278026" lon="7.7424163"><ele>1376.0</ele><time>2026-04-09T14:35:12.327Z</time></trkpt><trkpt lat="44.0278637" lon="7.7423841"><ele>1376.0</ele><time>2026-04-09T14:35:13.328Z</time></trkpt><trkpt lat="44.027987" lon="7.7423712"><ele>1376.0</ele><time>2026-04-09T14:35:15.328Z</time></trkpt><trkpt lat="44.0280531" lon="7.7423764"><ele>1376.0</ele><time>2026-04-09T14:35:16.328Z</time></trkpt><trkpt lat="44.0281204" lon="7.7423622"><ele>1376.0</ele><time>2026-04-09T14:35:17.327Z</time></trkpt><trkpt lat="44.0282178" lon="7.7423166"><ele>1376.0</ele><time>2026-04-09T14:35:19.328Z</time></trkpt><trkpt lat="44.0283215" lon="7.7423469"><ele>1376.3333333333335</ele><time>2026-04-09T14:35:21.327Z</time></trkpt><trkpt lat="44.0284237" lon="7.7424492"><ele>1376.6666666666667</ele><time>2026-04-09T14:35:23.328Z</time></trkpt><trkpt lat="44.0284786" lon="7.7425088"><ele>1377.0</ele><time>2026-04-09T14:35:24.328Z</time></trkpt><trkpt lat="44.0285324" lon="7.742565"><ele>1377.3333333333333</ele><time>2026-04-09T14:35:25.328Z</time></trkpt><trkpt lat="44.0285858" lon="7.7426237"><ele>1377.6666666666665</ele><time>2026-04-09T14:35:26.328Z</time></trkpt><trkpt lat="44.028639" lon="7.7426841"><ele>1378.0</ele><time>2026-04-09T14:35:27.327Z</time></trkpt><trkpt lat="44.0286879" lon="7.7427442"><ele>1371.8000000000002</ele><time>2026-04-09T14:35:28.327Z</time></trkpt><trkpt lat="44.0287389" lon="7.7428041"><ele>1365.6</ele><time>2026-04-09T14:35:29.328Z</time></trkpt><trkpt lat="44.0288351" lon="7.7429178"><ele>1359.4</ele><time>2026-04-09T14:35:31.328Z</time></trkpt><trkpt lat="44.0289396" lon="7.7430201"><ele>1353.1999999999998</ele><time>2026-04-09T14:35:33.328Z</time></trkpt><trkpt lat="44.0289985" lon="7.7430777"><ele>1347.0</ele><time>2026-04-09T14:35:34.327Z</time></trkpt><trkpt lat="44.0290571" lon="7.7431213"><ele>1347.0</ele><time>2026-04-09T14:35:35.327Z</time></trkpt><trkpt lat="44.0291182" lon="7.7431427"><ele>1347.0</ele><time>2026-04-09T14:35:36.328Z</time></trkpt><trkpt lat="44.0292255" lon="7.7431395"><ele>1347.0</ele><time>2026-04-09T14:35:38.328Z</time></trkpt><trkpt lat="44.0293063" lon="7.743093"><ele>1347.0</ele><time>2026-04-09T14:35:40.327Z</time></trkpt><trkpt lat="44.0293687" lon="7.7429571"><ele>1347.0</ele><time>2026-04-09T14:35:42.328Z</time></trkpt><trkpt lat="44.0294029" lon="7.7428789"><ele>1347.0</ele><time>2026-04-09T14:35:43.327Z</time></trkpt><trkpt lat="44.0294366" lon="7.7428022"><ele>1357.0</ele><time>2026-04-09T14:35:44.328Z</time></trkpt><trkpt lat="44.0295123" lon="7.7426606"><ele>1367.0</ele><time>2026-04-09T14:35:46.327Z</time></trkpt><trkpt lat="44.0295961" lon="7.7425454"><ele>1377.0</ele><time>2026-04-09T14:35:48.328Z</time></trkpt><trkpt lat="44.0296932" lon="7.7424468"><ele>1387.0</ele><time>2026-04-09T14:35:50.328Z</time></trkpt><trkpt lat="44.0297477" lon="7.7423939"><ele>1397.0</ele><time>2026-04-09T14:35:51.327Z</time></trkpt><trkpt lat="44.0298295" lon="7.7422875"><ele>1397.0</ele><time>2026-04-09T14:35:53.327Z</time></trkpt><trkpt lat="44.0299026" lon="7.7421862"><ele>1397.0</ele><time>2026-04-09T14:35:55.328Z</time></trkpt><trkpt lat="44.0299952" lon="7.7420737"><ele>1397.0</ele><time>2026-04-09T14:35:57.328Z</time></trkpt><trkpt lat="44.0300874" lon="7.741961"><ele>1397.0</ele><time>2026-04-09T14:35:59.328Z</time></trkpt><trkpt lat="44.0301865" lon="7.7418673"><ele>1400.6666666666667</ele><time>2026-04-09T14:36:01.327Z</time></trkpt><trkpt lat="44.0302739" lon="7.7417974"><ele>1404.3333333333335</ele><time>2026-04-09T14:36:03.327Z</time></trkpt><trkpt lat="44.0303717" lon="7.7417778"><ele>1408.0</ele><time>2026-04-09T14:36:05.327Z</time></trkpt><trkpt lat="44.0304928" lon="7.7417845"><ele>1411.6666666666667</ele><time>2026-04-09T14:36:07.327Z</time></trkpt><trkpt lat="44.0305551" lon="7.7418006"><ele>1415.3333333333333</ele><time>2026-04-09T14:36:08.327Z</time></trkpt><trkpt lat="44.0306158" lon="7.7418313"><ele>1419.0</ele><time>2026-04-09T14:36:09.328Z</time></trkpt><trkpt lat="44.0306773" lon="7.7418737"><ele>1417.1666666666667</ele><time>2026-04-09T14:36:10.327Z</time></trkpt><trkpt lat="44.0307424" lon="7.7419186"><ele>1415.3333333333333</ele><time>2026-04-09T14:36:11.327Z</time></trkpt><trkpt lat="44.0308035" lon="7.7419595"><ele>1413.5</ele><time>2026-04-09T14:36:12.327Z</time></trkpt><trkpt lat="44.0309192" lon="7.7419974"><ele>1411.6666666666665</ele><time>2026-04-09T14:36:14.327Z</time></trkpt><trkpt lat="44.031037" lon="7.7419705"><ele>1409.8333333333333</ele><time>2026-04-09T14:36:16.328Z</time></trkpt><trkpt lat="44.031096" lon="7.7419243"><ele>1408.0</ele><time>2026-04-09T14:36:17.327Z</time></trkpt><trkpt lat="44.031191" lon="7.7418242"><ele>1408.0</ele><time>2026-04-09T14:36:19.327Z</time></trkpt><trkpt lat="44.0312796" lon="7.7417403"><ele>1408.0</ele><time>2026-04-09T14:36:21.327Z</time></trkpt><trkpt lat="44.0313627" lon="7.7416609"><ele>1408.0</ele><time>2026-04-09T14:36:23.328Z</time></trkpt><trkpt lat="44.0314674" lon="7.7415929"><ele>1408.0</ele><time>2026-04-09T14:36:25.327Z</time></trkpt><trkpt lat="44.0315673" lon="7.7415046"><ele>1408.0</ele><time>2026-04-09T14:36:27.328Z</time></trkpt><trkpt lat="44.0316066" lon="7.7414357"><ele>1404.4</ele><time>2026-04-09T14:36:28.328Z</time></trkpt><trkpt lat="44.0316871" lon="7.7413069"><ele>1400.8000000000002</ele><time>2026-04-09T14:36:30.328Z</time></trkpt><trkpt lat="44.0317382" lon="7.7412497"><ele>1397.2</ele><time>2026-04-09T14:36:31.327Z</time></trkpt><trkpt lat="44.0317958" lon="7.7412039"><ele>1393.6</ele><time>2026-04-09T14:36:32.328Z</time></trkpt><trkpt lat="44.03187" lon="7.7411074"><ele>1390.0</ele><time>2026-04-09T14:36:34.328Z</time></trkpt><trkpt lat="44.0319595" lon="7.74105"><ele>1396.2</ele><time>2026-04-09T14:36:36.327Z</time></trkpt><trkpt lat="44.0320339" lon="7.7410467"><ele>1402.4</ele><time>2026-04-09T14:36:37.328Z</time></trkpt><trkpt lat="44.0321002" lon="7.7410344"><ele>1408.6</ele><time>2026-04-09T14:36:38.328Z</time></trkpt><trkpt lat="44.032213" lon="7.740984"><ele>1414.8</ele><time>2026-04-09T14:36:40.328Z</time></trkpt><trkpt lat="44.032325" lon="7.740942"><ele>1421.0</ele><time>2026-04-09T14:36:42.328Z</time></trkpt><trkpt lat="44.0324361" lon="7.7408805"><ele>1415.0</ele><time>2026-04-09T14:36:44.327Z</time></trkpt><trkpt lat="44.0325391" lon="7.7408116"><ele>1409.0</ele><time>2026-04-09T14:36:46.327Z</time></trkpt><trkpt lat="44.0326517" lon="7.7407454"><ele>1403.0</ele><time>2026-04-09T14:36:48.328Z</time></trkpt><trkpt lat="44.0327092" lon="7.7407069"><ele>1397.0</ele><time>2026-04-09T14:36:49.327Z</time></trkpt><trkpt lat="44.0327891" lon="7.7406002"><ele>1391.0</ele><time>2026-04-09T14:36:51.328Z</time></trkpt><trkpt lat="44.0328343" lon="7.7404948"><ele>1391.0</ele><time>2026-04-09T14:36:53.328Z</time></trkpt><trkpt lat="44.0329108" lon="7.7404157"><ele>1391.0</ele><time>2026-04-09T14:36:55.327Z</time></trkpt><trkpt lat="44.0330147" lon="7.7403539"><ele>1391.0</ele><time>2026-04-09T14:36:57.328Z</time></trkpt><trkpt lat="44.0331174" lon="7.740285"><ele>1391.0</ele><time>2026-04-09T14:36:59.328Z</time></trkpt><trkpt lat="44.0332279" lon="7.7402277"><ele>1391.0</ele><time>2026-04-09T14:37:01.328Z</time></trkpt><trkpt lat="44.033335" lon="7.7402085"><ele>1390.3333333333335</ele><time>2026-04-09T14:37:03.327Z</time></trkpt><trkpt lat="44.0334016" lon="7.740202"><ele>1389.6666666666667</ele><time>2026-04-09T14:37:04.327Z</time></trkpt><trkpt lat="44.0334724" lon="7.7401939"><ele>1389.0</ele><time>2026-04-09T14:37:05.328Z</time></trkpt><trkpt lat="44.0335374" lon="7.7401821"><ele>1388.3333333333333</ele><time>2026-04-09T14:37:06.327Z</time></trkpt><trkpt lat="44.0336042" lon="7.7401741"><ele>1387.6666666666665</ele><time>2026-04-09T14:37:07.328Z</time></trkpt><trkpt lat="44.0337302" lon="7.7401722"><ele>1387.0</ele><time>2026-04-09T14:37:09.327Z</time></trkpt><trkpt lat="44.0337941" lon="7.7401729"><ele>1387.0</ele><time>2026-04-09T14:37:10.327Z</time></trkpt><trkpt lat="44.0338587" lon="7.7401741"><ele>1387.0</ele><time>2026-04-09T14:37:11.328Z</time></trkpt><trkpt lat="44.0339225" lon="7.7401706"><ele>1387.0</ele><time>2026-04-09T14:37:12.327Z</time></trkpt><trkpt lat="44.0340456" lon="7.740152"><ele>1387.0</ele><time>2026-04-09T14:37:14.327Z</time></trkpt><trkpt lat="44.0341099" lon="7.7401334"><ele>1387.0</ele><time>2026-04-09T14:37:15.327Z</time></trkpt><trkpt lat="44.0341739" lon="7.7401106"><ele>1387.0</ele><time>2026-04-09T14:37:16.327Z</time></trkpt><trkpt lat="44.0342338" lon="7.740077"><ele>1387.0</ele><time>2026-04-09T14:37:17.328Z</time></trkpt><trkpt lat="44.0343464" lon="7.7400084"><ele>1391.5</ele><time>2026-04-09T14:37:19.327Z</time></trkpt><trkpt lat="44.034452" lon="7.7399195"><ele>1396.0</ele><time>2026-04-09T14:37:21.328Z</time></trkpt><trkpt lat="44.0345412" lon="7.7398005"><ele>1400.5</ele><time>2026-04-09T14:37:23.328Z</time></trkpt><trkpt lat="44.0346044" lon="7.7396789"><ele>1405.0</ele><time>2026-04-09T14:37:25.328Z</time></trkpt><trkpt lat="44.0346857" lon="7.7395739"><ele>1405.0</ele><time>2026-04-09T14:37:27.328Z</time></trkpt><trkpt lat="44.034786" lon="7.739529"><ele>1405.0</ele><time>2026-04-09T14:37:29.328Z</time></trkpt><trkpt lat="44.0348537" lon="7.7395846"><ele>1405.0</ele><time>2026-04-09T14:37:31.327Z</time></trkpt><trkpt lat="44.0348906" lon="7.7396698"><ele>1405.0</ele><time>2026-04-09T14:37:33.327Z</time></trkpt><trkpt lat="44.0349243" lon="7.7397667"><ele>1405.0</ele><time>2026-04-09T14:37:35.327Z</time></trkpt><trkpt lat="44.0349414" lon="7.7398546"><ele>1405.0</ele><time>2026-04-09T14:37:50.327Z</time></trkpt><trkpt lat="44.0349668" lon="7.7399449"><ele>1405.4</ele><time>2026-04-09T14:37:52.327Z</time></trkpt><trkpt lat="44.0350338" lon="7.7400589"><ele>1405.8</ele><time>2026-04-09T14:37:55.327Z</time></trkpt><trkpt lat="44.0350974" lon="7.7401834"><ele>1406.1999999999998</ele><time>2026-04-09T14:37:57.327Z</time></trkpt><trkpt lat="44.0351614" lon="7.7402994"><ele>1406.6</ele><time>2026-04-09T14:37:59.327Z</time></trkpt><trkpt lat="44.0352315" lon="7.7404369"><ele>1407.0</ele><time>2026-04-09T14:38:01.327Z</time></trkpt><trkpt lat="44.0352975" lon="7.7405637"><ele>1409.1999999999998</ele><time>2026-04-09T14:38:03.328Z</time></trkpt><trkpt lat="44.0353654" lon="7.7406639"><ele>1411.4</ele><time>2026-04-09T14:38:05.327Z</time></trkpt><trkpt lat="44.0354294" lon="7.7407648"><ele>1413.6</ele><time>2026-04-09T14:38:07.327Z</time></trkpt><trkpt lat="44.0355013" lon="7.7408645"><ele>1415.8000000000002</ele><time>2026-04-09T14:38:09.328Z</time></trkpt><trkpt lat="44.035583" lon="7.7409691"><ele>1418.0</ele><time>2026-04-09T14:38:11.327Z</time></trkpt><trkpt lat="44.0356824" lon="7.7410609"><ele>1418.0</ele><time>2026-04-09T14:38:13.328Z</time></trkpt><trkpt lat="44.0357826" lon="7.7411161"><ele>1418.0</ele><time>2026-04-09T14:38:15.328Z</time></trkpt><trkpt lat="44.0358928" lon="7.7411701"><ele>1418.0</ele><time>2026-04-09T14:38:17.328Z</time></trkpt><trkpt lat="44.035998" lon="7.7412275"><ele>1418.0</ele><time>2026-04-09T14:38:19.328Z</time></trkpt><trkpt lat="44.0360904" lon="7.741299"><ele>1418.0</ele><time>2026-04-09T14:38:21.327Z</time></trkpt><trkpt lat="44.0361573" lon="7.7413667"><ele>1416.4</ele><time>2026-04-09T14:38:23.327Z</time></trkpt><trkpt lat="44.0362245" lon="7.7414701"><ele>1414.8000000000002</ele><time>2026-04-09T14:38:25.328Z</time></trkpt><trkpt lat="44.0362824" lon="7.7415917"><ele>1413.2</ele><time>2026-04-09T14:38:27.327Z</time></trkpt><trkpt lat="44.0363543" lon="7.7417281"><ele>1411.6</ele><time>2026-04-09T14:38:29.328Z</time></trkpt><trkpt lat="44.0364384" lon="7.7418315"><ele>1410.0</ele><time>2026-04-09T14:38:31.328Z</time></trkpt><trkpt lat="44.0365302" lon="7.741924"><ele>1408.5714285714284</ele><time>2026-04-09T14:38:33.327Z</time></trkpt><trkpt lat="44.0366309" lon="7.7419978"><ele>1407.142857142857</ele><time>2026-04-09T14:38:35.327Z</time></trkpt><trkpt lat="44.0366922" lon="7.7420283"><ele>1405.7142857142858</ele><time>2026-04-09T14:38:36.328Z</time></trkpt><trkpt lat="44.0367526" lon="7.7420626"><ele>1404.2857142857142</ele><time>2026-04-09T14:38:37.327Z</time></trkpt><trkpt lat="44.0368203" lon="7.7420925"><ele>1402.857142857143</ele><time>2026-04-09T14:38:38.327Z</time></trkpt><trkpt lat="44.0368834" lon="7.7421266"><ele>1401.4285714285713</ele><time>2026-04-09T14:38:39.327Z</time></trkpt><trkpt lat="44.0369444" lon="7.7421512"><ele>1400.0</ele><time>2026-04-09T14:38:40.328Z</time></trkpt><trkpt lat="44.037063" lon="7.7421977"><ele>1400.0</ele><time>2026-04-09T14:38:42.328Z</time></trkpt><trkpt lat="44.0371277" lon="7.7422043"><ele>1400.0</ele><time>2026-04-09T14:38:43.328Z</time></trkpt><trkpt lat="44.0372295" lon="7.7422319"><ele>1400.0</ele><time>2026-04-09T14:38:45.327Z</time></trkpt><trkpt lat="44.0373232" lon="7.7422967"><ele>1400.0</ele><time>2026-04-09T14:38:47.327Z</time></trkpt><trkpt lat="44.037415" lon="7.7423448"><ele>1400.0</ele><time>2026-04-09T14:38:49.328Z</time></trkpt><trkpt lat="44.0375258" lon="7.7423485"><ele>1400.6</ele><time>2026-04-09T14:38:51.328Z</time></trkpt><trkpt lat="44.037627" lon="7.7423513"><ele>1401.2</ele><time>2026-04-09T14:38:53.327Z</time></trkpt><trkpt lat="44.0377247" lon="7.7423237"><ele>1401.8000000000002</ele><time>2026-04-09T14:38:55.327Z</time></trkpt><trkpt lat="44.0378228" lon="7.742302"><ele>1402.4</ele><time>2026-04-09T14:38:57.328Z</time></trkpt><trkpt lat="44.0379153" lon="7.7422778"><ele>1403.0</ele><time>2026-04-09T14:38:59.327Z</time></trkpt><trkpt lat="44.0379958" lon="7.7422516"><ele>1403.0</ele><time>2026-04-09T14:39:01.328Z</time></trkpt><trkpt lat="44.0380645" lon="7.7422318"><ele>1403.0</ele><time>2026-04-09T14:39:09.327Z</time></trkpt><trkpt lat="44.0381256" lon="7.7421888"><ele>1403.0</ele><time>2026-04-09T14:39:11.328Z</time></trkpt><trkpt lat="44.0382153" lon="7.7421651"><ele>1403.0</ele><time>2026-04-09T14:39:13.328Z</time></trkpt><trkpt lat="44.0383166" lon="7.7421666"><ele>1403.0</ele><time>2026-04-09T14:39:15.327Z</time></trkpt><trkpt lat="44.0384249" lon="7.7421852"><ele>1403.0</ele><time>2026-04-09T14:39:17.327Z</time></trkpt><trkpt lat="44.0385325" lon="7.742202"><ele>1405.8000000000002</ele><time>2026-04-09T14:39:19.328Z</time></trkpt><trkpt lat="44.0386529" lon="7.7422473"><ele>1408.6</ele><time>2026-04-09T14:39:21.327Z</time></trkpt><trkpt lat="44.0387166" lon="7.7422717"><ele>1411.4</ele><time>2026-04-09T14:39:22.327Z</time></trkpt><trkpt lat="44.0388208" lon="7.7423276"><ele>1414.1999999999998</ele><time>2026-04-09T14:39:24.327Z</time></trkpt><trkpt lat="44.0389382" lon="7.7423904"><ele>1417.0</ele><time>2026-04-09T14:39:26.328Z</time></trkpt><trkpt lat="44.0390647" lon="7.742446"><ele>1417.0</ele><time>2026-04-09T14:39:28.328Z</time></trkpt><trkpt lat="44.0391272" lon="7.7424707"><ele>1417.0</ele><time>2026-04-09T14:39:29.328Z</time></trkpt><trkpt lat="44.0391897" lon="7.7424932"><ele>1417.0</ele><time>2026-04-09T14:39:30.327Z</time></trkpt><trkpt lat="44.0392789" lon="7.7425218"><ele>1417.0</ele><time>2026-04-09T14:39:32.328Z</time></trkpt><trkpt lat="44.0393493" lon="7.7425613"><ele>1417.0</ele><time>2026-04-09T14:39:34.328Z</time></trkpt><trkpt lat="44.0394124" lon="7.7426368"><ele>1417.0</ele><time>2026-04-09T14:39:36.328Z</time></trkpt><trkpt lat="44.0395079" lon="7.7427018"><ele>1418.1999999999998</ele><time>2026-04-09T14:39:38.327Z</time></trkpt><trkpt lat="44.0396193" lon="7.7427125"><ele>1419.4</ele><time>2026-04-09T14:39:40.327Z</time></trkpt><trkpt lat="44.0397285" lon="7.7427352"><ele>1420.6</ele><time>2026-04-09T14:39:42.328Z</time></trkpt><trkpt lat="44.039832" lon="7.7427571"><ele>1421.8000000000002</ele><time>2026-04-09T14:39:44.327Z</time></trkpt><trkpt lat="44.0399239" lon="7.742777"><ele>1423.0</ele><time>2026-04-09T14:39:46.327Z</time></trkpt><trkpt lat="44.0400295" lon="7.7427613"><ele>1424.3333333333333</ele><time>2026-04-09T14:39:49.402Z</time></trkpt><trkpt lat="44.0401166" lon="7.7427597"><ele>1425.6666666666665</ele><time>2026-04-09T14:39:51.403Z</time></trkpt><trkpt lat="44.0402062" lon="7.7427432"><ele>1427.0</ele><time>2026-04-09T14:39:53.405Z</time></trkpt><trkpt lat="44.0402984" lon="7.7427524"><ele>1428.3333333333333</ele><time>2026-04-09T14:39:55.406Z</time></trkpt><trkpt lat="44.0403803" lon="7.7427957"><ele>1429.6666666666667</ele><time>2026-04-09T14:39:57.259Z</time></trkpt><trkpt lat="44.0404471" lon="7.742859"><ele>1431.0</ele><time>2026-04-09T14:39:59.407Z</time></trkpt><trkpt lat="44.0404994" lon="7.7429181"><ele>1431.0</ele><time>2026-04-09T14:40:01.327Z</time></trkpt><trkpt lat="44.0405656" lon="7.7429809"><ele>1431.0</ele><time>2026-04-09T14:40:03.327Z</time></trkpt><trkpt lat="44.0406153" lon="7.7430685"><ele>1431.0</ele><time>2026-04-09T14:40:05.327Z</time></trkpt><trkpt lat="44.0406824" lon="7.7431623"><ele>1431.0</ele><time>2026-04-09T14:40:07.33Z</time></trkpt><trkpt lat="44.0407627" lon="7.7432436"><ele>1431.0</ele><time>2026-04-09T14:40:09.329Z</time></trkpt><trkpt lat="44.0408411" lon="7.7433232"><ele>1432.6</ele><time>2026-04-09T14:40:11.33Z</time></trkpt><trkpt lat="44.0408968" lon="7.7434316"><ele>1434.1999999999998</ele><time>2026-04-09T14:40:13.329Z</time></trkpt><trkpt lat="44.0409512" lon="7.743538"><ele>1435.8000000000002</ele><time>2026-04-09T14:40:15.329Z</time></trkpt><trkpt lat="44.0410212" lon="7.7436268"><ele>1437.4</ele><time>2026-04-09T14:40:17.329Z</time></trkpt><trkpt lat="44.0410982" lon="7.7437365"><ele>1439.0</ele><time>2026-04-09T14:40:19.33Z</time></trkpt><trkpt lat="44.0411602" lon="7.7438418"><ele>1439.0</ele><time>2026-04-09T14:40:21.33Z</time></trkpt><trkpt lat="44.0411803" lon="7.7439441"><ele>1439.0</ele><time>2026-04-09T14:40:24.329Z</time></trkpt><trkpt lat="44.0411831" lon="7.7440467"><ele>1439.0</ele><time>2026-04-09T14:40:32.33Z</time></trkpt><trkpt lat="44.0411658" lon="7.743961"><ele>1439.0</ele><time>2026-04-09T14:41:06.329Z</time></trkpt><trkpt lat="44.0411006" lon="7.7439704"><ele>1439.0</ele><time>2026-04-09T14:41:10.33Z</time></trkpt></trkseg><trkseg><trkpt lat="44.0411221" lon="7.7439168"><ele>1439.0</ele><time>2026-04-09T15:11:16.468Z</time></trkpt><trkpt lat="44.0411671" lon="7.7439978"><ele>1439.0</ele><time>2026-04-09T15:11:19.431Z</time></trkpt><trkpt lat="44.0412168" lon="7.7439415"><ele>1439.0</ele><time>2026-04-09T15:11:22.432Z</time></trkpt><trkpt lat="44.0411938" lon="7.7438564"><ele>1439.0</ele><time>2026-04-09T15:11:24.449Z</time></trkpt><trkpt lat="44.0411501" lon="7.7437628"><ele>1439.0</ele><time>2026-04-09T15:11:26.436Z</time></trkpt><trkpt lat="44.0410936" lon="7.7436864"><ele>1439.0</ele><time>2026-04-09T15:11:28.468Z</time></trkpt><trkpt lat="44.0410037" lon="7.7435946"><ele>1437.4</ele><time>2026-04-09T15:11:30.342Z</time></trkpt><trkpt lat="44.0409331" lon="7.7435221"><ele>1435.8000000000002</ele><time>2026-04-09T15:11:32.342Z</time></trkpt><trkpt lat="44.0408681" lon="7.7434067"><ele>1434.1999999999998</ele><time>2026-04-09T15:11:34.342Z</time></trkpt><trkpt lat="44.0407949" lon="7.7433086"><ele>1432.6</ele><time>2026-04-09T15:11:36.341Z</time></trkpt><trkpt lat="44.0407153" lon="7.7432188"><ele>1431.0</ele><time>2026-04-09T15:11:38.342Z</time></trkpt><trkpt lat="44.0406508" lon="7.7431441"><ele>1431.0</ele><time>2026-04-09T15:11:40.342Z</time></trkpt><trkpt lat="44.040582" lon="7.7430125"><ele>1431.0</ele><time>2026-04-09T15:11:43.457Z</time></trkpt><trkpt lat="44.0405416" lon="7.7429217"><ele>1431.0</ele><time>2026-04-09T15:11:45.478Z</time></trkpt><trkpt lat="44.0404774" lon="7.7428713"><ele>1431.0</ele><time>2026-04-09T15:11:48.4Z</time></trkpt><trkpt lat="44.0404107" lon="7.7428423"><ele>1431.0</ele><time>2026-04-09T15:11:51.341Z</time></trkpt><trkpt lat="44.0403548" lon="7.7427868"><ele>1431.0</ele><time>2026-04-09T15:11:53.341Z</time></trkpt><trkpt lat="44.0402766" lon="7.7427171"><ele>1431.0</ele><time>2026-04-09T15:11:56.341Z</time></trkpt><trkpt lat="44.0401884" lon="7.7427738"><ele>1431.0</ele><time>2026-04-09T15:11:58.341Z</time></trkpt><trkpt lat="44.0401196" lon="7.7427903"><ele>1431.0</ele><time>2026-04-09T15:12:00.342Z</time></trkpt><trkpt lat="44.0400471" lon="7.742799"><ele>1431.0</ele><time>2026-04-09T15:12:02.341Z</time></trkpt><trkpt lat="44.0399595" lon="7.7427798"><ele>1431.0</ele><time>2026-04-09T15:12:05.341Z</time></trkpt><trkpt lat="44.039884" lon="7.7427719"><ele>1431.0</ele><time>2026-04-09T15:12:07.342Z</time></trkpt><trkpt lat="44.0398048" lon="7.7427642"><ele>1429.6666666666667</ele><time>2026-04-09T15:12:09.342Z</time></trkpt><trkpt lat="44.0397323" lon="7.7427474"><ele>1428.3333333333333</ele><time>2026-04-09T15:12:11.342Z</time></trkpt><trkpt lat="44.0396595" lon="7.7427174"><ele>1427.0</ele><time>2026-04-09T15:12:13.341Z</time></trkpt><trkpt lat="44.039574" lon="7.7426984"><ele>1425.6666666666665</ele><time>2026-04-09T15:12:15.342Z</time></trkpt><trkpt lat="44.0394898" lon="7.7426631"><ele>1424.3333333333333</ele><time>2026-04-09T15:12:17.342Z</time></trkpt><trkpt lat="44.0394049" lon="7.7426156"><ele>1423.0</ele><time>2026-04-09T15:12:19.341Z</time></trkpt><trkpt lat="44.0393315" lon="7.7425502"><ele>1423.0</ele><time>2026-04-09T15:12:21.342Z</time></trkpt><trkpt lat="44.0392469" lon="7.7425089"><ele>1423.0</ele><time>2026-04-09T15:12:23.342Z</time></trkpt><trkpt lat="44.0391606" lon="7.7424769"><ele>1423.0</ele><time>2026-04-09T15:12:25.341Z</time></trkpt><trkpt lat="44.0390617" lon="7.7424377"><ele>1423.0</ele><time>2026-04-09T15:12:27.342Z</time></trkpt><trkpt lat="44.0389664" lon="7.742389"><ele>1423.0</ele><time>2026-04-09T15:12:29.342Z</time></trkpt><trkpt lat="44.0388574" lon="7.7423272"><ele>1422.0</ele><time>2026-04-09T15:12:31.341Z</time></trkpt><trkpt lat="44.0387751" lon="7.7423006"><ele>1421.0</ele><time>2026-04-09T15:12:33.341Z</time></trkpt><trkpt lat="44.0386909" lon="7.7422439"><ele>1420.0</ele><time>2026-04-09T15:12:35.342Z</time></trkpt><trkpt lat="44.0386029" lon="7.7422129"><ele>1419.0</ele><time>2026-04-09T15:12:37.341Z</time></trkpt><trkpt lat="44.0385128" lon="7.7421852"><ele>1418.0</ele><time>2026-04-09T15:12:39.341Z</time></trkpt><trkpt lat="44.0384367" lon="7.7421644"><ele>1417.0</ele><time>2026-04-09T15:12:41.341Z</time></trkpt><trkpt lat="44.0383637" lon="7.7421476"><ele>1414.6666666666665</ele><time>2026-04-09T15:12:43.341Z</time></trkpt><trkpt lat="44.0382873" lon="7.7421495"><ele>1412.3333333333333</ele><time>2026-04-09T15:12:45.341Z</time></trkpt><trkpt lat="44.0381884" lon="7.7421657"><ele>1410.0</ele><time>2026-04-09T15:12:47.342Z</time></trkpt><trkpt lat="44.0380996" lon="7.7421941"><ele>1407.6666666666667</ele><time>2026-04-09T15:12:49.341Z</time></trkpt><trkpt lat="44.0380231" lon="7.7422267"><ele>1405.3333333333335</ele><time>2026-04-09T15:12:51.342Z</time></trkpt><trkpt lat="44.0379343" lon="7.7422794"><ele>1403.0</ele><time>2026-04-09T15:12:53.341Z</time></trkpt><trkpt lat="44.0378473" lon="7.7423201"><ele>1403.0</ele><time>2026-04-09T15:12:55.341Z</time></trkpt><trkpt lat="44.0377546" lon="7.7423391"><ele>1403.0</ele><time>2026-04-09T15:12:57.341Z</time></trkpt><trkpt lat="44.037659" lon="7.7423446"><ele>1403.0</ele><time>2026-04-09T15:12:59.341Z</time></trkpt><trkpt lat="44.0375571" lon="7.7423397"><ele>1403.0</ele><time>2026-04-09T15:13:01.341Z</time></trkpt><trkpt lat="44.0374588" lon="7.7423297"><ele>1403.0</ele><time>2026-04-09T15:13:03.341Z</time></trkpt><trkpt lat="44.037373" lon="7.7422946"><ele>1402.4</ele><time>2026-04-09T15:13:05.342Z</time></trkpt><trkpt lat="44.0372906" lon="7.7422507"><ele>1401.8000000000002</ele><time>2026-04-09T15:13:07.342Z</time></trkpt><trkpt lat="44.0371938" lon="7.7422147"><ele>1401.2</ele><time>2026-04-09T15:13:09.341Z</time></trkpt><trkpt lat="44.0370967" lon="7.7421961"><ele>1400.6</ele><time>2026-04-09T15:13:11.342Z</time></trkpt><trkpt lat="44.0369977" lon="7.7421652"><ele>1400.0</ele><time>2026-04-09T15:13:13.342Z</time></trkpt><trkpt lat="44.0368936" lon="7.7421371"><ele>1400.0</ele><time>2026-04-09T15:13:15.345Z</time></trkpt><trkpt lat="44.0368011" lon="7.7420979"><ele>1400.0</ele><time>2026-04-09T15:13:17.346Z</time></trkpt><trkpt lat="44.0367076" lon="7.742052"><ele>1400.0</ele><time>2026-04-09T15:13:19.345Z</time></trkpt><trkpt lat="44.0366176" lon="7.7419916"><ele>1400.0</ele><time>2026-04-09T15:13:21.346Z</time></trkpt><trkpt lat="44.0365232" lon="7.7419113"><ele>1400.0</ele><time>2026-04-09T15:13:23.345Z</time></trkpt><trkpt lat="44.0364312" lon="7.7418305"><ele>1402.5</ele><time>2026-04-09T15:13:25.345Z</time></trkpt><trkpt lat="44.03635" lon="7.741725"><ele>1405.0</ele><time>2026-04-09T15:13:27.345Z</time></trkpt><trkpt lat="44.0362844" lon="7.7415872"><ele>1407.5</ele><time>2026-04-09T15:13:29.346Z</time></trkpt><trkpt lat="44.036208" lon="7.7414643"><ele>1410.0</ele><time>2026-04-09T15:13:31.346Z</time></trkpt><trkpt lat="44.0361292" lon="7.741349"><ele>1410.0</ele><time>2026-04-09T15:13:33.346Z</time></trkpt><trkpt lat="44.0360371" lon="7.7412781"><ele>1410.0</ele><time>2026-04-09T15:13:35.346Z</time></trkpt><trkpt lat="44.0359266" lon="7.7412432"><ele>1410.0</ele><time>2026-04-09T15:13:37.345Z</time></trkpt><trkpt lat="44.0358447" lon="7.741202"><ele>1410.0</ele><time>2026-04-09T15:13:39.345Z</time></trkpt><trkpt lat="44.0357638" lon="7.7411233"><ele>1410.0</ele><time>2026-04-09T15:13:41.346Z</time></trkpt><trkpt lat="44.0356704" lon="7.7410357"><ele>1413.6</ele><time>2026-04-09T15:13:43.345Z</time></trkpt><trkpt lat="44.0355825" lon="7.7409485"><ele>1417.2</ele><time>2026-04-09T15:13:45.345Z</time></trkpt><trkpt lat="44.0355123" lon="7.7408587"><ele>1420.8000000000002</ele><time>2026-04-09T15:13:47.346Z</time></trkpt><trkpt lat="44.0354338" lon="7.7407603"><ele>1424.4</ele><time>2026-04-09T15:13:49.346Z</time></trkpt><trkpt lat="44.0353475" lon="7.7406488"><ele>1428.0</ele><time>2026-04-09T15:13:51.345Z</time></trkpt><trkpt lat="44.0352767" lon="7.7405248"><ele>1428.0</ele><time>2026-04-09T15:13:53.345Z</time></trkpt><trkpt lat="44.0352125" lon="7.7403848"><ele>1428.0</ele><time>2026-04-09T15:13:55.346Z</time></trkpt><trkpt lat="44.0351435" lon="7.7402393"><ele>1428.0</ele><time>2026-04-09T15:13:57.346Z</time></trkpt><trkpt lat="44.0350734" lon="7.7401008"><ele>1428.0</ele><time>2026-04-09T15:13:59.345Z</time></trkpt><trkpt lat="44.0350392" lon="7.7400249"><ele>1428.0</ele><time>2026-04-09T15:14:00.345Z</time></trkpt><trkpt lat="44.0350057" lon="7.7399388"><ele>1423.4</ele><time>2026-04-09T15:14:01.345Z</time></trkpt><trkpt lat="44.0349454" lon="7.7397866"><ele>1418.8000000000002</ele><time>2026-04-09T15:14:03.346Z</time></trkpt><trkpt lat="44.034915" lon="7.739703"><ele>1414.2</ele><time>2026-04-09T15:14:04.345Z</time></trkpt><trkpt lat="44.0348605" lon="7.7395636"><ele>1409.6</ele><time>2026-04-09T15:14:06.346Z</time></trkpt><trkpt lat="44.0347522" lon="7.7395216"><ele>1405.0</ele><time>2026-04-09T15:14:08.346Z</time></trkpt><trkpt lat="44.0346401" lon="7.7395778"><ele>1405.0</ele><time>2026-04-09T15:14:10.345Z</time></trkpt><trkpt lat="44.0345589" lon="7.7397075"><ele>1405.0</ele><time>2026-04-09T15:14:12.346Z</time></trkpt><trkpt lat="44.0344904" lon="7.7398345"><ele>1405.0</ele><time>2026-04-09T15:14:14.346Z</time></trkpt><trkpt lat="44.0344114" lon="7.7399454"><ele>1405.0</ele><time>2026-04-09T15:14:16.346Z</time></trkpt><trkpt lat="44.0343146" lon="7.7400232"><ele>1405.0</ele><time>2026-04-09T15:14:18.345Z</time></trkpt><trkpt lat="44.0342061" lon="7.7400843"><ele>1405.0</ele><time>2026-04-09T15:14:20.345Z</time></trkpt><trkpt lat="44.0340948" lon="7.740133"><ele>1405.0</ele><time>2026-04-09T15:14:22.346Z</time></trkpt><trkpt lat="44.0339746" lon="7.7401556"><ele>1405.0</ele><time>2026-04-09T15:14:24.346Z</time></trkpt><trkpt lat="44.0338583" lon="7.7401616"><ele>1402.4285714285713</ele><time>2026-04-09T15:14:26.346Z</time></trkpt><trkpt lat="44.0337383" lon="7.7401702"><ele>1399.857142857143</ele><time>2026-04-09T15:14:28.345Z</time></trkpt><trkpt lat="44.0336737" lon="7.7401734"><ele>1397.2857142857142</ele><time>2026-04-09T15:14:29.345Z</time></trkpt><trkpt lat="44.0336072" lon="7.7401739"><ele>1394.7142857142858</ele><time>2026-04-09T15:14:30.346Z</time></trkpt><trkpt lat="44.0335423" lon="7.7401749"><ele>1392.142857142857</ele><time>2026-04-09T15:14:31.345Z</time></trkpt><trkpt lat="44.0334762" lon="7.740178"><ele>1389.5714285714287</ele><time>2026-04-09T15:14:32.346Z</time></trkpt><trkpt lat="44.0334103" lon="7.7401869"><ele>1387.0</ele><time>2026-04-09T15:14:33.345Z</time></trkpt><trkpt lat="44.0333443" lon="7.740193"><ele>1387.0</ele><time>2026-04-09T15:14:34.346Z</time></trkpt><trkpt lat="44.0332791" lon="7.7402055"><ele>1387.0</ele><time>2026-04-09T15:14:35.346Z</time></trkpt><trkpt lat="44.0332163" lon="7.740226"><ele>1387.0</ele><time>2026-04-09T15:14:36.346Z</time></trkpt><trkpt lat="44.0331177" lon="7.740306"><ele>1387.0</ele><time>2026-04-09T15:14:38.345Z</time></trkpt><trkpt lat="44.0330347" lon="7.7403887"><ele>1387.0</ele><time>2026-04-09T15:14:40.346Z</time></trkpt><trkpt lat="44.0329356" lon="7.7404367"><ele>1387.8</ele><time>2026-04-09T15:14:42.346Z</time></trkpt><trkpt lat="44.0328438" lon="7.7405"><ele>1388.6</ele><time>2026-04-09T15:14:44.346Z</time></trkpt><trkpt lat="44.0327815" lon="7.7406017"><ele>1389.3999999999999</ele><time>2026-04-09T15:14:46.346Z</time></trkpt><trkpt lat="44.0327086" lon="7.7406999"><ele>1390.1999999999998</ele><time>2026-04-09T15:14:48.345Z</time></trkpt><trkpt lat="44.0326109" lon="7.7407824"><ele>1391.0</ele><time>2026-04-09T15:14:50.346Z</time></trkpt><trkpt lat="44.0325073" lon="7.7408449"><ele>1390.8</ele><time>2026-04-09T15:14:52.345Z</time></trkpt><trkpt lat="44.0324128" lon="7.7408972"><ele>1390.6</ele><time>2026-04-09T15:14:54.346Z</time></trkpt><trkpt lat="44.0323016" lon="7.7409406"><ele>1390.4</ele><time>2026-04-09T15:14:56.345Z</time></trkpt><trkpt lat="44.032189" lon="7.7409885"><ele>1390.2</ele><time>2026-04-09T15:14:58.346Z</time></trkpt><trkpt lat="44.0320893" lon="7.741037"><ele>1390.0</ele><time>2026-04-09T15:15:00.346Z</time></trkpt><trkpt lat="44.0319812" lon="7.7410778"><ele>1390.0</ele><time>2026-04-09T15:15:02.346Z</time></trkpt><trkpt lat="44.0318723" lon="7.7411498"><ele>1390.0</ele><time>2026-04-09T15:15:04.347Z</time></trkpt><trkpt lat="44.0317786" lon="7.7412383"><ele>1390.0</ele><time>2026-04-09T15:15:06.347Z</time></trkpt><trkpt lat="44.0316943" lon="7.7413472"><ele>1390.0</ele><time>2026-04-09T15:15:08.347Z</time></trkpt><trkpt lat="44.0316215" lon="7.7414748"><ele>1394.5</ele><time>2026-04-09T15:15:10.346Z</time></trkpt><trkpt lat="44.0315492" lon="7.7415785"><ele>1399.0</ele><time>2026-04-09T15:15:12.347Z</time></trkpt><trkpt lat="44.0314423" lon="7.7416445"><ele>1403.5</ele><time>2026-04-09T15:15:14.347Z</time></trkpt><trkpt lat="44.0313385" lon="7.7417159"><ele>1408.0</ele><time>2026-04-09T15:15:16.346Z</time></trkpt><trkpt lat="44.0312333" lon="7.7418016"><ele>1410.2</ele><time>2026-04-09T15:15:18.347Z</time></trkpt><trkpt lat="44.0311384" lon="7.741892"><ele>1412.4</ele><time>2026-04-09T15:15:20.347Z</time></trkpt><trkpt lat="44.0310435" lon="7.7419844"><ele>1414.6000000000001</ele><time>2026-04-09T15:15:22.347Z</time></trkpt><trkpt lat="44.0309422" lon="7.7419962"><ele>1416.8000000000002</ele><time>2026-04-09T15:15:24.347Z</time></trkpt><trkpt lat="44.0308341" lon="7.7419412"><ele>1419.0</ele><time>2026-04-09T15:15:26.346Z</time></trkpt><trkpt lat="44.0307315" lon="7.741875"><ele>1419.0</ele><time>2026-04-09T15:15:28.346Z</time></trkpt><trkpt lat="44.0306729" lon="7.7418395"><ele>1419.0</ele><time>2026-04-09T15:15:29.347Z</time></trkpt><trkpt lat="44.0305672" lon="7.7417949"><ele>1419.0</ele><time>2026-04-09T15:15:31.347Z</time></trkpt><trkpt lat="44.0304601" lon="7.7417833"><ele>1419.0</ele><time>2026-04-09T15:15:33.347Z</time></trkpt><trkpt lat="44.0303483" lon="7.7417912"><ele>1419.0</ele><time>2026-04-09T15:15:35.346Z</time></trkpt><trkpt lat="44.0302487" lon="7.7418479"><ele>1414.6</ele><time>2026-04-09T15:15:37.346Z</time></trkpt><trkpt lat="44.0301638" lon="7.7419249"><ele>1410.2</ele><time>2026-04-09T15:15:39.347Z</time></trkpt><trkpt lat="44.0300743" lon="7.7420024"><ele>1405.8</ele><time>2026-04-09T15:15:41.346Z</time></trkpt><trkpt lat="44.0300053" lon="7.7420826"><ele>1401.3999999999999</ele><time>2026-04-09T15:15:43.346Z</time></trkpt><trkpt lat="44.0299421" lon="7.74219"><ele>1397.0</ele><time>2026-04-09T15:15:45.346Z</time></trkpt><trkpt lat="44.0298607" lon="7.7422905"><ele>1397.0</ele><time>2026-04-09T15:15:47.347Z</time></trkpt><trkpt lat="44.0297794" lon="7.7423984"><ele>1397.0</ele><time>2026-04-09T15:15:49.346Z</time></trkpt><trkpt lat="44.0296866" lon="7.7424945"><ele>1397.0</ele><time>2026-04-09T15:15:51.347Z</time></trkpt><trkpt lat="44.0296368" lon="7.7425538"><ele>1397.0</ele><time>2026-04-09T15:15:52.347Z</time></trkpt><trkpt lat="44.0295371" lon="7.7426624"><ele>1397.0</ele><time>2026-04-09T15:15:54.347Z</time></trkpt><trkpt lat="44.0294655" lon="7.7427733"><ele>1392.1999999999998</ele><time>2026-04-09T15:15:56.346Z</time></trkpt><trkpt lat="44.0293984" lon="7.7429171"><ele>1387.4</ele><time>2026-04-09T15:15:58.347Z</time></trkpt><trkpt lat="44.0293487" lon="7.7430319"><ele>1382.6</ele><time>2026-04-09T15:16:00.347Z</time></trkpt><trkpt lat="44.029298" lon="7.7431162"><ele>1377.8000000000002</ele><time>2026-04-09T15:16:02.347Z</time></trkpt><trkpt lat="44.029212" lon="7.7431587"><ele>1373.0</ele><time>2026-04-09T15:16:04.347Z</time></trkpt><trkpt lat="44.0291094" lon="7.7431285"><ele>1367.8000000000002</ele><time>2026-04-09T15:16:06.347Z</time></trkpt><trkpt lat="44.0290185" lon="7.74309"><ele>1362.6</ele><time>2026-04-09T15:16:08.346Z</time></trkpt><trkpt lat="44.0289347" lon="7.7430154"><ele>1357.4</ele><time>2026-04-09T15:16:10.346Z</time></trkpt><trkpt lat="44.0288568" lon="7.7429204"><ele>1352.1999999999998</ele><time>2026-04-09T15:16:12.346Z</time></trkpt><trkpt lat="44.0287768" lon="7.7428165"><ele>1347.0</ele><time>2026-04-09T15:16:14.346Z</time></trkpt><trkpt lat="44.0286854" lon="7.7427206"><ele>1352.8</ele><time>2026-04-09T15:16:16.346Z</time></trkpt><trkpt lat="44.0285906" lon="7.7426187"><ele>1358.6</ele><time>2026-04-09T15:16:18.347Z</time></trkpt><trkpt lat="44.0285429" lon="7.7425614"><ele>1364.3999999999999</ele><time>2026-04-09T15:16:19.346Z</time></trkpt><trkpt lat="44.0284917" lon="7.7425071"><ele>1370.1999999999998</ele><time>2026-04-09T15:16:20.346Z</time></trkpt><trkpt lat="44.0283908" lon="7.7424055"><ele>1376.0</ele><time>2026-04-09T15:16:22.346Z</time></trkpt><trkpt lat="44.0282856" lon="7.7423241"><ele>1376.0</ele><time>2026-04-09T15:16:24.347Z</time></trkpt><trkpt lat="44.0281912" lon="7.7423083"><ele>1376.0</ele><time>2026-04-09T15:16:26.347Z</time></trkpt><trkpt lat="44.0280821" lon="7.7423537"><ele>1376.0</ele><time>2026-04-09T15:16:28.346Z</time></trkpt><trkpt lat="44.02797" lon="7.7423832"><ele>1376.0</ele><time>2026-04-09T15:16:30.347Z</time></trkpt><trkpt lat="44.0278541" lon="7.742405"><ele>1376.0</ele><time>2026-04-09T15:16:32.347Z</time></trkpt><trkpt lat="44.0277945" lon="7.7424438"><ele>1376.0</ele><time>2026-04-09T15:16:33.346Z</time></trkpt><trkpt lat="44.02773" lon="7.7424842"><ele>1376.0</ele><time>2026-04-09T15:16:34.346Z</time></trkpt><trkpt lat="44.0276687" lon="7.7425277"><ele>1376.0</ele><time>2026-04-09T15:16:35.346Z</time></trkpt><trkpt lat="44.0276066" lon="7.7425722"><ele>1376.0</ele><time>2026-04-09T15:16:36.347Z</time></trkpt><trkpt lat="44.0275084" lon="7.7426074"><ele>1376.0</ele><time>2026-04-09T15:16:38.346Z</time></trkpt><trkpt lat="44.0274028" lon="7.7426794"><ele>1376.0</ele><time>2026-04-09T15:16:40.347Z</time></trkpt><trkpt lat="44.0273392" lon="7.7426966"><ele>1376.5714285714287</ele><time>2026-04-09T15:16:41.346Z</time></trkpt><trkpt lat="44.0272742" lon="7.7426948"><ele>1377.142857142857</ele><time>2026-04-09T15:16:42.347Z</time></trkpt><trkpt lat="44.0271983" lon="7.7426979"><ele>1377.7142857142858</ele><time>2026-04-09T15:16:43.347Z</time></trkpt><trkpt lat="44.0271229" lon="7.7426923"><ele>1378.2857142857142</ele><time>2026-04-09T15:16:44.346Z</time></trkpt><trkpt lat="44.0270465" lon="7.7426958"><ele>1378.857142857143</ele><time>2026-04-09T15:16:45.346Z</time></trkpt><trkpt lat="44.0269712" lon="7.7427044"><ele>1379.4285714285716</ele><time>2026-04-09T15:16:46.346Z</time></trkpt><trkpt lat="44.0268964" lon="7.7427205"><ele>1380.0</ele><time>2026-04-09T15:16:47.347Z</time></trkpt><trkpt lat="44.0268229" lon="7.7427356"><ele>1376.5</ele><time>2026-04-09T15:16:48.346Z</time></trkpt><trkpt lat="44.0267452" lon="7.7427561"><ele>1373.0</ele><time>2026-04-09T15:16:49.346Z</time></trkpt><trkpt lat="44.0266701" lon="7.7427665"><ele>1369.5</ele><time>2026-04-09T15:16:50.347Z</time></trkpt><trkpt lat="44.0265958" lon="7.7427634"><ele>1366.0</ele><time>2026-04-09T15:16:51.347Z</time></trkpt><trkpt lat="44.0265211" lon="7.7427675"><ele>1362.5</ele><time>2026-04-09T15:16:52.347Z</time></trkpt><trkpt lat="44.0264445" lon="7.7427704"><ele>1359.0</ele><time>2026-04-09T15:16:53.346Z</time></trkpt><trkpt lat="44.0263699" lon="7.7427789"><ele>1359.0</ele><time>2026-04-09T15:16:54.346Z</time></trkpt><trkpt lat="44.0262953" lon="7.7427768"><ele>1359.0</ele><time>2026-04-09T15:16:55.347Z</time></trkpt><trkpt lat="44.0262312" lon="7.7427924"><ele>1359.0</ele><time>2026-04-09T15:16:56.346Z</time></trkpt><trkpt lat="44.0261532" lon="7.74281"><ele>1359.0</ele><time>2026-04-09T15:16:57.347Z</time></trkpt><trkpt lat="44.0260816" lon="7.7428506"><ele>1359.0</ele><time>2026-04-09T15:16:58.346Z</time></trkpt><trkpt lat="44.026009" lon="7.742896"><ele>1359.0</ele><time>2026-04-09T15:16:59.347Z</time></trkpt><trkpt lat="44.0258877" lon="7.7429792"><ele>1359.0</ele><time>2026-04-09T15:17:01.346Z</time></trkpt><trkpt lat="44.0258232" lon="7.7430315"><ele>1359.0</ele><time>2026-04-09T15:17:02.347Z</time></trkpt><trkpt lat="44.0257589" lon="7.7430791"><ele>1359.0</ele><time>2026-04-09T15:17:03.346Z</time></trkpt><trkpt lat="44.0256607" lon="7.7431432"><ele>1359.0</ele><time>2026-04-09T15:17:05.346Z</time></trkpt><trkpt lat="44.025571" lon="7.743176"><ele>1359.0</ele><time>2026-04-09T15:17:07.346Z</time></trkpt><trkpt lat="44.0254792" lon="7.7432247"><ele>1359.0</ele><time>2026-04-09T15:17:09.347Z</time></trkpt><trkpt lat="44.0253691" lon="7.7432567"><ele>1358.8000000000002</ele><time>2026-04-09T15:17:11.346Z</time></trkpt><trkpt lat="44.0253058" lon="7.7432893"><ele>1358.6000000000001</ele><time>2026-04-09T15:17:12.346Z</time></trkpt><trkpt lat="44.0251867" lon="7.7433254"><ele>1358.4</ele><time>2026-04-09T15:17:14.347Z</time></trkpt><trkpt lat="44.025071" lon="7.7433689"><ele>1358.2</ele><time>2026-04-09T15:17:16.347Z</time></trkpt><trkpt lat="44.0249624" lon="7.7434123"><ele>1358.0</ele><time>2026-04-09T15:17:18.346Z</time></trkpt><trkpt lat="44.0249013" lon="7.7434451"><ele>1358.8333333333335</ele><time>2026-04-09T15:17:19.347Z</time></trkpt><trkpt lat="44.0248351" lon="7.7434753"><ele>1359.6666666666667</ele><time>2026-04-09T15:17:20.346Z</time></trkpt><trkpt lat="44.0247718" lon="7.7435043"><ele>1360.5</ele><time>2026-04-09T15:17:21.347Z</time></trkpt><trkpt lat="44.0247086" lon="7.7435304"><ele>1361.3333333333333</ele><time>2026-04-09T15:17:22.346Z</time></trkpt><trkpt lat="44.0245965" lon="7.7435766"><ele>1362.1666666666665</ele><time>2026-04-09T15:17:24.346Z</time></trkpt><trkpt lat="44.0244786" lon="7.7436059"><ele>1363.0</ele><time>2026-04-09T15:17:26.346Z</time></trkpt><trkpt lat="44.0243999" lon="7.7436151"><ele>1361.8000000000002</ele><time>2026-04-09T15:17:27.346Z</time></trkpt><trkpt lat="44.0243009" lon="7.7436547"><ele>1360.6</ele><time>2026-04-09T15:17:29.347Z</time></trkpt><trkpt lat="44.0242228" lon="7.74372"><ele>1359.4</ele><time>2026-04-09T15:17:31.347Z</time></trkpt><trkpt lat="44.0241588" lon="7.7438207"><ele>1358.1999999999998</ele><time>2026-04-09T15:17:33.346Z</time></trkpt><trkpt lat="44.0240985" lon="7.7439035"><ele>1357.0</ele><time>2026-04-09T15:17:35.347Z</time></trkpt><trkpt lat="44.0240355" lon="7.7439817"><ele>1357.0</ele><time>2026-04-09T15:17:37.347Z</time></trkpt><trkpt lat="44.0239597" lon="7.7440584"><ele>1357.0</ele><time>2026-04-09T15:17:39.347Z</time></trkpt><trkpt lat="44.0239065" lon="7.7441799"><ele>1357.0</ele><time>2026-04-09T15:17:41.347Z</time></trkpt><trkpt lat="44.0238705" lon="7.7443117"><ele>1357.0</ele><time>2026-04-09T15:17:43.347Z</time></trkpt><trkpt lat="44.0237889" lon="7.7444275"><ele>1357.0</ele><time>2026-04-09T15:17:45.346Z</time></trkpt><trkpt lat="44.0237027" lon="7.7445306"><ele>1352.1999999999998</ele><time>2026-04-09T15:17:47.346Z</time></trkpt><trkpt lat="44.0236212" lon="7.744622"><ele>1347.4</ele><time>2026-04-09T15:17:49.346Z</time></trkpt><trkpt lat="44.0235389" lon="7.7447038"><ele>1342.6</ele><time>2026-04-09T15:17:51.347Z</time></trkpt><trkpt lat="44.0234553" lon="7.744781"><ele>1337.8000000000002</ele><time>2026-04-09T15:17:53.346Z</time></trkpt><trkpt lat="44.0233662" lon="7.7448518"><ele>1333.0</ele><time>2026-04-09T15:17:55.347Z</time></trkpt><trkpt lat="44.0232705" lon="7.7449283"><ele>1333.0</ele><time>2026-04-09T15:17:57.347Z</time></trkpt><trkpt lat="44.0231872" lon="7.7449862"><ele>1333.0</ele><time>2026-04-09T15:17:59.346Z</time></trkpt><trkpt lat="44.0230859" lon="7.7450287"><ele>1333.0</ele><time>2026-04-09T15:18:01.347Z</time></trkpt><trkpt lat="44.0229779" lon="7.7450149"><ele>1333.0</ele><time>2026-04-09T15:18:03.346Z</time></trkpt><trkpt lat="44.0228731" lon="7.7450327"><ele>1333.0</ele><time>2026-04-09T15:18:05.347Z</time></trkpt><trkpt lat="44.0227602" lon="7.7450781"><ele>1333.0</ele><time>2026-04-09T15:18:07.346Z</time></trkpt><trkpt lat="44.022672" lon="7.7451514"><ele>1333.0</ele><time>2026-04-09T15:18:09.346Z</time></trkpt><trkpt lat="44.0225749" lon="7.7452089"><ele>1333.0</ele><time>2026-04-09T15:18:11.347Z</time></trkpt><trkpt lat="44.0224724" lon="7.7452754"><ele>1333.0</ele><time>2026-04-09T15:18:13.347Z</time></trkpt><trkpt lat="44.0223766" lon="7.7453459"><ele>1333.0</ele><time>2026-04-09T15:18:15.346Z</time></trkpt><trkpt lat="44.0222761" lon="7.7453811"><ele>1324.8000000000002</ele><time>2026-04-09T15:18:17.347Z</time></trkpt><trkpt lat="44.0221831" lon="7.7453979"><ele>1316.6</ele><time>2026-04-09T15:18:19.346Z</time></trkpt><trkpt lat="44.0220864" lon="7.7453782"><ele>1308.4</ele><time>2026-04-09T15:18:21.346Z</time></trkpt><trkpt lat="44.0219817" lon="7.7453599"><ele>1300.1999999999998</ele><time>2026-04-09T15:18:23.347Z</time></trkpt><trkpt lat="44.0218752" lon="7.7453727"><ele>1292.0</ele><time>2026-04-09T15:18:25.347Z</time></trkpt><trkpt lat="44.021773" lon="7.7454017"><ele>1292.0</ele><time>2026-04-09T15:18:27.346Z</time></trkpt><trkpt lat="44.0216801" lon="7.7454292"><ele>1292.0</ele><time>2026-04-09T15:18:29.346Z</time></trkpt><trkpt lat="44.021586" lon="7.7454646"><ele>1292.0</ele><time>2026-04-09T15:18:31.346Z</time></trkpt><trkpt lat="44.0214885" lon="7.7454995"><ele>1292.0</ele><time>2026-04-09T15:18:33.347Z</time></trkpt><trkpt lat="44.0213859" lon="7.7455545"><ele>1292.0</ele><time>2026-04-09T15:18:35.347Z</time></trkpt><trkpt lat="44.0212777" lon="7.745625"><ele>1294.3333333333335</ele><time>2026-04-09T15:18:37.346Z</time></trkpt><trkpt lat="44.0212208" lon="7.745666"><ele>1296.6666666666667</ele><time>2026-04-09T15:18:38.347Z</time></trkpt><trkpt lat="44.0211638" lon="7.7457074"><ele>1299.0</ele><time>2026-04-09T15:18:39.346Z</time></trkpt><trkpt lat="44.0210638" lon="7.7458036"><ele>1301.3333333333333</ele><time>2026-04-09T15:18:41.347Z</time></trkpt><trkpt lat="44.0210103" lon="7.7458575"><ele>1303.6666666666665</ele><time>2026-04-09T15:18:42.347Z</time></trkpt><trkpt lat="44.0209511" lon="7.7459045"><ele>1306.0</ele><time>2026-04-09T15:18:43.346Z</time></trkpt><trkpt lat="44.0208937" lon="7.7459486"><ele>1306.0</ele><time>2026-04-09T15:18:44.347Z</time></trkpt><trkpt lat="44.0208324" lon="7.7459977"><ele>1306.0</ele><time>2026-04-09T15:18:45.347Z</time></trkpt><trkpt lat="44.0207742" lon="7.7460419"><ele>1306.0</ele><time>2026-04-09T15:18:46.347Z</time></trkpt><trkpt lat="44.0207205" lon="7.7460895"><ele>1306.0</ele><time>2026-04-09T15:18:47.347Z</time></trkpt><trkpt lat="44.0206132" lon="7.7461802"><ele>1306.0</ele><time>2026-04-09T15:18:49.346Z</time></trkpt><trkpt lat="44.0205526" lon="7.7462216"><ele>1306.0</ele><time>2026-04-09T15:18:50.346Z</time></trkpt><trkpt lat="44.0204952" lon="7.7462605"><ele>1301.1999999999998</ele><time>2026-04-09T15:18:51.347Z</time></trkpt><trkpt lat="44.0204372" lon="7.7463019"><ele>1296.3999999999999</ele><time>2026-04-09T15:18:52.347Z</time></trkpt><trkpt lat="44.020331" lon="7.7463633"><ele>1291.6</ele><time>2026-04-09T15:18:54.347Z</time></trkpt><trkpt lat="44.0202707" lon="7.7463941"><ele>1286.8</ele><time>2026-04-09T15:18:55.346Z</time></trkpt><trkpt lat="44.0201576" lon="7.7464414"><ele>1282.0</ele><time>2026-04-09T15:18:57.347Z</time></trkpt><trkpt lat="44.0200397" lon="7.7464962"><ele>1282.0</ele><time>2026-04-09T15:18:59.347Z</time></trkpt><trkpt lat="44.0199405" lon="7.7465133"><ele>1282.0</ele><time>2026-04-09T15:19:01.346Z</time></trkpt><trkpt lat="44.0198411" lon="7.7465408"><ele>1282.0</ele><time>2026-04-09T15:19:03.346Z</time></trkpt><trkpt lat="44.0197275" lon="7.7465736"><ele>1282.0</ele><time>2026-04-09T15:19:05.347Z</time></trkpt><trkpt lat="44.0196185" lon="7.7466065"><ele>1282.0</ele><time>2026-04-09T15:19:07.347Z</time></trkpt><trkpt lat="44.0195269" lon="7.7466297"><ele>1282.0</ele><time>2026-04-09T15:19:09.347Z</time></trkpt><trkpt lat="44.0194367" lon="7.7466631"><ele>1282.0</ele><time>2026-04-09T15:19:11.347Z</time></trkpt><trkpt lat="44.0193426" lon="7.7466845"><ele>1282.0</ele><time>2026-04-09T15:19:13.346Z</time></trkpt><trkpt lat="44.0192502" lon="7.7467092"><ele>1282.0</ele><time>2026-04-09T15:19:15.346Z</time></trkpt><trkpt lat="44.0191504" lon="7.7467326"><ele>1282.0</ele><time>2026-04-09T15:19:17.346Z</time></trkpt><trkpt lat="44.0190515" lon="7.74674"><ele>1279.8</ele><time>2026-04-09T15:19:19.347Z</time></trkpt><trkpt lat="44.0189413" lon="7.7467387"><ele>1277.6</ele><time>2026-04-09T15:19:21.347Z</time></trkpt><trkpt lat="44.0188692" lon="7.7467024"><ele>1275.3999999999999</ele><time>2026-04-09T15:19:23.346Z</time></trkpt><trkpt lat="44.0187715" lon="7.7467027"><ele>1273.1999999999998</ele><time>2026-04-09T15:19:25.346Z</time></trkpt><trkpt lat="44.0186623" lon="7.7467102"><ele>1271.0</ele><time>2026-04-09T15:19:27.347Z</time></trkpt><trkpt lat="44.0185643" lon="7.7466997"><ele>1271.0</ele><time>2026-04-09T15:19:29.346Z</time></trkpt><trkpt lat="44.0184638" lon="7.7466823"><ele>1271.0</ele><time>2026-04-09T15:19:31.346Z</time></trkpt><trkpt lat="44.0183591" lon="7.7466673"><ele>1271.0</ele><time>2026-04-09T15:19:33.347Z</time></trkpt><trkpt lat="44.0182707" lon="7.7466653"><ele>1271.0</ele><time>2026-04-09T15:19:35.347Z</time></trkpt><trkpt lat="44.0181926" lon="7.7466399"><ele>1271.0</ele><time>2026-04-09T15:19:37.347Z</time></trkpt><trkpt lat="44.0181012" lon="7.7465975"><ele>1266.6666666666667</ele><time>2026-04-09T15:19:40.346Z</time></trkpt><trkpt lat="44.0180269" lon="7.7465528"><ele>1262.3333333333335</ele><time>2026-04-09T15:19:42.346Z</time></trkpt><trkpt lat="44.0179539" lon="7.7465247"><ele>1258.0</ele><time>2026-04-09T15:19:44.346Z</time></trkpt><trkpt lat="44.0178792" lon="7.7465021"><ele>1253.6666666666667</ele><time>2026-04-09T15:19:46.347Z</time></trkpt><trkpt lat="44.017786" lon="7.746487"><ele>1249.3333333333333</ele><time>2026-04-09T15:19:48.347Z</time></trkpt><trkpt lat="44.0176808" lon="7.7464824"><ele>1245.0</ele><time>2026-04-09T15:19:50.347Z</time></trkpt><trkpt lat="44.0175788" lon="7.7465045"><ele>1245.0</ele><time>2026-04-09T15:19:52.347Z</time></trkpt><trkpt lat="44.0175003" lon="7.7465153"><ele>1245.0</ele><time>2026-04-09T15:19:54.347Z</time></trkpt><trkpt lat="44.0174229" lon="7.7465248"><ele>1245.0</ele><time>2026-04-09T15:19:56.348Z</time></trkpt><trkpt lat="44.01734" lon="7.7465272"><ele>1245.0</ele><time>2026-04-09T15:19:58.348Z</time></trkpt><trkpt lat="44.0172612" lon="7.746521"><ele>1245.0</ele><time>2026-04-09T15:20:00.349Z</time></trkpt><trkpt lat="44.0171758" lon="7.7465134"><ele>1245.0</ele><time>2026-04-09T15:20:02.349Z</time></trkpt><trkpt lat="44.0170783" lon="7.7465187"><ele>1245.0</ele><time>2026-04-09T15:20:04.348Z</time></trkpt><trkpt lat="44.0169706" lon="7.7465155"><ele>1245.0</ele><time>2026-04-09T15:20:06.349Z</time></trkpt><trkpt lat="44.0168575" lon="7.746509"><ele>1245.0</ele><time>2026-04-09T15:20:08.349Z</time></trkpt><trkpt lat="44.0167492" lon="7.7465163"><ele>1245.0</ele><time>2026-04-09T15:20:10.348Z</time></trkpt><trkpt lat="44.0166434" lon="7.7465156"><ele>1245.0</ele><time>2026-04-09T15:20:12.349Z</time></trkpt><trkpt lat="44.0165379" lon="7.7465235"><ele>1245.8</ele><time>2026-04-09T15:20:14.348Z</time></trkpt><trkpt lat="44.0164348" lon="7.7465283"><ele>1246.6</ele><time>2026-04-09T15:20:16.348Z</time></trkpt><trkpt lat="44.016324" lon="7.7465279"><ele>1247.4</ele><time>2026-04-09T15:20:18.349Z</time></trkpt><trkpt lat="44.0162061" lon="7.7465204"><ele>1248.2</ele><time>2026-04-09T15:20:20.348Z</time></trkpt><trkpt lat="44.0160912" lon="7.7464875"><ele>1249.0</ele><time>2026-04-09T15:20:22.348Z</time></trkpt><trkpt lat="44.0159808" lon="7.7464545"><ele>1249.0</ele><time>2026-04-09T15:20:24.348Z</time></trkpt><trkpt lat="44.0158784" lon="7.7464143"><ele>1249.0</ele><time>2026-04-09T15:20:26.348Z</time></trkpt><trkpt lat="44.0157814" lon="7.7463602"><ele>1249.0</ele><time>2026-04-09T15:20:28.348Z</time></trkpt><trkpt lat="44.0156961" lon="7.7462922"><ele>1249.0</ele><time>2026-04-09T15:20:30.348Z</time></trkpt><trkpt lat="44.0156211" lon="7.7462053"><ele>1249.0</ele><time>2026-04-09T15:20:32.348Z</time></trkpt><trkpt lat="44.0155583" lon="7.7460933"><ele>1246.1666666666665</ele><time>2026-04-09T15:20:34.348Z</time></trkpt><trkpt lat="44.0154993" lon="7.7459835"><ele>1243.3333333333333</ele><time>2026-04-09T15:20:36.348Z</time></trkpt><trkpt lat="44.0154751" lon="7.7458987"><ele>1240.5</ele><time>2026-04-09T15:20:38.349Z</time></trkpt><trkpt lat="44.0154393" lon="7.7458254"><ele>1237.6666666666667</ele><time>2026-04-09T15:20:41.349Z</time></trkpt><trkpt lat="44.0153661" lon="7.7457773"><ele>1234.8333333333335</ele><time>2026-04-09T15:20:45.349Z</time></trkpt><trkpt lat="44.0152817" lon="7.745729"><ele>1232.0</ele><time>2026-04-09T15:20:48.348Z</time></trkpt><trkpt lat="44.0151918" lon="7.7457123"><ele>1232.0</ele><time>2026-04-09T15:20:50.349Z</time></trkpt><trkpt lat="44.0150879" lon="7.7457144"><ele>1232.0</ele><time>2026-04-09T15:20:52.348Z</time></trkpt><trkpt lat="44.0149994" lon="7.7457758"><ele>1232.0</ele><time>2026-04-09T15:20:54.348Z</time></trkpt><trkpt lat="44.0149334" lon="7.745881"><ele>1232.0</ele><time>2026-04-09T15:20:56.348Z</time></trkpt><trkpt lat="44.0148824" lon="7.7459942"><ele>1232.0</ele><time>2026-04-09T15:20:58.349Z</time></trkpt><trkpt lat="44.0148244" lon="7.7461032"><ele>1232.0</ele><time>2026-04-09T15:21:00.349Z</time></trkpt><trkpt lat="44.0147586" lon="7.7461944"><ele>1232.0</ele><time>2026-04-09T15:21:02.349Z</time></trkpt><trkpt lat="44.0146924" lon="7.7462992"><ele>1232.0</ele><time>2026-04-09T15:21:04.349Z</time></trkpt><trkpt lat="44.0146192" lon="7.7463624"><ele>1232.0</ele><time>2026-04-09T15:21:06.348Z</time></trkpt><trkpt lat="44.0145369" lon="7.7464131"><ele>1232.0</ele><time>2026-04-09T15:21:08.348Z</time></trkpt><trkpt lat="44.0144589" lon="7.7464406"><ele>1232.0</ele><time>2026-04-09T15:21:10.348Z</time></trkpt><trkpt lat="44.0143706" lon="7.7464712"><ele>1232.0</ele><time>2026-04-09T15:21:12.348Z</time></trkpt><trkpt lat="44.0142849" lon="7.7465128"><ele>1232.0</ele><time>2026-04-09T15:21:14.349Z</time></trkpt><trkpt lat="44.0141953" lon="7.7465443"><ele>1232.0</ele><time>2026-04-09T15:21:16.349Z</time></trkpt><trkpt lat="44.0141191" lon="7.7465522"><ele>1232.0</ele><time>2026-04-09T15:21:18.349Z</time></trkpt><trkpt lat="44.0140346" lon="7.7465663"><ele>1232.0</ele><time>2026-04-09T15:21:20.349Z</time></trkpt><trkpt lat="44.0139536" lon="7.7466018"><ele>1229.8</ele><time>2026-04-09T15:21:22.348Z</time></trkpt><trkpt lat="44.0138686" lon="7.7466446"><ele>1227.6</ele><time>2026-04-09T15:21:24.348Z</time></trkpt><trkpt lat="44.0137816" lon="7.7467028"><ele>1225.3999999999999</ele><time>2026-04-09T15:21:26.348Z</time></trkpt><trkpt lat="44.0137118" lon="7.7467844"><ele>1223.2</ele><time>2026-04-09T15:21:28.349Z</time></trkpt><trkpt lat="44.0136555" lon="7.746906"><ele>1221.0</ele><time>2026-04-09T15:21:30.349Z</time></trkpt><trkpt lat="44.0135924" lon="7.7470455"><ele>1221.0</ele><time>2026-04-09T15:21:32.349Z</time></trkpt><trkpt lat="44.0135504" lon="7.7471317"><ele>1221.0</ele><time>2026-04-09T15:21:33.349Z</time></trkpt><trkpt lat="44.0135" lon="7.7472107"><ele>1221.0</ele><time>2026-04-09T15:21:34.349Z</time></trkpt><trkpt lat="44.0134388" lon="7.7472842"><ele>1221.0</ele><time>2026-04-09T15:21:35.349Z</time></trkpt><trkpt lat="44.0133699" lon="7.7473492"><ele>1221.0</ele><time>2026-04-09T15:21:36.348Z</time></trkpt><trkpt lat="44.0132938" lon="7.7474088"><ele>1221.0</ele><time>2026-04-09T15:21:37.348Z</time></trkpt><trkpt lat="44.0132174" lon="7.7474664"><ele>1215.8333333333333</ele><time>2026-04-09T15:21:38.348Z</time></trkpt><trkpt lat="44.013141" lon="7.7475257"><ele>1210.6666666666667</ele><time>2026-04-09T15:21:39.348Z</time></trkpt><trkpt lat="44.0130561" lon="7.7475713"><ele>1205.5</ele><time>2026-04-09T15:21:40.348Z</time></trkpt><trkpt lat="44.0129675" lon="7.7476002"><ele>1200.3333333333335</ele><time>2026-04-09T15:21:41.349Z</time></trkpt><trkpt lat="44.012882" lon="7.7476177"><ele>1195.1666666666667</ele><time>2026-04-09T15:21:42.348Z</time></trkpt><trkpt lat="44.0127963" lon="7.7476154"><ele>1190.0</ele><time>2026-04-09T15:21:43.349Z</time></trkpt><trkpt lat="44.0127129" lon="7.7476119"><ele>1190.0</ele><time>2026-04-09T15:21:44.349Z</time></trkpt><trkpt lat="44.0126325" lon="7.7475996"><ele>1190.0</ele><time>2026-04-09T15:21:45.348Z</time></trkpt><trkpt lat="44.0125687" lon="7.7476062"><ele>1190.0</ele><time>2026-04-09T15:21:46.348Z</time></trkpt><trkpt lat="44.012466" lon="7.7477239"><ele>1190.0</ele><time>2026-04-09T15:21:48.348Z</time></trkpt><trkpt lat="44.0124053" lon="7.7477956"><ele>1190.0</ele><time>2026-04-09T15:21:49.349Z</time></trkpt><trkpt lat="44.0123357" lon="7.7478713"><ele>1190.0</ele><time>2026-04-09T15:21:50.349Z</time></trkpt><trkpt lat="44.0122593" lon="7.7479274"><ele>1190.2</ele><time>2026-04-09T15:21:51.349Z</time></trkpt><trkpt lat="44.0121716" lon="7.7479644"><ele>1190.4</ele><time>2026-04-09T15:21:52.348Z</time></trkpt><trkpt lat="44.012078" lon="7.747983"><ele>1190.6</ele><time>2026-04-09T15:21:53.349Z</time></trkpt><trkpt lat="44.0119781" lon="7.7480041"><ele>1190.8</ele><time>2026-04-09T15:21:54.349Z</time></trkpt><trkpt lat="44.0118628" lon="7.7480122"><ele>1191.0</ele><time>2026-04-09T15:21:55.348Z</time></trkpt><trkpt lat="44.0117426" lon="7.7479983"><ele>1186.0</ele><time>2026-04-09T15:21:56.349Z</time></trkpt><trkpt lat="44.0116291" lon="7.7479836"><ele>1181.0</ele><time>2026-04-09T15:21:57.348Z</time></trkpt><trkpt lat="44.0115355" lon="7.7479737"><ele>1176.0</ele><time>2026-04-09T15:21:58.349Z</time></trkpt><trkpt lat="44.0114429" lon="7.7479734"><ele>1171.0</ele><time>2026-04-09T15:21:59.349Z</time></trkpt><trkpt lat="44.0113335" lon="7.7479764"><ele>1166.0</ele><time>2026-04-09T15:22:00.349Z</time></trkpt><trkpt lat="44.011208" lon="7.7479665"><ele>1166.0</ele><time>2026-04-09T15:22:01.349Z</time></trkpt><trkpt lat="44.0111057" lon="7.7479494"><ele>1166.0</ele><time>2026-04-09T15:22:02.349Z</time></trkpt><trkpt lat="44.0110002" lon="7.7479329"><ele>1166.0</ele><time>2026-04-09T15:22:03.348Z</time></trkpt><trkpt lat="44.0108938" lon="7.7479305"><ele>1166.0</ele><time>2026-04-09T15:22:04.348Z</time></trkpt><trkpt lat="44.0107991" lon="7.7479508"><ele>1166.0</ele><time>2026-04-09T15:22:05.349Z</time></trkpt><trkpt lat="44.0107086" lon="7.7479735"><ele>1163.0</ele><time>2026-04-09T15:22:06.349Z</time></trkpt><trkpt lat="44.0106161" lon="7.747988"><ele>1160.0</ele><time>2026-04-09T15:22:07.349Z</time></trkpt><trkpt lat="44.0105258" lon="7.7479942"><ele>1157.0</ele><time>2026-04-09T15:22:08.349Z</time></trkpt><trkpt lat="44.0104383" lon="7.7479938"><ele>1154.0</ele><time>2026-04-09T15:22:09.349Z</time></trkpt><trkpt lat="44.0103492" lon="7.7479905"><ele>1151.0</ele><time>2026-04-09T15:22:10.349Z</time></trkpt><trkpt lat="44.0102554" lon="7.747985"><ele>1151.0</ele><time>2026-04-09T15:22:11.348Z</time></trkpt><trkpt lat="44.0101555" lon="7.7479751"><ele>1151.0</ele><time>2026-04-09T15:22:12.349Z</time></trkpt><trkpt lat="44.0100479" lon="7.7479639"><ele>1151.0</ele><time>2026-04-09T15:22:13.348Z</time></trkpt><trkpt lat="44.0099279" lon="7.7479684"><ele>1151.0</ele><time>2026-04-09T15:22:14.348Z</time></trkpt><trkpt lat="44.0097928" lon="7.7479817"><ele>1149.5</ele><time>2026-04-09T15:22:15.349Z</time></trkpt><trkpt lat="44.0096544" lon="7.7479896"><ele>1148.0</ele><time>2026-04-09T15:22:16.349Z</time></trkpt><trkpt lat="44.0095189" lon="7.7479948"><ele>1146.5</ele><time>2026-04-09T15:22:17.349Z</time></trkpt><trkpt lat="44.0093762" lon="7.7480015"><ele>1145.0</ele><time>2026-04-09T15:22:18.349Z</time></trkpt><trkpt lat="44.0092228" lon="7.7480116"><ele>1145.0</ele><time>2026-04-09T15:22:19.349Z</time></trkpt><trkpt lat="44.0090681" lon="7.7480352"><ele>1145.0</ele><time>2026-04-09T15:22:20.349Z</time></trkpt><trkpt lat="44.0089125" lon="7.7480834"><ele>1145.0</ele><time>2026-04-09T15:22:21.348Z</time></trkpt><trkpt lat="44.0087567" lon="7.7481488"><ele>1145.0</ele><time>2026-04-09T15:22:22.349Z</time></trkpt><trkpt lat="44.0086056" lon="7.7482229"><ele>1145.0</ele><time>2026-04-09T15:22:23.349Z</time></trkpt><trkpt lat="44.0084608" lon="7.7482988"><ele>1145.0</ele><time>2026-04-09T15:22:24.348Z</time></trkpt><trkpt lat="44.0083184" lon="7.7483741"><ele>1143.6666666666667</ele><time>2026-04-09T15:22:25.348Z</time></trkpt><trkpt lat="44.008174" lon="7.748436"><ele>1142.3333333333333</ele><time>2026-04-09T15:22:26.349Z</time></trkpt><trkpt lat="44.0079024" lon="7.7485616"><ele>1141.0</ele><time>2026-04-09T15:22:28.349Z</time></trkpt><trkpt lat="44.0077794" lon="7.7486623"><ele>1141.0</ele><time>2026-04-09T15:22:29.348Z</time></trkpt><trkpt lat="44.0076656" lon="7.7487928"><ele>1141.0</ele><time>2026-04-09T15:22:30.349Z</time></trkpt><trkpt lat="44.0075612" lon="7.7489386"><ele>1141.0</ele><time>2026-04-09T15:22:31.348Z</time></trkpt><trkpt lat="44.0074692" lon="7.7491058"><ele>1141.0</ele><time>2026-04-09T15:22:32.348Z</time></trkpt><trkpt lat="44.0073877" lon="7.7492877"><ele>1138.75</ele><time>2026-04-09T15:22:33.349Z</time></trkpt><trkpt lat="44.0073129" lon="7.7494646"><ele>1136.5</ele><time>2026-04-09T15:22:34.348Z</time></trkpt><trkpt lat="44.0072362" lon="7.7496354"><ele>1134.25</ele><time>2026-04-09T15:22:35.349Z</time></trkpt><trkpt lat="44.0071581" lon="7.749784"><ele>1132.0</ele><time>2026-04-09T15:22:36.348Z</time></trkpt><trkpt lat="44.007081" lon="7.7499176"><ele>1132.0</ele><time>2026-04-09T15:22:37.348Z</time></trkpt><trkpt lat="44.0069943" lon="7.7500325"><ele>1132.0</ele><time>2026-04-09T15:22:38.348Z</time></trkpt><trkpt lat="44.0068862" lon="7.7501304"><ele>1132.0</ele><time>2026-04-09T15:22:39.349Z</time></trkpt><trkpt lat="44.0067664" lon="7.7502253"><ele>1132.0</ele><time>2026-04-09T15:22:40.349Z</time></trkpt><trkpt lat="44.0066569" lon="7.7503441"><ele>1132.0</ele><time>2026-04-09T15:22:41.349Z</time></trkpt><trkpt lat="44.0065563" lon="7.7504817"><ele>1132.0</ele><time>2026-04-09T15:22:42.349Z</time></trkpt><trkpt lat="44.0064644" lon="7.7506274"><ele>1132.0</ele><time>2026-04-09T15:22:43.349Z</time></trkpt><trkpt lat="44.0063754" lon="7.7507676"><ele>1132.0</ele><time>2026-04-09T15:22:44.349Z</time></trkpt><trkpt lat="44.0062945" lon="7.750903"><ele>1126.75</ele><time>2026-04-09T15:22:45.349Z</time></trkpt><trkpt lat="44.0062192" lon="7.7510432"><ele>1121.5</ele><time>2026-04-09T15:22:46.348Z</time></trkpt><trkpt lat="44.0061556" lon="7.751193"><ele>1116.25</ele><time>2026-04-09T15:22:47.349Z</time></trkpt><trkpt lat="44.0061042" lon="7.7513511"><ele>1111.0</ele><time>2026-04-09T15:22:48.348Z</time></trkpt><trkpt lat="44.0060566" lon="7.7515056"><ele>1111.0</ele><time>2026-04-09T15:22:49.349Z</time></trkpt><trkpt lat="44.005999" lon="7.7516717"><ele>1111.0</ele><time>2026-04-09T15:22:50.349Z</time></trkpt><trkpt lat="44.0059334" lon="7.7518306"><ele>1111.0</ele><time>2026-04-09T15:22:51.35Z</time></trkpt><trkpt lat="44.0058691" lon="7.751974"><ele>1111.0</ele><time>2026-04-09T15:22:52.349Z</time></trkpt><trkpt lat="44.0057926" lon="7.752119"><ele>1111.0</ele><time>2026-04-09T15:22:53.349Z</time></trkpt><trkpt lat="44.0057122" lon="7.7522455"><ele>1111.0</ele><time>2026-04-09T15:22:54.349Z</time></trkpt><trkpt lat="44.005623" lon="7.7523606"><ele>1111.0</ele><time>2026-04-09T15:22:55.349Z</time></trkpt><trkpt lat="44.0055306" lon="7.7524807"><ele>1111.0</ele><time>2026-04-09T15:22:56.35Z</time></trkpt><trkpt lat="44.0054415" lon="7.7525948"><ele>1103.0</ele><time>2026-04-09T15:22:57.349Z</time></trkpt><trkpt lat="44.00536" lon="7.7527188"><ele>1095.0</ele><time>2026-04-09T15:22:58.35Z</time></trkpt><trkpt lat="44.0052747" lon="7.7528338"><ele>1087.0</ele><time>2026-04-09T15:22:59.349Z</time></trkpt><trkpt lat="44.0051722" lon="7.7529237"><ele>1079.0</ele><time>2026-04-09T15:23:00.35Z</time></trkpt><trkpt lat="44.005074" lon="7.7530055"><ele>1079.0</ele><time>2026-04-09T15:23:01.35Z</time></trkpt><trkpt lat="44.0049884" lon="7.7530677"><ele>1079.0</ele><time>2026-04-09T15:23:02.349Z</time></trkpt><trkpt lat="44.0049561" lon="7.7532105"><ele>1079.0</ele><time>2026-04-09T15:23:04.35Z</time></trkpt><trkpt lat="44.0050436" lon="7.7532808"><ele>1079.0</ele><time>2026-04-09T15:23:06.35Z</time></trkpt><trkpt lat="44.0051127" lon="7.7532609"><ele>1079.0</ele><time>2026-04-09T15:23:07.349Z</time></trkpt><trkpt lat="44.0051892" lon="7.753214"><ele>1079.0</ele><time>2026-04-09T15:23:08.349Z</time></trkpt><trkpt lat="44.005297" lon="7.7531575"><ele>1079.0</ele><time>2026-04-09T15:23:09.349Z</time></trkpt><trkpt lat="44.0054185" lon="7.7530961"><ele>1079.0</ele><time>2026-04-09T15:23:10.35Z</time></trkpt><trkpt lat="44.0055247" lon="7.7530194"><ele>1079.0</ele><time>2026-04-09T15:23:11.35Z</time></trkpt><trkpt lat="44.0056317" lon="7.7529237"><ele>1079.0</ele><time>2026-04-09T15:23:12.35Z</time></trkpt><trkpt lat="44.0057387" lon="7.7528206"><ele>1079.0</ele><time>2026-04-09T15:23:13.35Z</time></trkpt><trkpt lat="44.00585" lon="7.7527362"><ele>1079.0</ele><time>2026-04-09T15:23:14.349Z</time></trkpt><trkpt lat="44.005958" lon="7.7526755"><ele>1079.0</ele><time>2026-04-09T15:23:15.35Z</time></trkpt><trkpt lat="44.0060629" lon="7.7526166"><ele>1083.0</ele><time>2026-04-09T15:23:16.349Z</time></trkpt><trkpt lat="44.0061706" lon="7.7525489"><ele>1087.0</ele><time>2026-04-09T15:23:17.349Z</time></trkpt><trkpt lat="44.0062849" lon="7.7524746"><ele>1091.0</ele><time>2026-04-09T15:23:18.35Z</time></trkpt><trkpt lat="44.0063956" lon="7.7524039"><ele>1095.0</ele><time>2026-04-09T15:23:19.349Z</time></trkpt><trkpt lat="44.0065015" lon="7.7523269"><ele>1095.0</ele><time>2026-04-09T15:23:20.35Z</time></trkpt><trkpt lat="44.0065994" lon="7.7522445"><ele>1095.0</ele><time>2026-04-09T15:23:21.35Z</time></trkpt><trkpt lat="44.00669" lon="7.7521488"><ele>1095.0</ele><time>2026-04-09T15:23:22.35Z</time></trkpt><trkpt lat="44.006778" lon="7.7520452"><ele>1095.0</ele><time>2026-04-09T15:23:23.349Z</time></trkpt><trkpt lat="44.0068564" lon="7.7519451"><ele>1093.8</ele><time>2026-04-09T15:23:24.349Z</time></trkpt><trkpt lat="44.0069382" lon="7.7518549"><ele>1092.6</ele><time>2026-04-09T15:23:25.349Z</time></trkpt><trkpt lat="44.0070276" lon="7.751784"><ele>1091.4</ele><time>2026-04-09T15:23:26.35Z</time></trkpt><trkpt lat="44.0071316" lon="7.7517303"><ele>1090.2</ele><time>2026-04-09T15:23:27.35Z</time></trkpt><trkpt lat="44.0072392" lon="7.7516787"><ele>1089.0</ele><time>2026-04-09T15:23:28.35Z</time></trkpt><trkpt lat="44.00734" lon="7.751629"><ele>1089.0</ele><time>2026-04-09T15:23:29.35Z</time></trkpt><trkpt lat="44.0074317" lon="7.7515863"><ele>1089.0</ele><time>2026-04-09T15:23:30.349Z</time></trkpt><trkpt lat="44.0075044" lon="7.7515427"><ele>1089.0</ele><time>2026-04-09T15:23:31.349Z</time></trkpt><trkpt lat="44.0075678" lon="7.751496"><ele>1089.0</ele><time>2026-04-09T15:23:32.349Z</time></trkpt><trkpt lat="44.0076688" lon="7.7515043"><ele>1089.0</ele><time>2026-04-09T15:23:34.35Z</time></trkpt><trkpt lat="44.0076483" lon="7.7516344"><ele>1089.0</ele><time>2026-04-09T15:23:36.35Z</time></trkpt><trkpt lat="44.0075933" lon="7.7517005"><ele>1085.2</ele><time>2026-04-09T15:23:37.35Z</time></trkpt><trkpt lat="44.0075302" lon="7.7517797"><ele>1081.4</ele><time>2026-04-09T15:23:38.35Z</time></trkpt><trkpt lat="44.0074592" lon="7.7518777"><ele>1077.6</ele><time>2026-04-09T15:23:39.349Z</time></trkpt><trkpt lat="44.0073882" lon="7.7519916"><ele>1073.8</ele><time>2026-04-09T15:23:40.349Z</time></trkpt><trkpt lat="44.0073162" lon="7.752118"><ele>1070.0</ele><time>2026-04-09T15:23:41.35Z</time></trkpt><trkpt lat="44.0072399" lon="7.7522473"><ele>1069.75</ele><time>2026-04-09T15:23:42.35Z</time></trkpt><trkpt lat="44.0071568" lon="7.7523677"><ele>1069.5</ele><time>2026-04-09T15:23:43.349Z</time></trkpt><trkpt lat="44.0070674" lon="7.7524872"><ele>1069.25</ele><time>2026-04-09T15:23:44.349Z</time></trkpt><trkpt lat="44.0069747" lon="7.7526122"><ele>1069.0</ele><time>2026-04-09T15:23:45.35Z</time></trkpt><trkpt lat="44.0068936" lon="7.752748"><ele>1069.25</ele><time>2026-04-09T15:23:46.349Z</time></trkpt><trkpt lat="44.0068169" lon="7.7528884"><ele>1069.5</ele><time>2026-04-09T15:23:47.35Z</time></trkpt><trkpt lat="44.0067423" lon="7.7530342"><ele>1069.75</ele><time>2026-04-09T15:23:48.35Z</time></trkpt><trkpt lat="44.0066738" lon="7.7531717"><ele>1070.0</ele><time>2026-04-09T15:23:49.349Z</time></trkpt><trkpt lat="44.0065997" lon="7.7533106"><ele>1070.0</ele><time>2026-04-09T15:23:50.35Z</time></trkpt><trkpt lat="44.0065211" lon="7.753438"><ele>1070.0</ele><time>2026-04-09T15:23:51.35Z</time></trkpt><trkpt lat="44.0064221" lon="7.7535556"><ele>1070.0</ele><time>2026-04-09T15:23:52.35Z</time></trkpt><trkpt lat="44.006306" lon="7.753668"><ele>1070.0</ele><time>2026-04-09T15:23:53.35Z</time></trkpt><trkpt lat="44.0061877" lon="7.7537664"><ele>1063.5</ele><time>2026-04-09T15:23:54.349Z</time></trkpt><trkpt lat="44.0060727" lon="7.7538687"><ele>1057.0</ele><time>2026-04-09T15:23:55.349Z</time></trkpt><trkpt lat="44.0059549" lon="7.7539646"><ele>1050.5</ele><time>2026-04-09T15:23:56.349Z</time></trkpt><trkpt lat="44.0058433" lon="7.7540615"><ele>1044.0</ele><time>2026-04-09T15:23:57.349Z</time></trkpt><trkpt lat="44.0057332" lon="7.7541709"><ele>1044.0</ele><time>2026-04-09T15:23:58.35Z</time></trkpt><trkpt lat="44.0056267" lon="7.7542726"><ele>1044.0</ele><time>2026-04-09T15:23:59.35Z</time></trkpt><trkpt lat="44.0055196" lon="7.7543569"><ele>1044.0</ele><time>2026-04-09T15:24:00.349Z</time></trkpt><trkpt lat="44.0054131" lon="7.7544213"><ele>1044.0</ele><time>2026-04-09T15:24:01.35Z</time></trkpt><trkpt lat="44.005319" lon="7.7544577"><ele>1044.0</ele><time>2026-04-09T15:24:02.349Z</time></trkpt><trkpt lat="44.0052366" lon="7.7544575"><ele>1044.0</ele><time>2026-04-09T15:24:03.35Z</time></trkpt><trkpt lat="44.005154" lon="7.7544115"><ele>1044.0</ele><time>2026-04-09T15:24:04.349Z</time></trkpt><trkpt lat="44.005058" lon="7.7543425"><ele>1044.0</ele><time>2026-04-09T15:24:05.349Z</time></trkpt><trkpt lat="44.0049525" lon="7.754304"><ele>1044.0</ele><time>2026-04-09T15:24:06.349Z</time></trkpt><trkpt lat="44.0048406" lon="7.7543161"><ele>1046.25</ele><time>2026-04-09T15:24:07.35Z</time></trkpt><trkpt lat="44.0047268" lon="7.754362"><ele>1048.5</ele><time>2026-04-09T15:24:08.349Z</time></trkpt><trkpt lat="44.0046202" lon="7.7544158"><ele>1050.75</ele><time>2026-04-09T15:24:09.349Z</time></trkpt><trkpt lat="44.0045104" lon="7.7544891"><ele>1053.0</ele><time>2026-04-09T15:24:10.35Z</time></trkpt><trkpt lat="44.0044039" lon="7.7545663"><ele>1054.25</ele><time>2026-04-09T15:24:11.35Z</time></trkpt><trkpt lat="44.0043011" lon="7.75464"><ele>1055.5</ele><time>2026-04-09T15:24:12.349Z</time></trkpt><trkpt lat="44.0041969" lon="7.7547068"><ele>1056.75</ele><time>2026-04-09T15:24:13.349Z</time></trkpt><trkpt lat="44.0040799" lon="7.754761"><ele>1058.0</ele><time>2026-04-09T15:24:14.35Z</time></trkpt><trkpt lat="44.0039618" lon="7.7548151"><ele>1058.0</ele><time>2026-04-09T15:24:15.349Z</time></trkpt><trkpt lat="44.0038513" lon="7.7548647"><ele>1058.0</ele><time>2026-04-09T15:24:16.349Z</time></trkpt><trkpt lat="44.0037602" lon="7.754902"><ele>1058.0</ele><time>2026-04-09T15:24:17.349Z</time></trkpt><trkpt lat="44.0036852" lon="7.7549632"><ele>1058.0</ele><time>2026-04-09T15:24:18.349Z</time></trkpt><trkpt lat="44.0036297" lon="7.7550571"><ele>1058.0</ele><time>2026-04-09T15:24:19.349Z</time></trkpt><trkpt lat="44.0035816" lon="7.7551662"><ele>1060.2</ele><time>2026-04-09T15:24:20.35Z</time></trkpt><trkpt lat="44.003543" lon="7.7553066"><ele>1062.4</ele><time>2026-04-09T15:24:21.349Z</time></trkpt><trkpt lat="44.003497" lon="7.7554244"><ele>1064.6000000000001</ele><time>2026-04-09T15:24:22.35Z</time></trkpt><trkpt lat="44.0034199" lon="7.7555355"><ele>1066.8</ele><time>2026-04-09T15:24:23.349Z</time></trkpt><trkpt lat="44.0033242" lon="7.7556361"><ele>1069.0</ele><time>2026-04-09T15:24:24.349Z</time></trkpt><trkpt lat="44.0032255" lon="7.7557458"><ele>1069.0</ele><time>2026-04-09T15:24:25.35Z</time></trkpt><trkpt lat="44.0031333" lon="7.7558652"><ele>1069.0</ele><time>2026-04-09T15:24:26.35Z</time></trkpt><trkpt lat="44.0030573" lon="7.7560105"><ele>1069.0</ele><time>2026-04-09T15:24:27.349Z</time></trkpt><trkpt lat="44.0030012" lon="7.7561544"><ele>1069.0</ele><time>2026-04-09T15:24:28.349Z</time></trkpt><trkpt lat="44.002946" lon="7.7562739"><ele>1057.75</ele><time>2026-04-09T15:24:29.349Z</time></trkpt><trkpt lat="44.0028874" lon="7.756371"><ele>1046.5</ele><time>2026-04-09T15:24:30.35Z</time></trkpt><trkpt lat="44.0028024" lon="7.7564472"><ele>1035.25</ele><time>2026-04-09T15:24:31.349Z</time></trkpt><trkpt lat="44.0027031" lon="7.756548"><ele>1024.0</ele><time>2026-04-09T15:24:32.35Z</time></trkpt><trkpt lat="44.0025974" lon="7.7566711"><ele>1020.25</ele><time>2026-04-09T15:24:33.35Z</time></trkpt><trkpt lat="44.0024877" lon="7.756788"><ele>1016.5</ele><time>2026-04-09T15:24:34.349Z</time></trkpt><trkpt lat="44.0023841" lon="7.7568906"><ele>1012.75</ele><time>2026-04-09T15:24:35.349Z</time></trkpt><trkpt lat="44.0022895" lon="7.7569895"><ele>1009.0</ele><time>2026-04-09T15:24:36.349Z</time></trkpt><trkpt lat="44.0022012" lon="7.7570937"><ele>1009.0</ele><time>2026-04-09T15:24:37.35Z</time></trkpt><trkpt lat="44.0021149" lon="7.7571809"><ele>1009.0000000000001</ele><time>2026-04-09T15:24:38.35Z</time></trkpt><trkpt lat="44.002032" lon="7.7572527"><ele>1009.0000000000001</ele><time>2026-04-09T15:24:39.349Z</time></trkpt><trkpt lat="44.0019284" lon="7.7573196"><ele>1009.0</ele><time>2026-04-09T15:24:40.35Z</time></trkpt><trkpt lat="44.0018442" lon="7.7574378"><ele>1009.0</ele><time>2026-04-09T15:24:41.35Z</time></trkpt><trkpt lat="44.0017646" lon="7.7575718"><ele>1011.5</ele><time>2026-04-09T15:24:42.349Z</time></trkpt><trkpt lat="44.0016841" lon="7.7577192"><ele>1014.0</ele><time>2026-04-09T15:24:43.349Z</time></trkpt><trkpt lat="44.0015865" lon="7.7578736"><ele>1016.5</ele><time>2026-04-09T15:24:44.349Z</time></trkpt><trkpt lat="44.0014768" lon="7.7580459"><ele>1019.0</ele><time>2026-04-09T15:24:45.349Z</time></trkpt><trkpt lat="44.0013726" lon="7.7582079"><ele>1019.0</ele><time>2026-04-09T15:24:46.349Z</time></trkpt><trkpt lat="44.0012641" lon="7.758372"><ele>1019.0</ele><time>2026-04-09T15:24:47.35Z</time></trkpt><trkpt lat="44.0011555" lon="7.7585269"><ele>1019.0</ele><time>2026-04-09T15:24:48.349Z</time></trkpt><trkpt lat="44.0010665" lon="7.7586718"><ele>1016.0</ele><time>2026-04-09T15:24:49.349Z</time></trkpt><trkpt lat="44.000991" lon="7.7587982"><ele>1013.0000000000001</ele><time>2026-04-09T15:24:50.349Z</time></trkpt><trkpt lat="44.0009204" lon="7.7589096"><ele>1010.0000000000001</ele><time>2026-04-09T15:24:51.35Z</time></trkpt><trkpt lat="44.0008494" lon="7.7590108"><ele>1007.0</ele><time>2026-04-09T15:24:52.349Z</time></trkpt><trkpt lat="44.0007678" lon="7.7591008"><ele>1004.0</ele><time>2026-04-09T15:24:53.349Z</time></trkpt><trkpt lat="44.0006624" lon="7.75919"><ele>1004.0</ele><time>2026-04-09T15:24:54.349Z</time></trkpt><trkpt lat="44.0005431" lon="7.759287"><ele>1004.0</ele><time>2026-04-09T15:24:55.349Z</time></trkpt><trkpt lat="44.0004223" lon="7.7593988"><ele>1004.0</ele><time>2026-04-09T15:24:56.35Z</time></trkpt><trkpt lat="44.0003086" lon="7.7595112"><ele>1004.0</ele><time>2026-04-09T15:24:57.349Z</time></trkpt><trkpt lat="44.0001932" lon="7.7596184"><ele>992.0</ele><time>2026-04-09T15:24:58.35Z</time></trkpt><trkpt lat="44.0000845" lon="7.7597295"><ele>980.0</ele><time>2026-04-09T15:24:59.349Z</time></trkpt><trkpt lat="43.9999808" lon="7.7598305"><ele>968.0</ele><time>2026-04-09T15:25:00.35Z</time></trkpt><trkpt lat="43.9998929" lon="7.7599292"><ele>956.0</ele><time>2026-04-09T15:25:01.35Z</time></trkpt><trkpt lat="43.9998077" lon="7.7600104"><ele>956.0</ele><time>2026-04-09T15:25:02.349Z</time></trkpt><trkpt lat="43.999702" lon="7.7600568"><ele>956.0</ele><time>2026-04-09T15:25:03.35Z</time></trkpt><trkpt lat="43.9995816" lon="7.7600881"><ele>956.0</ele><time>2026-04-09T15:25:04.35Z</time></trkpt><trkpt lat="43.9994369" lon="7.76015"><ele>956.0</ele><time>2026-04-09T15:25:05.35Z</time></trkpt><trkpt lat="43.9992949" lon="7.7602196"><ele>948.0</ele><time>2026-04-09T15:25:06.35Z</time></trkpt><trkpt lat="43.999155" lon="7.760279"><ele>940.0</ele><time>2026-04-09T15:25:07.349Z</time></trkpt><trkpt lat="43.9990268" lon="7.7603615"><ele>932.0</ele><time>2026-04-09T15:25:08.35Z</time></trkpt><trkpt lat="43.9989081" lon="7.7604545"><ele>924.0</ele><time>2026-04-09T15:25:09.35Z</time></trkpt><trkpt lat="43.9987968" lon="7.760541"><ele>924.0</ele><time>2026-04-09T15:25:10.35Z</time></trkpt><trkpt lat="43.9986888" lon="7.7606181"><ele>924.0</ele><time>2026-04-09T15:25:11.35Z</time></trkpt><trkpt lat="43.9985784" lon="7.7606637"><ele>924.0</ele><time>2026-04-09T15:25:12.349Z</time></trkpt><trkpt lat="43.9984696" lon="7.7606802"><ele>924.0</ele><time>2026-04-09T15:25:13.349Z</time></trkpt><trkpt lat="43.9983551" lon="7.7606937"><ele>928.25</ele><time>2026-04-09T15:25:14.349Z</time></trkpt><trkpt lat="43.9982456" lon="7.7607376"><ele>932.5</ele><time>2026-04-09T15:25:15.35Z</time></trkpt><trkpt lat="43.998133" lon="7.7608138"><ele>936.75</ele><time>2026-04-09T15:25:16.35Z</time></trkpt><trkpt lat="43.998033" lon="7.7608927"><ele>941.0</ele><time>2026-04-09T15:25:17.35Z</time></trkpt><trkpt lat="43.9979457" lon="7.7609694"><ele>941.0000000000001</ele><time>2026-04-09T15:25:18.349Z</time></trkpt><trkpt lat="43.9978647" lon="7.7610349"><ele>941.0</ele><time>2026-04-09T15:25:19.35Z</time></trkpt><trkpt lat="43.9977856" lon="7.7610671"><ele>941.0</ele><time>2026-04-09T15:25:20.35Z</time></trkpt><trkpt lat="43.9977147" lon="7.7610966"><ele>941.0</ele><time>2026-04-09T15:25:21.35Z</time></trkpt><trkpt lat="43.997647" lon="7.7610994"><ele>941.0000000000001</ele><time>2026-04-09T15:25:22.35Z</time></trkpt><trkpt lat="43.9975633" lon="7.7609844"><ele>941.0</ele><time>2026-04-09T15:25:24.349Z</time></trkpt><trkpt lat="43.9975395" lon="7.7608888"><ele>941.0</ele><time>2026-04-09T15:25:25.35Z</time></trkpt><trkpt lat="43.9975254" lon="7.760757"><ele>941.0</ele><time>2026-04-09T15:25:26.35Z</time></trkpt><trkpt lat="43.9975305" lon="7.7605785"><ele>941.0</ele><time>2026-04-09T15:25:27.35Z</time></trkpt><trkpt lat="43.9975384" lon="7.7603704"><ele>941.0</ele><time>2026-04-09T15:25:28.35Z</time></trkpt><trkpt lat="43.997552" lon="7.7601471"><ele>952.0</ele><time>2026-04-09T15:25:29.35Z</time></trkpt><trkpt lat="43.9975629" lon="7.7599098"><ele>963.0</ele><time>2026-04-09T15:25:30.349Z</time></trkpt><trkpt lat="43.997566" lon="7.7596664"><ele>974.0</ele><time>2026-04-09T15:25:31.349Z</time></trkpt><trkpt lat="43.9975736" lon="7.7594055"><ele>978.3333333333334</ele><time>2026-04-09T15:25:32.35Z</time></trkpt><trkpt lat="43.9975796" lon="7.7591345"><ele>982.6666666666667</ele><time>2026-04-09T15:25:33.35Z</time></trkpt><trkpt lat="43.9975811" lon="7.7588651"><ele>987.0</ele><time>2026-04-09T15:25:34.35Z</time></trkpt><trkpt lat="43.9975792" lon="7.7586073"><ele>986.3333333333333</ele><time>2026-04-09T15:25:35.35Z</time></trkpt><trkpt lat="43.9975741" lon="7.7583512"><ele>985.6666666666666</ele><time>2026-04-09T15:25:36.35Z</time></trkpt><trkpt lat="43.9975725" lon="7.758109"><ele>985.0</ele><time>2026-04-09T15:25:37.35Z</time></trkpt><trkpt lat="43.9975784" lon="7.7578851"><ele>981.3333333333333</ele><time>2026-04-09T15:25:38.35Z</time></trkpt><trkpt lat="43.9975821" lon="7.7576731"><ele>977.6666666666667</ele><time>2026-04-09T15:25:39.349Z</time></trkpt><trkpt lat="43.9975718" lon="7.7574637"><ele>974.0</ele><time>2026-04-09T15:25:40.35Z</time></trkpt><trkpt lat="43.9975363" lon="7.7572532"><ele>962.25</ele><time>2026-04-09T15:25:41.349Z</time></trkpt><trkpt lat="43.9974904" lon="7.7570554"><ele>950.5</ele><time>2026-04-09T15:25:42.349Z</time></trkpt><trkpt lat="43.9974488" lon="7.7568722"><ele>938.75</ele><time>2026-04-09T15:25:43.349Z</time></trkpt><trkpt lat="43.9974083" lon="7.7567057"><ele>927.0</ele><time>2026-04-09T15:25:44.349Z</time></trkpt><trkpt lat="43.9973553" lon="7.7565721"><ele>927.0</ele><time>2026-04-09T15:25:45.35Z</time></trkpt><trkpt lat="43.9972792" lon="7.7564691"><ele>927.0</ele><time>2026-04-09T15:25:46.349Z</time></trkpt><trkpt lat="43.9971629" lon="7.7563813"><ele>927.0</ele><time>2026-04-09T15:25:47.35Z</time></trkpt><trkpt lat="43.997032" lon="7.7563258"><ele>927.0</ele><time>2026-04-09T15:25:48.349Z</time></trkpt><trkpt lat="43.9969186" lon="7.7562719"><ele>927.0</ele><time>2026-04-09T15:25:49.35Z</time></trkpt><trkpt lat="43.9968371" lon="7.7561869"><ele>927.0</ele><time>2026-04-09T15:25:50.349Z</time></trkpt><trkpt lat="43.996762" lon="7.7560498"><ele>927.0</ele><time>2026-04-09T15:25:51.349Z</time></trkpt><trkpt lat="43.9966935" lon="7.7558652"><ele>927.0</ele><time>2026-04-09T15:25:52.349Z</time></trkpt><trkpt lat="43.9966175" lon="7.7556843"><ele>924.5</ele><time>2026-04-09T15:25:53.35Z</time></trkpt><trkpt lat="43.9965571" lon="7.7555085"><ele>922.0</ele><time>2026-04-09T15:25:54.349Z</time></trkpt><trkpt lat="43.9965073" lon="7.7553251"><ele>919.5</ele><time>2026-04-09T15:25:55.35Z</time></trkpt><trkpt lat="43.9964668" lon="7.75512"><ele>917.0</ele><time>2026-04-09T15:25:56.349Z</time></trkpt><trkpt lat="43.9964459" lon="7.754897"><ele>917.0</ele><time>2026-04-09T15:25:57.349Z</time></trkpt><trkpt lat="43.9964419" lon="7.754659"><ele>917.0</ele><time>2026-04-09T15:25:58.35Z</time></trkpt><trkpt lat="43.9964524" lon="7.7544282"><ele>917.0</ele><time>2026-04-09T15:25:59.35Z</time></trkpt><trkpt lat="43.996468" lon="7.7541974"><ele>914.75</ele><time>2026-04-09T15:26:00.349Z</time></trkpt><trkpt lat="43.9964625" lon="7.7539814"><ele>912.5</ele><time>2026-04-09T15:26:01.35Z</time></trkpt><trkpt lat="43.9964394" lon="7.7537924"><ele>910.25</ele><time>2026-04-09T15:26:02.35Z</time></trkpt><trkpt lat="43.9964082" lon="7.7536192"><ele>908.0</ele><time>2026-04-09T15:26:03.35Z</time></trkpt><trkpt lat="43.9963815" lon="7.7534559"><ele>907.0</ele><time>2026-04-09T15:26:04.349Z</time></trkpt><trkpt lat="43.9963552" lon="7.7532909"><ele>906.0</ele><time>2026-04-09T15:26:05.349Z</time></trkpt><trkpt lat="43.9963233" lon="7.7531158"><ele>905.0</ele><time>2026-04-09T15:26:06.349Z</time></trkpt><trkpt lat="43.9962894" lon="7.7529355"><ele>904.0</ele><time>2026-04-09T15:26:07.349Z</time></trkpt><trkpt lat="43.9962549" lon="7.752766"><ele>904.0</ele><time>2026-04-09T15:26:08.35Z</time></trkpt><trkpt lat="43.9962277" lon="7.7525999"><ele>904.0000000000001</ele><time>2026-04-09T15:26:09.35Z</time></trkpt><trkpt lat="43.9962085" lon="7.752453"><ele>904.0000000000001</ele><time>2026-04-09T15:26:10.349Z</time></trkpt><trkpt lat="43.9961864" lon="7.7523326"><ele>904.0</ele><time>2026-04-09T15:26:11.349Z</time></trkpt><trkpt lat="43.9961622" lon="7.7522455"><ele>904.0</ele><time>2026-04-09T15:26:12.349Z</time></trkpt><trkpt lat="43.9960527" lon="7.7522039"><ele>904.0</ele><time>2026-04-09T15:26:14.349Z</time></trkpt><trkpt lat="43.995996" lon="7.7522629"><ele>904.0000000000001</ele><time>2026-04-09T15:26:15.349Z</time></trkpt><trkpt lat="43.9959441" lon="7.752353"><ele>904.0000000000001</ele><time>2026-04-09T15:26:16.349Z</time></trkpt><trkpt lat="43.9958784" lon="7.7524723"><ele>904.0</ele><time>2026-04-09T15:26:17.349Z</time></trkpt><trkpt lat="43.9958003" lon="7.7526202"><ele>904.0</ele><time>2026-04-09T15:26:18.349Z</time></trkpt><trkpt lat="43.99574" lon="7.7527822"><ele>899.0</ele><time>2026-04-09T15:26:19.35Z</time></trkpt><trkpt lat="43.9957057" lon="7.7529615"><ele>894.0</ele><time>2026-04-09T15:26:20.35Z</time></trkpt><trkpt lat="43.9956951" lon="7.7531513"><ele>889.0</ele><time>2026-04-09T15:26:21.349Z</time></trkpt><trkpt lat="43.995701" lon="7.7533536"><ele>884.0</ele><time>2026-04-09T15:26:22.349Z</time></trkpt><trkpt lat="43.995705" lon="7.7535572"><ele>883.75</ele><time>2026-04-09T15:26:23.349Z</time></trkpt><trkpt lat="43.9957073" lon="7.7537583"><ele>883.5</ele><time>2026-04-09T15:26:24.349Z</time></trkpt><trkpt lat="43.9957074" lon="7.7539573"><ele>883.25</ele><time>2026-04-09T15:26:25.349Z</time></trkpt><trkpt lat="43.995701" lon="7.7541514"><ele>883.0</ele><time>2026-04-09T15:26:26.349Z</time></trkpt><trkpt lat="43.9956802" lon="7.7543461"><ele>883.0</ele><time>2026-04-09T15:26:27.35Z</time></trkpt><trkpt lat="43.995639" lon="7.7545307"><ele>883.0</ele><time>2026-04-09T15:26:28.35Z</time></trkpt><trkpt lat="43.9955835" lon="7.7547035"><ele>883.0</ele><time>2026-04-09T15:26:29.349Z</time></trkpt><trkpt lat="43.9955312" lon="7.7548545"><ele>883.0</ele><time>2026-04-09T15:26:30.349Z</time></trkpt><trkpt lat="43.9954879" lon="7.755"><ele>883.0</ele><time>2026-04-09T15:26:31.35Z</time></trkpt><trkpt lat="43.9954771" lon="7.7551703"><ele>883.0</ele><time>2026-04-09T15:26:32.349Z</time></trkpt><trkpt lat="43.995504" lon="7.7553828"><ele>883.0</ele><time>2026-04-09T15:26:33.35Z</time></trkpt><trkpt lat="43.9955405" lon="7.7555949"><ele>883.0</ele><time>2026-04-09T15:26:34.35Z</time></trkpt><trkpt lat="43.9955745" lon="7.755818"><ele>877.3333333333333</ele><time>2026-04-09T15:26:35.354Z</time></trkpt><trkpt lat="43.995611" lon="7.7560468"><ele>871.6666666666667</ele><time>2026-04-09T15:26:36.353Z</time></trkpt><trkpt lat="43.9956448" lon="7.7562704"><ele>866.0</ele><time>2026-04-09T15:26:37.353Z</time></trkpt><trkpt lat="43.9956744" lon="7.7564935"><ele>866.0</ele><time>2026-04-09T15:26:38.354Z</time></trkpt><trkpt lat="43.9957055" lon="7.7567089"><ele>866.0</ele><time>2026-04-09T15:26:39.354Z</time></trkpt><trkpt lat="43.9957394" lon="7.7569266"><ele>866.0</ele><time>2026-04-09T15:26:40.354Z</time></trkpt><trkpt lat="43.9957773" lon="7.7571493"><ele>862.0</ele><time>2026-04-09T15:26:41.354Z</time></trkpt><trkpt lat="43.9958051" lon="7.7573703"><ele>858.0</ele><time>2026-04-09T15:26:42.353Z</time></trkpt><trkpt lat="43.9958197" lon="7.7575935"><ele>854.0</ele><time>2026-04-09T15:26:43.353Z</time></trkpt><trkpt lat="43.9958157" lon="7.7578142"><ele>851.6666666666667</ele><time>2026-04-09T15:26:44.354Z</time></trkpt><trkpt lat="43.9958158" lon="7.7580279"><ele>849.3333333333333</ele><time>2026-04-09T15:26:45.353Z</time></trkpt><trkpt lat="43.9958203" lon="7.7582355"><ele>847.0</ele><time>2026-04-09T15:26:46.353Z</time></trkpt><trkpt lat="43.9958314" lon="7.7584403"><ele>846.25</ele><time>2026-04-09T15:26:47.353Z</time></trkpt><trkpt lat="43.9958425" lon="7.7586346"><ele>845.5</ele><time>2026-04-09T15:26:48.354Z</time></trkpt><trkpt lat="43.9958291" lon="7.7588289"><ele>844.75</ele><time>2026-04-09T15:26:49.353Z</time></trkpt><trkpt lat="43.9957872" lon="7.7590195"><ele>844.0</ele><time>2026-04-09T15:26:50.353Z</time></trkpt><trkpt lat="43.9957302" lon="7.7592052"><ele>843.75</ele><time>2026-04-09T15:26:51.353Z</time></trkpt><trkpt lat="43.9956781" lon="7.7593867"><ele>843.5</ele><time>2026-04-09T15:26:52.353Z</time></trkpt><trkpt lat="43.995649" lon="7.7595773"><ele>843.25</ele><time>2026-04-09T15:26:53.353Z</time></trkpt><trkpt lat="43.9956307" lon="7.759779"><ele>843.0</ele><time>2026-04-09T15:26:54.353Z</time></trkpt><trkpt lat="43.9956356" lon="7.7599863"><ele>843.0</ele><time>2026-04-09T15:26:55.353Z</time></trkpt><trkpt lat="43.9956528" lon="7.760188"><ele>843.0</ele><time>2026-04-09T15:26:56.354Z</time></trkpt><trkpt lat="43.9956495" lon="7.7603982"><ele>843.0</ele><time>2026-04-09T15:26:57.353Z</time></trkpt><trkpt lat="43.9956287" lon="7.7606046"><ele>843.0</ele><time>2026-04-09T15:26:58.353Z</time></trkpt><trkpt lat="43.9955908" lon="7.760816"><ele>843.3333333333333</ele><time>2026-04-09T15:26:59.354Z</time></trkpt><trkpt lat="43.9955572" lon="7.7610304"><ele>843.6666666666666</ele><time>2026-04-09T15:27:00.353Z</time></trkpt><trkpt lat="43.9955333" lon="7.761241"><ele>844.0</ele><time>2026-04-09T15:27:01.353Z</time></trkpt><trkpt lat="43.9955178" lon="7.7614457"><ele>844.4000000000001</ele><time>2026-04-09T15:27:02.353Z</time></trkpt><trkpt lat="43.9955008" lon="7.7616431"><ele>844.8</ele><time>2026-04-09T15:27:03.354Z</time></trkpt><trkpt lat="43.9954821" lon="7.7618131"><ele>845.2</ele><time>2026-04-09T15:27:04.353Z</time></trkpt><trkpt lat="43.9954579" lon="7.7619448"><ele>845.5999999999999</ele><time>2026-04-09T15:27:05.353Z</time></trkpt><trkpt lat="43.995438" lon="7.7620479"><ele>846.0</ele><time>2026-04-09T15:27:06.354Z</time></trkpt><trkpt lat="43.995352" lon="7.7621048"><ele>846.0</ele><time>2026-04-09T15:27:08.354Z</time></trkpt><trkpt lat="43.9953133" lon="7.7619902"><ele>846.0</ele><time>2026-04-09T15:27:10.354Z</time></trkpt><trkpt lat="43.9953201" lon="7.7618671"><ele>846.0</ele><time>2026-04-09T15:27:11.354Z</time></trkpt><trkpt lat="43.9953629" lon="7.7617414"><ele>846.0</ele><time>2026-04-09T15:27:12.354Z</time></trkpt><trkpt lat="43.9953621" lon="7.7615878"><ele>846.0</ele><time>2026-04-09T15:27:13.354Z</time></trkpt><trkpt lat="43.9953243" lon="7.7613873"><ele>846.0</ele><time>2026-04-09T15:27:14.353Z</time></trkpt><trkpt lat="43.9953089" lon="7.7611919"><ele>846.0</ele><time>2026-04-09T15:27:15.354Z</time></trkpt><trkpt lat="43.9953024" lon="7.7610044"><ele>846.0</ele><time>2026-04-09T15:27:16.353Z</time></trkpt><trkpt lat="43.9953007" lon="7.7608212"><ele>846.0</ele><time>2026-04-09T15:27:17.353Z</time></trkpt><trkpt lat="43.995297" lon="7.760644"><ele>845.5</ele><time>2026-04-09T15:27:18.353Z</time></trkpt><trkpt lat="43.9952778" lon="7.7604636"><ele>845.0</ele><time>2026-04-09T15:27:19.354Z</time></trkpt><trkpt lat="43.9952528" lon="7.7602838"><ele>844.5</ele><time>2026-04-09T15:27:20.354Z</time></trkpt><trkpt lat="43.995232" lon="7.76011"><ele>844.0</ele><time>2026-04-09T15:27:21.354Z</time></trkpt><trkpt lat="43.9952109" lon="7.7599458"><ele>843.8000000000001</ele><time>2026-04-09T15:27:22.353Z</time></trkpt><trkpt lat="43.9951798" lon="7.7598109"><ele>843.6</ele><time>2026-04-09T15:27:23.354Z</time></trkpt><trkpt lat="43.9951373" lon="7.7596944"><ele>843.4</ele><time>2026-04-09T15:27:24.353Z</time></trkpt><trkpt lat="43.9950921" lon="7.7595961"><ele>843.2</ele><time>2026-04-09T15:27:25.353Z</time></trkpt><trkpt lat="43.9950261" lon="7.7595092"><ele>843.0</ele><time>2026-04-09T15:27:26.353Z</time></trkpt><trkpt lat="43.9949409" lon="7.7594345"><ele>837.5999999999999</ele><time>2026-04-09T15:27:27.354Z</time></trkpt><trkpt lat="43.9948497" lon="7.7593647"><ele>832.1999999999999</ele><time>2026-04-09T15:27:28.353Z</time></trkpt><trkpt lat="43.994768" lon="7.7593027"><ele>826.8</ele><time>2026-04-09T15:27:29.353Z</time></trkpt><trkpt lat="43.9947107" lon="7.7592201"><ele>821.4</ele><time>2026-04-09T15:27:30.353Z</time></trkpt><trkpt lat="43.9946891" lon="7.7590929"><ele>816.0</ele><time>2026-04-09T15:27:31.354Z</time></trkpt><trkpt lat="43.9946919" lon="7.7589698"><ele>816.0</ele><time>2026-04-09T15:27:32.353Z</time></trkpt><trkpt lat="43.994695" lon="7.7588544"><ele>816.0</ele><time>2026-04-09T15:27:33.353Z</time></trkpt><trkpt lat="43.9946171" lon="7.7587467"><ele>816.0</ele><time>2026-04-09T15:27:35.354Z</time></trkpt><trkpt lat="43.994524" lon="7.7588174"><ele>816.0</ele><time>2026-04-09T15:27:37.354Z</time></trkpt><trkpt lat="43.9945027" lon="7.7589415"><ele>816.0</ele><time>2026-04-09T15:27:38.354Z</time></trkpt><trkpt lat="43.9944993" lon="7.7590965"><ele>816.0</ele><time>2026-04-09T15:27:39.354Z</time></trkpt><trkpt lat="43.9944948" lon="7.7592409"><ele>816.0</ele><time>2026-04-09T15:27:40.354Z</time></trkpt><trkpt lat="43.9945073" lon="7.7593729"><ele>816.0</ele><time>2026-04-09T15:27:41.353Z</time></trkpt><trkpt lat="43.9945444" lon="7.7594972"><ele>816.0</ele><time>2026-04-09T15:27:42.353Z</time></trkpt><trkpt lat="43.9945816" lon="7.7595985"><ele>816.0</ele><time>2026-04-09T15:27:43.353Z</time></trkpt><trkpt lat="43.9945931" lon="7.7596872"><ele>816.0</ele><time>2026-04-09T15:27:44.353Z</time></trkpt><trkpt lat="43.9945082" lon="7.759786"><ele>815.6666666666666</ele><time>2026-04-09T15:27:46.354Z</time></trkpt><trkpt lat="43.9944357" lon="7.7596864"><ele>815.3333333333333</ele><time>2026-04-09T15:27:48.353Z</time></trkpt><trkpt lat="43.9944204" lon="7.7595793"><ele>815.0</ele><time>2026-04-09T15:27:49.353Z</time></trkpt><trkpt lat="43.9943977" lon="7.7594844"><ele>814.6666666666666</ele><time>2026-04-09T15:27:50.354Z</time></trkpt><trkpt lat="43.9942976" lon="7.7594175"><ele>814.3333333333333</ele><time>2026-04-09T15:27:52.354Z</time></trkpt><trkpt lat="43.9942356" lon="7.7594635"><ele>814.0</ele><time>2026-04-09T15:27:53.353Z</time></trkpt><trkpt lat="43.9941692" lon="7.7595631"><ele>808.75</ele><time>2026-04-09T15:27:54.353Z</time></trkpt><trkpt lat="43.9940956" lon="7.7596883"><ele>803.5</ele><time>2026-04-09T15:27:55.353Z</time></trkpt><trkpt lat="43.9940196" lon="7.7598187"><ele>798.25</ele><time>2026-04-09T15:27:56.354Z</time></trkpt><trkpt lat="43.9939619" lon="7.7599487"><ele>793.0</ele><time>2026-04-09T15:27:57.353Z</time></trkpt><trkpt lat="43.9939088" lon="7.7600851"><ele>793.2</ele><time>2026-04-09T15:27:58.353Z</time></trkpt><trkpt lat="43.9938723" lon="7.760224"><ele>793.4</ele><time>2026-04-09T15:27:59.353Z</time></trkpt><trkpt lat="43.9938566" lon="7.7603513"><ele>793.6</ele><time>2026-04-09T15:28:00.354Z</time></trkpt><trkpt lat="43.9938681" lon="7.7604648"><ele>793.8000000000001</ele><time>2026-04-09T15:28:01.354Z</time></trkpt><trkpt lat="43.9939011" lon="7.7606077"><ele>794.0</ele><time>2026-04-09T15:28:02.354Z</time></trkpt><trkpt lat="43.9939307" lon="7.7607461"><ele>794.0</ele><time>2026-04-09T15:28:03.354Z</time></trkpt><trkpt lat="43.9939657" lon="7.7608689"><ele>794.0</ele><time>2026-04-09T15:28:04.353Z</time></trkpt><trkpt lat="43.9939895" lon="7.7609847"><ele>794.0</ele><time>2026-04-09T15:28:05.353Z</time></trkpt><trkpt lat="43.9940151" lon="7.7611091"><ele>794.0</ele><time>2026-04-09T15:28:06.354Z</time></trkpt><trkpt lat="43.9940403" lon="7.761233"><ele>794.0</ele><time>2026-04-09T15:28:07.354Z</time></trkpt><trkpt lat="43.9940626" lon="7.7613494"><ele>793.2</ele><time>2026-04-09T15:28:08.354Z</time></trkpt><trkpt lat="43.9940819" lon="7.7614699"><ele>792.4000000000001</ele><time>2026-04-09T15:28:09.353Z</time></trkpt><trkpt lat="43.9941154" lon="7.7615973"><ele>791.6</ele><time>2026-04-09T15:28:10.353Z</time></trkpt><trkpt lat="43.9941432" lon="7.7617319"><ele>790.8</ele><time>2026-04-09T15:28:11.354Z</time></trkpt><trkpt lat="43.9941601" lon="7.7618705"><ele>790.0</ele><time>2026-04-09T15:28:12.354Z</time></trkpt><trkpt lat="43.9941699" lon="7.7620025"><ele>789.4</ele><time>2026-04-09T15:28:13.353Z</time></trkpt><trkpt lat="43.9941749" lon="7.7621352"><ele>788.8</ele><time>2026-04-09T15:28:14.353Z</time></trkpt><trkpt lat="43.994176" lon="7.7622483"><ele>788.2</ele><time>2026-04-09T15:28:15.353Z</time></trkpt><trkpt lat="43.9941311" lon="7.7623664"><ele>787.6</ele><time>2026-04-09T15:28:17.354Z</time></trkpt><trkpt lat="43.9940658" lon="7.7623582"><ele>787.0</ele><time>2026-04-09T15:28:19.354Z</time></trkpt><trkpt lat="43.9940026" lon="7.762218"><ele>787.0</ele><time>2026-04-09T15:28:21.354Z</time></trkpt><trkpt lat="43.9939603" lon="7.7621069"><ele>787.0</ele><time>2026-04-09T15:28:22.353Z</time></trkpt><trkpt lat="43.9939158" lon="7.7619826"><ele>787.0</ele><time>2026-04-09T15:28:23.354Z</time></trkpt><trkpt lat="43.9938679" lon="7.7618379"><ele>787.0</ele><time>2026-04-09T15:28:24.354Z</time></trkpt><trkpt lat="43.9938191" lon="7.7616874"><ele>787.0</ele><time>2026-04-09T15:28:25.354Z</time></trkpt><trkpt lat="43.9937602" lon="7.7615219"><ele>787.75</ele><time>2026-04-09T15:28:26.354Z</time></trkpt><trkpt lat="43.9936988" lon="7.7613478"><ele>788.5</ele><time>2026-04-09T15:28:27.354Z</time></trkpt><trkpt lat="43.9936381" lon="7.7611796"><ele>789.25</ele><time>2026-04-09T15:28:28.355Z</time></trkpt><trkpt lat="43.9935837" lon="7.7610276"><ele>790.0</ele><time>2026-04-09T15:28:29.355Z</time></trkpt><trkpt lat="43.9935313" lon="7.7608813"><ele>790.8</ele><time>2026-04-09T15:28:30.354Z</time></trkpt><trkpt lat="43.9934841" lon="7.7607367"><ele>791.6</ele><time>2026-04-09T15:28:31.354Z</time></trkpt><trkpt lat="43.9934522" lon="7.7606138"><ele>792.4000000000001</ele><time>2026-04-09T15:28:32.355Z</time></trkpt><trkpt lat="43.9934119" lon="7.7605418"><ele>793.2</ele><time>2026-04-09T15:28:33.354Z</time></trkpt><trkpt lat="43.9933439" lon="7.7605135"><ele>794.0</ele><time>2026-04-09T15:28:37.355Z</time></trkpt><trkpt lat="43.9932765" lon="7.7606276"><ele>789.8000000000001</ele><time>2026-04-09T15:28:39.355Z</time></trkpt><trkpt lat="43.9932592" lon="7.7607309"><ele>785.6</ele><time>2026-04-09T15:28:40.355Z</time></trkpt><trkpt lat="43.9932471" lon="7.7608714"><ele>781.4</ele><time>2026-04-09T15:28:41.355Z</time></trkpt><trkpt lat="43.9932349" lon="7.7610386"><ele>777.2</ele><time>2026-04-09T15:28:42.355Z</time></trkpt><trkpt lat="43.9932165" lon="7.7612166"><ele>773.0</ele><time>2026-04-09T15:28:43.355Z</time></trkpt><trkpt lat="43.9931981" lon="7.7614033"><ele>773.0</ele><time>2026-04-09T15:28:44.355Z</time></trkpt><trkpt lat="43.9931778" lon="7.7615928"><ele>773.0</ele><time>2026-04-09T15:28:45.354Z</time></trkpt><trkpt lat="43.9931637" lon="7.7617824"><ele>773.0</ele><time>2026-04-09T15:28:46.354Z</time></trkpt><trkpt lat="43.9931633" lon="7.7619753"><ele>773.0</ele><time>2026-04-09T15:28:47.354Z</time></trkpt><trkpt lat="43.9931797" lon="7.7621747"><ele>772.25</ele><time>2026-04-09T15:28:48.355Z</time></trkpt><trkpt lat="43.9932123" lon="7.7623716"><ele>771.5</ele><time>2026-04-09T15:28:49.355Z</time></trkpt><trkpt lat="43.9932454" lon="7.7625602"><ele>770.75</ele><time>2026-04-09T15:28:50.354Z</time></trkpt><trkpt lat="43.9932689" lon="7.7627363"><ele>770.0</ele><time>2026-04-09T15:28:51.355Z</time></trkpt><trkpt lat="43.9932516" lon="7.7629149"><ele>771.0</ele><time>2026-04-09T15:28:52.354Z</time></trkpt><trkpt lat="43.9932142" lon="7.7631121"><ele>772.0</ele><time>2026-04-09T15:28:53.355Z</time></trkpt><trkpt lat="43.9931844" lon="7.763306"><ele>773.0</ele><time>2026-04-09T15:28:54.354Z</time></trkpt><trkpt lat="43.9931652" lon="7.7635004"><ele>774.0</ele><time>2026-04-09T15:28:55.354Z</time></trkpt><trkpt lat="43.9931551" lon="7.7636959"><ele>774.0</ele><time>2026-04-09T15:28:56.354Z</time></trkpt><trkpt lat="43.9931239" lon="7.7638983"><ele>774.0</ele><time>2026-04-09T15:28:57.355Z</time></trkpt><trkpt lat="43.9930533" lon="7.7641105"><ele>774.0</ele><time>2026-04-09T15:28:58.354Z</time></trkpt><trkpt lat="43.9929694" lon="7.7643269"><ele>782.0</ele><time>2026-04-09T15:28:59.355Z</time></trkpt><trkpt lat="43.9928829" lon="7.7645263"><ele>790.0</ele><time>2026-04-09T15:29:00.355Z</time></trkpt><trkpt lat="43.9927953" lon="7.7647085"><ele>798.0</ele><time>2026-04-09T15:29:01.354Z</time></trkpt><trkpt lat="43.992701" lon="7.7648575"><ele>798.0</ele><time>2026-04-09T15:29:02.355Z</time></trkpt><trkpt lat="43.9925831" lon="7.7649871"><ele>798.0</ele><time>2026-04-09T15:29:03.354Z</time></trkpt><trkpt lat="43.9924543" lon="7.7651111"><ele>798.0</ele><time>2026-04-09T15:29:04.354Z</time></trkpt><trkpt lat="43.9923175" lon="7.7652269"><ele>792.5</ele><time>2026-04-09T15:29:05.354Z</time></trkpt><trkpt lat="43.9921811" lon="7.7653292"><ele>787.0</ele><time>2026-04-09T15:29:06.355Z</time></trkpt><trkpt lat="43.9920469" lon="7.765406"><ele>781.5</ele><time>2026-04-09T15:29:07.355Z</time></trkpt><trkpt lat="43.9919222" lon="7.7654802"><ele>776.0</ele><time>2026-04-09T15:29:08.355Z</time></trkpt><trkpt lat="43.9918128" lon="7.7655582"><ele>776.0</ele><time>2026-04-09T15:29:09.354Z</time></trkpt><trkpt lat="43.9917194" lon="7.7656422"><ele>776.0</ele><time>2026-04-09T15:29:10.354Z</time></trkpt><trkpt lat="43.9916366" lon="7.7657503"><ele>776.0</ele><time>2026-04-09T15:29:11.354Z</time></trkpt><trkpt lat="43.9915637" lon="7.765887"><ele>776.0</ele><time>2026-04-09T15:29:12.355Z</time></trkpt><trkpt lat="43.9914917" lon="7.7660558"><ele>769.3333333333334</ele><time>2026-04-09T15:29:13.354Z</time></trkpt><trkpt lat="43.9914205" lon="7.7662395"><ele>762.6666666666667</ele><time>2026-04-09T15:29:14.354Z</time></trkpt><trkpt lat="43.9913431" lon="7.766434"><ele>756.0</ele><time>2026-04-09T15:29:15.355Z</time></trkpt><trkpt lat="43.9912822" lon="7.7666428"><ele>756.0</ele><time>2026-04-09T15:29:16.354Z</time></trkpt><trkpt lat="43.9912184" lon="7.7668509"><ele>756.0</ele><time>2026-04-09T15:29:17.354Z</time></trkpt><trkpt lat="43.9911515" lon="7.7670399"><ele>756.0</ele><time>2026-04-09T15:29:18.354Z</time></trkpt><trkpt lat="43.9910644" lon="7.7672132"><ele>761.3333333333333</ele><time>2026-04-09T15:29:19.354Z</time></trkpt><trkpt lat="43.9909485" lon="7.7673784"><ele>766.6666666666666</ele><time>2026-04-09T15:29:20.355Z</time></trkpt><trkpt lat="43.9908223" lon="7.7675414"><ele>772.0</ele><time>2026-04-09T15:29:21.355Z</time></trkpt><trkpt lat="43.9906957" lon="7.7677148"><ele>759.3333333333333</ele><time>2026-04-09T15:29:22.354Z</time></trkpt><trkpt lat="43.9905785" lon="7.7679017"><ele>746.6666666666666</ele><time>2026-04-09T15:29:23.354Z</time></trkpt><trkpt lat="43.9904835" lon="7.7681003"><ele>734.0</ele><time>2026-04-09T15:29:24.354Z</time></trkpt><trkpt lat="43.990397" lon="7.7682843"><ele>734.0</ele><time>2026-04-09T15:29:25.354Z</time></trkpt><trkpt lat="43.9903344" lon="7.7684434"><ele>734.0</ele><time>2026-04-09T15:29:26.355Z</time></trkpt><trkpt lat="43.9902955" lon="7.7685842"><ele>734.0</ele><time>2026-04-09T15:29:27.355Z</time></trkpt><trkpt lat="43.9902841" lon="7.7686952"><ele>734.0</ele><time>2026-04-09T15:29:28.354Z</time></trkpt><trkpt lat="43.9903063" lon="7.7687928"><ele>734.0</ele><time>2026-04-09T15:29:29.355Z</time></trkpt><trkpt lat="43.9903633" lon="7.7688716"><ele>726.25</ele><time>2026-04-09T15:29:30.354Z</time></trkpt><trkpt lat="43.9904556" lon="7.7688913"><ele>718.5</ele><time>2026-04-09T15:29:31.354Z</time></trkpt><trkpt lat="43.990573" lon="7.768876"><ele>710.75</ele><time>2026-04-09T15:29:32.355Z</time></trkpt><trkpt lat="43.9906964" lon="7.7688693"><ele>703.0</ele><time>2026-04-09T15:29:33.354Z</time></trkpt><trkpt lat="43.9908282" lon="7.7688638"><ele>705.75</ele><time>2026-04-09T15:29:34.354Z</time></trkpt><trkpt lat="43.9909625" lon="7.7688654"><ele>708.5</ele><time>2026-04-09T15:29:35.355Z</time></trkpt><trkpt lat="43.9910823" lon="7.7688772"><ele>711.25</ele><time>2026-04-09T15:29:36.355Z</time></trkpt><trkpt lat="43.9911976" lon="7.7689155"><ele>714.0</ele><time>2026-04-09T15:29:37.355Z</time></trkpt><trkpt lat="43.9913056" lon="7.7689953"><ele>714.0</ele><time>2026-04-09T15:29:38.354Z</time></trkpt><trkpt lat="43.9914118" lon="7.7690954"><ele>714.0</ele><time>2026-04-09T15:29:39.355Z</time></trkpt><trkpt lat="43.9915368" lon="7.7691716"><ele>714.0</ele><time>2026-04-09T15:29:40.354Z</time></trkpt><trkpt lat="43.9916663" lon="7.7692244"><ele>714.0</ele><time>2026-04-09T15:29:41.355Z</time></trkpt><trkpt lat="43.9917782" lon="7.7692963"><ele>707.75</ele><time>2026-04-09T15:29:42.354Z</time></trkpt><trkpt lat="43.9918791" lon="7.7694204"><ele>701.5</ele><time>2026-04-09T15:29:43.354Z</time></trkpt><trkpt lat="43.9919725" lon="7.7695643"><ele>695.25</ele><time>2026-04-09T15:29:44.354Z</time></trkpt><trkpt lat="43.9920554" lon="7.7697085"><ele>689.0</ele><time>2026-04-09T15:29:45.354Z</time></trkpt><trkpt lat="43.9921306" lon="7.7698199"><ele>689.0</ele><time>2026-04-09T15:29:46.354Z</time></trkpt><trkpt lat="43.9921938" lon="7.7698947"><ele>689.0</ele><time>2026-04-09T15:29:47.354Z</time></trkpt><trkpt lat="43.9922592" lon="7.7698887"><ele>689.0</ele><time>2026-04-09T15:29:48.354Z</time></trkpt><trkpt lat="43.9923573" lon="7.7698192"><ele>689.0</ele><time>2026-04-09T15:29:49.355Z</time></trkpt><trkpt lat="43.9924672" lon="7.7697352"><ele>689.0</ele><time>2026-04-09T15:29:50.354Z</time></trkpt><trkpt lat="43.9925745" lon="7.7696196"><ele>681.6666666666666</ele><time>2026-04-09T15:29:51.354Z</time></trkpt><trkpt lat="43.9926692" lon="7.7694639"><ele>674.3333333333334</ele><time>2026-04-09T15:29:52.355Z</time></trkpt><trkpt lat="43.9927409" lon="7.7692791"><ele>667.0</ele><time>2026-04-09T15:29:53.355Z</time></trkpt><trkpt lat="43.9928067" lon="7.7690828"><ele>667.0</ele><time>2026-04-09T15:29:54.355Z</time></trkpt><trkpt lat="43.992884" lon="7.7688909"><ele>667.0</ele><time>2026-04-09T15:29:55.355Z</time></trkpt><trkpt lat="43.992963" lon="7.7686986"><ele>667.0</ele><time>2026-04-09T15:29:56.354Z</time></trkpt><trkpt lat="43.9930537" lon="7.7685306"><ele>666.25</ele><time>2026-04-09T15:29:57.355Z</time></trkpt><trkpt lat="43.9931376" lon="7.7683812"><ele>665.5</ele><time>2026-04-09T15:29:58.355Z</time></trkpt><trkpt lat="43.9932137" lon="7.7682309"><ele>664.75</ele><time>2026-04-09T15:29:59.354Z</time></trkpt><trkpt lat="43.9932769" lon="7.7680844"><ele>664.0</ele><time>2026-04-09T15:30:00.354Z</time></trkpt><trkpt lat="43.993351" lon="7.7679718"><ele>664.0</ele><time>2026-04-09T15:30:01.354Z</time></trkpt><trkpt lat="43.9934561" lon="7.76789"><ele>664.0</ele><time>2026-04-09T15:30:02.354Z</time></trkpt><trkpt lat="43.9935878" lon="7.7678349"><ele>664.0</ele><time>2026-04-09T15:30:03.354Z</time></trkpt><trkpt lat="43.993721" lon="7.7677698"><ele>664.0</ele><time>2026-04-09T15:30:04.355Z</time></trkpt><trkpt lat="43.9938462" lon="7.7677061"><ele>664.0</ele><time>2026-04-09T15:30:05.354Z</time></trkpt><trkpt lat="43.9939624" lon="7.767691"><ele>664.0</ele><time>2026-04-09T15:30:06.355Z</time></trkpt><trkpt lat="43.9940616" lon="7.7677293"><ele>664.0</ele><time>2026-04-09T15:30:07.354Z</time></trkpt><trkpt lat="43.9941465" lon="7.7678294"><ele>664.0</ele><time>2026-04-09T15:30:08.355Z</time></trkpt><trkpt lat="43.9942321" lon="7.7679394"><ele>664.0</ele><time>2026-04-09T15:30:09.354Z</time></trkpt><trkpt lat="43.9943525" lon="7.768033"><ele>666.6666666666667</ele><time>2026-04-09T15:30:10.355Z</time></trkpt><trkpt lat="43.9945036" lon="7.7680734"><ele>669.3333333333334</ele><time>2026-04-09T15:30:11.355Z</time></trkpt><trkpt lat="43.9946571" lon="7.7681001"><ele>672.0</ele><time>2026-04-09T15:30:12.354Z</time></trkpt><trkpt lat="43.9948037" lon="7.7681569"><ele>672.0</ele><time>2026-04-09T15:30:13.354Z</time></trkpt><trkpt lat="43.9949418" lon="7.7682485"><ele>672.0</ele><time>2026-04-09T15:30:14.355Z</time></trkpt><trkpt lat="43.9950754" lon="7.7683437"><ele>672.0</ele><time>2026-04-09T15:30:15.354Z</time></trkpt><trkpt lat="43.9952181" lon="7.7683995"><ele>671.0</ele><time>2026-04-09T15:30:16.355Z</time></trkpt><trkpt lat="43.995374" lon="7.7684054"><ele>670.0</ele><time>2026-04-09T15:30:17.355Z</time></trkpt><trkpt lat="43.9955329" lon="7.7683669"><ele>669.0</ele><time>2026-04-09T15:30:18.354Z</time></trkpt><trkpt lat="43.9956866" lon="7.7683156"><ele>669.0</ele><time>2026-04-09T15:30:19.355Z</time></trkpt><trkpt lat="43.9958268" lon="7.7682479"><ele>669.0</ele><time>2026-04-09T15:30:20.354Z</time></trkpt><trkpt lat="43.9959666" lon="7.768136"><ele>669.0</ele><time>2026-04-09T15:30:21.354Z</time></trkpt><trkpt lat="43.9960974" lon="7.7680081"><ele>670.0</ele><time>2026-04-09T15:30:22.355Z</time></trkpt><trkpt lat="43.9962343" lon="7.7678756"><ele>671.0</ele><time>2026-04-09T15:30:23.354Z</time></trkpt><trkpt lat="43.9963981" lon="7.7677759"><ele>672.0</ele><time>2026-04-09T15:30:24.354Z</time></trkpt><trkpt lat="43.9965762" lon="7.7676833"><ele>663.6666666666666</ele><time>2026-04-09T15:30:25.355Z</time></trkpt><trkpt lat="43.9967374" lon="7.767583"><ele>655.3333333333333</ele><time>2026-04-09T15:30:26.355Z</time></trkpt><trkpt lat="43.9968794" lon="7.7674807"><ele>647.0</ele><time>2026-04-09T15:30:27.354Z</time></trkpt><trkpt lat="43.9970193" lon="7.7674253"><ele>647.0</ele><time>2026-04-09T15:30:28.355Z</time></trkpt><trkpt lat="43.9971655" lon="7.7674261"><ele>647.0</ele><time>2026-04-09T15:30:29.354Z</time></trkpt><trkpt lat="43.9973085" lon="7.7674553"><ele>647.0</ele><time>2026-04-09T15:30:30.355Z</time></trkpt><trkpt lat="43.9974299" lon="7.767437"><ele>647.0</ele><time>2026-04-09T15:30:31.354Z</time></trkpt><trkpt lat="43.997552" lon="7.7673621"><ele>639.3333333333333</ele><time>2026-04-09T15:30:32.355Z</time></trkpt><trkpt lat="43.9976977" lon="7.7672447"><ele>631.6666666666666</ele><time>2026-04-09T15:30:33.354Z</time></trkpt><trkpt lat="43.997842" lon="7.7671262"><ele>624.0</ele><time>2026-04-09T15:30:34.355Z</time></trkpt><trkpt lat="43.9979768" lon="7.7670008"><ele>629.0</ele><time>2026-04-09T15:30:35.354Z</time></trkpt><trkpt lat="43.9981039" lon="7.7668603"><ele>634.0</ele><time>2026-04-09T15:30:36.355Z</time></trkpt><trkpt lat="43.9982081" lon="7.7667118"><ele>639.0</ele><time>2026-04-09T15:30:37.355Z</time></trkpt><trkpt lat="43.9982912" lon="7.7665714"><ele>644.0</ele><time>2026-04-09T15:30:38.355Z</time></trkpt><trkpt lat="43.9983515" lon="7.7664472"><ele>644.0</ele><time>2026-04-09T15:30:39.354Z</time></trkpt><trkpt lat="43.9984091" lon="7.7663566"><ele>644.0</ele><time>2026-04-09T15:30:40.355Z</time></trkpt><trkpt lat="43.9984842" lon="7.7663339"><ele>644.0</ele><time>2026-04-09T15:30:41.354Z</time></trkpt><trkpt lat="43.9985788" lon="7.766406"><ele>644.0</ele><time>2026-04-09T15:30:42.354Z</time></trkpt><trkpt lat="43.9986882" lon="7.766523"><ele>644.0</ele><time>2026-04-09T15:30:43.355Z</time></trkpt><trkpt lat="43.9988176" lon="7.766653"><ele>644.0</ele><time>2026-04-09T15:30:44.354Z</time></trkpt><trkpt lat="43.9989566" lon="7.7667675"><ele>644.0</ele><time>2026-04-09T15:30:45.355Z</time></trkpt><trkpt lat="43.9990915" lon="7.7668692"><ele>644.0</ele><time>2026-04-09T15:30:46.355Z</time></trkpt><trkpt lat="43.9992355" lon="7.7669244"><ele>633.0</ele><time>2026-04-09T15:30:47.355Z</time></trkpt><trkpt lat="43.9993913" lon="7.7669436"><ele>622.0</ele><time>2026-04-09T15:30:48.355Z</time></trkpt><trkpt lat="43.9995503" lon="7.7669824"><ele>611.0</ele><time>2026-04-09T15:30:49.355Z</time></trkpt><trkpt lat="43.9996972" lon="7.7670412"><ele>611.0</ele><time>2026-04-09T15:30:50.355Z</time></trkpt><trkpt lat="43.9998297" lon="7.7670798"><ele>611.0</ele><time>2026-04-09T15:30:51.355Z</time></trkpt><trkpt lat="43.9999725" lon="7.7670805"><ele>611.0</ele><time>2026-04-09T15:30:52.354Z</time></trkpt><trkpt lat="44.0001248" lon="7.7670058"><ele>611.0</ele><time>2026-04-09T15:30:53.355Z</time></trkpt><trkpt lat="44.0002837" lon="7.7669286"><ele>611.0</ele><time>2026-04-09T15:30:54.354Z</time></trkpt><trkpt lat="44.0004438" lon="7.7668819"><ele>611.0</ele><time>2026-04-09T15:30:55.355Z</time></trkpt><trkpt lat="44.0006007" lon="7.7668734"><ele>611.0</ele><time>2026-04-09T15:30:56.354Z</time></trkpt><trkpt lat="44.0007444" lon="7.7668773"><ele>607.6</ele><time>2026-04-09T15:30:57.355Z</time></trkpt><trkpt lat="44.0008754" lon="7.7668749"><ele>604.2</ele><time>2026-04-09T15:30:58.354Z</time></trkpt><trkpt lat="44.0009799" lon="7.7668307"><ele>600.8</ele><time>2026-04-09T15:30:59.354Z</time></trkpt><trkpt lat="44.001053" lon="7.7667432"><ele>597.4</ele><time>2026-04-09T15:31:00.354Z</time></trkpt><trkpt lat="44.0011168" lon="7.7666678"><ele>594.0</ele><time>2026-04-09T15:31:01.355Z</time></trkpt><trkpt lat="44.0011802" lon="7.7666442"><ele>594.0</ele><time>2026-04-09T15:31:02.355Z</time></trkpt><trkpt lat="44.0012084" lon="7.7667705"><ele>594.0</ele><time>2026-04-09T15:31:04.355Z</time></trkpt><trkpt lat="44.0011573" lon="7.7668289"><ele>594.0</ele><time>2026-04-09T15:31:05.354Z</time></trkpt><trkpt lat="44.0010618" lon="7.766886"><ele>594.0</ele><time>2026-04-09T15:31:06.354Z</time></trkpt><trkpt lat="44.000947" lon="7.7669259"><ele>594.0</ele><time>2026-04-09T15:31:07.355Z</time></trkpt><trkpt lat="44.0008075" lon="7.7669516"><ele>599.6666666666666</ele><time>2026-04-09T15:31:08.354Z</time></trkpt><trkpt lat="44.0006545" lon="7.766972"><ele>605.3333333333333</ele><time>2026-04-09T15:31:09.354Z</time></trkpt><trkpt lat="44.000492" lon="7.7670144"><ele>611.0</ele><time>2026-04-09T15:31:10.354Z</time></trkpt><trkpt lat="44.0003242" lon="7.7671026"><ele>611.0</ele><time>2026-04-09T15:31:11.355Z</time></trkpt><trkpt lat="44.000163" lon="7.7672367"><ele>611.0</ele><time>2026-04-09T15:31:12.354Z</time></trkpt><trkpt lat="44.0000144" lon="7.7673637"><ele>611.0</ele><time>2026-04-09T15:31:13.355Z</time></trkpt><trkpt lat="43.9998823" lon="7.7674844"><ele>611.0</ele><time>2026-04-09T15:31:14.354Z</time></trkpt><trkpt lat="43.9997723" lon="7.7675626"><ele>611.0</ele><time>2026-04-09T15:31:15.354Z</time></trkpt><trkpt lat="43.9996678" lon="7.7675852"><ele>611.0</ele><time>2026-04-09T15:31:16.355Z</time></trkpt><trkpt lat="43.999589" lon="7.7675655"><ele>611.0</ele><time>2026-04-09T15:31:17.355Z</time></trkpt><trkpt lat="43.9995274" lon="7.7674844"><ele>611.0</ele><time>2026-04-09T15:31:18.354Z</time></trkpt><trkpt lat="43.9994659" lon="7.7674108"><ele>611.0</ele><time>2026-04-09T15:31:19.354Z</time></trkpt><trkpt lat="43.9993923" lon="7.7673817"><ele>611.0</ele><time>2026-04-09T15:31:20.355Z</time></trkpt><trkpt lat="43.9993331" lon="7.767447"><ele>611.0</ele><time>2026-04-09T15:31:21.355Z</time></trkpt><trkpt lat="43.9993305" lon="7.7676253"><ele>611.0</ele><time>2026-04-09T15:31:23.354Z</time></trkpt><trkpt lat="43.9994041" lon="7.7677066"><ele>611.0</ele><time>2026-04-09T15:31:24.355Z</time></trkpt><trkpt lat="43.999523" lon="7.7677009"><ele>611.0</ele><time>2026-04-09T15:31:25.355Z</time></trkpt><trkpt lat="43.9996691" lon="7.7676723"><ele>611.0</ele><time>2026-04-09T15:31:26.354Z</time></trkpt><trkpt lat="43.9998235" lon="7.7676393"><ele>611.0</ele><time>2026-04-09T15:31:27.355Z</time></trkpt><trkpt lat="43.9999852" lon="7.7675918"><ele>611.0</ele><time>2026-04-09T15:31:28.354Z</time></trkpt><trkpt lat="44.0001447" lon="7.7675426"><ele>611.0</ele><time>2026-04-09T15:31:29.355Z</time></trkpt><trkpt lat="44.0002928" lon="7.767469"><ele>611.0</ele><time>2026-04-09T15:31:30.355Z</time></trkpt><trkpt lat="44.0004418" lon="7.7673964"><ele>611.0</ele><time>2026-04-09T15:31:31.354Z</time></trkpt><trkpt lat="44.0006039" lon="7.7673442"><ele>611.0</ele><time>2026-04-09T15:31:32.354Z</time></trkpt><trkpt lat="44.0007766" lon="7.7673076"><ele>611.0</ele><time>2026-04-09T15:31:33.354Z</time></trkpt><trkpt lat="44.0009558" lon="7.7672751"><ele>605.3333333333333</ele><time>2026-04-09T15:31:34.355Z</time></trkpt><trkpt lat="44.0011337" lon="7.7672424"><ele>599.6666666666666</ele><time>2026-04-09T15:31:35.355Z</time></trkpt><trkpt lat="44.0013041" lon="7.7671962"><ele>594.0</ele><time>2026-04-09T15:31:36.355Z</time></trkpt><trkpt lat="44.0014691" lon="7.767131"><ele>594.0</ele><time>2026-04-09T15:31:37.354Z</time></trkpt><trkpt lat="44.0016308" lon="7.7670561"><ele>594.0</ele><time>2026-04-09T15:31:38.355Z</time></trkpt><trkpt lat="44.0017851" lon="7.7669755"><ele>594.0</ele><time>2026-04-09T15:31:39.355Z</time></trkpt><trkpt lat="44.001928" lon="7.7668658"><ele>603.3333333333334</ele><time>2026-04-09T15:31:40.355Z</time></trkpt><trkpt lat="44.0020861" lon="7.7667678"><ele>612.6666666666667</ele><time>2026-04-09T15:31:41.354Z</time></trkpt><trkpt lat="44.0022482" lon="7.766706"><ele>622.0</ele><time>2026-04-09T15:31:42.354Z</time></trkpt><trkpt lat="44.002398" lon="7.7666447"><ele>614.5</ele><time>2026-04-09T15:31:43.354Z</time></trkpt><trkpt lat="44.0025323" lon="7.7665453"><ele>607.0</ele><time>2026-04-09T15:31:44.355Z</time></trkpt><trkpt lat="44.0026643" lon="7.7664622"><ele>599.5</ele><time>2026-04-09T15:31:45.354Z</time></trkpt><trkpt lat="44.002805" lon="7.7664167"><ele>592.0</ele><time>2026-04-09T15:31:46.354Z</time></trkpt><trkpt lat="44.002955" lon="7.7664172"><ele>592.0</ele><time>2026-04-09T15:31:47.354Z</time></trkpt><trkpt lat="44.0031136" lon="7.7664287"><ele>592.0</ele><time>2026-04-09T15:31:48.354Z</time></trkpt><trkpt lat="44.0032637" lon="7.7664502"><ele>592.0</ele><time>2026-04-09T15:31:49.354Z</time></trkpt><trkpt lat="44.0034074" lon="7.7665159"><ele>589.0</ele><time>2026-04-09T15:31:50.355Z</time></trkpt><trkpt lat="44.0035433" lon="7.7666131"><ele>586.0</ele><time>2026-04-09T15:31:51.354Z</time></trkpt><trkpt lat="44.0036684" lon="7.7667015"><ele>583.0</ele><time>2026-04-09T15:31:52.354Z</time></trkpt><trkpt lat="44.0037921" lon="7.7667497"><ele>580.0</ele><time>2026-04-09T15:31:53.355Z</time></trkpt><trkpt lat="44.0039155" lon="7.7667651"><ele>580.0</ele><time>2026-04-09T15:31:54.355Z</time></trkpt><trkpt lat="44.0040379" lon="7.7667252"><ele>580.0</ele><time>2026-04-09T15:31:55.354Z</time></trkpt><trkpt lat="44.0041584" lon="7.7666266"><ele>580.0</ele><time>2026-04-09T15:31:56.354Z</time></trkpt><trkpt lat="44.0042783" lon="7.7665341"><ele>580.0</ele><time>2026-04-09T15:31:57.354Z</time></trkpt><trkpt lat="44.0043689" lon="7.7664569"><ele>579.8</ele><time>2026-04-09T15:31:58.355Z</time></trkpt><trkpt lat="44.0044648" lon="7.7664312"><ele>579.6</ele><time>2026-04-09T15:31:59.354Z</time></trkpt><trkpt lat="44.004554" lon="7.7664644"><ele>579.4</ele><time>2026-04-09T15:32:00.355Z</time></trkpt><trkpt lat="44.004632" lon="7.7665654"><ele>579.2</ele><time>2026-04-09T15:32:01.354Z</time></trkpt><trkpt lat="44.0046866" lon="7.7667177"><ele>579.0</ele><time>2026-04-09T15:32:02.355Z</time></trkpt><trkpt lat="44.0047224" lon="7.7668651"><ele>578.8</ele><time>2026-04-09T15:32:03.355Z</time></trkpt><trkpt lat="44.0047485" lon="7.7669911"><ele>578.5999999999999</ele><time>2026-04-09T15:32:04.355Z</time></trkpt><trkpt lat="44.0047326" lon="7.767106"><ele>578.4</ele><time>2026-04-09T15:32:05.354Z</time></trkpt><trkpt lat="44.0046693" lon="7.7671985"><ele>578.1999999999999</ele><time>2026-04-09T15:32:06.354Z</time></trkpt><trkpt lat="44.0045506" lon="7.7672808"><ele>578.0</ele><time>2026-04-09T15:32:07.355Z</time></trkpt><trkpt lat="44.0044072" lon="7.7673662"><ele>578.0</ele><time>2026-04-09T15:32:08.355Z</time></trkpt><trkpt lat="44.004254" lon="7.7674695"><ele>578.0</ele><time>2026-04-09T15:32:09.355Z</time></trkpt><trkpt lat="44.0040798" lon="7.7675726"><ele>578.0</ele><time>2026-04-09T15:32:10.354Z</time></trkpt><trkpt lat="44.0038908" lon="7.7676574"><ele>579.6666666666666</ele><time>2026-04-09T15:32:11.355Z</time></trkpt><trkpt lat="44.0036938" lon="7.7677419"><ele>581.3333333333334</ele><time>2026-04-09T15:32:12.355Z</time></trkpt><trkpt lat="44.0035076" lon="7.7678494"><ele>583.0</ele><time>2026-04-09T15:32:13.354Z</time></trkpt><trkpt lat="44.0033263" lon="7.7679785"><ele>576.3333333333334</ele><time>2026-04-09T15:32:14.355Z</time></trkpt><trkpt lat="44.0031377" lon="7.7680832"><ele>569.6666666666666</ele><time>2026-04-09T15:32:15.354Z</time></trkpt><trkpt lat="44.0029259" lon="7.7681744"><ele>563.0</ele><time>2026-04-09T15:32:16.355Z</time></trkpt><trkpt lat="44.0026997" lon="7.768253"><ele>557.0</ele><time>2026-04-09T15:32:17.355Z</time></trkpt><trkpt lat="44.0024756" lon="7.7683315"><ele>551.0</ele><time>2026-04-09T15:32:18.355Z</time></trkpt><trkpt lat="44.0022554" lon="7.7684158"><ele>551.0</ele><time>2026-04-09T15:32:19.355Z</time></trkpt><trkpt lat="44.002048" lon="7.7685016"><ele>551.0</ele><time>2026-04-09T15:32:20.354Z</time></trkpt><trkpt lat="44.001857" lon="7.7685691"><ele>551.0</ele><time>2026-04-09T15:32:21.354Z</time></trkpt><trkpt lat="44.0017033" lon="7.7686325"><ele>548.75</ele><time>2026-04-09T15:32:22.355Z</time></trkpt><trkpt lat="44.0015877" lon="7.7687104"><ele>546.5</ele><time>2026-04-09T15:32:23.355Z</time></trkpt><trkpt lat="44.0015119" lon="7.7688041"><ele>544.25</ele><time>2026-04-09T15:32:24.355Z</time></trkpt><trkpt lat="44.0014631" lon="7.7689679"><ele>542.0</ele><time>2026-04-09T15:32:25.354Z</time></trkpt><trkpt lat="44.0014034" lon="7.7691673"><ele>542.0</ele><time>2026-04-09T15:32:26.355Z</time></trkpt><trkpt lat="44.0013224" lon="7.7693496"><ele>542.0</ele><time>2026-04-09T15:32:27.354Z</time></trkpt><trkpt lat="44.0012339" lon="7.7695119"><ele>542.0</ele><time>2026-04-09T15:32:28.354Z</time></trkpt><trkpt lat="44.0011357" lon="7.7696355"><ele>542.0</ele><time>2026-04-09T15:32:29.354Z</time></trkpt><trkpt lat="44.0010246" lon="7.7696984"><ele>543.5</ele><time>2026-04-09T15:32:30.354Z</time></trkpt><trkpt lat="44.0009089" lon="7.7697045"><ele>545.0</ele><time>2026-04-09T15:32:31.355Z</time></trkpt><trkpt lat="44.0007956" lon="7.7697139"><ele>546.5</ele><time>2026-04-09T15:32:32.355Z</time></trkpt><trkpt lat="44.000659" lon="7.7697953"><ele>548.0</ele><time>2026-04-09T15:32:33.354Z</time></trkpt><trkpt lat="44.0005135" lon="7.7698968"><ele>548.0</ele><time>2026-04-09T15:32:34.354Z</time></trkpt><trkpt lat="44.0003721" lon="7.7700031"><ele>548.0</ele><time>2026-04-09T15:32:35.355Z</time></trkpt><trkpt lat="44.0002319" lon="7.7701016"><ele>548.0</ele><time>2026-04-09T15:32:36.355Z</time></trkpt><trkpt lat="44.0000919" lon="7.7701703"><ele>548.0</ele><time>2026-04-09T15:32:37.354Z</time></trkpt><trkpt lat="43.9999501" lon="7.7701965"><ele>548.0</ele><time>2026-04-09T15:32:38.355Z</time></trkpt><trkpt lat="43.9998049" lon="7.7701853"><ele>548.0</ele><time>2026-04-09T15:32:39.354Z</time></trkpt><trkpt lat="43.9996391" lon="7.7701408"><ele>548.0</ele><time>2026-04-09T15:32:40.354Z</time></trkpt><trkpt lat="43.9994489" lon="7.7701112"><ele>548.0</ele><time>2026-04-09T15:32:41.354Z</time></trkpt><trkpt lat="43.9992428" lon="7.7701081"><ele>548.0</ele><time>2026-04-09T15:32:42.354Z</time></trkpt><trkpt lat="43.9990382" lon="7.770113"><ele>547.6666666666666</ele><time>2026-04-09T15:32:43.354Z</time></trkpt><trkpt lat="43.9988439" lon="7.7701115"><ele>547.3333333333334</ele><time>2026-04-09T15:32:44.355Z</time></trkpt><trkpt lat="43.9986524" lon="7.7701109"><ele>547.0</ele><time>2026-04-09T15:32:45.355Z</time></trkpt><trkpt lat="43.998461" lon="7.7701202"><ele>545.0</ele><time>2026-04-09T15:32:46.354Z</time></trkpt><trkpt lat="43.9982879" lon="7.7701389"><ele>543.0</ele><time>2026-04-09T15:32:47.354Z</time></trkpt><trkpt lat="43.9981249" lon="7.770166"><ele>541.0</ele><time>2026-04-09T15:32:48.354Z</time></trkpt><trkpt lat="43.9979705" lon="7.7702147"><ele>548.6666666666667</ele><time>2026-04-09T15:32:49.354Z</time></trkpt><trkpt lat="43.9978314" lon="7.7703165"><ele>556.3333333333334</ele><time>2026-04-09T15:32:50.355Z</time></trkpt><trkpt lat="43.997692" lon="7.7704427"><ele>564.0</ele><time>2026-04-09T15:32:51.354Z</time></trkpt><trkpt lat="43.9975393" lon="7.7705408"><ele>560.5</ele><time>2026-04-09T15:32:52.355Z</time></trkpt><trkpt lat="43.9973817" lon="7.7705832"><ele>557.0</ele><time>2026-04-09T15:32:53.355Z</time></trkpt><trkpt lat="43.9972323" lon="7.7706014"><ele>553.5</ele><time>2026-04-09T15:32:54.355Z</time></trkpt><trkpt lat="43.9970978" lon="7.7706371"><ele>550.0</ele><time>2026-04-09T15:32:55.354Z</time></trkpt><trkpt lat="43.9969794" lon="7.7707393"><ele>550.0</ele><time>2026-04-09T15:32:56.354Z</time></trkpt><trkpt lat="43.996868" lon="7.7708589"><ele>550.0</ele><time>2026-04-09T15:32:57.354Z</time></trkpt><trkpt lat="43.9967661" lon="7.7709766"><ele>550.0</ele><time>2026-04-09T15:32:58.354Z</time></trkpt><trkpt lat="43.9966673" lon="7.7710563"><ele>550.0</ele><time>2026-04-09T15:32:59.354Z</time></trkpt><trkpt lat="43.9965745" lon="7.7711278"><ele>548.25</ele><time>2026-04-09T15:33:00.354Z</time></trkpt><trkpt lat="43.9964913" lon="7.7712542"><ele>546.5</ele><time>2026-04-09T15:33:01.354Z</time></trkpt><trkpt lat="43.996408" lon="7.7714241"><ele>544.75</ele><time>2026-04-09T15:33:02.354Z</time></trkpt><trkpt lat="43.996297" lon="7.7715657"><ele>543.0</ele><time>2026-04-09T15:33:03.355Z</time></trkpt><trkpt lat="43.9961591" lon="7.7716969"><ele>543.0</ele><time>2026-04-09T15:33:04.354Z</time></trkpt><trkpt lat="43.996034" lon="7.7718294"><ele>543.0</ele><time>2026-04-09T15:33:05.355Z</time></trkpt><trkpt lat="43.995919" lon="7.7719762"><ele>543.0</ele><time>2026-04-09T15:33:06.354Z</time></trkpt><trkpt lat="43.995819" lon="7.772123"><ele>539.6666666666666</ele><time>2026-04-09T15:33:07.354Z</time></trkpt><trkpt lat="43.9957163" lon="7.772256"><ele>536.3333333333333</ele><time>2026-04-09T15:33:08.354Z</time></trkpt><trkpt lat="43.9955813" lon="7.7723495"><ele>533.0</ele><time>2026-04-09T15:33:09.354Z</time></trkpt><trkpt lat="43.9954121" lon="7.7724124"><ele>533.0</ele><time>2026-04-09T15:33:10.354Z</time></trkpt><trkpt lat="43.9952281" lon="7.7724658"><ele>533.0</ele><time>2026-04-09T15:33:11.355Z</time></trkpt><trkpt lat="43.9950378" lon="7.7725208"><ele>533.0</ele><time>2026-04-09T15:33:12.354Z</time></trkpt><trkpt lat="43.9948549" lon="7.7725754"><ele>527.0</ele><time>2026-04-09T15:33:13.355Z</time></trkpt><trkpt lat="43.9946864" lon="7.7726255"><ele>521.0</ele><time>2026-04-09T15:33:14.355Z</time></trkpt><trkpt lat="43.9945342" lon="7.7726819"><ele>515.0</ele><time>2026-04-09T15:33:15.354Z</time></trkpt><trkpt lat="43.9944033" lon="7.772773"><ele>513.6666666666666</ele><time>2026-04-09T15:33:16.358Z</time></trkpt><trkpt lat="43.9942891" lon="7.7729188"><ele>512.3333333333334</ele><time>2026-04-09T15:33:17.357Z</time></trkpt><trkpt lat="43.9941789" lon="7.7731065"><ele>511.0</ele><time>2026-04-09T15:33:18.358Z</time></trkpt><trkpt lat="43.9940634" lon="7.7733001"><ele>511.0</ele><time>2026-04-09T15:33:19.357Z</time></trkpt><trkpt lat="43.9939762" lon="7.7734987"><ele>511.0</ele><time>2026-04-09T15:33:20.357Z</time></trkpt><trkpt lat="43.9938921" lon="7.7737077"><ele>511.0</ele><time>2026-04-09T15:33:21.357Z</time></trkpt><trkpt lat="43.9937941" lon="7.7738923"><ele>518.3333333333334</ele><time>2026-04-09T15:33:22.358Z</time></trkpt><trkpt lat="43.9936666" lon="7.7740552"><ele>525.6666666666666</ele><time>2026-04-09T15:33:23.357Z</time></trkpt><trkpt lat="43.9935277" lon="7.7742025"><ele>533.0</ele><time>2026-04-09T15:33:24.358Z</time></trkpt><trkpt lat="43.9933815" lon="7.7743147"><ele>524.3333333333333</ele><time>2026-04-09T15:33:25.358Z</time></trkpt><trkpt lat="43.9932344" lon="7.7744041"><ele>515.6666666666666</ele><time>2026-04-09T15:33:26.358Z</time></trkpt><trkpt lat="43.9930925" lon="7.7744959"><ele>507.0</ele><time>2026-04-09T15:33:27.357Z</time></trkpt><trkpt lat="43.9929673" lon="7.7745689"><ele>507.0</ele><time>2026-04-09T15:33:28.357Z</time></trkpt><trkpt lat="43.9928498" lon="7.7745998"><ele>507.00000000000006</ele><time>2026-04-09T15:33:29.357Z</time></trkpt><trkpt lat="43.9927371" lon="7.7745807"><ele>507.00000000000006</ele><time>2026-04-09T15:33:30.357Z</time></trkpt><trkpt lat="43.9926317" lon="7.774537"><ele>507.0</ele><time>2026-04-09T15:33:31.357Z</time></trkpt><trkpt lat="43.9925514" lon="7.7744951"><ele>507.0</ele><time>2026-04-09T15:33:32.358Z</time></trkpt><trkpt lat="43.9924827" lon="7.7745108"><ele>503.25</ele><time>2026-04-09T15:33:33.357Z</time></trkpt><trkpt lat="43.9924153" lon="7.7745979"><ele>499.5</ele><time>2026-04-09T15:33:34.358Z</time></trkpt><trkpt lat="43.9923547" lon="7.774749"><ele>495.75</ele><time>2026-04-09T15:33:35.358Z</time></trkpt><trkpt lat="43.9922831" lon="7.7749297"><ele>492.0</ele><time>2026-04-09T15:33:36.358Z</time></trkpt><trkpt lat="43.9921844" lon="7.7751265"><ele>488.25</ele><time>2026-04-09T15:33:37.357Z</time></trkpt><trkpt lat="43.9920927" lon="7.7753054"><ele>484.5</ele><time>2026-04-09T15:33:38.357Z</time></trkpt><trkpt lat="43.9920111" lon="7.7754674"><ele>480.75</ele><time>2026-04-09T15:33:39.357Z</time></trkpt><trkpt lat="43.9919265" lon="7.7756106"><ele>477.0</ele><time>2026-04-09T15:33:40.358Z</time></trkpt><trkpt lat="43.991827" lon="7.775715"><ele>477.0</ele><time>2026-04-09T15:33:41.357Z</time></trkpt><trkpt lat="43.9917177" lon="7.7757835"><ele>477.0</ele><time>2026-04-09T15:33:42.357Z</time></trkpt><trkpt lat="43.9915959" lon="7.7758337"><ele>477.0</ele><time>2026-04-09T15:33:43.357Z</time></trkpt><trkpt lat="43.9914739" lon="7.7758748"><ele>477.0</ele><time>2026-04-09T15:33:44.357Z</time></trkpt><trkpt lat="43.9913561" lon="7.7758808"><ele>477.5</ele><time>2026-04-09T15:33:45.357Z</time></trkpt><trkpt lat="43.9912405" lon="7.7758791"><ele>478.0</ele><time>2026-04-09T15:33:46.358Z</time></trkpt><trkpt lat="43.9911271" lon="7.7758716"><ele>478.5</ele><time>2026-04-09T15:33:47.358Z</time></trkpt><trkpt lat="43.991014" lon="7.7758616"><ele>479.0</ele><time>2026-04-09T15:33:48.357Z</time></trkpt><trkpt lat="43.9909046" lon="7.7758433"><ele>480.2</ele><time>2026-04-09T15:33:49.357Z</time></trkpt><trkpt lat="43.9908" lon="7.7757945"><ele>481.4</ele><time>2026-04-09T15:33:50.358Z</time></trkpt><trkpt lat="43.9907215" lon="7.7757136"><ele>482.6</ele><time>2026-04-09T15:33:51.357Z</time></trkpt><trkpt lat="43.9906552" lon="7.7755921"><ele>483.8</ele><time>2026-04-09T15:33:52.358Z</time></trkpt><trkpt lat="43.9905964" lon="7.7754523"><ele>485.0</ele><time>2026-04-09T15:33:53.357Z</time></trkpt><trkpt lat="43.9905503" lon="7.7753312"><ele>484.99999999999994</ele><time>2026-04-09T15:33:54.357Z</time></trkpt><trkpt lat="43.9905097" lon="7.7752266"><ele>485.0</ele><time>2026-04-09T15:33:55.357Z</time></trkpt><trkpt lat="43.9904665" lon="7.7751201"><ele>485.0</ele><time>2026-04-09T15:33:56.358Z</time></trkpt><trkpt lat="43.9904283" lon="7.7750082"><ele>485.0</ele><time>2026-04-09T15:33:57.358Z</time></trkpt><trkpt lat="43.9903947" lon="7.7749003"><ele>484.99999999999994</ele><time>2026-04-09T15:33:58.357Z</time></trkpt><trkpt lat="43.9903641" lon="7.7747958"><ele>485.0</ele><time>2026-04-09T15:33:59.358Z</time></trkpt><trkpt lat="43.9903167" lon="7.7746371"><ele>484.6</ele><time>2026-04-09T15:34:01.357Z</time></trkpt><trkpt lat="43.9902566" lon="7.7745225"><ele>484.2</ele><time>2026-04-09T15:34:03.358Z</time></trkpt><trkpt lat="43.9901324" lon="7.7745071"><ele>483.79999999999995</ele><time>2026-04-09T15:34:05.357Z</time></trkpt><trkpt lat="43.9900588" lon="7.7745498"><ele>483.4</ele><time>2026-04-09T15:34:06.357Z</time></trkpt><trkpt lat="43.9899882" lon="7.7746033"><ele>483.0</ele><time>2026-04-09T15:34:07.357Z</time></trkpt><trkpt lat="43.9899153" lon="7.7746505"><ele>481.6666666666667</ele><time>2026-04-09T15:34:08.358Z</time></trkpt><trkpt lat="43.9898508" lon="7.7746847"><ele>480.33333333333337</ele><time>2026-04-09T15:34:09.358Z</time></trkpt><trkpt lat="43.9897299" lon="7.7746661"><ele>479.0</ele><time>2026-04-09T15:34:11.357Z</time></trkpt><trkpt lat="43.9896189" lon="7.7746197"><ele>477.6666666666667</ele><time>2026-04-09T15:34:13.357Z</time></trkpt><trkpt lat="43.9895456" lon="7.7746143"><ele>476.33333333333337</ele><time>2026-04-09T15:34:14.357Z</time></trkpt><trkpt lat="43.9894899" lon="7.7746697"><ele>475.0</ele><time>2026-04-09T15:34:15.357Z</time></trkpt><trkpt lat="43.9894716" lon="7.7747957"><ele>475.0</ele><time>2026-04-09T15:34:16.357Z</time></trkpt><trkpt lat="43.9894674" lon="7.7749377"><ele>475.0</ele><time>2026-04-09T15:34:17.358Z</time></trkpt><trkpt lat="43.9894676" lon="7.7750824"><ele>475.0</ele><time>2026-04-09T15:34:18.357Z</time></trkpt><trkpt lat="43.9894451" lon="7.775216"><ele>475.0</ele><time>2026-04-09T15:34:19.357Z</time></trkpt><trkpt lat="43.9893939" lon="7.7753415"><ele>475.0</ele><time>2026-04-09T15:34:20.358Z</time></trkpt><trkpt lat="43.9893257" lon="7.7754538"><ele>473.8</ele><time>2026-04-09T15:34:21.357Z</time></trkpt><trkpt lat="43.9892745" lon="7.7755587"><ele>472.6</ele><time>2026-04-09T15:34:22.357Z</time></trkpt><trkpt lat="43.9892211" lon="7.7756644"><ele>471.4</ele><time>2026-04-09T15:34:23.358Z</time></trkpt><trkpt lat="43.989158" lon="7.7757849"><ele>470.2</ele><time>2026-04-09T15:34:24.358Z</time></trkpt><trkpt lat="43.9890811" lon="7.7759068"><ele>469.0</ele><time>2026-04-09T15:34:25.357Z</time></trkpt><trkpt lat="43.9889855" lon="7.7760175"><ele>477.0</ele><time>2026-04-09T15:34:26.358Z</time></trkpt><trkpt lat="43.9888934" lon="7.7761428"><ele>485.0</ele><time>2026-04-09T15:34:27.357Z</time></trkpt><trkpt lat="43.9887948" lon="7.7762704"><ele>493.0</ele><time>2026-04-09T15:34:28.358Z</time></trkpt><trkpt lat="43.9886819" lon="7.7763724"><ele>501.0</ele><time>2026-04-09T15:34:29.358Z</time></trkpt><trkpt lat="43.9885557" lon="7.7764587"><ele>501.0</ele><time>2026-04-09T15:34:30.357Z</time></trkpt><trkpt lat="43.9884276" lon="7.7765415"><ele>501.0</ele><time>2026-04-09T15:34:31.358Z</time></trkpt><trkpt lat="43.9883001" lon="7.776605"><ele>501.0</ele><time>2026-04-09T15:34:32.357Z</time></trkpt><trkpt lat="43.9881628" lon="7.776648"><ele>501.0</ele><time>2026-04-09T15:34:33.357Z</time></trkpt><trkpt lat="43.9880305" lon="7.7767028"><ele>502.75</ele><time>2026-04-09T15:34:34.358Z</time></trkpt><trkpt lat="43.9879021" lon="7.7767674"><ele>504.5</ele><time>2026-04-09T15:34:35.358Z</time></trkpt><trkpt lat="43.9877824" lon="7.7768443"><ele>506.25</ele><time>2026-04-09T15:34:36.357Z</time></trkpt><trkpt lat="43.9876732" lon="7.7769241"><ele>508.0</ele><time>2026-04-09T15:34:37.357Z</time></trkpt><trkpt lat="43.9875685" lon="7.7769997"><ele>499.75</ele><time>2026-04-09T15:34:38.357Z</time></trkpt><trkpt lat="43.987452" lon="7.777085"><ele>491.5</ele><time>2026-04-09T15:34:39.357Z</time></trkpt><trkpt lat="43.987329" lon="7.7771794"><ele>483.25</ele><time>2026-04-09T15:34:40.358Z</time></trkpt><trkpt lat="43.9871969" lon="7.7772868"><ele>475.0</ele><time>2026-04-09T15:34:41.358Z</time></trkpt><trkpt lat="43.9870562" lon="7.7774104"><ele>475.0</ele><time>2026-04-09T15:34:42.357Z</time></trkpt><trkpt lat="43.9869067" lon="7.777543"><ele>475.0</ele><time>2026-04-09T15:34:43.358Z</time></trkpt><trkpt lat="43.9867576" lon="7.7776794"><ele>475.0</ele><time>2026-04-09T15:34:44.358Z</time></trkpt><trkpt lat="43.9866054" lon="7.7778189"><ele>474.33333333333337</ele><time>2026-04-09T15:34:45.357Z</time></trkpt><trkpt lat="43.9864591" lon="7.7779565"><ele>473.66666666666663</ele><time>2026-04-09T15:34:46.357Z</time></trkpt><trkpt lat="43.9863175" lon="7.7781033"><ele>473.0</ele><time>2026-04-09T15:34:47.358Z</time></trkpt><trkpt lat="43.9861962" lon="7.7782927"><ele>482.66666666666663</ele><time>2026-04-09T15:34:48.358Z</time></trkpt><trkpt lat="43.9860847" lon="7.7785264"><ele>492.33333333333337</ele><time>2026-04-09T15:34:49.357Z</time></trkpt><trkpt lat="43.98598" lon="7.778754"><ele>502.0</ele><time>2026-04-09T15:34:50.357Z</time></trkpt><trkpt lat="43.9858918" lon="7.7789514"><ele>487.0</ele><time>2026-04-09T15:34:51.357Z</time></trkpt><trkpt lat="43.9858214" lon="7.7791523"><ele>472.0</ele><time>2026-04-09T15:34:52.358Z</time></trkpt><trkpt lat="43.9857884" lon="7.7793857"><ele>457.0</ele><time>2026-04-09T15:34:53.358Z</time></trkpt><trkpt lat="43.9857698" lon="7.7796497"><ele>457.0</ele><time>2026-04-09T15:34:54.358Z</time></trkpt><trkpt lat="43.9857588" lon="7.7799353"><ele>457.0</ele><time>2026-04-09T15:34:55.358Z</time></trkpt><trkpt lat="43.9857499" lon="7.7802106"><ele>457.0</ele><time>2026-04-09T15:34:56.358Z</time></trkpt><trkpt lat="43.9857442" lon="7.7804668"><ele>458.33333333333337</ele><time>2026-04-09T15:34:57.357Z</time></trkpt><trkpt lat="43.9857432" lon="7.780706"><ele>459.66666666666663</ele><time>2026-04-09T15:34:58.357Z</time></trkpt><trkpt lat="43.9857374" lon="7.7809253"><ele>461.0</ele><time>2026-04-09T15:34:59.358Z</time></trkpt><trkpt lat="43.9857178" lon="7.7811339"><ele>468.3333333333333</ele><time>2026-04-09T15:35:00.357Z</time></trkpt><trkpt lat="43.9856671" lon="7.7813237"><ele>475.66666666666663</ele><time>2026-04-09T15:35:01.358Z</time></trkpt><trkpt lat="43.9855746" lon="7.7814913"><ele>483.0</ele><time>2026-04-09T15:35:02.358Z</time></trkpt><trkpt lat="43.985434" lon="7.7816484"><ele>483.0</ele><time>2026-04-09T15:35:03.357Z</time></trkpt><trkpt lat="43.9852842" lon="7.7817986"><ele>483.0</ele><time>2026-04-09T15:35:04.357Z</time></trkpt><trkpt lat="43.9851345" lon="7.781955"><ele>483.0</ele><time>2026-04-09T15:35:05.357Z</time></trkpt><trkpt lat="43.9849942" lon="7.7821365"><ele>480.33333333333337</ele><time>2026-04-09T15:35:06.357Z</time></trkpt><trkpt lat="43.9848634" lon="7.7823481"><ele>477.6666666666667</ele><time>2026-04-09T15:35:07.357Z</time></trkpt><trkpt lat="43.9847486" lon="7.782574"><ele>475.0</ele><time>2026-04-09T15:35:08.357Z</time></trkpt><trkpt lat="43.9846541" lon="7.7828046"><ele>475.0</ele><time>2026-04-09T15:35:09.357Z</time></trkpt><trkpt lat="43.9845978" lon="7.7830328"><ele>475.0</ele><time>2026-04-09T15:35:10.357Z</time></trkpt><trkpt lat="43.9845704" lon="7.7832588"><ele>475.0</ele><time>2026-04-09T15:35:11.358Z</time></trkpt><trkpt lat="43.9845872" lon="7.7834804"><ele>473.0</ele><time>2026-04-09T15:35:12.357Z</time></trkpt><trkpt lat="43.9846287" lon="7.7837157"><ele>471.0</ele><time>2026-04-09T15:35:13.357Z</time></trkpt><trkpt lat="43.9846837" lon="7.7839636"><ele>469.0</ele><time>2026-04-09T15:35:14.358Z</time></trkpt><trkpt lat="43.9847253" lon="7.7842235"><ele>465.6666666666667</ele><time>2026-04-09T15:35:15.357Z</time></trkpt><trkpt lat="43.98476" lon="7.7844886"><ele>462.33333333333337</ele><time>2026-04-09T15:35:16.357Z</time></trkpt><trkpt lat="43.9848006" lon="7.7847569"><ele>459.0</ele><time>2026-04-09T15:35:17.358Z</time></trkpt><trkpt lat="43.984835" lon="7.7850274"><ele>453.33333333333337</ele><time>2026-04-09T15:35:18.357Z</time></trkpt><trkpt lat="43.9848676" lon="7.7852972"><ele>447.6666666666667</ele><time>2026-04-09T15:35:19.357Z</time></trkpt><trkpt lat="43.9848983" lon="7.7855618"><ele>442.0</ele><time>2026-04-09T15:35:20.358Z</time></trkpt><trkpt lat="43.9849138" lon="7.7858193"><ele>444.6666666666667</ele><time>2026-04-09T15:35:21.357Z</time></trkpt><trkpt lat="43.9849001" lon="7.7860914"><ele>447.33333333333337</ele><time>2026-04-09T15:35:22.358Z</time></trkpt><trkpt lat="43.9848702" lon="7.786369"><ele>450.0</ele><time>2026-04-09T15:35:23.357Z</time></trkpt><trkpt lat="43.9848409" lon="7.7866311"><ele>452.33333333333337</ele><time>2026-04-09T15:35:24.357Z</time></trkpt><trkpt lat="43.9848123" lon="7.7868747"><ele>454.6666666666667</ele><time>2026-04-09T15:35:25.358Z</time></trkpt><trkpt lat="43.984793" lon="7.787095"><ele>457.0</ele><time>2026-04-09T15:35:26.357Z</time></trkpt><trkpt lat="43.984775" lon="7.7872776"><ele>457.0</ele><time>2026-04-09T15:35:27.357Z</time></trkpt><trkpt lat="43.9847375" lon="7.7874253"><ele>457.0</ele><time>2026-04-09T15:35:28.358Z</time></trkpt><trkpt lat="43.9846704" lon="7.7875455"><ele>457.0</ele><time>2026-04-09T15:35:29.357Z</time></trkpt><trkpt lat="43.984588" lon="7.7876706"><ele>457.0</ele><time>2026-04-09T15:35:30.358Z</time></trkpt><trkpt lat="43.9844958" lon="7.787795"><ele>452.33333333333337</ele><time>2026-04-09T15:35:31.358Z</time></trkpt><trkpt lat="43.9843844" lon="7.787939"><ele>447.66666666666663</ele><time>2026-04-09T15:35:32.357Z</time></trkpt><trkpt lat="43.984247" lon="7.7880927"><ele>443.0</ele><time>2026-04-09T15:35:33.358Z</time></trkpt><trkpt lat="43.9840974" lon="7.7882557"><ele>443.0</ele><time>2026-04-09T15:35:34.357Z</time></trkpt><trkpt lat="43.9839475" lon="7.7884291"><ele>443.0</ele><time>2026-04-09T15:35:35.358Z</time></trkpt><trkpt lat="43.9838068" lon="7.7885954"><ele>443.0</ele><time>2026-04-09T15:35:36.358Z</time></trkpt><trkpt lat="43.9836717" lon="7.7887296"><ele>440.5</ele><time>2026-04-09T15:35:37.357Z</time></trkpt><trkpt lat="43.98354" lon="7.7888513"><ele>438.0</ele><time>2026-04-09T15:35:38.358Z</time></trkpt><trkpt lat="43.983424" lon="7.7889601"><ele>435.5</ele><time>2026-04-09T15:35:39.358Z</time></trkpt><trkpt lat="43.9833351" lon="7.7890932"><ele>433.0</ele><time>2026-04-09T15:35:40.357Z</time></trkpt><trkpt lat="43.9832779" lon="7.7892615"><ele>433.0</ele><time>2026-04-09T15:35:41.357Z</time></trkpt><trkpt lat="43.9832523" lon="7.789462"><ele>433.0</ele><time>2026-04-09T15:35:42.358Z</time></trkpt><trkpt lat="43.9832326" lon="7.7896678"><ele>433.0</ele><time>2026-04-09T15:35:43.357Z</time></trkpt><trkpt lat="43.9832372" lon="7.7898903"><ele>433.0</ele><time>2026-04-09T15:35:44.357Z</time></trkpt><trkpt lat="43.9832643" lon="7.7900831"><ele>433.0</ele><time>2026-04-09T15:35:45.358Z</time></trkpt><trkpt lat="43.9833165" lon="7.7902677"><ele>433.0</ele><time>2026-04-09T15:35:46.358Z</time></trkpt><trkpt lat="43.9834069" lon="7.7904468"><ele>433.0</ele><time>2026-04-09T15:35:47.357Z</time></trkpt><trkpt lat="43.9835055" lon="7.7906237"><ele>439.0</ele><time>2026-04-09T15:35:48.358Z</time></trkpt><trkpt lat="43.9835866" lon="7.790837"><ele>445.0</ele><time>2026-04-09T15:35:49.357Z</time></trkpt><trkpt lat="43.9836491" lon="7.7910917"><ele>451.0</ele><time>2026-04-09T15:35:50.358Z</time></trkpt><trkpt lat="43.9837037" lon="7.7913389"><ele>451.0</ele><time>2026-04-09T15:35:51.358Z</time></trkpt><trkpt lat="43.983747" lon="7.7915859"><ele>451.0</ele><time>2026-04-09T15:35:52.358Z</time></trkpt><trkpt lat="43.9837783" lon="7.7918254"><ele>451.0</ele><time>2026-04-09T15:35:53.358Z</time></trkpt><trkpt lat="43.9837919" lon="7.7920495"><ele>450.33333333333337</ele><time>2026-04-09T15:35:54.358Z</time></trkpt><trkpt lat="43.9837823" lon="7.7922776"><ele>449.66666666666663</ele><time>2026-04-09T15:35:55.358Z</time></trkpt><trkpt lat="43.9837626" lon="7.792501"><ele>449.0</ele><time>2026-04-09T15:35:56.357Z</time></trkpt><trkpt lat="43.9837365" lon="7.7926991"><ele>457.3333333333333</ele><time>2026-04-09T15:35:57.357Z</time></trkpt><trkpt lat="43.9836715" lon="7.7928827"><ele>465.66666666666663</ele><time>2026-04-09T15:35:58.358Z</time></trkpt><trkpt lat="43.9835707" lon="7.7930741"><ele>474.0</ele><time>2026-04-09T15:35:59.357Z</time></trkpt><trkpt lat="43.9834541" lon="7.7932611"><ele>468.66666666666663</ele><time>2026-04-09T15:36:00.358Z</time></trkpt><trkpt lat="43.9832883" lon="7.7934292"><ele>463.3333333333333</ele><time>2026-04-09T15:36:01.358Z</time></trkpt><trkpt lat="43.9831026" lon="7.7935683"><ele>458.0</ele><time>2026-04-09T15:36:02.357Z</time></trkpt><trkpt lat="43.9829062" lon="7.793697"><ele>458.0</ele><time>2026-04-09T15:36:03.358Z</time></trkpt><trkpt lat="43.9827067" lon="7.7938136"><ele>458.0</ele><time>2026-04-09T15:36:04.357Z</time></trkpt><trkpt lat="43.9825126" lon="7.7939177"><ele>458.0</ele><time>2026-04-09T15:36:05.358Z</time></trkpt><trkpt lat="43.9823237" lon="7.7940009"><ele>449.0</ele><time>2026-04-09T15:36:06.357Z</time></trkpt><trkpt lat="43.9821344" lon="7.7940503"><ele>440.0</ele><time>2026-04-09T15:36:07.357Z</time></trkpt><trkpt lat="43.9819337" lon="7.7940583"><ele>431.0</ele><time>2026-04-09T15:36:08.357Z</time></trkpt><trkpt lat="43.9817431" lon="7.7940351"><ele>429.66666666666663</ele><time>2026-04-09T15:36:09.358Z</time></trkpt><trkpt lat="43.981568" lon="7.7940075"><ele>428.33333333333337</ele><time>2026-04-09T15:36:10.357Z</time></trkpt><trkpt lat="43.9814015" lon="7.7939914"><ele>427.0</ele><time>2026-04-09T15:36:11.358Z</time></trkpt><trkpt lat="43.9812382" lon="7.7940199"><ele>427.0</ele><time>2026-04-09T15:36:12.358Z</time></trkpt><trkpt lat="43.9810778" lon="7.794086"><ele>427.0</ele><time>2026-04-09T15:36:13.358Z</time></trkpt><trkpt lat="43.9809309" lon="7.7941483"><ele>427.0</ele><time>2026-04-09T15:36:14.357Z</time></trkpt><trkpt lat="43.9807927" lon="7.7942171"><ele>425.0</ele><time>2026-04-09T15:36:15.358Z</time></trkpt><trkpt lat="43.9806662" lon="7.7943425"><ele>423.0</ele><time>2026-04-09T15:36:16.358Z</time></trkpt><trkpt lat="43.9805442" lon="7.7945113"><ele>421.0</ele><time>2026-04-09T15:36:17.358Z</time></trkpt><trkpt lat="43.9804175" lon="7.7947042"><ele>421.0</ele><time>2026-04-09T15:36:18.357Z</time></trkpt><trkpt lat="43.9802897" lon="7.7948902"><ele>421.0</ele><time>2026-04-09T15:36:19.357Z</time></trkpt><trkpt lat="43.980154" lon="7.7950844"><ele>421.0</ele><time>2026-04-09T15:36:20.357Z</time></trkpt><trkpt lat="43.9800155" lon="7.7952768"><ele>422.0</ele><time>2026-04-09T15:36:21.358Z</time></trkpt><trkpt lat="43.9798855" lon="7.7954723"><ele>423.0</ele><time>2026-04-09T15:36:22.357Z</time></trkpt><trkpt lat="43.9797742" lon="7.7956859"><ele>424.0</ele><time>2026-04-09T15:36:23.357Z</time></trkpt><trkpt lat="43.9796919" lon="7.7959287"><ele>425.0</ele><time>2026-04-09T15:36:24.358Z</time></trkpt><trkpt lat="43.9796308" lon="7.7961906"><ele>426.0</ele><time>2026-04-09T15:36:25.357Z</time></trkpt><trkpt lat="43.979591" lon="7.796466"><ele>427.0</ele><time>2026-04-09T15:36:26.358Z</time></trkpt><trkpt lat="43.9795493" lon="7.7967376"><ele>430.33333333333337</ele><time>2026-04-09T15:36:27.358Z</time></trkpt><trkpt lat="43.9795129" lon="7.7970126"><ele>433.66666666666663</ele><time>2026-04-09T15:36:28.357Z</time></trkpt><trkpt lat="43.9794746" lon="7.797299"><ele>437.0</ele><time>2026-04-09T15:36:29.357Z</time></trkpt><trkpt lat="43.9794241" lon="7.797582"><ele>444.66666666666663</ele><time>2026-04-09T15:36:30.357Z</time></trkpt><trkpt lat="43.979361" lon="7.7978633"><ele>452.33333333333337</ele><time>2026-04-09T15:36:31.357Z</time></trkpt><trkpt lat="43.9792919" lon="7.7981415"><ele>460.0</ele><time>2026-04-09T15:36:32.358Z</time></trkpt><trkpt lat="43.9792232" lon="7.7984225"><ele>445.33333333333337</ele><time>2026-04-09T15:36:33.357Z</time></trkpt><trkpt lat="43.9791451" lon="7.798694"><ele>430.66666666666663</ele><time>2026-04-09T15:36:34.357Z</time></trkpt><trkpt lat="43.9790513" lon="7.7989578"><ele>416.0</ele><time>2026-04-09T15:36:35.357Z</time></trkpt><trkpt lat="43.9789424" lon="7.7992106"><ele>420.66666666666663</ele><time>2026-04-09T15:36:36.358Z</time></trkpt><trkpt lat="43.9788277" lon="7.7994624"><ele>425.33333333333337</ele><time>2026-04-09T15:36:37.357Z</time></trkpt><trkpt lat="43.978704" lon="7.7997029"><ele>430.0</ele><time>2026-04-09T15:36:38.357Z</time></trkpt><trkpt lat="43.9785746" lon="7.799935"><ele>424.0</ele><time>2026-04-09T15:36:39.357Z</time></trkpt><trkpt lat="43.9784223" lon="7.800167"><ele>418.0</ele><time>2026-04-09T15:36:40.358Z</time></trkpt><trkpt lat="43.9782572" lon="7.8004005"><ele>418.0</ele><time>2026-04-09T15:36:41.358Z</time></trkpt><trkpt lat="43.9780956" lon="7.8006207"><ele>418.0</ele><time>2026-04-09T15:36:42.357Z</time></trkpt><trkpt lat="43.9779498" lon="7.8008334"><ele>418.0</ele><time>2026-04-09T15:36:43.357Z</time></trkpt><trkpt lat="43.9778104" lon="7.8010391"><ele>415.6666666666667</ele><time>2026-04-09T15:36:44.357Z</time></trkpt><trkpt lat="43.97765" lon="7.8012298"><ele>413.33333333333337</ele><time>2026-04-09T15:36:45.357Z</time></trkpt><trkpt lat="43.9774695" lon="7.801399"><ele>411.0</ele><time>2026-04-09T15:36:46.358Z</time></trkpt><trkpt lat="43.9772958" lon="7.8015591"><ele>411.0</ele><time>2026-04-09T15:36:47.357Z</time></trkpt><trkpt lat="43.9771357" lon="7.801733"><ele>411.0</ele><time>2026-04-09T15:36:48.358Z</time></trkpt><trkpt lat="43.9769639" lon="7.8018917"><ele>411.0</ele><time>2026-04-09T15:36:49.358Z</time></trkpt><trkpt lat="43.9767926" lon="7.8020313"><ele>416.0</ele><time>2026-04-09T15:36:50.357Z</time></trkpt><trkpt lat="43.9766383" lon="7.802141"><ele>421.0</ele><time>2026-04-09T15:36:51.357Z</time></trkpt><trkpt lat="43.9764841" lon="7.8022014"><ele>426.0</ele><time>2026-04-09T15:36:52.357Z</time></trkpt><trkpt lat="43.9763146" lon="7.802237"><ele>426.0</ele><time>2026-04-09T15:36:53.358Z</time></trkpt><trkpt lat="43.9761396" lon="7.8022781"><ele>426.0</ele><time>2026-04-09T15:36:54.357Z</time></trkpt><trkpt lat="43.9759654" lon="7.8023222"><ele>426.0</ele><time>2026-04-09T15:36:55.357Z</time></trkpt><trkpt lat="43.9757989" lon="7.8023942"><ele>427.66666666666663</ele><time>2026-04-09T15:36:56.358Z</time></trkpt><trkpt lat="43.975638" lon="7.8025201"><ele>429.3333333333333</ele><time>2026-04-09T15:36:57.358Z</time></trkpt><trkpt lat="43.975477" lon="7.8026778"><ele>431.0</ele><time>2026-04-09T15:36:58.358Z</time></trkpt><trkpt lat="43.9753203" lon="7.8028474"><ele>431.0</ele><time>2026-04-09T15:36:59.357Z</time></trkpt><trkpt lat="43.9751694" lon="7.8030136"><ele>431.0</ele><time>2026-04-09T15:37:00.357Z</time></trkpt><trkpt lat="43.9750309" lon="7.8031757"><ele>431.0</ele><time>2026-04-09T15:37:01.358Z</time></trkpt><trkpt lat="43.9749036" lon="7.8033572"><ele>422.0</ele><time>2026-04-09T15:37:02.358Z</time></trkpt><trkpt lat="43.9747917" lon="7.8035642"><ele>413.0</ele><time>2026-04-09T15:37:03.357Z</time></trkpt><trkpt lat="43.9747041" lon="7.8037719"><ele>404.0</ele><time>2026-04-09T15:37:04.357Z</time></trkpt><trkpt lat="43.9746496" lon="7.8039775"><ele>404.0</ele><time>2026-04-09T15:37:05.357Z</time></trkpt><trkpt lat="43.9746307" lon="7.8042228"><ele>404.0</ele><time>2026-04-09T15:37:06.358Z</time></trkpt><trkpt lat="43.9746318" lon="7.8044931"><ele>404.0</ele><time>2026-04-09T15:37:07.358Z</time></trkpt><trkpt lat="43.9746407" lon="7.8047776"><ele>402.3333333333333</ele><time>2026-04-09T15:37:08.357Z</time></trkpt><trkpt lat="43.9746611" lon="7.8050678"><ele>400.66666666666663</ele><time>2026-04-09T15:37:09.357Z</time></trkpt><trkpt lat="43.9747018" lon="7.8053616"><ele>399.0</ele><time>2026-04-09T15:37:10.357Z</time></trkpt><trkpt lat="43.9747553" lon="7.8056581"><ele>395.33333333333337</ele><time>2026-04-09T15:37:11.358Z</time></trkpt><trkpt lat="43.9748136" lon="7.8059531"><ele>391.6666666666667</ele><time>2026-04-09T15:37:12.357Z</time></trkpt><trkpt lat="43.9748629" lon="7.8062458"><ele>388.0</ele><time>2026-04-09T15:37:13.357Z</time></trkpt><trkpt lat="43.9748918" lon="7.8065363"><ele>387.6666666666667</ele><time>2026-04-09T15:37:14.357Z</time></trkpt><trkpt lat="43.9749052" lon="7.8068344"><ele>387.33333333333337</ele><time>2026-04-09T15:37:15.357Z</time></trkpt><trkpt lat="43.9749138" lon="7.8071338"><ele>387.0</ele><time>2026-04-09T15:37:16.358Z</time></trkpt><trkpt lat="43.974915" lon="7.8074262"><ele>389.66666666666663</ele><time>2026-04-09T15:37:17.358Z</time></trkpt><trkpt lat="43.9749126" lon="7.8076969"><ele>392.3333333333333</ele><time>2026-04-09T15:37:18.359Z</time></trkpt><trkpt lat="43.9748958" lon="7.8079555"><ele>395.0</ele><time>2026-04-09T15:37:19.358Z</time></trkpt><trkpt lat="43.9748413" lon="7.8081986"><ele>395.0</ele><time>2026-04-09T15:37:20.358Z</time></trkpt><trkpt lat="43.9747523" lon="7.808441"><ele>395.0</ele><time>2026-04-09T15:37:21.358Z</time></trkpt><trkpt lat="43.9746668" lon="7.8087074"><ele>395.0</ele><time>2026-04-09T15:37:22.359Z</time></trkpt><trkpt lat="43.9745945" lon="7.8089857"><ele>397.0</ele><time>2026-04-09T15:37:23.359Z</time></trkpt><trkpt lat="43.9745256" lon="7.8092618"><ele>399.0</ele><time>2026-04-09T15:37:24.359Z</time></trkpt><trkpt lat="43.9744437" lon="7.8095338"><ele>401.0</ele><time>2026-04-09T15:37:25.358Z</time></trkpt><trkpt lat="43.9743549" lon="7.8098011"><ele>404.3333333333333</ele><time>2026-04-09T15:37:26.359Z</time></trkpt><trkpt lat="43.9742649" lon="7.8100612"><ele>407.66666666666663</ele><time>2026-04-09T15:37:27.358Z</time></trkpt><trkpt lat="43.9741694" lon="7.8103136"><ele>411.0</ele><time>2026-04-09T15:37:28.358Z</time></trkpt><trkpt lat="43.974078" lon="7.8105704"><ele>405.66666666666663</ele><time>2026-04-09T15:37:29.358Z</time></trkpt><trkpt lat="43.9739917" lon="7.8108246"><ele>400.3333333333333</ele><time>2026-04-09T15:37:30.359Z</time></trkpt><trkpt lat="43.973909" lon="7.8110845"><ele>395.0</ele><time>2026-04-09T15:37:31.358Z</time></trkpt><trkpt lat="43.9738323" lon="7.8113319"><ele>395.0</ele><time>2026-04-09T15:37:32.358Z</time></trkpt><trkpt lat="43.9737441" lon="7.8115525"><ele>395.0</ele><time>2026-04-09T15:37:33.358Z</time></trkpt><trkpt lat="43.9736329" lon="7.8117556"><ele>395.0</ele><time>2026-04-09T15:37:34.358Z</time></trkpt><trkpt lat="43.97349" lon="7.8119473"><ele>395.66666666666663</ele><time>2026-04-09T15:37:35.359Z</time></trkpt><trkpt lat="43.9733357" lon="7.812142"><ele>396.33333333333337</ele><time>2026-04-09T15:37:36.358Z</time></trkpt><trkpt lat="43.9731923" lon="7.8123219"><ele>397.0</ele><time>2026-04-09T15:37:37.359Z</time></trkpt><trkpt lat="43.9730443" lon="7.8124929"><ele>397.0</ele><time>2026-04-09T15:37:38.358Z</time></trkpt><trkpt lat="43.9728867" lon="7.8126561"><ele>397.0</ele><time>2026-04-09T15:37:39.358Z</time></trkpt><trkpt lat="43.9727406" lon="7.8128358"><ele>397.0</ele><time>2026-04-09T15:37:40.359Z</time></trkpt><trkpt lat="43.9725993" lon="7.8130257"><ele>393.6666666666667</ele><time>2026-04-09T15:37:41.359Z</time></trkpt><trkpt lat="43.9724681" lon="7.8132248"><ele>390.33333333333337</ele><time>2026-04-09T15:37:42.359Z</time></trkpt><trkpt lat="43.9723348" lon="7.8134262"><ele>387.0</ele><time>2026-04-09T15:37:43.358Z</time></trkpt><trkpt lat="43.9722045" lon="7.8136448"><ele>394.0</ele><time>2026-04-09T15:37:44.358Z</time></trkpt><trkpt lat="43.9720693" lon="7.8138473"><ele>401.0</ele><time>2026-04-09T15:37:45.358Z</time></trkpt><trkpt lat="43.9719397" lon="7.8140411"><ele>408.0</ele><time>2026-04-09T15:37:46.358Z</time></trkpt><trkpt lat="43.9718252" lon="7.8142439"><ele>413.0</ele><time>2026-04-09T15:37:47.358Z</time></trkpt><trkpt lat="43.9717194" lon="7.814457"><ele>418.0</ele><time>2026-04-09T15:37:48.358Z</time></trkpt><trkpt lat="43.9716321" lon="7.8146678"><ele>423.0</ele><time>2026-04-09T15:37:49.359Z</time></trkpt><trkpt lat="43.9715568" lon="7.8148689"><ele>413.25</ele><time>2026-04-09T15:37:50.358Z</time></trkpt><trkpt lat="43.9714919" lon="7.815037"><ele>403.5</ele><time>2026-04-09T15:37:51.359Z</time></trkpt><trkpt lat="43.9714462" lon="7.8151978"><ele>393.75</ele><time>2026-04-09T15:37:52.358Z</time></trkpt><trkpt lat="43.9714232" lon="7.8153604"><ele>384.0</ele><time>2026-04-09T15:37:53.359Z</time></trkpt><trkpt lat="43.9714073" lon="7.8155353"><ele>384.0</ele><time>2026-04-09T15:37:54.358Z</time></trkpt><trkpt lat="43.9713677" lon="7.8156869"><ele>384.0</ele><time>2026-04-09T15:37:55.358Z</time></trkpt><trkpt lat="43.9712979" lon="7.8158042"><ele>384.0</ele><time>2026-04-09T15:37:56.359Z</time></trkpt><trkpt lat="43.9711935" lon="7.815891"><ele>384.0</ele><time>2026-04-09T15:37:57.358Z</time></trkpt><trkpt lat="43.9710622" lon="7.8159634"><ele>387.33333333333337</ele><time>2026-04-09T15:37:58.359Z</time></trkpt><trkpt lat="43.9709129" lon="7.8160316"><ele>390.6666666666667</ele><time>2026-04-09T15:37:59.358Z</time></trkpt><trkpt lat="43.9707572" lon="7.8161159"><ele>394.0</ele><time>2026-04-09T15:38:00.359Z</time></trkpt><trkpt lat="43.9705947" lon="7.8162006"><ele>394.0</ele><time>2026-04-09T15:38:01.358Z</time></trkpt><trkpt lat="43.9704283" lon="7.8162857"><ele>394.0</ele><time>2026-04-09T15:38:02.358Z</time></trkpt><trkpt lat="43.9702533" lon="7.8163555"><ele>394.0</ele><time>2026-04-09T15:38:03.358Z</time></trkpt><trkpt lat="43.9700727" lon="7.8164099"><ele>390.6666666666667</ele><time>2026-04-09T15:38:04.358Z</time></trkpt><trkpt lat="43.9698867" lon="7.8164432"><ele>387.33333333333337</ele><time>2026-04-09T15:38:05.358Z</time></trkpt><trkpt lat="43.9696972" lon="7.8164612"><ele>384.0</ele><time>2026-04-09T15:38:06.359Z</time></trkpt><trkpt lat="43.9695194" lon="7.8164578"><ele>384.0</ele><time>2026-04-09T15:38:07.359Z</time></trkpt><trkpt lat="43.9693444" lon="7.8164201"><ele>384.0</ele><time>2026-04-09T15:38:08.359Z</time></trkpt><trkpt lat="43.9691906" lon="7.8163568"><ele>384.0</ele><time>2026-04-09T15:38:09.358Z</time></trkpt><trkpt lat="43.9690444" lon="7.8163014"><ele>385.5</ele><time>2026-04-09T15:38:10.358Z</time></trkpt><trkpt lat="43.9689133" lon="7.816264"><ele>387.0</ele><time>2026-04-09T15:38:11.358Z</time></trkpt><trkpt lat="43.9688014" lon="7.8162452"><ele>388.5</ele><time>2026-04-09T15:38:12.358Z</time></trkpt><trkpt lat="43.9686965" lon="7.8162243"><ele>390.0</ele><time>2026-04-09T15:38:13.359Z</time></trkpt><trkpt lat="43.9685865" lon="7.8162153"><ele>390.0</ele><time>2026-04-09T15:38:14.359Z</time></trkpt><trkpt lat="43.9684717" lon="7.8162152"><ele>390.0</ele><time>2026-04-09T15:38:15.359Z</time></trkpt><trkpt lat="43.9683468" lon="7.816222"><ele>390.0</ele><time>2026-04-09T15:38:16.358Z</time></trkpt><trkpt lat="43.9682214" lon="7.8162183"><ele>390.0</ele><time>2026-04-09T15:38:17.358Z</time></trkpt><trkpt lat="43.9680896" lon="7.8161998"><ele>386.25</ele><time>2026-04-09T15:38:18.358Z</time></trkpt><trkpt lat="43.9679597" lon="7.8161932"><ele>382.5</ele><time>2026-04-09T15:38:19.358Z</time></trkpt><trkpt lat="43.9678344" lon="7.8161994"><ele>378.75</ele><time>2026-04-09T15:38:20.358Z</time></trkpt><trkpt lat="43.96772" lon="7.8162384"><ele>375.0</ele><time>2026-04-09T15:38:21.359Z</time></trkpt><trkpt lat="43.9676164" lon="7.8163318"><ele>377.0</ele><time>2026-04-09T15:38:22.359Z</time></trkpt><trkpt lat="43.9675127" lon="7.8164452"><ele>379.0</ele><time>2026-04-09T15:38:23.359Z</time></trkpt><trkpt lat="43.9674071" lon="7.8165648"><ele>381.0</ele><time>2026-04-09T15:38:24.359Z</time></trkpt><trkpt lat="43.9672958" lon="7.8166847"><ele>383.0</ele><time>2026-04-09T15:38:25.359Z</time></trkpt><trkpt lat="43.9671868" lon="7.8168197"><ele>383.0</ele><time>2026-04-09T15:38:26.359Z</time></trkpt><trkpt lat="43.9670744" lon="7.8169527"><ele>383.0</ele><time>2026-04-09T15:38:27.359Z</time></trkpt><trkpt lat="43.9669606" lon="7.8170838"><ele>383.0</ele><time>2026-04-09T15:38:28.358Z</time></trkpt><trkpt lat="43.9668427" lon="7.8172122"><ele>383.0</ele><time>2026-04-09T15:38:29.359Z</time></trkpt><trkpt lat="43.9667118" lon="7.8173299"><ele>376.0</ele><time>2026-04-09T15:38:30.359Z</time></trkpt><trkpt lat="43.966566" lon="7.8174365"><ele>369.0</ele><time>2026-04-09T15:38:31.358Z</time></trkpt><trkpt lat="43.966402" lon="7.8175207"><ele>362.0</ele><time>2026-04-09T15:38:32.358Z</time></trkpt><trkpt lat="43.9662269" lon="7.817586"><ele>362.0</ele><time>2026-04-09T15:38:33.358Z</time></trkpt><trkpt lat="43.9660492" lon="7.8176454"><ele>362.0</ele><time>2026-04-09T15:38:34.359Z</time></trkpt><trkpt lat="43.9658772" lon="7.8177339"><ele>362.0</ele><time>2026-04-09T15:38:35.358Z</time></trkpt><trkpt lat="43.9657237" lon="7.8178637"><ele>368.6666666666667</ele><time>2026-04-09T15:38:36.358Z</time></trkpt><trkpt lat="43.9655716" lon="7.8179919"><ele>375.3333333333333</ele><time>2026-04-09T15:38:37.358Z</time></trkpt><trkpt lat="43.9654086" lon="7.818058"><ele>382.0</ele><time>2026-04-09T15:38:38.359Z</time></trkpt><trkpt lat="43.9652341" lon="7.8180764"><ele>382.0</ele><time>2026-04-09T15:38:39.358Z</time></trkpt><trkpt lat="43.9650607" lon="7.81806"><ele>382.0</ele><time>2026-04-09T15:38:40.359Z</time></trkpt><trkpt lat="43.9649051" lon="7.8180214"><ele>382.0</ele><time>2026-04-09T15:38:41.358Z</time></trkpt><trkpt lat="43.9647483" lon="7.8179909"><ele>379.3333333333333</ele><time>2026-04-09T15:38:42.358Z</time></trkpt><trkpt lat="43.9645989" lon="7.8179945"><ele>376.6666666666667</ele><time>2026-04-09T15:38:43.358Z</time></trkpt><trkpt lat="43.9644558" lon="7.8180514"><ele>374.0</ele><time>2026-04-09T15:38:44.358Z</time></trkpt><trkpt lat="43.9643184" lon="7.8181679"><ele>370.33333333333337</ele><time>2026-04-09T15:38:45.358Z</time></trkpt><trkpt lat="43.964167" lon="7.8182945"><ele>366.6666666666667</ele><time>2026-04-09T15:38:46.358Z</time></trkpt><trkpt lat="43.9640098" lon="7.8183937"><ele>363.0</ele><time>2026-04-09T15:38:47.358Z</time></trkpt><trkpt lat="43.9638623" lon="7.8184321"><ele>363.0</ele><time>2026-04-09T15:38:48.358Z</time></trkpt><trkpt lat="43.9637332" lon="7.8184817"><ele>363.0</ele><time>2026-04-09T15:38:49.359Z</time></trkpt><trkpt lat="43.9636288" lon="7.8186096"><ele>363.0</ele><time>2026-04-09T15:38:50.358Z</time></trkpt><trkpt lat="43.9635534" lon="7.8187845"><ele>363.0</ele><time>2026-04-09T15:38:51.358Z</time></trkpt><trkpt lat="43.9634982" lon="7.8189955"><ele>363.3333333333333</ele><time>2026-04-09T15:38:52.359Z</time></trkpt><trkpt lat="43.9634417" lon="7.8192332"><ele>363.66666666666663</ele><time>2026-04-09T15:38:53.358Z</time></trkpt><trkpt lat="43.9633748" lon="7.8194823"><ele>364.0</ele><time>2026-04-09T15:38:54.359Z</time></trkpt><trkpt lat="43.9633078" lon="7.8197466"><ele>364.0</ele><time>2026-04-09T15:38:55.359Z</time></trkpt><trkpt lat="43.9632454" lon="7.8200323"><ele>364.0</ele><time>2026-04-09T15:38:56.359Z</time></trkpt><trkpt lat="43.9631899" lon="7.8203064"><ele>364.0</ele><time>2026-04-09T15:38:57.359Z</time></trkpt><trkpt lat="43.9631401" lon="7.820561"><ele>367.3333333333333</ele><time>2026-04-09T15:38:58.358Z</time></trkpt><trkpt lat="43.9630874" lon="7.8207977"><ele>370.6666666666667</ele><time>2026-04-09T15:38:59.358Z</time></trkpt><trkpt lat="43.9630286" lon="7.8210082"><ele>374.0</ele><time>2026-04-09T15:39:00.359Z</time></trkpt><trkpt lat="43.9629453" lon="7.8211896"><ele>380.6666666666667</ele><time>2026-04-09T15:39:01.358Z</time></trkpt><trkpt lat="43.9628383" lon="7.8213711"><ele>387.33333333333337</ele><time>2026-04-09T15:39:02.359Z</time></trkpt><trkpt lat="43.9627286" lon="7.8215558"><ele>394.0</ele><time>2026-04-09T15:39:03.358Z</time></trkpt><trkpt lat="43.9626264" lon="7.8217278"><ele>398.0</ele><time>2026-04-09T15:39:04.358Z</time></trkpt><trkpt lat="43.9625096" lon="7.8218739"><ele>402.0</ele><time>2026-04-09T15:39:05.359Z</time></trkpt><trkpt lat="43.9623607" lon="7.8220023"><ele>406.0</ele><time>2026-04-09T15:39:06.358Z</time></trkpt><trkpt lat="43.9621776" lon="7.8221059"><ele>406.0</ele><time>2026-04-09T15:39:07.358Z</time></trkpt><trkpt lat="43.9619897" lon="7.8222124"><ele>406.0</ele><time>2026-04-09T15:39:08.358Z</time></trkpt><trkpt lat="43.9618026" lon="7.8222986"><ele>406.0</ele><time>2026-04-09T15:39:09.358Z</time></trkpt><trkpt lat="43.9616281" lon="7.8223645"><ele>402.0</ele><time>2026-04-09T15:39:10.359Z</time></trkpt><trkpt lat="43.9614669" lon="7.8224017"><ele>398.0</ele><time>2026-04-09T15:39:11.359Z</time></trkpt><trkpt lat="43.9613086" lon="7.8223987"><ele>394.0</ele><time>2026-04-09T15:39:12.358Z</time></trkpt><trkpt lat="43.9611491" lon="7.8223427"><ele>394.0</ele><time>2026-04-09T15:39:13.359Z</time></trkpt><trkpt lat="43.9610193" lon="7.822265"><ele>394.0</ele><time>2026-04-09T15:39:14.358Z</time></trkpt><trkpt lat="43.9608984" lon="7.8221664"><ele>394.0</ele><time>2026-04-09T15:39:15.358Z</time></trkpt><trkpt lat="43.960768" lon="7.8221101"><ele>394.0</ele><time>2026-04-09T15:39:16.359Z</time></trkpt><trkpt lat="43.9606112" lon="7.8220923"><ele>393.6666666666667</ele><time>2026-04-09T15:39:17.358Z</time></trkpt><trkpt lat="43.9604311" lon="7.8221025"><ele>393.33333333333337</ele><time>2026-04-09T15:39:18.358Z</time></trkpt><trkpt lat="43.9602504" lon="7.8221126"><ele>393.0</ele><time>2026-04-09T15:39:19.359Z</time></trkpt><trkpt lat="43.9600852" lon="7.8221245"><ele>391.0</ele><time>2026-04-09T15:39:20.359Z</time></trkpt><trkpt lat="43.9599245" lon="7.8221479"><ele>389.0</ele><time>2026-04-09T15:39:21.358Z</time></trkpt><trkpt lat="43.9597921" lon="7.8222137"><ele>387.0</ele><time>2026-04-09T15:39:22.359Z</time></trkpt><trkpt lat="43.9596811" lon="7.8223331"><ele>385.0</ele><time>2026-04-09T15:39:23.359Z</time></trkpt><trkpt lat="43.9595775" lon="7.8224805"><ele>392.33333333333337</ele><time>2026-04-09T15:39:24.359Z</time></trkpt><trkpt lat="43.9594789" lon="7.8226577"><ele>399.66666666666663</ele><time>2026-04-09T15:39:25.358Z</time></trkpt><trkpt lat="43.9593716" lon="7.8228559"><ele>407.0</ele><time>2026-04-09T15:39:26.359Z</time></trkpt><trkpt lat="43.9592573" lon="7.8230497"><ele>395.3333333333333</ele><time>2026-04-09T15:39:27.358Z</time></trkpt><trkpt lat="43.9591528" lon="7.8232342"><ele>383.66666666666663</ele><time>2026-04-09T15:39:28.359Z</time></trkpt><trkpt lat="43.9590626" lon="7.8234005"><ele>372.0</ele><time>2026-04-09T15:39:29.358Z</time></trkpt><trkpt lat="43.958995" lon="7.8235605"><ele>372.0</ele><time>2026-04-09T15:39:30.359Z</time></trkpt><trkpt lat="43.9589629" lon="7.823744"><ele>372.0</ele><time>2026-04-09T15:39:31.358Z</time></trkpt><trkpt lat="43.9589721" lon="7.8239294"><ele>372.0</ele><time>2026-04-09T15:39:32.359Z</time></trkpt><trkpt lat="43.9589575" lon="7.8241044"><ele>372.0</ele><time>2026-04-09T15:39:33.359Z</time></trkpt><trkpt lat="43.9588897" lon="7.8242736"><ele>372.3333333333333</ele><time>2026-04-09T15:39:34.359Z</time></trkpt><trkpt lat="43.9587873" lon="7.824459"><ele>372.66666666666663</ele><time>2026-04-09T15:39:35.358Z</time></trkpt><trkpt lat="43.9586761" lon="7.8246554"><ele>373.0</ele><time>2026-04-09T15:39:36.358Z</time></trkpt><trkpt lat="43.9585764" lon="7.8248429"><ele>373.0</ele><time>2026-04-09T15:39:37.358Z</time></trkpt><trkpt lat="43.9584747" lon="7.8250103"><ele>373.0</ele><time>2026-04-09T15:39:38.358Z</time></trkpt><trkpt lat="43.9583619" lon="7.8251208"><ele>373.0</ele><time>2026-04-09T15:39:39.358Z</time></trkpt><trkpt lat="43.9582336" lon="7.825169"><ele>373.0</ele><time>2026-04-09T15:39:40.358Z</time></trkpt><trkpt lat="43.9581102" lon="7.8251834"><ele>378.5</ele><time>2026-04-09T15:39:41.359Z</time></trkpt><trkpt lat="43.9579955" lon="7.8251856"><ele>384.0</ele><time>2026-04-09T15:39:42.358Z</time></trkpt><trkpt lat="43.9578904" lon="7.8252401"><ele>389.5</ele><time>2026-04-09T15:39:43.359Z</time></trkpt><trkpt lat="43.957794" lon="7.8254259"><ele>395.0</ele><time>2026-04-09T15:39:44.358Z</time></trkpt><trkpt lat="43.9577008" lon="7.8256492"><ele>395.0</ele><time>2026-04-09T15:39:45.359Z</time></trkpt><trkpt lat="43.9575949" lon="7.8258906"><ele>395.0</ele><time>2026-04-09T15:39:46.358Z</time></trkpt><trkpt lat="43.9574816" lon="7.8261413"><ele>395.0</ele><time>2026-04-09T15:39:47.358Z</time></trkpt><trkpt lat="43.9573698" lon="7.8263824"><ele>392.66666666666663</ele><time>2026-04-09T15:39:48.359Z</time></trkpt><trkpt lat="43.9572713" lon="7.8265974"><ele>390.33333333333337</ele><time>2026-04-09T15:39:49.358Z</time></trkpt><trkpt lat="43.9571784" lon="7.8268015"><ele>388.0</ele><time>2026-04-09T15:39:50.359Z</time></trkpt><trkpt lat="43.9570692" lon="7.8269812"><ele>382.0</ele><time>2026-04-09T15:39:51.358Z</time></trkpt><trkpt lat="43.9569332" lon="7.8271291"><ele>376.0</ele><time>2026-04-09T15:39:52.359Z</time></trkpt><trkpt lat="43.956779" lon="7.8272886"><ele>370.0</ele><time>2026-04-09T15:39:53.359Z</time></trkpt><trkpt lat="43.95664" lon="7.8274858"><ele>384.66666666666663</ele><time>2026-04-09T15:39:54.358Z</time></trkpt><trkpt lat="43.9565038" lon="7.8276914"><ele>399.3333333333333</ele><time>2026-04-09T15:39:55.359Z</time></trkpt><trkpt lat="43.9563649" lon="7.8278656"><ele>414.0</ele><time>2026-04-09T15:39:56.361Z</time></trkpt><trkpt lat="43.9562238" lon="7.8280103"><ele>414.0</ele><time>2026-04-09T15:39:57.361Z</time></trkpt><trkpt lat="43.9560837" lon="7.8281124"><ele>414.0</ele><time>2026-04-09T15:39:58.361Z</time></trkpt><trkpt lat="43.955927" lon="7.8281805"><ele>414.0</ele><time>2026-04-09T15:39:59.362Z</time></trkpt><trkpt lat="43.9557729" lon="7.8282339"><ele>411.33333333333337</ele><time>2026-04-09T15:40:00.361Z</time></trkpt><trkpt lat="43.9556458" lon="7.8283445"><ele>408.6666666666667</ele><time>2026-04-09T15:40:01.362Z</time></trkpt><trkpt lat="43.9555232" lon="7.8284844"><ele>406.0</ele><time>2026-04-09T15:40:02.362Z</time></trkpt><trkpt lat="43.9553942" lon="7.8286622"><ele>406.0</ele><time>2026-04-09T15:40:03.362Z</time></trkpt><trkpt lat="43.9552679" lon="7.8288482"><ele>406.0</ele><time>2026-04-09T15:40:04.362Z</time></trkpt><trkpt lat="43.9551574" lon="7.8290143"><ele>406.0</ele><time>2026-04-09T15:40:05.362Z</time></trkpt><trkpt lat="43.9550537" lon="7.8291716"><ele>406.0</ele><time>2026-04-09T15:40:06.362Z</time></trkpt><trkpt lat="43.9549445" lon="7.8292915"><ele>406.0</ele><time>2026-04-09T15:40:07.362Z</time></trkpt><trkpt lat="43.9548274" lon="7.8293545"><ele>406.0</ele><time>2026-04-09T15:40:08.361Z</time></trkpt><trkpt lat="43.9546982" lon="7.8294054"><ele>406.0</ele><time>2026-04-09T15:40:09.362Z</time></trkpt><trkpt lat="43.9545853" lon="7.8295023"><ele>406.0</ele><time>2026-04-09T15:40:10.362Z</time></trkpt><trkpt lat="43.9544924" lon="7.8296571"><ele>406.0</ele><time>2026-04-09T15:40:11.362Z</time></trkpt><trkpt lat="43.9543947" lon="7.8297923"><ele>406.0</ele><time>2026-04-09T15:40:12.361Z</time></trkpt><trkpt lat="43.954273" lon="7.8298906"><ele>406.0</ele><time>2026-04-09T15:40:13.362Z</time></trkpt><trkpt lat="43.9541385" lon="7.829942"><ele>403.0</ele><time>2026-04-09T15:40:14.362Z</time></trkpt><trkpt lat="43.9539975" lon="7.8299817"><ele>400.0</ele><time>2026-04-09T15:40:15.362Z</time></trkpt><trkpt lat="43.9538672" lon="7.8300509"><ele>397.0</ele><time>2026-04-09T15:40:16.361Z</time></trkpt><trkpt lat="43.9537603" lon="7.8301306"><ele>394.0</ele><time>2026-04-09T15:40:17.361Z</time></trkpt><trkpt lat="43.953652" lon="7.8301916"><ele>390.5</ele><time>2026-04-09T15:40:18.362Z</time></trkpt><trkpt lat="43.9535486" lon="7.8302034"><ele>387.0</ele><time>2026-04-09T15:40:19.362Z</time></trkpt><trkpt lat="43.9534543" lon="7.8301424"><ele>383.5</ele><time>2026-04-09T15:40:20.362Z</time></trkpt><trkpt lat="43.9533639" lon="7.8300245"><ele>380.0</ele><time>2026-04-09T15:40:21.361Z</time></trkpt><trkpt lat="43.9532498" lon="7.8299377"><ele>380.0</ele><time>2026-04-09T15:40:22.361Z</time></trkpt><trkpt lat="43.9531135" lon="7.829926"><ele>380.0</ele><time>2026-04-09T15:40:23.361Z</time></trkpt><trkpt lat="43.9529851" lon="7.8299138"><ele>380.0</ele><time>2026-04-09T15:40:24.362Z</time></trkpt><trkpt lat="43.9528798" lon="7.8299093"><ele>380.0</ele><time>2026-04-09T15:40:25.362Z</time></trkpt><trkpt lat="43.9527877" lon="7.8299607"><ele>380.0</ele><time>2026-04-09T15:40:26.362Z</time></trkpt><trkpt lat="43.9527134" lon="7.8300522"><ele>380.0</ele><time>2026-04-09T15:40:27.361Z</time></trkpt><trkpt lat="43.9526869" lon="7.8302111"><ele>380.0</ele><time>2026-04-09T15:40:28.361Z</time></trkpt><trkpt lat="43.95268" lon="7.8304083"><ele>380.0</ele><time>2026-04-09T15:40:29.361Z</time></trkpt><trkpt lat="43.9526693" lon="7.8306236"><ele>389.33333333333337</ele><time>2026-04-09T15:40:30.362Z</time></trkpt><trkpt lat="43.9526238" lon="7.8308458"><ele>398.6666666666667</ele><time>2026-04-09T15:40:31.361Z</time></trkpt><trkpt lat="43.9525488" lon="7.8310822"><ele>408.0</ele><time>2026-04-09T15:40:32.362Z</time></trkpt><trkpt lat="43.9524511" lon="7.8313027"><ele>408.0</ele><time>2026-04-09T15:40:33.361Z</time></trkpt><trkpt lat="43.952339" lon="7.8315266"><ele>408.0</ele><time>2026-04-09T15:40:34.362Z</time></trkpt><trkpt lat="43.9522411" lon="7.8317399"><ele>408.0</ele><time>2026-04-09T15:40:35.361Z</time></trkpt><trkpt lat="43.9521416" lon="7.8319301"><ele>413.5</ele><time>2026-04-09T15:40:36.362Z</time></trkpt><trkpt lat="43.9520534" lon="7.832102"><ele>419.0</ele><time>2026-04-09T15:40:37.362Z</time></trkpt><trkpt lat="43.9519636" lon="7.832235"><ele>424.5</ele><time>2026-04-09T15:40:38.361Z</time></trkpt><trkpt lat="43.9518646" lon="7.8323393"><ele>430.0</ele><time>2026-04-09T15:40:39.362Z</time></trkpt><trkpt lat="43.9517316" lon="7.8323597"><ele>423.25</ele><time>2026-04-09T15:40:40.361Z</time></trkpt><trkpt lat="43.9515715" lon="7.8323594"><ele>416.5</ele><time>2026-04-09T15:40:41.361Z</time></trkpt><trkpt lat="43.9514263" lon="7.8324014"><ele>409.75</ele><time>2026-04-09T15:40:42.361Z</time></trkpt><trkpt lat="43.9513052" lon="7.8324755"><ele>403.0</ele><time>2026-04-09T15:40:43.362Z</time></trkpt><trkpt lat="43.951203" lon="7.8326016"><ele>405.75</ele><time>2026-04-09T15:40:44.362Z</time></trkpt><trkpt lat="43.9511511" lon="7.8327546"><ele>408.5</ele><time>2026-04-09T15:40:45.361Z</time></trkpt><trkpt lat="43.9511332" lon="7.8329262"><ele>411.25</ele><time>2026-04-09T15:40:46.362Z</time></trkpt><trkpt lat="43.9511666" lon="7.8331329"><ele>414.0</ele><time>2026-04-09T15:40:47.361Z</time></trkpt><trkpt lat="43.9512271" lon="7.833351"><ele>412.66666666666663</ele><time>2026-04-09T15:40:48.361Z</time></trkpt><trkpt lat="43.9512862" lon="7.83357"><ele>411.3333333333333</ele><time>2026-04-09T15:40:49.361Z</time></trkpt><trkpt lat="43.9513311" lon="7.8337762"><ele>410.0</ele><time>2026-04-09T15:40:50.361Z</time></trkpt><trkpt lat="43.9513477" lon="7.8339636"><ele>410.0</ele><time>2026-04-09T15:40:51.362Z</time></trkpt><trkpt lat="43.9513337" lon="7.8341229"><ele>410.0</ele><time>2026-04-09T15:40:52.362Z</time></trkpt><trkpt lat="43.9512871" lon="7.8342501"><ele>410.0</ele><time>2026-04-09T15:40:53.361Z</time></trkpt><trkpt lat="43.9512041" lon="7.8343164"><ele>410.0</ele><time>2026-04-09T15:40:54.362Z</time></trkpt><trkpt lat="43.9510891" lon="7.8343533"><ele>410.0</ele><time>2026-04-09T15:40:55.361Z</time></trkpt><trkpt lat="43.9509823" lon="7.834324"><ele>410.0</ele><time>2026-04-09T15:40:56.361Z</time></trkpt><trkpt lat="43.9508789" lon="7.8342277"><ele>410.0</ele><time>2026-04-09T15:40:57.361Z</time></trkpt><trkpt lat="43.9507664" lon="7.8340974"><ele>410.0</ele><time>2026-04-09T15:40:58.362Z</time></trkpt><trkpt lat="43.9506307" lon="7.8339692"><ele>410.0</ele><time>2026-04-09T15:40:59.362Z</time></trkpt><trkpt lat="43.9504908" lon="7.8338933"><ele>405.5</ele><time>2026-04-09T15:41:00.361Z</time></trkpt><trkpt lat="43.9503696" lon="7.8338704"><ele>401.0</ele><time>2026-04-09T15:41:01.361Z</time></trkpt><trkpt lat="43.9502619" lon="7.8339081"><ele>396.5</ele><time>2026-04-09T15:41:02.361Z</time></trkpt><trkpt lat="43.9501613" lon="7.834008"><ele>392.0</ele><time>2026-04-09T15:41:03.362Z</time></trkpt><trkpt lat="43.9500544" lon="7.8341182"><ele>391.20000000000005</ele><time>2026-04-09T15:41:04.362Z</time></trkpt><trkpt lat="43.9499507" lon="7.8341626"><ele>390.4</ele><time>2026-04-09T15:41:05.362Z</time></trkpt><trkpt lat="43.9498487" lon="7.8341543"><ele>389.6</ele><time>2026-04-09T15:41:06.361Z</time></trkpt><trkpt lat="43.9497504" lon="7.8340899"><ele>388.79999999999995</ele><time>2026-04-09T15:41:07.362Z</time></trkpt><trkpt lat="43.9496819" lon="7.8339636"><ele>388.0</ele><time>2026-04-09T15:41:08.362Z</time></trkpt><trkpt lat="43.9496496" lon="7.8337839"><ele>388.0</ele><time>2026-04-09T15:41:09.362Z</time></trkpt><trkpt lat="43.9496148" lon="7.8336251"><ele>388.0</ele><time>2026-04-09T15:41:10.362Z</time></trkpt><trkpt lat="43.9495513" lon="7.8334997"><ele>388.0</ele><time>2026-04-09T15:41:11.362Z</time></trkpt><trkpt lat="43.9494447" lon="7.8334334"><ele>388.0</ele><time>2026-04-09T15:41:12.361Z</time></trkpt><trkpt lat="43.9493229" lon="7.8334288"><ele>388.0</ele><time>2026-04-09T15:41:13.362Z</time></trkpt><trkpt lat="43.9492166" lon="7.833498"><ele>388.0</ele><time>2026-04-09T15:41:14.361Z</time></trkpt><trkpt lat="43.9491424" lon="7.8336303"><ele>388.0</ele><time>2026-04-09T15:41:15.362Z</time></trkpt><trkpt lat="43.9491022" lon="7.8337883"><ele>388.0</ele><time>2026-04-09T15:41:16.362Z</time></trkpt><trkpt lat="43.9490721" lon="7.8339368"><ele>387.4</ele><time>2026-04-09T15:41:17.362Z</time></trkpt><trkpt lat="43.9489992" lon="7.8340249"><ele>386.79999999999995</ele><time>2026-04-09T15:41:18.362Z</time></trkpt><trkpt lat="43.9488992" lon="7.8340637"><ele>386.2</ele><time>2026-04-09T15:41:19.361Z</time></trkpt><trkpt lat="43.9487904" lon="7.8340486"><ele>385.6</ele><time>2026-04-09T15:41:20.361Z</time></trkpt><trkpt lat="43.9486705" lon="7.8339927"><ele>385.0</ele><time>2026-04-09T15:41:21.362Z</time></trkpt><trkpt lat="43.948547" lon="7.8339643"><ele>385.0</ele><time>2026-04-09T15:41:22.362Z</time></trkpt><trkpt lat="43.9484315" lon="7.8339934"><ele>385.0</ele><time>2026-04-09T15:41:23.361Z</time></trkpt><trkpt lat="43.9483383" lon="7.8340911"><ele>385.0</ele><time>2026-04-09T15:41:24.361Z</time></trkpt><trkpt lat="43.9482773" lon="7.8342288"><ele>385.0</ele><time>2026-04-09T15:41:25.361Z</time></trkpt><trkpt lat="43.9482555" lon="7.8343989"><ele>383.25</ele><time>2026-04-09T15:41:26.361Z</time></trkpt><trkpt lat="43.9482581" lon="7.8345921"><ele>381.5</ele><time>2026-04-09T15:41:27.361Z</time></trkpt><trkpt lat="43.9482747" lon="7.8347835"><ele>379.75</ele><time>2026-04-09T15:41:28.362Z</time></trkpt><trkpt lat="43.9482792" lon="7.8349574"><ele>378.0</ele><time>2026-04-09T15:41:29.362Z</time></trkpt><trkpt lat="43.9482573" lon="7.8351059"><ele>385.25</ele><time>2026-04-09T15:41:30.362Z</time></trkpt><trkpt lat="43.9482016" lon="7.8352219"><ele>392.5</ele><time>2026-04-09T15:41:31.361Z</time></trkpt><trkpt lat="43.9481043" lon="7.8353061"><ele>399.75</ele><time>2026-04-09T15:41:32.362Z</time></trkpt><trkpt lat="43.9479862" lon="7.8353646"><ele>407.0</ele><time>2026-04-09T15:41:33.362Z</time></trkpt><trkpt lat="43.9478527" lon="7.8354068"><ele>407.0</ele><time>2026-04-09T15:41:34.362Z</time></trkpt><trkpt lat="43.9477379" lon="7.8354867"><ele>407.0</ele><time>2026-04-09T15:41:35.361Z</time></trkpt><trkpt lat="43.9476423" lon="7.8356692"><ele>407.0</ele><time>2026-04-09T15:41:36.361Z</time></trkpt><trkpt lat="43.9475638" lon="7.8358622"><ele>407.25</ele><time>2026-04-09T15:41:37.362Z</time></trkpt><trkpt lat="43.9474947" lon="7.8360316"><ele>407.5</ele><time>2026-04-09T15:41:38.362Z</time></trkpt><trkpt lat="43.9474252" lon="7.8361889"><ele>407.75</ele><time>2026-04-09T15:41:39.361Z</time></trkpt><trkpt lat="43.9473406" lon="7.8363154"><ele>408.0</ele><time>2026-04-09T15:41:40.362Z</time></trkpt><trkpt lat="43.9472041" lon="7.8363241"><ele>408.0</ele><time>2026-04-09T15:41:41.361Z</time></trkpt><trkpt lat="43.9470649" lon="7.8363734"><ele>408.0</ele><time>2026-04-09T15:41:42.362Z</time></trkpt><trkpt lat="43.946916" lon="7.8364804"><ele>408.0</ele><time>2026-04-09T15:41:43.362Z</time></trkpt><trkpt lat="43.9467668" lon="7.836567"><ele>408.25</ele><time>2026-04-09T15:41:44.362Z</time></trkpt><trkpt lat="43.9466303" lon="7.8366334"><ele>408.5</ele><time>2026-04-09T15:41:45.361Z</time></trkpt><trkpt lat="43.9464905" lon="7.8366945"><ele>408.75</ele><time>2026-04-09T15:41:46.362Z</time></trkpt><trkpt lat="43.9463786" lon="7.8368133"><ele>409.0</ele><time>2026-04-09T15:41:47.361Z</time></trkpt><trkpt lat="43.9462977" lon="7.8369913"><ele>409.0</ele><time>2026-04-09T15:41:48.362Z</time></trkpt><trkpt lat="43.9462508" lon="7.8371682"><ele>409.0</ele><time>2026-04-09T15:41:49.361Z</time></trkpt><trkpt lat="43.9462085" lon="7.8373391"><ele>409.0</ele><time>2026-04-09T15:41:50.362Z</time></trkpt><trkpt lat="43.946155" lon="7.8374644"><ele>409.0</ele><time>2026-04-09T15:41:51.362Z</time></trkpt><trkpt lat="43.9460908" lon="7.8375498"><ele>409.0</ele><time>2026-04-09T15:41:52.361Z</time></trkpt><trkpt lat="43.9459975" lon="7.8375655"><ele>409.0</ele><time>2026-04-09T15:41:53.361Z</time></trkpt><trkpt lat="43.9459062" lon="7.8375369"><ele>409.0</ele><time>2026-04-09T15:41:54.361Z</time></trkpt><trkpt lat="43.9458193" lon="7.8374379"><ele>409.0</ele><time>2026-04-09T15:41:55.362Z</time></trkpt><trkpt lat="43.9457241" lon="7.8372848"><ele>409.0</ele><time>2026-04-09T15:41:56.361Z</time></trkpt><trkpt lat="43.945623" lon="7.8371199"><ele>404.5</ele><time>2026-04-09T15:41:57.361Z</time></trkpt><trkpt lat="43.9455168" lon="7.8369785"><ele>400.0</ele><time>2026-04-09T15:41:58.361Z</time></trkpt><trkpt lat="43.9454093" lon="7.836873"><ele>395.5</ele><time>2026-04-09T15:41:59.362Z</time></trkpt><trkpt lat="43.945287" lon="7.8367969"><ele>391.0</ele><time>2026-04-09T15:42:00.362Z</time></trkpt><trkpt lat="43.9451421" lon="7.8367465"><ele>386.75</ele><time>2026-04-09T15:42:01.362Z</time></trkpt><trkpt lat="43.9450045" lon="7.8367072"><ele>382.5</ele><time>2026-04-09T15:42:02.362Z</time></trkpt><trkpt lat="43.9448899" lon="7.8366224"><ele>378.25</ele><time>2026-04-09T15:42:03.362Z</time></trkpt><trkpt lat="43.9447948" lon="7.8364744"><ele>374.0</ele><time>2026-04-09T15:42:04.362Z</time></trkpt><trkpt lat="43.9447142" lon="7.8362948"><ele>374.0</ele><time>2026-04-09T15:42:05.361Z</time></trkpt><trkpt lat="43.9446569" lon="7.8361142"><ele>374.0</ele><time>2026-04-09T15:42:06.362Z</time></trkpt><trkpt lat="43.9446201" lon="7.8359424"><ele>374.0</ele><time>2026-04-09T15:42:07.362Z</time></trkpt><trkpt lat="43.9445751" lon="7.8357839"><ele>374.0</ele><time>2026-04-09T15:42:08.362Z</time></trkpt><trkpt lat="43.9444732" lon="7.8356612"><ele>383.0</ele><time>2026-04-09T15:42:09.361Z</time></trkpt><trkpt lat="43.9443176" lon="7.8355379"><ele>392.0</ele><time>2026-04-09T15:42:10.361Z</time></trkpt><trkpt lat="43.9441692" lon="7.8354217"><ele>401.0</ele><time>2026-04-09T15:42:11.361Z</time></trkpt><trkpt lat="43.9440517" lon="7.8353119"><ele>401.0</ele><time>2026-04-09T15:42:12.362Z</time></trkpt><trkpt lat="43.9439633" lon="7.8351868"><ele>401.0</ele><time>2026-04-09T15:42:13.362Z</time></trkpt><trkpt lat="43.9439084" lon="7.8350467"><ele>401.0</ele><time>2026-04-09T15:42:14.362Z</time></trkpt><trkpt lat="43.9438378" lon="7.8349272"><ele>401.0</ele><time>2026-04-09T15:42:15.362Z</time></trkpt><trkpt lat="43.9437211" lon="7.8348694"><ele>387.75</ele><time>2026-04-09T15:42:16.361Z</time></trkpt><trkpt lat="43.9435866" lon="7.8348755"><ele>374.5</ele><time>2026-04-09T15:42:17.362Z</time></trkpt><trkpt lat="43.9434252" lon="7.8349019"><ele>361.25</ele><time>2026-04-09T15:42:18.362Z</time></trkpt><trkpt lat="43.9432816" lon="7.8349169"><ele>348.0</ele><time>2026-04-09T15:42:19.362Z</time></trkpt><trkpt lat="43.9431763" lon="7.8349445"><ele>348.0</ele><time>2026-04-09T15:42:20.362Z</time></trkpt><trkpt lat="43.9430931" lon="7.8350194"><ele>348.0</ele><time>2026-04-09T15:42:21.362Z</time></trkpt><trkpt lat="43.9430227" lon="7.8351313"><ele>348.0</ele><time>2026-04-09T15:42:22.362Z</time></trkpt><trkpt lat="43.942986" lon="7.8352949"><ele>348.0</ele><time>2026-04-09T15:42:23.362Z</time></trkpt><trkpt lat="43.9429492" lon="7.8354467"><ele>348.0</ele><time>2026-04-09T15:42:24.362Z</time></trkpt><trkpt lat="43.9428852" lon="7.8355467"><ele>354.25</ele><time>2026-04-09T15:42:25.361Z</time></trkpt><trkpt lat="43.9427809" lon="7.8356038"><ele>360.5</ele><time>2026-04-09T15:42:26.362Z</time></trkpt><trkpt lat="43.9426553" lon="7.8356105"><ele>366.75</ele><time>2026-04-09T15:42:27.361Z</time></trkpt><trkpt lat="43.942502" lon="7.8355778"><ele>373.0</ele><time>2026-04-09T15:42:28.361Z</time></trkpt><trkpt lat="43.9423365" lon="7.8355399"><ele>373.0</ele><time>2026-04-09T15:42:29.362Z</time></trkpt><trkpt lat="43.9421656" lon="7.8355237"><ele>373.0</ele><time>2026-04-09T15:42:30.361Z</time></trkpt><trkpt lat="43.9419779" lon="7.8355273"><ele>373.0</ele><time>2026-04-09T15:42:31.362Z</time></trkpt><trkpt lat="43.9417711" lon="7.8355457"><ele>369.66666666666663</ele><time>2026-04-09T15:42:32.361Z</time></trkpt><trkpt lat="43.9415769" lon="7.8355638"><ele>366.3333333333333</ele><time>2026-04-09T15:42:33.362Z</time></trkpt><trkpt lat="43.9413938" lon="7.8355745"><ele>363.0</ele><time>2026-04-09T15:42:34.361Z</time></trkpt><trkpt lat="43.9412288" lon="7.8355737"><ele>363.0</ele><time>2026-04-09T15:42:35.361Z</time></trkpt><trkpt lat="43.941071" lon="7.8355391"><ele>363.0</ele><time>2026-04-09T15:42:36.361Z</time></trkpt><trkpt lat="43.9409226" lon="7.8354592"><ele>363.0</ele><time>2026-04-09T15:42:37.361Z</time></trkpt><trkpt lat="43.9407799" lon="7.8353439"><ele>372.0</ele><time>2026-04-09T15:42:38.361Z</time></trkpt><trkpt lat="43.9406535" lon="7.8351816"><ele>381.0</ele><time>2026-04-09T15:42:39.361Z</time></trkpt><trkpt lat="43.9405406" lon="7.83497"><ele>390.0</ele><time>2026-04-09T15:42:40.362Z</time></trkpt><trkpt lat="43.9404213" lon="7.8347356"><ele>370.6666666666667</ele><time>2026-04-09T15:42:41.361Z</time></trkpt><trkpt lat="43.9402941" lon="7.8345181"><ele>351.33333333333337</ele><time>2026-04-09T15:42:42.362Z</time></trkpt><trkpt lat="43.9401834" lon="7.8343084"><ele>332.0</ele><time>2026-04-09T15:42:43.361Z</time></trkpt><trkpt lat="43.9401051" lon="7.8340958"><ele>333.33333333333337</ele><time>2026-04-09T15:42:44.361Z</time></trkpt><trkpt lat="43.9400799" lon="7.8338586"><ele>334.6666666666667</ele><time>2026-04-09T15:42:45.362Z</time></trkpt><trkpt lat="43.9400492" lon="7.8336161"><ele>336.0</ele><time>2026-04-09T15:42:46.361Z</time></trkpt><trkpt lat="43.9400231" lon="7.8333926"><ele>330.5</ele><time>2026-04-09T15:42:47.361Z</time></trkpt><trkpt lat="43.939997" lon="7.8331992"><ele>325.0</ele><time>2026-04-09T15:42:48.362Z</time></trkpt><trkpt lat="43.9399644" lon="7.8330472"><ele>319.5</ele><time>2026-04-09T15:42:49.362Z</time></trkpt><trkpt lat="43.9399093" lon="7.8329459"><ele>314.0</ele><time>2026-04-09T15:42:50.362Z</time></trkpt><trkpt lat="43.9398126" lon="7.832897"><ele>314.0</ele><time>2026-04-09T15:42:51.362Z</time></trkpt><trkpt lat="43.9396994" lon="7.8328924"><ele>314.0</ele><time>2026-04-09T15:42:52.362Z</time></trkpt><trkpt lat="43.939599" lon="7.8329614"><ele>314.0</ele><time>2026-04-09T15:42:53.361Z</time></trkpt><trkpt lat="43.9395205" lon="7.8330997"><ele>314.0</ele><time>2026-04-09T15:42:54.362Z</time></trkpt><trkpt lat="43.9394632" lon="7.8333047"><ele>312.33333333333337</ele><time>2026-04-09T15:42:55.361Z</time></trkpt><trkpt lat="43.9393959" lon="7.8335364"><ele>310.6666666666667</ele><time>2026-04-09T15:42:56.362Z</time></trkpt><trkpt lat="43.9393169" lon="7.8337724"><ele>309.0</ele><time>2026-04-09T15:42:57.361Z</time></trkpt><trkpt lat="43.9392152" lon="7.8339965"><ele>309.0</ele><time>2026-04-09T15:42:58.361Z</time></trkpt><trkpt lat="43.9391068" lon="7.8342092"><ele>309.0</ele><time>2026-04-09T15:42:59.362Z</time></trkpt><trkpt lat="43.9390023" lon="7.8344144"><ele>309.0</ele><time>2026-04-09T15:43:00.362Z</time></trkpt><trkpt lat="43.9389119" lon="7.8346407"><ele>315.6666666666667</ele><time>2026-04-09T15:43:01.362Z</time></trkpt><trkpt lat="43.9388467" lon="7.8348728"><ele>322.33333333333337</ele><time>2026-04-09T15:43:02.361Z</time></trkpt><trkpt lat="43.9387917" lon="7.8350971"><ele>329.0</ele><time>2026-04-09T15:43:03.362Z</time></trkpt><trkpt lat="43.9387076" lon="7.8352769"><ele>335.0</ele><time>2026-04-09T15:43:04.361Z</time></trkpt><trkpt lat="43.9385921" lon="7.8354362"><ele>341.0</ele><time>2026-04-09T15:43:05.362Z</time></trkpt><trkpt lat="43.9384415" lon="7.8355936"><ele>347.0</ele><time>2026-04-09T15:43:06.361Z</time></trkpt><trkpt lat="43.9382926" lon="7.8357609"><ele>342.0</ele><time>2026-04-09T15:43:07.362Z</time></trkpt><trkpt lat="43.9381451" lon="7.8359149"><ele>337.0</ele><time>2026-04-09T15:43:08.362Z</time></trkpt><trkpt lat="43.9379858" lon="7.8360381"><ele>332.0</ele><time>2026-04-09T15:43:09.362Z</time></trkpt><trkpt lat="43.9378006" lon="7.8361421"><ele>332.0</ele><time>2026-04-09T15:43:10.361Z</time></trkpt><trkpt lat="43.9376109" lon="7.8362488"><ele>332.0</ele><time>2026-04-09T15:43:11.361Z</time></trkpt><trkpt lat="43.9374314" lon="7.8363709"><ele>332.0</ele><time>2026-04-09T15:43:12.361Z</time></trkpt><trkpt lat="43.9372628" lon="7.8364901"><ele>333.33333333333337</ele><time>2026-04-09T15:43:13.362Z</time></trkpt><trkpt lat="43.9370963" lon="7.8366083"><ele>334.6666666666667</ele><time>2026-04-09T15:43:14.362Z</time></trkpt><trkpt lat="43.9369334" lon="7.8367118"><ele>336.0</ele><time>2026-04-09T15:43:15.362Z</time></trkpt><trkpt lat="43.9367907" lon="7.8368045"><ele>323.25</ele><time>2026-04-09T15:43:16.361Z</time></trkpt><trkpt lat="43.9366703" lon="7.8369074"><ele>310.5</ele><time>2026-04-09T15:43:17.361Z</time></trkpt><trkpt lat="43.9365882" lon="7.8370514"><ele>297.75</ele><time>2026-04-09T15:43:18.361Z</time></trkpt><trkpt lat="43.9365557" lon="7.8372381"><ele>285.0</ele><time>2026-04-09T15:43:19.361Z</time></trkpt><trkpt lat="43.9365593" lon="7.8374457"><ele>287.3333333333333</ele><time>2026-04-09T15:43:20.362Z</time></trkpt><trkpt lat="43.9365761" lon="7.837692"><ele>289.66666666666663</ele><time>2026-04-09T15:43:21.361Z</time></trkpt><trkpt lat="43.9365879" lon="7.8379507"><ele>292.0</ele><time>2026-04-09T15:43:22.362Z</time></trkpt><trkpt lat="43.936566" lon="7.8382132"><ele>293.3333333333333</ele><time>2026-04-09T15:43:23.361Z</time></trkpt><trkpt lat="43.936541" lon="7.8384929"><ele>294.6666666666667</ele><time>2026-04-09T15:43:24.362Z</time></trkpt><trkpt lat="43.9365036" lon="7.8387812"><ele>296.0</ele><time>2026-04-09T15:43:25.361Z</time></trkpt><trkpt lat="43.9364836" lon="7.8390581"><ele>298.6666666666667</ele><time>2026-04-09T15:43:26.362Z</time></trkpt><trkpt lat="43.9364491" lon="7.8393061"><ele>301.3333333333333</ele><time>2026-04-09T15:43:27.362Z</time></trkpt><trkpt lat="43.9363978" lon="7.8395414"><ele>304.0</ele><time>2026-04-09T15:43:28.361Z</time></trkpt><trkpt lat="43.9363273" lon="7.8397574"><ele>304.0</ele><time>2026-04-09T15:43:29.362Z</time></trkpt><trkpt lat="43.9362181" lon="7.8399252"><ele>304.0</ele><time>2026-04-09T15:43:30.362Z</time></trkpt><trkpt lat="43.9360934" lon="7.8400863"><ele>304.0</ele><time>2026-04-09T15:43:31.361Z</time></trkpt><trkpt lat="43.9359415" lon="7.8402244"><ele>302.66666666666663</ele><time>2026-04-09T15:43:32.361Z</time></trkpt><trkpt lat="43.9357579" lon="7.84034"><ele>301.3333333333333</ele><time>2026-04-09T15:43:33.361Z</time></trkpt><trkpt lat="43.9355604" lon="7.8404456"><ele>300.0</ele><time>2026-04-09T15:43:34.361Z</time></trkpt><trkpt lat="43.9353777" lon="7.8405432"><ele>300.0</ele><time>2026-04-09T15:43:35.362Z</time></trkpt><trkpt lat="43.9352095" lon="7.8405962"><ele>300.0</ele><time>2026-04-09T15:43:36.361Z</time></trkpt><trkpt lat="43.9350634" lon="7.8405828"><ele>300.0</ele><time>2026-04-09T15:43:37.362Z</time></trkpt><trkpt lat="43.9349259" lon="7.8405295"><ele>295.3333333333333</ele><time>2026-04-09T15:43:38.362Z</time></trkpt><trkpt lat="43.9347458" lon="7.8404611"><ele>290.66666666666663</ele><time>2026-04-09T15:43:39.361Z</time></trkpt><trkpt lat="43.934571" lon="7.8404034"><ele>286.0</ele><time>2026-04-09T15:43:40.361Z</time></trkpt><trkpt lat="43.9344039" lon="7.8403607"><ele>286.0</ele><time>2026-04-09T15:43:41.361Z</time></trkpt><trkpt lat="43.9342492" lon="7.8402945"><ele>286.0</ele><time>2026-04-09T15:43:42.362Z</time></trkpt><trkpt lat="43.9341155" lon="7.8402285"><ele>286.0</ele><time>2026-04-09T15:43:43.361Z</time></trkpt><trkpt lat="43.9339802" lon="7.8402009"><ele>286.0</ele><time>2026-04-09T15:43:44.361Z</time></trkpt><trkpt lat="43.9338494" lon="7.8402354"><ele>284.3333333333333</ele><time>2026-04-09T15:43:45.362Z</time></trkpt><trkpt lat="43.9337075" lon="7.8403425"><ele>282.6666666666667</ele><time>2026-04-09T15:43:46.361Z</time></trkpt><trkpt lat="43.9335537" lon="7.8404778"><ele>281.0</ele><time>2026-04-09T15:43:47.361Z</time></trkpt><trkpt lat="43.9334011" lon="7.8406005"><ele>275.0</ele><time>2026-04-09T15:43:48.362Z</time></trkpt><trkpt lat="43.9332404" lon="7.8407128"><ele>269.0</ele><time>2026-04-09T15:43:49.362Z</time></trkpt><trkpt lat="43.9330694" lon="7.8408038"><ele>263.0</ele><time>2026-04-09T15:43:50.361Z</time></trkpt><trkpt lat="43.9328777" lon="7.8408579"><ele>263.0</ele><time>2026-04-09T15:43:51.361Z</time></trkpt><trkpt lat="43.9326692" lon="7.8408845"><ele>263.0</ele><time>2026-04-09T15:43:52.362Z</time></trkpt><trkpt lat="43.9324624" lon="7.8409114"><ele>263.0</ele><time>2026-04-09T15:43:53.361Z</time></trkpt><trkpt lat="43.9322643" lon="7.8409356"><ele>267.33333333333337</ele><time>2026-04-09T15:43:54.362Z</time></trkpt><trkpt lat="43.9320781" lon="7.8409594"><ele>271.6666666666667</ele><time>2026-04-09T15:43:55.362Z</time></trkpt><trkpt lat="43.9319254" lon="7.841005"><ele>276.0</ele><time>2026-04-09T15:43:56.362Z</time></trkpt><trkpt lat="43.9317933" lon="7.8410979"><ele>266.0</ele><time>2026-04-09T15:43:57.361Z</time></trkpt><trkpt lat="43.9316729" lon="7.8412412"><ele>256.0</ele><time>2026-04-09T15:43:58.362Z</time></trkpt><trkpt lat="43.9315726" lon="7.8414313"><ele>246.0</ele><time>2026-04-09T15:43:59.361Z</time></trkpt><trkpt lat="43.9314805" lon="7.8416593"><ele>246.66666666666669</ele><time>2026-04-09T15:44:00.361Z</time></trkpt><trkpt lat="43.9313773" lon="7.8418908"><ele>247.33333333333334</ele><time>2026-04-09T15:44:01.362Z</time></trkpt><trkpt lat="43.9312787" lon="7.842119"><ele>248.0</ele><time>2026-04-09T15:44:02.361Z</time></trkpt><trkpt lat="43.9311756" lon="7.8423294"><ele>248.0</ele><time>2026-04-09T15:44:03.362Z</time></trkpt><trkpt lat="43.9310738" lon="7.8425161"><ele>248.0</ele><time>2026-04-09T15:44:04.362Z</time></trkpt><trkpt lat="43.9309911" lon="7.8426902"><ele>248.0</ele><time>2026-04-09T15:44:05.361Z</time></trkpt><trkpt lat="43.9309084" lon="7.842842"><ele>244.0</ele><time>2026-04-09T15:44:06.361Z</time></trkpt><trkpt lat="43.930827" lon="7.8429484"><ele>240.0</ele><time>2026-04-09T15:44:07.362Z</time></trkpt><trkpt lat="43.9307401" lon="7.843034"><ele>236.0</ele><time>2026-04-09T15:44:08.362Z</time></trkpt><trkpt lat="43.930629" lon="7.8431201"><ele>232.0</ele><time>2026-04-09T15:44:09.362Z</time></trkpt><trkpt lat="43.9305091" lon="7.8432188"><ele>232.0</ele><time>2026-04-09T15:44:10.361Z</time></trkpt><trkpt lat="43.9303895" lon="7.8433211"><ele>232.0</ele><time>2026-04-09T15:44:11.361Z</time></trkpt><trkpt lat="43.9302681" lon="7.8434032"><ele>232.0</ele><time>2026-04-09T15:44:12.361Z</time></trkpt><trkpt lat="43.930155" lon="7.8434578"><ele>232.0</ele><time>2026-04-09T15:44:13.362Z</time></trkpt><trkpt lat="43.9300545" lon="7.8434915"><ele>230.6</ele><time>2026-04-09T15:44:14.362Z</time></trkpt><trkpt lat="43.9299501" lon="7.8435012"><ele>229.2</ele><time>2026-04-09T15:44:15.362Z</time></trkpt><trkpt lat="43.9298412" lon="7.8434866"><ele>227.8</ele><time>2026-04-09T15:44:16.362Z</time></trkpt><trkpt lat="43.9297381" lon="7.8434385"><ele>226.4</ele><time>2026-04-09T15:44:17.361Z</time></trkpt><trkpt lat="43.9296564" lon="7.8433615"><ele>225.0</ele><time>2026-04-09T15:44:18.362Z</time></trkpt><trkpt lat="43.9295951" lon="7.8432686"><ele>225.0</ele><time>2026-04-09T15:44:19.361Z</time></trkpt><trkpt lat="43.9295425" lon="7.8431547"><ele>225.0</ele><time>2026-04-09T15:44:20.361Z</time></trkpt><trkpt lat="43.9295203" lon="7.8430249"><ele>225.0</ele><time>2026-04-09T15:44:21.361Z</time></trkpt><trkpt lat="43.9295058" lon="7.8428658"><ele>225.0</ele><time>2026-04-09T15:44:22.362Z</time></trkpt><trkpt lat="43.9294896" lon="7.8426764"><ele>225.0</ele><time>2026-04-09T15:44:23.362Z</time></trkpt><trkpt lat="43.9294683" lon="7.842475"><ele>224.33333333333331</ele><time>2026-04-09T15:44:24.361Z</time></trkpt><trkpt lat="43.9294428" lon="7.8422567"><ele>223.66666666666666</ele><time>2026-04-09T15:44:25.361Z</time></trkpt><trkpt lat="43.9294047" lon="7.842036"><ele>223.0</ele><time>2026-04-09T15:44:26.361Z</time></trkpt><trkpt lat="43.9293663" lon="7.8418258"><ele>225.0</ele><time>2026-04-09T15:44:27.361Z</time></trkpt><trkpt lat="43.9293242" lon="7.841622"><ele>227.0</ele><time>2026-04-09T15:44:28.362Z</time></trkpt><trkpt lat="43.9292663" lon="7.8414386"><ele>229.0</ele><time>2026-04-09T15:44:29.362Z</time></trkpt><trkpt lat="43.9291837" lon="7.8412701"><ele>231.0</ele><time>2026-04-09T15:44:30.361Z</time></trkpt><trkpt lat="43.9290804" lon="7.8411144"><ele>231.25</ele><time>2026-04-09T15:44:31.362Z</time></trkpt><trkpt lat="43.9289631" lon="7.8409831"><ele>231.5</ele><time>2026-04-09T15:44:32.362Z</time></trkpt><trkpt lat="43.9288372" lon="7.840882"><ele>231.75</ele><time>2026-04-09T15:44:33.361Z</time></trkpt><trkpt lat="43.9287045" lon="7.8408278"><ele>232.0</ele><time>2026-04-09T15:44:34.361Z</time></trkpt><trkpt lat="43.9285664" lon="7.8408447"><ele>232.0</ele><time>2026-04-09T15:44:35.361Z</time></trkpt><trkpt lat="43.9284065" lon="7.8409145"><ele>232.0</ele><time>2026-04-09T15:44:36.361Z</time></trkpt><trkpt lat="43.9282468" lon="7.8410584"><ele>232.0</ele><time>2026-04-09T15:44:37.361Z</time></trkpt><trkpt lat="43.9280918" lon="7.8412504"><ele>232.0</ele><time>2026-04-09T15:44:38.361Z</time></trkpt><trkpt lat="43.9279357" lon="7.8414593"><ele>232.0</ele><time>2026-04-09T15:44:39.362Z</time></trkpt><trkpt lat="43.9277613" lon="7.841652"><ele>232.0</ele><time>2026-04-09T15:44:40.362Z</time></trkpt><trkpt lat="43.9275916" lon="7.8418211"><ele>235.33333333333331</ele><time>2026-04-09T15:44:41.362Z</time></trkpt><trkpt lat="43.927435" lon="7.8419748"><ele>238.66666666666669</ele><time>2026-04-09T15:44:42.362Z</time></trkpt><trkpt lat="43.9272918" lon="7.8421153"><ele>242.0</ele><time>2026-04-09T15:44:43.362Z</time></trkpt><trkpt lat="43.9271624" lon="7.8422618"><ele>242.0</ele><time>2026-04-09T15:44:44.361Z</time></trkpt><trkpt lat="43.9270232" lon="7.8423924"><ele>242.0</ele><time>2026-04-09T15:44:45.362Z</time></trkpt><trkpt lat="43.9268695" lon="7.8425238"><ele>242.0</ele><time>2026-04-09T15:44:46.361Z</time></trkpt><trkpt lat="43.9267071" lon="7.8426497"><ele>244.0</ele><time>2026-04-09T15:44:47.361Z</time></trkpt><trkpt lat="43.9265395" lon="7.8427712"><ele>246.0</ele><time>2026-04-09T15:44:48.361Z</time></trkpt><trkpt lat="43.9263702" lon="7.8428961"><ele>248.0</ele><time>2026-04-09T15:44:49.361Z</time></trkpt><trkpt lat="43.9262021" lon="7.843017"><ele>248.0</ele><time>2026-04-09T15:44:50.361Z</time></trkpt><trkpt lat="43.9260357" lon="7.8431273"><ele>248.0</ele><time>2026-04-09T15:44:51.361Z</time></trkpt><trkpt lat="43.9258658" lon="7.8432172"><ele>248.0</ele><time>2026-04-09T15:44:52.362Z</time></trkpt><trkpt lat="43.9256833" lon="7.8432907"><ele>239.33333333333334</ele><time>2026-04-09T15:44:53.362Z</time></trkpt><trkpt lat="43.9254961" lon="7.8433532"><ele>230.66666666666669</ele><time>2026-04-09T15:44:54.361Z</time></trkpt><trkpt lat="43.9253038" lon="7.8434001"><ele>222.0</ele><time>2026-04-09T15:44:55.361Z</time></trkpt><trkpt lat="43.9251021" lon="7.8434209"><ele>217.66666666666669</ele><time>2026-04-09T15:44:56.362Z</time></trkpt><trkpt lat="43.9249007" lon="7.8434044"><ele>213.33333333333334</ele><time>2026-04-09T15:44:57.361Z</time></trkpt><trkpt lat="43.9247018" lon="7.843376"><ele>209.0</ele><time>2026-04-09T15:44:58.362Z</time></trkpt><trkpt lat="43.9245037" lon="7.8433511"><ele>209.0</ele><time>2026-04-09T15:44:59.361Z</time></trkpt><trkpt lat="43.9243095" lon="7.8433283"><ele>209.0</ele><time>2026-04-09T15:45:00.361Z</time></trkpt><trkpt lat="43.9241257" lon="7.843308"><ele>209.0</ele><time>2026-04-09T15:45:01.362Z</time></trkpt><trkpt lat="43.9239464" lon="7.8432894"><ele>207.0</ele><time>2026-04-09T15:45:02.362Z</time></trkpt><trkpt lat="43.9237848" lon="7.8432739"><ele>205.0</ele><time>2026-04-09T15:45:03.362Z</time></trkpt><trkpt lat="43.9236437" lon="7.8432633"><ele>203.0</ele><time>2026-04-09T15:45:04.362Z</time></trkpt><trkpt lat="43.9235262" lon="7.8432609"><ele>201.0</ele><time>2026-04-09T15:45:05.361Z</time></trkpt><trkpt lat="43.9234311" lon="7.8432529"><ele>202.20000000000002</ele><time>2026-04-09T15:45:06.361Z</time></trkpt><trkpt lat="43.9233484" lon="7.8432105"><ele>203.4</ele><time>2026-04-09T15:45:07.362Z</time></trkpt><trkpt lat="43.9232993" lon="7.8431175"><ele>204.6</ele><time>2026-04-09T15:45:08.361Z</time></trkpt><trkpt lat="43.9232622" lon="7.842997"><ele>205.8</ele><time>2026-04-09T15:45:09.361Z</time></trkpt><trkpt lat="43.9232152" lon="7.8428784"><ele>207.0</ele><time>2026-04-09T15:45:10.361Z</time></trkpt><trkpt lat="43.9231442" lon="7.8427613"><ele>207.0</ele><time>2026-04-09T15:45:11.361Z</time></trkpt><trkpt lat="43.9230576" lon="7.8426559"><ele>207.0</ele><time>2026-04-09T15:45:12.361Z</time></trkpt><trkpt lat="43.9229517" lon="7.8425798"><ele>207.0</ele><time>2026-04-09T15:45:13.361Z</time></trkpt><trkpt lat="43.922829" lon="7.8425145"><ele>207.0</ele><time>2026-04-09T15:45:14.362Z</time></trkpt><trkpt lat="43.9227017" lon="7.8424622"><ele>207.25</ele><time>2026-04-09T15:45:15.362Z</time></trkpt><trkpt lat="43.9225781" lon="7.8424134"><ele>207.5</ele><time>2026-04-09T15:45:16.361Z</time></trkpt><trkpt lat="43.9224554" lon="7.8423622"><ele>207.75</ele><time>2026-04-09T15:45:17.362Z</time></trkpt><trkpt lat="43.9223251" lon="7.8423228"><ele>208.0</ele><time>2026-04-09T15:45:18.362Z</time></trkpt><trkpt lat="43.9221914" lon="7.842289"><ele>208.0</ele><time>2026-04-09T15:45:19.361Z</time></trkpt><trkpt lat="43.9220601" lon="7.8422508"><ele>208.0</ele><time>2026-04-09T15:45:20.361Z</time></trkpt><trkpt lat="43.9219278" lon="7.8422256"><ele>208.0</ele><time>2026-04-09T15:45:21.362Z</time></trkpt><trkpt lat="43.9217962" lon="7.8422119"><ele>208.0</ele><time>2026-04-09T15:45:22.362Z</time></trkpt><trkpt lat="43.9216694" lon="7.8422156"><ele>206.25</ele><time>2026-04-09T15:45:23.361Z</time></trkpt><trkpt lat="43.9215436" lon="7.8422323"><ele>204.5</ele><time>2026-04-09T15:45:24.362Z</time></trkpt><trkpt lat="43.9214216" lon="7.8422844"><ele>202.75</ele><time>2026-04-09T15:45:25.361Z</time></trkpt><trkpt lat="43.9212971" lon="7.8423663"><ele>201.0</ele><time>2026-04-09T15:45:26.362Z</time></trkpt><trkpt lat="43.9211737" lon="7.8424526"><ele>201.0</ele><time>2026-04-09T15:45:27.361Z</time></trkpt><trkpt lat="43.9210638" lon="7.842524"><ele>201.0</ele><time>2026-04-09T15:45:28.361Z</time></trkpt><trkpt lat="43.9209703" lon="7.8425803"><ele>201.0</ele><time>2026-04-09T15:45:29.362Z</time></trkpt><trkpt lat="43.9209006" lon="7.8426314"><ele>201.0</ele><time>2026-04-09T15:45:30.362Z</time></trkpt><trkpt lat="43.9208316" lon="7.842686"><ele>201.0</ele><time>2026-04-09T15:45:31.361Z</time></trkpt><trkpt lat="43.9207592" lon="7.8427449"><ele>200.20000000000002</ele><time>2026-04-09T15:45:32.362Z</time></trkpt><trkpt lat="43.9206781" lon="7.8428141"><ele>199.4</ele><time>2026-04-09T15:45:33.362Z</time></trkpt><trkpt lat="43.920588" lon="7.8428881"><ele>198.6</ele><time>2026-04-09T15:45:34.362Z</time></trkpt><trkpt lat="43.9204999" lon="7.8429694"><ele>197.8</ele><time>2026-04-09T15:45:35.361Z</time></trkpt><trkpt lat="43.9204134" lon="7.8430565"><ele>197.0</ele><time>2026-04-09T15:45:36.361Z</time></trkpt><trkpt lat="43.920337" lon="7.8431555"><ele>197.0</ele><time>2026-04-09T15:45:37.361Z</time></trkpt><trkpt lat="43.9202805" lon="7.8432784"><ele>197.0</ele><time>2026-04-09T15:45:38.361Z</time></trkpt><trkpt lat="43.9202416" lon="7.843411"><ele>197.0</ele><time>2026-04-09T15:45:39.361Z</time></trkpt><trkpt lat="43.9202147" lon="7.8435615"><ele>197.0</ele><time>2026-04-09T15:45:40.361Z</time></trkpt><trkpt lat="43.9201978" lon="7.8437063"><ele>197.0</ele><time>2026-04-09T15:45:41.361Z</time></trkpt><trkpt lat="43.9201816" lon="7.8438392"><ele>197.39999999999998</ele><time>2026-04-09T15:45:42.362Z</time></trkpt><trkpt lat="43.9201672" lon="7.843953"><ele>197.79999999999998</ele><time>2026-04-09T15:45:43.361Z</time></trkpt><trkpt lat="43.9201512" lon="7.8440535"><ele>198.2</ele><time>2026-04-09T15:45:44.361Z</time></trkpt><trkpt lat="43.9201273" lon="7.8441711"><ele>198.6</ele><time>2026-04-09T15:45:45.361Z</time></trkpt><trkpt lat="43.9200946" lon="7.8443036"><ele>199.0</ele><time>2026-04-09T15:45:46.362Z</time></trkpt><trkpt lat="43.9200596" lon="7.8444449"><ele>198.0</ele><time>2026-04-09T15:45:47.362Z</time></trkpt><trkpt lat="43.920023" lon="7.8445845"><ele>197.0</ele><time>2026-04-09T15:45:48.362Z</time></trkpt><trkpt lat="43.9199787" lon="7.8447233"><ele>196.0</ele><time>2026-04-09T15:45:49.362Z</time></trkpt><trkpt lat="43.9199442" lon="7.8448503"><ele>195.0</ele><time>2026-04-09T15:45:50.361Z</time></trkpt><trkpt lat="43.9199067" lon="7.8449508"><ele>194.0</ele><time>2026-04-09T15:45:51.361Z</time></trkpt><trkpt lat="43.9198656" lon="7.8450472"><ele>195.25</ele><time>2026-04-09T15:45:52.361Z</time></trkpt><trkpt lat="43.9198097" lon="7.8451622"><ele>196.5</ele><time>2026-04-09T15:45:53.361Z</time></trkpt><trkpt lat="43.9197275" lon="7.8453118"><ele>197.75</ele><time>2026-04-09T15:45:54.361Z</time></trkpt><trkpt lat="43.9196216" lon="7.8454577"><ele>199.0</ele><time>2026-04-09T15:45:55.362Z</time></trkpt><trkpt lat="43.9194976" lon="7.8455962"><ele>199.0</ele><time>2026-04-09T15:45:56.362Z</time></trkpt><trkpt lat="43.9193664" lon="7.8457144"><ele>199.0</ele><time>2026-04-09T15:45:57.361Z</time></trkpt><trkpt lat="43.9192367" lon="7.8458246"><ele>199.0</ele><time>2026-04-09T15:45:58.361Z</time></trkpt><trkpt lat="43.9191057" lon="7.8459222"><ele>197.5</ele><time>2026-04-09T15:45:59.362Z</time></trkpt><trkpt lat="43.9189855" lon="7.8459828"><ele>196.0</ele><time>2026-04-09T15:46:00.361Z</time></trkpt><trkpt lat="43.9188671" lon="7.8460064"><ele>194.5</ele><time>2026-04-09T15:46:01.361Z</time></trkpt><trkpt lat="43.9187432" lon="7.8459685"><ele>193.0</ele><time>2026-04-09T15:46:02.362Z</time></trkpt><trkpt lat="43.9186288" lon="7.8458904"><ele>193.0</ele><time>2026-04-09T15:46:03.361Z</time></trkpt><trkpt lat="43.9185246" lon="7.8457629"><ele>193.0</ele><time>2026-04-09T15:46:04.361Z</time></trkpt><trkpt lat="43.9184249" lon="7.8456381"><ele>193.0</ele><time>2026-04-09T15:46:05.361Z</time></trkpt><trkpt lat="43.9183203" lon="7.845567"><ele>193.0</ele><time>2026-04-09T15:46:06.361Z</time></trkpt><trkpt lat="43.9182154" lon="7.8455516"><ele>193.5</ele><time>2026-04-09T15:46:07.362Z</time></trkpt><trkpt lat="43.9180912" lon="7.8455813"><ele>194.0</ele><time>2026-04-09T15:46:08.362Z</time></trkpt><trkpt lat="43.917977" lon="7.8456607"><ele>194.5</ele><time>2026-04-09T15:46:09.362Z</time></trkpt><trkpt lat="43.9178769" lon="7.845787"><ele>195.0</ele><time>2026-04-09T15:46:10.361Z</time></trkpt><trkpt lat="43.9177881" lon="7.8459516"><ele>192.75</ele><time>2026-04-09T15:46:11.362Z</time></trkpt><trkpt lat="43.9177113" lon="7.8460888"><ele>190.5</ele><time>2026-04-09T15:46:12.361Z</time></trkpt><trkpt lat="43.917649" lon="7.8462186"><ele>188.25</ele><time>2026-04-09T15:46:13.361Z</time></trkpt><trkpt lat="43.9175723" lon="7.846307"><ele>186.0</ele><time>2026-04-09T15:46:14.361Z</time></trkpt><trkpt lat="43.9174653" lon="7.8463848"><ele>186.0</ele><time>2026-04-09T15:46:15.362Z</time></trkpt><trkpt lat="43.9173395" lon="7.8464623"><ele>186.0</ele><time>2026-04-09T15:46:16.362Z</time></trkpt><trkpt lat="43.9172129" lon="7.846546"><ele>186.0</ele><time>2026-04-09T15:46:17.361Z</time></trkpt><trkpt lat="43.9170894" lon="7.8466249"><ele>186.0</ele><time>2026-04-09T15:46:18.361Z</time></trkpt><trkpt lat="43.916973" lon="7.8467077"><ele>186.0</ele><time>2026-04-09T15:46:19.362Z</time></trkpt><trkpt lat="43.9168696" lon="7.8467837"><ele>186.0</ele><time>2026-04-09T15:46:20.362Z</time></trkpt><trkpt lat="43.9167818" lon="7.8468554"><ele>186.0</ele><time>2026-04-09T15:46:21.362Z</time></trkpt><trkpt lat="43.9167238" lon="7.8469386"><ele>186.0</ele><time>2026-04-09T15:46:22.361Z</time></trkpt><trkpt lat="43.9166811" lon="7.8470342"><ele>186.0</ele><time>2026-04-09T15:46:23.362Z</time></trkpt><trkpt lat="43.9166657" lon="7.8471683"><ele>186.20000000000002</ele><time>2026-04-09T15:46:24.362Z</time></trkpt><trkpt lat="43.9166565" lon="7.847324"><ele>186.4</ele><time>2026-04-09T15:46:25.362Z</time></trkpt><trkpt lat="43.9166448" lon="7.8474688"><ele>186.6</ele><time>2026-04-09T15:46:26.362Z</time></trkpt><trkpt lat="43.9166321" lon="7.8475853"><ele>186.8</ele><time>2026-04-09T15:46:27.361Z</time></trkpt><trkpt lat="43.9165883" lon="7.8476724"><ele>187.0</ele><time>2026-04-09T15:46:28.361Z</time></trkpt><trkpt lat="43.9165109" lon="7.8477105"><ele>186.39999999999998</ele><time>2026-04-09T15:46:29.362Z</time></trkpt><trkpt lat="43.9164358" lon="7.8477372"><ele>185.79999999999998</ele><time>2026-04-09T15:46:30.362Z</time></trkpt><trkpt lat="43.9163133" lon="7.8477692"><ele>185.2</ele><time>2026-04-09T15:46:32.362Z</time></trkpt><trkpt lat="43.9162281" lon="7.8477748"><ele>184.6</ele><time>2026-04-09T15:46:33.361Z</time></trkpt><trkpt lat="43.9161176" lon="7.8477686"><ele>184.0</ele><time>2026-04-09T15:46:34.361Z</time></trkpt><trkpt lat="43.916021" lon="7.8477751"><ele>184.0</ele><time>2026-04-09T15:46:35.362Z</time></trkpt><trkpt lat="43.9159307" lon="7.8477504"><ele>184.0</ele><time>2026-04-09T15:46:36.361Z</time></trkpt><trkpt lat="43.9158354" lon="7.8477548"><ele>184.0</ele><time>2026-04-09T15:46:37.365Z</time></trkpt><trkpt lat="43.9157333" lon="7.8477689"><ele>184.0</ele><time>2026-04-09T15:46:38.365Z</time></trkpt><trkpt lat="43.9156284" lon="7.8478174"><ele>184.0</ele><time>2026-04-09T15:46:39.365Z</time></trkpt><trkpt lat="43.9155191" lon="7.847855"><ele>184.0</ele><time>2026-04-09T15:46:40.365Z</time></trkpt><trkpt lat="43.9154211" lon="7.8479135"><ele>184.0</ele><time>2026-04-09T15:46:41.365Z</time></trkpt><trkpt lat="43.9153288" lon="7.8479459"><ele>184.0</ele><time>2026-04-09T15:46:42.365Z</time></trkpt><trkpt lat="43.9152359" lon="7.8479669"><ele>184.0</ele><time>2026-04-09T15:46:43.365Z</time></trkpt><trkpt lat="43.9151448" lon="7.8479641"><ele>184.0</ele><time>2026-04-09T15:46:44.366Z</time></trkpt><trkpt lat="43.9150552" lon="7.8479532"><ele>184.0</ele><time>2026-04-09T15:46:45.365Z</time></trkpt><trkpt lat="43.9149618" lon="7.8479124"><ele>184.0</ele><time>2026-04-09T15:46:46.365Z</time></trkpt><trkpt lat="43.9148691" lon="7.847857"><ele>184.0</ele><time>2026-04-09T15:46:47.366Z</time></trkpt><trkpt lat="43.914774" lon="7.8477965"><ele>184.0</ele><time>2026-04-09T15:46:48.365Z</time></trkpt><trkpt lat="43.914683" lon="7.847729"><ele>184.0</ele><time>2026-04-09T15:46:49.365Z</time></trkpt><trkpt lat="43.9146077" lon="7.8476477"><ele>184.25</ele><time>2026-04-09T15:46:50.366Z</time></trkpt><trkpt lat="43.9145231" lon="7.8475429"><ele>184.5</ele><time>2026-04-09T15:46:51.365Z</time></trkpt><trkpt lat="43.9144588" lon="7.8474047"><ele>184.75</ele><time>2026-04-09T15:46:52.365Z</time></trkpt><trkpt lat="43.9143999" lon="7.8472665"><ele>185.0</ele><time>2026-04-09T15:46:53.366Z</time></trkpt><trkpt lat="43.9143527" lon="7.8471248"><ele>185.0</ele><time>2026-04-09T15:46:54.365Z</time></trkpt><trkpt lat="43.9143327" lon="7.8469668"><ele>185.0</ele><time>2026-04-09T15:46:55.365Z</time></trkpt><trkpt lat="43.9143373" lon="7.8468188"><ele>185.0</ele><time>2026-04-09T15:46:56.366Z</time></trkpt><trkpt lat="43.9143595" lon="7.8466572"><ele>185.0</ele><time>2026-04-09T15:46:57.365Z</time></trkpt><trkpt lat="43.9143668" lon="7.8464929"><ele>186.25</ele><time>2026-04-09T15:46:58.366Z</time></trkpt><trkpt lat="43.9143653" lon="7.8463237"><ele>187.5</ele><time>2026-04-09T15:46:59.366Z</time></trkpt><trkpt lat="43.9143534" lon="7.8461391"><ele>188.75</ele><time>2026-04-09T15:47:00.365Z</time></trkpt><trkpt lat="43.9143415" lon="7.8459553"><ele>190.0</ele><time>2026-04-09T15:47:01.366Z</time></trkpt><trkpt lat="43.9143386" lon="7.8457712"><ele>191.5</ele><time>2026-04-09T15:47:02.365Z</time></trkpt><trkpt lat="43.9143323" lon="7.8455862"><ele>193.0</ele><time>2026-04-09T15:47:03.366Z</time></trkpt><trkpt lat="43.9143075" lon="7.8454018"><ele>194.5</ele><time>2026-04-09T15:47:04.365Z</time></trkpt><trkpt lat="43.9142532" lon="7.8452191"><ele>196.0</ele><time>2026-04-09T15:47:05.366Z</time></trkpt><trkpt lat="43.9141881" lon="7.8450656"><ele>196.0</ele><time>2026-04-09T15:47:06.366Z</time></trkpt><trkpt lat="43.9140854" lon="7.8449332"><ele>196.0</ele><time>2026-04-09T15:47:07.365Z</time></trkpt><trkpt lat="43.9139359" lon="7.8448258"><ele>196.0</ele><time>2026-04-09T15:47:08.365Z</time></trkpt><trkpt lat="43.9137773" lon="7.8447588"><ele>196.0</ele><time>2026-04-09T15:47:09.365Z</time></trkpt><trkpt lat="43.9136177" lon="7.8446974"><ele>196.0</ele><time>2026-04-09T15:47:10.365Z</time></trkpt><trkpt lat="43.9134576" lon="7.844607"><ele>196.0</ele><time>2026-04-09T15:47:11.365Z</time></trkpt><trkpt lat="43.9132995" lon="7.8445197"><ele>188.33333333333331</ele><time>2026-04-09T15:47:12.365Z</time></trkpt><trkpt lat="43.9131348" lon="7.8444665"><ele>180.66666666666666</ele><time>2026-04-09T15:47:13.365Z</time></trkpt><trkpt lat="43.9129747" lon="7.8444213"><ele>173.0</ele><time>2026-04-09T15:47:14.365Z</time></trkpt><trkpt lat="43.9128201" lon="7.8443683"><ele>173.0</ele><time>2026-04-09T15:47:15.365Z</time></trkpt><trkpt lat="43.9126719" lon="7.8443011"><ele>173.0</ele><time>2026-04-09T15:47:16.366Z</time></trkpt><trkpt lat="43.9125131" lon="7.8442506"><ele>173.0</ele><time>2026-04-09T15:47:17.365Z</time></trkpt><trkpt lat="43.9123396" lon="7.8442394"><ele>173.0</ele><time>2026-04-09T15:47:18.366Z</time></trkpt><trkpt lat="43.9121627" lon="7.8442481"><ele>173.0</ele><time>2026-04-09T15:47:19.365Z</time></trkpt><trkpt lat="43.9119641" lon="7.8442872"><ele>173.0</ele><time>2026-04-09T15:47:20.365Z</time></trkpt><trkpt lat="43.9117663" lon="7.8443503"><ele>172.33333333333331</ele><time>2026-04-09T15:47:21.366Z</time></trkpt><trkpt lat="43.9115797" lon="7.8444372"><ele>171.66666666666666</ele><time>2026-04-09T15:47:22.366Z</time></trkpt><trkpt lat="43.9113932" lon="7.8445245"><ele>171.0</ele><time>2026-04-09T15:47:23.365Z</time></trkpt><trkpt lat="43.911198" lon="7.8445896"><ele>171.0</ele><time>2026-04-09T15:47:24.365Z</time></trkpt><trkpt lat="43.9109852" lon="7.8446201"><ele>171.0</ele><time>2026-04-09T15:47:25.366Z</time></trkpt><trkpt lat="43.9107648" lon="7.844644"><ele>171.0</ele><time>2026-04-09T15:47:26.365Z</time></trkpt><trkpt lat="43.9105621" lon="7.8446689"><ele>170.66666666666666</ele><time>2026-04-09T15:47:27.366Z</time></trkpt><trkpt lat="43.9103701" lon="7.8447108"><ele>170.33333333333331</ele><time>2026-04-09T15:47:28.366Z</time></trkpt><trkpt lat="43.9101892" lon="7.844745"><ele>170.0</ele><time>2026-04-09T15:47:29.366Z</time></trkpt><trkpt lat="43.9100189" lon="7.8447851"><ele>169.66666666666666</ele><time>2026-04-09T15:47:30.365Z</time></trkpt><trkpt lat="43.9098604" lon="7.8447623"><ele>169.33333333333334</ele><time>2026-04-09T15:47:31.366Z</time></trkpt><trkpt lat="43.9097124" lon="7.844685"><ele>169.0</ele><time>2026-04-09T15:47:32.366Z</time></trkpt><trkpt lat="43.9095676" lon="7.844578"><ele>169.0</ele><time>2026-04-09T15:47:33.365Z</time></trkpt><trkpt lat="43.9094349" lon="7.8444424"><ele>169.0</ele><time>2026-04-09T15:47:34.366Z</time></trkpt><trkpt lat="43.9093215" lon="7.8442528"><ele>169.0</ele><time>2026-04-09T15:47:35.366Z</time></trkpt><trkpt lat="43.9092059" lon="7.8440261"><ele>168.66666666666669</ele><time>2026-04-09T15:47:36.366Z</time></trkpt><trkpt lat="43.9090613" lon="7.8438097"><ele>168.33333333333334</ele><time>2026-04-09T15:47:37.365Z</time></trkpt><trkpt lat="43.9089228" lon="7.8436295"><ele>168.0</ele><time>2026-04-09T15:47:38.365Z</time></trkpt><trkpt lat="43.9087783" lon="7.8434923"><ele>172.0</ele><time>2026-04-09T15:47:39.365Z</time></trkpt><trkpt lat="43.9086254" lon="7.8434082"><ele>176.0</ele><time>2026-04-09T15:47:40.365Z</time></trkpt><trkpt lat="43.9084535" lon="7.8433537"><ele>180.0</ele><time>2026-04-09T15:47:41.366Z</time></trkpt><trkpt lat="43.9082925" lon="7.8433162"><ele>180.0</ele><time>2026-04-09T15:47:42.365Z</time></trkpt><trkpt lat="43.9081409" lon="7.8433028"><ele>180.0</ele><time>2026-04-09T15:47:43.366Z</time></trkpt><trkpt lat="43.9080142" lon="7.8433354"><ele>180.0</ele><time>2026-04-09T15:47:44.365Z</time></trkpt><trkpt lat="43.9078863" lon="7.8434041"><ele>180.0</ele><time>2026-04-09T15:47:45.365Z</time></trkpt><trkpt lat="43.9077658" lon="7.8435314"><ele>175.0</ele><time>2026-04-09T15:47:46.366Z</time></trkpt><trkpt lat="43.9076582" lon="7.8436849"><ele>170.0</ele><time>2026-04-09T15:47:47.366Z</time></trkpt><trkpt lat="43.9075469" lon="7.8438627"><ele>165.0</ele><time>2026-04-09T15:47:48.366Z</time></trkpt><trkpt lat="43.9074303" lon="7.844049"><ele>164.66666666666666</ele><time>2026-04-09T15:47:49.365Z</time></trkpt><trkpt lat="43.9073198" lon="7.8442227"><ele>164.33333333333331</ele><time>2026-04-09T15:47:50.365Z</time></trkpt><trkpt lat="43.9072196" lon="7.8443998"><ele>164.0</ele><time>2026-04-09T15:47:51.366Z</time></trkpt><trkpt lat="43.9071349" lon="7.8445733"><ele>164.0</ele><time>2026-04-09T15:47:52.366Z</time></trkpt><trkpt lat="43.9070616" lon="7.8447414"><ele>164.0</ele><time>2026-04-09T15:47:53.365Z</time></trkpt><trkpt lat="43.9069858" lon="7.8448979"><ele>164.0</ele><time>2026-04-09T15:47:54.366Z</time></trkpt><trkpt lat="43.906899" lon="7.8450539"><ele>164.0</ele><time>2026-04-09T15:47:55.366Z</time></trkpt><trkpt lat="43.906797" lon="7.8451916"><ele>166.0</ele><time>2026-04-09T15:47:56.365Z</time></trkpt><trkpt lat="43.9066778" lon="7.8452979"><ele>168.0</ele><time>2026-04-09T15:47:57.366Z</time></trkpt><trkpt lat="43.9065461" lon="7.8453756"><ele>170.0</ele><time>2026-04-09T15:47:58.366Z</time></trkpt><trkpt lat="43.9064068" lon="7.8454226"><ele>172.0</ele><time>2026-04-09T15:47:59.366Z</time></trkpt><trkpt lat="43.9062714" lon="7.8454498"><ele>172.0</ele><time>2026-04-09T15:48:00.366Z</time></trkpt><trkpt lat="43.9061378" lon="7.8454475"><ele>172.0</ele><time>2026-04-09T15:48:01.365Z</time></trkpt><trkpt lat="43.9060113" lon="7.8454207"><ele>172.0</ele><time>2026-04-09T15:48:02.366Z</time></trkpt><trkpt lat="43.9058942" lon="7.8453733"><ele>172.0</ele><time>2026-04-09T15:48:03.366Z</time></trkpt><trkpt lat="43.905781" lon="7.8453085"><ele>169.75</ele><time>2026-04-09T15:48:04.366Z</time></trkpt><trkpt lat="43.9056761" lon="7.8452065"><ele>167.5</ele><time>2026-04-09T15:48:05.366Z</time></trkpt><trkpt lat="43.905583" lon="7.8450657"><ele>165.25</ele><time>2026-04-09T15:48:06.365Z</time></trkpt><trkpt lat="43.9054889" lon="7.8449108"><ele>163.0</ele><time>2026-04-09T15:48:07.365Z</time></trkpt><trkpt lat="43.9054049" lon="7.8447567"><ele>162.0</ele><time>2026-04-09T15:48:08.365Z</time></trkpt><trkpt lat="43.9053441" lon="7.8445943"><ele>161.0</ele><time>2026-04-09T15:48:09.365Z</time></trkpt><trkpt lat="43.9053136" lon="7.8444176"><ele>160.0</ele><time>2026-04-09T15:48:10.366Z</time></trkpt><trkpt lat="43.9053066" lon="7.8442181"><ele>159.0</ele><time>2026-04-09T15:48:11.365Z</time></trkpt><trkpt lat="43.9053195" lon="7.8440147"><ele>159.0</ele><time>2026-04-09T15:48:12.365Z</time></trkpt><trkpt lat="43.9053255" lon="7.8437825"><ele>159.0</ele><time>2026-04-09T15:48:13.365Z</time></trkpt><trkpt lat="43.905331" lon="7.8435139"><ele>159.0</ele><time>2026-04-09T15:48:14.365Z</time></trkpt><trkpt lat="43.9053462" lon="7.8432359"><ele>159.33333333333334</ele><time>2026-04-09T15:48:15.366Z</time></trkpt><trkpt lat="43.9053643" lon="7.8429757"><ele>159.66666666666669</ele><time>2026-04-09T15:48:16.365Z</time></trkpt><trkpt lat="43.9053882" lon="7.8427407"><ele>160.0</ele><time>2026-04-09T15:48:17.365Z</time></trkpt><trkpt lat="43.9054168" lon="7.8425372"><ele>159.25</ele><time>2026-04-09T15:48:18.365Z</time></trkpt><trkpt lat="43.9054468" lon="7.8423496"><ele>158.5</ele><time>2026-04-09T15:48:19.365Z</time></trkpt><trkpt lat="43.9054745" lon="7.8421551"><ele>157.75</ele><time>2026-04-09T15:48:20.366Z</time></trkpt><trkpt lat="43.9055026" lon="7.8419599"><ele>157.0</ele><time>2026-04-09T15:48:21.366Z</time></trkpt><trkpt lat="43.9055273" lon="7.841752"><ele>157.0</ele><time>2026-04-09T15:48:22.366Z</time></trkpt><trkpt lat="43.9055628" lon="7.8415328"><ele>157.0</ele><time>2026-04-09T15:48:23.366Z</time></trkpt><trkpt lat="43.9055943" lon="7.8413044"><ele>157.0</ele><time>2026-04-09T15:48:24.365Z</time></trkpt><trkpt lat="43.9056197" lon="7.8410726"><ele>156.66666666666669</ele><time>2026-04-09T15:48:25.366Z</time></trkpt><trkpt lat="43.9056429" lon="7.8408366"><ele>156.33333333333334</ele><time>2026-04-09T15:48:26.365Z</time></trkpt><trkpt lat="43.9056403" lon="7.8406011"><ele>156.0</ele><time>2026-04-09T15:48:27.366Z</time></trkpt><trkpt lat="43.9055984" lon="7.8403711"><ele>161.0</ele><time>2026-04-09T15:48:28.366Z</time></trkpt><trkpt lat="43.905508" lon="7.8401288"><ele>166.0</ele><time>2026-04-09T15:48:29.365Z</time></trkpt><trkpt lat="43.9053897" lon="7.839893"><ele>171.0</ele><time>2026-04-09T15:48:30.365Z</time></trkpt><trkpt lat="43.9052491" lon="7.8396871"><ele>171.0</ele><time>2026-04-09T15:48:31.366Z</time></trkpt><trkpt lat="43.9050852" lon="7.8395155"><ele>171.0</ele><time>2026-04-09T15:48:32.365Z</time></trkpt><trkpt lat="43.9049098" lon="7.8393889"><ele>171.0</ele><time>2026-04-09T15:48:33.365Z</time></trkpt><trkpt lat="43.9047325" lon="7.8393241"><ele>163.0</ele><time>2026-04-09T15:48:34.366Z</time></trkpt><trkpt lat="43.9045447" lon="7.8393052"><ele>155.0</ele><time>2026-04-09T15:48:35.366Z</time></trkpt><trkpt lat="43.9043506" lon="7.8393313"><ele>147.0</ele><time>2026-04-09T15:48:36.366Z</time></trkpt><trkpt lat="43.9041592" lon="7.839364"><ele>147.0</ele><time>2026-04-09T15:48:37.366Z</time></trkpt><trkpt lat="43.9039769" lon="7.8393902"><ele>147.0</ele><time>2026-04-09T15:48:38.365Z</time></trkpt><trkpt lat="43.9038083" lon="7.8394541"><ele>147.0</ele><time>2026-04-09T15:48:39.365Z</time></trkpt><trkpt lat="43.9036526" lon="7.8395631"><ele>147.0</ele><time>2026-04-09T15:48:40.366Z</time></trkpt><trkpt lat="43.9035053" lon="7.8396778"><ele>147.0</ele><time>2026-04-09T15:48:41.365Z</time></trkpt><trkpt lat="43.9033672" lon="7.8397777"><ele>147.0</ele><time>2026-04-09T15:48:42.365Z</time></trkpt><trkpt lat="43.9032357" lon="7.8398692"><ele>146.5</ele><time>2026-04-09T15:48:43.366Z</time></trkpt><trkpt lat="43.9031073" lon="7.8399643"><ele>146.0</ele><time>2026-04-09T15:48:44.365Z</time></trkpt><trkpt lat="43.903004" lon="7.8400607"><ele>145.5</ele><time>2026-04-09T15:48:45.365Z</time></trkpt><trkpt lat="43.902908" lon="7.8402016"><ele>145.0</ele><time>2026-04-09T15:48:46.365Z</time></trkpt><trkpt lat="43.9028193" lon="7.8403771"><ele>144.0</ele><time>2026-04-09T15:48:47.365Z</time></trkpt><trkpt lat="43.9027183" lon="7.8405705"><ele>143.0</ele><time>2026-04-09T15:48:48.365Z</time></trkpt><trkpt lat="43.9026091" lon="7.8407771"><ele>142.0</ele><time>2026-04-09T15:48:49.366Z</time></trkpt><trkpt lat="43.9024928" lon="7.84101"><ele>140.66666666666669</ele><time>2026-04-09T15:48:50.367Z</time></trkpt><trkpt lat="43.902371" lon="7.8412465"><ele>139.33333333333334</ele><time>2026-04-09T15:48:51.366Z</time></trkpt><trkpt lat="43.9022363" lon="7.8414663"><ele>138.0</ele><time>2026-04-09T15:48:52.367Z</time></trkpt><trkpt lat="43.9020861" lon="7.84169"><ele>138.33333333333334</ele><time>2026-04-09T15:48:53.366Z</time></trkpt><trkpt lat="43.9019338" lon="7.8419162"><ele>138.66666666666669</ele><time>2026-04-09T15:48:54.367Z</time></trkpt><trkpt lat="43.9017883" lon="7.842138"><ele>139.0</ele><time>2026-04-09T15:48:55.367Z</time></trkpt><trkpt lat="43.9016556" lon="7.8423555"><ele>138.66666666666669</ele><time>2026-04-09T15:48:56.367Z</time></trkpt><trkpt lat="43.9015272" lon="7.8425547"><ele>138.33333333333334</ele><time>2026-04-09T15:48:57.366Z</time></trkpt><trkpt lat="43.9013941" lon="7.842733"><ele>138.0</ele><time>2026-04-09T15:48:58.366Z</time></trkpt><trkpt lat="43.901257" lon="7.8428868"><ele>138.0</ele><time>2026-04-09T15:48:59.366Z</time></trkpt><trkpt lat="43.9011072" lon="7.8429888"><ele>138.0</ele><time>2026-04-09T15:49:00.366Z</time></trkpt><trkpt lat="43.9009354" lon="7.8430426"><ele>138.0</ele><time>2026-04-09T15:49:01.366Z</time></trkpt><trkpt lat="43.9007556" lon="7.8430434"><ele>138.25</ele><time>2026-04-09T15:49:02.366Z</time></trkpt><trkpt lat="43.9005898" lon="7.8430375"><ele>138.5</ele><time>2026-04-09T15:49:03.367Z</time></trkpt><trkpt lat="43.9004447" lon="7.843033"><ele>138.75</ele><time>2026-04-09T15:49:04.366Z</time></trkpt><trkpt lat="43.9003301" lon="7.8429883"><ele>139.0</ele><time>2026-04-09T15:49:05.367Z</time></trkpt><trkpt lat="43.9002494" lon="7.8428713"><ele>139.0</ele><time>2026-04-09T15:49:06.367Z</time></trkpt><trkpt lat="43.9001886" lon="7.8427111"><ele>139.0</ele><time>2026-04-09T15:49:07.366Z</time></trkpt><trkpt lat="43.9001583" lon="7.8425105"><ele>139.0</ele><time>2026-04-09T15:49:08.366Z</time></trkpt><trkpt lat="43.9001193" lon="7.8423073"><ele>139.0</ele><time>2026-04-09T15:49:09.367Z</time></trkpt><trkpt lat="43.9000603" lon="7.8421336"><ele>139.66666666666669</ele><time>2026-04-09T15:49:10.367Z</time></trkpt><trkpt lat="43.8999578" lon="7.8419771"><ele>140.33333333333334</ele><time>2026-04-09T15:49:11.366Z</time></trkpt><trkpt lat="43.8998053" lon="7.8418447"><ele>141.0</ele><time>2026-04-09T15:49:12.366Z</time></trkpt><trkpt lat="43.8996461" lon="7.8417287"><ele>142.0</ele><time>2026-04-09T15:49:13.366Z</time></trkpt><trkpt lat="43.8995116" lon="7.8416445"><ele>143.0</ele><time>2026-04-09T15:49:14.366Z</time></trkpt><trkpt lat="43.8994121" lon="7.8416144"><ele>144.0</ele><time>2026-04-09T15:49:15.367Z</time></trkpt><trkpt lat="43.8993288" lon="7.8416411"><ele>145.0</ele><time>2026-04-09T15:49:16.367Z</time></trkpt><trkpt lat="43.8992205" lon="7.8417234"><ele>142.33333333333334</ele><time>2026-04-09T15:49:17.366Z</time></trkpt><trkpt lat="43.8990936" lon="7.8418515"><ele>139.66666666666666</ele><time>2026-04-09T15:49:18.366Z</time></trkpt><trkpt lat="43.8989455" lon="7.842002"><ele>137.0</ele><time>2026-04-09T15:49:19.366Z</time></trkpt><trkpt lat="43.8987955" lon="7.8421425"><ele>137.0</ele><time>2026-04-09T15:49:20.366Z</time></trkpt><trkpt lat="43.8986626" lon="7.8422596"><ele>137.0</ele><time>2026-04-09T15:49:21.366Z</time></trkpt><trkpt lat="43.8985385" lon="7.8423403"><ele>137.0</ele><time>2026-04-09T15:49:22.367Z</time></trkpt><trkpt lat="43.898414" lon="7.8423611"><ele>137.0</ele><time>2026-04-09T15:49:23.367Z</time></trkpt><trkpt lat="43.8982674" lon="7.8423268"><ele>137.33333333333331</ele><time>2026-04-09T15:49:24.366Z</time></trkpt><trkpt lat="43.8981133" lon="7.8422432"><ele>137.66666666666666</ele><time>2026-04-09T15:49:25.367Z</time></trkpt><trkpt lat="43.897936" lon="7.8421794"><ele>138.0</ele><time>2026-04-09T15:49:26.366Z</time></trkpt><trkpt lat="43.8977467" lon="7.8421457"><ele>137.33333333333334</ele><time>2026-04-09T15:49:27.366Z</time></trkpt><trkpt lat="43.8975381" lon="7.8421466"><ele>136.66666666666669</ele><time>2026-04-09T15:49:28.367Z</time></trkpt><trkpt lat="43.8973282" lon="7.8421785"><ele>136.0</ele><time>2026-04-09T15:49:29.366Z</time></trkpt><trkpt lat="43.8971116" lon="7.8422198"><ele>136.0</ele><time>2026-04-09T15:49:30.367Z</time></trkpt><trkpt lat="43.8969042" lon="7.8422477"><ele>136.0</ele><time>2026-04-09T15:49:31.366Z</time></trkpt><trkpt lat="43.8967244" lon="7.8422942"><ele>136.0</ele><time>2026-04-09T15:49:32.367Z</time></trkpt><trkpt lat="43.8965669" lon="7.8423574"><ele>137.66666666666669</ele><time>2026-04-09T15:49:33.366Z</time></trkpt><trkpt lat="43.8964323" lon="7.8424792"><ele>139.33333333333334</ele><time>2026-04-09T15:49:34.366Z</time></trkpt><trkpt lat="43.8963287" lon="7.8426441"><ele>141.0</ele><time>2026-04-09T15:49:35.367Z</time></trkpt><trkpt lat="43.8962565" lon="7.8428609"><ele>137.0</ele><time>2026-04-09T15:49:36.366Z</time></trkpt><trkpt lat="43.8961885" lon="7.8430804"><ele>133.0</ele><time>2026-04-09T15:49:37.366Z</time></trkpt><trkpt lat="43.8960798" lon="7.8432884"><ele>129.0</ele><time>2026-04-09T15:49:38.367Z</time></trkpt><trkpt lat="43.8959398" lon="7.8434661"><ele>129.66666666666666</ele><time>2026-04-09T15:49:39.366Z</time></trkpt><trkpt lat="43.8957858" lon="7.8436573"><ele>130.33333333333331</ele><time>2026-04-09T15:49:40.367Z</time></trkpt><trkpt lat="43.895635" lon="7.8438528"><ele>131.0</ele><time>2026-04-09T15:49:41.366Z</time></trkpt><trkpt lat="43.8954832" lon="7.8440258"><ele>131.0</ele><time>2026-04-09T15:49:42.367Z</time></trkpt><trkpt lat="43.8953159" lon="7.8441637"><ele>131.0</ele><time>2026-04-09T15:49:43.366Z</time></trkpt><trkpt lat="43.8951489" lon="7.8442472"><ele>131.0</ele><time>2026-04-09T15:49:44.366Z</time></trkpt><trkpt lat="43.8949962" lon="7.8442764"><ele>134.33333333333331</ele><time>2026-04-09T15:49:45.366Z</time></trkpt><trkpt lat="43.8948487" lon="7.8442484"><ele>137.66666666666666</ele><time>2026-04-09T15:49:46.367Z</time></trkpt><trkpt lat="43.8946923" lon="7.8441718"><ele>141.0</ele><time>2026-04-09T15:49:47.367Z</time></trkpt><trkpt lat="43.8945248" lon="7.8440572"><ele>141.0</ele><time>2026-04-09T15:49:48.367Z</time></trkpt><trkpt lat="43.8943557" lon="7.8439221"><ele>141.0</ele><time>2026-04-09T15:49:49.366Z</time></trkpt><trkpt lat="43.8942021" lon="7.8437508"><ele>141.0</ele><time>2026-04-09T15:49:50.366Z</time></trkpt><trkpt lat="43.8940626" lon="7.8435535"><ele>144.0</ele><time>2026-04-09T15:49:51.366Z</time></trkpt><trkpt lat="43.8939448" lon="7.8433603"><ele>147.0</ele><time>2026-04-09T15:49:52.367Z</time></trkpt><trkpt lat="43.8938461" lon="7.8431877"><ele>150.0</ele><time>2026-04-09T15:49:53.366Z</time></trkpt><trkpt lat="43.8937349" lon="7.8430615"><ele>150.0</ele><time>2026-04-09T15:49:54.366Z</time></trkpt><trkpt lat="43.8935914" lon="7.8429949"><ele>150.0</ele><time>2026-04-09T15:49:55.366Z</time></trkpt><trkpt lat="43.893432" lon="7.842986"><ele>150.0</ele><time>2026-04-09T15:49:56.366Z</time></trkpt><trkpt lat="43.8932641" lon="7.8430335"><ele>144.33333333333334</ele><time>2026-04-09T15:49:57.367Z</time></trkpt><trkpt lat="43.893107" lon="7.8431232"><ele>138.66666666666669</ele><time>2026-04-09T15:49:58.366Z</time></trkpt><trkpt lat="43.8929455" lon="7.8432545"><ele>133.0</ele><time>2026-04-09T15:49:59.366Z</time></trkpt><trkpt lat="43.8927981" lon="7.8434006"><ele>132.33333333333334</ele><time>2026-04-09T15:50:00.366Z</time></trkpt><trkpt lat="43.8926767" lon="7.8435415"><ele>131.66666666666666</ele><time>2026-04-09T15:50:01.367Z</time></trkpt><trkpt lat="43.8925879" lon="7.8437252"><ele>131.0</ele><time>2026-04-09T15:50:02.367Z</time></trkpt><trkpt lat="43.8925384" lon="7.8439231"><ele>131.0</ele><time>2026-04-09T15:50:03.366Z</time></trkpt><trkpt lat="43.8924958" lon="7.8441209"><ele>131.0</ele><time>2026-04-09T15:50:04.367Z</time></trkpt><trkpt lat="43.8924481" lon="7.844297"><ele>131.0</ele><time>2026-04-09T15:50:05.366Z</time></trkpt><trkpt lat="43.8923983" lon="7.8444384"><ele>131.0</ele><time>2026-04-09T15:50:06.366Z</time></trkpt><trkpt lat="43.8923129" lon="7.8445321"><ele>131.0</ele><time>2026-04-09T15:50:07.366Z</time></trkpt><trkpt lat="43.8922201" lon="7.8445707"><ele>131.0</ele><time>2026-04-09T15:50:08.366Z</time></trkpt><trkpt lat="43.8921344" lon="7.8445484"><ele>131.0</ele><time>2026-04-09T15:50:09.367Z</time></trkpt><trkpt lat="43.8920583" lon="7.8444579"><ele>131.0</ele><time>2026-04-09T15:50:10.367Z</time></trkpt><trkpt lat="43.8920192" lon="7.8443059"><ele>131.0</ele><time>2026-04-09T15:50:11.366Z</time></trkpt><trkpt lat="43.8919932" lon="7.8441163"><ele>131.0</ele><time>2026-04-09T15:50:12.366Z</time></trkpt><trkpt lat="43.8919556" lon="7.8438878"><ele>131.0</ele><time>2026-04-09T15:50:13.367Z</time></trkpt><trkpt lat="43.8918868" lon="7.8436523"><ele>131.0</ele><time>2026-04-09T15:50:14.367Z</time></trkpt><trkpt lat="43.8917905" lon="7.8434124"><ele>130.66666666666666</ele><time>2026-04-09T15:50:15.366Z</time></trkpt><trkpt lat="43.8916508" lon="7.8431796"><ele>130.33333333333334</ele><time>2026-04-09T15:50:16.367Z</time></trkpt><trkpt lat="43.8914961" lon="7.8429948"><ele>130.0</ele><time>2026-04-09T15:50:17.366Z</time></trkpt><trkpt lat="43.8913169" lon="7.842848"><ele>130.0</ele><time>2026-04-09T15:50:18.366Z</time></trkpt><trkpt lat="43.8911082" lon="7.8427269"><ele>130.0</ele><time>2026-04-09T15:50:19.367Z</time></trkpt><trkpt lat="43.8908867" lon="7.8426294"><ele>132.33333333333334</ele><time>2026-04-09T15:50:20.367Z</time></trkpt><trkpt lat="43.8906948" lon="7.8425314"><ele>134.66666666666666</ele><time>2026-04-09T15:50:21.367Z</time></trkpt><trkpt lat="43.8905152" lon="7.8424887"><ele>137.0</ele><time>2026-04-09T15:50:22.367Z</time></trkpt><trkpt lat="43.8903289" lon="7.8425045"><ele>137.0</ele><time>2026-04-09T15:50:23.367Z</time></trkpt><trkpt lat="43.8901187" lon="7.8425649"><ele>137.0</ele><time>2026-04-09T15:50:24.366Z</time></trkpt><trkpt lat="43.8899069" lon="7.8426182"><ele>137.0</ele><time>2026-04-09T15:50:25.367Z</time></trkpt><trkpt lat="43.8897004" lon="7.8426476"><ele>129.5</ele><time>2026-04-09T15:50:26.366Z</time></trkpt><trkpt lat="43.8895267" lon="7.8426532"><ele>122.0</ele><time>2026-04-09T15:50:27.366Z</time></trkpt><trkpt lat="43.8893962" lon="7.8426345"><ele>114.5</ele><time>2026-04-09T15:50:28.367Z</time></trkpt><trkpt lat="43.8892981" lon="7.842666"><ele>107.0</ele><time>2026-04-09T15:50:29.367Z</time></trkpt><trkpt lat="43.8892217" lon="7.8427528"><ele>107.0</ele><time>2026-04-09T15:50:30.367Z</time></trkpt><trkpt lat="43.8891673" lon="7.8428963"><ele>107.0</ele><time>2026-04-09T15:50:31.367Z</time></trkpt><trkpt lat="43.88914" lon="7.8430689"><ele>107.0</ele><time>2026-04-09T15:50:32.367Z</time></trkpt><trkpt lat="43.8890746" lon="7.84324"><ele>107.0</ele><time>2026-04-09T15:50:33.366Z</time></trkpt><trkpt lat="43.8889227" lon="7.8434167"><ele>101.33333333333333</ele><time>2026-04-09T15:50:34.367Z</time></trkpt><trkpt lat="43.888765" lon="7.8436241"><ele>95.66666666666666</ele><time>2026-04-09T15:50:35.367Z</time></trkpt><trkpt lat="43.888617" lon="7.8438339"><ele>90.0</ele><time>2026-04-09T15:50:36.367Z</time></trkpt><trkpt lat="43.8884691" lon="7.844037"><ele>90.66666666666667</ele><time>2026-04-09T15:50:37.366Z</time></trkpt><trkpt lat="43.8883165" lon="7.8442503"><ele>91.33333333333334</ele><time>2026-04-09T15:50:38.367Z</time></trkpt><trkpt lat="43.8881707" lon="7.8444498"><ele>92.0</ele><time>2026-04-09T15:50:39.367Z</time></trkpt><trkpt lat="43.8880299" lon="7.8446393"><ele>92.0</ele><time>2026-04-09T15:50:40.366Z</time></trkpt><trkpt lat="43.8878967" lon="7.8448143"><ele>92.0</ele><time>2026-04-09T15:50:41.367Z</time></trkpt><trkpt lat="43.8877783" lon="7.8449787"><ele>92.0</ele><time>2026-04-09T15:50:42.366Z</time></trkpt><trkpt lat="43.8876602" lon="7.8451398"><ele>91.66666666666667</ele><time>2026-04-09T15:50:43.366Z</time></trkpt><trkpt lat="43.8875349" lon="7.8452786"><ele>91.33333333333333</ele><time>2026-04-09T15:50:44.367Z</time></trkpt><trkpt lat="43.8873803" lon="7.8453889"><ele>91.0</ele><time>2026-04-09T15:50:45.366Z</time></trkpt><trkpt lat="43.8871986" lon="7.8454734"><ele>91.0</ele><time>2026-04-09T15:50:46.366Z</time></trkpt><trkpt lat="43.8870171" lon="7.845541"><ele>91.0</ele><time>2026-04-09T15:50:47.367Z</time></trkpt><trkpt lat="43.8868376" lon="7.8455754"><ele>91.0</ele><time>2026-04-09T15:50:48.366Z</time></trkpt><trkpt lat="43.8866526" lon="7.8455283"><ele>91.0</ele><time>2026-04-09T15:50:49.366Z</time></trkpt><trkpt lat="43.8864762" lon="7.8454722"><ele>91.0</ele><time>2026-04-09T15:50:50.367Z</time></trkpt><trkpt lat="43.8863115" lon="7.8453739"><ele>91.0</ele><time>2026-04-09T15:50:51.367Z</time></trkpt><trkpt lat="43.8861498" lon="7.8452276"><ele>92.33333333333333</ele><time>2026-04-09T15:50:52.367Z</time></trkpt><trkpt lat="43.8859929" lon="7.8450435"><ele>93.66666666666667</ele><time>2026-04-09T15:50:53.367Z</time></trkpt><trkpt lat="43.8858515" lon="7.8448532"><ele>95.0</ele><time>2026-04-09T15:50:54.366Z</time></trkpt><trkpt lat="43.8857502" lon="7.84465"><ele>95.0</ele><time>2026-04-09T15:50:55.367Z</time></trkpt><trkpt lat="43.8856758" lon="7.8444313"><ele>95.0</ele><time>2026-04-09T15:50:56.366Z</time></trkpt><trkpt lat="43.8856345" lon="7.8442253"><ele>95.0</ele><time>2026-04-09T15:50:57.366Z</time></trkpt><trkpt lat="43.8856065" lon="7.8440422"><ele>97.2</ele><time>2026-04-09T15:50:58.366Z</time></trkpt><trkpt lat="43.8855621" lon="7.8438909"><ele>99.4</ele><time>2026-04-09T15:50:59.367Z</time></trkpt><trkpt lat="43.8854828" lon="7.8438064"><ele>101.6</ele><time>2026-04-09T15:51:00.366Z</time></trkpt><trkpt lat="43.8853948" lon="7.8437767"><ele>103.8</ele><time>2026-04-09T15:51:01.367Z</time></trkpt><trkpt lat="43.8852945" lon="7.8437847"><ele>106.0</ele><time>2026-04-09T15:51:02.367Z</time></trkpt><trkpt lat="43.8851919" lon="7.8438072"><ele>106.0</ele><time>2026-04-09T15:51:03.367Z</time></trkpt><trkpt lat="43.885096" lon="7.8438007"><ele>106.0</ele><time>2026-04-09T15:51:04.366Z</time></trkpt><trkpt lat="43.8850179" lon="7.8436951"><ele>106.0</ele><time>2026-04-09T15:51:05.366Z</time></trkpt><trkpt lat="43.8849505" lon="7.8435446"><ele>106.0</ele><time>2026-04-09T15:51:06.366Z</time></trkpt><trkpt lat="43.8848926" lon="7.8433597"><ele>101.0</ele><time>2026-04-09T15:51:07.367Z</time></trkpt><trkpt lat="43.8848113" lon="7.8431848"><ele>96.0</ele><time>2026-04-09T15:51:08.367Z</time></trkpt><trkpt lat="43.8846944" lon="7.843047"><ele>91.0</ele><time>2026-04-09T15:51:09.366Z</time></trkpt><trkpt lat="43.8845582" lon="7.8429747"><ele>86.0</ele><time>2026-04-09T15:51:10.367Z</time></trkpt><trkpt lat="43.8844382" lon="7.8429888"><ele>86.0</ele><time>2026-04-09T15:51:11.367Z</time></trkpt><trkpt lat="43.8843149" lon="7.843078"><ele>86.0</ele><time>2026-04-09T15:51:12.366Z</time></trkpt><trkpt lat="43.8841903" lon="7.8432407"><ele>86.0</ele><time>2026-04-09T15:51:13.367Z</time></trkpt><trkpt lat="43.8840655" lon="7.8434396"><ele>91.33333333333334</ele><time>2026-04-09T15:51:14.366Z</time></trkpt><trkpt lat="43.8839367" lon="7.8436628"><ele>96.66666666666667</ele><time>2026-04-09T15:51:15.367Z</time></trkpt><trkpt lat="43.8837956" lon="7.8439016"><ele>102.0</ele><time>2026-04-09T15:51:16.366Z</time></trkpt><trkpt lat="43.8836628" lon="7.8441297"><ele>90.5</ele><time>2026-04-09T15:51:17.367Z</time></trkpt><trkpt lat="43.883433" lon="7.844599"><ele>79.0</ele><time>2026-04-09T15:51:19.367Z</time></trkpt><trkpt lat="43.8833516" lon="7.8448774"><ele>82.0</ele><time>2026-04-09T15:51:20.367Z</time></trkpt><trkpt lat="43.8832755" lon="7.8451776"><ele>85.0</ele><time>2026-04-09T15:51:21.366Z</time></trkpt><trkpt lat="43.8831913" lon="7.8454618"><ele>85.0</ele><time>2026-04-09T15:51:22.366Z</time></trkpt><trkpt lat="43.8831131" lon="7.8457286"><ele>85.0</ele><time>2026-04-09T15:51:23.367Z</time></trkpt><trkpt lat="43.8830517" lon="7.8459743"><ele>85.0</ele><time>2026-04-09T15:51:24.367Z</time></trkpt><trkpt lat="43.8830066" lon="7.8462062"><ele>89.0</ele><time>2026-04-09T15:51:25.367Z</time></trkpt><trkpt lat="43.8829773" lon="7.8464115"><ele>93.0</ele><time>2026-04-09T15:51:26.366Z</time></trkpt><trkpt lat="43.8829343" lon="7.8465747"><ele>97.0</ele><time>2026-04-09T15:51:27.366Z</time></trkpt><trkpt lat="43.8828635" lon="7.8466733"><ele>101.0</ele><time>2026-04-09T15:51:28.366Z</time></trkpt><trkpt lat="43.8827636" lon="7.8467166"><ele>101.0</ele><time>2026-04-09T15:51:29.366Z</time></trkpt><trkpt lat="43.8826475" lon="7.8467127"><ele>101.0</ele><time>2026-04-09T15:51:30.366Z</time></trkpt><trkpt lat="43.8825341" lon="7.8466728"><ele>101.0</ele><time>2026-04-09T15:51:31.366Z</time></trkpt><trkpt lat="43.8824248" lon="7.8466781"><ele>101.0</ele><time>2026-04-09T15:51:32.366Z</time></trkpt><trkpt lat="43.8823284" lon="7.8467498"><ele>94.25</ele><time>2026-04-09T15:51:33.367Z</time></trkpt><trkpt lat="43.8822528" lon="7.8468885"><ele>87.5</ele><time>2026-04-09T15:51:34.367Z</time></trkpt><trkpt lat="43.8821756" lon="7.8470322"><ele>80.75</ele><time>2026-04-09T15:51:35.367Z</time></trkpt><trkpt lat="43.8820739" lon="7.8471283"><ele>74.0</ele><time>2026-04-09T15:51:36.366Z</time></trkpt><trkpt lat="43.881945" lon="7.8471658"><ele>74.0</ele><time>2026-04-09T15:51:37.366Z</time></trkpt><trkpt lat="43.881792" lon="7.8471802"><ele>74.0</ele><time>2026-04-09T15:51:38.366Z</time></trkpt><trkpt lat="43.8816164" lon="7.8471781"><ele>74.0</ele><time>2026-04-09T15:51:39.367Z</time></trkpt><trkpt lat="43.8814245" lon="7.8471386"><ele>71.66666666666667</ele><time>2026-04-09T15:51:40.366Z</time></trkpt><trkpt lat="43.8812126" lon="7.847087"><ele>69.33333333333333</ele><time>2026-04-09T15:51:41.366Z</time></trkpt><trkpt lat="43.8809893" lon="7.8470086"><ele>67.0</ele><time>2026-04-09T15:51:42.366Z</time></trkpt><trkpt lat="43.8807672" lon="7.8469424"><ele>67.0</ele><time>2026-04-09T15:51:43.366Z</time></trkpt><trkpt lat="43.8805455" lon="7.8469144"><ele>67.0</ele><time>2026-04-09T15:51:44.367Z</time></trkpt><trkpt lat="43.8803335" lon="7.8469203"><ele>67.0</ele><time>2026-04-09T15:51:45.366Z</time></trkpt><trkpt lat="43.8801289" lon="7.8469699"><ele>65.66666666666666</ele><time>2026-04-09T15:51:46.367Z</time></trkpt><trkpt lat="43.8799311" lon="7.8470078"><ele>64.33333333333333</ele><time>2026-04-09T15:51:47.367Z</time></trkpt><trkpt lat="43.8797364" lon="7.8470598"><ele>63.0</ele><time>2026-04-09T15:51:48.366Z</time></trkpt><trkpt lat="43.879529" lon="7.8471652"><ele>63.0</ele><time>2026-04-09T15:51:49.366Z</time></trkpt><trkpt lat="43.8793241" lon="7.8472804"><ele>63.0</ele><time>2026-04-09T15:51:50.366Z</time></trkpt><trkpt lat="43.8791327" lon="7.84739"><ele>63.0</ele><time>2026-04-09T15:51:51.367Z</time></trkpt><trkpt lat="43.8789609" lon="7.8475283"><ele>62.33333333333333</ele><time>2026-04-09T15:51:52.366Z</time></trkpt><trkpt lat="43.8788036" lon="7.8477046"><ele>61.666666666666664</ele><time>2026-04-09T15:51:53.366Z</time></trkpt><trkpt lat="43.8786499" lon="7.8479323"><ele>61.0</ele><time>2026-04-09T15:51:54.367Z</time></trkpt><trkpt lat="43.8784867" lon="7.848164"><ele>59.5</ele><time>2026-04-09T15:51:55.367Z</time></trkpt><trkpt lat="43.878299" lon="7.8483851"><ele>58.0</ele><time>2026-04-09T15:51:56.366Z</time></trkpt><trkpt lat="43.8781104" lon="7.8485972"><ele>58.0</ele><time>2026-04-09T15:51:57.366Z</time></trkpt><trkpt lat="43.8779305" lon="7.8488341"><ele>58.0</ele><time>2026-04-09T15:51:58.367Z</time></trkpt><trkpt lat="43.8777678" lon="7.8490869"><ele>59.0</ele><time>2026-04-09T15:51:59.367Z</time></trkpt><trkpt lat="43.8776216" lon="7.8493533"><ele>60.0</ele><time>2026-04-09T15:52:00.367Z</time></trkpt><trkpt lat="43.8774776" lon="7.8496072"><ele>57.5</ele><time>2026-04-09T15:52:01.367Z</time></trkpt><trkpt lat="43.8773382" lon="7.8498594"><ele>55.0</ele><time>2026-04-09T15:52:02.367Z</time></trkpt><trkpt lat="43.8772058" lon="7.8501087"><ele>54.666666666666664</ele><time>2026-04-09T15:52:03.367Z</time></trkpt><trkpt lat="43.8770921" lon="7.8503624"><ele>54.33333333333333</ele><time>2026-04-09T15:52:04.367Z</time></trkpt><trkpt lat="43.8769916" lon="7.8506211"><ele>54.0</ele><time>2026-04-09T15:52:05.366Z</time></trkpt><trkpt lat="43.8768849" lon="7.850884"><ele>54.33333333333333</ele><time>2026-04-09T15:52:06.366Z</time></trkpt><trkpt lat="43.8767757" lon="7.8511449"><ele>54.666666666666664</ele><time>2026-04-09T15:52:07.366Z</time></trkpt><trkpt lat="43.8766586" lon="7.85141"><ele>55.0</ele><time>2026-04-09T15:52:08.367Z</time></trkpt><trkpt lat="43.8765278" lon="7.8516844"><ele>54.0</ele><time>2026-04-09T15:52:09.366Z</time></trkpt><trkpt lat="43.8763839" lon="7.8519726"><ele>53.0</ele><time>2026-04-09T15:52:10.366Z</time></trkpt><trkpt lat="43.8762313" lon="7.8522718"><ele>53.0</ele><time>2026-04-09T15:52:11.367Z</time></trkpt><trkpt lat="43.8760828" lon="7.8525689"><ele>53.0</ele><time>2026-04-09T15:52:12.367Z</time></trkpt><trkpt lat="43.8759388" lon="7.8528524"><ele>54.0</ele><time>2026-04-09T15:52:13.366Z</time></trkpt><trkpt lat="43.8757871" lon="7.8531151"><ele>55.0</ele><time>2026-04-09T15:52:14.366Z</time></trkpt><trkpt lat="43.8756356" lon="7.8533561"><ele>54.0</ele><time>2026-04-09T15:52:15.366Z</time></trkpt><trkpt lat="43.8754904" lon="7.8535743"><ele>53.0</ele><time>2026-04-09T15:52:16.366Z</time></trkpt><trkpt lat="43.8753578" lon="7.8537747"><ele>52.0</ele><time>2026-04-09T15:52:17.367Z</time></trkpt><trkpt lat="43.8752241" lon="7.8539325"><ele>53.666666666666664</ele><time>2026-04-09T15:52:18.366Z</time></trkpt><trkpt lat="43.8750745" lon="7.8540487"><ele>55.33333333333333</ele><time>2026-04-09T15:52:19.366Z</time></trkpt><trkpt lat="43.8749052" lon="7.8541377"><ele>57.0</ele><time>2026-04-09T15:52:20.366Z</time></trkpt><trkpt lat="43.874706" lon="7.8542107"><ele>54.66666666666667</ele><time>2026-04-09T15:52:21.366Z</time></trkpt><trkpt lat="43.8745029" lon="7.8543073"><ele>52.333333333333336</ele><time>2026-04-09T15:52:22.367Z</time></trkpt><trkpt lat="43.8743008" lon="7.8544249"><ele>50.0</ele><time>2026-04-09T15:52:23.366Z</time></trkpt><trkpt lat="43.8741079" lon="7.8545681"><ele>48.66666666666667</ele><time>2026-04-09T15:52:24.367Z</time></trkpt><trkpt lat="43.8739131" lon="7.854736"><ele>47.333333333333336</ele><time>2026-04-09T15:52:25.366Z</time></trkpt><trkpt lat="43.8737377" lon="7.8549032"><ele>46.0</ele><time>2026-04-09T15:52:26.367Z</time></trkpt><trkpt lat="43.8735667" lon="7.8550421"><ele>45.333333333333336</ele><time>2026-04-09T15:52:27.366Z</time></trkpt><trkpt lat="43.873399" lon="7.8551444"><ele>44.666666666666664</ele><time>2026-04-09T15:52:28.366Z</time></trkpt><trkpt lat="43.8732245" lon="7.8552"><ele>44.0</ele><time>2026-04-09T15:52:29.366Z</time></trkpt><trkpt lat="43.8730329" lon="7.855242"><ele>44.0</ele><time>2026-04-09T15:52:30.366Z</time></trkpt><trkpt lat="43.8728367" lon="7.8552917"><ele>44.0</ele><time>2026-04-09T15:52:31.367Z</time></trkpt><trkpt lat="43.8726438" lon="7.8553691"><ele>44.0</ele><time>2026-04-09T15:52:32.367Z</time></trkpt><trkpt lat="43.8724552" lon="7.8554501"><ele>44.666666666666664</ele><time>2026-04-09T15:52:33.367Z</time></trkpt><trkpt lat="43.8722596" lon="7.8554941"><ele>45.333333333333336</ele><time>2026-04-09T15:52:34.366Z</time></trkpt><trkpt lat="43.8720513" lon="7.8554996"><ele>46.0</ele><time>2026-04-09T15:52:35.366Z</time></trkpt><trkpt lat="43.8718372" lon="7.8554991"><ele>46.0</ele><time>2026-04-09T15:52:36.366Z</time></trkpt><trkpt lat="43.8716178" lon="7.855537"><ele>46.0</ele><time>2026-04-09T15:52:37.367Z</time></trkpt><trkpt lat="43.871408" lon="7.8556102"><ele>46.0</ele><time>2026-04-09T15:52:38.366Z</time></trkpt><trkpt lat="43.8712021" lon="7.8556847"><ele>46.0</ele><time>2026-04-09T15:52:39.366Z</time></trkpt><trkpt lat="43.8710064" lon="7.8557286"><ele>46.0</ele><time>2026-04-09T15:52:40.366Z</time></trkpt><trkpt lat="43.8707981" lon="7.8557337"><ele>46.0</ele><time>2026-04-09T15:52:41.366Z</time></trkpt><trkpt lat="43.8705908" lon="7.8556913"><ele>46.0</ele><time>2026-04-09T15:52:42.366Z</time></trkpt><trkpt lat="43.8703725" lon="7.85562"><ele>46.0</ele><time>2026-04-09T15:52:43.366Z</time></trkpt><trkpt lat="43.8701575" lon="7.8555401"><ele>46.0</ele><time>2026-04-09T15:52:44.367Z</time></trkpt><trkpt lat="43.8699354" lon="7.8554685"><ele>46.0</ele><time>2026-04-09T15:52:45.366Z</time></trkpt><trkpt lat="43.8697262" lon="7.8553963"><ele>46.0</ele><time>2026-04-09T15:52:46.367Z</time></trkpt><trkpt lat="43.8695203" lon="7.8553062"><ele>46.0</ele><time>2026-04-09T15:52:47.367Z</time></trkpt><trkpt lat="43.8693213" lon="7.855191"><ele>48.0</ele><time>2026-04-09T15:52:48.366Z</time></trkpt><trkpt lat="43.8691238" lon="7.8550772"><ele>50.0</ele><time>2026-04-09T15:52:49.367Z</time></trkpt><trkpt lat="43.8689319" lon="7.8549704"><ele>52.0</ele><time>2026-04-09T15:52:50.366Z</time></trkpt><trkpt lat="43.8687506" lon="7.854873"><ele>52.0</ele><time>2026-04-09T15:52:51.366Z</time></trkpt><trkpt lat="43.8685793" lon="7.854801"><ele>52.0</ele><time>2026-04-09T15:52:52.366Z</time></trkpt><trkpt lat="43.8684107" lon="7.8547677"><ele>52.0</ele><time>2026-04-09T15:52:53.366Z</time></trkpt><trkpt lat="43.8682404" lon="7.8547633"><ele>49.0</ele><time>2026-04-09T15:52:54.367Z</time></trkpt><trkpt lat="43.8680624" lon="7.8547779"><ele>46.0</ele><time>2026-04-09T15:52:55.366Z</time></trkpt><trkpt lat="43.8678793" lon="7.8547878"><ele>43.0</ele><time>2026-04-09T15:52:56.366Z</time></trkpt><trkpt lat="43.867696" lon="7.8547799"><ele>41.0</ele><time>2026-04-09T15:52:57.367Z</time></trkpt><trkpt lat="43.8675089" lon="7.8547486"><ele>39.0</ele><time>2026-04-09T15:52:58.367Z</time></trkpt><trkpt lat="43.8673144" lon="7.8546855"><ele>37.0</ele><time>2026-04-09T15:52:59.367Z</time></trkpt><trkpt lat="43.8671255" lon="7.8546043"><ele>37.0</ele><time>2026-04-09T15:53:00.366Z</time></trkpt><trkpt lat="43.8669427" lon="7.8545023"><ele>37.0</ele><time>2026-04-09T15:53:01.366Z</time></trkpt><trkpt lat="43.8667609" lon="7.8543867"><ele>37.0</ele><time>2026-04-09T15:53:02.367Z</time></trkpt><trkpt lat="43.8665794" lon="7.8542671"><ele>37.0</ele><time>2026-04-09T15:53:03.367Z</time></trkpt><trkpt lat="43.8663996" lon="7.854148"><ele>37.0</ele><time>2026-04-09T15:53:04.366Z</time></trkpt><trkpt lat="43.8662207" lon="7.8540256"><ele>37.0</ele><time>2026-04-09T15:53:05.367Z</time></trkpt><trkpt lat="43.8660408" lon="7.8539196"><ele>35.66666666666667</ele><time>2026-04-09T15:53:06.367Z</time></trkpt><trkpt lat="43.8658592" lon="7.8538373"><ele>34.333333333333336</ele><time>2026-04-09T15:53:07.367Z</time></trkpt><trkpt lat="43.8656864" lon="7.8537636"><ele>33.0</ele><time>2026-04-09T15:53:08.366Z</time></trkpt><trkpt lat="43.8655371" lon="7.853703"><ele>33.0</ele><time>2026-04-09T15:53:09.366Z</time></trkpt><trkpt lat="43.8654059" lon="7.8536548"><ele>33.0</ele><time>2026-04-09T15:53:10.367Z</time></trkpt><trkpt lat="43.8652724" lon="7.8536343"><ele>33.0</ele><time>2026-04-09T15:53:11.366Z</time></trkpt><trkpt lat="43.8651358" lon="7.8536327"><ele>33.0</ele><time>2026-04-09T15:53:12.366Z</time></trkpt><trkpt lat="43.8650058" lon="7.8536698"><ele>32.25</ele><time>2026-04-09T15:53:13.366Z</time></trkpt><trkpt lat="43.8648775" lon="7.8537154"><ele>31.5</ele><time>2026-04-09T15:53:14.366Z</time></trkpt><trkpt lat="43.8647588" lon="7.8537371"><ele>30.75</ele><time>2026-04-09T15:53:15.367Z</time></trkpt><trkpt lat="43.8646415" lon="7.853754"><ele>30.0</ele><time>2026-04-09T15:53:16.367Z</time></trkpt><trkpt lat="43.8645202" lon="7.853755"><ele>30.0</ele><time>2026-04-09T15:53:17.37Z</time></trkpt><trkpt lat="43.8644071" lon="7.8537444"><ele>30.0</ele><time>2026-04-09T15:53:18.37Z</time></trkpt><trkpt lat="43.8642989" lon="7.8537194"><ele>30.0</ele><time>2026-04-09T15:53:19.37Z</time></trkpt><trkpt lat="43.8641998" lon="7.8536901"><ele>30.0</ele><time>2026-04-09T15:53:20.371Z</time></trkpt><trkpt lat="43.864108" lon="7.8536583"><ele>30.0</ele><time>2026-04-09T15:53:21.37Z</time></trkpt><trkpt lat="43.864024" lon="7.8536279"><ele>29.833333333333332</ele><time>2026-04-09T15:53:22.371Z</time></trkpt><trkpt lat="43.8639482" lon="7.853615"><ele>29.666666666666664</ele><time>2026-04-09T15:53:23.371Z</time></trkpt><trkpt lat="43.8638788" lon="7.8536056"><ele>29.5</ele><time>2026-04-09T15:53:24.371Z</time></trkpt><trkpt lat="43.8638073" lon="7.8536055"><ele>29.333333333333332</ele><time>2026-04-09T15:53:25.37Z</time></trkpt><trkpt lat="43.8637243" lon="7.8536018"><ele>29.166666666666664</ele><time>2026-04-09T15:53:26.371Z</time></trkpt><trkpt lat="43.8636339" lon="7.8535992"><ele>29.0</ele><time>2026-04-09T15:53:27.371Z</time></trkpt><trkpt lat="43.863543" lon="7.8536031"><ele>29.0</ele><time>2026-04-09T15:53:28.37Z</time></trkpt><trkpt lat="43.8634503" lon="7.8536117"><ele>29.0</ele><time>2026-04-09T15:53:29.37Z</time></trkpt><trkpt lat="43.8633589" lon="7.8536336"><ele>29.0</ele><time>2026-04-09T15:53:30.371Z</time></trkpt><trkpt lat="43.8632643" lon="7.853663"><ele>29.0</ele><time>2026-04-09T15:53:31.37Z</time></trkpt><trkpt lat="43.8631737" lon="7.8536853"><ele>29.0</ele><time>2026-04-09T15:53:32.37Z</time></trkpt><trkpt lat="43.8630803" lon="7.8537065"><ele>29.0</ele><time>2026-04-09T15:53:33.371Z</time></trkpt><trkpt lat="43.8629887" lon="7.8537324"><ele>29.0</ele><time>2026-04-09T15:53:34.37Z</time></trkpt><trkpt lat="43.8628961" lon="7.8537529"><ele>29.0</ele><time>2026-04-09T15:53:35.37Z</time></trkpt><trkpt lat="43.8628074" lon="7.8537864"><ele>29.0</ele><time>2026-04-09T15:53:36.37Z</time></trkpt><trkpt lat="43.8627209" lon="7.853824"><ele>29.0</ele><time>2026-04-09T15:53:37.37Z</time></trkpt><trkpt lat="43.8626136" lon="7.8538701"><ele>29.75</ele><time>2026-04-09T15:53:38.371Z</time></trkpt><trkpt lat="43.8624973" lon="7.8539168"><ele>30.5</ele><time>2026-04-09T15:53:39.37Z</time></trkpt><trkpt lat="43.8623582" lon="7.8539543"><ele>31.25</ele><time>2026-04-09T15:53:40.371Z</time></trkpt><trkpt lat="43.8622042" lon="7.8539845"><ele>32.0</ele><time>2026-04-09T15:53:41.371Z</time></trkpt><trkpt lat="43.8620591" lon="7.8540211"><ele>32.0</ele><time>2026-04-09T15:53:42.37Z</time></trkpt><trkpt lat="43.8619146" lon="7.854054"><ele>32.0</ele><time>2026-04-09T15:53:43.37Z</time></trkpt><trkpt lat="43.8617735" lon="7.8540903"><ele>32.0</ele><time>2026-04-09T15:53:44.371Z</time></trkpt><trkpt lat="43.8616303" lon="7.8541226"><ele>32.0</ele><time>2026-04-09T15:53:45.371Z</time></trkpt><trkpt lat="43.8615006" lon="7.8541545"><ele>32.2</ele><time>2026-04-09T15:53:46.37Z</time></trkpt><trkpt lat="43.8613905" lon="7.8541806"><ele>32.400000000000006</ele><time>2026-04-09T15:53:47.371Z</time></trkpt><trkpt lat="43.8613011" lon="7.8541775"><ele>32.599999999999994</ele><time>2026-04-09T15:53:48.37Z</time></trkpt><trkpt lat="43.8612333" lon="7.8542018"><ele>32.8</ele><time>2026-04-09T15:53:49.37Z</time></trkpt><trkpt lat="43.8611232" lon="7.8542318"><ele>33.0</ele><time>2026-04-09T15:53:51.371Z</time></trkpt><trkpt lat="43.8610022" lon="7.8542735"><ele>31.75</ele><time>2026-04-09T15:53:53.37Z</time></trkpt><trkpt lat="43.8609062" lon="7.854293"><ele>30.5</ele><time>2026-04-09T15:53:54.371Z</time></trkpt><trkpt lat="43.8607926" lon="7.8543194"><ele>29.25</ele><time>2026-04-09T15:53:55.37Z</time></trkpt><trkpt lat="43.8606673" lon="7.854348"><ele>28.0</ele><time>2026-04-09T15:53:56.37Z</time></trkpt><trkpt lat="43.8605363" lon="7.8543712"><ele>28.0</ele><time>2026-04-09T15:53:57.371Z</time></trkpt><trkpt lat="43.8604014" lon="7.8543907"><ele>28.0</ele><time>2026-04-09T15:53:58.37Z</time></trkpt><trkpt lat="43.8602676" lon="7.8544064"><ele>28.0</ele><time>2026-04-09T15:53:59.37Z</time></trkpt><trkpt lat="43.8601442" lon="7.8544242"><ele>28.0</ele><time>2026-04-09T15:54:00.371Z</time></trkpt><trkpt lat="43.8600332" lon="7.8544568"><ele>27.4</ele><time>2026-04-09T15:54:01.371Z</time></trkpt><trkpt lat="43.8599302" lon="7.8545137"><ele>26.799999999999997</ele><time>2026-04-09T15:54:02.37Z</time></trkpt><trkpt lat="43.8598498" lon="7.8546049"><ele>26.2</ele><time>2026-04-09T15:54:03.371Z</time></trkpt><trkpt lat="43.859771" lon="7.8546863"><ele>25.6</ele><time>2026-04-09T15:54:04.37Z</time></trkpt><trkpt lat="43.8596766" lon="7.8547644"><ele>25.0</ele><time>2026-04-09T15:54:05.37Z</time></trkpt><trkpt lat="43.8595613" lon="7.8548291"><ele>25.0</ele><time>2026-04-09T15:54:06.37Z</time></trkpt><trkpt lat="43.8594364" lon="7.8548892"><ele>25.0</ele><time>2026-04-09T15:54:07.371Z</time></trkpt><trkpt lat="43.859302" lon="7.8549388"><ele>25.0</ele><time>2026-04-09T15:54:08.371Z</time></trkpt><trkpt lat="43.8591742" lon="7.854993"><ele>25.0</ele><time>2026-04-09T15:54:09.37Z</time></trkpt><trkpt lat="43.8590371" lon="7.8550513"><ele>25.0</ele><time>2026-04-09T15:54:10.37Z</time></trkpt><trkpt lat="43.858864" lon="7.8551077"><ele>25.0</ele><time>2026-04-09T15:54:11.371Z</time></trkpt><trkpt lat="43.8586769" lon="7.8551731"><ele>25.0</ele><time>2026-04-09T15:54:12.371Z</time></trkpt><trkpt lat="43.8584856" lon="7.8552345"><ele>24.666666666666668</ele><time>2026-04-09T15:54:13.37Z</time></trkpt><trkpt lat="43.8582919" lon="7.8553068"><ele>24.333333333333336</ele><time>2026-04-09T15:54:14.37Z</time></trkpt><trkpt lat="43.8580942" lon="7.8553764"><ele>24.0</ele><time>2026-04-09T15:54:15.37Z</time></trkpt><trkpt lat="43.857895" lon="7.8554518"><ele>24.0</ele><time>2026-04-09T15:54:16.371Z</time></trkpt><trkpt lat="43.8576908" lon="7.8555349"><ele>24.0</ele><time>2026-04-09T15:54:17.371Z</time></trkpt><trkpt lat="43.8574861" lon="7.8556282"><ele>24.0</ele><time>2026-04-09T15:54:18.37Z</time></trkpt><trkpt lat="43.8572811" lon="7.8557414"><ele>23.666666666666668</ele><time>2026-04-09T15:54:19.37Z</time></trkpt><trkpt lat="43.8570757" lon="7.8558628"><ele>23.333333333333336</ele><time>2026-04-09T15:54:20.371Z</time></trkpt><trkpt lat="43.8568729" lon="7.8559944"><ele>23.0</ele><time>2026-04-09T15:54:21.371Z</time></trkpt><trkpt lat="43.8566695" lon="7.8561271"><ele>22.666666666666668</ele><time>2026-04-09T15:54:22.371Z</time></trkpt><trkpt lat="43.8564688" lon="7.8562511"><ele>22.333333333333332</ele><time>2026-04-09T15:54:23.371Z</time></trkpt><trkpt lat="43.8562674" lon="7.8563824"><ele>22.0</ele><time>2026-04-09T15:54:24.37Z</time></trkpt><trkpt lat="43.8560588" lon="7.8565146"><ele>21.5</ele><time>2026-04-09T15:54:25.37Z</time></trkpt><trkpt lat="43.8558554" lon="7.8566455"><ele>21.0</ele><time>2026-04-09T15:54:26.371Z</time></trkpt><trkpt lat="43.8556518" lon="7.8567815"><ele>22.5</ele><time>2026-04-09T15:54:27.371Z</time></trkpt><trkpt lat="43.8554447" lon="7.8569136"><ele>24.0</ele><time>2026-04-09T15:54:28.371Z</time></trkpt><trkpt lat="43.8552375" lon="7.8570414"><ele>22.5</ele><time>2026-04-09T15:54:29.37Z</time></trkpt><trkpt lat="43.8550262" lon="7.8571621"><ele>21.0</ele><time>2026-04-09T15:54:30.371Z</time></trkpt><trkpt lat="43.85481" lon="7.857269"><ele>21.0</ele><time>2026-04-09T15:54:31.37Z</time></trkpt><trkpt lat="43.8545883" lon="7.8573674"><ele>21.0</ele><time>2026-04-09T15:54:32.371Z</time></trkpt><trkpt lat="43.8543618" lon="7.8574578"><ele>19.5</ele><time>2026-04-09T15:54:33.371Z</time></trkpt><trkpt lat="43.8541318" lon="7.8575434"><ele>18.0</ele><time>2026-04-09T15:54:34.37Z</time></trkpt><trkpt lat="43.8539044" lon="7.8576177"><ele>18.5</ele><time>2026-04-09T15:54:35.37Z</time></trkpt><trkpt lat="43.8536844" lon="7.8576775"><ele>19.0</ele><time>2026-04-09T15:54:36.371Z</time></trkpt><trkpt lat="43.8534608" lon="7.8577342"><ele>18.0</ele><time>2026-04-09T15:54:37.37Z</time></trkpt><trkpt lat="43.8532337" lon="7.8577848"><ele>17.0</ele><time>2026-04-09T15:54:38.371Z</time></trkpt><trkpt lat="43.8529886" lon="7.8578287"><ele>17.0</ele><time>2026-04-09T15:54:39.371Z</time></trkpt><trkpt lat="43.8527413" lon="7.8578648"><ele>17.0</ele><time>2026-04-09T15:54:40.37Z</time></trkpt><trkpt lat="43.8525016" lon="7.8578924"><ele>16.5</ele><time>2026-04-09T15:54:41.37Z</time></trkpt><trkpt lat="43.8522579" lon="7.857924"><ele>16.0</ele><time>2026-04-09T15:54:42.37Z</time></trkpt><trkpt lat="43.8520158" lon="7.8579569"><ele>16.0</ele><time>2026-04-09T15:54:43.371Z</time></trkpt><trkpt lat="43.8517771" lon="7.857991"><ele>16.0</ele><time>2026-04-09T15:54:44.37Z</time></trkpt><trkpt lat="43.8515426" lon="7.8580266"><ele>16.0</ele><time>2026-04-09T15:54:45.37Z</time></trkpt><trkpt lat="43.8513063" lon="7.8580672"><ele>16.0</ele><time>2026-04-09T15:54:46.371Z</time></trkpt><trkpt lat="43.8510697" lon="7.8581175"><ele>15.5</ele><time>2026-04-09T15:54:47.37Z</time></trkpt><trkpt lat="43.8508332" lon="7.8581703"><ele>15.0</ele><time>2026-04-09T15:54:48.371Z</time></trkpt><trkpt lat="43.8505954" lon="7.8582263"><ele>15.0</ele><time>2026-04-09T15:54:49.371Z</time></trkpt><trkpt lat="43.850359" lon="7.8582833"><ele>15.0</ele><time>2026-04-09T15:54:50.37Z</time></trkpt><trkpt lat="43.8501207" lon="7.8583368"><ele>15.0</ele><time>2026-04-09T15:54:51.371Z</time></trkpt><trkpt lat="43.8498803" lon="7.8583882"><ele>15.0</ele><time>2026-04-09T15:54:52.37Z</time></trkpt><trkpt lat="43.8496449" lon="7.8584343"><ele>14.0</ele><time>2026-04-09T15:54:53.371Z</time></trkpt><trkpt lat="43.8494096" lon="7.8584799"><ele>13.0</ele><time>2026-04-09T15:54:54.37Z</time></trkpt><trkpt lat="43.8491737" lon="7.8585281"><ele>13.0</ele><time>2026-04-09T15:54:55.37Z</time></trkpt><trkpt lat="43.8489419" lon="7.8585733"><ele>13.0</ele><time>2026-04-09T15:54:56.371Z</time></trkpt><trkpt lat="43.8487244" lon="7.858614"><ele>13.0</ele><time>2026-04-09T15:54:57.371Z</time></trkpt><trkpt lat="43.8485066" lon="7.8586569"><ele>13.0</ele><time>2026-04-09T15:54:58.37Z</time></trkpt><trkpt lat="43.84829" lon="7.8586989"><ele>13.0</ele><time>2026-04-09T15:54:59.37Z</time></trkpt><trkpt lat="43.8480738" lon="7.8587365"><ele>12.666666666666666</ele><time>2026-04-09T15:55:00.371Z</time></trkpt><trkpt lat="43.847858" lon="7.85878"><ele>12.333333333333332</ele><time>2026-04-09T15:55:01.371Z</time></trkpt><trkpt lat="43.8476401" lon="7.8588159"><ele>12.0</ele><time>2026-04-09T15:55:02.371Z</time></trkpt><trkpt lat="43.847431" lon="7.8588493"><ele>12.666666666666668</ele><time>2026-04-09T15:55:03.371Z</time></trkpt><trkpt lat="43.8472313" lon="7.8588867"><ele>13.333333333333334</ele><time>2026-04-09T15:55:04.371Z</time></trkpt><trkpt lat="43.8470443" lon="7.8589181"><ele>14.0</ele><time>2026-04-09T15:55:05.371Z</time></trkpt><trkpt lat="43.8468676" lon="7.8589515"><ele>13.666666666666668</ele><time>2026-04-09T15:55:06.371Z</time></trkpt><trkpt lat="43.8467058" lon="7.8589814"><ele>13.333333333333332</ele><time>2026-04-09T15:55:07.37Z</time></trkpt><trkpt lat="43.8465507" lon="7.8590064"><ele>13.0</ele><time>2026-04-09T15:55:08.37Z</time></trkpt><trkpt lat="43.846401" lon="7.8590353"><ele>13.0</ele><time>2026-04-09T15:55:09.371Z</time></trkpt><trkpt lat="43.8462402" lon="7.8590665"><ele>13.0</ele><time>2026-04-09T15:55:10.371Z</time></trkpt><trkpt lat="43.8460659" lon="7.8591008"><ele>13.0</ele><time>2026-04-09T15:55:11.37Z</time></trkpt><trkpt lat="43.845874" lon="7.8591312"><ele>13.666666666666666</ele><time>2026-04-09T15:55:12.371Z</time></trkpt><trkpt lat="43.8456861" lon="7.8591553"><ele>14.333333333333332</ele><time>2026-04-09T15:55:13.371Z</time></trkpt><trkpt lat="43.8455166" lon="7.8591841"><ele>15.0</ele><time>2026-04-09T15:55:14.37Z</time></trkpt><trkpt lat="43.8453631" lon="7.8592052"><ele>15.0</ele><time>2026-04-09T15:55:15.371Z</time></trkpt><trkpt lat="43.8452098" lon="7.8592167"><ele>15.0</ele><time>2026-04-09T15:55:16.37Z</time></trkpt><trkpt lat="43.8450515" lon="7.8592203"><ele>15.0</ele><time>2026-04-09T15:55:17.37Z</time></trkpt><trkpt lat="43.8448723" lon="7.859221"><ele>15.0</ele><time>2026-04-09T15:55:18.37Z</time></trkpt><trkpt lat="43.8446957" lon="7.8592049"><ele>15.0</ele><time>2026-04-09T15:55:19.37Z</time></trkpt><trkpt lat="43.84452" lon="7.8591887"><ele>15.0</ele><time>2026-04-09T15:55:20.371Z</time></trkpt><trkpt lat="43.8443638" lon="7.8591566"><ele>14.2</ele><time>2026-04-09T15:55:21.371Z</time></trkpt><trkpt lat="43.8442322" lon="7.8591165"><ele>13.4</ele><time>2026-04-09T15:55:22.37Z</time></trkpt><trkpt lat="43.8441369" lon="7.8590857"><ele>12.600000000000001</ele><time>2026-04-09T15:55:23.371Z</time></trkpt><trkpt lat="43.8440594" lon="7.8590493"><ele>11.8</ele><time>2026-04-09T15:55:24.37Z</time></trkpt><trkpt lat="43.8439939" lon="7.8589915"><ele>11.0</ele><time>2026-04-09T15:55:25.371Z</time></trkpt><trkpt lat="43.8439514" lon="7.8589198"><ele>11.0</ele><time>2026-04-09T15:55:26.37Z</time></trkpt><trkpt lat="43.8439144" lon="7.8588047"><ele>11.0</ele><time>2026-04-09T15:55:28.37Z</time></trkpt><trkpt lat="43.843894" lon="7.8586557"><ele>11.0</ele><time>2026-04-09T15:55:31.371Z</time></trkpt><trkpt lat="43.8438981" lon="7.8585562"><ele>11.0</ele><time>2026-04-09T15:55:32.37Z</time></trkpt><trkpt lat="43.8439033" lon="7.8584247"><ele>11.0</ele><time>2026-04-09T15:55:33.371Z</time></trkpt><trkpt lat="43.8438992" lon="7.8582914"><ele>11.5</ele><time>2026-04-09T15:55:34.37Z</time></trkpt><trkpt lat="43.8438648" lon="7.8581633"><ele>12.0</ele><time>2026-04-09T15:55:35.371Z</time></trkpt><trkpt lat="43.8437871" lon="7.8580532"><ele>12.5</ele><time>2026-04-09T15:55:36.37Z</time></trkpt><trkpt lat="43.8436833" lon="7.8579704"><ele>13.0</ele><time>2026-04-09T15:55:37.37Z</time></trkpt><trkpt lat="43.8435528" lon="7.8579296"><ele>12.5</ele><time>2026-04-09T15:55:38.37Z</time></trkpt><trkpt lat="43.8434239" lon="7.8579466"><ele>12.0</ele><time>2026-04-09T15:55:39.371Z</time></trkpt><trkpt lat="43.8433051" lon="7.8580399"><ele>11.5</ele><time>2026-04-09T15:55:40.371Z</time></trkpt><trkpt lat="43.8432164" lon="7.8581659"><ele>11.0</ele><time>2026-04-09T15:55:41.37Z</time></trkpt><trkpt lat="43.8431337" lon="7.8582975"><ele>11.0</ele><time>2026-04-09T15:55:42.371Z</time></trkpt><trkpt lat="43.8430321" lon="7.8583687"><ele>11.0</ele><time>2026-04-09T15:55:43.371Z</time></trkpt><trkpt lat="43.8429303" lon="7.8584051"><ele>11.0</ele><time>2026-04-09T15:55:44.37Z</time></trkpt><trkpt lat="43.8428082" lon="7.8583919"><ele>11.0</ele><time>2026-04-09T15:55:45.37Z</time></trkpt><trkpt lat="43.8426743" lon="7.8583401"><ele>10.5</ele><time>2026-04-09T15:55:46.37Z</time></trkpt><trkpt lat="43.8425438" lon="7.8582721"><ele>10.0</ele><time>2026-04-09T15:55:47.371Z</time></trkpt><trkpt lat="43.842408" lon="7.8582126"><ele>9.5</ele><time>2026-04-09T15:55:48.371Z</time></trkpt><trkpt lat="43.8422525" lon="7.8581372"><ele>9.0</ele><time>2026-04-09T15:55:49.371Z</time></trkpt><trkpt lat="43.8420897" lon="7.8580588"><ele>9.0</ele><time>2026-04-09T15:55:50.371Z</time></trkpt><trkpt lat="43.841938" lon="7.8579919"><ele>9.0</ele><time>2026-04-09T15:55:51.371Z</time></trkpt><trkpt lat="43.8417915" lon="7.857932"><ele>9.0</ele><time>2026-04-09T15:55:52.37Z</time></trkpt><trkpt lat="43.841637" lon="7.8578836"><ele>8.0</ele><time>2026-04-09T15:55:53.371Z</time></trkpt><trkpt lat="43.8414623" lon="7.8578343"><ele>7.0</ele><time>2026-04-09T15:55:54.371Z</time></trkpt><trkpt lat="43.8412746" lon="7.8577794"><ele>6.0</ele><time>2026-04-09T15:55:55.37Z</time></trkpt><trkpt lat="43.8410996" lon="7.8577153"><ele>6.25</ele><time>2026-04-09T15:55:56.371Z</time></trkpt><trkpt lat="43.8409366" lon="7.8576607"><ele>6.5</ele><time>2026-04-09T15:55:57.37Z</time></trkpt><trkpt lat="43.8407892" lon="7.8576195"><ele>6.75</ele><time>2026-04-09T15:55:58.371Z</time></trkpt><trkpt lat="43.8406696" lon="7.8575859"><ele>7.0</ele><time>2026-04-09T15:55:59.37Z</time></trkpt><trkpt lat="43.8405696" lon="7.8575705"><ele>7.166666666666667</ele><time>2026-04-09T15:56:00.371Z</time></trkpt><trkpt lat="43.8404855" lon="7.857545"><ele>7.333333333333334</ele><time>2026-04-09T15:56:01.371Z</time></trkpt><trkpt lat="43.8404114" lon="7.8575213"><ele>7.5</ele><time>2026-04-09T15:56:02.371Z</time></trkpt><trkpt lat="43.8403392" lon="7.8574865"><ele>7.666666666666666</ele><time>2026-04-09T15:56:03.37Z</time></trkpt><trkpt lat="43.8402655" lon="7.8574559"><ele>7.833333333333333</ele><time>2026-04-09T15:56:04.37Z</time></trkpt><trkpt lat="43.8401824" lon="7.8574507"><ele>8.0</ele><time>2026-04-09T15:56:05.371Z</time></trkpt><trkpt lat="43.8400941" lon="7.8574756"><ele>8.0</ele><time>2026-04-09T15:56:06.37Z</time></trkpt><trkpt lat="43.8399934" lon="7.8575047"><ele>8.0</ele><time>2026-04-09T15:56:07.371Z</time></trkpt><trkpt lat="43.8398831" lon="7.8575243"><ele>8.0</ele><time>2026-04-09T15:56:08.37Z</time></trkpt><trkpt lat="43.8397552" lon="7.8575374"><ele>8.0</ele><time>2026-04-09T15:56:09.37Z</time></trkpt><trkpt lat="43.8396143" lon="7.8575343"><ele>8.0</ele><time>2026-04-09T15:56:10.37Z</time></trkpt><trkpt lat="43.8394587" lon="7.857527"><ele>8.0</ele><time>2026-04-09T15:56:11.371Z</time></trkpt><trkpt lat="43.8392882" lon="7.8575132"><ele>8.0</ele><time>2026-04-09T15:56:12.371Z</time></trkpt><trkpt lat="43.8391081" lon="7.8575141"><ele>8.0</ele><time>2026-04-09T15:56:13.37Z</time></trkpt><trkpt lat="43.8389234" lon="7.8575218"><ele>8.0</ele><time>2026-04-09T15:56:14.371Z</time></trkpt><trkpt lat="43.8387316" lon="7.8575295"><ele>8.0</ele><time>2026-04-09T15:56:15.37Z</time></trkpt><trkpt lat="43.838534" lon="7.857548"><ele>8.0</ele><time>2026-04-09T15:56:16.37Z</time></trkpt><trkpt lat="43.8383236" lon="7.8575912"><ele>8.0</ele><time>2026-04-09T15:56:17.37Z</time></trkpt><trkpt lat="43.8381182" lon="7.8576554"><ele>8.0</ele><time>2026-04-09T15:56:18.37Z</time></trkpt><trkpt lat="43.8379257" lon="7.8577375"><ele>7.0</ele><time>2026-04-09T15:56:19.37Z</time></trkpt><trkpt lat="43.8377537" lon="7.8578259"><ele>6.0</ele><time>2026-04-09T15:56:20.371Z</time></trkpt><trkpt lat="43.8375892" lon="7.8579224"><ele>5.0</ele><time>2026-04-09T15:56:21.371Z</time></trkpt><trkpt lat="43.8374284" lon="7.8580123"><ele>5.0</ele><time>2026-04-09T15:56:22.371Z</time></trkpt><trkpt lat="43.8372643" lon="7.8581055"><ele>5.0</ele><time>2026-04-09T15:56:23.371Z</time></trkpt><trkpt lat="43.8371093" lon="7.8581896"><ele>5.0</ele><time>2026-04-09T15:56:24.371Z</time></trkpt><trkpt lat="43.836966" lon="7.8582587"><ele>5.0</ele><time>2026-04-09T15:56:25.37Z</time></trkpt><trkpt lat="43.8368409" lon="7.8583166"><ele>5.0</ele><time>2026-04-09T15:56:26.37Z</time></trkpt><trkpt lat="43.8367228" lon="7.8583685"><ele>5.0</ele><time>2026-04-09T15:56:27.371Z</time></trkpt><trkpt lat="43.8365995" lon="7.8584028"><ele>5.0</ele><time>2026-04-09T15:56:28.37Z</time></trkpt><trkpt lat="43.8364832" lon="7.8584318"><ele>4.8</ele><time>2026-04-09T15:56:29.37Z</time></trkpt><trkpt lat="43.8363734" lon="7.8584603"><ele>4.6</ele><time>2026-04-09T15:56:30.371Z</time></trkpt><trkpt lat="43.8362678" lon="7.8584861"><ele>4.4</ele><time>2026-04-09T15:56:31.371Z</time></trkpt><trkpt lat="43.8361571" lon="7.8585087"><ele>4.2</ele><time>2026-04-09T15:56:32.371Z</time></trkpt><trkpt lat="43.8360471" lon="7.8585357"><ele>4.0</ele><time>2026-04-09T15:56:33.371Z</time></trkpt><trkpt lat="43.8359382" lon="7.8585602"><ele>4.0</ele><time>2026-04-09T15:56:34.371Z</time></trkpt><trkpt lat="43.8358291" lon="7.8585913"><ele>4.0</ele><time>2026-04-09T15:56:35.37Z</time></trkpt><trkpt lat="43.8357249" lon="7.8586132"><ele>4.0</ele><time>2026-04-09T15:56:36.371Z</time></trkpt><trkpt lat="43.8356265" lon="7.858629"><ele>4.0</ele><time>2026-04-09T15:56:37.371Z</time></trkpt><trkpt lat="43.8355239" lon="7.8586362"><ele>4.0</ele><time>2026-04-09T15:56:38.371Z</time></trkpt><trkpt lat="43.8354349" lon="7.8586567"><ele>4.0</ele><time>2026-04-09T15:56:39.371Z</time></trkpt><trkpt lat="43.8353353" lon="7.8586602"><ele>4.0</ele><time>2026-04-09T15:56:40.37Z</time></trkpt><trkpt lat="43.8352372" lon="7.8586508"><ele>4.0</ele><time>2026-04-09T15:56:41.371Z</time></trkpt><trkpt lat="43.835161" lon="7.8586015"><ele>4.0</ele><time>2026-04-09T15:56:42.37Z</time></trkpt><trkpt lat="43.8351001" lon="7.8585045"><ele>4.0</ele><time>2026-04-09T15:56:43.371Z</time></trkpt><trkpt lat="43.8350767" lon="7.8583801"><ele>4.5</ele><time>2026-04-09T15:56:44.37Z</time></trkpt><trkpt lat="43.8350793" lon="7.8582634"><ele>5.0</ele><time>2026-04-09T15:56:45.371Z</time></trkpt><trkpt lat="43.8351096" lon="7.8581554"><ele>5.5</ele><time>2026-04-09T15:56:46.37Z</time></trkpt><trkpt lat="43.8351653" lon="7.8580718"><ele>6.0</ele><time>2026-04-09T15:56:47.37Z</time></trkpt><trkpt lat="43.8352258" lon="7.8580105"><ele>6.500000000000001</ele><time>2026-04-09T15:56:48.37Z</time></trkpt><trkpt lat="43.8352861" lon="7.8579665"><ele>7.0</ele><time>2026-04-09T15:56:49.37Z</time></trkpt><trkpt lat="43.8353474" lon="7.8579419"><ele>7.0</ele><time>2026-04-09T15:56:50.371Z</time></trkpt><trkpt lat="43.8354767" lon="7.8579811"><ele>6.999999999999999</ele><time>2026-04-09T15:56:52.371Z</time></trkpt><trkpt lat="43.8355237" lon="7.8580492"><ele>6.999999999999999</ele><time>2026-04-09T15:56:53.371Z</time></trkpt><trkpt lat="43.8355527" lon="7.858154"><ele>7.0</ele><time>2026-04-09T15:56:54.37Z</time></trkpt><trkpt lat="43.8355727" lon="7.8582708"><ele>7.0</ele><time>2026-04-09T15:56:55.37Z</time></trkpt><trkpt lat="43.8355997" lon="7.8583977"><ele>6.3999999999999995</ele><time>2026-04-09T15:56:56.371Z</time></trkpt><trkpt lat="43.8356271" lon="7.8585174"><ele>5.799999999999999</ele><time>2026-04-09T15:56:57.37Z</time></trkpt><trkpt lat="43.8356647" lon="7.8586547"><ele>5.2</ele><time>2026-04-09T15:56:58.371Z</time></trkpt><trkpt lat="43.835703" lon="7.8588068"><ele>4.6</ele><time>2026-04-09T15:56:59.37Z</time></trkpt><trkpt lat="43.8357402" lon="7.8589795"><ele>4.0</ele><time>2026-04-09T15:57:00.37Z</time></trkpt><trkpt lat="43.835778" lon="7.8591782"><ele>4.333333333333333</ele><time>2026-04-09T15:57:01.371Z</time></trkpt><trkpt lat="43.8358115" lon="7.8594011"><ele>4.666666666666667</ele><time>2026-04-09T15:57:02.371Z</time></trkpt><trkpt lat="43.8358367" lon="7.8596516"><ele>5.0</ele><time>2026-04-09T15:57:03.37Z</time></trkpt><trkpt lat="43.8358695" lon="7.8599081"><ele>5.0</ele><time>2026-04-09T15:57:04.37Z</time></trkpt><trkpt lat="43.8359055" lon="7.8601696"><ele>5.0</ele><time>2026-04-09T15:57:05.37Z</time></trkpt><trkpt lat="43.8359468" lon="7.8604346"><ele>5.0</ele><time>2026-04-09T15:57:06.371Z</time></trkpt><trkpt lat="43.8359957" lon="7.860702"><ele>5.333333333333334</ele><time>2026-04-09T15:57:07.371Z</time></trkpt><trkpt lat="43.8360426" lon="7.8609662"><ele>5.666666666666667</ele><time>2026-04-09T15:57:08.371Z</time></trkpt><trkpt lat="43.8360914" lon="7.8612162"><ele>6.0</ele><time>2026-04-09T15:57:09.37Z</time></trkpt><trkpt lat="43.8361385" lon="7.8614519"><ele>6.0</ele><time>2026-04-09T15:57:10.37Z</time></trkpt><trkpt lat="43.8361804" lon="7.861685"><ele>6.0</ele><time>2026-04-09T15:57:11.371Z</time></trkpt><trkpt lat="43.8362161" lon="7.8619057"><ele>6.0</ele><time>2026-04-09T15:57:12.37Z</time></trkpt><trkpt lat="43.8362493" lon="7.86211"><ele>6.25</ele><time>2026-04-09T15:57:13.371Z</time></trkpt><trkpt lat="43.8362795" lon="7.8622983"><ele>6.5</ele><time>2026-04-09T15:57:14.37Z</time></trkpt><trkpt lat="43.8363086" lon="7.8624783"><ele>6.75</ele><time>2026-04-09T15:57:15.37Z</time></trkpt><trkpt lat="43.8363337" lon="7.8626482"><ele>7.0</ele><time>2026-04-09T15:57:16.37Z</time></trkpt><trkpt lat="43.83636" lon="7.86281"><ele>6.5</ele><time>2026-04-09T15:57:17.37Z</time></trkpt><trkpt lat="43.8363872" lon="7.8629697"><ele>6.0</ele><time>2026-04-09T15:57:18.371Z</time></trkpt><trkpt lat="43.8364129" lon="7.8631202"><ele>5.5</ele><time>2026-04-09T15:57:19.37Z</time></trkpt><trkpt lat="43.8364418" lon="7.863283"><ele>5.0</ele><time>2026-04-09T15:57:20.37Z</time></trkpt><trkpt lat="43.8364703" lon="7.863476"><ele>5.0</ele><time>2026-04-09T15:57:21.37Z</time></trkpt><trkpt lat="43.836505" lon="7.8637039"><ele>5.0</ele><time>2026-04-09T15:57:22.37Z</time></trkpt><trkpt lat="43.8365407" lon="7.8639371"><ele>5.0</ele><time>2026-04-09T15:57:23.371Z</time></trkpt><trkpt lat="43.8365696" lon="7.8641537"><ele>5.0</ele><time>2026-04-09T15:57:24.371Z</time></trkpt><trkpt lat="43.8365986" lon="7.8643574"><ele>5.0</ele><time>2026-04-09T15:57:25.37Z</time></trkpt><trkpt lat="43.8366218" lon="7.864557"><ele>5.0</ele><time>2026-04-09T15:57:26.37Z</time></trkpt><trkpt lat="43.8366398" lon="7.8647542"><ele>5.0</ele><time>2026-04-09T15:57:27.37Z</time></trkpt><trkpt lat="43.8366451" lon="7.8649559"><ele>6.333333333333334</ele><time>2026-04-09T15:57:28.37Z</time></trkpt><trkpt lat="43.8366327" lon="7.8651741"><ele>7.666666666666667</ele><time>2026-04-09T15:57:29.37Z</time></trkpt><trkpt lat="43.8366005" lon="7.8653983"><ele>9.0</ele><time>2026-04-09T15:57:30.37Z</time></trkpt><trkpt lat="43.836543" lon="7.8656309"><ele>9.0</ele><time>2026-04-09T15:57:31.37Z</time></trkpt><trkpt lat="43.8364683" lon="7.8658435"><ele>9.0</ele><time>2026-04-09T15:57:32.371Z</time></trkpt><trkpt lat="43.8363778" lon="7.8660316"><ele>9.0</ele><time>2026-04-09T15:57:33.37Z</time></trkpt><trkpt lat="43.8362743" lon="7.8661979"><ele>8.5</ele><time>2026-04-09T15:57:34.371Z</time></trkpt><trkpt lat="43.836159" lon="7.8663413"><ele>8.0</ele><time>2026-04-09T15:57:35.37Z</time></trkpt><trkpt lat="43.8360371" lon="7.8664621"><ele>7.5</ele><time>2026-04-09T15:57:36.371Z</time></trkpt><trkpt lat="43.8359151" lon="7.8665642"><ele>7.0</ele><time>2026-04-09T15:57:37.37Z</time></trkpt><trkpt lat="43.8357999" lon="7.8666549"><ele>7.0</ele><time>2026-04-09T15:57:38.371Z</time></trkpt><trkpt lat="43.8356983" lon="7.8667387"><ele>6.999999999999999</ele><time>2026-04-09T15:57:39.37Z</time></trkpt><trkpt lat="43.8356077" lon="7.8668185"><ele>6.999999999999999</ele><time>2026-04-09T15:57:40.371Z</time></trkpt><trkpt lat="43.8355185" lon="7.8669048"><ele>7.0</ele><time>2026-04-09T15:57:41.37Z</time></trkpt><trkpt lat="43.8354426" lon="7.8670112"><ele>7.0</ele><time>2026-04-09T15:57:42.37Z</time></trkpt><trkpt lat="43.8353796" lon="7.8671362"><ele>8.0</ele><time>2026-04-09T15:57:43.37Z</time></trkpt><trkpt lat="43.8353385" lon="7.8672748"><ele>9.0</ele><time>2026-04-09T15:57:44.37Z</time></trkpt><trkpt lat="43.8353189" lon="7.8674377"><ele>10.0</ele><time>2026-04-09T15:57:45.37Z</time></trkpt><trkpt lat="43.8353288" lon="7.8676189"><ele>11.0</ele><time>2026-04-09T15:57:46.371Z</time></trkpt><trkpt lat="43.8353452" lon="7.867809"><ele>11.0</ele><time>2026-04-09T15:57:47.37Z</time></trkpt><trkpt lat="43.8353741" lon="7.8679846"><ele>11.0</ele><time>2026-04-09T15:57:48.371Z</time></trkpt><trkpt lat="43.8354054" lon="7.8681368"><ele>11.0</ele><time>2026-04-09T15:57:49.37Z</time></trkpt><trkpt lat="43.8354358" lon="7.8682874"><ele>11.0</ele><time>2026-04-09T15:57:50.37Z</time></trkpt><trkpt lat="43.8354672" lon="7.8684212"><ele>10.8</ele><time>2026-04-09T15:57:51.37Z</time></trkpt><trkpt lat="43.8354907" lon="7.8685457"><ele>10.600000000000001</ele><time>2026-04-09T15:57:52.37Z</time></trkpt><trkpt lat="43.83552" lon="7.868673"><ele>10.4</ele><time>2026-04-09T15:57:53.371Z</time></trkpt><trkpt lat="43.8355483" lon="7.8688066"><ele>10.2</ele><time>2026-04-09T15:57:54.37Z</time></trkpt><trkpt lat="43.8355782" lon="7.8689502"><ele>10.0</ele><time>2026-04-09T15:57:55.371Z</time></trkpt><trkpt lat="43.8356095" lon="7.8690993"><ele>10.0</ele><time>2026-04-09T15:57:56.371Z</time></trkpt><trkpt lat="43.8356449" lon="7.8692474"><ele>10.0</ele><time>2026-04-09T15:57:57.371Z</time></trkpt><trkpt lat="43.8356841" lon="7.8694085"><ele>10.0</ele><time>2026-04-09T15:57:58.37Z</time></trkpt><trkpt lat="43.8357246" lon="7.8695795"><ele>10.0</ele><time>2026-04-09T15:57:59.37Z</time></trkpt><trkpt lat="43.8357732" lon="7.8697791"><ele>9.333333333333334</ele><time>2026-04-09T15:58:00.371Z</time></trkpt><trkpt lat="43.8358217" lon="7.8700084"><ele>8.666666666666666</ele><time>2026-04-09T15:58:01.371Z</time></trkpt><trkpt lat="43.8358705" lon="7.8702387"><ele>8.0</ele><time>2026-04-09T15:58:02.37Z</time></trkpt><trkpt lat="43.8359229" lon="7.8704747"><ele>7.666666666666666</ele><time>2026-04-09T15:58:03.371Z</time></trkpt><trkpt lat="43.8359676" lon="7.8706971"><ele>7.333333333333334</ele><time>2026-04-09T15:58:04.37Z</time></trkpt><trkpt lat="43.8360152" lon="7.8709052"><ele>7.0</ele><time>2026-04-09T15:58:05.37Z</time></trkpt><trkpt lat="43.8360538" lon="7.8710947"><ele>9.0</ele><time>2026-04-09T15:58:06.37Z</time></trkpt><trkpt lat="43.8360899" lon="7.8712652"><ele>11.0</ele><time>2026-04-09T15:58:07.37Z</time></trkpt><trkpt lat="43.8361254" lon="7.8714355"><ele>13.0</ele><time>2026-04-09T15:58:08.371Z</time></trkpt><trkpt lat="43.8361693" lon="7.8716272"><ele>15.0</ele><time>2026-04-09T15:58:09.372Z</time></trkpt><trkpt lat="43.8362123" lon="7.8718274"><ele>15.0</ele><time>2026-04-09T15:58:10.371Z</time></trkpt><trkpt lat="43.8362558" lon="7.8720231"><ele>15.0</ele><time>2026-04-09T15:58:11.372Z</time></trkpt><trkpt lat="43.8363017" lon="7.8722132"><ele>15.0</ele><time>2026-04-09T15:58:12.372Z</time></trkpt><trkpt lat="43.836341" lon="7.8723825"><ele>15.0</ele><time>2026-04-09T15:58:13.372Z</time></trkpt><trkpt lat="43.8363739" lon="7.8725362"><ele>14.0</ele><time>2026-04-09T15:58:14.372Z</time></trkpt><trkpt lat="43.8364044" lon="7.872675"><ele>13.0</ele><time>2026-04-09T15:58:15.371Z</time></trkpt><trkpt lat="43.8364262" lon="7.8727993"><ele>12.0</ele><time>2026-04-09T15:58:16.372Z</time></trkpt><trkpt lat="43.8364541" lon="7.872893"><ele>11.0</ele><time>2026-04-09T15:58:17.372Z</time></trkpt><trkpt lat="43.8364853" lon="7.8730174"><ele>10.0</ele><time>2026-04-09T15:58:19.372Z</time></trkpt><trkpt lat="43.8365448" lon="7.8732164"><ele>10.0</ele><time>2026-04-09T15:58:38.372Z</time></trkpt><trkpt lat="43.836572" lon="7.8733353"><ele>10.0</ele><time>2026-04-09T15:58:39.372Z</time></trkpt><trkpt lat="43.8366008" lon="7.8734999"><ele>10.0</ele><time>2026-04-09T15:58:40.372Z</time></trkpt><trkpt lat="43.8366425" lon="7.873686"><ele>10.0</ele><time>2026-04-09T15:58:41.371Z</time></trkpt><trkpt lat="43.8366933" lon="7.8739035"><ele>10.333333333333334</ele><time>2026-04-09T15:58:42.372Z</time></trkpt><trkpt lat="43.8367487" lon="7.8741306"><ele>10.666666666666666</ele><time>2026-04-09T15:58:43.372Z</time></trkpt><trkpt lat="43.8367936" lon="7.8743366"><ele>11.0</ele><time>2026-04-09T15:58:44.371Z</time></trkpt><trkpt lat="43.8368356" lon="7.8745142"><ele>12.0</ele><time>2026-04-09T15:58:45.371Z</time></trkpt><trkpt lat="43.8368745" lon="7.8746905"><ele>13.0</ele><time>2026-04-09T15:58:46.372Z</time></trkpt><trkpt lat="43.8369269" lon="7.8748668"><ele>14.0</ele><time>2026-04-09T15:58:47.372Z</time></trkpt><trkpt lat="43.8369894" lon="7.8750467"><ele>15.0</ele><time>2026-04-09T15:58:48.372Z</time></trkpt><trkpt lat="43.8370573" lon="7.8752305"><ele>15.0</ele><time>2026-04-09T15:58:49.371Z</time></trkpt><trkpt lat="43.8371228" lon="7.8754035"><ele>15.0</ele><time>2026-04-09T15:58:50.372Z</time></trkpt><trkpt lat="43.8371919" lon="7.8755636"><ele>15.0</ele><time>2026-04-09T15:58:51.372Z</time></trkpt><trkpt lat="43.8372651" lon="7.8757319"><ele>15.0</ele><time>2026-04-09T15:58:52.372Z</time></trkpt><trkpt lat="43.8373468" lon="7.8758862"><ele>14.25</ele><time>2026-04-09T15:58:53.372Z</time></trkpt><trkpt lat="43.837423" lon="7.876032"><ele>13.5</ele><time>2026-04-09T15:58:54.371Z</time></trkpt><trkpt lat="43.8375053" lon="7.876181"><ele>12.75</ele><time>2026-04-09T15:58:55.371Z</time></trkpt><trkpt lat="43.8375947" lon="7.8763266"><ele>12.0</ele><time>2026-04-09T15:58:56.372Z</time></trkpt><trkpt lat="43.8376827" lon="7.8764685"><ele>12.5</ele><time>2026-04-09T15:58:57.372Z</time></trkpt><trkpt lat="43.8377672" lon="7.8765852"><ele>13.0</ele><time>2026-04-09T15:58:58.372Z</time></trkpt><trkpt lat="43.8378561" lon="7.8766863"><ele>13.5</ele><time>2026-04-09T15:58:59.371Z</time></trkpt><trkpt lat="43.8379443" lon="7.8767926"><ele>14.0</ele><time>2026-04-09T15:59:00.372Z</time></trkpt><trkpt lat="43.8380368" lon="7.8768989"><ele>14.0</ele><time>2026-04-09T15:59:01.372Z</time></trkpt><trkpt lat="43.8381097" lon="7.8769684"><ele>13.999999999999998</ele><time>2026-04-09T15:59:02.372Z</time></trkpt><trkpt lat="43.8382142" lon="7.877044"><ele>13.999999999999998</ele><time>2026-04-09T15:59:04.372Z</time></trkpt><trkpt lat="43.8382821" lon="7.8771167"><ele>14.0</ele><time>2026-04-09T15:59:05.372Z</time></trkpt><trkpt lat="43.8383702" lon="7.8772093"><ele>14.0</ele><time>2026-04-09T15:59:06.372Z</time></trkpt><trkpt lat="43.838467" lon="7.8773025"><ele>14.2</ele><time>2026-04-09T15:59:07.372Z</time></trkpt><trkpt lat="43.8385532" lon="7.8773854"><ele>14.399999999999999</ele><time>2026-04-09T15:59:08.372Z</time></trkpt><trkpt lat="43.8386299" lon="7.8774673"><ele>14.6</ele><time>2026-04-09T15:59:09.372Z</time></trkpt><trkpt lat="43.8387058" lon="7.8775583"><ele>14.8</ele><time>2026-04-09T15:59:10.371Z</time></trkpt><trkpt lat="43.8387817" lon="7.8776657"><ele>15.0</ele><time>2026-04-09T15:59:11.372Z</time></trkpt><trkpt lat="43.8388581" lon="7.8777822"><ele>14.0</ele><time>2026-04-09T15:59:12.372Z</time></trkpt><trkpt lat="43.838926" lon="7.8779089"><ele>13.0</ele><time>2026-04-09T15:59:13.371Z</time></trkpt><trkpt lat="43.838997" lon="7.8780336"><ele>12.0</ele><time>2026-04-09T15:59:14.371Z</time></trkpt><trkpt lat="43.8390703" lon="7.8781636"><ele>11.0</ele><time>2026-04-09T15:59:15.371Z</time></trkpt><trkpt lat="43.8391375" lon="7.8783054"><ele>11.4</ele><time>2026-04-09T15:59:16.371Z</time></trkpt><trkpt lat="43.8391895" lon="7.8784512"><ele>11.8</ele><time>2026-04-09T15:59:17.371Z</time></trkpt><trkpt lat="43.839239" lon="7.8785898"><ele>12.200000000000001</ele><time>2026-04-09T15:59:18.372Z</time></trkpt><trkpt lat="43.8392808" lon="7.8787292"><ele>12.600000000000001</ele><time>2026-04-09T15:59:19.371Z</time></trkpt><trkpt lat="43.8393136" lon="7.878873"><ele>13.0</ele><time>2026-04-09T15:59:20.371Z</time></trkpt><trkpt lat="43.839343" lon="7.8790107"><ele>13.999999999999998</ele><time>2026-04-09T15:59:21.372Z</time></trkpt><trkpt lat="43.8393643" lon="7.8791323"><ele>15.0</ele><time>2026-04-09T15:59:22.371Z</time></trkpt><trkpt lat="43.8393853" lon="7.8792486"><ele>16.0</ele><time>2026-04-09T15:59:23.371Z</time></trkpt><trkpt lat="43.839403" lon="7.8793588"><ele>17.0</ele><time>2026-04-09T15:59:24.372Z</time></trkpt><trkpt lat="43.839419" lon="7.8794526"><ele>18.0</ele><time>2026-04-09T15:59:25.371Z</time></trkpt><trkpt lat="43.8394523" lon="7.8796075"><ele>19.0</ele><time>2026-04-09T15:59:27.372Z</time></trkpt><trkpt lat="43.8394696" lon="7.8797217"><ele>19.0</ele><time>2026-04-09T15:59:29.371Z</time></trkpt><trkpt lat="43.8394771" lon="7.8798588"><ele>19.0</ele><time>2026-04-09T15:59:50.371Z</time></trkpt><trkpt lat="43.8394909" lon="7.8799908"><ele>19.0</ele><time>2026-04-09T15:59:51.371Z</time></trkpt><trkpt lat="43.839517" lon="7.8801415"><ele>19.0</ele><time>2026-04-09T15:59:52.372Z</time></trkpt><trkpt lat="43.8395433" lon="7.880309"><ele>19.0</ele><time>2026-04-09T15:59:53.372Z</time></trkpt><trkpt lat="43.8395743" lon="7.8805124"><ele>19.333333333333332</ele><time>2026-04-09T15:59:54.371Z</time></trkpt><trkpt lat="43.8396042" lon="7.8807317"><ele>19.666666666666668</ele><time>2026-04-09T15:59:55.371Z</time></trkpt><trkpt lat="43.8396409" lon="7.8809643"><ele>20.0</ele><time>2026-04-09T15:59:56.372Z</time></trkpt><trkpt lat="43.8396723" lon="7.881201"><ele>20.0</ele><time>2026-04-09T15:59:57.371Z</time></trkpt><trkpt lat="43.8397083" lon="7.8814533"><ele>20.0</ele><time>2026-04-09T15:59:58.373Z</time></trkpt><trkpt lat="43.8397521" lon="7.8817281"><ele>20.0</ele><time>2026-04-09T15:59:59.374Z</time></trkpt><trkpt lat="43.8397926" lon="7.8820061"><ele>19.333333333333336</ele><time>2026-04-09T16:00:00.374Z</time></trkpt><trkpt lat="43.8398337" lon="7.8822872"><ele>18.666666666666668</ele><time>2026-04-09T16:00:01.374Z</time></trkpt><trkpt lat="43.8398754" lon="7.8825683"><ele>18.0</ele><time>2026-04-09T16:00:02.374Z</time></trkpt><trkpt lat="43.8399143" lon="7.8828434"><ele>18.0</ele><time>2026-04-09T16:00:03.374Z</time></trkpt><trkpt lat="43.8399529" lon="7.8831186"><ele>18.0</ele><time>2026-04-09T16:00:04.374Z</time></trkpt><trkpt lat="43.839993" lon="7.8833948"><ele>18.0</ele><time>2026-04-09T16:00:05.373Z</time></trkpt><trkpt lat="43.8400312" lon="7.8836786"><ele>18.0</ele><time>2026-04-09T16:00:06.373Z</time></trkpt><trkpt lat="43.8400792" lon="7.8839713"><ele>18.0</ele><time>2026-04-09T16:00:07.373Z</time></trkpt><trkpt lat="43.8401263" lon="7.8842776"><ele>18.0</ele><time>2026-04-09T16:00:08.374Z</time></trkpt><trkpt lat="43.8401735" lon="7.8845797"><ele>18.0</ele><time>2026-04-09T16:00:09.374Z</time></trkpt><trkpt lat="43.8402161" lon="7.8848738"><ele>18.0</ele><time>2026-04-09T16:00:10.374Z</time></trkpt><trkpt lat="43.8402577" lon="7.8851667"><ele>18.0</ele><time>2026-04-09T16:00:11.374Z</time></trkpt><trkpt lat="43.8402547" lon="7.8854425"><ele>18.333333333333332</ele><time>2026-04-09T16:00:12.373Z</time></trkpt><trkpt lat="43.8402303" lon="7.8857171"><ele>18.666666666666664</ele><time>2026-04-09T16:00:13.374Z</time></trkpt><trkpt lat="43.8401668" lon="7.8859876"><ele>19.0</ele><time>2026-04-09T16:00:14.374Z</time></trkpt><trkpt lat="43.8400788" lon="7.8862298"><ele>19.0</ele><time>2026-04-09T16:00:15.374Z</time></trkpt><trkpt lat="43.8399902" lon="7.8864708"><ele>19.0</ele><time>2026-04-09T16:00:16.373Z</time></trkpt><trkpt lat="43.8399109" lon="7.8867291"><ele>19.0</ele><time>2026-04-09T16:00:17.374Z</time></trkpt><trkpt lat="43.8398574" lon="7.8870126"><ele>19.666666666666664</ele><time>2026-04-09T16:00:18.374Z</time></trkpt><trkpt lat="43.8398289" lon="7.8872818"><ele>20.333333333333332</ele><time>2026-04-09T16:00:19.373Z</time></trkpt><trkpt lat="43.8398202" lon="7.8875388"><ele>21.0</ele><time>2026-04-09T16:00:20.373Z</time></trkpt><trkpt lat="43.8398146" lon="7.8877673"><ele>21.25</ele><time>2026-04-09T16:00:21.374Z</time></trkpt><trkpt lat="43.8398077" lon="7.8879803"><ele>21.5</ele><time>2026-04-09T16:00:22.374Z</time></trkpt><trkpt lat="43.8398072" lon="7.8881743"><ele>21.75</ele><time>2026-04-09T16:00:23.373Z</time></trkpt><trkpt lat="43.8398033" lon="7.8883558"><ele>22.0</ele><time>2026-04-09T16:00:24.374Z</time></trkpt><trkpt lat="43.8398003" lon="7.8885406"><ele>22.0</ele><time>2026-04-09T16:00:25.374Z</time></trkpt><trkpt lat="43.8398003" lon="7.8887439"><ele>22.0</ele><time>2026-04-09T16:00:26.373Z</time></trkpt><trkpt lat="43.8397965" lon="7.8889584"><ele>22.0</ele><time>2026-04-09T16:00:27.374Z</time></trkpt><trkpt lat="43.8397926" lon="7.8891991"><ele>23.0</ele><time>2026-04-09T16:00:28.373Z</time></trkpt><trkpt lat="43.8397798" lon="7.8894586"><ele>24.0</ele><time>2026-04-09T16:00:29.373Z</time></trkpt><trkpt lat="43.839765" lon="7.8897404"><ele>25.0</ele><time>2026-04-09T16:00:30.374Z</time></trkpt><trkpt lat="43.8397508" lon="7.8900184"><ele>25.0</ele><time>2026-04-09T16:00:31.373Z</time></trkpt><trkpt lat="43.83974" lon="7.8902974"><ele>25.0</ele><time>2026-04-09T16:00:32.374Z</time></trkpt><trkpt lat="43.8397188" lon="7.8905825"><ele>25.0</ele><time>2026-04-09T16:00:33.373Z</time></trkpt><trkpt lat="43.8396719" lon="7.8908504"><ele>25.666666666666668</ele><time>2026-04-09T16:00:34.373Z</time></trkpt><trkpt lat="43.8395909" lon="7.8910949"><ele>26.333333333333336</ele><time>2026-04-09T16:00:35.373Z</time></trkpt><trkpt lat="43.8394819" lon="7.8913242"><ele>27.0</ele><time>2026-04-09T16:00:36.374Z</time></trkpt><trkpt lat="43.8393477" lon="7.89151"><ele>26.333333333333336</ele><time>2026-04-09T16:00:37.374Z</time></trkpt><trkpt lat="43.8391956" lon="7.8916839"><ele>25.666666666666668</ele><time>2026-04-09T16:00:38.374Z</time></trkpt><trkpt lat="43.8390495" lon="7.8918629"><ele>25.0</ele><time>2026-04-09T16:00:39.374Z</time></trkpt><trkpt lat="43.8389246" lon="7.8920747"><ele>25.0</ele><time>2026-04-09T16:00:40.374Z</time></trkpt><trkpt lat="43.8388257" lon="7.8923313"><ele>25.0</ele><time>2026-04-09T16:00:41.374Z</time></trkpt><trkpt lat="43.8387568" lon="7.8926268"><ele>25.0</ele><time>2026-04-09T16:00:42.374Z</time></trkpt><trkpt lat="43.8387136" lon="7.8929189"><ele>26.0</ele><time>2026-04-09T16:00:43.373Z</time></trkpt><trkpt lat="43.8386803" lon="7.8931865"><ele>27.0</ele><time>2026-04-09T16:00:44.373Z</time></trkpt><trkpt lat="43.8386546" lon="7.8934272"><ele>28.0</ele><time>2026-04-09T16:00:45.374Z</time></trkpt><trkpt lat="43.8386301" lon="7.8936339"><ele>28.25</ele><time>2026-04-09T16:00:46.374Z</time></trkpt><trkpt lat="43.8386037" lon="7.8938255"><ele>28.5</ele><time>2026-04-09T16:00:47.373Z</time></trkpt><trkpt lat="43.8385806" lon="7.894003"><ele>28.75</ele><time>2026-04-09T16:00:48.373Z</time></trkpt><trkpt lat="43.8385622" lon="7.8941791"><ele>29.0</ele><time>2026-04-09T16:00:49.373Z</time></trkpt><trkpt lat="43.8385351" lon="7.8943623"><ele>30.5</ele><time>2026-04-09T16:00:50.373Z</time></trkpt><trkpt lat="43.8385054" lon="7.8945601"><ele>32.0</ele><time>2026-04-09T16:00:51.374Z</time></trkpt><trkpt lat="43.8384796" lon="7.894746"><ele>33.5</ele><time>2026-04-09T16:00:52.373Z</time></trkpt><trkpt lat="43.8384562" lon="7.89492"><ele>35.0</ele><time>2026-04-09T16:00:53.374Z</time></trkpt><trkpt lat="43.8384403" lon="7.8950839"><ele>35.666666666666664</ele><time>2026-04-09T16:00:54.373Z</time></trkpt><trkpt lat="43.8384333" lon="7.8952275"><ele>36.33333333333333</ele><time>2026-04-09T16:00:55.374Z</time></trkpt><trkpt lat="43.8384333" lon="7.895353"><ele>37.0</ele><time>2026-04-09T16:00:56.373Z</time></trkpt><trkpt lat="43.8384365" lon="7.8954706"><ele>37.666666666666664</ele><time>2026-04-09T16:00:57.374Z</time></trkpt><trkpt lat="43.8384406" lon="7.8955777"><ele>38.333333333333336</ele><time>2026-04-09T16:00:58.373Z</time></trkpt><trkpt lat="43.8384507" lon="7.8956953"><ele>39.0</ele><time>2026-04-09T16:00:59.374Z</time></trkpt><trkpt lat="43.8384688" lon="7.8958398"><ele>38.25</ele><time>2026-04-09T16:01:00.373Z</time></trkpt><trkpt lat="43.8384921" lon="7.8960178"><ele>37.5</ele><time>2026-04-09T16:01:01.374Z</time></trkpt><trkpt lat="43.8385186" lon="7.8962008"><ele>36.75</ele><time>2026-04-09T16:01:02.374Z</time></trkpt><trkpt lat="43.838547" lon="7.8963917"><ele>36.0</ele><time>2026-04-09T16:01:03.374Z</time></trkpt><trkpt lat="43.838567" lon="7.896572"><ele>36.0</ele><time>2026-04-09T16:01:04.373Z</time></trkpt><trkpt lat="43.8385828" lon="7.8967361"><ele>36.0</ele><time>2026-04-09T16:01:05.373Z</time></trkpt><trkpt lat="43.8385993" lon="7.8968864"><ele>36.0</ele><time>2026-04-09T16:01:06.373Z</time></trkpt><trkpt lat="43.838615" lon="7.8970232"><ele>36.0</ele><time>2026-04-09T16:01:07.374Z</time></trkpt><trkpt lat="43.8386293" lon="7.8971524"><ele>36.0</ele><time>2026-04-09T16:01:08.374Z</time></trkpt><trkpt lat="43.8386335" lon="7.8972657"><ele>34.5</ele><time>2026-04-09T16:01:09.373Z</time></trkpt><trkpt lat="43.8386361" lon="7.8973613"><ele>33.0</ele><time>2026-04-09T16:01:10.374Z</time></trkpt><trkpt lat="43.8386331" lon="7.8974746"><ele>31.5</ele><time>2026-04-09T16:01:12.373Z</time></trkpt><trkpt lat="43.8386175" lon="7.8975897"><ele>30.0</ele><time>2026-04-09T16:01:16.374Z</time></trkpt><trkpt lat="43.8386089" lon="7.8977003"><ele>28.5</ele><time>2026-04-09T16:01:17.374Z</time></trkpt><trkpt lat="43.8385911" lon="7.897856"><ele>27.0</ele><time>2026-04-09T16:01:18.375Z</time></trkpt><trkpt lat="43.8385631" lon="7.8980136"><ele>26.5</ele><time>2026-04-09T16:01:19.374Z</time></trkpt><trkpt lat="43.8385293" lon="7.8981702"><ele>26.0</ele><time>2026-04-09T16:01:20.375Z</time></trkpt><trkpt lat="43.8384887" lon="7.8983192"><ele>25.5</ele><time>2026-04-09T16:01:21.374Z</time></trkpt><trkpt lat="43.8384453" lon="7.8984644"><ele>25.0</ele><time>2026-04-09T16:01:22.374Z</time></trkpt><trkpt lat="43.8384002" lon="7.8986116"><ele>24.0</ele><time>2026-04-09T16:01:23.374Z</time></trkpt><trkpt lat="43.8383576" lon="7.8987487"><ele>23.0</ele><time>2026-04-09T16:01:24.375Z</time></trkpt><trkpt lat="43.8383147" lon="7.898883"><ele>22.0</ele><time>2026-04-09T16:01:25.374Z</time></trkpt><trkpt lat="43.8382675" lon="7.8990185"><ele>21.0</ele><time>2026-04-09T16:01:26.375Z</time></trkpt><trkpt lat="43.8382189" lon="7.8991649"><ele>20.0</ele><time>2026-04-09T16:01:27.375Z</time></trkpt><trkpt lat="43.8381661" lon="7.8993114"><ele>20.0</ele><time>2026-04-09T16:01:28.375Z</time></trkpt><trkpt lat="43.838119" lon="7.899456"><ele>20.0</ele><time>2026-04-09T16:01:29.375Z</time></trkpt><trkpt lat="43.8380729" lon="7.8995992"><ele>20.0</ele><time>2026-04-09T16:01:30.375Z</time></trkpt><trkpt lat="43.8380314" lon="7.8997415"><ele>20.0</ele><time>2026-04-09T16:01:31.374Z</time></trkpt><trkpt lat="43.8379873" lon="7.8998861"><ele>20.0</ele><time>2026-04-09T16:01:32.375Z</time></trkpt><trkpt lat="43.8379376" lon="7.9000348"><ele>20.0</ele><time>2026-04-09T16:01:33.375Z</time></trkpt><trkpt lat="43.837887" lon="7.9001732"><ele>20.0</ele><time>2026-04-09T16:01:34.374Z</time></trkpt><trkpt lat="43.8378324" lon="7.9003153"><ele>20.0</ele><time>2026-04-09T16:01:35.374Z</time></trkpt><trkpt lat="43.8377714" lon="7.9004527"><ele>20.0</ele><time>2026-04-09T16:01:36.374Z</time></trkpt><trkpt lat="43.8377029" lon="7.9005814"><ele>20.0</ele><time>2026-04-09T16:01:37.375Z</time></trkpt><trkpt lat="43.8376309" lon="7.9007129"><ele>20.0</ele><time>2026-04-09T16:01:38.375Z</time></trkpt><trkpt lat="43.8375499" lon="7.900865"><ele>20.0</ele><time>2026-04-09T16:01:39.375Z</time></trkpt><trkpt lat="43.8374656" lon="7.9010315"><ele>20.0</ele><time>2026-04-09T16:01:40.374Z</time></trkpt><trkpt lat="43.8373825" lon="7.9012263"><ele>20.0</ele><time>2026-04-09T16:01:41.374Z</time></trkpt><trkpt lat="43.8373046" lon="7.9014373"><ele>20.0</ele><time>2026-04-09T16:01:42.374Z</time></trkpt><trkpt lat="43.8372375" lon="7.9016632"><ele>21.0</ele><time>2026-04-09T16:01:43.375Z</time></trkpt><trkpt lat="43.8371883" lon="7.9019034"><ele>22.0</ele><time>2026-04-09T16:01:44.374Z</time></trkpt><trkpt lat="43.8371487" lon="7.9021607"><ele>23.0</ele><time>2026-04-09T16:01:45.374Z</time></trkpt><trkpt lat="43.8371278" lon="7.9024384"><ele>24.0</ele><time>2026-04-09T16:01:46.375Z</time></trkpt><trkpt lat="43.8371245" lon="7.9027241"><ele>25.0</ele><time>2026-04-09T16:01:47.375Z</time></trkpt><trkpt lat="43.8371305" lon="7.9030081"><ele>26.0</ele><time>2026-04-09T16:01:48.375Z</time></trkpt><trkpt lat="43.8371356" lon="7.9032949"><ele>26.333333333333332</ele><time>2026-04-09T16:01:49.374Z</time></trkpt><trkpt lat="43.8371453" lon="7.9035873"><ele>26.666666666666664</ele><time>2026-04-09T16:01:50.375Z</time></trkpt><trkpt lat="43.8371631" lon="7.9038815"><ele>27.0</ele><time>2026-04-09T16:01:51.375Z</time></trkpt><trkpt lat="43.8371989" lon="7.9041687"><ele>25.0</ele><time>2026-04-09T16:01:52.375Z</time></trkpt><trkpt lat="43.8372511" lon="7.9044634"><ele>23.0</ele><time>2026-04-09T16:01:53.374Z</time></trkpt><trkpt lat="43.8373169" lon="7.9047615"><ele>21.0</ele><time>2026-04-09T16:01:54.375Z</time></trkpt><trkpt lat="43.8373966" lon="7.9050549"><ele>18.0</ele><time>2026-04-09T16:01:55.375Z</time></trkpt><trkpt lat="43.8374746" lon="7.9053523"><ele>15.0</ele><time>2026-04-09T16:01:56.374Z</time></trkpt><trkpt lat="43.8375501" lon="7.9056412"><ele>13.666666666666666</ele><time>2026-04-09T16:01:57.375Z</time></trkpt><trkpt lat="43.8376225" lon="7.9059161"><ele>12.333333333333332</ele><time>2026-04-09T16:01:58.374Z</time></trkpt><trkpt lat="43.837693" lon="7.9061942"><ele>11.0</ele><time>2026-04-09T16:01:59.374Z</time></trkpt><trkpt lat="43.8377637" lon="7.9064684"><ele>14.333333333333332</ele><time>2026-04-09T16:02:00.375Z</time></trkpt><trkpt lat="43.8378412" lon="7.9067372"><ele>17.666666666666668</ele><time>2026-04-09T16:02:01.374Z</time></trkpt><trkpt lat="43.8379405" lon="7.9070028"><ele>21.0</ele><time>2026-04-09T16:02:02.374Z</time></trkpt><trkpt lat="43.838063" lon="7.9072808"><ele>21.0</ele><time>2026-04-09T16:02:03.374Z</time></trkpt><trkpt lat="43.8382199" lon="7.9075424"><ele>21.0</ele><time>2026-04-09T16:02:04.374Z</time></trkpt><trkpt lat="43.8383932" lon="7.9077972"><ele>25.5</ele><time>2026-04-09T16:02:05.375Z</time></trkpt><trkpt lat="43.8385688" lon="7.908046"><ele>30.0</ele><time>2026-04-09T16:02:06.374Z</time></trkpt><trkpt lat="43.8387446" lon="7.9082937"><ele>22.0</ele><time>2026-04-09T16:02:07.374Z</time></trkpt><trkpt lat="43.8389043" lon="7.9085526"><ele>14.0</ele><time>2026-04-09T16:02:08.375Z</time></trkpt><trkpt lat="43.8390563" lon="7.908812"><ele>14.0</ele><time>2026-04-09T16:02:09.374Z</time></trkpt><trkpt lat="43.8391907" lon="7.9090643"><ele>14.0</ele><time>2026-04-09T16:02:10.375Z</time></trkpt><trkpt lat="43.8393213" lon="7.909322"><ele>22.0</ele><time>2026-04-09T16:02:11.375Z</time></trkpt><trkpt lat="43.8394561" lon="7.9095743"><ele>30.0</ele><time>2026-04-09T16:02:12.374Z</time></trkpt><trkpt lat="43.8395877" lon="7.9098299"><ele>23.0</ele><time>2026-04-09T16:02:13.374Z</time></trkpt><trkpt lat="43.8397211" lon="7.9100963"><ele>16.0</ele><time>2026-04-09T16:02:14.374Z</time></trkpt><trkpt lat="43.8398574" lon="7.9103662"><ele>16.0</ele><time>2026-04-09T16:02:15.375Z</time></trkpt><trkpt lat="43.8399865" lon="7.9106522"><ele>16.0</ele><time>2026-04-09T16:02:16.375Z</time></trkpt><trkpt lat="43.8401193" lon="7.9109381"><ele>22.5</ele><time>2026-04-09T16:02:17.374Z</time></trkpt><trkpt lat="43.840256" lon="7.9112334"><ele>29.0</ele><time>2026-04-09T16:02:18.375Z</time></trkpt><trkpt lat="43.8403848" lon="7.9115326"><ele>23.5</ele><time>2026-04-09T16:02:19.374Z</time></trkpt><trkpt lat="43.8405099" lon="7.9118374"><ele>18.0</ele><time>2026-04-09T16:02:20.374Z</time></trkpt><trkpt lat="43.8406292" lon="7.9121435"><ele>18.0</ele><time>2026-04-09T16:02:21.375Z</time></trkpt><trkpt lat="43.840739" lon="7.9124557"><ele>18.0</ele><time>2026-04-09T16:02:22.374Z</time></trkpt><trkpt lat="43.8408524" lon="7.9127674"><ele>19.0</ele><time>2026-04-09T16:02:23.375Z</time></trkpt><trkpt lat="43.8409735" lon="7.9130659"><ele>20.0</ele><time>2026-04-09T16:02:24.374Z</time></trkpt><trkpt lat="43.8411096" lon="7.913358"><ele>15.5</ele><time>2026-04-09T16:02:25.374Z</time></trkpt><trkpt lat="43.841264" lon="7.9136199"><ele>11.0</ele><time>2026-04-09T16:02:26.374Z</time></trkpt><trkpt lat="43.8414416" lon="7.9138569"><ele>11.0</ele><time>2026-04-09T16:02:27.374Z</time></trkpt><trkpt lat="43.8416314" lon="7.9140786"><ele>11.0</ele><time>2026-04-09T16:02:28.374Z</time></trkpt><trkpt lat="43.8418321" lon="7.9143011"><ele>13.5</ele><time>2026-04-09T16:02:29.374Z</time></trkpt><trkpt lat="43.8420343" lon="7.9145243"><ele>16.0</ele><time>2026-04-09T16:02:30.375Z</time></trkpt><trkpt lat="43.8422289" lon="7.9147468"><ele>16.0</ele><time>2026-04-09T16:02:31.375Z</time></trkpt><trkpt lat="43.8424209" lon="7.9149729"><ele>16.0</ele><time>2026-04-09T16:02:32.374Z</time></trkpt><trkpt lat="43.8426105" lon="7.9151846"><ele>16.5</ele><time>2026-04-09T16:02:33.375Z</time></trkpt><trkpt lat="43.8427853" lon="7.9153974"><ele>17.0</ele><time>2026-04-09T16:02:34.374Z</time></trkpt><trkpt lat="43.8429489" lon="7.9156"><ele>17.0</ele><time>2026-04-09T16:02:35.374Z</time></trkpt><trkpt lat="43.8431039" lon="7.915814"><ele>17.0</ele><time>2026-04-09T16:02:36.374Z</time></trkpt><trkpt lat="43.8432328" lon="7.9160419"><ele>17.0</ele><time>2026-04-09T16:02:37.375Z</time></trkpt><trkpt lat="43.8433465" lon="7.9162946"><ele>18.666666666666668</ele><time>2026-04-09T16:02:38.374Z</time></trkpt><trkpt lat="43.8434483" lon="7.9165533"><ele>20.333333333333332</ele><time>2026-04-09T16:02:39.375Z</time></trkpt><trkpt lat="43.8435362" lon="7.916841"><ele>22.0</ele><time>2026-04-09T16:02:40.374Z</time></trkpt><trkpt lat="43.8436101" lon="7.9171613"><ele>22.0</ele><time>2026-04-09T16:02:41.375Z</time></trkpt><trkpt lat="43.8436758" lon="7.917509"><ele>22.0</ele><time>2026-04-09T16:02:42.374Z</time></trkpt><trkpt lat="43.8437424" lon="7.9178647"><ele>19.0</ele><time>2026-04-09T16:02:43.375Z</time></trkpt><trkpt lat="43.8438155" lon="7.9182295"><ele>16.0</ele><time>2026-04-09T16:02:44.374Z</time></trkpt><trkpt lat="43.843896" lon="7.9185903"><ele>12.0</ele><time>2026-04-09T16:02:45.374Z</time></trkpt><trkpt lat="43.8439822" lon="7.9189383"><ele>8.0</ele><time>2026-04-09T16:02:46.374Z</time></trkpt><trkpt lat="43.8440905" lon="7.9192856"><ele>7.0</ele><time>2026-04-09T16:02:47.375Z</time></trkpt><trkpt lat="43.8442082" lon="7.9196261"><ele>6.0</ele><time>2026-04-09T16:02:48.375Z</time></trkpt><trkpt lat="43.8443285" lon="7.9199605"><ele>14.0</ele><time>2026-04-09T16:02:49.375Z</time></trkpt><trkpt lat="43.8444358" lon="7.9202961"><ele>22.0</ele><time>2026-04-09T16:02:50.374Z</time></trkpt><trkpt lat="43.8445298" lon="7.9206443"><ele>20.0</ele><time>2026-04-09T16:02:51.375Z</time></trkpt><trkpt lat="43.8446063" lon="7.921001"><ele>18.0</ele><time>2026-04-09T16:02:52.374Z</time></trkpt><trkpt lat="43.8446681" lon="7.9213571"><ele>18.0</ele><time>2026-04-09T16:02:53.375Z</time></trkpt><trkpt lat="43.8447104" lon="7.9217128"><ele>18.0</ele><time>2026-04-09T16:02:54.374Z</time></trkpt><trkpt lat="43.8447424" lon="7.9220614"><ele>18.0</ele><time>2026-04-09T16:02:55.374Z</time></trkpt><trkpt lat="43.8447679" lon="7.9224227"><ele>18.0</ele><time>2026-04-09T16:02:56.375Z</time></trkpt><trkpt lat="43.8447803" lon="7.9227946"><ele>18.0</ele><time>2026-04-09T16:02:57.374Z</time></trkpt><trkpt lat="43.8447857" lon="7.9231729"><ele>18.0</ele><time>2026-04-09T16:02:58.374Z</time></trkpt><trkpt lat="43.8447797" lon="7.9235628"><ele>18.0</ele><time>2026-04-09T16:02:59.374Z</time></trkpt><trkpt lat="43.8447637" lon="7.9239631"><ele>18.0</ele><time>2026-04-09T16:03:00.375Z</time></trkpt><trkpt lat="43.8447471" lon="7.9243717"><ele>18.0</ele><time>2026-04-09T16:03:01.374Z</time></trkpt><trkpt lat="43.8447297" lon="7.9247681"><ele>18.0</ele><time>2026-04-09T16:03:02.374Z</time></trkpt><trkpt lat="43.8447196" lon="7.9251438"><ele>19.5</ele><time>2026-04-09T16:03:03.375Z</time></trkpt><trkpt lat="43.8447199" lon="7.9255088"><ele>21.0</ele><time>2026-04-09T16:03:04.375Z</time></trkpt><trkpt lat="43.844733" lon="7.9258735"><ele>22.0</ele><time>2026-04-09T16:03:05.374Z</time></trkpt><trkpt lat="43.8447654" lon="7.9262493"><ele>23.0</ele><time>2026-04-09T16:03:06.374Z</time></trkpt><trkpt lat="43.8448065" lon="7.9266001"><ele>23.5</ele><time>2026-04-09T16:03:07.375Z</time></trkpt><trkpt lat="43.8448488" lon="7.9269455"><ele>24.0</ele><time>2026-04-09T16:03:08.375Z</time></trkpt><trkpt lat="43.8448874" lon="7.9272788"><ele>23.0</ele><time>2026-04-09T16:03:09.375Z</time></trkpt><trkpt lat="43.8449228" lon="7.927609"><ele>22.0</ele><time>2026-04-09T16:03:10.374Z</time></trkpt><trkpt lat="43.8449538" lon="7.9279363"><ele>22.0</ele><time>2026-04-09T16:03:11.375Z</time></trkpt><trkpt lat="43.8449663" lon="7.9282477"><ele>22.0</ele><time>2026-04-09T16:03:12.374Z</time></trkpt><trkpt lat="43.8449704" lon="7.9285426"><ele>22.0</ele><time>2026-04-09T16:03:13.374Z</time></trkpt><trkpt lat="43.8449697" lon="7.9288222"><ele>22.0</ele><time>2026-04-09T16:03:14.375Z</time></trkpt><trkpt lat="43.8449655" lon="7.9290947"><ele>22.0</ele><time>2026-04-09T16:03:15.375Z</time></trkpt><trkpt lat="43.8449573" lon="7.9293632"><ele>22.0</ele><time>2026-04-09T16:03:16.375Z</time></trkpt><trkpt lat="43.8449318" lon="7.9296049"><ele>22.0</ele><time>2026-04-09T16:03:17.375Z</time></trkpt><trkpt lat="43.8448968" lon="7.9298323"><ele>22.0</ele><time>2026-04-09T16:03:18.375Z</time></trkpt><trkpt lat="43.8448722" lon="7.9300452"><ele>22.0</ele><time>2026-04-09T16:03:19.375Z</time></trkpt><trkpt lat="43.8448561" lon="7.9302499"><ele>21.666666666666664</ele><time>2026-04-09T16:03:20.374Z</time></trkpt><trkpt lat="43.8448581" lon="7.9304465"><ele>21.333333333333332</ele><time>2026-04-09T16:03:21.375Z</time></trkpt><trkpt lat="43.8448744" lon="7.930656"><ele>21.0</ele><time>2026-04-09T16:03:22.375Z</time></trkpt><trkpt lat="43.844906" lon="7.9309054"><ele>21.0</ele><time>2026-04-09T16:03:23.374Z</time></trkpt><trkpt lat="43.8449448" lon="7.9311735"><ele>21.0</ele><time>2026-04-09T16:03:24.375Z</time></trkpt><trkpt lat="43.8449873" lon="7.9314781"><ele>21.0</ele><time>2026-04-09T16:03:25.374Z</time></trkpt><trkpt lat="43.8450248" lon="7.9318008"><ele>19.5</ele><time>2026-04-09T16:03:26.375Z</time></trkpt><trkpt lat="43.8450626" lon="7.9321327"><ele>18.0</ele><time>2026-04-09T16:03:27.375Z</time></trkpt><trkpt lat="43.8451058" lon="7.9324761"><ele>35.5</ele><time>2026-04-09T16:03:28.375Z</time></trkpt><trkpt lat="43.8451479" lon="7.9328023"><ele>53.0</ele><time>2026-04-09T16:03:29.374Z</time></trkpt><trkpt lat="43.8451963" lon="7.9331206"><ele>49.0</ele><time>2026-04-09T16:03:30.374Z</time></trkpt><trkpt lat="43.8452377" lon="7.933443"><ele>45.0</ele><time>2026-04-09T16:03:31.375Z</time></trkpt><trkpt lat="43.8452663" lon="7.9337855"><ele>45.0</ele><time>2026-04-09T16:03:32.375Z</time></trkpt><trkpt lat="43.8452869" lon="7.9341278"><ele>45.0</ele><time>2026-04-09T16:03:33.375Z</time></trkpt><trkpt lat="43.8453068" lon="7.9344616"><ele>44.0</ele><time>2026-04-09T16:03:34.375Z</time></trkpt><trkpt lat="43.8453284" lon="7.9347778"><ele>43.0</ele><time>2026-04-09T16:03:35.374Z</time></trkpt><trkpt lat="43.8453562" lon="7.935077"><ele>42.0</ele><time>2026-04-09T16:03:36.375Z</time></trkpt><trkpt lat="43.8453816" lon="7.9353511"><ele>40.333333333333336</ele><time>2026-04-09T16:03:37.374Z</time></trkpt><trkpt lat="43.8454071" lon="7.9355872"><ele>38.66666666666667</ele><time>2026-04-09T16:03:38.374Z</time></trkpt><trkpt lat="43.8454342" lon="7.9358057"><ele>37.0</ele><time>2026-04-09T16:03:39.375Z</time></trkpt><trkpt lat="43.8454707" lon="7.9360208"><ele>33.333333333333336</ele><time>2026-04-09T16:03:40.374Z</time></trkpt><trkpt lat="43.8455238" lon="7.9362466"><ele>29.666666666666664</ele><time>2026-04-09T16:03:41.375Z</time></trkpt><trkpt lat="43.8455952" lon="7.9364983"><ele>26.0</ele><time>2026-04-09T16:03:42.374Z</time></trkpt><trkpt lat="43.8456627" lon="7.9367732"><ele>24.0</ele><time>2026-04-09T16:03:43.375Z</time></trkpt><trkpt lat="43.8457199" lon="7.937077"><ele>22.0</ele><time>2026-04-09T16:03:44.374Z</time></trkpt><trkpt lat="43.8457688" lon="7.9373782"><ele>20.0</ele><time>2026-04-09T16:03:45.374Z</time></trkpt><trkpt lat="43.845815" lon="7.9376817"><ele>20.0</ele><time>2026-04-09T16:03:46.374Z</time></trkpt><trkpt lat="43.845849" lon="7.9379676"><ele>20.0</ele><time>2026-04-09T16:03:47.375Z</time></trkpt><trkpt lat="43.8458557" lon="7.9382308"><ele>20.0</ele><time>2026-04-09T16:03:48.375Z</time></trkpt><trkpt lat="43.8458371" lon="7.9384806"><ele>21.333333333333336</ele><time>2026-04-09T16:03:49.374Z</time></trkpt><trkpt lat="43.8457976" lon="7.9387217"><ele>22.666666666666668</ele><time>2026-04-09T16:03:50.374Z</time></trkpt><trkpt lat="43.8457634" lon="7.9389506"><ele>24.0</ele><time>2026-04-09T16:03:51.375Z</time></trkpt><trkpt lat="43.845742" lon="7.939169"><ele>23.5</ele><time>2026-04-09T16:03:52.374Z</time></trkpt><trkpt lat="43.8457419" lon="7.9393734"><ele>23.0</ele><time>2026-04-09T16:03:53.374Z</time></trkpt><trkpt lat="43.8457599" lon="7.9395748"><ele>22.5</ele><time>2026-04-09T16:03:54.374Z</time></trkpt><trkpt lat="43.8457883" lon="7.9397778"><ele>22.0</ele><time>2026-04-09T16:03:55.375Z</time></trkpt><trkpt lat="43.8458274" lon="7.9399694"><ele>20.75</ele><time>2026-04-09T16:03:56.375Z</time></trkpt><trkpt lat="43.8458638" lon="7.9401504"><ele>19.5</ele><time>2026-04-09T16:03:57.375Z</time></trkpt><trkpt lat="43.84591" lon="7.9403369"><ele>18.25</ele><time>2026-04-09T16:03:58.375Z</time></trkpt><trkpt lat="43.8459691" lon="7.9405206"><ele>17.0</ele><time>2026-04-09T16:03:59.375Z</time></trkpt><trkpt lat="43.8460428" lon="7.9406925"><ele>20.75</ele><time>2026-04-09T16:04:00.374Z</time></trkpt><trkpt lat="43.846125" lon="7.9408575"><ele>24.5</ele><time>2026-04-09T16:04:01.375Z</time></trkpt><trkpt lat="43.8462104" lon="7.9410232"><ele>28.25</ele><time>2026-04-09T16:04:02.375Z</time></trkpt><trkpt lat="43.8463022" lon="7.9411845"><ele>32.0</ele><time>2026-04-09T16:04:03.375Z</time></trkpt><trkpt lat="43.8463804" lon="7.9413606"><ele>32.0</ele><time>2026-04-09T16:04:04.375Z</time></trkpt><trkpt lat="43.8464509" lon="7.941546"><ele>32.0</ele><time>2026-04-09T16:04:05.375Z</time></trkpt><trkpt lat="43.8465231" lon="7.9417321"><ele>32.0</ele><time>2026-04-09T16:04:06.374Z</time></trkpt><trkpt lat="43.8465887" lon="7.9419286"><ele>29.0</ele><time>2026-04-09T16:04:07.375Z</time></trkpt><trkpt lat="43.8466474" lon="7.9421297"><ele>26.0</ele><time>2026-04-09T16:04:08.374Z</time></trkpt><trkpt lat="43.8466949" lon="7.9423367"><ele>23.0</ele><time>2026-04-09T16:04:09.375Z</time></trkpt><trkpt lat="43.846734" lon="7.9425442"><ele>21.666666666666668</ele><time>2026-04-09T16:04:10.374Z</time></trkpt><trkpt lat="43.8467704" lon="7.9427548"><ele>20.333333333333332</ele><time>2026-04-09T16:04:11.374Z</time></trkpt><trkpt lat="43.8468061" lon="7.9429679"><ele>19.0</ele><time>2026-04-09T16:04:12.375Z</time></trkpt><trkpt lat="43.8468327" lon="7.9431845"><ele>25.5</ele><time>2026-04-09T16:04:13.375Z</time></trkpt><trkpt lat="43.8468538" lon="7.9433927"><ele>32.0</ele><time>2026-04-09T16:04:14.374Z</time></trkpt><trkpt lat="43.8468779" lon="7.9435973"><ele>38.5</ele><time>2026-04-09T16:04:15.375Z</time></trkpt><trkpt lat="43.8468966" lon="7.9438008"><ele>45.0</ele><time>2026-04-09T16:04:16.374Z</time></trkpt><trkpt lat="43.84691" lon="7.9440004"><ele>45.0</ele><time>2026-04-09T16:04:17.375Z</time></trkpt><trkpt lat="43.8469103" lon="7.9442035"><ele>45.0</ele><time>2026-04-09T16:04:18.374Z</time></trkpt><trkpt lat="43.8469152" lon="7.944405"><ele>45.0</ele><time>2026-04-09T16:04:19.375Z</time></trkpt><trkpt lat="43.8469232" lon="7.9446156"><ele>45.0</ele><time>2026-04-09T16:04:20.374Z</time></trkpt><trkpt lat="43.8469241" lon="7.9448213"><ele>44.25</ele><time>2026-04-09T16:04:21.375Z</time></trkpt><trkpt lat="43.8469199" lon="7.9450308"><ele>43.5</ele><time>2026-04-09T16:04:22.374Z</time></trkpt><trkpt lat="43.8469195" lon="7.9452378"><ele>42.75</ele><time>2026-04-09T16:04:23.374Z</time></trkpt><trkpt lat="43.846913" lon="7.9454385"><ele>42.0</ele><time>2026-04-09T16:04:24.374Z</time></trkpt><trkpt lat="43.8469056" lon="7.9456306"><ele>40.75</ele><time>2026-04-09T16:04:25.374Z</time></trkpt><trkpt lat="43.8469046" lon="7.9458232"><ele>39.5</ele><time>2026-04-09T16:04:26.375Z</time></trkpt><trkpt lat="43.8469136" lon="7.9460334"><ele>38.25</ele><time>2026-04-09T16:04:27.374Z</time></trkpt><trkpt lat="43.8469448" lon="7.9462474"><ele>37.0</ele><time>2026-04-09T16:04:28.374Z</time></trkpt><trkpt lat="43.8470035" lon="7.9464616"><ele>35.0</ele><time>2026-04-09T16:04:29.375Z</time></trkpt><trkpt lat="43.8470677" lon="7.946665"><ele>33.0</ele><time>2026-04-09T16:04:30.375Z</time></trkpt><trkpt lat="43.8471333" lon="7.9468569"><ele>31.0</ele><time>2026-04-09T16:04:31.374Z</time></trkpt><trkpt lat="43.8471965" lon="7.9470458"><ele>29.75</ele><time>2026-04-09T16:04:32.374Z</time></trkpt><trkpt lat="43.8472614" lon="7.9472247"><ele>28.5</ele><time>2026-04-09T16:04:33.374Z</time></trkpt><trkpt lat="43.8473173" lon="7.9474102"><ele>27.25</ele><time>2026-04-09T16:04:34.374Z</time></trkpt><trkpt lat="43.8473782" lon="7.9475906"><ele>26.0</ele><time>2026-04-09T16:04:35.375Z</time></trkpt><trkpt lat="43.8474493" lon="7.9477984"><ele>24.0</ele><time>2026-04-09T16:04:36.375Z</time></trkpt><trkpt lat="43.8475315" lon="7.9480139"><ele>22.0</ele><time>2026-04-09T16:04:37.374Z</time></trkpt><trkpt lat="43.8476152" lon="7.9482113"><ele>20.0</ele><time>2026-04-09T16:04:38.374Z</time></trkpt><trkpt lat="43.847684" lon="7.9483757"><ele>23.25</ele><time>2026-04-09T16:04:39.375Z</time></trkpt><trkpt lat="43.8477342" lon="7.948517"><ele>26.5</ele><time>2026-04-09T16:04:40.374Z</time></trkpt><trkpt lat="43.8477696" lon="7.948657"><ele>29.75</ele><time>2026-04-09T16:04:41.375Z</time></trkpt><trkpt lat="43.8477782" lon="7.9488123"><ele>33.0</ele><time>2026-04-09T16:04:42.374Z</time></trkpt><trkpt lat="43.8477768" lon="7.9489747"><ele>33.0</ele><time>2026-04-09T16:04:43.375Z</time></trkpt><trkpt lat="43.8477748" lon="7.9491388"><ele>33.0</ele><time>2026-04-09T16:04:44.375Z</time></trkpt><trkpt lat="43.847781" lon="7.9493086"><ele>33.0</ele><time>2026-04-09T16:04:45.374Z</time></trkpt><trkpt lat="43.8478067" lon="7.9494797"><ele>33.0</ele><time>2026-04-09T16:04:46.375Z</time></trkpt><trkpt lat="43.8478577" lon="7.9496477"><ele>31.25</ele><time>2026-04-09T16:04:47.375Z</time></trkpt><trkpt lat="43.8479301" lon="7.9498085"><ele>29.5</ele><time>2026-04-09T16:04:48.374Z</time></trkpt><trkpt lat="43.848017" lon="7.9499565"><ele>27.75</ele><time>2026-04-09T16:04:49.375Z</time></trkpt><trkpt lat="43.8481136" lon="7.9500978"><ele>26.0</ele><time>2026-04-09T16:04:50.374Z</time></trkpt><trkpt lat="43.8482079" lon="7.9502338"><ele>24.75</ele><time>2026-04-09T16:04:51.375Z</time></trkpt><trkpt lat="43.8483027" lon="7.9503694"><ele>23.5</ele><time>2026-04-09T16:04:52.374Z</time></trkpt><trkpt lat="43.8484007" lon="7.9504956"><ele>22.25</ele><time>2026-04-09T16:04:53.375Z</time></trkpt><trkpt lat="43.8484922" lon="7.9506133"><ele>21.0</ele><time>2026-04-09T16:04:54.374Z</time></trkpt><trkpt lat="43.8485702" lon="7.9507369"><ele>23.75</ele><time>2026-04-09T16:04:55.375Z</time></trkpt><trkpt lat="43.8486438" lon="7.9508646"><ele>26.5</ele><time>2026-04-09T16:04:56.374Z</time></trkpt><trkpt lat="43.8487" lon="7.951005"><ele>29.25</ele><time>2026-04-09T16:04:57.374Z</time></trkpt><trkpt lat="43.8487412" lon="7.9511532"><ele>32.0</ele><time>2026-04-09T16:04:58.374Z</time></trkpt><trkpt lat="43.8487758" lon="7.9513033"><ele>32.0</ele><time>2026-04-09T16:04:59.375Z</time></trkpt><trkpt lat="43.8488103" lon="7.9514555"><ele>32.0</ele><time>2026-04-09T16:05:00.374Z</time></trkpt><trkpt lat="43.8488456" lon="7.9516142"><ele>32.0</ele><time>2026-04-09T16:05:01.374Z</time></trkpt><trkpt lat="43.8488762" lon="7.9517864"><ele>32.0</ele><time>2026-04-09T16:05:02.374Z</time></trkpt><trkpt lat="43.8489049" lon="7.9519777"><ele>31.0</ele><time>2026-04-09T16:05:03.374Z</time></trkpt><trkpt lat="43.8489149" lon="7.9521716"><ele>30.0</ele><time>2026-04-09T16:05:04.375Z</time></trkpt><trkpt lat="43.8489055" lon="7.9523691"><ele>29.0</ele><time>2026-04-09T16:05:05.375Z</time></trkpt><trkpt lat="43.8488849" lon="7.9525626"><ele>28.0</ele><time>2026-04-09T16:05:06.375Z</time></trkpt><trkpt lat="43.8488654" lon="7.952741"><ele>27.0</ele><time>2026-04-09T16:05:07.374Z</time></trkpt><trkpt lat="43.8488678" lon="7.9529299"><ele>26.0</ele><time>2026-04-09T16:05:08.375Z</time></trkpt><trkpt lat="43.8488976" lon="7.9531208"><ele>25.0</ele><time>2026-04-09T16:05:09.375Z</time></trkpt><trkpt lat="43.8489504" lon="7.9533101"><ele>24.0</ele><time>2026-04-09T16:05:10.374Z</time></trkpt><trkpt lat="43.8490214" lon="7.9534884"><ele>20.666666666666668</ele><time>2026-04-09T16:05:11.375Z</time></trkpt><trkpt lat="43.849116" lon="7.953664"><ele>17.333333333333336</ele><time>2026-04-09T16:05:12.374Z</time></trkpt><trkpt lat="43.8492354" lon="7.9538556"><ele>14.0</ele><time>2026-04-09T16:05:13.374Z</time></trkpt><trkpt lat="43.8493741" lon="7.9540692"><ele>18.333333333333336</ele><time>2026-04-09T16:05:14.375Z</time></trkpt><trkpt lat="43.8495015" lon="7.9543095"><ele>22.666666666666668</ele><time>2026-04-09T16:05:15.374Z</time></trkpt><trkpt lat="43.8496355" lon="7.9545571"><ele>27.0</ele><time>2026-04-09T16:05:16.375Z</time></trkpt><trkpt lat="43.8497651" lon="7.9548264"><ele>20.0</ele><time>2026-04-09T16:05:17.375Z</time></trkpt><trkpt lat="43.84989" lon="7.9551152"><ele>13.0</ele><time>2026-04-09T16:05:18.375Z</time></trkpt><trkpt lat="43.8500231" lon="7.9554036"><ele>28.0</ele><time>2026-04-09T16:05:19.375Z</time></trkpt><trkpt lat="43.850154" lon="7.9556805"><ele>43.0</ele><time>2026-04-09T16:05:20.374Z</time></trkpt><trkpt lat="43.8502587" lon="7.9559667"><ele>43.0</ele><time>2026-04-09T16:05:21.375Z</time></trkpt><trkpt lat="43.8503322" lon="7.9562618"><ele>43.0</ele><time>2026-04-09T16:05:22.375Z</time></trkpt><trkpt lat="43.8503627" lon="7.956558"><ele>43.0</ele><time>2026-04-09T16:05:23.374Z</time></trkpt><trkpt lat="43.8503896" lon="7.9568462"><ele>41.0</ele><time>2026-04-09T16:05:24.375Z</time></trkpt><trkpt lat="43.8504249" lon="7.9571254"><ele>39.0</ele><time>2026-04-09T16:05:25.374Z</time></trkpt><trkpt lat="43.850455" lon="7.9573796"><ele>37.0</ele><time>2026-04-09T16:05:26.375Z</time></trkpt><trkpt lat="43.8504821" lon="7.9576147"><ele>34.333333333333336</ele><time>2026-04-09T16:05:27.374Z</time></trkpt><trkpt lat="43.8505082" lon="7.9578481"><ele>31.666666666666664</ele><time>2026-04-09T16:05:28.374Z</time></trkpt><trkpt lat="43.8505295" lon="7.9580912"><ele>29.0</ele><time>2026-04-09T16:05:29.374Z</time></trkpt><trkpt lat="43.8505455" lon="7.9583358"><ele>26.333333333333332</ele><time>2026-04-09T16:05:30.374Z</time></trkpt><trkpt lat="43.8505665" lon="7.9585659"><ele>23.666666666666664</ele><time>2026-04-09T16:05:31.375Z</time></trkpt><trkpt lat="43.850596" lon="7.9587814"><ele>21.0</ele><time>2026-04-09T16:05:32.374Z</time></trkpt><trkpt lat="43.8506252" lon="7.9589906"><ele>18.666666666666668</ele><time>2026-04-09T16:05:33.374Z</time></trkpt><trkpt lat="43.8506625" lon="7.959206"><ele>16.333333333333336</ele><time>2026-04-09T16:05:34.375Z</time></trkpt><trkpt lat="43.8507094" lon="7.9594267"><ele>14.0</ele><time>2026-04-09T16:05:35.374Z</time></trkpt><trkpt lat="43.8507663" lon="7.9596463"><ele>14.0</ele><time>2026-04-09T16:05:36.374Z</time></trkpt><trkpt lat="43.850831" lon="7.9598582"><ele>14.0</ele><time>2026-04-09T16:05:37.375Z</time></trkpt><trkpt lat="43.850895" lon="7.960061"><ele>14.0</ele><time>2026-04-09T16:05:38.375Z</time></trkpt><trkpt lat="43.850966" lon="7.9602607"><ele>19.0</ele><time>2026-04-09T16:05:39.374Z</time></trkpt><trkpt lat="43.8510421" lon="7.9604529"><ele>24.0</ele><time>2026-04-09T16:05:40.375Z</time></trkpt><trkpt lat="43.8511242" lon="7.9606452"><ele>29.0</ele><time>2026-04-09T16:05:41.374Z</time></trkpt><trkpt lat="43.8512157" lon="7.9608332"><ele>25.333333333333332</ele><time>2026-04-09T16:05:42.375Z</time></trkpt><trkpt lat="43.8513024" lon="7.9610224"><ele>21.666666666666664</ele><time>2026-04-09T16:05:43.374Z</time></trkpt><trkpt lat="43.8513902" lon="7.9611906"><ele>18.0</ele><time>2026-04-09T16:05:44.374Z</time></trkpt><trkpt lat="43.8514806" lon="7.9613415"><ele>18.0</ele><time>2026-04-09T16:05:45.374Z</time></trkpt><trkpt lat="43.8515657" lon="7.9614853"><ele>18.0</ele><time>2026-04-09T16:05:46.374Z</time></trkpt><trkpt lat="43.8516383" lon="7.9616125"><ele>18.0</ele><time>2026-04-09T16:05:47.374Z</time></trkpt><trkpt lat="43.8517148" lon="7.9617356"><ele>18.0</ele><time>2026-04-09T16:05:48.375Z</time></trkpt><trkpt lat="43.851783" lon="7.9618495"><ele>17.8</ele><time>2026-04-09T16:05:49.374Z</time></trkpt><trkpt lat="43.8518485" lon="7.9619627"><ele>17.6</ele><time>2026-04-09T16:05:50.374Z</time></trkpt><trkpt lat="43.8519154" lon="7.9620832"><ele>17.4</ele><time>2026-04-09T16:05:51.375Z</time></trkpt><trkpt lat="43.8519863" lon="7.9621942"><ele>17.2</ele><time>2026-04-09T16:05:52.374Z</time></trkpt><trkpt lat="43.8520441" lon="7.9623088"><ele>17.0</ele><time>2026-04-09T16:05:53.374Z</time></trkpt><trkpt lat="43.8520988" lon="7.962417"><ele>17.0</ele><time>2026-04-09T16:05:54.374Z</time></trkpt><trkpt lat="43.8521593" lon="7.9625172"><ele>17.0</ele><time>2026-04-09T16:05:55.374Z</time></trkpt><trkpt lat="43.8522235" lon="7.9626193"><ele>17.0</ele><time>2026-04-09T16:05:56.374Z</time></trkpt><trkpt lat="43.8522965" lon="7.9627177"><ele>17.0</ele><time>2026-04-09T16:05:57.374Z</time></trkpt><trkpt lat="43.8523798" lon="7.9628015"><ele>17.0</ele><time>2026-04-09T16:05:58.374Z</time></trkpt><trkpt lat="43.8524698" lon="7.9628503"><ele>15.6</ele><time>2026-04-09T16:05:59.374Z</time></trkpt><trkpt lat="43.8525623" lon="7.9628744"><ele>14.2</ele><time>2026-04-09T16:06:00.374Z</time></trkpt><trkpt lat="43.8526579" lon="7.9628886"><ele>12.8</ele><time>2026-04-09T16:06:01.374Z</time></trkpt><trkpt lat="43.8527625" lon="7.9629077"><ele>11.4</ele><time>2026-04-09T16:06:02.375Z</time></trkpt><trkpt lat="43.8528685" lon="7.9629298"><ele>10.0</ele><time>2026-04-09T16:06:03.375Z</time></trkpt><trkpt lat="43.8529736" lon="7.9629504"><ele>10.0</ele><time>2026-04-09T16:06:04.375Z</time></trkpt><trkpt lat="43.8530764" lon="7.9629879"><ele>10.0</ele><time>2026-04-09T16:06:05.374Z</time></trkpt><trkpt lat="43.8531759" lon="7.9630412"><ele>10.0</ele><time>2026-04-09T16:06:06.375Z</time></trkpt><trkpt lat="43.8532535" lon="7.9630996"><ele>10.0</ele><time>2026-04-09T16:06:07.374Z</time></trkpt><trkpt lat="43.8533072" lon="7.9631571"><ele>10.0</ele><time>2026-04-09T16:06:08.375Z</time></trkpt><trkpt lat="43.8533712" lon="7.9632798"><ele>10.0</ele><time>2026-04-09T16:06:10.375Z</time></trkpt><trkpt lat="43.8533912" lon="7.9634301"><ele>10.0</ele><time>2026-04-09T16:06:12.374Z</time></trkpt><trkpt lat="43.853397" lon="7.9635216"><ele>10.0</ele><time>2026-04-09T16:06:13.375Z</time></trkpt><trkpt lat="43.8534106" lon="7.963632"><ele>10.0</ele><time>2026-04-09T16:06:14.374Z</time></trkpt><trkpt lat="43.8534285" lon="7.9637559"><ele>10.0</ele><time>2026-04-09T16:06:15.374Z</time></trkpt><trkpt lat="43.8534426" lon="7.9639148"><ele>10.0</ele><time>2026-04-09T16:06:16.374Z</time></trkpt><trkpt lat="43.8534516" lon="7.9640816"><ele>10.0</ele><time>2026-04-09T16:06:17.375Z</time></trkpt><trkpt lat="43.8534695" lon="7.9642705"><ele>10.0</ele><time>2026-04-09T16:06:18.374Z</time></trkpt><trkpt lat="43.8534847" lon="7.9644841"><ele>10.0</ele><time>2026-04-09T16:06:19.374Z</time></trkpt><trkpt lat="43.8534946" lon="7.9647259"><ele>11.0</ele><time>2026-04-09T16:06:20.374Z</time></trkpt><trkpt lat="43.8535307" lon="7.9649368"><ele>12.0</ele><time>2026-04-09T16:06:21.374Z</time></trkpt><trkpt lat="43.8536043" lon="7.9651166"><ele>13.0</ele><time>2026-04-09T16:06:22.374Z</time></trkpt><trkpt lat="43.8537304" lon="7.9652895"><ele>13.0</ele><time>2026-04-09T16:06:23.374Z</time></trkpt><trkpt lat="43.8538867" lon="7.9654552"><ele>13.0</ele><time>2026-04-09T16:06:24.375Z</time></trkpt><trkpt lat="43.8540627" lon="7.9656"><ele>13.0</ele><time>2026-04-09T16:06:25.375Z</time></trkpt><trkpt lat="43.8542229" lon="7.9657256"><ele>12.0</ele><time>2026-04-09T16:06:26.374Z</time></trkpt><trkpt lat="43.8543553" lon="7.9658261"><ele>11.0</ele><time>2026-04-09T16:06:27.375Z</time></trkpt><trkpt lat="43.8544667" lon="7.9659024"><ele>10.0</ele><time>2026-04-09T16:06:28.374Z</time></trkpt><trkpt lat="43.8545656" lon="7.9659751"><ele>9.0</ele><time>2026-04-09T16:06:29.374Z</time></trkpt><trkpt lat="43.8546747" lon="7.9660403"><ele>9.0</ele><time>2026-04-09T16:06:30.374Z</time></trkpt><trkpt lat="43.8547929" lon="7.9661047"><ele>9.0</ele><time>2026-04-09T16:06:31.375Z</time></trkpt><trkpt lat="43.8549176" lon="7.9661622"><ele>9.0</ele><time>2026-04-09T16:06:32.374Z</time></trkpt><trkpt lat="43.855045" lon="7.9662105"><ele>9.0</ele><time>2026-04-09T16:06:33.375Z</time></trkpt><trkpt lat="43.8551806" lon="7.966254"><ele>10.666666666666668</ele><time>2026-04-09T16:06:34.375Z</time></trkpt><trkpt lat="43.8553393" lon="7.9663059"><ele>12.333333333333334</ele><time>2026-04-09T16:06:35.374Z</time></trkpt><trkpt lat="43.8555289" lon="7.9663748"><ele>14.0</ele><time>2026-04-09T16:06:36.375Z</time></trkpt><trkpt lat="43.8557453" lon="7.9664529"><ele>17.0</ele><time>2026-04-09T16:06:37.375Z</time></trkpt><trkpt lat="43.8559705" lon="7.9665376"><ele>20.0</ele><time>2026-04-09T16:06:38.379Z</time></trkpt><trkpt lat="43.8562213" lon="7.9666277"><ele>10.5</ele><time>2026-04-09T16:06:39.379Z</time></trkpt><trkpt lat="43.8564681" lon="7.9667185"><ele>1.0</ele><time>2026-04-09T16:06:40.378Z</time></trkpt><trkpt lat="43.8566927" lon="7.9668076"><ele>2.6666666666666665</ele><time>2026-04-09T16:06:41.379Z</time></trkpt><trkpt lat="43.8568964" lon="7.966887"><ele>4.333333333333333</ele><time>2026-04-09T16:06:42.379Z</time></trkpt><trkpt lat="43.8570832" lon="7.9669501"><ele>6.0</ele><time>2026-04-09T16:06:43.379Z</time></trkpt><trkpt lat="43.8572604" lon="7.96701"><ele>6.0</ele><time>2026-04-09T16:06:44.379Z</time></trkpt><trkpt lat="43.8574171" lon="7.9670701"><ele>6.0</ele><time>2026-04-09T16:06:45.379Z</time></trkpt><trkpt lat="43.857562" lon="7.9671242"><ele>6.0</ele><time>2026-04-09T16:06:46.379Z</time></trkpt><trkpt lat="43.8576867" lon="7.9671773"><ele>6.0</ele><time>2026-04-09T16:06:47.379Z</time></trkpt><trkpt lat="43.8577925" lon="7.967227"><ele>8.0</ele><time>2026-04-09T16:06:48.378Z</time></trkpt><trkpt lat="43.8578907" lon="7.9672714"><ele>10.0</ele><time>2026-04-09T16:06:49.378Z</time></trkpt><trkpt lat="43.8579636" lon="7.9673021"><ele>12.0</ele><time>2026-04-09T16:06:50.379Z</time></trkpt><trkpt lat="43.8580571" lon="7.9673304"><ele>14.0</ele><time>2026-04-09T16:06:52.378Z</time></trkpt><trkpt lat="43.8581324" lon="7.9673548"><ele>16.0</ele><time>2026-04-09T16:06:54.378Z</time></trkpt><trkpt lat="43.8582183" lon="7.9673949"><ele>18.0</ele><time>2026-04-09T16:06:55.378Z</time></trkpt><trkpt lat="43.8583351" lon="7.9674553"><ele>14.666666666666666</ele><time>2026-04-09T16:06:56.379Z</time></trkpt><trkpt lat="43.8584857" lon="7.9675176"><ele>11.333333333333332</ele><time>2026-04-09T16:06:57.379Z</time></trkpt><trkpt lat="43.8586496" lon="7.967594"><ele>8.0</ele><time>2026-04-09T16:06:58.379Z</time></trkpt><trkpt lat="43.8588212" lon="7.9676816"><ele>8.0</ele><time>2026-04-09T16:06:59.378Z</time></trkpt><trkpt lat="43.8590099" lon="7.9677982"><ele>8.0</ele><time>2026-04-09T16:07:00.378Z</time></trkpt><trkpt lat="43.8592038" lon="7.9679299"><ele>8.0</ele><time>2026-04-09T16:07:01.378Z</time></trkpt><trkpt lat="43.859386" lon="7.9680561"><ele>8.0</ele><time>2026-04-09T16:07:02.379Z</time></trkpt><trkpt lat="43.8595685" lon="7.9682069"><ele>8.0</ele><time>2026-04-09T16:07:03.379Z</time></trkpt><trkpt lat="43.8597402" lon="7.9683882"><ele>8.0</ele><time>2026-04-09T16:07:04.378Z</time></trkpt><trkpt lat="43.8598992" lon="7.9685768"><ele>8.0</ele><time>2026-04-09T16:07:05.379Z</time></trkpt><trkpt lat="43.8600475" lon="7.9687753"><ele>8.0</ele><time>2026-04-09T16:07:06.378Z</time></trkpt><trkpt lat="43.8601791" lon="7.9689673"><ele>8.0</ele><time>2026-04-09T16:07:07.378Z</time></trkpt><trkpt lat="43.8602993" lon="7.9691525"><ele>8.0</ele><time>2026-04-09T16:07:08.379Z</time></trkpt><trkpt lat="43.8604078" lon="7.9693232"><ele>8.0</ele><time>2026-04-09T16:07:09.379Z</time></trkpt><trkpt lat="43.8605154" lon="7.9694841"><ele>8.0</ele><time>2026-04-09T16:07:10.378Z</time></trkpt><trkpt lat="43.8606228" lon="7.9696612"><ele>8.0</ele><time>2026-04-09T16:07:11.378Z</time></trkpt><trkpt lat="43.8607491" lon="7.9698446"><ele>8.0</ele><time>2026-04-09T16:07:12.378Z</time></trkpt><trkpt lat="43.8608745" lon="7.9700403"><ele>8.0</ele><time>2026-04-09T16:07:13.378Z</time></trkpt><trkpt lat="43.8609928" lon="7.970254"><ele>12.0</ele><time>2026-04-09T16:07:14.378Z</time></trkpt><trkpt lat="43.8611019" lon="7.9705011"><ele>16.0</ele><time>2026-04-09T16:07:15.378Z</time></trkpt><trkpt lat="43.8612048" lon="7.970758"><ele>20.0</ele><time>2026-04-09T16:07:16.378Z</time></trkpt><trkpt lat="43.8612986" lon="7.9710221"><ele>20.0</ele><time>2026-04-09T16:07:17.378Z</time></trkpt><trkpt lat="43.8613825" lon="7.9713025"><ele>20.0</ele><time>2026-04-09T16:07:18.379Z</time></trkpt><trkpt lat="43.8614427" lon="7.9716082"><ele>20.0</ele><time>2026-04-09T16:07:19.379Z</time></trkpt><trkpt lat="43.8614461" lon="7.9719307"><ele>20.0</ele><time>2026-04-09T16:07:20.379Z</time></trkpt><trkpt lat="43.8614565" lon="7.9722567"><ele>20.0</ele><time>2026-04-09T16:07:21.378Z</time></trkpt><trkpt lat="43.861481" lon="7.9725786"><ele>19.5</ele><time>2026-04-09T16:07:22.378Z</time></trkpt><trkpt lat="43.8615459" lon="7.9729018"><ele>19.0</ele><time>2026-04-09T16:07:23.379Z</time></trkpt><trkpt lat="43.8616417" lon="7.9732244"><ele>15.0</ele><time>2026-04-09T16:07:24.379Z</time></trkpt><trkpt lat="43.8617474" lon="7.9735427"><ele>11.0</ele><time>2026-04-09T16:07:25.378Z</time></trkpt><trkpt lat="43.8618496" lon="7.9738526"><ele>16.0</ele><time>2026-04-09T16:07:26.379Z</time></trkpt><trkpt lat="43.8619494" lon="7.9741296"><ele>21.0</ele><time>2026-04-09T16:07:27.379Z</time></trkpt><trkpt lat="43.8620717" lon="7.97439"><ele>26.0</ele><time>2026-04-09T16:07:28.379Z</time></trkpt><trkpt lat="43.8621982" lon="7.9746383"><ele>26.0</ele><time>2026-04-09T16:07:29.379Z</time></trkpt><trkpt lat="43.8623289" lon="7.9748769"><ele>26.0</ele><time>2026-04-09T16:07:30.378Z</time></trkpt><trkpt lat="43.8624593" lon="7.975108"><ele>26.0</ele><time>2026-04-09T16:07:31.379Z</time></trkpt><trkpt lat="43.8625927" lon="7.975332"><ele>30.666666666666664</ele><time>2026-04-09T16:07:32.379Z</time></trkpt><trkpt lat="43.8627213" lon="7.975545"><ele>35.333333333333336</ele><time>2026-04-09T16:07:33.379Z</time></trkpt><trkpt lat="43.8628204" lon="7.9757524"><ele>40.0</ele><time>2026-04-09T16:07:34.379Z</time></trkpt><trkpt lat="43.862886" lon="7.9759707"><ele>40.0</ele><time>2026-04-09T16:07:35.378Z</time></trkpt><trkpt lat="43.8629064" lon="7.9762192"><ele>40.0</ele><time>2026-04-09T16:07:36.379Z</time></trkpt><trkpt lat="43.8629066" lon="7.9764937"><ele>40.0</ele><time>2026-04-09T16:07:37.379Z</time></trkpt><trkpt lat="43.8629253" lon="7.9767952"><ele>39.0</ele><time>2026-04-09T16:07:38.379Z</time></trkpt><trkpt lat="43.8629676" lon="7.9770956"><ele>38.0</ele><time>2026-04-09T16:07:39.379Z</time></trkpt><trkpt lat="43.8630037" lon="7.9774045"><ele>37.0</ele><time>2026-04-09T16:07:40.379Z</time></trkpt><trkpt lat="43.8630464" lon="7.9777045"><ele>35.66666666666667</ele><time>2026-04-09T16:07:41.379Z</time></trkpt><trkpt lat="43.8630884" lon="7.9779959"><ele>34.333333333333336</ele><time>2026-04-09T16:07:42.378Z</time></trkpt><trkpt lat="43.8631186" lon="7.9782811"><ele>33.0</ele><time>2026-04-09T16:07:43.379Z</time></trkpt><trkpt lat="43.8631381" lon="7.9785621"><ele>31.333333333333336</ele><time>2026-04-09T16:07:44.379Z</time></trkpt><trkpt lat="43.86315" lon="7.9788128"><ele>29.666666666666668</ele><time>2026-04-09T16:07:45.379Z</time></trkpt><trkpt lat="43.8631774" lon="7.9790204"><ele>28.0</ele><time>2026-04-09T16:07:46.378Z</time></trkpt><trkpt lat="43.8632097" lon="7.9791861"><ele>25.25</ele><time>2026-04-09T16:07:47.378Z</time></trkpt><trkpt lat="43.8632545" lon="7.9793356"><ele>22.5</ele><time>2026-04-09T16:07:48.378Z</time></trkpt><trkpt lat="43.8633142" lon="7.9794991"><ele>19.75</ele><time>2026-04-09T16:07:49.378Z</time></trkpt><trkpt lat="43.8633886" lon="7.9796856"><ele>17.0</ele><time>2026-04-09T16:07:50.378Z</time></trkpt><trkpt lat="43.8634573" lon="7.9799103"><ele>28.333333333333336</ele><time>2026-04-09T16:07:51.379Z</time></trkpt><trkpt lat="43.8635251" lon="7.980128"><ele>39.666666666666664</ele><time>2026-04-09T16:07:52.379Z</time></trkpt><trkpt lat="43.86359" lon="7.980341"><ele>51.0</ele><time>2026-04-09T16:07:53.378Z</time></trkpt><trkpt lat="43.8636423" lon="7.9805295"><ele>51.0</ele><time>2026-04-09T16:07:54.378Z</time></trkpt><trkpt lat="43.8636855" lon="7.9806875"><ele>51.0</ele><time>2026-04-09T16:07:55.379Z</time></trkpt><trkpt lat="43.8637258" lon="7.9808335"><ele>51.0</ele><time>2026-04-09T16:07:56.379Z</time></trkpt><trkpt lat="43.8637736" lon="7.980992"><ele>51.0</ele><time>2026-04-09T16:07:57.378Z</time></trkpt><trkpt lat="43.8638204" lon="7.9811657"><ele>47.333333333333336</ele><time>2026-04-09T16:07:58.378Z</time></trkpt><trkpt lat="43.8638645" lon="7.9813562"><ele>43.66666666666667</ele><time>2026-04-09T16:07:59.378Z</time></trkpt><trkpt lat="43.8639045" lon="7.9815645"><ele>40.0</ele><time>2026-04-09T16:08:00.379Z</time></trkpt><trkpt lat="43.8639402" lon="7.9817793"><ele>37.25</ele><time>2026-04-09T16:08:01.379Z</time></trkpt><trkpt lat="43.8639695" lon="7.9819805"><ele>34.5</ele><time>2026-04-09T16:08:02.378Z</time></trkpt><trkpt lat="43.863993" lon="7.9821605"><ele>31.75</ele><time>2026-04-09T16:08:03.379Z</time></trkpt><trkpt lat="43.8640191" lon="7.9823216"><ele>29.0</ele><time>2026-04-09T16:08:04.379Z</time></trkpt><trkpt lat="43.8640466" lon="7.9824684"><ele>30.799999999999997</ele><time>2026-04-09T16:08:05.379Z</time></trkpt><trkpt lat="43.8640752" lon="7.982605"><ele>32.599999999999994</ele><time>2026-04-09T16:08:06.379Z</time></trkpt><trkpt lat="43.8641145" lon="7.9827434"><ele>34.4</ele><time>2026-04-09T16:08:07.379Z</time></trkpt><trkpt lat="43.8641717" lon="7.9828827"><ele>36.199999999999996</ele><time>2026-04-09T16:08:08.379Z</time></trkpt><trkpt lat="43.8642365" lon="7.9830232"><ele>38.0</ele><time>2026-04-09T16:08:09.379Z</time></trkpt><trkpt lat="43.8642989" lon="7.9831473"><ele>38.0</ele><time>2026-04-09T16:08:10.379Z</time></trkpt><trkpt lat="43.8643604" lon="7.9832765"><ele>38.0</ele><time>2026-04-09T16:08:11.379Z</time></trkpt><trkpt lat="43.8644124" lon="7.9834005"><ele>38.0</ele><time>2026-04-09T16:08:12.38Z</time></trkpt><trkpt lat="43.8644602" lon="7.9835244"><ele>38.0</ele><time>2026-04-09T16:08:13.379Z</time></trkpt><trkpt lat="43.8645001" lon="7.9836549"><ele>38.0</ele><time>2026-04-09T16:08:14.379Z</time></trkpt><trkpt lat="43.8645271" lon="7.983788"><ele>38.199999999999996</ele><time>2026-04-09T16:08:15.379Z</time></trkpt><trkpt lat="43.8645374" lon="7.9839264"><ele>38.4</ele><time>2026-04-09T16:08:16.379Z</time></trkpt><trkpt lat="43.8645364" lon="7.9840592"><ele>38.599999999999994</ele><time>2026-04-09T16:08:17.38Z</time></trkpt><trkpt lat="43.8645333" lon="7.9841938"><ele>38.8</ele><time>2026-04-09T16:08:18.379Z</time></trkpt><trkpt lat="43.8645317" lon="7.9843301"><ele>39.0</ele><time>2026-04-09T16:08:19.379Z</time></trkpt><trkpt lat="43.8645367" lon="7.9844723"><ele>41.25</ele><time>2026-04-09T16:08:20.38Z</time></trkpt><trkpt lat="43.8645381" lon="7.9846155"><ele>43.5</ele><time>2026-04-09T16:08:21.379Z</time></trkpt><trkpt lat="43.864543" lon="7.9847702"><ele>45.75</ele><time>2026-04-09T16:08:22.38Z</time></trkpt><trkpt lat="43.8645433" lon="7.9849316"><ele>48.0</ele><time>2026-04-09T16:08:23.379Z</time></trkpt><trkpt lat="43.8645493" lon="7.9851014"><ele>49.0</ele><time>2026-04-09T16:08:24.38Z</time></trkpt><trkpt lat="43.8645563" lon="7.9852638"><ele>50.0</ele><time>2026-04-09T16:08:25.379Z</time></trkpt><trkpt lat="43.8645594" lon="7.9854205"><ele>51.0</ele><time>2026-04-09T16:08:26.38Z</time></trkpt><trkpt lat="43.8645636" lon="7.9855807"><ele>52.0</ele><time>2026-04-09T16:08:27.379Z</time></trkpt><trkpt lat="43.8645702" lon="7.9857448"><ele>51.75</ele><time>2026-04-09T16:08:28.38Z</time></trkpt><trkpt lat="43.8645764" lon="7.9859096"><ele>51.5</ele><time>2026-04-09T16:08:29.379Z</time></trkpt><trkpt lat="43.8645848" lon="7.9860838"><ele>51.25</ele><time>2026-04-09T16:08:30.38Z</time></trkpt><trkpt lat="43.8645899" lon="7.9862846"><ele>51.0</ele><time>2026-04-09T16:08:31.379Z</time></trkpt><trkpt lat="43.8646035" lon="7.9865187"><ele>49.666666666666664</ele><time>2026-04-09T16:08:32.379Z</time></trkpt><trkpt lat="43.8645987" lon="7.9867512"><ele>48.33333333333333</ele><time>2026-04-09T16:08:33.38Z</time></trkpt><trkpt lat="43.8645947" lon="7.9869781"><ele>47.0</ele><time>2026-04-09T16:08:34.379Z</time></trkpt><trkpt lat="43.864598" lon="7.9872057"><ele>47.0</ele><time>2026-04-09T16:08:35.379Z</time></trkpt><trkpt lat="43.864604" lon="7.9874262"><ele>47.0</ele><time>2026-04-09T16:08:36.379Z</time></trkpt><trkpt lat="43.8646207" lon="7.9876419"><ele>47.0</ele><time>2026-04-09T16:08:37.38Z</time></trkpt><trkpt lat="43.8646444" lon="7.9878403"><ele>45.0</ele><time>2026-04-09T16:08:38.38Z</time></trkpt><trkpt lat="43.8646672" lon="7.9880181"><ele>43.0</ele><time>2026-04-09T16:08:39.379Z</time></trkpt><trkpt lat="43.864691" lon="7.9882054"><ele>41.0</ele><time>2026-04-09T16:08:40.379Z</time></trkpt><trkpt lat="43.8647095" lon="7.988433"><ele>39.0</ele><time>2026-04-09T16:08:41.38Z</time></trkpt><trkpt lat="43.864735" lon="7.9886674"><ele>38.333333333333336</ele><time>2026-04-09T16:08:42.379Z</time></trkpt><trkpt lat="43.864751" lon="7.9889022"><ele>37.66666666666667</ele><time>2026-04-09T16:08:43.38Z</time></trkpt><trkpt lat="43.8647662" lon="7.9891581"><ele>37.0</ele><time>2026-04-09T16:08:44.38Z</time></trkpt><trkpt lat="43.8647858" lon="7.9894217"><ele>34.333333333333336</ele><time>2026-04-09T16:08:45.38Z</time></trkpt><trkpt lat="43.8648172" lon="7.9896906"><ele>31.666666666666664</ele><time>2026-04-09T16:08:46.379Z</time></trkpt><trkpt lat="43.8648572" lon="7.9899467"><ele>29.0</ele><time>2026-04-09T16:08:47.379Z</time></trkpt><trkpt lat="43.8649122" lon="7.9901959"><ele>26.333333333333332</ele><time>2026-04-09T16:08:48.38Z</time></trkpt><trkpt lat="43.8649607" lon="7.9904308"><ele>23.666666666666664</ele><time>2026-04-09T16:08:49.38Z</time></trkpt><trkpt lat="43.8649922" lon="7.9906574"><ele>21.0</ele><time>2026-04-09T16:08:50.38Z</time></trkpt><trkpt lat="43.8650218" lon="7.9908787"><ele>19.666666666666668</ele><time>2026-04-09T16:08:51.379Z</time></trkpt><trkpt lat="43.8650542" lon="7.9911"><ele>18.333333333333336</ele><time>2026-04-09T16:08:52.379Z</time></trkpt><trkpt lat="43.8650934" lon="7.9913265"><ele>17.0</ele><time>2026-04-09T16:08:53.38Z</time></trkpt><trkpt lat="43.865133" lon="7.9915494"><ele>27.666666666666664</ele><time>2026-04-09T16:08:54.379Z</time></trkpt><trkpt lat="43.8651775" lon="7.9917671"><ele>38.33333333333333</ele><time>2026-04-09T16:08:55.379Z</time></trkpt><trkpt lat="43.8652262" lon="7.9919752"><ele>49.0</ele><time>2026-04-09T16:08:56.38Z</time></trkpt><trkpt lat="43.8652822" lon="7.9921764"><ele>49.0</ele><time>2026-04-09T16:08:57.38Z</time></trkpt><trkpt lat="43.8653395" lon="7.9923624"><ele>49.0</ele><time>2026-04-09T16:08:58.38Z</time></trkpt><trkpt lat="43.865403" lon="7.9925475"><ele>49.0</ele><time>2026-04-09T16:08:59.379Z</time></trkpt><trkpt lat="43.8654706" lon="7.9927285"><ele>49.0</ele><time>2026-04-09T16:09:00.379Z</time></trkpt><trkpt lat="43.8655347" lon="7.9928981"><ele>45.75</ele><time>2026-04-09T16:09:01.379Z</time></trkpt><trkpt lat="43.8656001" lon="7.9930575"><ele>42.5</ele><time>2026-04-09T16:09:02.379Z</time></trkpt><trkpt lat="43.8656537" lon="7.9932274"><ele>39.25</ele><time>2026-04-09T16:09:03.379Z</time></trkpt><trkpt lat="43.8656911" lon="7.9933998"><ele>36.0</ele><time>2026-04-09T16:09:04.38Z</time></trkpt><trkpt lat="43.8657123" lon="7.9935807"><ele>32.75</ele><time>2026-04-09T16:09:05.379Z</time></trkpt><trkpt lat="43.8657389" lon="7.9937605"><ele>29.5</ele><time>2026-04-09T16:09:06.38Z</time></trkpt><trkpt lat="43.8657817" lon="7.9939336"><ele>26.25</ele><time>2026-04-09T16:09:07.38Z</time></trkpt><trkpt lat="43.8658387" lon="7.9941049"><ele>23.0</ele><time>2026-04-09T16:09:08.38Z</time></trkpt><trkpt lat="43.8659021" lon="7.9942666"><ele>25.0</ele><time>2026-04-09T16:09:09.38Z</time></trkpt><trkpt lat="43.8659695" lon="7.9944276"><ele>27.0</ele><time>2026-04-09T16:09:10.379Z</time></trkpt><trkpt lat="43.8660413" lon="7.9945775"><ele>29.0</ele><time>2026-04-09T16:09:11.38Z</time></trkpt><trkpt lat="43.8661068" lon="7.9947362"><ele>31.0</ele><time>2026-04-09T16:09:12.38Z</time></trkpt><trkpt lat="43.8661785" lon="7.9948794"><ele>25.5</ele><time>2026-04-09T16:09:13.379Z</time></trkpt><trkpt lat="43.866252" lon="7.9950135"><ele>20.0</ele><time>2026-04-09T16:09:14.379Z</time></trkpt><trkpt lat="43.8663349" lon="7.9951266"><ele>14.5</ele><time>2026-04-09T16:09:15.379Z</time></trkpt><trkpt lat="43.8664284" lon="7.9952318"><ele>9.0</ele><time>2026-04-09T16:09:16.38Z</time></trkpt><trkpt lat="43.8665315" lon="7.9953238"><ele>9.0</ele><time>2026-04-09T16:09:17.38Z</time></trkpt><trkpt lat="43.8666311" lon="7.9953975"><ele>9.0</ele><time>2026-04-09T16:09:18.379Z</time></trkpt><trkpt lat="43.8667298" lon="7.9954702"><ele>9.0</ele><time>2026-04-09T16:09:19.379Z</time></trkpt><trkpt lat="43.8668115" lon="7.9955611"><ele>9.0</ele><time>2026-04-09T16:09:20.38Z</time></trkpt><trkpt lat="43.8668865" lon="7.9956761"><ele>9.0</ele><time>2026-04-09T16:09:21.38Z</time></trkpt><trkpt lat="43.8669545" lon="7.9958082"><ele>11.75</ele><time>2026-04-09T16:09:22.38Z</time></trkpt><trkpt lat="43.8670201" lon="7.995946"><ele>14.5</ele><time>2026-04-09T16:09:23.38Z</time></trkpt><trkpt lat="43.8670809" lon="7.9960827"><ele>17.25</ele><time>2026-04-09T16:09:24.379Z</time></trkpt><trkpt lat="43.8671387" lon="7.9962173"><ele>20.0</ele><time>2026-04-09T16:09:25.38Z</time></trkpt><trkpt lat="43.8671961" lon="7.9963437"><ele>20.0</ele><time>2026-04-09T16:09:26.38Z</time></trkpt><trkpt lat="43.8672596" lon="7.9964742"><ele>20.0</ele><time>2026-04-09T16:09:27.38Z</time></trkpt><trkpt lat="43.8673186" lon="7.9966094"><ele>20.0</ele><time>2026-04-09T16:09:28.379Z</time></trkpt><trkpt lat="43.8673789" lon="7.996744"><ele>20.0</ele><time>2026-04-09T16:09:29.379Z</time></trkpt><trkpt lat="43.8674454" lon="7.9968893"><ele>19.5</ele><time>2026-04-09T16:09:30.38Z</time></trkpt><trkpt lat="43.8675163" lon="7.9970347"><ele>19.0</ele><time>2026-04-09T16:09:31.379Z</time></trkpt><trkpt lat="43.8675847" lon="7.9971816"><ele>18.5</ele><time>2026-04-09T16:09:32.38Z</time></trkpt><trkpt lat="43.8676552" lon="7.9973203"><ele>18.0</ele><time>2026-04-09T16:09:33.379Z</time></trkpt><trkpt lat="43.8677154" lon="7.9974594"><ele>15.8</ele><time>2026-04-09T16:09:34.379Z</time></trkpt><trkpt lat="43.8677783" lon="7.997591"><ele>13.600000000000001</ele><time>2026-04-09T16:09:35.379Z</time></trkpt><trkpt lat="43.8678337" lon="7.9977129"><ele>11.399999999999999</ele><time>2026-04-09T16:09:36.379Z</time></trkpt><trkpt lat="43.8678835" lon="7.99783"><ele>9.2</ele><time>2026-04-09T16:09:37.379Z</time></trkpt><trkpt lat="43.8679301" lon="7.9979337"><ele>7.0</ele><time>2026-04-09T16:09:38.38Z</time></trkpt><trkpt lat="43.8679693" lon="7.9980237"><ele>7.0</ele><time>2026-04-09T16:09:39.379Z</time></trkpt><trkpt lat="43.8680056" lon="7.9980965"><ele>6.999999999999999</ele><time>2026-04-09T16:09:40.379Z</time></trkpt><trkpt lat="43.86805" lon="7.998206"><ele>6.999999999999999</ele><time>2026-04-09T16:09:42.38Z</time></trkpt><trkpt lat="43.8680812" lon="7.9983076"><ele>7.0</ele><time>2026-04-09T16:09:45.38Z</time></trkpt><trkpt lat="43.868143" lon="7.998479"><ele>7.0</ele><time>2026-04-09T16:10:38.379Z</time></trkpt><trkpt lat="43.8682499" lon="7.9987209"><ele>6.199999999999999</ele><time>2026-04-09T16:10:40.379Z</time></trkpt><trkpt lat="43.8683062" lon="7.9988575"><ele>5.3999999999999995</ele><time>2026-04-09T16:10:41.379Z</time></trkpt><trkpt lat="43.8683628" lon="7.9989927"><ele>4.6</ele><time>2026-04-09T16:10:42.379Z</time></trkpt><trkpt lat="43.8684235" lon="7.9991155"><ele>3.8</ele><time>2026-04-09T16:10:43.379Z</time></trkpt><trkpt lat="43.8684811" lon="7.9992453"><ele>3.0</ele><time>2026-04-09T16:10:44.38Z</time></trkpt><trkpt lat="43.8685404" lon="7.9993764"><ele>3.0</ele><time>2026-04-09T16:10:45.379Z</time></trkpt><trkpt lat="43.8685994" lon="7.9995106"><ele>3.0</ele><time>2026-04-09T16:10:46.379Z</time></trkpt><trkpt lat="43.8686589" lon="7.9996417"><ele>3.0</ele><time>2026-04-09T16:10:47.38Z</time></trkpt><trkpt lat="43.8687192" lon="7.9997812"><ele>3.0</ele><time>2026-04-09T16:10:48.379Z</time></trkpt><trkpt lat="43.8687768" lon="7.9999145"><ele>3.0</ele><time>2026-04-09T16:10:49.38Z</time></trkpt><trkpt lat="43.8688344" lon="8.0000441"><ele>3.0</ele><time>2026-04-09T16:10:50.38Z</time></trkpt><trkpt lat="43.868898" lon="8.0001729"><ele>3.0</ele><time>2026-04-09T16:10:51.379Z</time></trkpt><trkpt lat="43.8689616" lon="8.0003067"><ele>3.0</ele><time>2026-04-09T16:10:52.379Z</time></trkpt><trkpt lat="43.8690227" lon="8.0004423"><ele>3.0</ele><time>2026-04-09T16:10:53.379Z</time></trkpt><trkpt lat="43.8690849" lon="8.0005754"><ele>3.0</ele><time>2026-04-09T16:10:54.38Z</time></trkpt><trkpt lat="43.8691473" lon="8.0007026"><ele>3.0</ele><time>2026-04-09T16:10:55.379Z</time></trkpt><trkpt lat="43.8692099" lon="8.0008309"><ele>3.0</ele><time>2026-04-09T16:10:56.379Z</time></trkpt><trkpt lat="43.8692714" lon="8.0009622"><ele>3.75</ele><time>2026-04-09T16:10:57.38Z</time></trkpt><trkpt lat="43.8693325" lon="8.0010939"><ele>4.5</ele><time>2026-04-09T16:10:58.379Z</time></trkpt><trkpt lat="43.8693965" lon="8.0012245"><ele>5.25</ele><time>2026-04-09T16:10:59.38Z</time></trkpt><trkpt lat="43.8694617" lon="8.0013581"><ele>6.0</ele><time>2026-04-09T16:11:00.379Z</time></trkpt><trkpt lat="43.8695247" lon="8.0014949"><ele>6.0</ele><time>2026-04-09T16:11:01.379Z</time></trkpt><trkpt lat="43.8695896" lon="8.0016306"><ele>6.0</ele><time>2026-04-09T16:11:02.38Z</time></trkpt><trkpt lat="43.8696503" lon="8.0017673"><ele>6.0</ele><time>2026-04-09T16:11:03.38Z</time></trkpt><trkpt lat="43.8697138" lon="8.0019047"><ele>6.0</ele><time>2026-04-09T16:11:04.38Z</time></trkpt><trkpt lat="43.8697763" lon="8.0020444"><ele>5.75</ele><time>2026-04-09T16:11:05.379Z</time></trkpt><trkpt lat="43.8698419" lon="8.002188"><ele>5.5</ele><time>2026-04-09T16:11:06.379Z</time></trkpt><trkpt lat="43.869912" lon="8.0023262"><ele>5.25</ele><time>2026-04-09T16:11:07.379Z</time></trkpt><trkpt lat="43.869985" lon="8.002465"><ele>5.0</ele><time>2026-04-09T16:11:08.38Z</time></trkpt><trkpt lat="43.8700681" lon="8.0026185"><ele>6.0</ele><time>2026-04-09T16:11:09.379Z</time></trkpt><trkpt lat="43.8701623" lon="8.00279"><ele>7.0</ele><time>2026-04-09T16:11:10.379Z</time></trkpt><trkpt lat="43.8702624" lon="8.0029686"><ele>8.0</ele><time>2026-04-09T16:11:11.38Z</time></trkpt><trkpt lat="43.8703612" lon="8.003159"><ele>9.666666666666666</ele><time>2026-04-09T16:11:12.379Z</time></trkpt><trkpt lat="43.8704575" lon="8.0033416"><ele>11.333333333333332</ele><time>2026-04-09T16:11:13.38Z</time></trkpt><trkpt lat="43.8705539" lon="8.0035207"><ele>13.0</ele><time>2026-04-09T16:11:14.38Z</time></trkpt><trkpt lat="43.8706454" lon="8.0036941"><ele>13.0</ele><time>2026-04-09T16:11:15.379Z</time></trkpt><trkpt lat="43.8707406" lon="8.0038773"><ele>13.0</ele><time>2026-04-09T16:11:16.38Z</time></trkpt><trkpt lat="43.8708342" lon="8.0040621"><ele>13.0</ele><time>2026-04-09T16:11:17.379Z</time></trkpt><trkpt lat="43.8709036" lon="8.0042272"><ele>13.0</ele><time>2026-04-09T16:11:18.379Z</time></trkpt><trkpt lat="43.8709345" lon="8.0044049"><ele>13.0</ele><time>2026-04-09T16:11:19.38Z</time></trkpt><trkpt lat="43.8709334" lon="8.004553"><ele>13.0</ele><time>2026-04-09T16:11:20.38Z</time></trkpt><trkpt lat="43.8709144" lon="8.0046668"><ele>13.0</ele><time>2026-04-09T16:11:21.379Z</time></trkpt><trkpt lat="43.8708653" lon="8.0048273"><ele>13.0</ele><time>2026-04-09T16:11:23.38Z</time></trkpt><trkpt lat="43.8708276" lon="8.004936"><ele>14.4</ele><time>2026-04-09T16:11:24.38Z</time></trkpt><trkpt lat="43.8707821" lon="8.0050686"><ele>15.8</ele><time>2026-04-09T16:11:25.38Z</time></trkpt><trkpt lat="43.8707277" lon="8.0052111"><ele>17.2</ele><time>2026-04-09T16:11:26.38Z</time></trkpt><trkpt lat="43.870669" lon="8.0053529"><ele>18.6</ele><time>2026-04-09T16:11:27.38Z</time></trkpt><trkpt lat="43.8706136" lon="8.0054827"><ele>20.0</ele><time>2026-04-09T16:11:28.38Z</time></trkpt><trkpt lat="43.8705556" lon="8.0056265"><ele>20.0</ele><time>2026-04-09T16:11:29.379Z</time></trkpt><trkpt lat="43.8705007" lon="8.0057695"><ele>20.0</ele><time>2026-04-09T16:11:30.379Z</time></trkpt><trkpt lat="43.8704495" lon="8.0059185"><ele>20.0</ele><time>2026-04-09T16:11:31.38Z</time></trkpt><trkpt lat="43.8704185" lon="8.0060591"><ele>20.0</ele><time>2026-04-09T16:11:32.38Z</time></trkpt><trkpt lat="43.8704044" lon="8.0062032"><ele>20.0</ele><time>2026-04-09T16:11:33.38Z</time></trkpt><trkpt lat="43.8704026" lon="8.0063316"><ele>21.2</ele><time>2026-04-09T16:11:34.38Z</time></trkpt><trkpt lat="43.8704152" lon="8.0064608"><ele>22.4</ele><time>2026-04-09T16:11:35.379Z</time></trkpt><trkpt lat="43.8704371" lon="8.006596"><ele>23.6</ele><time>2026-04-09T16:11:36.379Z</time></trkpt><trkpt lat="43.8704675" lon="8.00672"><ele>24.8</ele><time>2026-04-09T16:11:37.379Z</time></trkpt><trkpt lat="43.8705082" lon="8.0068209"><ele>26.0</ele><time>2026-04-09T16:11:38.38Z</time></trkpt><trkpt lat="43.8705583" lon="8.00692"><ele>25.999999999999996</ele><time>2026-04-09T16:11:39.379Z</time></trkpt><trkpt lat="43.8706077" lon="8.0070114"><ele>26.0</ele><time>2026-04-09T16:11:40.38Z</time></trkpt><trkpt lat="43.8706416" lon="8.0070956"><ele>26.0</ele><time>2026-04-09T16:11:41.379Z</time></trkpt><trkpt lat="43.8707056" lon="8.0071974"><ele>26.0</ele><time>2026-04-09T16:11:43.379Z</time></trkpt><trkpt lat="43.8707527" lon="8.0072752"><ele>25.999999999999996</ele><time>2026-04-09T16:11:45.38Z</time></trkpt><trkpt lat="43.8708073" lon="8.0073758"><ele>26.0</ele><time>2026-04-09T16:11:48.379Z</time></trkpt><trkpt lat="43.8708626" lon="8.0074758"><ele>26.499999999999996</ele><time>2026-04-09T16:11:51.379Z</time></trkpt><trkpt lat="43.8709043" lon="8.0075445"><ele>27.0</ele><time>2026-04-09T16:11:53.379Z</time></trkpt><trkpt lat="43.8709605" lon="8.0076488"><ele>27.5</ele><time>2026-04-09T16:11:55.379Z</time></trkpt><trkpt lat="43.8710234" lon="8.0077495"><ele>28.0</ele><time>2026-04-09T16:11:57.38Z</time></trkpt><trkpt lat="43.8710682" lon="8.0078358"><ele>28.499999999999996</ele><time>2026-04-09T16:11:59.38Z</time></trkpt><trkpt lat="43.8711157" lon="8.0079327"><ele>29.0</ele><time>2026-04-09T16:12:02.38Z</time></trkpt><trkpt lat="43.8711608" lon="8.008042"><ele>29.0</ele><time>2026-04-09T16:12:04.38Z</time></trkpt><trkpt lat="43.8711954" lon="8.0081503"><ele>29.0</ele><time>2026-04-09T16:12:06.38Z</time></trkpt><trkpt lat="43.8712335" lon="8.008257"><ele>29.0</ele><time>2026-04-09T16:12:08.379Z</time></trkpt><trkpt lat="43.8712799" lon="8.0083825"><ele>29.0</ele><time>2026-04-09T16:12:10.379Z</time></trkpt><trkpt lat="43.8713383" lon="8.00853"><ele>29.0</ele><time>2026-04-09T16:12:12.379Z</time></trkpt><trkpt lat="43.8713661" lon="8.0086108"><ele>26.599999999999998</ele><time>2026-04-09T16:12:13.38Z</time></trkpt><trkpt lat="43.8714365" lon="8.0087708"><ele>24.2</ele><time>2026-04-09T16:12:15.379Z</time></trkpt><trkpt lat="43.871476" lon="8.0088804"><ele>21.799999999999997</ele><time>2026-04-09T16:12:16.379Z</time></trkpt><trkpt lat="43.8715228" lon="8.0089972"><ele>19.4</ele><time>2026-04-09T16:12:17.38Z</time></trkpt><trkpt lat="43.8715709" lon="8.0091272"><ele>17.0</ele><time>2026-04-09T16:12:18.379Z</time></trkpt><trkpt lat="43.8716129" lon="8.0092489"><ele>17.166666666666668</ele><time>2026-04-09T16:12:19.38Z</time></trkpt><trkpt lat="43.8716641" lon="8.0093668"><ele>17.333333333333336</ele><time>2026-04-09T16:12:20.379Z</time></trkpt><trkpt lat="43.8717123" lon="8.0094758"><ele>17.5</ele><time>2026-04-09T16:12:21.38Z</time></trkpt><trkpt lat="43.8717569" lon="8.0095709"><ele>17.666666666666668</ele><time>2026-04-09T16:12:22.38Z</time></trkpt><trkpt lat="43.8717973" lon="8.0096494"><ele>17.833333333333332</ele><time>2026-04-09T16:12:23.38Z</time></trkpt><trkpt lat="43.8718524" lon="8.0097212"><ele>18.0</ele><time>2026-04-09T16:12:25.38Z</time></trkpt><trkpt lat="43.8719149" lon="8.0098002"><ele>18.0</ele><time>2026-04-09T16:12:30.38Z</time></trkpt><trkpt lat="43.8719889" lon="8.0098649"><ele>18.0</ele><time>2026-04-09T16:12:33.379Z</time></trkpt><trkpt lat="43.8720482" lon="8.0099321"><ele>18.0</ele><time>2026-04-09T16:12:36.379Z</time></trkpt><trkpt lat="43.8721265" lon="8.0099998"><ele>18.0</ele><time>2026-04-09T16:12:39.38Z</time></trkpt><trkpt lat="43.8722104" lon="8.0100426"><ele>18.0</ele><time>2026-04-09T16:12:41.379Z</time></trkpt><trkpt lat="43.8722887" lon="8.0101128"><ele>18.0</ele><time>2026-04-09T16:12:43.379Z</time></trkpt><trkpt lat="43.872381" lon="8.0101747"><ele>16.833333333333332</ele><time>2026-04-09T16:12:49.38Z</time></trkpt><trkpt lat="43.8724374" lon="8.0102181"><ele>15.666666666666666</ele><time>2026-04-09T16:12:50.379Z</time></trkpt><trkpt lat="43.8725412" lon="8.0102884"><ele>14.5</ele><time>2026-04-09T16:12:52.379Z</time></trkpt><trkpt lat="43.8726271" lon="8.0103373"><ele>13.333333333333332</ele><time>2026-04-09T16:12:54.379Z</time></trkpt><trkpt lat="43.8726918" lon="8.0103695"><ele>12.166666666666666</ele><time>2026-04-09T16:12:55.38Z</time></trkpt><trkpt lat="43.8727767" lon="8.0104204"><ele>11.0</ele><time>2026-04-09T16:12:56.38Z</time></trkpt><trkpt lat="43.8728641" lon="8.0104699"><ele>11.0</ele><time>2026-04-09T16:12:57.38Z</time></trkpt><trkpt lat="43.8729452" lon="8.0105338"><ele>11.0</ele><time>2026-04-09T16:12:58.38Z</time></trkpt><trkpt lat="43.8730275" lon="8.0106009"><ele>11.0</ele><time>2026-04-09T16:12:59.379Z</time></trkpt><trkpt lat="43.8731045" lon="8.0106992"><ele>11.0</ele><time>2026-04-09T16:13:00.38Z</time></trkpt><trkpt lat="43.8731731" lon="8.0108258"><ele>11.0</ele><time>2026-04-09T16:13:01.379Z</time></trkpt><trkpt lat="43.8732271" lon="8.0109684"><ele>10.4</ele><time>2026-04-09T16:13:02.379Z</time></trkpt><trkpt lat="43.8732664" lon="8.0110911"><ele>9.8</ele><time>2026-04-09T16:13:03.38Z</time></trkpt><trkpt lat="43.8732942" lon="8.0111925"><ele>9.200000000000001</ele><time>2026-04-09T16:13:04.379Z</time></trkpt><trkpt lat="43.8733151" lon="8.0113334"><ele>8.600000000000001</ele><time>2026-04-09T16:13:06.379Z</time></trkpt><trkpt lat="43.8733381" lon="8.011479"><ele>8.0</ele><time>2026-04-09T16:13:08.379Z</time></trkpt><trkpt lat="43.873377" lon="8.0115981"><ele>9.0</ele><time>2026-04-09T16:13:10.38Z</time></trkpt><trkpt lat="43.8733795" lon="8.0116997"><ele>10.0</ele><time>2026-04-09T16:13:24.381Z</time></trkpt><trkpt lat="43.8733985" lon="8.0118044"><ele>11.0</ele><time>2026-04-09T16:13:26.381Z</time></trkpt><trkpt lat="43.87343" lon="8.0119416"><ele>12.0</ele><time>2026-04-09T16:13:28.382Z</time></trkpt><trkpt lat="43.8734492" lon="8.0120325"><ele>13.000000000000002</ele><time>2026-04-09T16:13:29.382Z</time></trkpt><trkpt lat="43.8734433" lon="8.0121324"><ele>14.0</ele><time>2026-04-09T16:13:30.382Z</time></trkpt><trkpt lat="43.8734372" lon="8.0122298"><ele>14.000000000000002</ele><time>2026-04-09T16:13:31.381Z</time></trkpt><trkpt lat="43.8734279" lon="8.0123181"><ele>14.0</ele><time>2026-04-09T16:13:32.382Z</time></trkpt><trkpt lat="43.8733872" lon="8.012388"><ele>14.0</ele><time>2026-04-09T16:13:33.382Z</time></trkpt><trkpt lat="43.8732532" lon="8.0124663"><ele>14.0</ele><time>2026-04-09T16:13:35.381Z</time></trkpt><trkpt lat="43.8731731" lon="8.0124771"><ele>14.000000000000002</ele><time>2026-04-09T16:13:36.381Z</time></trkpt><trkpt lat="43.8730935" lon="8.012485"><ele>14.0</ele><time>2026-04-09T16:13:37.381Z</time></trkpt><trkpt lat="43.873022" lon="8.0124975"><ele>16.166666666666668</ele><time>2026-04-09T16:13:38.382Z</time></trkpt><trkpt lat="43.8729504" lon="8.0125161"><ele>18.333333333333336</ele><time>2026-04-09T16:13:39.382Z</time></trkpt><trkpt lat="43.872873" lon="8.0125374"><ele>20.5</ele><time>2026-04-09T16:13:40.381Z</time></trkpt><trkpt lat="43.8727985" lon="8.0125689"><ele>22.666666666666668</ele><time>2026-04-09T16:13:41.382Z</time></trkpt><trkpt lat="43.8727289" lon="8.0126283"><ele>24.833333333333332</ele><time>2026-04-09T16:13:42.381Z</time></trkpt><trkpt lat="43.8726705" lon="8.012704"><ele>27.0</ele><time>2026-04-09T16:13:43.382Z</time></trkpt><trkpt lat="43.8726224" lon="8.0128004"><ele>25.8</ele><time>2026-04-09T16:13:44.382Z</time></trkpt><trkpt lat="43.872589" lon="8.0129055"><ele>24.6</ele><time>2026-04-09T16:13:45.381Z</time></trkpt><trkpt lat="43.872564" lon="8.0130194"><ele>23.400000000000002</ele><time>2026-04-09T16:13:46.381Z</time></trkpt><trkpt lat="43.8725384" lon="8.013146"><ele>22.200000000000003</ele><time>2026-04-09T16:13:47.382Z</time></trkpt><trkpt lat="43.8725151" lon="8.0132933"><ele>21.0</ele><time>2026-04-09T16:13:48.382Z</time></trkpt><trkpt lat="43.8724972" lon="8.0134469"><ele>21.0</ele><time>2026-04-09T16:13:49.381Z</time></trkpt><trkpt lat="43.8724742" lon="8.0135599"><ele>21.0</ele><time>2026-04-09T16:13:50.381Z</time></trkpt><trkpt lat="43.8724587" lon="8.0136568"><ele>21.0</ele><time>2026-04-09T16:13:51.381Z</time></trkpt><trkpt lat="43.8724331" lon="8.0137629"><ele>21.0</ele><time>2026-04-09T16:13:52.381Z</time></trkpt><trkpt lat="43.8724027" lon="8.0138714"><ele>21.0</ele><time>2026-04-09T16:13:53.381Z</time></trkpt><trkpt lat="43.8723848" lon="8.0139932"><ele>21.0</ele><time>2026-04-09T16:13:54.382Z</time></trkpt><trkpt lat="43.8723635" lon="8.0141048"><ele>21.4</ele><time>2026-04-09T16:13:55.382Z</time></trkpt><trkpt lat="43.8723434" lon="8.0142159"><ele>21.8</ele><time>2026-04-09T16:13:56.382Z</time></trkpt><trkpt lat="43.8723375" lon="8.0143313"><ele>22.2</ele><time>2026-04-09T16:13:57.382Z</time></trkpt><trkpt lat="43.8723449" lon="8.0144533"><ele>22.599999999999998</ele><time>2026-04-09T16:13:58.382Z</time></trkpt><trkpt lat="43.8723651" lon="8.0145886"><ele>23.0</ele><time>2026-04-09T16:13:59.381Z</time></trkpt><trkpt lat="43.8723944" lon="8.0147319"><ele>23.0</ele><time>2026-04-09T16:14:00.382Z</time></trkpt><trkpt lat="43.8724259" lon="8.014912"><ele>23.0</ele><time>2026-04-09T16:14:01.382Z</time></trkpt><trkpt lat="43.8724647" lon="8.0150808"><ele>23.0</ele><time>2026-04-09T16:14:02.382Z</time></trkpt><trkpt lat="43.8725046" lon="8.0152292"><ele>23.0</ele><time>2026-04-09T16:14:03.381Z</time></trkpt><trkpt lat="43.8725482" lon="8.0153651"><ele>22.666666666666668</ele><time>2026-04-09T16:14:04.381Z</time></trkpt><trkpt lat="43.8725938" lon="8.0154727"><ele>22.333333333333336</ele><time>2026-04-09T16:14:05.381Z</time></trkpt><trkpt lat="43.8726349" lon="8.0155546"><ele>22.0</ele><time>2026-04-09T16:14:06.381Z</time></trkpt><trkpt lat="43.8726794" lon="8.0156235"><ele>21.666666666666668</ele><time>2026-04-09T16:14:07.381Z</time></trkpt><trkpt lat="43.8727222" lon="8.015689"><ele>21.333333333333332</ele><time>2026-04-09T16:14:08.382Z</time></trkpt><trkpt lat="43.8727776" lon="8.0157931"><ele>21.0</ele><time>2026-04-09T16:14:10.381Z</time></trkpt><trkpt lat="43.8728447" lon="8.0159034"><ele>27.0</ele><time>2026-04-09T16:14:12.381Z</time></trkpt><trkpt lat="43.8728941" lon="8.0159715"><ele>33.0</ele><time>2026-04-09T16:14:13.382Z</time></trkpt><trkpt lat="43.8729652" lon="8.0160628"><ele>39.0</ele><time>2026-04-09T16:14:14.381Z</time></trkpt><trkpt lat="43.8730387" lon="8.0161908"><ele>45.0</ele><time>2026-04-09T16:14:15.382Z</time></trkpt><trkpt lat="43.8731123" lon="8.016326"><ele>51.0</ele><time>2026-04-09T16:14:16.382Z</time></trkpt><trkpt lat="43.8731803" lon="8.0164495"><ele>51.0</ele><time>2026-04-09T16:14:17.382Z</time></trkpt><trkpt lat="43.8732455" lon="8.0165478"><ele>51.0</ele><time>2026-04-09T16:14:18.382Z</time></trkpt><trkpt lat="43.8733105" lon="8.0166332"><ele>51.0</ele><time>2026-04-09T16:14:19.381Z</time></trkpt><trkpt lat="43.8733721" lon="8.0167171"><ele>51.0</ele><time>2026-04-09T16:14:20.381Z</time></trkpt><trkpt lat="43.8734411" lon="8.0168027"><ele>51.0</ele><time>2026-04-09T16:14:21.381Z</time></trkpt><trkpt lat="43.8735127" lon="8.0168935"><ele>50.4</ele><time>2026-04-09T16:14:22.381Z</time></trkpt><trkpt lat="43.8735826" lon="8.0169905"><ele>49.8</ele><time>2026-04-09T16:14:23.381Z</time></trkpt><trkpt lat="43.8736427" lon="8.017102"><ele>49.199999999999996</ele><time>2026-04-09T16:14:24.382Z</time></trkpt><trkpt lat="43.8737189" lon="8.0172153"><ele>48.599999999999994</ele><time>2026-04-09T16:14:25.382Z</time></trkpt><trkpt lat="43.8737963" lon="8.0173242"><ele>48.0</ele><time>2026-04-09T16:14:26.381Z</time></trkpt><trkpt lat="43.8738753" lon="8.0174336"><ele>42.25</ele><time>2026-04-09T16:14:27.382Z</time></trkpt><trkpt lat="43.8739577" lon="8.0175481"><ele>36.5</ele><time>2026-04-09T16:14:28.381Z</time></trkpt><trkpt lat="43.874027" lon="8.0176785"><ele>30.75</ele><time>2026-04-09T16:14:29.382Z</time></trkpt><trkpt lat="43.8740852" lon="8.0178158"><ele>25.0</ele><time>2026-04-09T16:14:30.381Z</time></trkpt><trkpt lat="43.8741386" lon="8.0179467"><ele>25.0</ele><time>2026-04-09T16:14:31.382Z</time></trkpt><trkpt lat="43.8742015" lon="8.0180717"><ele>25.0</ele><time>2026-04-09T16:14:32.381Z</time></trkpt><trkpt lat="43.8742799" lon="8.0181808"><ele>25.0</ele><time>2026-04-09T16:14:33.382Z</time></trkpt><trkpt lat="43.874371" lon="8.0182778"><ele>25.0</ele><time>2026-04-09T16:14:34.382Z</time></trkpt><trkpt lat="43.874461" lon="8.018371"><ele>25.0</ele><time>2026-04-09T16:14:35.382Z</time></trkpt><trkpt lat="43.8745505" lon="8.0184515"><ele>23.4</ele><time>2026-04-09T16:14:36.381Z</time></trkpt><trkpt lat="43.8746505" lon="8.0184975"><ele>21.8</ele><time>2026-04-09T16:14:37.382Z</time></trkpt><trkpt lat="43.8747584" lon="8.0185147"><ele>20.2</ele><time>2026-04-09T16:14:38.382Z</time></trkpt><trkpt lat="43.8748654" lon="8.0185286"><ele>18.6</ele><time>2026-04-09T16:14:39.382Z</time></trkpt><trkpt lat="43.8749711" lon="8.0185681"><ele>17.0</ele><time>2026-04-09T16:14:40.382Z</time></trkpt><trkpt lat="43.8750727" lon="8.0186193"><ele>16.5</ele><time>2026-04-09T16:14:41.382Z</time></trkpt><trkpt lat="43.8751683" lon="8.0186681"><ele>16.0</ele><time>2026-04-09T16:14:42.381Z</time></trkpt><trkpt lat="43.8752528" lon="8.0187161"><ele>15.5</ele><time>2026-04-09T16:14:43.382Z</time></trkpt><trkpt lat="43.8753259" lon="8.0187581"><ele>15.0</ele><time>2026-04-09T16:14:44.382Z</time></trkpt><trkpt lat="43.8753936" lon="8.0187963"><ele>14.500000000000002</ele><time>2026-04-09T16:14:45.381Z</time></trkpt><trkpt lat="43.8754646" lon="8.0188467"><ele>14.0</ele><time>2026-04-09T16:14:46.382Z</time></trkpt><trkpt lat="43.8755382" lon="8.018915"><ele>14.0</ele><time>2026-04-09T16:14:47.382Z</time></trkpt><trkpt lat="43.8756154" lon="8.0189922"><ele>13.999999999999998</ele><time>2026-04-09T16:14:48.381Z</time></trkpt><trkpt lat="43.8756953" lon="8.0190848"><ele>13.999999999999998</ele><time>2026-04-09T16:14:49.382Z</time></trkpt><trkpt lat="43.8757698" lon="8.019177"><ele>14.0</ele><time>2026-04-09T16:14:50.382Z</time></trkpt><trkpt lat="43.8758266" lon="8.0192574"><ele>14.0</ele><time>2026-04-09T16:14:51.381Z</time></trkpt><trkpt lat="43.8759088" lon="8.0193434"><ele>12.500000000000002</ele><time>2026-04-09T16:14:53.381Z</time></trkpt><trkpt lat="43.8759836" lon="8.019423"><ele>11.0</ele><time>2026-04-09T16:14:55.381Z</time></trkpt><trkpt lat="43.8760823" lon="8.0194599"><ele>9.5</ele><time>2026-04-09T16:14:57.381Z</time></trkpt><trkpt lat="43.8761503" lon="8.0194625"><ele>8.0</ele><time>2026-04-09T16:14:58.381Z</time></trkpt><trkpt lat="43.8762301" lon="8.0194532"><ele>6.5</ele><time>2026-04-09T16:14:59.381Z</time></trkpt><trkpt lat="43.876308" lon="8.0194245"><ele>5.0</ele><time>2026-04-09T16:15:00.382Z</time></trkpt><trkpt lat="43.8763806" lon="8.0193955"><ele>5.0</ele><time>2026-04-09T16:15:01.382Z</time></trkpt><trkpt lat="43.8764431" lon="8.019358"><ele>5.0</ele><time>2026-04-09T16:15:02.381Z</time></trkpt><trkpt lat="43.8765402" lon="8.0192794"><ele>5.0</ele><time>2026-04-09T16:15:04.382Z</time></trkpt><trkpt lat="43.8766511" lon="8.0191958"><ele>5.0</ele><time>2026-04-09T16:15:06.382Z</time></trkpt><trkpt lat="43.8767355" lon="8.0191244"><ele>5.0</ele><time>2026-04-09T16:15:08.382Z</time></trkpt><trkpt lat="43.8767931" lon="8.0190592"><ele>5.166666666666667</ele><time>2026-04-09T16:15:10.381Z</time></trkpt><trkpt lat="43.8768664" lon="8.018991"><ele>5.333333333333334</ele><time>2026-04-09T16:15:12.381Z</time></trkpt><trkpt lat="43.8769748" lon="8.0189153"><ele>5.5</ele><time>2026-04-09T16:15:14.382Z</time></trkpt><trkpt lat="43.8770355" lon="8.0188747"><ele>5.666666666666667</ele><time>2026-04-09T16:15:15.382Z</time></trkpt><trkpt lat="43.8770965" lon="8.0188299"><ele>5.833333333333333</ele><time>2026-04-09T16:15:16.382Z</time></trkpt><trkpt lat="43.8771552" lon="8.0187939"><ele>6.0</ele><time>2026-04-09T16:15:17.381Z</time></trkpt><trkpt lat="43.8772477" lon="8.0187292"><ele>6.0</ele><time>2026-04-09T16:15:19.381Z</time></trkpt><trkpt lat="43.8773374" lon="8.0186851"><ele>6.0</ele><time>2026-04-09T16:15:21.382Z</time></trkpt><trkpt lat="43.8774227" lon="8.0186576"><ele>6.0</ele><time>2026-04-09T16:15:23.381Z</time></trkpt><trkpt lat="43.8775118" lon="8.0186324"><ele>6.0</ele><time>2026-04-09T16:15:25.381Z</time></trkpt><trkpt lat="43.8775921" lon="8.0185997"><ele>6.0</ele><time>2026-04-09T16:15:29.382Z</time></trkpt><trkpt lat="43.8776875" lon="8.0185751"><ele>6.199999999999999</ele><time>2026-04-09T16:15:31.382Z</time></trkpt><trkpt lat="43.877767" lon="8.0185595"><ele>6.3999999999999995</ele><time>2026-04-09T16:15:32.381Z</time></trkpt><trkpt lat="43.8778706" lon="8.0185503"><ele>6.6</ele><time>2026-04-09T16:15:33.381Z</time></trkpt><trkpt lat="43.8779804" lon="8.0185446"><ele>6.8</ele><time>2026-04-09T16:15:34.381Z</time></trkpt><trkpt lat="43.8780822" lon="8.0185369"><ele>7.0</ele><time>2026-04-09T16:15:35.382Z</time></trkpt><trkpt lat="43.8781652" lon="8.0185332"><ele>7.0</ele><time>2026-04-09T16:15:36.382Z</time></trkpt><trkpt lat="43.8782608" lon="8.018527"><ele>6.999999999999999</ele><time>2026-04-09T16:15:38.382Z</time></trkpt><trkpt lat="43.8783392" lon="8.0185388"><ele>6.999999999999999</ele><time>2026-04-09T16:15:43.382Z</time></trkpt><trkpt lat="43.8784628" lon="8.0185472"><ele>7.0</ele><time>2026-04-09T16:15:46.381Z</time></trkpt><trkpt lat="43.8785566" lon="8.0185771"><ele>7.0</ele><time>2026-04-09T16:15:47.382Z</time></trkpt><trkpt lat="43.8786604" lon="8.0186213"><ele>7.3999999999999995</ele><time>2026-04-09T16:15:48.381Z</time></trkpt><trkpt lat="43.8787729" lon="8.0186586"><ele>7.799999999999999</ele><time>2026-04-09T16:15:49.381Z</time></trkpt><trkpt lat="43.8788603" lon="8.0186969"><ele>8.2</ele><time>2026-04-09T16:15:50.381Z</time></trkpt><trkpt lat="43.8789461" lon="8.0187349"><ele>8.6</ele><time>2026-04-09T16:15:51.381Z</time></trkpt><trkpt lat="43.8790218" lon="8.0187667"><ele>9.0</ele><time>2026-04-09T16:15:52.381Z</time></trkpt><trkpt lat="43.8791352" lon="8.0188463"><ele>9.0</ele><time>2026-04-09T16:15:54.382Z</time></trkpt><trkpt lat="43.879231" lon="8.0188967"><ele>9.0</ele><time>2026-04-09T16:15:56.381Z</time></trkpt><trkpt lat="43.8793007" lon="8.0189323"><ele>9.0</ele><time>2026-04-09T16:15:58.382Z</time></trkpt><trkpt lat="43.8793968" lon="8.0189342"><ele>9.0</ele><time>2026-04-09T16:16:00.381Z</time></trkpt><trkpt lat="43.879466" lon="8.0189521"><ele>9.0</ele><time>2026-04-09T16:16:03.382Z</time></trkpt><trkpt lat="43.8795577" lon="8.019014"><ele>9.0</ele><time>2026-04-09T16:16:07.381Z</time></trkpt><trkpt lat="43.8796285" lon="8.0190506"><ele>9.0</ele><time>2026-04-09T16:16:08.381Z</time></trkpt><trkpt lat="43.8797146" lon="8.0191055"><ele>9.0</ele><time>2026-04-09T16:16:09.381Z</time></trkpt><trkpt lat="43.8798259" lon="8.0191644"><ele>9.0</ele><time>2026-04-09T16:16:10.382Z</time></trkpt><trkpt lat="43.879952" lon="8.0192388"><ele>9.0</ele><time>2026-04-09T16:16:11.381Z</time></trkpt><trkpt lat="43.8800899" lon="8.0193253"><ele>12.0</ele><time>2026-04-09T16:16:12.381Z</time></trkpt><trkpt lat="43.8802411" lon="8.0194277"><ele>15.0</ele><time>2026-04-09T16:16:13.382Z</time></trkpt><trkpt lat="43.8803952" lon="8.0195559"><ele>18.0</ele><time>2026-04-09T16:16:14.381Z</time></trkpt><trkpt lat="43.8805438" lon="8.0197107"><ele>18.0</ele><time>2026-04-09T16:16:15.381Z</time></trkpt><trkpt lat="43.880691" lon="8.0198754"><ele>18.0</ele><time>2026-04-09T16:16:16.381Z</time></trkpt><trkpt lat="43.8808182" lon="8.0200386"><ele>18.0</ele><time>2026-04-09T16:16:17.382Z</time></trkpt><trkpt lat="43.8809275" lon="8.0201898"><ele>19.666666666666668</ele><time>2026-04-09T16:16:18.381Z</time></trkpt><trkpt lat="43.8810376" lon="8.0203466"><ele>21.333333333333336</ele><time>2026-04-09T16:16:19.382Z</time></trkpt><trkpt lat="43.8811435" lon="8.0204974"><ele>23.0</ele><time>2026-04-09T16:16:20.381Z</time></trkpt><trkpt lat="43.8812518" lon="8.0206402"><ele>23.0</ele><time>2026-04-09T16:16:21.381Z</time></trkpt><trkpt lat="43.8813571" lon="8.020786"><ele>23.0</ele><time>2026-04-09T16:16:22.382Z</time></trkpt><trkpt lat="43.8814597" lon="8.0209384"><ele>23.0</ele><time>2026-04-09T16:16:23.382Z</time></trkpt><trkpt lat="43.8815561" lon="8.0210995"><ele>22.75</ele><time>2026-04-09T16:16:24.382Z</time></trkpt><trkpt lat="43.8816432" lon="8.0212532"><ele>22.5</ele><time>2026-04-09T16:16:25.382Z</time></trkpt><trkpt lat="43.8817164" lon="8.0214069"><ele>22.25</ele><time>2026-04-09T16:16:26.382Z</time></trkpt><trkpt lat="43.881778" lon="8.0215474"><ele>22.0</ele><time>2026-04-09T16:16:27.381Z</time></trkpt><trkpt lat="43.8818219" lon="8.0216644"><ele>22.0</ele><time>2026-04-09T16:16:28.381Z</time></trkpt><trkpt lat="43.8818583" lon="8.0217703"><ele>22.0</ele><time>2026-04-09T16:16:29.381Z</time></trkpt><trkpt lat="43.8818933" lon="8.0218786"><ele>22.0</ele><time>2026-04-09T16:16:30.381Z</time></trkpt><trkpt lat="43.8819351" lon="8.0220028"><ele>22.0</ele><time>2026-04-09T16:16:31.381Z</time></trkpt><trkpt lat="43.881976" lon="8.0221386"><ele>22.0</ele><time>2026-04-09T16:16:32.381Z</time></trkpt><trkpt lat="43.8820086" lon="8.0222667"><ele>22.0</ele><time>2026-04-09T16:16:33.381Z</time></trkpt><trkpt lat="43.8820368" lon="8.0223749"><ele>22.0</ele><time>2026-04-09T16:16:34.382Z</time></trkpt><trkpt lat="43.8820691" lon="8.0224797"><ele>22.0</ele><time>2026-04-09T16:16:35.382Z</time></trkpt><trkpt lat="43.8820955" lon="8.0225714"><ele>22.0</ele><time>2026-04-09T16:16:36.381Z</time></trkpt><trkpt lat="43.8821235" lon="8.022653"><ele>22.0</ele><time>2026-04-09T16:16:37.382Z</time></trkpt><trkpt lat="43.8821593" lon="8.0227453"><ele>22.0</ele><time>2026-04-09T16:16:38.381Z</time></trkpt><trkpt lat="43.8822013" lon="8.0228508"><ele>21.5</ele><time>2026-04-09T16:16:39.381Z</time></trkpt><trkpt lat="43.8822361" lon="8.0229697"><ele>21.0</ele><time>2026-04-09T16:16:40.381Z</time></trkpt><trkpt lat="43.8822722" lon="8.0231181"><ele>20.5</ele><time>2026-04-09T16:16:41.382Z</time></trkpt><trkpt lat="43.8823102" lon="8.0232895"><ele>20.0</ele><time>2026-04-09T16:16:42.381Z</time></trkpt><trkpt lat="43.8823576" lon="8.0234772"><ele>18.666666666666668</ele><time>2026-04-09T16:16:43.381Z</time></trkpt><trkpt lat="43.8824021" lon="8.0236779"><ele>17.333333333333332</ele><time>2026-04-09T16:16:44.381Z</time></trkpt><trkpt lat="43.8824403" lon="8.0238882"><ele>16.0</ele><time>2026-04-09T16:16:45.381Z</time></trkpt><trkpt lat="43.8824819" lon="8.0241125"><ele>15.0</ele><time>2026-04-09T16:16:46.382Z</time></trkpt><trkpt lat="43.8825329" lon="8.0243421"><ele>14.0</ele><time>2026-04-09T16:16:47.382Z</time></trkpt><trkpt lat="43.8825929" lon="8.0245683"><ele>13.0</ele><time>2026-04-09T16:16:48.381Z</time></trkpt><trkpt lat="43.8826571" lon="8.0247803"><ele>17.666666666666664</ele><time>2026-04-09T16:16:49.381Z</time></trkpt><trkpt lat="43.8827293" lon="8.0249936"><ele>22.333333333333332</ele><time>2026-04-09T16:16:50.382Z</time></trkpt><trkpt lat="43.8828185" lon="8.0252018"><ele>27.0</ele><time>2026-04-09T16:16:51.381Z</time></trkpt><trkpt lat="43.8829148" lon="8.0254144"><ele>27.0</ele><time>2026-04-09T16:16:52.381Z</time></trkpt><trkpt lat="43.8830172" lon="8.0256163"><ele>27.0</ele><time>2026-04-09T16:16:53.382Z</time></trkpt><trkpt lat="43.8831326" lon="8.0258075"><ele>27.0</ele><time>2026-04-09T16:16:54.382Z</time></trkpt><trkpt lat="43.8832585" lon="8.0259921"><ele>29.666666666666664</ele><time>2026-04-09T16:16:55.382Z</time></trkpt><trkpt lat="43.8833937" lon="8.0261863"><ele>32.33333333333333</ele><time>2026-04-09T16:16:56.381Z</time></trkpt><trkpt lat="43.883537" lon="8.0263754"><ele>35.0</ele><time>2026-04-09T16:16:57.381Z</time></trkpt><trkpt lat="43.8836875" lon="8.026561"><ele>30.666666666666664</ele><time>2026-04-09T16:16:58.382Z</time></trkpt><trkpt lat="43.8838371" lon="8.0267439"><ele>26.333333333333332</ele><time>2026-04-09T16:16:59.381Z</time></trkpt><trkpt lat="43.883988" lon="8.0269201"><ele>22.0</ele><time>2026-04-09T16:17:00.382Z</time></trkpt><trkpt lat="43.8841287" lon="8.0270968"><ele>22.0</ele><time>2026-04-09T16:17:01.381Z</time></trkpt><trkpt lat="43.8842595" lon="8.0272711"><ele>22.0</ele><time>2026-04-09T16:17:02.381Z</time></trkpt><trkpt lat="43.8843881" lon="8.0274451"><ele>22.0</ele><time>2026-04-09T16:17:03.381Z</time></trkpt><trkpt lat="43.8845077" lon="8.0276158"><ele>22.5</ele><time>2026-04-09T16:17:04.381Z</time></trkpt><trkpt lat="43.8846115" lon="8.0277815"><ele>23.0</ele><time>2026-04-09T16:17:05.381Z</time></trkpt><trkpt lat="43.8847017" lon="8.0279439"><ele>23.5</ele><time>2026-04-09T16:17:06.381Z</time></trkpt><trkpt lat="43.8847899" lon="8.0280956"><ele>24.0</ele><time>2026-04-09T16:17:07.381Z</time></trkpt><trkpt lat="43.8848601" lon="8.0282423"><ele>23.75</ele><time>2026-04-09T16:17:08.382Z</time></trkpt><trkpt lat="43.884936" lon="8.0283793"><ele>23.5</ele><time>2026-04-09T16:17:09.382Z</time></trkpt><trkpt lat="43.8850156" lon="8.0285366"><ele>23.25</ele><time>2026-04-09T16:17:10.381Z</time></trkpt><trkpt lat="43.8850987" lon="8.0287002"><ele>23.0</ele><time>2026-04-09T16:17:11.381Z</time></trkpt><trkpt lat="43.8851747" lon="8.0288646"><ele>23.0</ele><time>2026-04-09T16:17:12.382Z</time></trkpt><trkpt lat="43.8852586" lon="8.0290156"><ele>23.0</ele><time>2026-04-09T16:17:13.382Z</time></trkpt><trkpt lat="43.8853408" lon="8.0291665"><ele>23.0</ele><time>2026-04-09T16:17:14.381Z</time></trkpt><trkpt lat="43.8854215" lon="8.0293229"><ele>23.0</ele><time>2026-04-09T16:17:15.381Z</time></trkpt><trkpt lat="43.8855007" lon="8.0294881"><ele>21.0</ele><time>2026-04-09T16:17:16.381Z</time></trkpt><trkpt lat="43.8855717" lon="8.0296354"><ele>19.0</ele><time>2026-04-09T16:17:17.381Z</time></trkpt><trkpt lat="43.885637" lon="8.0297673"><ele>17.0</ele><time>2026-04-09T16:17:18.382Z</time></trkpt><trkpt lat="43.8856961" lon="8.0298885"><ele>15.0</ele><time>2026-04-09T16:17:19.383Z</time></trkpt><trkpt lat="43.8857615" lon="8.0300259"><ele>15.5</ele><time>2026-04-09T16:17:20.383Z</time></trkpt><trkpt lat="43.8858322" lon="8.0301828"><ele>16.0</ele><time>2026-04-09T16:17:21.383Z</time></trkpt><trkpt lat="43.8859026" lon="8.0303434"><ele>16.5</ele><time>2026-04-09T16:17:22.383Z</time></trkpt><trkpt lat="43.8859786" lon="8.0304955"><ele>17.0</ele><time>2026-04-09T16:17:23.383Z</time></trkpt><trkpt lat="43.8860479" lon="8.0306436"><ele>17.0</ele><time>2026-04-09T16:17:24.382Z</time></trkpt><trkpt lat="43.8861154" lon="8.0307826"><ele>17.0</ele><time>2026-04-09T16:17:25.383Z</time></trkpt><trkpt lat="43.8862418" lon="8.0310521"><ele>17.0</ele><time>2026-04-09T16:17:27.382Z</time></trkpt><trkpt lat="43.8863039" lon="8.0311862"><ele>15.0</ele><time>2026-04-09T16:17:28.383Z</time></trkpt><trkpt lat="43.8863662" lon="8.0313314"><ele>13.0</ele><time>2026-04-09T16:17:29.383Z</time></trkpt><trkpt lat="43.8864238" lon="8.0314716"><ele>11.0</ele><time>2026-04-09T16:17:30.383Z</time></trkpt><trkpt lat="43.8864823" lon="8.0316161"><ele>9.0</ele><time>2026-04-09T16:17:31.383Z</time></trkpt><trkpt lat="43.8865412" lon="8.0317678"><ele>8.5</ele><time>2026-04-09T16:17:32.382Z</time></trkpt><trkpt lat="43.8865984" lon="8.0319183"><ele>8.0</ele><time>2026-04-09T16:17:33.383Z</time></trkpt><trkpt lat="43.8866556" lon="8.032073"><ele>7.5</ele><time>2026-04-09T16:17:34.382Z</time></trkpt><trkpt lat="43.8867125" lon="8.032232"><ele>7.0</ele><time>2026-04-09T16:17:35.383Z</time></trkpt><trkpt lat="43.8867746" lon="8.0323986"><ele>7.666666666666667</ele><time>2026-04-09T16:17:36.382Z</time></trkpt><trkpt lat="43.8868313" lon="8.0325863"><ele>8.333333333333334</ele><time>2026-04-09T16:17:37.383Z</time></trkpt><trkpt lat="43.8868908" lon="8.032793"><ele>9.0</ele><time>2026-04-09T16:17:38.382Z</time></trkpt><trkpt lat="43.8869559" lon="8.0330061"><ele>9.0</ele><time>2026-04-09T16:17:39.382Z</time></trkpt><trkpt lat="43.8870118" lon="8.0332151"><ele>9.0</ele><time>2026-04-09T16:17:40.383Z</time></trkpt><trkpt lat="43.887064" lon="8.033412"><ele>9.0</ele><time>2026-04-09T16:17:41.383Z</time></trkpt><trkpt lat="43.8871212" lon="8.0336099"><ele>9.333333333333334</ele><time>2026-04-09T16:17:42.383Z</time></trkpt><trkpt lat="43.887177" lon="8.033821"><ele>9.666666666666668</ele><time>2026-04-09T16:17:43.383Z</time></trkpt><trkpt lat="43.8872392" lon="8.0340529"><ele>10.0</ele><time>2026-04-09T16:17:44.382Z</time></trkpt><trkpt lat="43.8872993" lon="8.0342904"><ele>9.333333333333334</ele><time>2026-04-09T16:17:45.383Z</time></trkpt><trkpt lat="43.8873418" lon="8.0345045"><ele>8.666666666666666</ele><time>2026-04-09T16:17:46.382Z</time></trkpt><trkpt lat="43.8873804" lon="8.0347062"><ele>8.0</ele><time>2026-04-09T16:17:47.383Z</time></trkpt><trkpt lat="43.887415" lon="8.0348978"><ele>8.0</ele><time>2026-04-09T16:17:48.383Z</time></trkpt><trkpt lat="43.8874529" lon="8.0350761"><ele>8.0</ele><time>2026-04-09T16:17:49.383Z</time></trkpt><trkpt lat="43.8874925" lon="8.035266"><ele>8.0</ele><time>2026-04-09T16:17:50.383Z</time></trkpt><trkpt lat="43.8875473" lon="8.0354547"><ele>8.0</ele><time>2026-04-09T16:17:51.383Z</time></trkpt><trkpt lat="43.8876024" lon="8.0356411"><ele>7.5</ele><time>2026-04-09T16:17:52.382Z</time></trkpt><trkpt lat="43.8876488" lon="8.035808"><ele>7.0</ele><time>2026-04-09T16:17:53.383Z</time></trkpt><trkpt lat="43.8876941" lon="8.0359581"><ele>6.5</ele><time>2026-04-09T16:17:54.382Z</time></trkpt><trkpt lat="43.8877444" lon="8.0361027"><ele>6.0</ele><time>2026-04-09T16:17:55.382Z</time></trkpt><trkpt lat="43.8877954" lon="8.0362523"><ele>6.0</ele><time>2026-04-09T16:17:56.383Z</time></trkpt><trkpt lat="43.8878412" lon="8.0364212"><ele>6.0</ele><time>2026-04-09T16:17:57.382Z</time></trkpt><trkpt lat="43.8878951" lon="8.0366085"><ele>6.0</ele><time>2026-04-09T16:17:58.383Z</time></trkpt><trkpt lat="43.8879351" lon="8.0368003"><ele>6.0</ele><time>2026-04-09T16:17:59.382Z</time></trkpt><trkpt lat="43.8879806" lon="8.0369865"><ele>6.0</ele><time>2026-04-09T16:18:00.383Z</time></trkpt><trkpt lat="43.8880226" lon="8.0371598"><ele>6.0</ele><time>2026-04-09T16:18:01.382Z</time></trkpt><trkpt lat="43.8880592" lon="8.0373267"><ele>6.0</ele><time>2026-04-09T16:18:02.382Z</time></trkpt><trkpt lat="43.888094" lon="8.0374965"><ele>6.0</ele><time>2026-04-09T16:18:03.382Z</time></trkpt><trkpt lat="43.8881281" lon="8.0376552"><ele>7.0</ele><time>2026-04-09T16:18:04.383Z</time></trkpt><trkpt lat="43.8881561" lon="8.0377994"><ele>8.0</ele><time>2026-04-09T16:18:05.383Z</time></trkpt><trkpt lat="43.8881794" lon="8.0379353"><ele>9.0</ele><time>2026-04-09T16:18:06.383Z</time></trkpt><trkpt lat="43.8881952" lon="8.0380636"><ele>10.0</ele><time>2026-04-09T16:18:07.383Z</time></trkpt><trkpt lat="43.8882207" lon="8.0381762"><ele>11.0</ele><time>2026-04-09T16:18:08.383Z</time></trkpt><trkpt lat="43.8882427" lon="8.0382751"><ele>11.166666666666666</ele><time>2026-04-09T16:18:09.383Z</time></trkpt><trkpt lat="43.8882638" lon="8.0384168"><ele>11.333333333333332</ele><time>2026-04-09T16:18:11.382Z</time></trkpt><trkpt lat="43.8882706" lon="8.0385129"><ele>11.5</ele><time>2026-04-09T16:18:14.383Z</time></trkpt><trkpt lat="43.8883145" lon="8.0385895"><ele>11.666666666666666</ele><time>2026-04-09T16:18:32.382Z</time></trkpt><trkpt lat="43.8883824" lon="8.0385654"><ele>11.833333333333334</ele><time>2026-04-09T16:18:33.382Z</time></trkpt><trkpt lat="43.8884811" lon="8.0385201"><ele>12.0</ele><time>2026-04-09T16:18:35.382Z</time></trkpt><trkpt lat="43.8885553" lon="8.0384779"><ele>12.2</ele><time>2026-04-09T16:18:38.382Z</time></trkpt><trkpt lat="43.8886256" lon="8.0384428"><ele>12.399999999999999</ele><time>2026-04-09T16:18:40.383Z</time></trkpt><trkpt lat="43.8887342" lon="8.0384081"><ele>12.600000000000001</ele><time>2026-04-09T16:18:42.383Z</time></trkpt><trkpt lat="43.8888178" lon="8.0383735"><ele>12.8</ele><time>2026-04-09T16:18:44.382Z</time></trkpt><trkpt lat="43.8889177" lon="8.038318"><ele>13.0</ele><time>2026-04-09T16:18:46.383Z</time></trkpt><trkpt lat="43.8889885" lon="8.0382819"><ele>12.999999999999998</ele><time>2026-04-09T16:18:47.382Z</time></trkpt><trkpt lat="43.8890516" lon="8.038247"><ele>13.0</ele><time>2026-04-09T16:18:48.383Z</time></trkpt><trkpt lat="43.8891164" lon="8.0382047"><ele>13.0</ele><time>2026-04-09T16:18:49.382Z</time></trkpt><trkpt lat="43.8891791" lon="8.0381642"><ele>13.0</ele><time>2026-04-09T16:18:50.382Z</time></trkpt><trkpt lat="43.8892882" lon="8.0381005"><ele>12.999999999999998</ele><time>2026-04-09T16:18:52.382Z</time></trkpt><trkpt lat="43.8893579" lon="8.0380456"><ele>13.0</ele><time>2026-04-09T16:18:54.383Z</time></trkpt><trkpt lat="43.8894539" lon="8.0379708"><ele>12.833333333333332</ele><time>2026-04-09T16:18:56.383Z</time></trkpt><trkpt lat="43.8895154" lon="8.0379288"><ele>12.666666666666666</ele><time>2026-04-09T16:18:57.382Z</time></trkpt><trkpt lat="43.8896197" lon="8.037867"><ele>12.5</ele><time>2026-04-09T16:18:59.383Z</time></trkpt><trkpt lat="43.8896958" lon="8.0378226"><ele>12.333333333333332</ele><time>2026-04-09T16:19:01.382Z</time></trkpt><trkpt lat="43.8897671" lon="8.0377926"><ele>12.166666666666666</ele><time>2026-04-09T16:19:05.383Z</time></trkpt><trkpt lat="43.8898327" lon="8.0377894"><ele>12.0</ele><time>2026-04-09T16:19:10.382Z</time></trkpt><trkpt lat="43.8899019" lon="8.0378357"><ele>12.0</ele><time>2026-04-09T16:19:13.383Z</time></trkpt><trkpt lat="43.889934" lon="8.0379363"><ele>12.0</ele><time>2026-04-09T16:19:20.383Z</time></trkpt><trkpt lat="43.8899367" lon="8.0380343"><ele>12.0</ele><time>2026-04-09T16:19:23.382Z</time></trkpt><trkpt lat="43.8899165" lon="8.0381349"><ele>12.0</ele><time>2026-04-09T16:19:26.382Z</time></trkpt><trkpt lat="43.889891" lon="8.0382938"><ele>12.0</ele><time>2026-04-09T16:19:28.383Z</time></trkpt><trkpt lat="43.8898731" lon="8.0383803"><ele>12.0</ele><time>2026-04-09T16:19:29.382Z</time></trkpt><trkpt lat="43.8898453" lon="8.0385322"><ele>11.8</ele><time>2026-04-09T16:19:31.383Z</time></trkpt><trkpt lat="43.8898162" lon="8.0386429"><ele>11.6</ele><time>2026-04-09T16:19:33.383Z</time></trkpt><trkpt lat="43.889784" lon="8.0387777"><ele>11.4</ele><time>2026-04-09T16:19:35.382Z</time></trkpt><trkpt lat="43.8897407" lon="8.0389495"><ele>11.200000000000001</ele><time>2026-04-09T16:19:37.382Z</time></trkpt><trkpt lat="43.8897209" lon="8.0390341"><ele>11.0</ele><time>2026-04-09T16:19:38.382Z</time></trkpt><trkpt lat="43.8897052" lon="8.0391634"><ele>11.0</ele><time>2026-04-09T16:19:40.382Z</time></trkpt><trkpt lat="43.8896998" lon="8.0392609"><ele>11.0</ele><time>2026-04-09T16:19:42.382Z</time></trkpt><trkpt lat="43.8896313" lon="8.0393934"><ele>11.0</ele><time>2026-04-09T16:19:59.387Z</time></trkpt><trkpt lat="43.8895848" lon="8.0394998"><ele>11.0</ele><time>2026-04-09T16:20:01.386Z</time></trkpt><trkpt lat="43.8896082" lon="8.0396063"><ele>11.0</ele><time>2026-04-09T16:20:03.387Z</time></trkpt><trkpt lat="43.8896655" lon="8.0396523"><ele>11.0</ele><time>2026-04-09T16:20:06.387Z</time></trkpt><trkpt lat="43.8897443" lon="8.0397146"><ele>11.0</ele><time>2026-04-09T16:20:08.386Z</time></trkpt><trkpt lat="43.8898077" lon="8.0397489"><ele>11.0</ele><time>2026-04-09T16:20:09.387Z</time></trkpt><trkpt lat="43.8898834" lon="8.0397989"><ele>11.0</ele><time>2026-04-09T16:20:11.387Z</time></trkpt><trkpt lat="43.8899419" lon="8.0399197"><ele>11.0</ele><time>2026-04-09T16:20:19.386Z</time></trkpt><trkpt lat="43.8900051" lon="8.0399617"><ele>11.0</ele><time>2026-04-09T16:20:20.386Z</time></trkpt><trkpt lat="43.8900976" lon="8.0400256"><ele>11.0</ele><time>2026-04-09T16:20:21.386Z</time></trkpt><trkpt lat="43.8902151" lon="8.0400567"><ele>11.5</ele><time>2026-04-09T16:20:22.386Z</time></trkpt><trkpt lat="43.8903266" lon="8.0401035"><ele>12.0</ele><time>2026-04-09T16:20:23.387Z</time></trkpt><trkpt lat="43.8904542" lon="8.0401332"><ele>12.5</ele><time>2026-04-09T16:20:24.387Z</time></trkpt><trkpt lat="43.8905992" lon="8.0401669"><ele>13.0</ele><time>2026-04-09T16:20:25.387Z</time></trkpt><trkpt lat="43.8907486" lon="8.0402206"><ele>13.0</ele><time>2026-04-09T16:20:26.386Z</time></trkpt><trkpt lat="43.8909065" lon="8.0402588"><ele>13.0</ele><time>2026-04-09T16:20:27.386Z</time></trkpt><trkpt lat="43.891066" lon="8.0402929"><ele>13.0</ele><time>2026-04-09T16:20:28.387Z</time></trkpt><trkpt lat="43.8912291" lon="8.0403354"><ele>13.333333333333332</ele><time>2026-04-09T16:20:29.387Z</time></trkpt><trkpt lat="43.8913893" lon="8.0403777"><ele>13.666666666666668</ele><time>2026-04-09T16:20:30.386Z</time></trkpt><trkpt lat="43.8915357" lon="8.0403887"><ele>14.0</ele><time>2026-04-09T16:20:31.387Z</time></trkpt><trkpt lat="43.8916834" lon="8.0404008"><ele>14.399999999999999</ele><time>2026-04-09T16:20:32.386Z</time></trkpt><trkpt lat="43.8918087" lon="8.0404047"><ele>14.799999999999999</ele><time>2026-04-09T16:20:33.387Z</time></trkpt><trkpt lat="43.8919136" lon="8.0403964"><ele>15.200000000000001</ele><time>2026-04-09T16:20:34.386Z</time></trkpt><trkpt lat="43.8919937" lon="8.0403779"><ele>15.600000000000001</ele><time>2026-04-09T16:20:35.387Z</time></trkpt><trkpt lat="43.8920634" lon="8.0404246"><ele>16.0</ele><time>2026-04-09T16:20:36.386Z</time></trkpt><trkpt lat="43.8921396" lon="8.0405741"><ele>16.0</ele><time>2026-04-09T16:20:38.387Z</time></trkpt><trkpt lat="43.8921663" lon="8.0406897"><ele>16.0</ele><time>2026-04-09T16:20:39.386Z</time></trkpt><trkpt lat="43.8921756" lon="8.0408137"><ele>16.0</ele><time>2026-04-09T16:20:40.386Z</time></trkpt><trkpt lat="43.8921628" lon="8.040958"><ele>16.0</ele><time>2026-04-09T16:20:41.386Z</time></trkpt><trkpt lat="43.8921193" lon="8.0411009"><ele>16.0</ele><time>2026-04-09T16:20:42.387Z</time></trkpt><trkpt lat="43.892055" lon="8.0412385"><ele>16.2</ele><time>2026-04-09T16:20:43.387Z</time></trkpt><trkpt lat="43.8919696" lon="8.0413401"><ele>16.400000000000002</ele><time>2026-04-09T16:20:44.386Z</time></trkpt><trkpt lat="43.8918814" lon="8.0414397"><ele>16.6</ele><time>2026-04-09T16:20:45.387Z</time></trkpt><trkpt lat="43.8918017" lon="8.0415333"><ele>16.8</ele><time>2026-04-09T16:20:46.386Z</time></trkpt><trkpt lat="43.8917391" lon="8.0416176"><ele>17.0</ele><time>2026-04-09T16:20:47.386Z</time></trkpt><trkpt lat="43.8916872" lon="8.041698"><ele>17.666666666666668</ele><time>2026-04-09T16:20:48.387Z</time></trkpt><trkpt lat="43.8916348" lon="8.0417638"><ele>18.333333333333336</ele><time>2026-04-09T16:20:49.387Z</time></trkpt><trkpt lat="43.8915854" lon="8.0418184"><ele>19.0</ele><time>2026-04-09T16:20:50.387Z</time></trkpt><trkpt lat="43.8915084" lon="8.041903"><ele>19.666666666666668</ele><time>2026-04-09T16:20:52.386Z</time></trkpt><trkpt lat="43.8914458" lon="8.0419712"><ele>20.333333333333332</ele><time>2026-04-09T16:20:54.387Z</time></trkpt><trkpt lat="43.8913827" lon="8.0420391"><ele>21.0</ele><time>2026-04-09T16:20:56.387Z</time></trkpt><trkpt lat="43.8913086" lon="8.0421105"><ele>21.0</ele><time>2026-04-09T16:20:58.387Z</time></trkpt><trkpt lat="43.8912283" lon="8.0421559"><ele>21.0</ele><time>2026-04-09T16:21:00.386Z</time></trkpt><trkpt lat="43.8911269" lon="8.0422061"><ele>21.0</ele><time>2026-04-09T16:21:02.387Z</time></trkpt><trkpt lat="43.8910349" lon="8.0422412"><ele>21.0</ele><time>2026-04-09T16:21:04.387Z</time></trkpt><trkpt lat="43.890948" lon="8.0422739"><ele>21.0</ele><time>2026-04-09T16:21:06.386Z</time></trkpt><trkpt lat="43.8908663" lon="8.0422994"><ele>20.285714285714285</ele><time>2026-04-09T16:21:08.387Z</time></trkpt><trkpt lat="43.8908009" lon="8.0423147"><ele>19.57142857142857</ele><time>2026-04-09T16:21:09.387Z</time></trkpt><trkpt lat="43.8907236" lon="8.0423425"><ele>18.857142857142858</ele><time>2026-04-09T16:21:10.386Z</time></trkpt><trkpt lat="43.8906461" lon="8.0423579"><ele>18.142857142857142</ele><time>2026-04-09T16:21:11.386Z</time></trkpt><trkpt lat="43.8905775" lon="8.042362"><ele>17.428571428571427</ele><time>2026-04-09T16:21:12.387Z</time></trkpt><trkpt lat="43.8905126" lon="8.0423707"><ele>16.714285714285715</ele><time>2026-04-09T16:21:13.387Z</time></trkpt><trkpt lat="43.8904257" lon="8.0423977"><ele>16.0</ele><time>2026-04-09T16:21:15.387Z</time></trkpt><trkpt lat="43.8903529" lon="8.0424266"><ele>16.0</ele><time>2026-04-09T16:21:17.386Z</time></trkpt><trkpt lat="43.8902514" lon="8.0424581"><ele>16.0</ele><time>2026-04-09T16:21:19.387Z</time></trkpt><trkpt lat="43.8901498" lon="8.0424847"><ele>16.0</ele><time>2026-04-09T16:21:21.386Z</time></trkpt><trkpt lat="43.8900451" lon="8.0425196"><ele>16.0</ele><time>2026-04-09T16:21:23.386Z</time></trkpt><trkpt lat="43.8899243" lon="8.0426035"><ele>17.166666666666664</ele><time>2026-04-09T16:21:25.386Z</time></trkpt><trkpt lat="43.8898569" lon="8.0426547"><ele>18.333333333333332</ele><time>2026-04-09T16:21:26.386Z</time></trkpt><trkpt lat="43.8898022" lon="8.042705"><ele>19.5</ele><time>2026-04-09T16:21:27.387Z</time></trkpt><trkpt lat="43.8897531" lon="8.0427625"><ele>20.666666666666668</ele><time>2026-04-09T16:21:28.386Z</time></trkpt><trkpt lat="43.8897076" lon="8.0428284"><ele>21.833333333333336</ele><time>2026-04-09T16:21:29.387Z</time></trkpt><trkpt lat="43.889637" lon="8.0429689"><ele>23.0</ele><time>2026-04-09T16:21:31.387Z</time></trkpt><trkpt lat="43.8896022" lon="8.0431138"><ele>23.0</ele><time>2026-04-09T16:21:33.387Z</time></trkpt><trkpt lat="43.8895778" lon="8.0432501"><ele>23.0</ele><time>2026-04-09T16:21:35.386Z</time></trkpt><trkpt lat="43.8895534" lon="8.0433454"><ele>23.0</ele><time>2026-04-09T16:21:37.386Z</time></trkpt><trkpt lat="43.889548" lon="8.043454"><ele>23.0</ele><time>2026-04-09T16:21:39.387Z</time></trkpt><trkpt lat="43.8896082" lon="8.043516"><ele>23.0</ele><time>2026-04-09T16:21:41.387Z</time></trkpt><trkpt lat="43.8897012" lon="8.0435099"><ele>23.0</ele><time>2026-04-09T16:21:43.386Z</time></trkpt><trkpt lat="43.8897704" lon="8.0434938"><ele>23.166666666666668</ele><time>2026-04-09T16:21:44.386Z</time></trkpt><trkpt lat="43.8898531" lon="8.0434636"><ele>23.333333333333336</ele><time>2026-04-09T16:21:45.386Z</time></trkpt><trkpt lat="43.8899317" lon="8.0434213"><ele>23.5</ele><time>2026-04-09T16:21:46.386Z</time></trkpt><trkpt lat="43.8900113" lon="8.0433828"><ele>23.666666666666668</ele><time>2026-04-09T16:21:47.386Z</time></trkpt><trkpt lat="43.8900962" lon="8.0433356"><ele>23.833333333333332</ele><time>2026-04-09T16:21:48.387Z</time></trkpt><trkpt lat="43.8901809" lon="8.0432909"><ele>24.0</ele><time>2026-04-09T16:21:49.386Z</time></trkpt><trkpt lat="43.8902848" lon="8.0432451"><ele>24.0</ele><time>2026-04-09T16:21:50.386Z</time></trkpt><trkpt lat="43.8904016" lon="8.043195"><ele>24.0</ele><time>2026-04-09T16:21:51.387Z</time></trkpt><trkpt lat="43.8905353" lon="8.0431488"><ele>24.0</ele><time>2026-04-09T16:21:52.386Z</time></trkpt><trkpt lat="43.8906911" lon="8.0431157"><ele>24.0</ele><time>2026-04-09T16:21:53.386Z</time></trkpt><trkpt lat="43.8908549" lon="8.0430962"><ele>26.0</ele><time>2026-04-09T16:21:54.386Z</time></trkpt><trkpt lat="43.891003" lon="8.0430739"><ele>28.0</ele><time>2026-04-09T16:21:55.387Z</time></trkpt><trkpt lat="43.8911386" lon="8.043042"><ele>30.0</ele><time>2026-04-09T16:21:56.386Z</time></trkpt><trkpt lat="43.8912597" lon="8.0430062"><ele>32.0</ele><time>2026-04-09T16:21:57.386Z</time></trkpt><trkpt lat="43.8913633" lon="8.0429753"><ele>31.999999999999996</ele><time>2026-04-09T16:21:58.387Z</time></trkpt><trkpt lat="43.8914328" lon="8.0429458"><ele>32.0</ele><time>2026-04-09T16:21:59.387Z</time></trkpt><trkpt lat="43.8915148" lon="8.0429125"><ele>32.0</ele><time>2026-04-09T16:22:01.386Z</time></trkpt><trkpt lat="43.8915713" lon="8.0429604"><ele>32.0</ele><time>2026-04-09T16:22:03.386Z</time></trkpt><trkpt lat="43.8915468" lon="8.0430537"><ele>31.999999999999996</ele><time>2026-04-09T16:22:05.387Z</time></trkpt><trkpt lat="43.8914412" lon="8.0431423"><ele>32.0</ele><time>2026-04-09T16:22:07.387Z</time></trkpt><trkpt lat="43.8913759" lon="8.043202"><ele>32.0</ele><time>2026-04-09T16:22:08.386Z</time></trkpt><trkpt lat="43.8913033" lon="8.0432676"><ele>32.0</ele><time>2026-04-09T16:22:09.386Z</time></trkpt><trkpt lat="43.8912225" lon="8.0433278"><ele>32.0</ele><time>2026-04-09T16:22:10.387Z</time></trkpt><trkpt lat="43.8911343" lon="8.0433962"><ele>32.0</ele><time>2026-04-09T16:22:11.387Z</time></trkpt><trkpt lat="43.8910457" lon="8.043466"><ele>32.0</ele><time>2026-04-09T16:22:12.387Z</time></trkpt><trkpt lat="43.8909642" lon="8.0435385"><ele>33.2</ele><time>2026-04-09T16:22:13.387Z</time></trkpt><trkpt lat="43.8908799" lon="8.0436255"><ele>34.400000000000006</ele><time>2026-04-09T16:22:14.386Z</time></trkpt><trkpt lat="43.8907984" lon="8.0437216"><ele>35.599999999999994</ele><time>2026-04-09T16:22:15.387Z</time></trkpt><trkpt lat="43.8907224" lon="8.0438225"><ele>36.8</ele><time>2026-04-09T16:22:16.387Z</time></trkpt><trkpt lat="43.8906582" lon="8.0439288"><ele>38.0</ele><time>2026-04-09T16:22:17.387Z</time></trkpt><trkpt lat="43.8905953" lon="8.0440273"><ele>38.0</ele><time>2026-04-09T16:22:18.387Z</time></trkpt><trkpt lat="43.8905334" lon="8.0441243"><ele>38.0</ele><time>2026-04-09T16:22:19.387Z</time></trkpt><trkpt lat="43.890468" lon="8.0442017"><ele>38.0</ele><time>2026-04-09T16:22:20.386Z</time></trkpt><trkpt lat="43.8904106" lon="8.0442944"><ele>38.0</ele><time>2026-04-09T16:22:21.387Z</time></trkpt><trkpt lat="43.8903737" lon="8.0443792"><ele>38.0</ele><time>2026-04-09T16:22:22.386Z</time></trkpt><trkpt lat="43.8903507" lon="8.0444709"><ele>38.0</ele><time>2026-04-09T16:22:23.386Z</time></trkpt><trkpt lat="43.8903387" lon="8.0445815"><ele>39.599999999999994</ele><time>2026-04-09T16:22:24.387Z</time></trkpt><trkpt lat="43.8903237" lon="8.0446899"><ele>41.199999999999996</ele><time>2026-04-09T16:22:25.387Z</time></trkpt><trkpt lat="43.890318" lon="8.0447893"><ele>42.8</ele><time>2026-04-09T16:22:26.386Z</time></trkpt><trkpt lat="43.8903449" lon="8.0449477"><ele>44.4</ele><time>2026-04-09T16:22:28.386Z</time></trkpt><trkpt lat="43.8904824" lon="8.0450028"><ele>46.0</ele><time>2026-04-09T16:22:30.387Z</time></trkpt><trkpt lat="43.8905789" lon="8.0450339"><ele>46.25</ele><time>2026-04-09T16:22:31.386Z</time></trkpt><trkpt lat="43.8907041" lon="8.0450746"><ele>46.5</ele><time>2026-04-09T16:22:32.387Z</time></trkpt><trkpt lat="43.8908272" lon="8.0450761"><ele>46.75</ele><time>2026-04-09T16:22:33.387Z</time></trkpt><trkpt lat="43.8909368" lon="8.0450817"><ele>47.0</ele><time>2026-04-09T16:22:34.386Z</time></trkpt><trkpt lat="43.8910359" lon="8.0450817"><ele>48.0</ele><time>2026-04-09T16:22:35.386Z</time></trkpt><trkpt lat="43.8911274" lon="8.0450745"><ele>49.0</ele><time>2026-04-09T16:22:36.386Z</time></trkpt><trkpt lat="43.8912055" lon="8.0450735"><ele>50.0</ele><time>2026-04-09T16:22:37.386Z</time></trkpt><trkpt lat="43.8912746" lon="8.0450739"><ele>51.0</ele><time>2026-04-09T16:22:38.386Z</time></trkpt><trkpt lat="43.8913549" lon="8.0450761"><ele>52.00000000000001</ele><time>2026-04-09T16:22:39.387Z</time></trkpt><trkpt lat="43.8914549" lon="8.0450828"><ele>53.0</ele><time>2026-04-09T16:22:40.386Z</time></trkpt><trkpt lat="43.8915536" lon="8.0450972"><ele>53.0</ele><time>2026-04-09T16:22:41.386Z</time></trkpt><trkpt lat="43.8916585" lon="8.0451176"><ele>53.0</ele><time>2026-04-09T16:22:42.387Z</time></trkpt><trkpt lat="43.8917661" lon="8.0451479"><ele>53.0</ele><time>2026-04-09T16:22:43.387Z</time></trkpt><trkpt lat="43.8918738" lon="8.0451931"><ele>53.0</ele><time>2026-04-09T16:22:44.387Z</time></trkpt><trkpt lat="43.8919926" lon="8.0452513"><ele>55.25</ele><time>2026-04-09T16:22:45.387Z</time></trkpt><trkpt lat="43.8920827" lon="8.0453209"><ele>57.5</ele><time>2026-04-09T16:22:46.387Z</time></trkpt><trkpt lat="43.8921642" lon="8.0454254"><ele>59.75</ele><time>2026-04-09T16:22:47.386Z</time></trkpt><trkpt lat="43.8922322" lon="8.0455687"><ele>62.0</ele><time>2026-04-09T16:22:48.386Z</time></trkpt><trkpt lat="43.8922833" lon="8.0457257"><ele>59.5</ele><time>2026-04-09T16:22:49.386Z</time></trkpt><trkpt lat="43.8923339" lon="8.0458892"><ele>57.0</ele><time>2026-04-09T16:22:50.387Z</time></trkpt><trkpt lat="43.892395" lon="8.046048"><ele>54.5</ele><time>2026-04-09T16:22:51.386Z</time></trkpt><trkpt lat="43.8924706" lon="8.0461871"><ele>52.0</ele><time>2026-04-09T16:22:52.386Z</time></trkpt><trkpt lat="43.8925451" lon="8.0463003"><ele>54.2</ele><time>2026-04-09T16:22:53.387Z</time></trkpt><trkpt lat="43.8926182" lon="8.0463756"><ele>56.400000000000006</ele><time>2026-04-09T16:22:54.386Z</time></trkpt><trkpt lat="43.8927138" lon="8.0463854"><ele>58.599999999999994</ele><time>2026-04-09T16:22:56.386Z</time></trkpt><trkpt lat="43.8927889" lon="8.046266"><ele>60.8</ele><time>2026-04-09T16:22:58.386Z</time></trkpt><trkpt lat="43.8928649" lon="8.0461463"><ele>63.0</ele><time>2026-04-09T16:23:00.387Z</time></trkpt><trkpt lat="43.8929865" lon="8.0461142"><ele>63.0</ele><time>2026-04-09T16:23:02.387Z</time></trkpt><trkpt lat="43.8930612" lon="8.0461312"><ele>63.0</ele><time>2026-04-09T16:23:03.387Z</time></trkpt><trkpt lat="43.8931357" lon="8.0461483"><ele>63.0</ele><time>2026-04-09T16:23:04.386Z</time></trkpt><trkpt lat="43.8931974" lon="8.0461228"><ele>63.0</ele><time>2026-04-09T16:23:05.386Z</time></trkpt><trkpt lat="43.8932688" lon="8.0460175"><ele>63.0</ele><time>2026-04-09T16:23:07.387Z</time></trkpt><trkpt lat="43.8932848" lon="8.0459312"><ele>63.0</ele><time>2026-04-09T16:23:09.386Z</time></trkpt><trkpt lat="43.8932196" lon="8.0459904"><ele>63.0</ele><time>2026-04-09T16:23:19.386Z</time></trkpt><trkpt lat="43.8932727" lon="8.0459414"><ele>63.0</ele><time>2026-04-09T16:23:27.387Z</time></trkpt></trkseg></trk></gpx>